<?xml version="1.0" encoding="UTF-8" ?>
<gpx version="1.1" xmlns:xsi="http://www.w3.org/2001/XMLSchema-instance"
    xmlns="http://www.topografix.com/GPX/1/1"
    xsi:schemaLocation="http://www.topografix.com/GPX/1/1 http://www.topografix.com/GPX/1/1/gpx.xsd"
    creator="Openrunner - https://www.openrunner.com" >	<trk>
	                   <name>Autour de Buis-les-Baronnies-25104138</name>
						<trkseg>
					<trkpt lat="44.276040" lon="5.276030">
						<ele>372</ele>
						<time>2026-09-02T20:22:01Z</time>
					</trkpt>
					<trkpt lat="44.275770" lon="5.276690">
						<ele>371</ele>
						<time>2026-09-02T20:22:28Z</time>
					</trkpt>
					<trkpt lat="44.275740" lon="5.276850">
						<ele>371</ele>
						<time>2026-09-02T20:22:34Z</time>
					</trkpt>
					<trkpt lat="44.275780" lon="5.276920">
						<ele>371</ele>
						<time>2026-09-02T20:22:37Z</time>
					</trkpt>
					<trkpt lat="44.276200" lon="5.277240">
						<ele>371</ele>
						<time>2026-09-02T20:23:01Z</time>
					</trkpt>
					<trkpt lat="44.276220" lon="5.277320">
						<ele>371</ele>
						<time>2026-09-02T20:23:04Z</time>
					</trkpt>
					<trkpt lat="44.276210" lon="5.277420">
						<ele>371</ele>
						<time>2026-09-02T20:23:08Z</time>
					</trkpt>
					<trkpt lat="44.276110" lon="5.277680">
						<ele>372</ele>
						<time>2026-09-02T20:23:19Z</time>
					</trkpt>
					<trkpt lat="44.275910" lon="5.278030">
						<ele>374</ele>
						<time>2026-09-02T20:23:35Z</time>
					</trkpt>
					<trkpt lat="44.275840" lon="5.278250">
						<ele>375</ele>
						<time>2026-09-02T20:23:43Z</time>
					</trkpt>
					<trkpt lat="44.275780" lon="5.278570">
						<ele>377</ele>
						<time>2026-09-02T20:23:55Z</time>
					</trkpt>
					<trkpt lat="44.275710" lon="5.278760">
						<ele>379</ele>
						<time>2026-09-02T20:24:03Z</time>
					</trkpt>
					<trkpt lat="44.275510" lon="5.279100">
						<ele>384</ele>
						<time>2026-09-02T20:24:18Z</time>
					</trkpt>
					<trkpt lat="44.275430" lon="5.279160">
						<ele>385</ele>
						<time>2026-09-02T20:24:23Z</time>
					</trkpt>
					<trkpt lat="44.275240" lon="5.279440">
						<ele>391</ele>
						<time>2026-09-02T20:24:37Z</time>
					</trkpt>
					<trkpt lat="44.275210" lon="5.279870">
						<ele>398</ele>
						<time>2026-09-02T20:24:52Z</time>
					</trkpt>
					<trkpt lat="44.275170" lon="5.279920">
						<ele>399</ele>
						<time>2026-09-02T20:24:55Z</time>
					</trkpt>
					<trkpt lat="44.275070" lon="5.280380">
						<ele>404</ele>
						<time>2026-09-02T20:25:12Z</time>
					</trkpt>
					<trkpt lat="44.274970" lon="5.280680">
						<ele>407</ele>
						<time>2026-09-02T20:25:24Z</time>
					</trkpt>
					<trkpt lat="44.274810" lon="5.280980">
						<ele>411</ele>
						<time>2026-09-02T20:25:38Z</time>
					</trkpt>
					<trkpt lat="44.274890" lon="5.281310">
						<ele>413</ele>
						<time>2026-09-02T20:25:50Z</time>
					</trkpt>
					<trkpt lat="44.274910" lon="5.281660">
						<ele>415</ele>
						<time>2026-09-02T20:26:03Z</time>
					</trkpt>
					<trkpt lat="44.274890" lon="5.281830">
						<ele>416</ele>
						<time>2026-09-02T20:26:09Z</time>
					</trkpt>
					<trkpt lat="44.274790" lon="5.282140">
						<ele>418</ele>
						<time>2026-09-02T20:26:21Z</time>
					</trkpt>
					<trkpt lat="44.274690" lon="5.283210">
						<ele>431</ele>
						<time>2026-09-02T20:27:00Z</time>
					</trkpt>
					<trkpt lat="44.274640" lon="5.283280">
						<ele>433</ele>
						<time>2026-09-02T20:27:03Z</time>
					</trkpt>
					<trkpt lat="44.274560" lon="5.283320">
						<ele>436</ele>
						<time>2026-09-02T20:27:07Z</time>
					</trkpt>
					<trkpt lat="44.274510" lon="5.283320">
						<ele>437</ele>
						<time>2026-09-02T20:27:10Z</time>
					</trkpt>
					<trkpt lat="44.274420" lon="5.283250">
						<ele>438</ele>
						<time>2026-09-02T20:27:15Z</time>
					</trkpt>
					<trkpt lat="44.274360" lon="5.283270">
						<ele>440</ele>
						<time>2026-09-02T20:27:18Z</time>
					</trkpt>
					<trkpt lat="44.274250" lon="5.283180">
						<ele>441</ele>
						<time>2026-09-02T20:27:25Z</time>
					</trkpt>
					<trkpt lat="44.274200" lon="5.283170">
						<ele>442</ele>
						<time>2026-09-02T20:27:27Z</time>
					</trkpt>
					<trkpt lat="44.274100" lon="5.283170">
						<ele>443</ele>
						<time>2026-09-02T20:27:32Z</time>
					</trkpt>
					<trkpt lat="44.273900" lon="5.283240">
						<ele>447</ele>
						<time>2026-09-02T20:27:42Z</time>
					</trkpt>
					<trkpt lat="44.273740" lon="5.283220">
						<ele>449</ele>
						<time>2026-09-02T20:27:50Z</time>
					</trkpt>
					<trkpt lat="44.273660" lon="5.283150">
						<ele>449</ele>
						<time>2026-09-02T20:27:55Z</time>
					</trkpt>
					<trkpt lat="44.273430" lon="5.282830">
						<ele>449</ele>
						<time>2026-09-02T20:28:11Z</time>
					</trkpt>
					<trkpt lat="44.273070" lon="5.282570">
						<ele>453</ele>
						<time>2026-09-02T20:28:32Z</time>
					</trkpt>
					<trkpt lat="44.272990" lon="5.282410">
						<ele>453</ele>
						<time>2026-09-02T20:28:39Z</time>
					</trkpt>
					<trkpt lat="44.272890" lon="5.282040">
						<ele>453</ele>
						<time>2026-09-02T20:28:53Z</time>
					</trkpt>
					<trkpt lat="44.272850" lon="5.282000">
						<ele>454</ele>
						<time>2026-09-02T20:28:55Z</time>
					</trkpt>
					<trkpt lat="44.272810" lon="5.282000">
						<ele>455</ele>
						<time>2026-09-02T20:28:57Z</time>
					</trkpt>
					<trkpt lat="44.272800" lon="5.282110">
						<ele>456</ele>
						<time>2026-09-02T20:29:01Z</time>
					</trkpt>
					<trkpt lat="44.272830" lon="5.282380">
						<ele>457</ele>
						<time>2026-09-02T20:29:11Z</time>
					</trkpt>
					<trkpt lat="44.272810" lon="5.282810">
						<ele>459</ele>
						<time>2026-09-02T20:29:26Z</time>
					</trkpt>
					<trkpt lat="44.272750" lon="5.283130">
						<ele>461</ele>
						<time>2026-09-02T20:29:38Z</time>
					</trkpt>
					<trkpt lat="44.272600" lon="5.283430">
						<ele>465</ele>
						<time>2026-09-02T20:29:51Z</time>
					</trkpt>
					<trkpt lat="44.272580" lon="5.283600">
						<ele>467</ele>
						<time>2026-09-02T20:29:58Z</time>
					</trkpt>
					<trkpt lat="44.272660" lon="5.284050">
						<ele>472</ele>
						<time>2026-09-02T20:30:14Z</time>
					</trkpt>
					<trkpt lat="44.272710" lon="5.284170">
						<ele>473</ele>
						<time>2026-09-02T20:30:19Z</time>
					</trkpt>
					<trkpt lat="44.272820" lon="5.284350">
						<ele>475</ele>
						<time>2026-09-02T20:30:28Z</time>
					</trkpt>
					<trkpt lat="44.273120" lon="5.284690">
						<ele>475</ele>
						<time>2026-09-02T20:30:47Z</time>
					</trkpt>
					<trkpt lat="44.273080" lon="5.284870">
						<ele>477</ele>
						<time>2026-09-02T20:30:54Z</time>
					</trkpt>
					<trkpt lat="44.272850" lon="5.285090">
						<ele>483</ele>
						<time>2026-09-02T20:31:08Z</time>
					</trkpt>
					<trkpt lat="44.272440" lon="5.285320">
						<ele>492</ele>
						<time>2026-09-02T20:31:30Z</time>
					</trkpt>
					<trkpt lat="44.272310" lon="5.285450">
						<ele>497</ele>
						<time>2026-09-02T20:31:38Z</time>
					</trkpt>
					<trkpt lat="44.272220" lon="5.285470">
						<ele>500</ele>
						<time>2026-09-02T20:31:42Z</time>
					</trkpt>
					<trkpt lat="44.272070" lon="5.285330">
						<ele>503</ele>
						<time>2026-09-02T20:31:51Z</time>
					</trkpt>
					<trkpt lat="44.271970" lon="5.285320">
						<ele>505</ele>
						<time>2026-09-02T20:31:56Z</time>
					</trkpt>
					<trkpt lat="44.271940" lon="5.285370">
						<ele>507</ele>
						<time>2026-09-02T20:31:59Z</time>
					</trkpt>
					<trkpt lat="44.271940" lon="5.285680">
						<ele>509</ele>
						<time>2026-09-02T20:32:10Z</time>
					</trkpt>
					<trkpt lat="44.271830" lon="5.286010">
						<ele>515</ele>
						<time>2026-09-02T20:32:23Z</time>
					</trkpt>
					<trkpt lat="44.271670" lon="5.286180">
						<ele>520</ele>
						<time>2026-09-02T20:32:33Z</time>
					</trkpt>
					<trkpt lat="44.271430" lon="5.286260">
						<ele>528</ele>
						<time>2026-09-02T20:32:45Z</time>
					</trkpt>
					<trkpt lat="44.271410" lon="5.286350">
						<ele>529</ele>
						<time>2026-09-02T20:32:49Z</time>
					</trkpt>
					<trkpt lat="44.271440" lon="5.286600">
						<ele>530</ele>
						<time>2026-09-02T20:32:58Z</time>
					</trkpt>
					<trkpt lat="44.271380" lon="5.286860">
						<ele>533</ele>
						<time>2026-09-02T20:33:08Z</time>
					</trkpt>
					<trkpt lat="44.271340" lon="5.286910">
						<ele>534</ele>
						<time>2026-09-02T20:33:10Z</time>
					</trkpt>
					<trkpt lat="44.271210" lon="5.286950">
						<ele>538</ele>
						<time>2026-09-02T20:33:17Z</time>
					</trkpt>
					<trkpt lat="44.270940" lon="5.286920">
						<ele>546</ele>
						<time>2026-09-02T20:33:30Z</time>
					</trkpt>
					<trkpt lat="44.270910" lon="5.286980">
						<ele>547</ele>
						<time>2026-09-02T20:33:33Z</time>
					</trkpt>
					<trkpt lat="44.270760" lon="5.287110">
						<ele>552</ele>
						<time>2026-09-02T20:33:42Z</time>
					</trkpt>
					<trkpt lat="44.270660" lon="5.287250">
						<ele>554</ele>
						<time>2026-09-02T20:33:49Z</time>
					</trkpt>
					<trkpt lat="44.270560" lon="5.287300">
						<ele>556</ele>
						<time>2026-09-02T20:33:54Z</time>
					</trkpt>
					<trkpt lat="44.270490" lon="5.287420">
						<ele>558</ele>
						<time>2026-09-02T20:34:00Z</time>
					</trkpt>
					<trkpt lat="44.270390" lon="5.287520">
						<ele>560</ele>
						<time>2026-09-02T20:34:06Z</time>
					</trkpt>
					<trkpt lat="44.270230" lon="5.287590">
						<ele>563</ele>
						<time>2026-09-02T20:34:14Z</time>
					</trkpt>
					<trkpt lat="44.270080" lon="5.287490">
						<ele>565</ele>
						<time>2026-09-02T20:34:23Z</time>
					</trkpt>
					<trkpt lat="44.269940" lon="5.287150">
						<ele>571</ele>
						<time>2026-09-02T20:34:37Z</time>
					</trkpt>
					<trkpt lat="44.269900" lon="5.287100">
						<ele>573</ele>
						<time>2026-09-02T20:34:39Z</time>
					</trkpt>
					<trkpt lat="44.269790" lon="5.287080">
						<ele>579</ele>
						<time>2026-09-02T20:34:45Z</time>
					</trkpt>
					<trkpt lat="44.269720" lon="5.287120">
						<ele>582</ele>
						<time>2026-09-02T20:34:49Z</time>
					</trkpt>
					<trkpt lat="44.269630" lon="5.287550">
						<ele>586</ele>
						<time>2026-09-02T20:35:05Z</time>
					</trkpt>
					<trkpt lat="44.269610" lon="5.287840">
						<ele>589</ele>
						<time>2026-09-02T20:35:15Z</time>
					</trkpt>
					<trkpt lat="44.269640" lon="5.288430">
						<ele>591</ele>
						<time>2026-09-02T20:35:37Z</time>
					</trkpt>
					<trkpt lat="44.269630" lon="5.288880">
						<ele>593</ele>
						<time>2026-09-02T20:35:53Z</time>
					</trkpt>
					<trkpt lat="44.269580" lon="5.289150">
						<ele>597</ele>
						<time>2026-09-02T20:36:03Z</time>
					</trkpt>
					<trkpt lat="44.269410" lon="5.289700">
						<ele>602</ele>
						<time>2026-09-02T20:36:24Z</time>
					</trkpt>
					<trkpt lat="44.268870" lon="5.290720">
						<ele>627</ele>
						<time>2026-09-02T20:37:10Z</time>
					</trkpt>
					<trkpt lat="44.268900" lon="5.290010">
						<ele>631</ele>
						<time>2026-09-02T20:37:35Z</time>
					</trkpt>
					<trkpt lat="44.268890" lon="5.289530">
						<ele>635</ele>
						<time>2026-09-02T20:37:52Z</time>
					</trkpt>
					<trkpt lat="44.268870" lon="5.289470">
						<ele>636</ele>
						<time>2026-09-02T20:37:55Z</time>
					</trkpt>
					<trkpt lat="44.268710" lon="5.289810">
						<ele>646</ele>
						<time>2026-09-02T20:38:09Z</time>
					</trkpt>
					<trkpt lat="44.268530" lon="5.290320">
						<ele>654</ele>
						<time>2026-09-02T20:38:30Z</time>
					</trkpt>
					<trkpt lat="44.268350" lon="5.290710">
						<ele>661</ele>
						<time>2026-09-02T20:38:46Z</time>
					</trkpt>
					<trkpt lat="44.268200" lon="5.291420">
						<ele>663</ele>
						<time>2026-09-02T20:39:13Z</time>
					</trkpt>
					<trkpt lat="44.268150" lon="5.291490">
						<ele>665</ele>
						<time>2026-09-02T20:39:16Z</time>
					</trkpt>
					<trkpt lat="44.268130" lon="5.291490">
						<ele>666</ele>
						<time>2026-09-02T20:39:17Z</time>
					</trkpt>
					<trkpt lat="44.268110" lon="5.291420">
						<ele>667</ele>
						<time>2026-09-02T20:39:20Z</time>
					</trkpt>
					<trkpt lat="44.268050" lon="5.291020">
						<ele>669</ele>
						<time>2026-09-02T20:39:35Z</time>
					</trkpt>
					<trkpt lat="44.268060" lon="5.290760">
						<ele>670</ele>
						<time>2026-09-02T20:39:44Z</time>
					</trkpt>
					<trkpt lat="44.268030" lon="5.290360">
						<ele>676</ele>
						<time>2026-09-02T20:39:58Z</time>
					</trkpt>
					<trkpt lat="44.267990" lon="5.290190">
						<ele>679</ele>
						<time>2026-09-02T20:40:05Z</time>
					</trkpt>
					<trkpt lat="44.267810" lon="5.290630">
						<ele>680</ele>
						<time>2026-09-02T20:40:23Z</time>
					</trkpt>
					<trkpt lat="44.267720" lon="5.290750">
						<ele>681</ele>
						<time>2026-09-02T20:40:29Z</time>
					</trkpt>
					<trkpt lat="44.267650" lon="5.290750">
						<ele>684</ele>
						<time>2026-09-02T20:40:33Z</time>
					</trkpt>
					<trkpt lat="44.267620" lon="5.290720">
						<ele>685</ele>
						<time>2026-09-02T20:40:35Z</time>
					</trkpt>
					<trkpt lat="44.267540" lon="5.291050">
						<ele>687</ele>
						<time>2026-09-02T20:40:47Z</time>
					</trkpt>
					<trkpt lat="44.267400" lon="5.291400">
						<ele>684</ele>
						<time>2026-09-02T20:41:01Z</time>
					</trkpt>
					<trkpt lat="44.267330" lon="5.291660">
						<ele>681</ele>
						<time>2026-09-02T20:41:11Z</time>
					</trkpt>
					<trkpt lat="44.267260" lon="5.292050">
						<ele>680</ele>
						<time>2026-09-02T20:41:26Z</time>
					</trkpt>
					<trkpt lat="44.267260" lon="5.292290">
						<ele>682</ele>
						<time>2026-09-02T20:41:34Z</time>
					</trkpt>
					<trkpt lat="44.267310" lon="5.292740">
						<ele>687</ele>
						<time>2026-09-02T20:41:51Z</time>
					</trkpt>
					<trkpt lat="44.267300" lon="5.292950">
						<ele>687</ele>
						<time>2026-09-02T20:41:58Z</time>
					</trkpt>
					<trkpt lat="44.267250" lon="5.293140">
						<ele>686</ele>
						<time>2026-09-02T20:42:05Z</time>
					</trkpt>
					<trkpt lat="44.267090" lon="5.293520">
						<ele>679</ele>
						<time>2026-09-02T20:42:21Z</time>
					</trkpt>
					<trkpt lat="44.267080" lon="5.293830">
						<ele>680</ele>
						<time>2026-09-02T20:42:32Z</time>
					</trkpt>
					<trkpt lat="44.266960" lon="5.294330">
						<ele>678</ele>
						<time>2026-09-02T20:42:51Z</time>
					</trkpt>
					<trkpt lat="44.266940" lon="5.294500">
						<ele>679</ele>
						<time>2026-09-02T20:42:57Z</time>
					</trkpt>
					<trkpt lat="44.266980" lon="5.294930">
						<ele>687</ele>
						<time>2026-09-02T20:43:13Z</time>
					</trkpt>
					<trkpt lat="44.266950" lon="5.295220">
						<ele>690</ele>
						<time>2026-09-02T20:43:23Z</time>
					</trkpt>
					<trkpt lat="44.266990" lon="5.295770">
						<ele>700</ele>
						<time>2026-09-02T20:43:43Z</time>
					</trkpt>
					<trkpt lat="44.267000" lon="5.296650">
						<ele>712</ele>
						<time>2026-09-02T20:44:15Z</time>
					</trkpt>
					<trkpt lat="44.266960" lon="5.297010">
						<ele>716</ele>
						<time>2026-09-02T20:44:28Z</time>
					</trkpt>
					<trkpt lat="44.266990" lon="5.297480">
						<ele>723</ele>
						<time>2026-09-02T20:44:45Z</time>
					</trkpt>
					<trkpt lat="44.266920" lon="5.298480">
						<ele>729</ele>
						<time>2026-09-02T20:45:21Z</time>
					</trkpt>
					<trkpt lat="44.266940" lon="5.298630">
						<ele>729</ele>
						<time>2026-09-02T20:45:26Z</time>
					</trkpt>
					<trkpt lat="44.267020" lon="5.298780">
						<ele>729</ele>
						<time>2026-09-02T20:45:33Z</time>
					</trkpt>
					<trkpt lat="44.267070" lon="5.299040">
						<ele>729</ele>
						<time>2026-09-02T20:45:43Z</time>
					</trkpt>
					<trkpt lat="44.267050" lon="5.299300">
						<ele>730</ele>
						<time>2026-09-02T20:45:52Z</time>
					</trkpt>
					<trkpt lat="44.267080" lon="5.299580">
						<ele>730</ele>
						<time>2026-09-02T20:46:02Z</time>
					</trkpt>
					<trkpt lat="44.267070" lon="5.299850">
						<ele>730</ele>
						<time>2026-09-02T20:46:12Z</time>
					</trkpt>
					<trkpt lat="44.267040" lon="5.299990">
						<ele>731</ele>
						<time>2026-09-02T20:46:17Z</time>
					</trkpt>
					<trkpt lat="44.266930" lon="5.300270">
						<ele>736</ele>
						<time>2026-09-02T20:46:28Z</time>
					</trkpt>
					<trkpt lat="44.266890" lon="5.300560">
						<ele>739</ele>
						<time>2026-09-02T20:46:39Z</time>
					</trkpt>
					<trkpt lat="44.266450" lon="5.301850">
						<ele>757</ele>
						<time>2026-09-02T20:47:30Z</time>
					</trkpt>
					<trkpt lat="44.266290" lon="5.302130">
						<ele>760</ele>
						<time>2026-09-02T20:47:43Z</time>
					</trkpt>
					<trkpt lat="44.266220" lon="5.302200">
						<ele>762</ele>
						<time>2026-09-02T20:47:47Z</time>
					</trkpt>
					<trkpt lat="44.266030" lon="5.302560">
						<ele>769</ele>
						<time>2026-09-02T20:48:03Z</time>
					</trkpt>
					<trkpt lat="44.265630" lon="5.302860">
						<ele>781</ele>
						<time>2026-09-02T20:48:26Z</time>
					</trkpt>
					<trkpt lat="44.265400" lon="5.302940">
						<ele>785</ele>
						<time>2026-09-02T20:48:38Z</time>
					</trkpt>
					<trkpt lat="44.265010" lon="5.302990">
						<ele>790</ele>
						<time>2026-09-02T20:48:58Z</time>
					</trkpt>
					<trkpt lat="44.264680" lon="5.303090">
						<ele>798</ele>
						<time>2026-09-02T20:49:15Z</time>
					</trkpt>
					<trkpt lat="44.264100" lon="5.303120">
						<ele>807</ele>
						<time>2026-09-02T20:49:44Z</time>
					</trkpt>
					<trkpt lat="44.263630" lon="5.303090">
						<ele>816</ele>
						<time>2026-09-02T20:50:07Z</time>
					</trkpt>
					<trkpt lat="44.263490" lon="5.303210">
						<ele>823</ele>
						<time>2026-09-02T20:50:15Z</time>
					</trkpt>
					<trkpt lat="44.263350" lon="5.303220">
						<ele>826</ele>
						<time>2026-09-02T20:50:22Z</time>
					</trkpt>
					<trkpt lat="44.263170" lon="5.303150">
						<ele>827</ele>
						<time>2026-09-02T20:50:32Z</time>
					</trkpt>
					<trkpt lat="44.263090" lon="5.303210">
						<ele>831</ele>
						<time>2026-09-02T20:50:36Z</time>
					</trkpt>
					<trkpt lat="44.262880" lon="5.303190">
						<ele>835</ele>
						<time>2026-09-02T20:50:47Z</time>
					</trkpt>
					<trkpt lat="44.262480" lon="5.303000">
						<ele>840</ele>
						<time>2026-09-02T20:51:08Z</time>
					</trkpt>
					<trkpt lat="44.262370" lon="5.303040">
						<ele>840</ele>
						<time>2026-09-02T20:51:14Z</time>
					</trkpt>
					<trkpt lat="44.261870" lon="5.303960">
						<ele>860</ele>
						<time>2026-09-02T20:51:55Z</time>
					</trkpt>
					<trkpt lat="44.261820" lon="5.304020">
						<ele>862</ele>
						<time>2026-09-02T20:51:58Z</time>
					</trkpt>
					<trkpt lat="44.261730" lon="5.304070">
						<ele>863</ele>
						<time>2026-09-02T20:52:03Z</time>
					</trkpt>
					<trkpt lat="44.261640" lon="5.304260">
						<ele>868</ele>
						<time>2026-09-02T20:52:11Z</time>
					</trkpt>
					<trkpt lat="44.261140" lon="5.304730">
						<ele>878</ele>
						<time>2026-09-02T20:52:41Z</time>
					</trkpt>
					<trkpt lat="44.261010" lon="5.304930">
						<ele>883</ele>
						<time>2026-09-02T20:52:51Z</time>
					</trkpt>
					<trkpt lat="44.260850" lon="5.305090">
						<ele>887</ele>
						<time>2026-09-02T20:53:01Z</time>
					</trkpt>
					<trkpt lat="44.260700" lon="5.305290">
						<ele>895</ele>
						<time>2026-09-02T20:53:11Z</time>
					</trkpt>
					<trkpt lat="44.260550" lon="5.305400">
						<ele>899</ele>
						<time>2026-09-02T20:53:20Z</time>
					</trkpt>
					<trkpt lat="44.260370" lon="5.305460">
						<ele>900</ele>
						<time>2026-09-02T20:53:29Z</time>
					</trkpt>
					<trkpt lat="44.260300" lon="5.305520">
						<ele>902</ele>
						<time>2026-09-02T20:53:33Z</time>
					</trkpt>
					<trkpt lat="44.259790" lon="5.306070">
						<ele>917</ele>
						<time>2026-09-02T20:54:05Z</time>
					</trkpt>
					<trkpt lat="44.259420" lon="5.306420">
						<ele>926</ele>
						<time>2026-09-02T20:54:28Z</time>
					</trkpt>
					<trkpt lat="44.259230" lon="5.306540">
						<ele>929</ele>
						<time>2026-09-02T20:54:38Z</time>
					</trkpt>
					<trkpt lat="44.259080" lon="5.306590">
						<ele>929</ele>
						<time>2026-09-02T20:54:46Z</time>
					</trkpt>
					<trkpt lat="44.258770" lon="5.306760">
						<ele>932</ele>
						<time>2026-09-02T20:55:03Z</time>
					</trkpt>
					<trkpt lat="44.258630" lon="5.306880">
						<ele>935</ele>
						<time>2026-09-02T20:55:11Z</time>
					</trkpt>
					<trkpt lat="44.258340" lon="5.307260">
						<ele>945</ele>
						<time>2026-09-02T20:55:31Z</time>
					</trkpt>
					<trkpt lat="44.258160" lon="5.307390">
						<ele>948</ele>
						<time>2026-09-02T20:55:41Z</time>
					</trkpt>
					<trkpt lat="44.258120" lon="5.307500">
						<ele>951</ele>
						<time>2026-09-02T20:55:45Z</time>
					</trkpt>
					<trkpt lat="44.258030" lon="5.307560">
						<ele>952</ele>
						<time>2026-09-02T20:55:50Z</time>
					</trkpt>
					<trkpt lat="44.257750" lon="5.307890">
						<ele>961</ele>
						<time>2026-09-02T20:56:09Z</time>
					</trkpt>
					<trkpt lat="44.257630" lon="5.308180">
						<ele>969</ele>
						<time>2026-09-02T20:56:21Z</time>
					</trkpt>
					<trkpt lat="44.257560" lon="5.308230">
						<ele>969</ele>
						<time>2026-09-02T20:56:25Z</time>
					</trkpt>
					<trkpt lat="44.257490" lon="5.308350">
						<ele>971</ele>
						<time>2026-09-02T20:56:30Z</time>
					</trkpt>
					<trkpt lat="44.257420" lon="5.308390">
						<ele>971</ele>
						<time>2026-09-02T20:56:34Z</time>
					</trkpt>
					<trkpt lat="44.257130" lon="5.308910">
						<ele>986</ele>
						<time>2026-09-02T20:56:58Z</time>
					</trkpt>
					<trkpt lat="44.257040" lon="5.309000">
						<ele>987</ele>
						<time>2026-09-02T20:57:03Z</time>
					</trkpt>
					<trkpt lat="44.256930" lon="5.309270">
						<ele>995</ele>
						<time>2026-09-02T20:57:14Z</time>
					</trkpt>
					<trkpt lat="44.256760" lon="5.309450">
						<ele>998</ele>
						<time>2026-09-02T20:57:25Z</time>
					</trkpt>
					<trkpt lat="44.256350" lon="5.309810">
						<ele>1009</ele>
						<time>2026-09-02T20:57:49Z</time>
					</trkpt>
					<trkpt lat="44.256230" lon="5.309980">
						<ele>1015</ele>
						<time>2026-09-02T20:57:58Z</time>
					</trkpt>
					<trkpt lat="44.256050" lon="5.310060">
						<ele>1018</ele>
						<time>2026-09-02T20:58:07Z</time>
					</trkpt>
					<trkpt lat="44.255860" lon="5.310250">
						<ele>1025</ele>
						<time>2026-09-02T20:58:19Z</time>
					</trkpt>
					<trkpt lat="44.255600" lon="5.310230">
						<ele>1024</ele>
						<time>2026-09-02T20:58:32Z</time>
					</trkpt>
					<trkpt lat="44.255220" lon="5.310280">
						<ele>1027</ele>
						<time>2026-09-02T20:58:51Z</time>
					</trkpt>
					<trkpt lat="44.255030" lon="5.310350">
						<ele>1030</ele>
						<time>2026-09-02T20:59:01Z</time>
					</trkpt>
					<trkpt lat="44.254880" lon="5.310320">
						<ele>1027</ele>
						<time>2026-09-02T20:59:08Z</time>
					</trkpt>
					<trkpt lat="44.254360" lon="5.310320">
						<ele>1023</ele>
						<time>2026-09-02T20:59:34Z</time>
					</trkpt>
					<trkpt lat="44.254740" lon="5.310570">
						<ele>1036</ele>
						<time>2026-09-02T20:59:55Z</time>
					</trkpt>
					<trkpt lat="44.255360" lon="5.310800">
						<ele>1052</ele>
						<time>2026-09-02T21:00:28Z</time>
					</trkpt>
					<trkpt lat="44.255570" lon="5.310840">
						<ele>1055</ele>
						<time>2026-09-02T21:00:38Z</time>
					</trkpt>
					<trkpt lat="44.255700" lon="5.310840">
						<ele>1056</ele>
						<time>2026-09-02T21:00:45Z</time>
					</trkpt>
					<trkpt lat="44.255990" lon="5.310780">
						<ele>1055</ele>
						<time>2026-09-02T21:00:59Z</time>
					</trkpt>
					<trkpt lat="44.256110" lon="5.310800">
						<ele>1057</ele>
						<time>2026-09-02T21:01:05Z</time>
					</trkpt>
					<trkpt lat="44.256250" lon="5.310830">
						<ele>1060</ele>
						<time>2026-09-02T21:01:12Z</time>
					</trkpt>
					<trkpt lat="44.256540" lon="5.311020">
						<ele>1068</ele>
						<time>2026-09-02T21:01:29Z</time>
					</trkpt>
					<trkpt lat="44.256790" lon="5.311050">
						<ele>1069</ele>
						<time>2026-09-02T21:01:41Z</time>
					</trkpt>
					<trkpt lat="44.256730" lon="5.311330">
						<ele>1075</ele>
						<time>2026-09-02T21:01:52Z</time>
					</trkpt>
					<trkpt lat="44.256650" lon="5.311460">
						<ele>1079</ele>
						<time>2026-09-02T21:01:58Z</time>
					</trkpt>
					<trkpt lat="44.256480" lon="5.311670">
						<ele>1085</ele>
						<time>2026-09-02T21:02:09Z</time>
					</trkpt>
					<trkpt lat="44.256320" lon="5.311770">
						<ele>1089</ele>
						<time>2026-09-02T21:02:18Z</time>
					</trkpt>
					<trkpt lat="44.256300" lon="5.311810">
						<ele>1090</ele>
						<time>2026-09-02T21:02:20Z</time>
					</trkpt>
					<trkpt lat="44.256390" lon="5.311890">
						<ele>1089</ele>
						<time>2026-09-02T21:02:25Z</time>
					</trkpt>
					<trkpt lat="44.256410" lon="5.312040">
						<ele>1090</ele>
						<time>2026-09-02T21:02:30Z</time>
					</trkpt>
					<trkpt lat="44.256270" lon="5.312500">
						<ele>1101</ele>
						<time>2026-09-02T21:02:48Z</time>
					</trkpt>
					<trkpt lat="44.256240" lon="5.312850">
						<ele>1104</ele>
						<time>2026-09-02T21:03:01Z</time>
					</trkpt>
					<trkpt lat="44.256200" lon="5.312990">
						<ele>1107</ele>
						<time>2026-09-02T21:03:06Z</time>
					</trkpt>
					<trkpt lat="44.256170" lon="5.313030">
						<ele>1109</ele>
						<time>2026-09-02T21:03:08Z</time>
					</trkpt>
					<trkpt lat="44.256070" lon="5.313080">
						<ele>1113</ele>
						<time>2026-09-02T21:03:14Z</time>
					</trkpt>
					<trkpt lat="44.255990" lon="5.313320">
						<ele>1119</ele>
						<time>2026-09-02T21:03:23Z</time>
					</trkpt>
					<trkpt lat="44.255960" lon="5.313610">
						<ele>1120</ele>
						<time>2026-09-02T21:03:34Z</time>
					</trkpt>
					<trkpt lat="44.255990" lon="5.313860">
						<ele>1119</ele>
						<time>2026-09-02T21:03:43Z</time>
					</trkpt>
					<trkpt lat="44.255980" lon="5.313970">
						<ele>1119</ele>
						<time>2026-09-02T21:03:47Z</time>
					</trkpt>
					<trkpt lat="44.255870" lon="5.314350">
						<ele>1122</ele>
						<time>2026-09-02T21:04:01Z</time>
					</trkpt>
					<trkpt lat="44.255840" lon="5.314590">
						<ele>1121</ele>
						<time>2026-09-02T21:04:10Z</time>
					</trkpt>
					<trkpt lat="44.255900" lon="5.314930">
						<ele>1115</ele>
						<time>2026-09-02T21:04:23Z</time>
					</trkpt>
					<trkpt lat="44.256000" lon="5.315180">
						<ele>1109</ele>
						<time>2026-09-02T21:04:33Z</time>
					</trkpt>
					<trkpt lat="44.255990" lon="5.315590">
						<ele>1107</ele>
						<time>2026-09-02T21:04:48Z</time>
					</trkpt>
					<trkpt lat="44.256050" lon="5.315930">
						<ele>1102</ele>
						<time>2026-09-02T21:05:00Z</time>
					</trkpt>
					<trkpt lat="44.256010" lon="5.316050">
						<ele>1103</ele>
						<time>2026-09-02T21:05:05Z</time>
					</trkpt>
					<trkpt lat="44.255890" lon="5.316250">
						<ele>1104</ele>
						<time>2026-09-02T21:05:14Z</time>
					</trkpt>
					<trkpt lat="44.255880" lon="5.316440">
						<ele>1102</ele>
						<time>2026-09-02T21:05:21Z</time>
					</trkpt>
					<trkpt lat="44.255790" lon="5.316630">
						<ele>1102</ele>
						<time>2026-09-02T21:05:29Z</time>
					</trkpt>
					<trkpt lat="44.255650" lon="5.316830">
						<ele>1103</ele>
						<time>2026-09-02T21:05:39Z</time>
					</trkpt>
					<trkpt lat="44.255380" lon="5.317090">
						<ele>1104</ele>
						<time>2026-09-02T21:05:56Z</time>
					</trkpt>
					<trkpt lat="44.255210" lon="5.317360">
						<ele>1104</ele>
						<time>2026-09-02T21:06:09Z</time>
					</trkpt>
					<trkpt lat="44.254910" lon="5.317630">
						<ele>1106</ele>
						<time>2026-09-02T21:06:27Z</time>
					</trkpt>
					<trkpt lat="44.254570" lon="5.318270">
						<ele>1110</ele>
						<time>2026-09-02T21:06:55Z</time>
					</trkpt>
					<trkpt lat="44.254520" lon="5.318320">
						<ele>1111</ele>
						<time>2026-09-02T21:06:58Z</time>
					</trkpt>
					<trkpt lat="44.254320" lon="5.318410">
						<ele>1114</ele>
						<time>2026-09-02T21:07:09Z</time>
					</trkpt>
					<trkpt lat="44.254220" lon="5.318510">
						<ele>1115</ele>
						<time>2026-09-02T21:07:15Z</time>
					</trkpt>
					<trkpt lat="44.253710" lon="5.319180">
						<ele>1119</ele>
						<time>2026-09-02T21:07:50Z</time>
					</trkpt>
					<trkpt lat="44.253460" lon="5.319270">
						<ele>1121</ele>
						<time>2026-09-02T21:08:03Z</time>
					</trkpt>
					<trkpt lat="44.253290" lon="5.319390">
						<ele>1122</ele>
						<time>2026-09-02T21:08:12Z</time>
					</trkpt>
					<trkpt lat="44.253140" lon="5.319690">
						<ele>1124</ele>
						<time>2026-09-02T21:08:25Z</time>
					</trkpt>
					<trkpt lat="44.253040" lon="5.319750">
						<ele>1124</ele>
						<time>2026-09-02T21:08:31Z</time>
					</trkpt>
					<trkpt lat="44.252710" lon="5.320060">
						<ele>1126</ele>
						<time>2026-09-02T21:08:51Z</time>
					</trkpt>
					<trkpt lat="44.252130" lon="5.320820">
						<ele>1134</ele>
						<time>2026-09-02T21:09:31Z</time>
					</trkpt>
					<trkpt lat="44.252060" lon="5.320950">
						<ele>1135</ele>
						<time>2026-09-02T21:09:36Z</time>
					</trkpt>
					<trkpt lat="44.251880" lon="5.321530">
						<ele>1137</ele>
						<time>2026-09-02T21:09:59Z</time>
					</trkpt>
					<trkpt lat="44.251830" lon="5.321610">
						<ele>1138</ele>
						<time>2026-09-02T21:10:03Z</time>
					</trkpt>
					<trkpt lat="44.251570" lon="5.321730">
						<ele>1141</ele>
						<time>2026-09-02T21:10:17Z</time>
					</trkpt>
					<trkpt lat="44.251500" lon="5.321790">
						<ele>1142</ele>
						<time>2026-09-02T21:10:21Z</time>
					</trkpt>
					<trkpt lat="44.251410" lon="5.322150">
						<ele>1144</ele>
						<time>2026-09-02T21:10:34Z</time>
					</trkpt>
					<trkpt lat="44.251390" lon="5.322440">
						<ele>1145</ele>
						<time>2026-09-02T21:10:45Z</time>
					</trkpt>
					<trkpt lat="44.251270" lon="5.322880">
						<ele>1147</ele>
						<time>2026-09-02T21:11:02Z</time>
					</trkpt>
					<trkpt lat="44.251260" lon="5.323040">
						<ele>1147</ele>
						<time>2026-09-02T21:11:07Z</time>
					</trkpt>
					<trkpt lat="44.251160" lon="5.323110">
						<ele>1149</ele>
						<time>2026-09-02T21:11:13Z</time>
					</trkpt>
					<trkpt lat="44.250830" lon="5.323230">
						<ele>1154</ele>
						<time>2026-09-02T21:11:30Z</time>
					</trkpt>
					<trkpt lat="44.250470" lon="5.323680">
						<ele>1156</ele>
						<time>2026-09-02T21:11:54Z</time>
					</trkpt>
					<trkpt lat="44.250150" lon="5.323800">
						<ele>1161</ele>
						<time>2026-09-02T21:12:11Z</time>
					</trkpt>
					<trkpt lat="44.250050" lon="5.324010">
						<ele>1161</ele>
						<time>2026-09-02T21:12:20Z</time>
					</trkpt>
					<trkpt lat="44.250010" lon="5.324450">
						<ele>1157</ele>
						<time>2026-09-02T21:12:36Z</time>
					</trkpt>
					<trkpt lat="44.249940" lon="5.324640">
						<ele>1156</ele>
						<time>2026-09-02T21:12:43Z</time>
					</trkpt>
					<trkpt lat="44.249430" lon="5.325330">
						<ele>1160</ele>
						<time>2026-09-02T21:13:19Z</time>
					</trkpt>
					<trkpt lat="44.249310" lon="5.325660">
						<ele>1157</ele>
						<time>2026-09-02T21:13:32Z</time>
					</trkpt>
					<trkpt lat="44.249150" lon="5.325860">
						<ele>1157</ele>
						<time>2026-09-02T21:13:43Z</time>
					</trkpt>
					<trkpt lat="44.249060" lon="5.325910">
						<ele>1158</ele>
						<time>2026-09-02T21:13:48Z</time>
					</trkpt>
					<trkpt lat="44.248820" lon="5.326530">
						<ele>1153</ele>
						<time>2026-09-02T21:14:13Z</time>
					</trkpt>
					<trkpt lat="44.248610" lon="5.326780">
						<ele>1154</ele>
						<time>2026-09-02T21:14:27Z</time>
					</trkpt>
					<trkpt lat="44.248280" lon="5.327010">
						<ele>1157</ele>
						<time>2026-09-02T21:14:45Z</time>
					</trkpt>
					<trkpt lat="44.248170" lon="5.327160">
						<ele>1156</ele>
						<time>2026-09-02T21:14:53Z</time>
					</trkpt>
					<trkpt lat="44.248120" lon="5.327340">
						<ele>1155</ele>
						<time>2026-09-02T21:15:00Z</time>
					</trkpt>
					<trkpt lat="44.248030" lon="5.327540">
						<ele>1154</ele>
						<time>2026-09-02T21:15:08Z</time>
					</trkpt>
					<trkpt lat="44.247560" lon="5.328200">
						<ele>1155</ele>
						<time>2026-09-02T21:15:42Z</time>
					</trkpt>
					<trkpt lat="44.247440" lon="5.328260">
						<ele>1156</ele>
						<time>2026-09-02T21:15:48Z</time>
					</trkpt>
					<trkpt lat="44.246950" lon="5.328300">
						<ele>1157</ele>
						<time>2026-09-02T21:16:13Z</time>
					</trkpt>
					<trkpt lat="44.246820" lon="5.328150">
						<ele>1158</ele>
						<time>2026-09-02T21:16:21Z</time>
					</trkpt>
					<trkpt lat="44.246510" lon="5.328030">
						<ele>1159</ele>
						<time>2026-09-02T21:16:37Z</time>
					</trkpt>
					<trkpt lat="44.246380" lon="5.328250">
						<ele>1157</ele>
						<time>2026-09-02T21:16:48Z</time>
					</trkpt>
					<trkpt lat="44.246000" lon="5.328510">
						<ele>1154</ele>
						<time>2026-09-02T21:17:09Z</time>
					</trkpt>
					<trkpt lat="44.245880" lon="5.328640">
						<ele>1152</ele>
						<time>2026-09-02T21:17:16Z</time>
					</trkpt>
					<trkpt lat="44.245790" lon="5.328690">
						<ele>1151</ele>
						<time>2026-09-02T21:17:21Z</time>
					</trkpt>
					<trkpt lat="44.245560" lon="5.328950">
						<ele>1147</ele>
						<time>2026-09-02T21:17:36Z</time>
					</trkpt>
					<trkpt lat="44.245420" lon="5.329210">
						<ele>1143</ele>
						<time>2026-09-02T21:17:48Z</time>
					</trkpt>
					<trkpt lat="44.245270" lon="5.329400">
						<ele>1139</ele>
						<time>2026-09-02T21:17:58Z</time>
					</trkpt>
					<trkpt lat="44.245270" lon="5.329490">
						<ele>1138</ele>
						<time>2026-09-02T21:18:01Z</time>
					</trkpt>
					<trkpt lat="44.245220" lon="5.329630">
						<ele>1137</ele>
						<time>2026-09-02T21:18:07Z</time>
					</trkpt>
					<trkpt lat="44.245100" lon="5.329720">
						<ele>1135</ele>
						<time>2026-09-02T21:18:13Z</time>
					</trkpt>
					<trkpt lat="44.244730" lon="5.330120">
						<ele>1127</ele>
						<time>2026-09-02T21:18:37Z</time>
					</trkpt>
					<trkpt lat="44.244070" lon="5.330490">
						<ele>1118</ele>
						<time>2026-09-02T21:19:12Z</time>
					</trkpt>
					<trkpt lat="44.243760" lon="5.330720">
						<ele>1113</ele>
						<time>2026-09-02T21:19:30Z</time>
					</trkpt>
					<trkpt lat="44.243710" lon="5.330780">
						<ele>1112</ele>
						<time>2026-09-02T21:19:33Z</time>
					</trkpt>
					<trkpt lat="44.243660" lon="5.330790">
						<ele>1111</ele>
						<time>2026-09-02T21:19:36Z</time>
					</trkpt>
					<trkpt lat="44.243610" lon="5.330760">
						<ele>1111</ele>
						<time>2026-09-02T21:19:39Z</time>
					</trkpt>
					<trkpt lat="44.243380" lon="5.330840">
						<ele>1108</ele>
						<time>2026-09-02T21:19:50Z</time>
					</trkpt>
					<trkpt lat="44.243210" lon="5.330930">
						<ele>1105</ele>
						<time>2026-09-02T21:20:00Z</time>
					</trkpt>
					<trkpt lat="44.243140" lon="5.330990">
						<ele>1103</ele>
						<time>2026-09-02T21:20:04Z</time>
					</trkpt>
					<trkpt lat="44.243050" lon="5.331140">
						<ele>1101</ele>
						<time>2026-09-02T21:20:11Z</time>
					</trkpt>
					<trkpt lat="44.242680" lon="5.331420">
						<ele>1095</ele>
						<time>2026-09-02T21:20:32Z</time>
					</trkpt>
					<trkpt lat="44.242520" lon="5.331630">
						<ele>1091</ele>
						<time>2026-09-02T21:20:43Z</time>
					</trkpt>
					<trkpt lat="44.242200" lon="5.331740">
						<ele>1086</ele>
						<time>2026-09-02T21:20:59Z</time>
					</trkpt>
					<trkpt lat="44.241620" lon="5.332100">
						<ele>1075</ele>
						<time>2026-09-02T21:21:31Z</time>
					</trkpt>
					<trkpt lat="44.241400" lon="5.332420">
						<ele>1071</ele>
						<time>2026-09-02T21:21:47Z</time>
					</trkpt>
					<trkpt lat="44.240970" lon="5.333190">
						<ele>1061</ele>
						<time>2026-09-02T21:22:22Z</time>
					</trkpt>
					<trkpt lat="44.240730" lon="5.333500">
						<ele>1056</ele>
						<time>2026-09-02T21:22:38Z</time>
					</trkpt>
					<trkpt lat="44.240710" lon="5.333560">
						<ele>1056</ele>
						<time>2026-09-02T21:22:41Z</time>
					</trkpt>
					<trkpt lat="44.239710" lon="5.334050">
						<ele>1043</ele>
						<time>2026-09-02T21:23:34Z</time>
					</trkpt>
					<trkpt lat="44.238950" lon="5.334540">
						<ele>1030</ele>
						<time>2026-09-02T21:24:16Z</time>
					</trkpt>
					<trkpt lat="44.238740" lon="5.334460">
						<ele>1029</ele>
						<time>2026-09-02T21:24:26Z</time>
					</trkpt>
					<trkpt lat="44.238660" lon="5.334480">
						<ele>1029</ele>
						<time>2026-09-02T21:24:30Z</time>
					</trkpt>
					<trkpt lat="44.238560" lon="5.334550">
						<ele>1029</ele>
						<time>2026-09-02T21:24:36Z</time>
					</trkpt>
					<trkpt lat="44.238470" lon="5.334480">
						<ele>1028</ele>
						<time>2026-09-02T21:24:41Z</time>
					</trkpt>
					<trkpt lat="44.238380" lon="5.334560">
						<ele>1028</ele>
						<time>2026-09-02T21:24:47Z</time>
					</trkpt>
					<trkpt lat="44.238160" lon="5.334850">
						<ele>1028</ele>
						<time>2026-09-02T21:25:02Z</time>
					</trkpt>
					<trkpt lat="44.238040" lon="5.334940">
						<ele>1028</ele>
						<time>2026-09-02T21:25:09Z</time>
					</trkpt>
					<trkpt lat="44.238090" lon="5.334080">
						<ele>1021</ele>
						<time>2026-09-02T21:25:39Z</time>
					</trkpt>
					<trkpt lat="44.238170" lon="5.333560">
						<ele>1015</ele>
						<time>2026-09-02T21:25:59Z</time>
					</trkpt>
					<trkpt lat="44.238130" lon="5.333440">
						<ele>1013</ele>
						<time>2026-09-02T21:26:03Z</time>
					</trkpt>
					<trkpt lat="44.238000" lon="5.333260">
						<ele>1010</ele>
						<time>2026-09-02T21:26:12Z</time>
					</trkpt>
					<trkpt lat="44.237950" lon="5.332880">
						<ele>1007</ele>
						<time>2026-09-02T21:26:26Z</time>
					</trkpt>
					<trkpt lat="44.237910" lon="5.332760">
						<ele>1005</ele>
						<time>2026-09-02T21:26:31Z</time>
					</trkpt>
					<trkpt lat="44.237860" lon="5.332660">
						<ele>1005</ele>
						<time>2026-09-02T21:26:35Z</time>
					</trkpt>
					<trkpt lat="44.237740" lon="5.332540">
						<ele>1003</ele>
						<time>2026-09-02T21:26:43Z</time>
					</trkpt>
					<trkpt lat="44.237730" lon="5.332150">
						<ele>996</ele>
						<time>2026-09-02T21:26:57Z</time>
					</trkpt>
					<trkpt lat="44.237680" lon="5.332000">
						<ele>992</ele>
						<time>2026-09-02T21:27:03Z</time>
					</trkpt>
					<trkpt lat="44.237690" lon="5.331960">
						<ele>991</ele>
						<time>2026-09-02T21:27:04Z</time>
					</trkpt>
					<trkpt lat="44.237760" lon="5.331950">
						<ele>992</ele>
						<time>2026-09-02T21:27:08Z</time>
					</trkpt>
					<trkpt lat="44.237720" lon="5.331670">
						<ele>986</ele>
						<time>2026-09-02T21:27:18Z</time>
					</trkpt>
					<trkpt lat="44.237750" lon="5.331240">
						<ele>972</ele>
						<time>2026-09-02T21:27:33Z</time>
					</trkpt>
					<trkpt lat="44.237850" lon="5.331020">
						<ele>967</ele>
						<time>2026-09-02T21:27:43Z</time>
					</trkpt>
					<trkpt lat="44.237950" lon="5.330960">
						<ele>968</ele>
						<time>2026-09-02T21:27:48Z</time>
					</trkpt>
					<trkpt lat="44.238000" lon="5.330860">
						<ele>966</ele>
						<time>2026-09-02T21:27:53Z</time>
					</trkpt>
					<trkpt lat="44.238120" lon="5.330520">
						<ele>957</ele>
						<time>2026-09-02T21:28:06Z</time>
					</trkpt>
					<trkpt lat="44.238260" lon="5.330280">
						<ele>953</ele>
						<time>2026-09-02T21:28:17Z</time>
					</trkpt>
					<trkpt lat="44.238520" lon="5.329650">
						<ele>941</ele>
						<time>2026-09-02T21:28:43Z</time>
					</trkpt>
					<trkpt lat="44.238910" lon="5.329230">
						<ele>938</ele>
						<time>2026-09-02T21:29:08Z</time>
					</trkpt>
					<trkpt lat="44.239000" lon="5.328860">
						<ele>931</ele>
						<time>2026-09-02T21:29:22Z</time>
					</trkpt>
					<trkpt lat="44.239020" lon="5.328680">
						<ele>928</ele>
						<time>2026-09-02T21:29:29Z</time>
					</trkpt>
					<trkpt lat="44.238990" lon="5.328660">
						<ele>926</ele>
						<time>2026-09-02T21:29:30Z</time>
					</trkpt>
					<trkpt lat="44.238690" lon="5.328990">
						<ele>925</ele>
						<time>2026-09-02T21:29:49Z</time>
					</trkpt>
					<trkpt lat="44.238640" lon="5.329000">
						<ele>924</ele>
						<time>2026-09-02T21:29:52Z</time>
					</trkpt>
					<trkpt lat="44.238520" lon="5.328910">
						<ele>919</ele>
						<time>2026-09-02T21:29:59Z</time>
					</trkpt>
					<trkpt lat="44.238250" lon="5.328840">
						<ele>910</ele>
						<time>2026-09-02T21:30:12Z</time>
					</trkpt>
					<trkpt lat="44.237530" lon="5.328910">
						<ele>893</ele>
						<time>2026-09-02T21:30:49Z</time>
					</trkpt>
					<trkpt lat="44.237350" lon="5.328980">
						<ele>891</ele>
						<time>2026-09-02T21:30:58Z</time>
					</trkpt>
					<trkpt lat="44.237300" lon="5.328940">
						<ele>889</ele>
						<time>2026-09-02T21:31:01Z</time>
					</trkpt>
					<trkpt lat="44.237270" lon="5.328860">
						<ele>887</ele>
						<time>2026-09-02T21:31:04Z</time>
					</trkpt>
					<trkpt lat="44.237150" lon="5.328300">
						<ele>874</ele>
						<time>2026-09-02T21:31:25Z</time>
					</trkpt>
					<trkpt lat="44.237220" lon="5.328180">
						<ele>873</ele>
						<time>2026-09-02T21:31:31Z</time>
					</trkpt>
					<trkpt lat="44.237300" lon="5.327920">
						<ele>868</ele>
						<time>2026-09-02T21:31:41Z</time>
					</trkpt>
					<trkpt lat="44.237390" lon="5.327790">
						<ele>867</ele>
						<time>2026-09-02T21:31:47Z</time>
					</trkpt>
					<trkpt lat="44.237260" lon="5.327810">
						<ele>864</ele>
						<time>2026-09-02T21:31:54Z</time>
					</trkpt>
					<trkpt lat="44.237080" lon="5.327970">
						<ele>865</ele>
						<time>2026-09-02T21:32:04Z</time>
					</trkpt>
					<trkpt lat="44.237040" lon="5.327950">
						<ele>864</ele>
						<time>2026-09-02T21:32:07Z</time>
					</trkpt>
					<trkpt lat="44.237330" lon="5.327310">
						<ele>855</ele>
						<time>2026-09-02T21:32:34Z</time>
					</trkpt>
					<trkpt lat="44.237520" lon="5.327200">
						<ele>856</ele>
						<time>2026-09-02T21:32:44Z</time>
					</trkpt>
					<trkpt lat="44.237470" lon="5.327120">
						<ele>854</ele>
						<time>2026-09-02T21:32:48Z</time>
					</trkpt>
					<trkpt lat="44.237210" lon="5.327060">
						<ele>848</ele>
						<time>2026-09-02T21:33:01Z</time>
					</trkpt>
					<trkpt lat="44.237060" lon="5.327080">
						<ele>846</ele>
						<time>2026-09-02T21:33:09Z</time>
					</trkpt>
					<trkpt lat="44.236880" lon="5.326960">
						<ele>840</ele>
						<time>2026-09-02T21:33:18Z</time>
					</trkpt>
					<trkpt lat="44.236830" lon="5.326960">
						<ele>839</ele>
						<time>2026-09-02T21:33:21Z</time>
					</trkpt>
					<trkpt lat="44.236740" lon="5.327010">
						<ele>839</ele>
						<time>2026-09-02T21:33:26Z</time>
					</trkpt>
					<trkpt lat="44.236670" lon="5.327130">
						<ele>839</ele>
						<time>2026-09-02T21:33:31Z</time>
					</trkpt>
					<trkpt lat="44.236580" lon="5.327210">
						<ele>839</ele>
						<time>2026-09-02T21:33:37Z</time>
					</trkpt>
					<trkpt lat="44.236470" lon="5.327430">
						<ele>840</ele>
						<time>2026-09-02T21:33:46Z</time>
					</trkpt>
					<trkpt lat="44.236430" lon="5.327440">
						<ele>839</ele>
						<time>2026-09-02T21:33:48Z</time>
					</trkpt>
					<trkpt lat="44.236290" lon="5.327320">
						<ele>834</ele>
						<time>2026-09-02T21:33:57Z</time>
					</trkpt>
					<trkpt lat="44.236110" lon="5.327380">
						<ele>831</ele>
						<time>2026-09-02T21:34:06Z</time>
					</trkpt>
					<trkpt lat="44.235980" lon="5.327390">
						<ele>829</ele>
						<time>2026-09-02T21:34:12Z</time>
					</trkpt>
					<trkpt lat="44.235600" lon="5.327230">
						<ele>818</ele>
						<time>2026-09-02T21:34:32Z</time>
					</trkpt>
					<trkpt lat="44.235510" lon="5.327150">
						<ele>815</ele>
						<time>2026-09-02T21:34:38Z</time>
					</trkpt>
					<trkpt lat="44.235490" lon="5.327090">
						<ele>813</ele>
						<time>2026-09-02T21:34:40Z</time>
					</trkpt>
					<trkpt lat="44.235750" lon="5.326780">
						<ele>813</ele>
						<time>2026-09-02T21:34:57Z</time>
					</trkpt>
					<trkpt lat="44.235810" lon="5.326640">
						<ele>811</ele>
						<time>2026-09-02T21:35:03Z</time>
					</trkpt>
					<trkpt lat="44.235890" lon="5.326040">
						<ele>805</ele>
						<time>2026-09-02T21:35:25Z</time>
					</trkpt>
					<trkpt lat="44.235880" lon="5.325890">
						<ele>803</ele>
						<time>2026-09-02T21:35:30Z</time>
					</trkpt>
					<trkpt lat="44.235830" lon="5.325760">
						<ele>800</ele>
						<time>2026-09-02T21:35:35Z</time>
					</trkpt>
					<trkpt lat="44.235490" lon="5.325650">
						<ele>791</ele>
						<time>2026-09-02T21:35:53Z</time>
					</trkpt>
					<trkpt lat="44.235420" lon="5.325570">
						<ele>788</ele>
						<time>2026-09-02T21:35:57Z</time>
					</trkpt>
					<trkpt lat="44.235430" lon="5.325460">
						<ele>787</ele>
						<time>2026-09-02T21:36:01Z</time>
					</trkpt>
					<trkpt lat="44.235570" lon="5.325340">
						<ele>788</ele>
						<time>2026-09-02T21:36:10Z</time>
					</trkpt>
					<trkpt lat="44.235610" lon="5.325220">
						<ele>786</ele>
						<time>2026-09-02T21:36:14Z</time>
					</trkpt>
					<trkpt lat="44.235760" lon="5.324950">
						<ele>785</ele>
						<time>2026-09-02T21:36:27Z</time>
					</trkpt>
					<trkpt lat="44.235740" lon="5.324590">
						<ele>777</ele>
						<time>2026-09-02T21:36:40Z</time>
					</trkpt>
					<trkpt lat="44.235810" lon="5.324410">
						<ele>775</ele>
						<time>2026-09-02T21:36:47Z</time>
					</trkpt>
					<trkpt lat="44.236150" lon="5.324070">
						<ele>774</ele>
						<time>2026-09-02T21:37:08Z</time>
					</trkpt>
					<trkpt lat="44.236410" lon="5.323660">
						<ele>769</ele>
						<time>2026-09-02T21:37:28Z</time>
					</trkpt>
					<trkpt lat="44.236510" lon="5.323580">
						<ele>769</ele>
						<time>2026-09-02T21:37:33Z</time>
					</trkpt>
					<trkpt lat="44.236550" lon="5.322840">
						<ele>760</ele>
						<time>2026-09-02T21:38:00Z</time>
					</trkpt>
					<trkpt lat="44.236600" lon="5.322580">
						<ele>758</ele>
						<time>2026-09-02T21:38:10Z</time>
					</trkpt>
					<trkpt lat="44.236670" lon="5.322400">
						<ele>757</ele>
						<time>2026-09-02T21:38:17Z</time>
					</trkpt>
					<trkpt lat="44.236670" lon="5.322270">
						<ele>756</ele>
						<time>2026-09-02T21:38:22Z</time>
					</trkpt>
					<trkpt lat="44.236570" lon="5.322130">
						<ele>753</ele>
						<time>2026-09-02T21:38:29Z</time>
					</trkpt>
					<trkpt lat="44.236310" lon="5.321940">
						<ele>748</ele>
						<time>2026-09-02T21:38:43Z</time>
					</trkpt>
					<trkpt lat="44.236090" lon="5.321640">
						<ele>743</ele>
						<time>2026-09-02T21:38:59Z</time>
					</trkpt>
					<trkpt lat="44.235960" lon="5.321640">
						<ele>741</ele>
						<time>2026-09-02T21:39:05Z</time>
					</trkpt>
					<trkpt lat="44.235840" lon="5.321690">
						<ele>740</ele>
						<time>2026-09-02T21:39:11Z</time>
					</trkpt>
					<trkpt lat="44.235720" lon="5.321790">
						<ele>737</ele>
						<time>2026-09-02T21:39:18Z</time>
					</trkpt>
					<trkpt lat="44.235610" lon="5.321940">
						<ele>735</ele>
						<time>2026-09-02T21:39:26Z</time>
					</trkpt>
					<trkpt lat="44.235530" lon="5.322110">
						<ele>734</ele>
						<time>2026-09-02T21:39:33Z</time>
					</trkpt>
					<trkpt lat="44.235460" lon="5.322440">
						<ele>734</ele>
						<time>2026-09-02T21:39:46Z</time>
					</trkpt>
					<trkpt lat="44.235260" lon="5.322840">
						<ele>730</ele>
						<time>2026-09-02T21:40:03Z</time>
					</trkpt>
					<trkpt lat="44.235160" lon="5.322980">
						<ele>728</ele>
						<time>2026-09-02T21:40:10Z</time>
					</trkpt>
					<trkpt lat="44.235020" lon="5.323320">
						<ele>726</ele>
						<time>2026-09-02T21:40:24Z</time>
					</trkpt>
					<trkpt lat="44.234970" lon="5.323380">
						<ele>726</ele>
						<time>2026-09-02T21:40:28Z</time>
					</trkpt>
					<trkpt lat="44.234920" lon="5.323320">
						<ele>723</ele>
						<time>2026-09-02T21:40:31Z</time>
					</trkpt>
					<trkpt lat="44.234830" lon="5.322980">
						<ele>718</ele>
						<time>2026-09-02T21:40:44Z</time>
					</trkpt>
					<trkpt lat="44.234790" lon="5.322550">
						<ele>714</ele>
						<time>2026-09-02T21:41:00Z</time>
					</trkpt>
					<trkpt lat="44.234750" lon="5.322450">
						<ele>713</ele>
						<time>2026-09-02T21:41:04Z</time>
					</trkpt>
					<trkpt lat="44.234700" lon="5.322430">
						<ele>711</ele>
						<time>2026-09-02T21:41:06Z</time>
					</trkpt>
					<trkpt lat="44.234670" lon="5.322460">
						<ele>711</ele>
						<time>2026-09-02T21:41:08Z</time>
					</trkpt>
					<trkpt lat="44.234400" lon="5.323100">
						<ele>709</ele>
						<time>2026-09-02T21:41:35Z</time>
					</trkpt>
					<trkpt lat="44.234280" lon="5.323110">
						<ele>706</ele>
						<time>2026-09-02T21:41:41Z</time>
					</trkpt>
					<trkpt lat="44.234190" lon="5.323160">
						<ele>704</ele>
						<time>2026-09-02T21:41:46Z</time>
					</trkpt>
					<trkpt lat="44.234110" lon="5.323310">
						<ele>704</ele>
						<time>2026-09-02T21:41:52Z</time>
					</trkpt>
					<trkpt lat="44.233930" lon="5.323370">
						<ele>703</ele>
						<time>2026-09-02T21:42:02Z</time>
					</trkpt>
					<trkpt lat="44.233900" lon="5.323480">
						<ele>705</ele>
						<time>2026-09-02T21:42:06Z</time>
					</trkpt>
					<trkpt lat="44.233740" lon="5.323760">
						<ele>709</ele>
						<time>2026-09-02T21:42:19Z</time>
					</trkpt>
					<trkpt lat="44.233010" lon="5.324520">
						<ele>707</ele>
						<time>2026-09-02T21:43:04Z</time>
					</trkpt>
					<trkpt lat="44.232860" lon="5.324770">
						<ele>708</ele>
						<time>2026-09-02T21:43:16Z</time>
					</trkpt>
					<trkpt lat="44.232760" lon="5.324990">
						<ele>710</ele>
						<time>2026-09-02T21:43:25Z</time>
					</trkpt>
					<trkpt lat="44.232610" lon="5.325190">
						<ele>709</ele>
						<time>2026-09-02T21:43:36Z</time>
					</trkpt>
					<trkpt lat="44.232310" lon="5.325390">
						<ele>704</ele>
						<time>2026-09-02T21:43:52Z</time>
					</trkpt>
					<trkpt lat="44.232170" lon="5.325620">
						<ele>706</ele>
						<time>2026-09-02T21:44:03Z</time>
					</trkpt>
					<trkpt lat="44.231930" lon="5.325930">
						<ele>706</ele>
						<time>2026-09-02T21:44:19Z</time>
					</trkpt>
					<trkpt lat="44.231890" lon="5.325900">
						<ele>705</ele>
						<time>2026-09-02T21:44:22Z</time>
					</trkpt>
					<trkpt lat="44.231800" lon="5.325890">
						<ele>702</ele>
						<time>2026-09-02T21:44:26Z</time>
					</trkpt>
					<trkpt lat="44.231690" lon="5.325920">
						<ele>700</ele>
						<time>2026-09-02T21:44:32Z</time>
					</trkpt>
					<trkpt lat="44.231540" lon="5.326030">
						<ele>698</ele>
						<time>2026-09-02T21:44:40Z</time>
					</trkpt>
					<trkpt lat="44.231200" lon="5.326370">
						<ele>697</ele>
						<time>2026-09-02T21:45:01Z</time>
					</trkpt>
					<trkpt lat="44.230940" lon="5.326830">
						<ele>699</ele>
						<time>2026-09-02T21:45:22Z</time>
					</trkpt>
					<trkpt lat="44.230610" lon="5.327200">
						<ele>698</ele>
						<time>2026-09-02T21:45:43Z</time>
					</trkpt>
					<trkpt lat="44.230390" lon="5.327390">
						<ele>696</ele>
						<time>2026-09-02T21:45:56Z</time>
					</trkpt>
					<trkpt lat="44.229990" lon="5.327670">
						<ele>693</ele>
						<time>2026-09-02T21:46:19Z</time>
					</trkpt>
					<trkpt lat="44.229850" lon="5.327730">
						<ele>692</ele>
						<time>2026-09-02T21:46:26Z</time>
					</trkpt>
					<trkpt lat="44.229770" lon="5.327730">
						<ele>690</ele>
						<time>2026-09-02T21:46:30Z</time>
					</trkpt>
					<trkpt lat="44.229710" lon="5.327780">
						<ele>690</ele>
						<time>2026-09-02T21:46:34Z</time>
					</trkpt>
					<trkpt lat="44.229690" lon="5.327910">
						<ele>692</ele>
						<time>2026-09-02T21:46:38Z</time>
					</trkpt>
					<trkpt lat="44.229660" lon="5.327940">
						<ele>692</ele>
						<time>2026-09-02T21:46:40Z</time>
					</trkpt>
					<trkpt lat="44.229620" lon="5.327930">
						<ele>691</ele>
						<time>2026-09-02T21:46:42Z</time>
					</trkpt>
					<trkpt lat="44.229530" lon="5.328270">
						<ele>697</ele>
						<time>2026-09-02T21:46:55Z</time>
					</trkpt>
					<trkpt lat="44.229480" lon="5.328610">
						<ele>703</ele>
						<time>2026-09-02T21:47:08Z</time>
					</trkpt>
					<trkpt lat="44.229350" lon="5.328790">
						<ele>705</ele>
						<time>2026-09-02T21:47:17Z</time>
					</trkpt>
					<trkpt lat="44.229160" lon="5.328850">
						<ele>704</ele>
						<time>2026-09-02T21:47:27Z</time>
					</trkpt>
					<trkpt lat="44.228910" lon="5.328870">
						<ele>709</ele>
						<time>2026-09-02T21:47:39Z</time>
					</trkpt>
					<trkpt lat="44.228790" lon="5.328820">
						<ele>711</ele>
						<time>2026-09-02T21:47:45Z</time>
					</trkpt>
					<trkpt lat="44.228660" lon="5.328730">
						<ele>711</ele>
						<time>2026-09-02T21:47:53Z</time>
					</trkpt>
					<trkpt lat="44.228560" lon="5.328620">
						<ele>711</ele>
						<time>2026-09-02T21:47:59Z</time>
					</trkpt>
					<trkpt lat="44.228400" lon="5.328370">
						<ele>709</ele>
						<time>2026-09-02T21:48:11Z</time>
					</trkpt>
					<trkpt lat="44.228120" lon="5.327760">
						<ele>703</ele>
						<time>2026-09-02T21:48:37Z</time>
					</trkpt>
					<trkpt lat="44.228000" lon="5.327570">
						<ele>702</ele>
						<time>2026-09-02T21:48:46Z</time>
					</trkpt>
					<trkpt lat="44.227640" lon="5.327310">
						<ele>705</ele>
						<time>2026-09-02T21:49:06Z</time>
					</trkpt>
					<trkpt lat="44.227230" lon="5.327190">
						<ele>709</ele>
						<time>2026-09-02T21:49:27Z</time>
					</trkpt>
					<trkpt lat="44.226720" lon="5.327170">
						<ele>715</ele>
						<time>2026-09-02T21:49:53Z</time>
					</trkpt>
					<trkpt lat="44.226540" lon="5.327030">
						<ele>712</ele>
						<time>2026-09-02T21:50:03Z</time>
					</trkpt>
					<trkpt lat="44.226440" lon="5.326900">
						<ele>708</ele>
						<time>2026-09-02T21:50:10Z</time>
					</trkpt>
					<trkpt lat="44.226310" lon="5.326860">
						<ele>708</ele>
						<time>2026-09-02T21:50:17Z</time>
					</trkpt>
					<trkpt lat="44.225910" lon="5.327260">
						<ele>719</ele>
						<time>2026-09-02T21:50:41Z</time>
					</trkpt>
					<trkpt lat="44.225540" lon="5.327430">
						<ele>722</ele>
						<time>2026-09-02T21:51:01Z</time>
					</trkpt>
					<trkpt lat="44.225380" lon="5.327550">
						<ele>724</ele>
						<time>2026-09-02T21:51:10Z</time>
					</trkpt>
					<trkpt lat="44.224960" lon="5.327950">
						<ele>728</ele>
						<time>2026-09-02T21:51:35Z</time>
					</trkpt>
					<trkpt lat="44.224680" lon="5.328320">
						<ele>732</ele>
						<time>2026-09-02T21:51:55Z</time>
					</trkpt>
					<trkpt lat="44.224590" lon="5.328400">
						<ele>733</ele>
						<time>2026-09-02T21:52:00Z</time>
					</trkpt>
					<trkpt lat="44.223120" lon="5.328750">
						<ele>734</ele>
						<time>2026-09-02T21:53:15Z</time>
					</trkpt>
					<trkpt lat="44.222920" lon="5.328870">
						<ele>735</ele>
						<time>2026-09-02T21:53:26Z</time>
					</trkpt>
					<trkpt lat="44.222630" lon="5.329320">
						<ele>730</ele>
						<time>2026-09-02T21:53:47Z</time>
					</trkpt>
					<trkpt lat="44.222570" lon="5.329330">
						<ele>730</ele>
						<time>2026-09-02T21:53:50Z</time>
					</trkpt>
					<trkpt lat="44.222490" lon="5.329200">
						<ele>732</ele>
						<time>2026-09-02T21:53:56Z</time>
					</trkpt>
					<trkpt lat="44.222410" lon="5.329160">
						<ele>733</ele>
						<time>2026-09-02T21:54:01Z</time>
					</trkpt>
					<trkpt lat="44.222360" lon="5.329180">
						<ele>733</ele>
						<time>2026-09-02T21:54:03Z</time>
					</trkpt>
					<trkpt lat="44.222240" lon="5.329370">
						<ele>731</ele>
						<time>2026-09-02T21:54:12Z</time>
					</trkpt>
					<trkpt lat="44.222190" lon="5.329410">
						<ele>731</ele>
						<time>2026-09-02T21:54:15Z</time>
					</trkpt>
					<trkpt lat="44.222130" lon="5.329410">
						<ele>731</ele>
						<time>2026-09-02T21:54:18Z</time>
					</trkpt>
					<trkpt lat="44.221960" lon="5.329320">
						<ele>734</ele>
						<time>2026-09-02T21:54:27Z</time>
					</trkpt>
					<trkpt lat="44.221890" lon="5.329330">
						<ele>735</ele>
						<time>2026-09-02T21:54:31Z</time>
					</trkpt>
					<trkpt lat="44.221880" lon="5.329390">
						<ele>734</ele>
						<time>2026-09-02T21:54:33Z</time>
					</trkpt>
					<trkpt lat="44.222080" lon="5.329570">
						<ele>729</ele>
						<time>2026-09-02T21:54:45Z</time>
					</trkpt>
					<trkpt lat="44.222170" lon="5.329650">
						<ele>727</ele>
						<time>2026-09-02T21:54:50Z</time>
					</trkpt>
					<trkpt lat="44.222290" lon="5.329680">
						<ele>725</ele>
						<time>2026-09-02T21:54:56Z</time>
					</trkpt>
					<trkpt lat="44.222340" lon="5.329730">
						<ele>724</ele>
						<time>2026-09-02T21:55:00Z</time>
					</trkpt>
					<trkpt lat="44.222480" lon="5.330060">
						<ele>718</ele>
						<time>2026-09-02T21:55:13Z</time>
					</trkpt>
					<trkpt lat="44.222520" lon="5.330250">
						<ele>718</ele>
						<time>2026-09-02T21:55:20Z</time>
					</trkpt>
					<trkpt lat="44.222500" lon="5.330390">
						<ele>717</ele>
						<time>2026-09-02T21:55:26Z</time>
					</trkpt>
					<trkpt lat="44.222160" lon="5.331290">
						<ele>713</ele>
						<time>2026-09-02T21:56:02Z</time>
					</trkpt>
					<trkpt lat="44.222080" lon="5.331570">
						<ele>711</ele>
						<time>2026-09-02T21:56:13Z</time>
					</trkpt>
					<trkpt lat="44.222070" lon="5.331820">
						<ele>711</ele>
						<time>2026-09-02T21:56:22Z</time>
					</trkpt>
					<trkpt lat="44.222120" lon="5.332200">
						<ele>714</ele>
						<time>2026-09-02T21:56:36Z</time>
					</trkpt>
					<trkpt lat="44.222110" lon="5.332300">
						<ele>714</ele>
						<time>2026-09-02T21:56:39Z</time>
					</trkpt>
					<trkpt lat="44.221970" lon="5.332370">
						<ele>711</ele>
						<time>2026-09-02T21:56:47Z</time>
					</trkpt>
					<trkpt lat="44.221850" lon="5.332480">
						<ele>708</ele>
						<time>2026-09-02T21:56:54Z</time>
					</trkpt>
					<trkpt lat="44.221590" lon="5.332760">
						<ele>706</ele>
						<time>2026-09-02T21:57:10Z</time>
					</trkpt>
					<trkpt lat="44.221150" lon="5.333320">
						<ele>707</ele>
						<time>2026-09-02T21:57:40Z</time>
					</trkpt>
					<trkpt lat="44.220970" lon="5.333440">
						<ele>706</ele>
						<time>2026-09-02T21:57:50Z</time>
					</trkpt>
					<trkpt lat="44.220660" lon="5.333520">
						<ele>702</ele>
						<time>2026-09-02T21:58:06Z</time>
					</trkpt>
					<trkpt lat="44.220570" lon="5.333590">
						<ele>701</ele>
						<time>2026-09-02T21:58:11Z</time>
					</trkpt>
					<trkpt lat="44.220350" lon="5.333910">
						<ele>700</ele>
						<time>2026-09-02T21:58:27Z</time>
					</trkpt>
					<trkpt lat="44.220260" lon="5.334100">
						<ele>699</ele>
						<time>2026-09-02T21:58:35Z</time>
					</trkpt>
					<trkpt lat="44.220240" lon="5.334250">
						<ele>700</ele>
						<time>2026-09-02T21:58:41Z</time>
					</trkpt>
					<trkpt lat="44.220260" lon="5.334580">
						<ele>705</ele>
						<time>2026-09-02T21:58:52Z</time>
					</trkpt>
					<trkpt lat="44.220180" lon="5.334710">
						<ele>705</ele>
						<time>2026-09-02T21:58:59Z</time>
					</trkpt>
					<trkpt lat="44.220000" lon="5.334790">
						<ele>701</ele>
						<time>2026-09-02T21:59:08Z</time>
					</trkpt>
					<trkpt lat="44.219810" lon="5.334940">
						<ele>700</ele>
						<time>2026-09-02T21:59:19Z</time>
					</trkpt>
					<trkpt lat="44.219380" lon="5.334980">
						<ele>694</ele>
						<time>2026-09-02T21:59:41Z</time>
					</trkpt>
					<trkpt lat="44.219000" lon="5.335050">
						<ele>691</ele>
						<time>2026-09-02T22:00:00Z</time>
					</trkpt>
					<trkpt lat="44.218700" lon="5.335290">
						<ele>691</ele>
						<time>2026-09-02T22:00:17Z</time>
					</trkpt>
					<trkpt lat="44.218290" lon="5.335840">
						<ele>691</ele>
						<time>2026-09-02T22:00:45Z</time>
					</trkpt>
					<trkpt lat="44.218240" lon="5.335950">
						<ele>692</ele>
						<time>2026-09-02T22:00:50Z</time>
					</trkpt>
					<trkpt lat="44.217890" lon="5.337080">
						<ele>696</ele>
						<time>2026-09-02T22:01:34Z</time>
					</trkpt>
					<trkpt lat="44.217810" lon="5.337570">
						<ele>697</ele>
						<time>2026-09-02T22:01:52Z</time>
					</trkpt>
					<trkpt lat="44.217770" lon="5.337660">
						<ele>697</ele>
						<time>2026-09-02T22:01:56Z</time>
					</trkpt>
					<trkpt lat="44.217690" lon="5.337700">
						<ele>697</ele>
						<time>2026-09-02T22:02:00Z</time>
					</trkpt>
					<trkpt lat="44.217190" lon="5.337780">
						<ele>694</ele>
						<time>2026-09-02T22:02:26Z</time>
					</trkpt>
					<trkpt lat="44.216700" lon="5.337940">
						<ele>693</ele>
						<time>2026-09-02T22:02:51Z</time>
					</trkpt>
					<trkpt lat="44.216400" lon="5.338000">
						<ele>692</ele>
						<time>2026-09-02T22:03:06Z</time>
					</trkpt>
					<trkpt lat="44.216220" lon="5.338130">
						<ele>694</ele>
						<time>2026-09-02T22:03:16Z</time>
					</trkpt>
					<trkpt lat="44.216050" lon="5.338020">
						<ele>691</ele>
						<time>2026-09-02T22:03:25Z</time>
					</trkpt>
					<trkpt lat="44.215850" lon="5.338010">
						<ele>690</ele>
						<time>2026-09-02T22:03:35Z</time>
					</trkpt>
					<trkpt lat="44.215560" lon="5.337930">
						<ele>688</ele>
						<time>2026-09-02T22:03:50Z</time>
					</trkpt>
					<trkpt lat="44.215200" lon="5.337920">
						<ele>687</ele>
						<time>2026-09-02T22:04:08Z</time>
					</trkpt>
					<trkpt lat="44.214970" lon="5.337960">
						<ele>687</ele>
						<time>2026-09-02T22:04:20Z</time>
					</trkpt>
					<trkpt lat="44.214670" lon="5.337860">
						<ele>681</ele>
						<time>2026-09-02T22:04:35Z</time>
					</trkpt>
					<trkpt lat="44.214450" lon="5.337880">
						<ele>679</ele>
						<time>2026-09-02T22:04:46Z</time>
					</trkpt>
					<trkpt lat="44.214090" lon="5.337860">
						<ele>674</ele>
						<time>2026-09-02T22:05:04Z</time>
					</trkpt>
					<trkpt lat="44.213680" lon="5.338000">
						<ele>672</ele>
						<time>2026-09-02T22:05:25Z</time>
					</trkpt>
					<trkpt lat="44.213590" lon="5.338060">
						<ele>672</ele>
						<time>2026-09-02T22:05:30Z</time>
					</trkpt>
					<trkpt lat="44.213540" lon="5.338130">
						<ele>673</ele>
						<time>2026-09-02T22:05:34Z</time>
					</trkpt>
					<trkpt lat="44.213470" lon="5.338380">
						<ele>676</ele>
						<time>2026-09-02T22:05:44Z</time>
					</trkpt>
					<trkpt lat="44.213410" lon="5.338410">
						<ele>676</ele>
						<time>2026-09-02T22:05:47Z</time>
					</trkpt>
					<trkpt lat="44.213340" lon="5.338390">
						<ele>675</ele>
						<time>2026-09-02T22:05:50Z</time>
					</trkpt>
					<trkpt lat="44.213250" lon="5.338300">
						<ele>673</ele>
						<time>2026-09-02T22:05:56Z</time>
					</trkpt>
					<trkpt lat="44.213150" lon="5.338070">
						<ele>668</ele>
						<time>2026-09-02T22:06:06Z</time>
					</trkpt>
					<trkpt lat="44.213080" lon="5.337980">
						<ele>667</ele>
						<time>2026-09-02T22:06:10Z</time>
					</trkpt>
					<trkpt lat="44.212750" lon="5.337880">
						<ele>663</ele>
						<time>2026-09-02T22:06:27Z</time>
					</trkpt>
					<trkpt lat="44.212660" lon="5.337880">
						<ele>662</ele>
						<time>2026-09-02T22:06:32Z</time>
					</trkpt>
					<trkpt lat="44.212570" lon="5.337930">
						<ele>662</ele>
						<time>2026-09-02T22:06:37Z</time>
					</trkpt>
					<trkpt lat="44.212510" lon="5.338020">
						<ele>663</ele>
						<time>2026-09-02T22:06:41Z</time>
					</trkpt>
					<trkpt lat="44.212430" lon="5.338230">
						<ele>665</ele>
						<time>2026-09-02T22:06:50Z</time>
					</trkpt>
					<trkpt lat="44.212330" lon="5.338280">
						<ele>664</ele>
						<time>2026-09-02T22:06:55Z</time>
					</trkpt>
					<trkpt lat="44.212230" lon="5.338230">
						<ele>663</ele>
						<time>2026-09-02T22:07:00Z</time>
					</trkpt>
					<trkpt lat="44.212090" lon="5.337960">
						<ele>658</ele>
						<time>2026-09-02T22:07:12Z</time>
					</trkpt>
					<trkpt lat="44.212000" lon="5.337920">
						<ele>657</ele>
						<time>2026-09-02T22:07:17Z</time>
					</trkpt>
					<trkpt lat="44.211820" lon="5.337920">
						<ele>655</ele>
						<time>2026-09-02T22:07:26Z</time>
					</trkpt>
					<trkpt lat="44.211690" lon="5.337980">
						<ele>655</ele>
						<time>2026-09-02T22:07:33Z</time>
					</trkpt>
					<trkpt lat="44.211620" lon="5.338030">
						<ele>655</ele>
						<time>2026-09-02T22:07:37Z</time>
					</trkpt>
					<trkpt lat="44.211560" lon="5.338140">
						<ele>656</ele>
						<time>2026-09-02T22:07:42Z</time>
					</trkpt>
					<trkpt lat="44.211490" lon="5.338190">
						<ele>656</ele>
						<time>2026-09-02T22:07:46Z</time>
					</trkpt>
					<trkpt lat="44.211120" lon="5.338160">
						<ele>654</ele>
						<time>2026-09-02T22:08:04Z</time>
					</trkpt>
					<trkpt lat="44.210710" lon="5.337590">
						<ele>648</ele>
						<time>2026-09-02T22:08:33Z</time>
					</trkpt>
					<trkpt lat="44.210380" lon="5.337020">
						<ele>643</ele>
						<time>2026-09-02T22:08:59Z</time>
					</trkpt>
					<trkpt lat="44.210270" lon="5.336900">
						<ele>642</ele>
						<time>2026-09-02T22:09:06Z</time>
					</trkpt>
					<trkpt lat="44.210000" lon="5.336680">
						<ele>637</ele>
						<time>2026-09-02T22:09:22Z</time>
					</trkpt>
					<trkpt lat="44.209850" lon="5.336660">
						<ele>636</ele>
						<time>2026-09-02T22:09:30Z</time>
					</trkpt>
					<trkpt lat="44.209690" lon="5.336670">
						<ele>635</ele>
						<time>2026-09-02T22:09:38Z</time>
					</trkpt>
					<trkpt lat="44.209440" lon="5.336730">
						<ele>634</ele>
						<time>2026-09-02T22:09:50Z</time>
					</trkpt>
					<trkpt lat="44.209290" lon="5.336730">
						<ele>633</ele>
						<time>2026-09-02T22:09:58Z</time>
					</trkpt>
					<trkpt lat="44.208750" lon="5.336850">
						<ele>633</ele>
						<time>2026-09-02T22:10:25Z</time>
					</trkpt>
					<trkpt lat="44.208310" lon="5.336360">
						<ele>631</ele>
						<time>2026-09-02T22:10:53Z</time>
					</trkpt>
					<trkpt lat="44.208180" lon="5.336260">
						<ele>630</ele>
						<time>2026-09-02T22:11:01Z</time>
					</trkpt>
					<trkpt lat="44.208030" lon="5.336200">
						<ele>630</ele>
						<time>2026-09-02T22:11:09Z</time>
					</trkpt>
					<trkpt lat="44.207830" lon="5.336170">
						<ele>630</ele>
						<time>2026-09-02T22:11:19Z</time>
					</trkpt>
					<trkpt lat="44.207180" lon="5.336210">
						<ele>629</ele>
						<time>2026-09-02T22:11:51Z</time>
					</trkpt>
					<trkpt lat="44.207000" lon="5.336190">
						<ele>629</ele>
						<time>2026-09-02T22:12:00Z</time>
					</trkpt>
					<trkpt lat="44.206930" lon="5.336130">
						<ele>628</ele>
						<time>2026-09-02T22:12:04Z</time>
					</trkpt>
					<trkpt lat="44.206850" lon="5.335990">
						<ele>628</ele>
						<time>2026-09-02T22:12:11Z</time>
					</trkpt>
					<trkpt lat="44.206560" lon="5.335890">
						<ele>630</ele>
						<time>2026-09-02T22:12:26Z</time>
					</trkpt>
					<trkpt lat="44.206410" lon="5.335920">
						<ele>634</ele>
						<time>2026-09-02T22:12:33Z</time>
					</trkpt>
					<trkpt lat="44.206230" lon="5.336020">
						<ele>639</ele>
						<time>2026-09-02T22:12:43Z</time>
					</trkpt>
					<trkpt lat="44.206160" lon="5.336020">
						<ele>641</ele>
						<time>2026-09-02T22:12:46Z</time>
					</trkpt>
					<trkpt lat="44.206070" lon="5.335880">
						<ele>644</ele>
						<time>2026-09-02T22:12:53Z</time>
					</trkpt>
					<trkpt lat="44.206140" lon="5.335590">
						<ele>645</ele>
						<time>2026-09-02T22:13:04Z</time>
					</trkpt>
					<trkpt lat="44.206380" lon="5.334850">
						<ele>645</ele>
						<time>2026-09-02T22:13:33Z</time>
					</trkpt>
					<trkpt lat="44.206480" lon="5.334190">
						<ele>649</ele>
						<time>2026-09-02T22:13:58Z</time>
					</trkpt>
					<trkpt lat="44.206630" lon="5.333460">
						<ele>654</ele>
						<time>2026-09-02T22:14:25Z</time>
					</trkpt>
					<trkpt lat="44.206480" lon="5.333690">
						<ele>657</ele>
						<time>2026-09-02T22:14:36Z</time>
					</trkpt>
					<trkpt lat="44.205950" lon="5.334710">
						<ele>665</ele>
						<time>2026-09-02T22:15:21Z</time>
					</trkpt>
					<trkpt lat="44.205560" lon="5.335330">
						<ele>670</ele>
						<time>2026-09-02T22:15:51Z</time>
					</trkpt>
					<trkpt lat="44.205140" lon="5.336220">
						<ele>675</ele>
						<time>2026-09-02T22:16:29Z</time>
					</trkpt>
					<trkpt lat="44.204790" lon="5.336730">
						<ele>676</ele>
						<time>2026-09-02T22:16:54Z</time>
					</trkpt>
					<trkpt lat="44.204710" lon="5.336820">
						<ele>676</ele>
						<time>2026-09-02T22:16:59Z</time>
					</trkpt>
					<trkpt lat="44.204510" lon="5.336960">
						<ele>678</ele>
						<time>2026-09-02T22:17:11Z</time>
					</trkpt>
					<trkpt lat="44.204350" lon="5.336930">
						<ele>680</ele>
						<time>2026-09-02T22:17:19Z</time>
					</trkpt>
					<trkpt lat="44.204160" lon="5.336980">
						<ele>682</ele>
						<time>2026-09-02T22:17:28Z</time>
					</trkpt>
					<trkpt lat="44.203960" lon="5.336910">
						<ele>682</ele>
						<time>2026-09-02T22:17:39Z</time>
					</trkpt>
					<trkpt lat="44.203830" lon="5.336730">
						<ele>681</ele>
						<time>2026-09-02T22:17:48Z</time>
					</trkpt>
					<trkpt lat="44.203790" lon="5.336710">
						<ele>681</ele>
						<time>2026-09-02T22:17:50Z</time>
					</trkpt>
					<trkpt lat="44.203440" lon="5.336700">
						<ele>680</ele>
						<time>2026-09-02T22:18:07Z</time>
					</trkpt>
					<trkpt lat="44.203410" lon="5.336720">
						<ele>680</ele>
						<time>2026-09-02T22:18:09Z</time>
					</trkpt>
					<trkpt lat="44.203050" lon="5.336470">
						<ele>680</ele>
						<time>2026-09-02T22:18:29Z</time>
					</trkpt>
					<trkpt lat="44.202400" lon="5.336120">
						<ele>670</ele>
						<time>2026-09-02T22:19:04Z</time>
					</trkpt>
					<trkpt lat="44.202250" lon="5.336060">
						<ele>666</ele>
						<time>2026-09-02T22:19:12Z</time>
					</trkpt>
					<trkpt lat="44.201970" lon="5.336040">
						<ele>661</ele>
						<time>2026-09-02T22:19:26Z</time>
					</trkpt>
					<trkpt lat="44.201560" lon="5.336080">
						<ele>656</ele>
						<time>2026-09-02T22:19:47Z</time>
					</trkpt>
					<trkpt lat="44.201400" lon="5.336030">
						<ele>653</ele>
						<time>2026-09-02T22:19:55Z</time>
					</trkpt>
					<trkpt lat="44.201270" lon="5.336110">
						<ele>654</ele>
						<time>2026-09-02T22:20:02Z</time>
					</trkpt>
					<trkpt lat="44.200920" lon="5.336080">
						<ele>651</ele>
						<time>2026-09-02T22:20:19Z</time>
					</trkpt>
					<trkpt lat="44.200820" lon="5.336160">
						<ele>652</ele>
						<time>2026-09-02T22:20:25Z</time>
					</trkpt>
					<trkpt lat="44.200470" lon="5.336300">
						<ele>654</ele>
						<time>2026-09-02T22:20:43Z</time>
					</trkpt>
					<trkpt lat="44.200150" lon="5.336340">
						<ele>654</ele>
						<time>2026-09-02T22:20:59Z</time>
					</trkpt>
					<trkpt lat="44.199980" lon="5.336320">
						<ele>652</ele>
						<time>2026-09-02T22:21:08Z</time>
					</trkpt>
					<trkpt lat="44.199630" lon="5.336410">
						<ele>649</ele>
						<time>2026-09-02T22:21:26Z</time>
					</trkpt>
					<trkpt lat="44.199430" lon="5.336410">
						<ele>645</ele>
						<time>2026-09-02T22:21:36Z</time>
					</trkpt>
					<trkpt lat="44.199010" lon="5.336490">
						<ele>638</ele>
						<time>2026-09-02T22:21:57Z</time>
					</trkpt>
					<trkpt lat="44.198930" lon="5.336530">
						<ele>637</ele>
						<time>2026-09-02T22:22:01Z</time>
					</trkpt>
					<trkpt lat="44.198520" lon="5.336910">
						<ele>635</ele>
						<time>2026-09-02T22:22:26Z</time>
					</trkpt>
					<trkpt lat="44.198170" lon="5.337130">
						<ele>631</ele>
						<time>2026-09-02T22:22:45Z</time>
					</trkpt>
					<trkpt lat="44.197860" lon="5.337240">
						<ele>627</ele>
						<time>2026-09-02T22:23:01Z</time>
					</trkpt>
					<trkpt lat="44.197720" lon="5.337370">
						<ele>626</ele>
						<time>2026-09-02T22:23:10Z</time>
					</trkpt>
					<trkpt lat="44.197690" lon="5.337350">
						<ele>625</ele>
						<time>2026-09-02T22:23:11Z</time>
					</trkpt>
					<trkpt lat="44.197700" lon="5.337210">
						<ele>622</ele>
						<time>2026-09-02T22:23:16Z</time>
					</trkpt>
					<trkpt lat="44.197690" lon="5.337150">
						<ele>620</ele>
						<time>2026-09-02T22:23:18Z</time>
					</trkpt>
					<trkpt lat="44.197660" lon="5.337120">
						<ele>619</ele>
						<time>2026-09-02T22:23:20Z</time>
					</trkpt>
					<trkpt lat="44.197590" lon="5.337120">
						<ele>617</ele>
						<time>2026-09-02T22:23:24Z</time>
					</trkpt>
					<trkpt lat="44.197500" lon="5.337160">
						<ele>616</ele>
						<time>2026-09-02T22:23:29Z</time>
					</trkpt>
					<trkpt lat="44.197270" lon="5.337120">
						<ele>613</ele>
						<time>2026-09-02T22:23:40Z</time>
					</trkpt>
					<trkpt lat="44.196940" lon="5.337130">
						<ele>611</ele>
						<time>2026-09-02T22:23:57Z</time>
					</trkpt>
					<trkpt lat="44.196790" lon="5.337150">
						<ele>610</ele>
						<time>2026-09-02T22:24:04Z</time>
					</trkpt>
					<trkpt lat="44.196730" lon="5.337200">
						<ele>610</ele>
						<time>2026-09-02T22:24:08Z</time>
					</trkpt>
					<trkpt lat="44.196710" lon="5.337580">
						<ele>616</ele>
						<time>2026-09-02T22:24:21Z</time>
					</trkpt>
					<trkpt lat="44.196740" lon="5.338030">
						<ele>622</ele>
						<time>2026-09-02T22:24:38Z</time>
					</trkpt>
					<trkpt lat="44.196670" lon="5.338540">
						<ele>628</ele>
						<time>2026-09-02T22:24:56Z</time>
					</trkpt>
					<trkpt lat="44.196740" lon="5.338900">
						<ele>635</ele>
						<time>2026-09-02T22:25:10Z</time>
					</trkpt>
					<trkpt lat="44.196720" lon="5.339270">
						<ele>641</ele>
						<time>2026-09-02T22:25:23Z</time>
					</trkpt>
					<trkpt lat="44.196760" lon="5.339540">
						<ele>647</ele>
						<time>2026-09-02T22:25:33Z</time>
					</trkpt>
					<trkpt lat="44.196700" lon="5.339650">
						<ele>647</ele>
						<time>2026-09-02T22:25:38Z</time>
					</trkpt>
					<trkpt lat="44.196430" lon="5.339900">
						<ele>645</ele>
						<time>2026-09-02T22:25:54Z</time>
					</trkpt>
					<trkpt lat="44.196300" lon="5.340150">
						<ele>646</ele>
						<time>2026-09-02T22:26:05Z</time>
					</trkpt>
					<trkpt lat="44.196260" lon="5.340280">
						<ele>647</ele>
						<time>2026-09-02T22:26:10Z</time>
					</trkpt>
					<trkpt lat="44.196390" lon="5.340740">
						<ele>659</ele>
						<time>2026-09-02T22:26:28Z</time>
					</trkpt>
					<trkpt lat="44.196490" lon="5.340830">
						<ele>664</ele>
						<time>2026-09-02T22:26:34Z</time>
					</trkpt>
					<trkpt lat="44.196650" lon="5.341050">
						<ele>672</ele>
						<time>2026-09-02T22:26:45Z</time>
					</trkpt>
					<trkpt lat="44.196750" lon="5.341390">
						<ele>679</ele>
						<time>2026-09-02T22:26:58Z</time>
					</trkpt>
					<trkpt lat="44.196810" lon="5.341810">
						<ele>686</ele>
						<time>2026-09-02T22:27:14Z</time>
					</trkpt>
					<trkpt lat="44.196820" lon="5.342480">
						<ele>697</ele>
						<time>2026-09-02T22:27:38Z</time>
					</trkpt>
					<trkpt lat="44.196900" lon="5.342910">
						<ele>704</ele>
						<time>2026-09-02T22:27:54Z</time>
					</trkpt>
					<trkpt lat="44.196890" lon="5.343130">
						<ele>706</ele>
						<time>2026-09-02T22:28:02Z</time>
					</trkpt>
					<trkpt lat="44.196760" lon="5.343590">
						<ele>706</ele>
						<time>2026-09-02T22:28:19Z</time>
					</trkpt>
					<trkpt lat="44.196720" lon="5.343910">
						<ele>709</ele>
						<time>2026-09-02T22:28:31Z</time>
					</trkpt>
					<trkpt lat="44.196540" lon="5.344440">
						<ele>711</ele>
						<time>2026-09-02T22:28:52Z</time>
					</trkpt>
					<trkpt lat="44.196410" lon="5.345070">
						<ele>717</ele>
						<time>2026-09-02T22:29:15Z</time>
					</trkpt>
					<trkpt lat="44.196400" lon="5.345300">
						<ele>720</ele>
						<time>2026-09-02T22:29:24Z</time>
					</trkpt>
					<trkpt lat="44.196470" lon="5.346380">
						<ele>738</ele>
						<time>2026-09-02T22:30:03Z</time>
					</trkpt>
					<trkpt lat="44.196530" lon="5.346610">
						<ele>743</ele>
						<time>2026-09-02T22:30:11Z</time>
					</trkpt>
					<trkpt lat="44.196600" lon="5.346760">
						<ele>746</ele>
						<time>2026-09-02T22:30:18Z</time>
					</trkpt>
					<trkpt lat="44.196670" lon="5.347230">
						<ele>751</ele>
						<time>2026-09-02T22:30:35Z</time>
					</trkpt>
					<trkpt lat="44.196790" lon="5.347420">
						<ele>758</ele>
						<time>2026-09-02T22:30:44Z</time>
					</trkpt>
					<trkpt lat="44.196800" lon="5.347690">
						<ele>760</ele>
						<time>2026-09-02T22:30:54Z</time>
					</trkpt>
					<trkpt lat="44.196920" lon="5.347900">
						<ele>768</ele>
						<time>2026-09-02T22:31:03Z</time>
					</trkpt>
					<trkpt lat="44.196960" lon="5.348040">
						<ele>771</ele>
						<time>2026-09-02T22:31:09Z</time>
					</trkpt>
					<trkpt lat="44.196940" lon="5.348590">
						<ele>776</ele>
						<time>2026-09-02T22:31:29Z</time>
					</trkpt>
					<trkpt lat="44.196900" lon="5.348770">
						<ele>777</ele>
						<time>2026-09-02T22:31:35Z</time>
					</trkpt>
					<trkpt lat="44.196910" lon="5.348960">
						<ele>780</ele>
						<time>2026-09-02T22:31:42Z</time>
					</trkpt>
					<trkpt lat="44.196770" lon="5.349630">
						<ele>788</ele>
						<time>2026-09-02T22:32:07Z</time>
					</trkpt>
					<trkpt lat="44.196680" lon="5.349840">
						<ele>789</ele>
						<time>2026-09-02T22:32:16Z</time>
					</trkpt>
					<trkpt lat="44.196660" lon="5.350090">
						<ele>795</ele>
						<time>2026-09-02T22:32:25Z</time>
					</trkpt>
					<trkpt lat="44.196550" lon="5.350240">
						<ele>793</ele>
						<time>2026-09-02T22:32:33Z</time>
					</trkpt>
					<trkpt lat="44.196400" lon="5.350690">
						<ele>795</ele>
						<time>2026-09-02T22:32:51Z</time>
					</trkpt>
					<trkpt lat="44.196190" lon="5.351170">
						<ele>791</ele>
						<time>2026-09-02T22:33:11Z</time>
					</trkpt>
					<trkpt lat="44.196130" lon="5.351920">
						<ele>797</ele>
						<time>2026-09-02T22:33:38Z</time>
					</trkpt>
					<trkpt lat="44.195990" lon="5.352340">
						<ele>795</ele>
						<time>2026-09-02T22:33:54Z</time>
					</trkpt>
					<trkpt lat="44.195880" lon="5.352910">
						<ele>799</ele>
						<time>2026-09-02T22:34:16Z</time>
					</trkpt>
					<trkpt lat="44.195890" lon="5.353120">
						<ele>802</ele>
						<time>2026-09-02T22:34:23Z</time>
					</trkpt>
					<trkpt lat="44.195830" lon="5.353510">
						<ele>806</ele>
						<time>2026-09-02T22:34:38Z</time>
					</trkpt>
					<trkpt lat="44.195840" lon="5.354110">
						<ele>814</ele>
						<time>2026-09-02T22:34:59Z</time>
					</trkpt>
					<trkpt lat="44.195810" lon="5.354470">
						<ele>816</ele>
						<time>2026-09-02T22:35:12Z</time>
					</trkpt>
					<trkpt lat="44.195840" lon="5.354960">
						<ele>821</ele>
						<time>2026-09-02T22:35:30Z</time>
					</trkpt>
					<trkpt lat="44.195840" lon="5.354940">
						<ele>820</ele>
						<time>2026-09-02T22:35:30Z</time>
					</trkpt>
					<trkpt lat="44.195670" lon="5.355510">
						<ele>814</ele>
						<time>2026-09-02T22:35:53Z</time>
					</trkpt>
					<trkpt lat="44.195670" lon="5.355640">
						<ele>815</ele>
						<time>2026-09-02T22:35:57Z</time>
					</trkpt>
					<trkpt lat="44.195310" lon="5.356980">
						<ele>803</ele>
						<time>2026-09-02T22:36:49Z</time>
					</trkpt>
					<trkpt lat="44.195250" lon="5.357330">
						<ele>803</ele>
						<time>2026-09-02T22:37:01Z</time>
					</trkpt>
					<trkpt lat="44.195240" lon="5.357700">
						<ele>804</ele>
						<time>2026-09-02T22:37:15Z</time>
					</trkpt>
					<trkpt lat="44.195170" lon="5.358320">
						<ele>806</ele>
						<time>2026-09-02T22:37:37Z</time>
					</trkpt>
					<trkpt lat="44.194850" lon="5.359580">
						<ele>801</ele>
						<time>2026-09-02T22:38:25Z</time>
					</trkpt>
					<trkpt lat="44.194800" lon="5.360420">
						<ele>797</ele>
						<time>2026-09-02T22:38:55Z</time>
					</trkpt>
					<trkpt lat="44.194630" lon="5.361180">
						<ele>792</ele>
						<time>2026-09-02T22:39:24Z</time>
					</trkpt>
					<trkpt lat="44.194600" lon="5.361690">
						<ele>793</ele>
						<time>2026-09-02T22:39:42Z</time>
					</trkpt>
					<trkpt lat="44.194520" lon="5.362080">
						<ele>790</ele>
						<time>2026-09-02T22:39:57Z</time>
					</trkpt>
					<trkpt lat="44.194570" lon="5.362240">
						<ele>791</ele>
						<time>2026-09-02T22:40:03Z</time>
					</trkpt>
					<trkpt lat="44.194550" lon="5.362470">
						<ele>790</ele>
						<time>2026-09-02T22:40:12Z</time>
					</trkpt>
					<trkpt lat="44.194420" lon="5.362960">
						<ele>786</ele>
						<time>2026-09-02T22:40:30Z</time>
					</trkpt>
					<trkpt lat="44.194330" lon="5.363170">
						<ele>785</ele>
						<time>2026-09-02T22:40:39Z</time>
					</trkpt>
					<trkpt lat="44.194110" lon="5.363890">
						<ele>779</ele>
						<time>2026-09-02T22:41:07Z</time>
					</trkpt>
					<trkpt lat="44.194100" lon="5.364220">
						<ele>777</ele>
						<time>2026-09-02T22:41:19Z</time>
					</trkpt>
					<trkpt lat="44.193950" lon="5.364650">
						<ele>768</ele>
						<time>2026-09-02T22:41:36Z</time>
					</trkpt>
					<trkpt lat="44.193860" lon="5.364990">
						<ele>763</ele>
						<time>2026-09-02T22:41:49Z</time>
					</trkpt>
					<trkpt lat="44.193840" lon="5.365220">
						<ele>761</ele>
						<time>2026-09-02T22:41:57Z</time>
					</trkpt>
					<trkpt lat="44.193730" lon="5.365480">
						<ele>757</ele>
						<time>2026-09-02T22:42:08Z</time>
					</trkpt>
					<trkpt lat="44.193590" lon="5.365920">
						<ele>753</ele>
						<time>2026-09-02T22:42:26Z</time>
					</trkpt>
					<trkpt lat="44.193410" lon="5.366170">
						<ele>751</ele>
						<time>2026-09-02T22:42:38Z</time>
					</trkpt>
					<trkpt lat="44.193220" lon="5.366750">
						<ele>744</ele>
						<time>2026-09-02T22:43:01Z</time>
					</trkpt>
					<trkpt lat="44.193210" lon="5.366950">
						<ele>741</ele>
						<time>2026-09-02T22:43:08Z</time>
					</trkpt>
					<trkpt lat="44.193100" lon="5.367320">
						<ele>732</ele>
						<time>2026-09-02T22:43:23Z</time>
					</trkpt>
					<trkpt lat="44.192880" lon="5.367830">
						<ele>718</ele>
						<time>2026-09-02T22:43:44Z</time>
					</trkpt>
					<trkpt lat="44.192790" lon="5.367910">
						<ele>715</ele>
						<time>2026-09-02T22:43:49Z</time>
					</trkpt>
					<trkpt lat="44.192570" lon="5.367180">
						<ele>714</ele>
						<time>2026-09-02T22:44:18Z</time>
					</trkpt>
					<trkpt lat="44.192540" lon="5.367210">
						<ele>713</ele>
						<time>2026-09-02T22:44:20Z</time>
					</trkpt>
					<trkpt lat="44.192310" lon="5.367800">
						<ele>701</ele>
						<time>2026-09-02T22:44:44Z</time>
					</trkpt>
					<trkpt lat="44.192210" lon="5.367850">
						<ele>696</ele>
						<time>2026-09-02T22:44:49Z</time>
					</trkpt>
					<trkpt lat="44.192120" lon="5.367940">
						<ele>691</ele>
						<time>2026-09-02T22:44:55Z</time>
					</trkpt>
					<trkpt lat="44.192030" lon="5.368100">
						<ele>687</ele>
						<time>2026-09-02T22:45:02Z</time>
					</trkpt>
					<trkpt lat="44.191970" lon="5.368410">
						<ele>684</ele>
						<time>2026-09-02T22:45:13Z</time>
					</trkpt>
					<trkpt lat="44.191900" lon="5.368490">
						<ele>681</ele>
						<time>2026-09-02T22:45:18Z</time>
					</trkpt>
					<trkpt lat="44.191880" lon="5.368700">
						<ele>679</ele>
						<time>2026-09-02T22:45:26Z</time>
					</trkpt>
					<trkpt lat="44.191780" lon="5.368900">
						<ele>675</ele>
						<time>2026-09-02T22:45:34Z</time>
					</trkpt>
					<trkpt lat="44.191610" lon="5.369550">
						<ele>666</ele>
						<time>2026-09-02T22:45:59Z</time>
					</trkpt>
					<trkpt lat="44.191390" lon="5.370110">
						<ele>657</ele>
						<time>2026-09-02T22:46:22Z</time>
					</trkpt>
					<trkpt lat="44.191350" lon="5.370100">
						<ele>656</ele>
						<time>2026-09-02T22:46:24Z</time>
					</trkpt>
					<trkpt lat="44.191290" lon="5.369970">
						<ele>656</ele>
						<time>2026-09-02T22:46:30Z</time>
					</trkpt>
					<trkpt lat="44.191320" lon="5.369380">
						<ele>656</ele>
						<time>2026-09-02T22:46:51Z</time>
					</trkpt>
					<trkpt lat="44.191300" lon="5.368730">
						<ele>653</ele>
						<time>2026-09-02T22:47:14Z</time>
					</trkpt>
					<trkpt lat="44.191230" lon="5.368220">
						<ele>648</ele>
						<time>2026-09-02T22:47:33Z</time>
					</trkpt>
					<trkpt lat="44.191100" lon="5.368580">
						<ele>642</ele>
						<time>2026-09-02T22:47:47Z</time>
					</trkpt>
					<trkpt lat="44.190790" lon="5.369740">
						<ele>641</ele>
						<time>2026-09-02T22:48:32Z</time>
					</trkpt>
					<trkpt lat="44.190540" lon="5.370330">
						<ele>640</ele>
						<time>2026-09-02T22:48:56Z</time>
					</trkpt>
					<trkpt lat="44.190370" lon="5.370590">
						<ele>637</ele>
						<time>2026-09-02T22:49:09Z</time>
					</trkpt>
					<trkpt lat="44.190220" lon="5.370720">
						<ele>634</ele>
						<time>2026-09-02T22:49:18Z</time>
					</trkpt>
					<trkpt lat="44.189930" lon="5.370810">
						<ele>628</ele>
						<time>2026-09-02T22:49:33Z</time>
					</trkpt>
					<trkpt lat="44.189790" lon="5.370880">
						<ele>624</ele>
						<time>2026-09-02T22:49:40Z</time>
					</trkpt>
					<trkpt lat="44.189610" lon="5.371030">
						<ele>619</ele>
						<time>2026-09-02T22:49:51Z</time>
					</trkpt>
					<trkpt lat="44.189380" lon="5.371010">
						<ele>616</ele>
						<time>2026-09-02T22:50:02Z</time>
					</trkpt>
					<trkpt lat="44.189140" lon="5.371070">
						<ele>612</ele>
						<time>2026-09-02T22:50:14Z</time>
					</trkpt>
					<trkpt lat="44.188640" lon="5.371300">
						<ele>605</ele>
						<time>2026-09-02T22:50:41Z</time>
					</trkpt>
					<trkpt lat="44.188360" lon="5.371310">
						<ele>602</ele>
						<time>2026-09-02T22:50:55Z</time>
					</trkpt>
					<trkpt lat="44.188250" lon="5.371270">
						<ele>600</ele>
						<time>2026-09-02T22:51:00Z</time>
					</trkpt>
					<trkpt lat="44.188250" lon="5.371170">
						<ele>599</ele>
						<time>2026-09-02T22:51:04Z</time>
					</trkpt>
					<trkpt lat="44.188310" lon="5.370980">
						<ele>601</ele>
						<time>2026-09-02T22:51:11Z</time>
					</trkpt>
					<trkpt lat="44.188300" lon="5.370810">
						<ele>600</ele>
						<time>2026-09-02T22:51:18Z</time>
					</trkpt>
					<trkpt lat="44.188370" lon="5.370440">
						<ele>595</ele>
						<time>2026-09-02T22:51:31Z</time>
					</trkpt>
					<trkpt lat="44.188380" lon="5.370230">
						<ele>591</ele>
						<time>2026-09-02T22:51:39Z</time>
					</trkpt>
					<trkpt lat="44.188340" lon="5.370030">
						<ele>587</ele>
						<time>2026-09-02T22:51:46Z</time>
					</trkpt>
					<trkpt lat="44.188360" lon="5.369900">
						<ele>585</ele>
						<time>2026-09-02T22:51:51Z</time>
					</trkpt>
					<trkpt lat="44.188410" lon="5.369800">
						<ele>584</ele>
						<time>2026-09-02T22:51:55Z</time>
					</trkpt>
					<trkpt lat="44.188550" lon="5.369640">
						<ele>584</ele>
						<time>2026-09-02T22:52:04Z</time>
					</trkpt>
					<trkpt lat="44.188630" lon="5.369310">
						<ele>579</ele>
						<time>2026-09-02T22:52:17Z</time>
					</trkpt>
					<trkpt lat="44.188530" lon="5.369080">
						<ele>574</ele>
						<time>2026-09-02T22:52:27Z</time>
					</trkpt>
					<trkpt lat="44.188490" lon="5.369040">
						<ele>573</ele>
						<time>2026-09-02T22:52:29Z</time>
					</trkpt>
					<trkpt lat="44.188450" lon="5.369040">
						<ele>572</ele>
						<time>2026-09-02T22:52:31Z</time>
					</trkpt>
					<trkpt lat="44.188380" lon="5.369190">
						<ele>573</ele>
						<time>2026-09-02T22:52:38Z</time>
					</trkpt>
					<trkpt lat="44.188300" lon="5.369270">
						<ele>573</ele>
						<time>2026-09-02T22:52:42Z</time>
					</trkpt>
					<trkpt lat="44.188060" lon="5.369400">
						<ele>573</ele>
						<time>2026-09-02T22:52:55Z</time>
					</trkpt>
					<trkpt lat="44.187960" lon="5.369490">
						<ele>573</ele>
						<time>2026-09-02T22:53:01Z</time>
					</trkpt>
					<trkpt lat="44.187390" lon="5.370300">
						<ele>574</ele>
						<time>2026-09-02T22:53:42Z</time>
					</trkpt>
					<trkpt lat="44.187300" lon="5.370260">
						<ele>575</ele>
						<time>2026-09-02T22:53:47Z</time>
					</trkpt>
					<trkpt lat="44.187260" lon="5.370280">
						<ele>576</ele>
						<time>2026-09-02T22:53:49Z</time>
					</trkpt>
					<trkpt lat="44.187170" lon="5.370410">
						<ele>577</ele>
						<time>2026-09-02T22:53:55Z</time>
					</trkpt>
					<trkpt lat="44.187060" lon="5.370490">
						<ele>578</ele>
						<time>2026-09-02T22:54:02Z</time>
					</trkpt>
					<trkpt lat="44.187010" lon="5.370430">
						<ele>579</ele>
						<time>2026-09-02T22:54:05Z</time>
					</trkpt>
					<trkpt lat="44.187010" lon="5.370100">
						<ele>579</ele>
						<time>2026-09-02T22:54:17Z</time>
					</trkpt>
					<trkpt lat="44.186890" lon="5.368680">
						<ele>574</ele>
						<time>2026-09-02T22:55:08Z</time>
					</trkpt>
					<trkpt lat="44.186810" lon="5.368300">
						<ele>573</ele>
						<time>2026-09-02T22:55:22Z</time>
					</trkpt>
					<trkpt lat="44.186590" lon="5.369020">
						<ele>583</ele>
						<time>2026-09-02T22:55:50Z</time>
					</trkpt>
					<trkpt lat="44.186360" lon="5.369380">
						<ele>587</ele>
						<time>2026-09-02T22:56:08Z</time>
					</trkpt>
					<trkpt lat="44.186080" lon="5.369950">
						<ele>591</ele>
						<time>2026-09-02T22:56:32Z</time>
					</trkpt>
					<trkpt lat="44.185970" lon="5.370010">
						<ele>592</ele>
						<time>2026-09-02T22:56:38Z</time>
					</trkpt>
					<trkpt lat="44.185880" lon="5.369980">
						<ele>593</ele>
						<time>2026-09-02T22:56:43Z</time>
					</trkpt>
					<trkpt lat="44.185540" lon="5.369770">
						<ele>596</ele>
						<time>2026-09-02T22:57:02Z</time>
					</trkpt>
					<trkpt lat="44.185490" lon="5.369780">
						<ele>597</ele>
						<time>2026-09-02T22:57:04Z</time>
					</trkpt>
					<trkpt lat="44.185320" lon="5.370150">
						<ele>599</ele>
						<time>2026-09-02T22:57:20Z</time>
					</trkpt>
					<trkpt lat="44.185250" lon="5.370650">
						<ele>597</ele>
						<time>2026-09-02T22:57:38Z</time>
					</trkpt>
					<trkpt lat="44.185120" lon="5.370880">
						<ele>598</ele>
						<time>2026-09-02T22:57:49Z</time>
					</trkpt>
					<trkpt lat="44.185090" lon="5.370980">
						<ele>596</ele>
						<time>2026-09-02T22:57:53Z</time>
					</trkpt>
					<trkpt lat="44.184620" lon="5.373050">
						<ele>569</ele>
						<time>2026-09-02T22:59:10Z</time>
					</trkpt>
					<trkpt lat="44.184540" lon="5.373330">
						<ele>567</ele>
						<time>2026-09-02T22:59:21Z</time>
					</trkpt>
					<trkpt lat="44.184470" lon="5.373480">
						<ele>566</ele>
						<time>2026-09-02T22:59:28Z</time>
					</trkpt>
					<trkpt lat="44.184450" lon="5.373860">
						<ele>558</ele>
						<time>2026-09-02T22:59:41Z</time>
					</trkpt>
					<trkpt lat="44.184390" lon="5.374150">
						<ele>553</ele>
						<time>2026-09-02T22:59:52Z</time>
					</trkpt>
					<trkpt lat="44.184220" lon="5.374740">
						<ele>540</ele>
						<time>2026-09-02T23:00:15Z</time>
					</trkpt>
					<trkpt lat="44.183770" lon="5.375510">
						<ele>532</ele>
						<time>2026-09-02T23:00:51Z</time>
					</trkpt>
					<trkpt lat="44.183650" lon="5.375770">
						<ele>528</ele>
						<time>2026-09-02T23:01:02Z</time>
					</trkpt>
					<trkpt lat="44.183560" lon="5.376200">
						<ele>524</ele>
						<time>2026-09-02T23:01:18Z</time>
					</trkpt>
					<trkpt lat="44.183450" lon="5.376290">
						<ele>524</ele>
						<time>2026-09-02T23:01:24Z</time>
					</trkpt>
					<trkpt lat="44.183270" lon="5.376330">
						<ele>523</ele>
						<time>2026-09-02T23:01:33Z</time>
					</trkpt>
					<trkpt lat="44.182950" lon="5.376320">
						<ele>520</ele>
						<time>2026-09-02T23:01:49Z</time>
					</trkpt>
					<trkpt lat="44.182830" lon="5.376260">
						<ele>519</ele>
						<time>2026-09-02T23:01:56Z</time>
					</trkpt>
					<trkpt lat="44.182490" lon="5.377020">
						<ele>517</ele>
						<time>2026-09-02T23:02:28Z</time>
					</trkpt>
					<trkpt lat="44.182470" lon="5.377110">
						<ele>517</ele>
						<time>2026-09-02T23:02:31Z</time>
					</trkpt>
					<trkpt lat="44.182480" lon="5.377310">
						<ele>519</ele>
						<time>2026-09-02T23:02:38Z</time>
					</trkpt>
					<trkpt lat="44.182370" lon="5.377930">
						<ele>522</ele>
						<time>2026-09-02T23:03:01Z</time>
					</trkpt>
					<trkpt lat="44.181990" lon="5.379760">
						<ele>520</ele>
						<time>2026-09-02T23:04:10Z</time>
					</trkpt>
					<trkpt lat="44.182010" lon="5.380330">
						<ele>518</ele>
						<time>2026-09-02T23:04:30Z</time>
					</trkpt>
					<trkpt lat="44.182040" lon="5.380520">
						<ele>518</ele>
						<time>2026-09-02T23:04:37Z</time>
					</trkpt>
					<trkpt lat="44.182120" lon="5.380760">
						<ele>517</ele>
						<time>2026-09-02T23:04:47Z</time>
					</trkpt>
					<trkpt lat="44.182420" lon="5.381550">
						<ele>515</ele>
						<time>2026-09-02T23:05:19Z</time>
					</trkpt>
					<trkpt lat="44.182520" lon="5.381950">
						<ele>514</ele>
						<time>2026-09-02T23:05:34Z</time>
					</trkpt>
					<trkpt lat="44.182790" lon="5.383340">
						<ele>515</ele>
						<time>2026-09-02T23:06:26Z</time>
					</trkpt>
					<trkpt lat="44.183090" lon="5.383550">
						<ele>518</ele>
						<time>2026-09-02T23:06:42Z</time>
					</trkpt>
					<trkpt lat="44.183240" lon="5.383620">
						<ele>520</ele>
						<time>2026-09-02T23:06:50Z</time>
					</trkpt>
					<trkpt lat="44.183330" lon="5.383630">
						<ele>521</ele>
						<time>2026-09-02T23:06:55Z</time>
					</trkpt>
					<trkpt lat="44.183350" lon="5.383910">
						<ele>521</ele>
						<time>2026-09-02T23:07:05Z</time>
					</trkpt>
					<trkpt lat="44.183760" lon="5.385100">
						<ele>527</ele>
						<time>2026-09-02T23:07:52Z</time>
					</trkpt>
					<trkpt lat="44.184010" lon="5.386400">
						<ele>525</ele>
						<time>2026-09-02T23:08:41Z</time>
					</trkpt>
					<trkpt lat="44.184050" lon="5.386460">
						<ele>525</ele>
						<time>2026-09-02T23:08:44Z</time>
					</trkpt>
					<trkpt lat="44.184170" lon="5.386550">
						<ele>525</ele>
						<time>2026-09-02T23:08:50Z</time>
					</trkpt>
					<trkpt lat="44.184200" lon="5.386890">
						<ele>523</ele>
						<time>2026-09-02T23:09:03Z</time>
					</trkpt>
					<trkpt lat="44.184160" lon="5.387230">
						<ele>521</ele>
						<time>2026-09-02T23:09:15Z</time>
					</trkpt>
					<trkpt lat="44.184180" lon="5.387350">
						<ele>520</ele>
						<time>2026-09-02T23:09:19Z</time>
					</trkpt>
					<trkpt lat="44.184270" lon="5.387300">
						<ele>522</ele>
						<time>2026-09-02T23:09:24Z</time>
					</trkpt>
					<trkpt lat="44.184340" lon="5.387300">
						<ele>523</ele>
						<time>2026-09-02T23:09:28Z</time>
					</trkpt>
					<trkpt lat="44.184560" lon="5.387420">
						<ele>525</ele>
						<time>2026-09-02T23:09:40Z</time>
					</trkpt>
					<trkpt lat="44.184850" lon="5.387460">
						<ele>529</ele>
						<time>2026-09-02T23:09:54Z</time>
					</trkpt>
					<trkpt lat="44.184930" lon="5.387510">
						<ele>530</ele>
						<time>2026-09-02T23:09:59Z</time>
					</trkpt>
					<trkpt lat="44.185050" lon="5.387660">
						<ele>531</ele>
						<time>2026-09-02T23:10:07Z</time>
					</trkpt>
					<trkpt lat="44.185350" lon="5.388150">
						<ele>530</ele>
						<time>2026-09-02T23:10:30Z</time>
					</trkpt>
					<trkpt lat="44.185620" lon="5.388480">
						<ele>530</ele>
						<time>2026-09-02T23:10:48Z</time>
					</trkpt>
					<trkpt lat="44.185890" lon="5.389000">
						<ele>527</ele>
						<time>2026-09-02T23:11:11Z</time>
					</trkpt>
					<trkpt lat="44.186040" lon="5.389200">
						<ele>526</ele>
						<time>2026-09-02T23:11:21Z</time>
					</trkpt>
					<trkpt lat="44.186160" lon="5.389280">
						<ele>526</ele>
						<time>2026-09-02T23:11:28Z</time>
					</trkpt>
					<trkpt lat="44.186390" lon="5.389310">
						<ele>527</ele>
						<time>2026-09-02T23:11:39Z</time>
					</trkpt>
					<trkpt lat="44.186910" lon="5.389280">
						<ele>530</ele>
						<time>2026-09-02T23:12:05Z</time>
					</trkpt>
					<trkpt lat="44.187410" lon="5.389360">
						<ele>533</ele>
						<time>2026-09-02T23:12:31Z</time>
					</trkpt>
					<trkpt lat="44.187850" lon="5.389280">
						<ele>534</ele>
						<time>2026-09-02T23:12:53Z</time>
					</trkpt>
					<trkpt lat="44.188060" lon="5.389280">
						<ele>534</ele>
						<time>2026-09-02T23:13:03Z</time>
					</trkpt>
					<trkpt lat="44.188150" lon="5.389170">
						<ele>534</ele>
						<time>2026-09-02T23:13:09Z</time>
					</trkpt>
					<trkpt lat="44.188310" lon="5.389100">
						<ele>535</ele>
						<time>2026-09-02T23:13:18Z</time>
					</trkpt>
					<trkpt lat="44.188440" lon="5.389090">
						<ele>535</ele>
						<time>2026-09-02T23:13:24Z</time>
					</trkpt>
					<trkpt lat="44.188810" lon="5.389140">
						<ele>539</ele>
						<time>2026-09-02T23:13:43Z</time>
					</trkpt>
					<trkpt lat="44.188970" lon="5.389190">
						<ele>540</ele>
						<time>2026-09-02T23:13:51Z</time>
					</trkpt>
					<trkpt lat="44.189250" lon="5.389210">
						<ele>542</ele>
						<time>2026-09-02T23:14:05Z</time>
					</trkpt>
					<trkpt lat="44.189440" lon="5.389250">
						<ele>544</ele>
						<time>2026-09-02T23:14:15Z</time>
					</trkpt>
					<trkpt lat="44.189650" lon="5.389320">
						<ele>545</ele>
						<time>2026-09-02T23:14:26Z</time>
					</trkpt>
					<trkpt lat="44.190140" lon="5.389650">
						<ele>546</ele>
						<time>2026-09-02T23:14:53Z</time>
					</trkpt>
					<trkpt lat="44.190600" lon="5.389920">
						<ele>548</ele>
						<time>2026-09-02T23:15:18Z</time>
					</trkpt>
					<trkpt lat="44.190670" lon="5.390010">
						<ele>548</ele>
						<time>2026-09-02T23:15:22Z</time>
					</trkpt>
					<trkpt lat="44.190760" lon="5.390230">
						<ele>546</ele>
						<time>2026-09-02T23:15:32Z</time>
					</trkpt>
					<trkpt lat="44.190990" lon="5.390430">
						<ele>547</ele>
						<time>2026-09-02T23:15:45Z</time>
					</trkpt>
					<trkpt lat="44.191140" lon="5.390480">
						<ele>549</ele>
						<time>2026-09-02T23:15:53Z</time>
					</trkpt>
					<trkpt lat="44.191220" lon="5.390480">
						<ele>550</ele>
						<time>2026-09-02T23:15:57Z</time>
					</trkpt>
					<trkpt lat="44.191370" lon="5.390430">
						<ele>552</ele>
						<time>2026-09-02T23:16:05Z</time>
					</trkpt>
					<trkpt lat="44.191480" lon="5.390430">
						<ele>554</ele>
						<time>2026-09-02T23:16:10Z</time>
					</trkpt>
					<trkpt lat="44.191610" lon="5.390500">
						<ele>555</ele>
						<time>2026-09-02T23:16:17Z</time>
					</trkpt>
					<trkpt lat="44.191740" lon="5.390720">
						<ele>556</ele>
						<time>2026-09-02T23:16:27Z</time>
					</trkpt>
					<trkpt lat="44.191790" lon="5.391110">
						<ele>554</ele>
						<time>2026-09-02T23:16:41Z</time>
					</trkpt>
					<trkpt lat="44.191950" lon="5.391500">
						<ele>554</ele>
						<time>2026-09-02T23:16:58Z</time>
					</trkpt>
					<trkpt lat="44.192080" lon="5.391620">
						<ele>555</ele>
						<time>2026-09-02T23:17:05Z</time>
					</trkpt>
					<trkpt lat="44.192290" lon="5.391750">
						<ele>557</ele>
						<time>2026-09-02T23:17:17Z</time>
					</trkpt>
					<trkpt lat="44.192330" lon="5.391830">
						<ele>557</ele>
						<time>2026-09-02T23:17:20Z</time>
					</trkpt>
					<trkpt lat="44.192550" lon="5.392010">
						<ele>557</ele>
						<time>2026-09-02T23:17:33Z</time>
					</trkpt>
					<trkpt lat="44.192760" lon="5.392260">
						<ele>554</ele>
						<time>2026-09-02T23:17:47Z</time>
					</trkpt>
					<trkpt lat="44.192840" lon="5.392430">
						<ele>552</ele>
						<time>2026-09-02T23:17:54Z</time>
					</trkpt>
					<trkpt lat="44.192990" lon="5.392580">
						<ele>552</ele>
						<time>2026-09-02T23:18:04Z</time>
					</trkpt>
					<trkpt lat="44.193150" lon="5.392900">
						<ele>551</ele>
						<time>2026-09-02T23:18:18Z</time>
					</trkpt>
					<trkpt lat="44.193260" lon="5.393270">
						<ele>548</ele>
						<time>2026-09-02T23:18:32Z</time>
					</trkpt>
					<trkpt lat="44.193260" lon="5.393430">
						<ele>547</ele>
						<time>2026-09-02T23:18:38Z</time>
					</trkpt>
					<trkpt lat="44.193670" lon="5.393630">
						<ele>549</ele>
						<time>2026-09-02T23:18:59Z</time>
					</trkpt>
					<trkpt lat="44.194060" lon="5.394170">
						<ele>551</ele>
						<time>2026-09-02T23:19:27Z</time>
					</trkpt>
					<trkpt lat="44.194130" lon="5.394220">
						<ele>552</ele>
						<time>2026-09-02T23:19:31Z</time>
					</trkpt>
					<trkpt lat="44.194020" lon="5.394580">
						<ele>554</ele>
						<time>2026-09-02T23:19:45Z</time>
					</trkpt>
					<trkpt lat="44.194000" lon="5.394720">
						<ele>554</ele>
						<time>2026-09-02T23:19:50Z</time>
					</trkpt>
					<trkpt lat="44.194070" lon="5.394970">
						<ele>557</ele>
						<time>2026-09-02T23:20:00Z</time>
					</trkpt>
					<trkpt lat="44.194210" lon="5.395250">
						<ele>559</ele>
						<time>2026-09-02T23:20:12Z</time>
					</trkpt>
					<trkpt lat="44.194510" lon="5.395710">
						<ele>568</ele>
						<time>2026-09-02T23:20:34Z</time>
					</trkpt>
					<trkpt lat="44.194840" lon="5.396100">
						<ele>574</ele>
						<time>2026-09-02T23:20:56Z</time>
					</trkpt>
					<trkpt lat="44.195160" lon="5.396310">
						<ele>581</ele>
						<time>2026-09-02T23:21:14Z</time>
					</trkpt>
					<trkpt lat="44.195400" lon="5.396380">
						<ele>587</ele>
						<time>2026-09-02T23:21:26Z</time>
					</trkpt>
					<trkpt lat="44.195590" lon="5.396520">
						<ele>590</ele>
						<time>2026-09-02T23:21:37Z</time>
					</trkpt>
					<trkpt lat="44.195680" lon="5.396630">
						<ele>589</ele>
						<time>2026-09-02T23:21:43Z</time>
					</trkpt>
					<trkpt lat="44.195670" lon="5.396680">
						<ele>588</ele>
						<time>2026-09-02T23:21:44Z</time>
					</trkpt>
					<trkpt lat="44.195800" lon="5.397050">
						<ele>593</ele>
						<time>2026-09-02T23:21:59Z</time>
					</trkpt>
					<trkpt lat="44.195950" lon="5.397260">
						<ele>597</ele>
						<time>2026-09-02T23:22:10Z</time>
					</trkpt>
					<trkpt lat="44.196160" lon="5.397460">
						<ele>603</ele>
						<time>2026-09-02T23:22:23Z</time>
					</trkpt>
					<trkpt lat="44.196230" lon="5.397580">
						<ele>604</ele>
						<time>2026-09-02T23:22:28Z</time>
					</trkpt>
					<trkpt lat="44.196270" lon="5.397670">
						<ele>605</ele>
						<time>2026-09-02T23:22:32Z</time>
					</trkpt>
					<trkpt lat="44.196320" lon="5.398020">
						<ele>606</ele>
						<time>2026-09-02T23:22:45Z</time>
					</trkpt>
					<trkpt lat="44.196370" lon="5.398130">
						<ele>606</ele>
						<time>2026-09-02T23:22:49Z</time>
					</trkpt>
					<trkpt lat="44.196450" lon="5.398200">
						<ele>605</ele>
						<time>2026-09-02T23:22:54Z</time>
					</trkpt>
					<trkpt lat="44.196650" lon="5.398230">
						<ele>604</ele>
						<time>2026-09-02T23:23:04Z</time>
					</trkpt>
					<trkpt lat="44.197240" lon="5.398060">
						<ele>610</ele>
						<time>2026-09-02T23:23:34Z</time>
					</trkpt>
					<trkpt lat="44.197530" lon="5.397920">
						<ele>616</ele>
						<time>2026-09-02T23:23:50Z</time>
					</trkpt>
					<trkpt lat="44.197750" lon="5.397780">
						<ele>619</ele>
						<time>2026-09-02T23:24:02Z</time>
					</trkpt>
					<trkpt lat="44.197880" lon="5.397730">
						<ele>620</ele>
						<time>2026-09-02T23:24:08Z</time>
					</trkpt>
					<trkpt lat="44.198280" lon="5.397660">
						<ele>620</ele>
						<time>2026-09-02T23:24:29Z</time>
					</trkpt>
					<trkpt lat="44.198400" lon="5.397550">
						<ele>621</ele>
						<time>2026-09-02T23:24:36Z</time>
					</trkpt>
					<trkpt lat="44.198610" lon="5.397330">
						<ele>625</ele>
						<time>2026-09-02T23:24:49Z</time>
					</trkpt>
					<trkpt lat="44.198780" lon="5.397050">
						<ele>629</ele>
						<time>2026-09-02T23:25:02Z</time>
					</trkpt>
					<trkpt lat="44.198950" lon="5.396840">
						<ele>630</ele>
						<time>2026-09-02T23:25:14Z</time>
					</trkpt>
					<trkpt lat="44.199000" lon="5.396680">
						<ele>631</ele>
						<time>2026-09-02T23:25:20Z</time>
					</trkpt>
					<trkpt lat="44.199250" lon="5.396360">
						<ele>635</ele>
						<time>2026-09-02T23:25:37Z</time>
					</trkpt>
					<trkpt lat="44.199470" lon="5.396010">
						<ele>638</ele>
						<time>2026-09-02T23:25:53Z</time>
					</trkpt>
					<trkpt lat="44.199670" lon="5.395670">
						<ele>639</ele>
						<time>2026-09-02T23:26:09Z</time>
					</trkpt>
					<trkpt lat="44.199830" lon="5.395340">
						<ele>640</ele>
						<time>2026-09-02T23:26:24Z</time>
					</trkpt>
					<trkpt lat="44.199960" lon="5.395040">
						<ele>640</ele>
						<time>2026-09-02T23:26:36Z</time>
					</trkpt>
					<trkpt lat="44.200170" lon="5.394440">
						<ele>646</ele>
						<time>2026-09-02T23:27:00Z</time>
					</trkpt>
					<trkpt lat="44.200220" lon="5.394380">
						<ele>647</ele>
						<time>2026-09-02T23:27:03Z</time>
					</trkpt>
					<trkpt lat="44.200360" lon="5.394290">
						<ele>646</ele>
						<time>2026-09-02T23:27:11Z</time>
					</trkpt>
					<trkpt lat="44.200450" lon="5.394260">
						<ele>646</ele>
						<time>2026-09-02T23:27:16Z</time>
					</trkpt>
					<trkpt lat="44.200600" lon="5.394260">
						<ele>644</ele>
						<time>2026-09-02T23:27:23Z</time>
					</trkpt>
					<trkpt lat="44.200790" lon="5.394140">
						<ele>643</ele>
						<time>2026-09-02T23:27:34Z</time>
					</trkpt>
					<trkpt lat="44.200890" lon="5.394120">
						<ele>642</ele>
						<time>2026-09-02T23:27:39Z</time>
					</trkpt>
					<trkpt lat="44.200960" lon="5.394140">
						<ele>642</ele>
						<time>2026-09-02T23:27:42Z</time>
					</trkpt>
					<trkpt lat="44.201090" lon="5.394320">
						<ele>643</ele>
						<time>2026-09-02T23:27:51Z</time>
					</trkpt>
					<trkpt lat="44.201290" lon="5.394500">
						<ele>645</ele>
						<time>2026-09-02T23:28:03Z</time>
					</trkpt>
					<trkpt lat="44.201730" lon="5.394660">
						<ele>649</ele>
						<time>2026-09-02T23:28:26Z</time>
					</trkpt>
					<trkpt lat="44.202250" lon="5.395090">
						<ele>654</ele>
						<time>2026-09-02T23:28:56Z</time>
					</trkpt>
					<trkpt lat="44.202660" lon="5.395190">
						<ele>655</ele>
						<time>2026-09-02T23:29:17Z</time>
					</trkpt>
					<trkpt lat="44.202940" lon="5.395290">
						<ele>654</ele>
						<time>2026-09-02T23:29:32Z</time>
					</trkpt>
					<trkpt lat="44.203050" lon="5.395140">
						<ele>651</ele>
						<time>2026-09-02T23:29:39Z</time>
					</trkpt>
					<trkpt lat="44.203180" lon="5.395080">
						<ele>650</ele>
						<time>2026-09-02T23:29:46Z</time>
					</trkpt>
					<trkpt lat="44.203280" lon="5.395080">
						<ele>649</ele>
						<time>2026-09-02T23:29:51Z</time>
					</trkpt>
					<trkpt lat="44.203430" lon="5.395040">
						<ele>649</ele>
						<time>2026-09-02T23:29:59Z</time>
					</trkpt>
					<trkpt lat="44.203460" lon="5.395020">
						<ele>649</ele>
						<time>2026-09-02T23:30:01Z</time>
					</trkpt>
					<trkpt lat="44.203490" lon="5.394940">
						<ele>649</ele>
						<time>2026-09-02T23:30:04Z</time>
					</trkpt>
					<trkpt lat="44.203670" lon="5.394960">
						<ele>649</ele>
						<time>2026-09-02T23:30:13Z</time>
					</trkpt>
					<trkpt lat="44.203820" lon="5.395010">
						<ele>650</ele>
						<time>2026-09-02T23:30:21Z</time>
					</trkpt>
					<trkpt lat="44.204030" lon="5.395150">
						<ele>651</ele>
						<time>2026-09-02T23:30:32Z</time>
					</trkpt>
					<trkpt lat="44.204090" lon="5.395150">
						<ele>651</ele>
						<time>2026-09-02T23:30:35Z</time>
					</trkpt>
					<trkpt lat="44.204140" lon="5.394970">
						<ele>651</ele>
						<time>2026-09-02T23:30:42Z</time>
					</trkpt>
					<trkpt lat="44.204190" lon="5.394900">
						<ele>652</ele>
						<time>2026-09-02T23:30:46Z</time>
					</trkpt>
					<trkpt lat="44.204270" lon="5.394880">
						<ele>652</ele>
						<time>2026-09-02T23:30:50Z</time>
					</trkpt>
					<trkpt lat="44.204470" lon="5.394890">
						<ele>654</ele>
						<time>2026-09-02T23:31:00Z</time>
					</trkpt>
					<trkpt lat="44.205330" lon="5.394800">
						<ele>660</ele>
						<time>2026-09-02T23:31:43Z</time>
					</trkpt>
					<trkpt lat="44.205380" lon="5.394830">
						<ele>660</ele>
						<time>2026-09-02T23:31:46Z</time>
					</trkpt>
					<trkpt lat="44.205650" lon="5.395380">
						<ele>662</ele>
						<time>2026-09-02T23:32:10Z</time>
					</trkpt>
					<trkpt lat="44.205840" lon="5.396390">
						<ele>667</ele>
						<time>2026-09-02T23:32:47Z</time>
					</trkpt>
					<trkpt lat="44.206020" lon="5.396800">
						<ele>671</ele>
						<time>2026-09-02T23:33:04Z</time>
					</trkpt>
					<trkpt lat="44.206310" lon="5.397630">
						<ele>676</ele>
						<time>2026-09-02T23:33:37Z</time>
					</trkpt>
					<trkpt lat="44.206510" lon="5.398460">
						<ele>681</ele>
						<time>2026-09-02T23:34:09Z</time>
					</trkpt>
					<trkpt lat="44.206600" lon="5.399250">
						<ele>685</ele>
						<time>2026-09-02T23:34:37Z</time>
					</trkpt>
					<trkpt lat="44.206590" lon="5.399960">
						<ele>689</ele>
						<time>2026-09-02T23:35:03Z</time>
					</trkpt>
					<trkpt lat="44.206540" lon="5.400690">
						<ele>693</ele>
						<time>2026-09-02T23:35:29Z</time>
					</trkpt>
					<trkpt lat="44.206500" lon="5.400950">
						<ele>694</ele>
						<time>2026-09-02T23:35:39Z</time>
					</trkpt>
					<trkpt lat="44.206550" lon="5.402330">
						<ele>702</ele>
						<time>2026-09-02T23:36:28Z</time>
					</trkpt>
					<trkpt lat="44.206490" lon="5.403490">
						<ele>711</ele>
						<time>2026-09-02T23:37:10Z</time>
					</trkpt>
					<trkpt lat="44.206480" lon="5.404550">
						<ele>719</ele>
						<time>2026-09-02T23:37:48Z</time>
					</trkpt>
					<trkpt lat="44.206400" lon="5.404890">
						<ele>721</ele>
						<time>2026-09-02T23:38:01Z</time>
					</trkpt>
					<trkpt lat="44.206150" lon="5.405390">
						<ele>723</ele>
						<time>2026-09-02T23:38:23Z</time>
					</trkpt>
					<trkpt lat="44.206020" lon="5.405820">
						<ele>727</ele>
						<time>2026-09-02T23:38:40Z</time>
					</trkpt>
					<trkpt lat="44.205980" lon="5.406090">
						<ele>730</ele>
						<time>2026-09-02T23:38:49Z</time>
					</trkpt>
					<trkpt lat="44.205960" lon="5.406480">
						<ele>735</ele>
						<time>2026-09-02T23:39:03Z</time>
					</trkpt>
					<trkpt lat="44.205890" lon="5.406690">
						<ele>737</ele>
						<time>2026-09-02T23:39:12Z</time>
					</trkpt>
					<trkpt lat="44.205870" lon="5.406730">
						<ele>737</ele>
						<time>2026-09-02T23:39:13Z</time>
					</trkpt>
					<trkpt lat="44.205820" lon="5.406740">
						<ele>737</ele>
						<time>2026-09-02T23:39:16Z</time>
					</trkpt>
					<trkpt lat="44.205680" lon="5.406570">
						<ele>734</ele>
						<time>2026-09-02T23:39:25Z</time>
					</trkpt>
					<trkpt lat="44.205620" lon="5.406590">
						<ele>734</ele>
						<time>2026-09-02T23:39:28Z</time>
					</trkpt>
					<trkpt lat="44.205580" lon="5.406650">
						<ele>735</ele>
						<time>2026-09-02T23:39:31Z</time>
					</trkpt>
					<trkpt lat="44.205550" lon="5.406950">
						<ele>738</ele>
						<time>2026-09-02T23:39:42Z</time>
					</trkpt>
					<trkpt lat="44.205420" lon="5.407340">
						<ele>741</ele>
						<time>2026-09-02T23:39:58Z</time>
					</trkpt>
					<trkpt lat="44.205350" lon="5.407890">
						<ele>743</ele>
						<time>2026-09-02T23:40:18Z</time>
					</trkpt>
					<trkpt lat="44.205690" lon="5.407560">
						<ele>744</ele>
						<time>2026-09-02T23:40:38Z</time>
					</trkpt>
					<trkpt lat="44.205740" lon="5.407540">
						<ele>744</ele>
						<time>2026-09-02T23:40:41Z</time>
					</trkpt>
					<trkpt lat="44.206020" lon="5.407540">
						<ele>746</ele>
						<time>2026-09-02T23:40:55Z</time>
					</trkpt>
					<trkpt lat="44.206110" lon="5.407480">
						<ele>746</ele>
						<time>2026-09-02T23:41:00Z</time>
					</trkpt>
					<trkpt lat="44.206210" lon="5.407340">
						<ele>746</ele>
						<time>2026-09-02T23:41:07Z</time>
					</trkpt>
					<trkpt lat="44.206420" lon="5.406880">
						<ele>743</ele>
						<time>2026-09-02T23:41:27Z</time>
					</trkpt>
					<trkpt lat="44.206470" lon="5.406830">
						<ele>743</ele>
						<time>2026-09-02T23:41:30Z</time>
					</trkpt>
					<trkpt lat="44.206590" lon="5.406850">
						<ele>745</ele>
						<time>2026-09-02T23:41:36Z</time>
					</trkpt>
					<trkpt lat="44.206840" lon="5.407090">
						<ele>748</ele>
						<time>2026-09-02T23:41:51Z</time>
					</trkpt>
					<trkpt lat="44.207060" lon="5.407630">
						<ele>753</ele>
						<time>2026-09-02T23:42:13Z</time>
					</trkpt>
					<trkpt lat="44.207340" lon="5.407650">
						<ele>755</ele>
						<time>2026-09-02T23:42:27Z</time>
					</trkpt>
					<trkpt lat="44.207590" lon="5.407740">
						<ele>758</ele>
						<time>2026-09-02T23:42:40Z</time>
					</trkpt>
					<trkpt lat="44.207720" lon="5.407700">
						<ele>760</ele>
						<time>2026-09-02T23:42:47Z</time>
					</trkpt>
					<trkpt lat="44.207770" lon="5.407640">
						<ele>760</ele>
						<time>2026-09-02T23:42:50Z</time>
					</trkpt>
					<trkpt lat="44.207890" lon="5.407300">
						<ele>760</ele>
						<time>2026-09-02T23:43:04Z</time>
					</trkpt>
					<trkpt lat="44.207980" lon="5.407100">
						<ele>760</ele>
						<time>2026-09-02T23:43:12Z</time>
					</trkpt>
					<trkpt lat="44.208040" lon="5.407030">
						<ele>761</ele>
						<time>2026-09-02T23:43:16Z</time>
					</trkpt>
					<trkpt lat="44.208150" lon="5.406980">
						<ele>763</ele>
						<time>2026-09-02T23:43:22Z</time>
					</trkpt>
					<trkpt lat="44.208450" lon="5.407050">
						<ele>770</ele>
						<time>2026-09-02T23:43:37Z</time>
					</trkpt>
					<trkpt lat="44.208490" lon="5.407030">
						<ele>771</ele>
						<time>2026-09-02T23:43:39Z</time>
					</trkpt>
					<trkpt lat="44.208520" lon="5.406950">
						<ele>772</ele>
						<time>2026-09-02T23:43:43Z</time>
					</trkpt>
					<trkpt lat="44.208480" lon="5.406840">
						<ele>771</ele>
						<time>2026-09-02T23:43:47Z</time>
					</trkpt>
					<trkpt lat="44.208150" lon="5.406490">
						<ele>763</ele>
						<time>2026-09-02T23:44:08Z</time>
					</trkpt>
					<trkpt lat="44.207950" lon="5.406180">
						<ele>758</ele>
						<time>2026-09-02T23:44:23Z</time>
					</trkpt>
					<trkpt lat="44.207920" lon="5.406070">
						<ele>757</ele>
						<time>2026-09-02T23:44:27Z</time>
					</trkpt>
					<trkpt lat="44.207950" lon="5.405950">
						<ele>758</ele>
						<time>2026-09-02T23:44:31Z</time>
					</trkpt>
					<trkpt lat="44.208180" lon="5.405750">
						<ele>763</ele>
						<time>2026-09-02T23:44:45Z</time>
					</trkpt>
					<trkpt lat="44.208540" lon="5.405180">
						<ele>767</ele>
						<time>2026-09-02T23:45:12Z</time>
					</trkpt>
					<trkpt lat="44.208610" lon="5.405040">
						<ele>768</ele>
						<time>2026-09-02T23:45:18Z</time>
					</trkpt>
					<trkpt lat="44.208700" lon="5.404690">
						<ele>767</ele>
						<time>2026-09-02T23:45:32Z</time>
					</trkpt>
					<trkpt lat="44.208770" lon="5.404640">
						<ele>768</ele>
						<time>2026-09-02T23:45:36Z</time>
					</trkpt>
					<trkpt lat="44.208980" lon="5.404680">
						<ele>773</ele>
						<time>2026-09-02T23:45:46Z</time>
					</trkpt>
					<trkpt lat="44.209050" lon="5.404640">
						<ele>774</ele>
						<time>2026-09-02T23:45:50Z</time>
					</trkpt>
					<trkpt lat="44.209140" lon="5.404300">
						<ele>774</ele>
						<time>2026-09-02T23:46:03Z</time>
					</trkpt>
					<trkpt lat="44.209590" lon="5.403710">
						<ele>778</ele>
						<time>2026-09-02T23:46:34Z</time>
					</trkpt>
					<trkpt lat="44.210060" lon="5.402880">
						<ele>777</ele>
						<time>2026-09-02T23:47:12Z</time>
					</trkpt>
					<trkpt lat="44.210180" lon="5.402860">
						<ele>778</ele>
						<time>2026-09-02T23:47:18Z</time>
					</trkpt>
					<trkpt lat="44.210280" lon="5.402930">
						<ele>781</ele>
						<time>2026-09-02T23:47:24Z</time>
					</trkpt>
					<trkpt lat="44.210350" lon="5.403080">
						<ele>783</ele>
						<time>2026-09-02T23:47:30Z</time>
					</trkpt>
					<trkpt lat="44.210380" lon="5.403370">
						<ele>787</ele>
						<time>2026-09-02T23:47:40Z</time>
					</trkpt>
					<trkpt lat="44.210440" lon="5.403420">
						<ele>788</ele>
						<time>2026-09-02T23:47:44Z</time>
					</trkpt>
					<trkpt lat="44.210500" lon="5.403380">
						<ele>788</ele>
						<time>2026-09-02T23:47:47Z</time>
					</trkpt>
					<trkpt lat="44.210600" lon="5.403020">
						<ele>787</ele>
						<time>2026-09-02T23:48:01Z</time>
					</trkpt>
					<trkpt lat="44.210660" lon="5.402290">
						<ele>781</ele>
						<time>2026-09-02T23:48:27Z</time>
					</trkpt>
					<trkpt lat="44.210690" lon="5.402190">
						<ele>780</ele>
						<time>2026-09-02T23:48:31Z</time>
					</trkpt>
					<trkpt lat="44.210870" lon="5.401980">
						<ele>781</ele>
						<time>2026-09-02T23:48:43Z</time>
					</trkpt>
					<trkpt lat="44.210920" lon="5.401960">
						<ele>781</ele>
						<time>2026-09-02T23:48:46Z</time>
					</trkpt>
					<trkpt lat="44.211030" lon="5.401980">
						<ele>782</ele>
						<time>2026-09-02T23:48:51Z</time>
					</trkpt>
					<trkpt lat="44.211110" lon="5.402010">
						<ele>784</ele>
						<time>2026-09-02T23:48:55Z</time>
					</trkpt>
					<trkpt lat="44.211160" lon="5.402060">
						<ele>785</ele>
						<time>2026-09-02T23:48:58Z</time>
					</trkpt>
					<trkpt lat="44.211330" lon="5.402620">
						<ele>791</ele>
						<time>2026-09-02T23:49:20Z</time>
					</trkpt>
					<trkpt lat="44.211430" lon="5.402740">
						<ele>794</ele>
						<time>2026-09-02T23:49:27Z</time>
					</trkpt>
					<trkpt lat="44.211530" lon="5.402800">
						<ele>795</ele>
						<time>2026-09-02T23:49:32Z</time>
					</trkpt>
					<trkpt lat="44.211770" lon="5.402850">
						<ele>800</ele>
						<time>2026-09-02T23:49:44Z</time>
					</trkpt>
					<trkpt lat="44.211890" lon="5.402970">
						<ele>803</ele>
						<time>2026-09-02T23:49:52Z</time>
					</trkpt>
					<trkpt lat="44.211930" lon="5.402980">
						<ele>804</ele>
						<time>2026-09-02T23:49:54Z</time>
					</trkpt>
					<trkpt lat="44.211980" lon="5.402950">
						<ele>805</ele>
						<time>2026-09-02T23:49:57Z</time>
					</trkpt>
					<trkpt lat="44.212010" lon="5.402840">
						<ele>805</ele>
						<time>2026-09-02T23:50:01Z</time>
					</trkpt>
					<trkpt lat="44.212000" lon="5.402740">
						<ele>804</ele>
						<time>2026-09-02T23:50:04Z</time>
					</trkpt>
					<trkpt lat="44.211830" lon="5.402490">
						<ele>797</ele>
						<time>2026-09-02T23:50:17Z</time>
					</trkpt>
					<trkpt lat="44.211780" lon="5.402330">
						<ele>795</ele>
						<time>2026-09-02T23:50:23Z</time>
					</trkpt>
					<trkpt lat="44.211930" lon="5.401820">
						<ele>797</ele>
						<time>2026-09-02T23:50:43Z</time>
					</trkpt>
					<trkpt lat="44.211960" lon="5.401630">
						<ele>797</ele>
						<time>2026-09-02T23:50:50Z</time>
					</trkpt>
					<trkpt lat="44.211900" lon="5.400710">
						<ele>794</ele>
						<time>2026-09-02T23:51:23Z</time>
					</trkpt>
					<trkpt lat="44.211940" lon="5.400500">
						<ele>795</ele>
						<time>2026-09-02T23:51:31Z</time>
					</trkpt>
					<trkpt lat="44.212020" lon="5.400280">
						<ele>797</ele>
						<time>2026-09-02T23:51:40Z</time>
					</trkpt>
					<trkpt lat="44.212250" lon="5.399730">
						<ele>799</ele>
						<time>2026-09-02T23:52:02Z</time>
					</trkpt>
					<trkpt lat="44.212430" lon="5.399370">
						<ele>800</ele>
						<time>2026-09-02T23:52:18Z</time>
					</trkpt>
					<trkpt lat="44.212610" lon="5.399170">
						<ele>801</ele>
						<time>2026-09-02T23:52:30Z</time>
					</trkpt>
					<trkpt lat="44.213010" lon="5.399100">
						<ele>806</ele>
						<time>2026-09-02T23:52:50Z</time>
					</trkpt>
					<trkpt lat="44.213450" lon="5.398710">
						<ele>808</ele>
						<time>2026-09-02T23:53:16Z</time>
					</trkpt>
					<trkpt lat="44.213870" lon="5.398410">
						<ele>813</ele>
						<time>2026-09-02T23:53:40Z</time>
					</trkpt>
					<trkpt lat="44.214510" lon="5.398010">
						<ele>821</ele>
						<time>2026-09-02T23:54:15Z</time>
					</trkpt>
					<trkpt lat="44.214690" lon="5.397960">
						<ele>825</ele>
						<time>2026-09-02T23:54:24Z</time>
					</trkpt>
					<trkpt lat="44.215070" lon="5.398000">
						<ele>834</ele>
						<time>2026-09-02T23:54:43Z</time>
					</trkpt>
					<trkpt lat="44.215130" lon="5.397960">
						<ele>836</ele>
						<time>2026-09-02T23:54:46Z</time>
					</trkpt>
					<trkpt lat="44.215150" lon="5.397790">
						<ele>835</ele>
						<time>2026-09-02T23:54:52Z</time>
					</trkpt>
					<trkpt lat="44.215100" lon="5.397630">
						<ele>832</ele>
						<time>2026-09-02T23:54:59Z</time>
					</trkpt>
					<trkpt lat="44.214870" lon="5.397160">
						<ele>827</ele>
						<time>2026-09-02T23:55:19Z</time>
					</trkpt>
					<trkpt lat="44.214800" lon="5.396880">
						<ele>828</ele>
						<time>2026-09-02T23:55:30Z</time>
					</trkpt>
					<trkpt lat="44.214810" lon="5.396500">
						<ele>830</ele>
						<time>2026-09-02T23:55:43Z</time>
					</trkpt>
					<trkpt lat="44.214910" lon="5.395760">
						<ele>832</ele>
						<time>2026-09-02T23:56:10Z</time>
					</trkpt>
					<trkpt lat="44.215060" lon="5.395200">
						<ele>833</ele>
						<time>2026-09-02T23:56:32Z</time>
					</trkpt>
					<trkpt lat="44.215110" lon="5.394870">
						<ele>833</ele>
						<time>2026-09-02T23:56:44Z</time>
					</trkpt>
					<trkpt lat="44.215280" lon="5.394390">
						<ele>835</ele>
						<time>2026-09-02T23:57:03Z</time>
					</trkpt>
					<trkpt lat="44.215340" lon="5.393830">
						<ele>835</ele>
						<time>2026-09-02T23:57:23Z</time>
					</trkpt>
					<trkpt lat="44.215500" lon="5.393410">
						<ele>836</ele>
						<time>2026-09-02T23:57:41Z</time>
					</trkpt>
					<trkpt lat="44.215560" lon="5.393280">
						<ele>837</ele>
						<time>2026-09-02T23:57:46Z</time>
					</trkpt>
					<trkpt lat="44.215820" lon="5.393070">
						<ele>839</ele>
						<time>2026-09-02T23:58:01Z</time>
					</trkpt>
					<trkpt lat="44.215920" lon="5.393020">
						<ele>840</ele>
						<time>2026-09-02T23:58:06Z</time>
					</trkpt>
					<trkpt lat="44.216040" lon="5.392890">
						<ele>839</ele>
						<time>2026-09-02T23:58:14Z</time>
					</trkpt>
					<trkpt lat="44.216200" lon="5.392840">
						<ele>840</ele>
						<time>2026-09-02T23:58:22Z</time>
					</trkpt>
					<trkpt lat="44.217060" lon="5.392900">
						<ele>848</ele>
						<time>2026-09-02T23:59:05Z</time>
					</trkpt>
					<trkpt lat="44.217800" lon="5.393070">
						<ele>858</ele>
						<time>2026-09-02T23:59:43Z</time>
					</trkpt>
					<trkpt lat="44.218050" lon="5.393090">
						<ele>861</ele>
						<time>2026-09-02T23:59:55Z</time>
					</trkpt>
					<trkpt lat="44.218120" lon="5.393090">
						<ele>861</ele>
						<time>2026-09-02T23:59:59Z</time>
					</trkpt>
					<trkpt lat="44.218350" lon="5.392990">
						<ele>864</ele>
						<time>2026-09-03T00:00:11Z</time>
					</trkpt>
					<trkpt lat="44.218470" lon="5.393000">
						<ele>865</ele>
						<time>2026-09-03T00:00:17Z</time>
					</trkpt>
					<trkpt lat="44.218530" lon="5.393050">
						<ele>867</ele>
						<time>2026-09-03T00:00:20Z</time>
					</trkpt>
					<trkpt lat="44.219310" lon="5.393280">
						<ele>877</ele>
						<time>2026-09-03T00:01:00Z</time>
					</trkpt>
					<trkpt lat="44.219490" lon="5.393370">
						<ele>878</ele>
						<time>2026-09-03T00:01:10Z</time>
					</trkpt>
					<trkpt lat="44.220610" lon="5.394240">
						<ele>893</ele>
						<time>2026-09-03T00:02:14Z</time>
					</trkpt>
					<trkpt lat="44.221320" lon="5.394760">
						<ele>904</ele>
						<time>2026-09-03T00:02:54Z</time>
					</trkpt>
					<trkpt lat="44.221470" lon="5.394850">
						<ele>906</ele>
						<time>2026-09-03T00:03:02Z</time>
					</trkpt>
					<trkpt lat="44.222040" lon="5.395100">
						<ele>915</ele>
						<time>2026-09-03T00:03:32Z</time>
					</trkpt>
					<trkpt lat="44.222250" lon="5.395150">
						<ele>919</ele>
						<time>2026-09-03T00:03:43Z</time>
					</trkpt>
					<trkpt lat="44.222320" lon="5.395210">
						<ele>921</ele>
						<time>2026-09-03T00:03:47Z</time>
					</trkpt>
					<trkpt lat="44.222620" lon="5.395230">
						<ele>926</ele>
						<time>2026-09-03T00:04:02Z</time>
					</trkpt>
					<trkpt lat="44.222710" lon="5.395290">
						<ele>928</ele>
						<time>2026-09-03T00:04:07Z</time>
					</trkpt>
					<trkpt lat="44.222990" lon="5.395250">
						<ele>932</ele>
						<time>2026-09-03T00:04:21Z</time>
					</trkpt>
					<trkpt lat="44.223190" lon="5.395320">
						<ele>935</ele>
						<time>2026-09-03T00:04:31Z</time>
					</trkpt>
					<trkpt lat="44.223470" lon="5.395260">
						<ele>940</ele>
						<time>2026-09-03T00:04:46Z</time>
					</trkpt>
					<trkpt lat="44.223690" lon="5.395130">
						<ele>943</ele>
						<time>2026-09-03T00:04:58Z</time>
					</trkpt>
					<trkpt lat="44.223800" lon="5.395150">
						<ele>946</ele>
						<time>2026-09-03T00:05:03Z</time>
					</trkpt>
					<trkpt lat="44.223880" lon="5.395220">
						<ele>947</ele>
						<time>2026-09-03T00:05:08Z</time>
					</trkpt>
					<trkpt lat="44.223910" lon="5.395410">
						<ele>949</ele>
						<time>2026-09-03T00:05:15Z</time>
					</trkpt>
					<trkpt lat="44.223940" lon="5.395460">
						<ele>949</ele>
						<time>2026-09-03T00:05:17Z</time>
					</trkpt>
					<trkpt lat="44.224090" lon="5.395500">
						<ele>952</ele>
						<time>2026-09-03T00:05:25Z</time>
					</trkpt>
					<trkpt lat="44.224700" lon="5.395800">
						<ele>961</ele>
						<time>2026-09-03T00:05:57Z</time>
					</trkpt>
					<trkpt lat="44.224900" lon="5.395840">
						<ele>964</ele>
						<time>2026-09-03T00:06:07Z</time>
					</trkpt>
					<trkpt lat="44.225090" lon="5.395960">
						<ele>969</ele>
						<time>2026-09-03T00:06:18Z</time>
					</trkpt>
					<trkpt lat="44.225590" lon="5.396590">
						<ele>979</ele>
						<time>2026-09-03T00:06:51Z</time>
					</trkpt>
					<trkpt lat="44.225970" lon="5.396930">
						<ele>986</ele>
						<time>2026-09-03T00:07:14Z</time>
					</trkpt>
					<trkpt lat="44.226030" lon="5.396960">
						<ele>988</ele>
						<time>2026-09-03T00:07:17Z</time>
					</trkpt>
					<trkpt lat="44.226170" lon="5.397120">
						<ele>990</ele>
						<time>2026-09-03T00:07:26Z</time>
					</trkpt>
					<trkpt lat="44.226280" lon="5.397180">
						<ele>991</ele>
						<time>2026-09-03T00:07:32Z</time>
					</trkpt>
					<trkpt lat="44.226380" lon="5.397190">
						<ele>992</ele>
						<time>2026-09-03T00:07:37Z</time>
					</trkpt>
					<trkpt lat="44.226430" lon="5.397260">
						<ele>992</ele>
						<time>2026-09-03T00:07:41Z</time>
					</trkpt>
					<trkpt lat="44.226600" lon="5.397390">
						<ele>992</ele>
						<time>2026-09-03T00:07:50Z</time>
					</trkpt>
					<trkpt lat="44.226800" lon="5.397640">
						<ele>996</ele>
						<time>2026-09-03T00:08:04Z</time>
					</trkpt>
					<trkpt lat="44.226990" lon="5.397800">
						<ele>1000</ele>
						<time>2026-09-03T00:08:15Z</time>
					</trkpt>
					<trkpt lat="44.227110" lon="5.397980">
						<ele>1002</ele>
						<time>2026-09-03T00:08:24Z</time>
					</trkpt>
					<trkpt lat="44.227370" lon="5.398460">
						<ele>1003</ele>
						<time>2026-09-03T00:08:45Z</time>
					</trkpt>
					<trkpt lat="44.227440" lon="5.398530">
						<ele>1003</ele>
						<time>2026-09-03T00:08:50Z</time>
					</trkpt>
					<trkpt lat="44.227500" lon="5.398640">
						<ele>1003</ele>
						<time>2026-09-03T00:08:55Z</time>
					</trkpt>
					<trkpt lat="44.227570" lon="5.398900">
						<ele>1004</ele>
						<time>2026-09-03T00:09:05Z</time>
					</trkpt>
					<trkpt lat="44.227650" lon="5.399030">
						<ele>1003</ele>
						<time>2026-09-03T00:09:11Z</time>
					</trkpt>
					<trkpt lat="44.227800" lon="5.399060">
						<ele>1001</ele>
						<time>2026-09-03T00:09:18Z</time>
					</trkpt>
					<trkpt lat="44.228010" lon="5.399020">
						<ele>1000</ele>
						<time>2026-09-03T00:09:29Z</time>
					</trkpt>
					<trkpt lat="44.228260" lon="5.398820">
						<ele>1001</ele>
						<time>2026-09-03T00:09:43Z</time>
					</trkpt>
					<trkpt lat="44.228880" lon="5.398520">
						<ele>995</ele>
						<time>2026-09-03T00:10:16Z</time>
					</trkpt>
					<trkpt lat="44.229300" lon="5.398390">
						<ele>990</ele>
						<time>2026-09-03T00:10:38Z</time>
					</trkpt>
					<trkpt lat="44.229870" lon="5.398140">
						<ele>983</ele>
						<time>2026-09-03T00:11:08Z</time>
					</trkpt>
					<trkpt lat="44.230000" lon="5.398030">
						<ele>983</ele>
						<time>2026-09-03T00:11:15Z</time>
					</trkpt>
					<trkpt lat="44.230480" lon="5.397500">
						<ele>986</ele>
						<time>2026-09-03T00:11:46Z</time>
					</trkpt>
					<trkpt lat="44.230790" lon="5.397340">
						<ele>984</ele>
						<time>2026-09-03T00:12:02Z</time>
					</trkpt>
					<trkpt lat="44.231380" lon="5.397090">
						<ele>978</ele>
						<time>2026-09-03T00:12:33Z</time>
					</trkpt>
					<trkpt lat="44.231810" lon="5.396550">
						<ele>978</ele>
						<time>2026-09-03T00:13:02Z</time>
					</trkpt>
					<trkpt lat="44.231950" lon="5.396440">
						<ele>978</ele>
						<time>2026-09-03T00:13:10Z</time>
					</trkpt>
					<trkpt lat="44.232190" lon="5.396350">
						<ele>975</ele>
						<time>2026-09-03T00:13:23Z</time>
					</trkpt>
					<trkpt lat="44.232330" lon="5.396260">
						<ele>974</ele>
						<time>2026-09-03T00:13:30Z</time>
					</trkpt>
					<trkpt lat="44.232800" lon="5.395810">
						<ele>972</ele>
						<time>2026-09-03T00:13:59Z</time>
					</trkpt>
					<trkpt lat="44.232890" lon="5.395760">
						<ele>970</ele>
						<time>2026-09-03T00:14:04Z</time>
					</trkpt>
					<trkpt lat="44.233010" lon="5.395610">
						<ele>971</ele>
						<time>2026-09-03T00:14:12Z</time>
					</trkpt>
					<trkpt lat="44.233350" lon="5.395350">
						<ele>968</ele>
						<time>2026-09-03T00:14:31Z</time>
					</trkpt>
					<trkpt lat="44.233550" lon="5.395040">
						<ele>969</ele>
						<time>2026-09-03T00:14:46Z</time>
					</trkpt>
					<trkpt lat="44.233770" lon="5.394870">
						<ele>966</ele>
						<time>2026-09-03T00:14:59Z</time>
					</trkpt>
					<trkpt lat="44.233960" lon="5.394520">
						<ele>968</ele>
						<time>2026-09-03T00:15:15Z</time>
					</trkpt>
					<trkpt lat="44.234350" lon="5.394060">
						<ele>967</ele>
						<time>2026-09-03T00:15:40Z</time>
					</trkpt>
					<trkpt lat="44.234640" lon="5.393910">
						<ele>964</ele>
						<time>2026-09-03T00:15:56Z</time>
					</trkpt>
					<trkpt lat="44.234840" lon="5.393770">
						<ele>962</ele>
						<time>2026-09-03T00:16:07Z</time>
					</trkpt>
					<trkpt lat="44.234930" lon="5.393580">
						<ele>964</ele>
						<time>2026-09-03T00:16:15Z</time>
					</trkpt>
					<trkpt lat="44.235240" lon="5.393300">
						<ele>965</ele>
						<time>2026-09-03T00:16:33Z</time>
					</trkpt>
					<trkpt lat="44.235340" lon="5.393270">
						<ele>964</ele>
						<time>2026-09-03T00:16:39Z</time>
					</trkpt>
					<trkpt lat="44.235540" lon="5.393150">
						<ele>963</ele>
						<time>2026-09-03T00:16:49Z</time>
					</trkpt>
					<trkpt lat="44.235680" lon="5.392970">
						<ele>962</ele>
						<time>2026-09-03T00:16:59Z</time>
					</trkpt>
					<trkpt lat="44.235760" lon="5.392920">
						<ele>961</ele>
						<time>2026-09-03T00:17:03Z</time>
					</trkpt>
					<trkpt lat="44.235890" lon="5.392650">
						<ele>962</ele>
						<time>2026-09-03T00:17:15Z</time>
					</trkpt>
					<trkpt lat="44.235950" lon="5.392580">
						<ele>961</ele>
						<time>2026-09-03T00:17:19Z</time>
					</trkpt>
					<trkpt lat="44.236230" lon="5.392420">
						<ele>958</ele>
						<time>2026-09-03T00:17:34Z</time>
					</trkpt>
					<trkpt lat="44.236600" lon="5.392110">
						<ele>951</ele>
						<time>2026-09-03T00:17:56Z</time>
					</trkpt>
					<trkpt lat="44.236830" lon="5.391840">
						<ele>948</ele>
						<time>2026-09-03T00:18:11Z</time>
					</trkpt>
					<trkpt lat="44.237350" lon="5.391580">
						<ele>938</ele>
						<time>2026-09-03T00:18:38Z</time>
					</trkpt>
					<trkpt lat="44.237650" lon="5.391270">
						<ele>935</ele>
						<time>2026-09-03T00:18:57Z</time>
					</trkpt>
					<trkpt lat="44.237870" lon="5.390900">
						<ele>932</ele>
						<time>2026-09-03T00:19:14Z</time>
					</trkpt>
					<trkpt lat="44.238000" lon="5.390770">
						<ele>930</ele>
						<time>2026-09-03T00:19:22Z</time>
					</trkpt>
					<trkpt lat="44.238210" lon="5.390400">
						<ele>929</ele>
						<time>2026-09-03T00:19:39Z</time>
					</trkpt>
					<trkpt lat="44.238300" lon="5.390310">
						<ele>927</ele>
						<time>2026-09-03T00:19:45Z</time>
					</trkpt>
					<trkpt lat="44.238720" lon="5.390150">
						<ele>921</ele>
						<time>2026-09-03T00:20:06Z</time>
					</trkpt>
					<trkpt lat="44.238790" lon="5.390040">
						<ele>920</ele>
						<time>2026-09-03T00:20:12Z</time>
					</trkpt>
					<trkpt lat="44.238920" lon="5.389640">
						<ele>920</ele>
						<time>2026-09-03T00:20:28Z</time>
					</trkpt>
					<trkpt lat="44.239000" lon="5.389480">
						<ele>919</ele>
						<time>2026-09-03T00:20:35Z</time>
					</trkpt>
					<trkpt lat="44.239200" lon="5.389340">
						<ele>914</ele>
						<time>2026-09-03T00:20:46Z</time>
					</trkpt>
					<trkpt lat="44.239340" lon="5.389320">
						<ele>913</ele>
						<time>2026-09-03T00:20:53Z</time>
					</trkpt>
					<trkpt lat="44.239500" lon="5.389110">
						<ele>911</ele>
						<time>2026-09-03T00:21:04Z</time>
					</trkpt>
					<trkpt lat="44.239530" lon="5.389100">
						<ele>911</ele>
						<time>2026-09-03T00:21:05Z</time>
					</trkpt>
					<trkpt lat="44.239580" lon="5.389220">
						<ele>910</ele>
						<time>2026-09-03T00:21:10Z</time>
					</trkpt>
					<trkpt lat="44.239560" lon="5.389270">
						<ele>911</ele>
						<time>2026-09-03T00:21:12Z</time>
					</trkpt>
					<trkpt lat="44.239590" lon="5.389550">
						<ele>912</ele>
						<time>2026-09-03T00:21:22Z</time>
					</trkpt>
					<trkpt lat="44.239600" lon="5.389630">
						<ele>912</ele>
						<time>2026-09-03T00:21:25Z</time>
					</trkpt>
					<trkpt lat="44.239640" lon="5.389700">
						<ele>912</ele>
						<time>2026-09-03T00:21:29Z</time>
					</trkpt>
					<trkpt lat="44.239770" lon="5.389830">
						<ele>912</ele>
						<time>2026-09-03T00:21:37Z</time>
					</trkpt>
					<trkpt lat="44.239870" lon="5.389980">
						<ele>913</ele>
						<time>2026-09-03T00:21:44Z</time>
					</trkpt>
					<trkpt lat="44.240090" lon="5.390170">
						<ele>916</ele>
						<time>2026-09-03T00:21:57Z</time>
					</trkpt>
					<trkpt lat="44.240370" lon="5.390530">
						<ele>923</ele>
						<time>2026-09-03T00:22:16Z</time>
					</trkpt>
					<trkpt lat="44.240470" lon="5.390600">
						<ele>925</ele>
						<time>2026-09-03T00:22:22Z</time>
					</trkpt>
					<trkpt lat="44.240630" lon="5.390570">
						<ele>928</ele>
						<time>2026-09-03T00:22:30Z</time>
					</trkpt>
					<trkpt lat="44.240680" lon="5.390510">
						<ele>929</ele>
						<time>2026-09-03T00:22:33Z</time>
					</trkpt>
					<trkpt lat="44.240850" lon="5.390510">
						<ele>933</ele>
						<time>2026-09-03T00:22:41Z</time>
					</trkpt>
					<trkpt lat="44.241030" lon="5.390420">
						<ele>934</ele>
						<time>2026-09-03T00:22:51Z</time>
					</trkpt>
					<trkpt lat="44.241080" lon="5.390420">
						<ele>934</ele>
						<time>2026-09-03T00:22:53Z</time>
					</trkpt>
					<trkpt lat="44.241160" lon="5.390490">
						<ele>935</ele>
						<time>2026-09-03T00:22:58Z</time>
					</trkpt>
					<trkpt lat="44.241380" lon="5.390950">
						<ele>948</ele>
						<time>2026-09-03T00:23:18Z</time>
					</trkpt>
					<trkpt lat="44.241480" lon="5.390980">
						<ele>951</ele>
						<time>2026-09-03T00:23:23Z</time>
					</trkpt>
					<trkpt lat="44.241640" lon="5.391080">
						<ele>958</ele>
						<time>2026-09-03T00:23:32Z</time>
					</trkpt>
					<trkpt lat="44.241850" lon="5.391110">
						<ele>960</ele>
						<time>2026-09-03T00:23:42Z</time>
					</trkpt>
					<trkpt lat="44.242210" lon="5.391100">
						<ele>959</ele>
						<time>2026-09-03T00:24:01Z</time>
					</trkpt>
					<trkpt lat="44.242330" lon="5.391160">
						<ele>961</ele>
						<time>2026-09-03T00:24:07Z</time>
					</trkpt>
					<trkpt lat="44.242550" lon="5.391480">
						<ele>972</ele>
						<time>2026-09-03T00:24:23Z</time>
					</trkpt>
					<trkpt lat="44.242600" lon="5.391650">
						<ele>977</ele>
						<time>2026-09-03T00:24:29Z</time>
					</trkpt>
					<trkpt lat="44.242980" lon="5.392220">
						<ele>980</ele>
						<time>2026-09-03T00:24:57Z</time>
					</trkpt>
					<trkpt lat="44.243030" lon="5.392360">
						<ele>982</ele>
						<time>2026-09-03T00:25:03Z</time>
					</trkpt>
					<trkpt lat="44.243290" lon="5.392760">
						<ele>985</ele>
						<time>2026-09-03T00:25:22Z</time>
					</trkpt>
					<trkpt lat="44.243410" lon="5.392810">
						<ele>983</ele>
						<time>2026-09-03T00:25:29Z</time>
					</trkpt>
					<trkpt lat="44.243540" lon="5.392820">
						<ele>981</ele>
						<time>2026-09-03T00:25:35Z</time>
					</trkpt>
					<trkpt lat="44.243780" lon="5.392940">
						<ele>980</ele>
						<time>2026-09-03T00:25:48Z</time>
					</trkpt>
					<trkpt lat="44.243860" lon="5.393050">
						<ele>983</ele>
						<time>2026-09-03T00:25:53Z</time>
					</trkpt>
					<trkpt lat="44.243940" lon="5.393470">
						<ele>996</ele>
						<time>2026-09-03T00:26:09Z</time>
					</trkpt>
					<trkpt lat="44.244020" lon="5.393540">
						<ele>996</ele>
						<time>2026-09-03T00:26:14Z</time>
					</trkpt>
					<trkpt lat="44.244090" lon="5.393820">
						<ele>1004</ele>
						<time>2026-09-03T00:26:24Z</time>
					</trkpt>
					<trkpt lat="44.244210" lon="5.393800">
						<ele>1002</ele>
						<time>2026-09-03T00:26:30Z</time>
					</trkpt>
					<trkpt lat="44.244270" lon="5.393760">
						<ele>1002</ele>
						<time>2026-09-03T00:26:34Z</time>
					</trkpt>
					<trkpt lat="44.244330" lon="5.393630">
						<ele>999</ele>
						<time>2026-09-03T00:26:39Z</time>
					</trkpt>
					<trkpt lat="44.244570" lon="5.393600">
						<ele>1002</ele>
						<time>2026-09-03T00:26:51Z</time>
					</trkpt>
					<trkpt lat="44.244640" lon="5.393490">
						<ele>999</ele>
						<time>2026-09-03T00:26:57Z</time>
					</trkpt>
					<trkpt lat="44.244840" lon="5.393370">
						<ele>999</ele>
						<time>2026-09-03T00:27:08Z</time>
					</trkpt>
					<trkpt lat="44.245500" lon="5.392390">
						<ele>984</ele>
						<time>2026-09-03T00:27:56Z</time>
					</trkpt>
					<trkpt lat="44.245690" lon="5.392210">
						<ele>986</ele>
						<time>2026-09-03T00:28:07Z</time>
					</trkpt>
					<trkpt lat="44.245840" lon="5.392160">
						<ele>992</ele>
						<time>2026-09-03T00:28:15Z</time>
					</trkpt>
					<trkpt lat="44.245910" lon="5.392190">
						<ele>991</ele>
						<time>2026-09-03T00:28:19Z</time>
					</trkpt>
					<trkpt lat="44.245940" lon="5.392230">
						<ele>992</ele>
						<time>2026-09-03T00:28:21Z</time>
					</trkpt>
					<trkpt lat="44.246220" lon="5.392990">
						<ele>1000</ele>
						<time>2026-09-03T00:28:51Z</time>
					</trkpt>
					<trkpt lat="44.246540" lon="5.393710">
						<ele>1000</ele>
						<time>2026-09-03T00:29:22Z</time>
					</trkpt>
					<trkpt lat="44.246670" lon="5.394060">
						<ele>1001</ele>
						<time>2026-09-03T00:29:36Z</time>
					</trkpt>
					<trkpt lat="44.246780" lon="5.394040">
						<ele>1000</ele>
						<time>2026-09-03T00:29:41Z</time>
					</trkpt>
					<trkpt lat="44.246890" lon="5.394090">
						<ele>1001</ele>
						<time>2026-09-03T00:29:47Z</time>
					</trkpt>
					<trkpt lat="44.246950" lon="5.394050">
						<ele>1000</ele>
						<time>2026-09-03T00:29:50Z</time>
					</trkpt>
					<trkpt lat="44.247180" lon="5.393700">
						<ele>991</ele>
						<time>2026-09-03T00:30:08Z</time>
					</trkpt>
					<trkpt lat="44.247550" lon="5.393500">
						<ele>985</ele>
						<time>2026-09-03T00:30:27Z</time>
					</trkpt>
					<trkpt lat="44.247780" lon="5.393250">
						<ele>979</ele>
						<time>2026-09-03T00:30:42Z</time>
					</trkpt>
					<trkpt lat="44.247950" lon="5.392970">
						<ele>974</ele>
						<time>2026-09-03T00:30:55Z</time>
					</trkpt>
					<trkpt lat="44.248040" lon="5.392910">
						<ele>973</ele>
						<time>2026-09-03T00:31:00Z</time>
					</trkpt>
					<trkpt lat="44.248120" lon="5.392930">
						<ele>973</ele>
						<time>2026-09-03T00:31:04Z</time>
					</trkpt>
					<trkpt lat="44.248330" lon="5.393360">
						<ele>980</ele>
						<time>2026-09-03T00:31:23Z</time>
					</trkpt>
					<trkpt lat="44.248370" lon="5.393400">
						<ele>980</ele>
						<time>2026-09-03T00:31:25Z</time>
					</trkpt>
					<trkpt lat="44.248560" lon="5.393410">
						<ele>976</ele>
						<time>2026-09-03T00:31:35Z</time>
					</trkpt>
					<trkpt lat="44.248610" lon="5.393450">
						<ele>975</ele>
						<time>2026-09-03T00:31:38Z</time>
					</trkpt>
					<trkpt lat="44.248610" lon="5.393510">
						<ele>975</ele>
						<time>2026-09-03T00:31:40Z</time>
					</trkpt>
					<trkpt lat="44.248530" lon="5.393660">
						<ele>978</ele>
						<time>2026-09-03T00:31:47Z</time>
					</trkpt>
					<trkpt lat="44.248330" lon="5.394200">
						<ele>985</ele>
						<time>2026-09-03T00:32:08Z</time>
					</trkpt>
					<trkpt lat="44.248340" lon="5.394530">
						<ele>983</ele>
						<time>2026-09-03T00:32:20Z</time>
					</trkpt>
					<trkpt lat="44.248280" lon="5.395150">
						<ele>981</ele>
						<time>2026-09-03T00:32:43Z</time>
					</trkpt>
					<trkpt lat="44.248310" lon="5.395430">
						<ele>978</ele>
						<time>2026-09-03T00:32:53Z</time>
					</trkpt>
					<trkpt lat="44.248390" lon="5.395740">
						<ele>973</ele>
						<time>2026-09-03T00:33:05Z</time>
					</trkpt>
					<trkpt lat="44.248350" lon="5.395840">
						<ele>973</ele>
						<time>2026-09-03T00:33:09Z</time>
					</trkpt>
					<trkpt lat="44.248240" lon="5.395960">
						<ele>977</ele>
						<time>2026-09-03T00:33:16Z</time>
					</trkpt>
					<trkpt lat="44.248210" lon="5.396040">
						<ele>978</ele>
						<time>2026-09-03T00:33:19Z</time>
					</trkpt>
					<trkpt lat="44.248370" lon="5.396210">
						<ele>971</ele>
						<time>2026-09-03T00:33:29Z</time>
					</trkpt>
					<trkpt lat="44.248400" lon="5.396300">
						<ele>970</ele>
						<time>2026-09-03T00:33:33Z</time>
					</trkpt>
					<trkpt lat="44.248390" lon="5.396810">
						<ele>966</ele>
						<time>2026-09-03T00:33:51Z</time>
					</trkpt>
					<trkpt lat="44.248100" lon="5.398060">
						<ele>967</ele>
						<time>2026-09-03T00:34:38Z</time>
					</trkpt>
					<trkpt lat="44.247980" lon="5.398830">
						<ele>963</ele>
						<time>2026-09-03T00:35:06Z</time>
					</trkpt>
					<trkpt lat="44.247920" lon="5.399050">
						<ele>962</ele>
						<time>2026-09-03T00:35:15Z</time>
					</trkpt>
					<trkpt lat="44.247840" lon="5.399200">
						<ele>963</ele>
						<time>2026-09-03T00:35:21Z</time>
					</trkpt>
					<trkpt lat="44.247730" lon="5.399620">
						<ele>962</ele>
						<time>2026-09-03T00:35:37Z</time>
					</trkpt>
					<trkpt lat="44.247600" lon="5.399800">
						<ele>962</ele>
						<time>2026-09-03T00:35:46Z</time>
					</trkpt>
					<trkpt lat="44.247440" lon="5.400120">
						<ele>963</ele>
						<time>2026-09-03T00:36:00Z</time>
					</trkpt>
					<trkpt lat="44.247380" lon="5.400340">
						<ele>966</ele>
						<time>2026-09-03T00:36:09Z</time>
					</trkpt>
					<trkpt lat="44.247410" lon="5.400380">
						<ele>965</ele>
						<time>2026-09-03T00:36:11Z</time>
					</trkpt>
					<trkpt lat="44.247470" lon="5.400380">
						<ele>963</ele>
						<time>2026-09-03T00:36:14Z</time>
					</trkpt>
					<trkpt lat="44.247620" lon="5.400270">
						<ele>962</ele>
						<time>2026-09-03T00:36:22Z</time>
					</trkpt>
					<trkpt lat="44.247720" lon="5.400250">
						<ele>962</ele>
						<time>2026-09-03T00:36:28Z</time>
					</trkpt>
					<trkpt lat="44.247890" lon="5.400350">
						<ele>964</ele>
						<time>2026-09-03T00:36:37Z</time>
					</trkpt>
					<trkpt lat="44.247990" lon="5.400300">
						<ele>963</ele>
						<time>2026-09-03T00:36:42Z</time>
					</trkpt>
					<trkpt lat="44.248030" lon="5.400240">
						<ele>963</ele>
						<time>2026-09-03T00:36:45Z</time>
					</trkpt>
					<trkpt lat="44.248530" lon="5.400030">
						<ele>965</ele>
						<time>2026-09-03T00:37:11Z</time>
					</trkpt>
					<trkpt lat="44.248610" lon="5.399950">
						<ele>966</ele>
						<time>2026-09-03T00:37:16Z</time>
					</trkpt>
					<trkpt lat="44.248730" lon="5.399800">
						<ele>967</ele>
						<time>2026-09-03T00:37:24Z</time>
					</trkpt>
					<trkpt lat="44.248950" lon="5.399400">
						<ele>966</ele>
						<time>2026-09-03T00:37:42Z</time>
					</trkpt>
					<trkpt lat="44.249060" lon="5.399150">
						<ele>963</ele>
						<time>2026-09-03T00:37:53Z</time>
					</trkpt>
					<trkpt lat="44.249210" lon="5.398610">
						<ele>954</ele>
						<time>2026-09-03T00:38:13Z</time>
					</trkpt>
					<trkpt lat="44.249600" lon="5.397920">
						<ele>951</ele>
						<time>2026-09-03T00:38:45Z</time>
					</trkpt>
					<trkpt lat="44.249670" lon="5.397870">
						<ele>952</ele>
						<time>2026-09-03T00:38:49Z</time>
					</trkpt>
					<trkpt lat="44.249880" lon="5.397890">
						<ele>958</ele>
						<time>2026-09-03T00:38:59Z</time>
					</trkpt>
					<trkpt lat="44.249920" lon="5.397860">
						<ele>958</ele>
						<time>2026-09-03T00:39:02Z</time>
					</trkpt>
					<trkpt lat="44.249970" lon="5.397420">
						<ele>951</ele>
						<time>2026-09-03T00:39:18Z</time>
					</trkpt>
					<trkpt lat="44.250120" lon="5.397130">
						<ele>952</ele>
						<time>2026-09-03T00:39:31Z</time>
					</trkpt>
					<trkpt lat="44.250220" lon="5.396990">
						<ele>953</ele>
						<time>2026-09-03T00:39:38Z</time>
					</trkpt>
					<trkpt lat="44.250350" lon="5.396870">
						<ele>955</ele>
						<time>2026-09-03T00:39:45Z</time>
					</trkpt>
					<trkpt lat="44.250480" lon="5.396800">
						<ele>957</ele>
						<time>2026-09-03T00:39:52Z</time>
					</trkpt>
					<trkpt lat="44.250600" lon="5.396680">
						<ele>958</ele>
						<time>2026-09-03T00:40:00Z</time>
					</trkpt>
					<trkpt lat="44.250870" lon="5.396240">
						<ele>958</ele>
						<time>2026-09-03T00:40:21Z</time>
					</trkpt>
					<trkpt lat="44.251190" lon="5.396170">
						<ele>963</ele>
						<time>2026-09-03T00:40:37Z</time>
					</trkpt>
					<trkpt lat="44.251300" lon="5.396110">
						<ele>964</ele>
						<time>2026-09-03T00:40:43Z</time>
					</trkpt>
					<trkpt lat="44.251400" lon="5.396000">
						<ele>964</ele>
						<time>2026-09-03T00:40:49Z</time>
					</trkpt>
					<trkpt lat="44.251590" lon="5.395690">
						<ele>964</ele>
						<time>2026-09-03T00:41:04Z</time>
					</trkpt>
					<trkpt lat="44.251820" lon="5.395450">
						<ele>968</ele>
						<time>2026-09-03T00:41:18Z</time>
					</trkpt>
					<trkpt lat="44.251900" lon="5.395560">
						<ele>972</ele>
						<time>2026-09-03T00:41:24Z</time>
					</trkpt>
					<trkpt lat="44.252140" lon="5.395590">
						<ele>979</ele>
						<time>2026-09-03T00:41:36Z</time>
					</trkpt>
					<trkpt lat="44.252310" lon="5.395580">
						<ele>984</ele>
						<time>2026-09-03T00:41:44Z</time>
					</trkpt>
					<trkpt lat="44.252360" lon="5.395760">
						<ele>988</ele>
						<time>2026-09-03T00:41:51Z</time>
					</trkpt>
					<trkpt lat="44.252360" lon="5.395880">
						<ele>990</ele>
						<time>2026-09-03T00:41:55Z</time>
					</trkpt>
					<trkpt lat="44.252310" lon="5.396130">
						<ele>995</ele>
						<time>2026-09-03T00:42:05Z</time>
					</trkpt>
					<trkpt lat="44.252320" lon="5.396150">
						<ele>996</ele>
						<time>2026-09-03T00:42:06Z</time>
					</trkpt>
					<trkpt lat="44.252420" lon="5.396150">
						<ele>999</ele>
						<time>2026-09-03T00:42:11Z</time>
					</trkpt>
					<trkpt lat="44.252570" lon="5.395800">
						<ele>996</ele>
						<time>2026-09-03T00:42:25Z</time>
					</trkpt>
					<trkpt lat="44.252740" lon="5.395670">
						<ele>1002</ele>
						<time>2026-09-03T00:42:35Z</time>
					</trkpt>
					<trkpt lat="44.252860" lon="5.395520">
						<ele>1005</ele>
						<time>2026-09-03T00:42:43Z</time>
					</trkpt>
					<trkpt lat="44.252930" lon="5.395360">
						<ele>1005</ele>
						<time>2026-09-03T00:42:50Z</time>
					</trkpt>
					<trkpt lat="44.253120" lon="5.395160">
						<ele>1009</ele>
						<time>2026-09-03T00:43:02Z</time>
					</trkpt>
					<trkpt lat="44.253290" lon="5.394880">
						<ele>1010</ele>
						<time>2026-09-03T00:43:15Z</time>
					</trkpt>
					<trkpt lat="44.253400" lon="5.394830">
						<ele>1013</ele>
						<time>2026-09-03T00:43:21Z</time>
					</trkpt>
					<trkpt lat="44.253490" lon="5.394840">
						<ele>1015</ele>
						<time>2026-09-03T00:43:25Z</time>
					</trkpt>
					<trkpt lat="44.253650" lon="5.394800">
						<ele>1019</ele>
						<time>2026-09-03T00:43:33Z</time>
					</trkpt>
					<trkpt lat="44.253680" lon="5.394730">
						<ele>1020</ele>
						<time>2026-09-03T00:43:36Z</time>
					</trkpt>
					<trkpt lat="44.253690" lon="5.394390">
						<ele>1017</ele>
						<time>2026-09-03T00:43:48Z</time>
					</trkpt>
					<trkpt lat="44.253800" lon="5.394080">
						<ele>1017</ele>
						<time>2026-09-03T00:44:01Z</time>
					</trkpt>
					<trkpt lat="44.253830" lon="5.393920">
						<ele>1017</ele>
						<time>2026-09-03T00:44:07Z</time>
					</trkpt>
					<trkpt lat="44.253810" lon="5.393780">
						<ele>1014</ele>
						<time>2026-09-03T00:44:12Z</time>
					</trkpt>
					<trkpt lat="44.253910" lon="5.393480">
						<ele>1014</ele>
						<time>2026-09-03T00:44:24Z</time>
					</trkpt>
					<trkpt lat="44.254000" lon="5.393390">
						<ele>1017</ele>
						<time>2026-09-03T00:44:29Z</time>
					</trkpt>
					<trkpt lat="44.254120" lon="5.393330">
						<ele>1020</ele>
						<time>2026-09-03T00:44:36Z</time>
					</trkpt>
					<trkpt lat="44.254270" lon="5.393310">
						<ele>1025</ele>
						<time>2026-09-03T00:44:43Z</time>
					</trkpt>
					<trkpt lat="44.254370" lon="5.393330">
						<ele>1028</ele>
						<time>2026-09-03T00:44:48Z</time>
					</trkpt>
					<trkpt lat="44.254310" lon="5.393570">
						<ele>1029</ele>
						<time>2026-09-03T00:44:57Z</time>
					</trkpt>
					<trkpt lat="44.254280" lon="5.393830">
						<ele>1031</ele>
						<time>2026-09-03T00:45:07Z</time>
					</trkpt>
					<trkpt lat="44.254330" lon="5.394600">
						<ele>1038</ele>
						<time>2026-09-03T00:45:34Z</time>
					</trkpt>
					<trkpt lat="44.254450" lon="5.395330">
						<ele>1047</ele>
						<time>2026-09-03T00:46:01Z</time>
					</trkpt>
					<trkpt lat="44.254420" lon="5.395610">
						<ele>1049</ele>
						<time>2026-09-03T00:46:11Z</time>
					</trkpt>
					<trkpt lat="44.254370" lon="5.395750">
						<ele>1050</ele>
						<time>2026-09-03T00:46:17Z</time>
					</trkpt>
					<trkpt lat="44.254250" lon="5.395870">
						<ele>1049</ele>
						<time>2026-09-03T00:46:24Z</time>
					</trkpt>
					<trkpt lat="44.254120" lon="5.395910">
						<ele>1047</ele>
						<time>2026-09-03T00:46:31Z</time>
					</trkpt>
					<trkpt lat="44.253540" lon="5.395840">
						<ele>1036</ele>
						<time>2026-09-03T00:47:00Z</time>
					</trkpt>
					<trkpt lat="44.253420" lon="5.395840">
						<ele>1035</ele>
						<time>2026-09-03T00:47:06Z</time>
					</trkpt>
					<trkpt lat="44.253330" lon="5.395870">
						<ele>1034</ele>
						<time>2026-09-03T00:47:11Z</time>
					</trkpt>
					<trkpt lat="44.253190" lon="5.396070">
						<ele>1033</ele>
						<time>2026-09-03T00:47:21Z</time>
					</trkpt>
					<trkpt lat="44.253000" lon="5.396580">
						<ele>1039</ele>
						<time>2026-09-03T00:47:41Z</time>
					</trkpt>
					<trkpt lat="44.252710" lon="5.397090">
						<ele>1038</ele>
						<time>2026-09-03T00:48:05Z</time>
					</trkpt>
					<trkpt lat="44.252770" lon="5.397050">
						<ele>1040</ele>
						<time>2026-09-03T00:48:08Z</time>
					</trkpt>
					<trkpt lat="44.253180" lon="5.396560">
						<ele>1047</ele>
						<time>2026-09-03T00:48:35Z</time>
					</trkpt>
					<trkpt lat="44.253310" lon="5.396330">
						<ele>1047</ele>
						<time>2026-09-03T00:48:46Z</time>
					</trkpt>
					<trkpt lat="44.253370" lon="5.396280">
						<ele>1047</ele>
						<time>2026-09-03T00:48:49Z</time>
					</trkpt>
					<trkpt lat="44.253430" lon="5.396280">
						<ele>1048</ele>
						<time>2026-09-03T00:48:52Z</time>
					</trkpt>
					<trkpt lat="44.253540" lon="5.396380">
						<ele>1052</ele>
						<time>2026-09-03T00:48:59Z</time>
					</trkpt>
					<trkpt lat="44.253890" lon="5.396580">
						<ele>1063</ele>
						<time>2026-09-03T00:49:18Z</time>
					</trkpt>
					<trkpt lat="44.254000" lon="5.396740">
						<ele>1069</ele>
						<time>2026-09-03T00:49:26Z</time>
					</trkpt>
					<trkpt lat="44.254030" lon="5.396830">
						<ele>1071</ele>
						<time>2026-09-03T00:49:29Z</time>
					</trkpt>
					<trkpt lat="44.254210" lon="5.396980">
						<ele>1077</ele>
						<time>2026-09-03T00:49:40Z</time>
					</trkpt>
					<trkpt lat="44.254490" lon="5.397350">
						<ele>1084</ele>
						<time>2026-09-03T00:49:59Z</time>
					</trkpt>
					<trkpt lat="44.254750" lon="5.397840">
						<ele>1091</ele>
						<time>2026-09-03T00:50:21Z</time>
					</trkpt>
					<trkpt lat="44.254940" lon="5.397940">
						<ele>1093</ele>
						<time>2026-09-03T00:50:31Z</time>
					</trkpt>
					<trkpt lat="44.255080" lon="5.397940">
						<ele>1094</ele>
						<time>2026-09-03T00:50:38Z</time>
					</trkpt>
					<trkpt lat="44.255270" lon="5.397780">
						<ele>1094</ele>
						<time>2026-09-03T00:50:49Z</time>
					</trkpt>
					<trkpt lat="44.255330" lon="5.397680">
						<ele>1094</ele>
						<time>2026-09-03T00:50:54Z</time>
					</trkpt>
					<trkpt lat="44.255680" lon="5.397940">
						<ele>1103</ele>
						<time>2026-09-03T00:51:14Z</time>
					</trkpt>
					<trkpt lat="44.255780" lon="5.398140">
						<ele>1108</ele>
						<time>2026-09-03T00:51:22Z</time>
					</trkpt>
					<trkpt lat="44.255790" lon="5.398360">
						<ele>1112</ele>
						<time>2026-09-03T00:51:30Z</time>
					</trkpt>
					<trkpt lat="44.255810" lon="5.398380">
						<ele>1113</ele>
						<time>2026-09-03T00:51:31Z</time>
					</trkpt>
					<trkpt lat="44.255840" lon="5.398390">
						<ele>1113</ele>
						<time>2026-09-03T00:51:33Z</time>
					</trkpt>
					<trkpt lat="44.255870" lon="5.398310">
						<ele>1112</ele>
						<time>2026-09-03T00:51:36Z</time>
					</trkpt>
					<trkpt lat="44.255950" lon="5.398310">
						<ele>1114</ele>
						<time>2026-09-03T00:51:40Z</time>
					</trkpt>
					<trkpt lat="44.256230" lon="5.398660">
						<ele>1126</ele>
						<time>2026-09-03T00:51:59Z</time>
					</trkpt>
					<trkpt lat="44.256560" lon="5.398620">
						<ele>1132</ele>
						<time>2026-09-03T00:52:16Z</time>
					</trkpt>
					<trkpt lat="44.257050" lon="5.398250">
						<ele>1138</ele>
						<time>2026-09-03T00:52:43Z</time>
					</trkpt>
					<trkpt lat="44.257130" lon="5.398230">
						<ele>1140</ele>
						<time>2026-09-03T00:52:48Z</time>
					</trkpt>
					<trkpt lat="44.257520" lon="5.398300">
						<ele>1151</ele>
						<time>2026-09-03T00:53:07Z</time>
					</trkpt>
					<trkpt lat="44.258180" lon="5.397790">
						<ele>1168</ele>
						<time>2026-09-03T00:53:45Z</time>
					</trkpt>
					<trkpt lat="44.258330" lon="5.397670">
						<ele>1171</ele>
						<time>2026-09-03T00:53:54Z</time>
					</trkpt>
					<trkpt lat="44.258660" lon="5.397240">
						<ele>1175</ele>
						<time>2026-09-03T00:54:16Z</time>
					</trkpt>
					<trkpt lat="44.258970" lon="5.396680">
						<ele>1175</ele>
						<time>2026-09-03T00:54:42Z</time>
					</trkpt>
					<trkpt lat="44.259110" lon="5.396540">
						<ele>1177</ele>
						<time>2026-09-03T00:54:50Z</time>
					</trkpt>
					<trkpt lat="44.259300" lon="5.396420">
						<ele>1182</ele>
						<time>2026-09-03T00:55:01Z</time>
					</trkpt>
					<trkpt lat="44.259700" lon="5.396010">
						<ele>1188</ele>
						<time>2026-09-03T00:55:25Z</time>
					</trkpt>
					<trkpt lat="44.259850" lon="5.395920">
						<ele>1193</ele>
						<time>2026-09-03T00:55:34Z</time>
					</trkpt>
					<trkpt lat="44.259990" lon="5.395890">
						<ele>1199</ele>
						<time>2026-09-03T00:55:41Z</time>
					</trkpt>
					<trkpt lat="44.259980" lon="5.396140">
						<ele>1203</ele>
						<time>2026-09-03T00:55:50Z</time>
					</trkpt>
					<trkpt lat="44.260010" lon="5.396170">
						<ele>1204</ele>
						<time>2026-09-03T00:55:52Z</time>
					</trkpt>
					<trkpt lat="44.260010" lon="5.396230">
						<ele>1205</ele>
						<time>2026-09-03T00:55:54Z</time>
					</trkpt>
					<trkpt lat="44.259950" lon="5.396570">
						<ele>1209</ele>
						<time>2026-09-03T00:56:06Z</time>
					</trkpt>
					<trkpt lat="44.259990" lon="5.397150">
						<ele>1220</ele>
						<time>2026-09-03T00:56:27Z</time>
					</trkpt>
					<trkpt lat="44.260070" lon="5.397520">
						<ele>1226</ele>
						<time>2026-09-03T00:56:41Z</time>
					</trkpt>
					<trkpt lat="44.260210" lon="5.397700">
						<ele>1224</ele>
						<time>2026-09-03T00:56:51Z</time>
					</trkpt>
					<trkpt lat="44.260410" lon="5.398280">
						<ele>1216</ele>
						<time>2026-09-03T00:57:14Z</time>
					</trkpt>
					<trkpt lat="44.260550" lon="5.398800">
						<ele>1205</ele>
						<time>2026-09-03T00:57:33Z</time>
					</trkpt>
					<trkpt lat="44.260580" lon="5.399080">
						<ele>1199</ele>
						<time>2026-09-03T00:57:44Z</time>
					</trkpt>
					<trkpt lat="44.260540" lon="5.399560">
						<ele>1194</ele>
						<time>2026-09-03T00:58:01Z</time>
					</trkpt>
					<trkpt lat="44.260820" lon="5.401210">
						<ele>1160</ele>
						<time>2026-09-03T00:59:02Z</time>
					</trkpt>
					<trkpt lat="44.260820" lon="5.401770">
						<ele>1151</ele>
						<time>2026-09-03T00:59:22Z</time>
					</trkpt>
					<trkpt lat="44.260920" lon="5.402270">
						<ele>1144</ele>
						<time>2026-09-03T00:59:40Z</time>
					</trkpt>
					<trkpt lat="44.261020" lon="5.402620">
						<ele>1138</ele>
						<time>2026-09-03T00:59:54Z</time>
					</trkpt>
					<trkpt lat="44.261060" lon="5.402650">
						<ele>1137</ele>
						<time>2026-09-03T00:59:56Z</time>
					</trkpt>
					<trkpt lat="44.261160" lon="5.402830">
						<ele>1133</ele>
						<time>2026-09-03T01:00:04Z</time>
					</trkpt>
					<trkpt lat="44.261350" lon="5.402940">
						<ele>1129</ele>
						<time>2026-09-03T01:00:15Z</time>
					</trkpt>
					<trkpt lat="44.261420" lon="5.403050">
						<ele>1127</ele>
						<time>2026-09-03T01:00:20Z</time>
					</trkpt>
					<trkpt lat="44.261460" lon="5.403300">
						<ele>1124</ele>
						<time>2026-09-03T01:00:29Z</time>
					</trkpt>
					<trkpt lat="44.261520" lon="5.403380">
						<ele>1122</ele>
						<time>2026-09-03T01:00:33Z</time>
					</trkpt>
					<trkpt lat="44.261710" lon="5.403520">
						<ele>1118</ele>
						<time>2026-09-03T01:00:44Z</time>
					</trkpt>
					<trkpt lat="44.261820" lon="5.403550">
						<ele>1116</ele>
						<time>2026-09-03T01:00:50Z</time>
					</trkpt>
					<trkpt lat="44.262000" lon="5.403540">
						<ele>1113</ele>
						<time>2026-09-03T01:00:59Z</time>
					</trkpt>
					<trkpt lat="44.262310" lon="5.403470">
						<ele>1109</ele>
						<time>2026-09-03T01:01:14Z</time>
					</trkpt>
					<trkpt lat="44.262390" lon="5.403500">
						<ele>1107</ele>
						<time>2026-09-03T01:01:18Z</time>
					</trkpt>
					<trkpt lat="44.262630" lon="5.403770">
						<ele>1097</ele>
						<time>2026-09-03T01:01:34Z</time>
					</trkpt>
					<trkpt lat="44.262740" lon="5.403820">
						<ele>1093</ele>
						<time>2026-09-03T01:01:40Z</time>
					</trkpt>
					<trkpt lat="44.262850" lon="5.403800">
						<ele>1090</ele>
						<time>2026-09-03T01:01:45Z</time>
					</trkpt>
					<trkpt lat="44.263020" lon="5.403730">
						<ele>1086</ele>
						<time>2026-09-03T01:01:54Z</time>
					</trkpt>
					<trkpt lat="44.263300" lon="5.403540">
						<ele>1083</ele>
						<time>2026-09-03T01:02:10Z</time>
					</trkpt>
					<trkpt lat="44.263350" lon="5.403460">
						<ele>1083</ele>
						<time>2026-09-03T01:02:13Z</time>
					</trkpt>
					<trkpt lat="44.263450" lon="5.403400">
						<ele>1080</ele>
						<time>2026-09-03T01:02:19Z</time>
					</trkpt>
					<trkpt lat="44.263530" lon="5.403380">
						<ele>1077</ele>
						<time>2026-09-03T01:02:23Z</time>
					</trkpt>
					<trkpt lat="44.263610" lon="5.403410">
						<ele>1073</ele>
						<time>2026-09-03T01:02:27Z</time>
					</trkpt>
					<trkpt lat="44.263900" lon="5.403320">
						<ele>1061</ele>
						<time>2026-09-03T01:02:42Z</time>
					</trkpt>
					<trkpt lat="44.264180" lon="5.402970">
						<ele>1053</ele>
						<time>2026-09-03T01:03:01Z</time>
					</trkpt>
					<trkpt lat="44.264320" lon="5.402860">
						<ele>1050</ele>
						<time>2026-09-03T01:03:09Z</time>
					</trkpt>
					<trkpt lat="44.264440" lon="5.402820">
						<ele>1047</ele>
						<time>2026-09-03T01:03:15Z</time>
					</trkpt>
					<trkpt lat="44.264530" lon="5.402820">
						<ele>1044</ele>
						<time>2026-09-03T01:03:20Z</time>
					</trkpt>
					<trkpt lat="44.264560" lon="5.402840">
						<ele>1043</ele>
						<time>2026-09-03T01:03:21Z</time>
					</trkpt>
					<trkpt lat="44.264660" lon="5.403080">
						<ele>1036</ele>
						<time>2026-09-03T01:03:31Z</time>
					</trkpt>
					<trkpt lat="44.264680" lon="5.403370">
						<ele>1031</ele>
						<time>2026-09-03T01:03:42Z</time>
					</trkpt>
					<trkpt lat="44.264730" lon="5.403500">
						<ele>1028</ele>
						<time>2026-09-03T01:03:47Z</time>
					</trkpt>
					<trkpt lat="44.264780" lon="5.403550">
						<ele>1026</ele>
						<time>2026-09-03T01:03:50Z</time>
					</trkpt>
					<trkpt lat="44.264790" lon="5.403680">
						<ele>1025</ele>
						<time>2026-09-03T01:03:55Z</time>
					</trkpt>
					<trkpt lat="44.264830" lon="5.403790">
						<ele>1022</ele>
						<time>2026-09-03T01:03:59Z</time>
					</trkpt>
					<trkpt lat="44.265060" lon="5.403120">
						<ele>1024</ele>
						<time>2026-09-03T01:04:26Z</time>
					</trkpt>
					<trkpt lat="44.265110" lon="5.403030">
						<ele>1025</ele>
						<time>2026-09-03T01:04:30Z</time>
					</trkpt>
					<trkpt lat="44.265150" lon="5.403020">
						<ele>1024</ele>
						<time>2026-09-03T01:04:32Z</time>
					</trkpt>
					<trkpt lat="44.265340" lon="5.403130">
						<ele>1019</ele>
						<time>2026-09-03T01:04:42Z</time>
					</trkpt>
					<trkpt lat="44.265550" lon="5.403290">
						<ele>1014</ele>
						<time>2026-09-03T01:04:54Z</time>
					</trkpt>
					<trkpt lat="44.265870" lon="5.403370">
						<ele>1008</ele>
						<time>2026-09-03T01:05:10Z</time>
					</trkpt>
					<trkpt lat="44.266060" lon="5.403510">
						<ele>1006</ele>
						<time>2026-09-03T01:05:21Z</time>
					</trkpt>
					<trkpt lat="44.266110" lon="5.403580">
						<ele>1005</ele>
						<time>2026-09-03T01:05:25Z</time>
					</trkpt>
					<trkpt lat="44.266280" lon="5.403660">
						<ele>1002</ele>
						<time>2026-09-03T01:05:34Z</time>
					</trkpt>
					<trkpt lat="44.266380" lon="5.403660">
						<ele>1001</ele>
						<time>2026-09-03T01:05:39Z</time>
					</trkpt>
					<trkpt lat="44.266460" lon="5.403620">
						<ele>1000</ele>
						<time>2026-09-03T01:05:43Z</time>
					</trkpt>
					<trkpt lat="44.266650" lon="5.403590">
						<ele>998</ele>
						<time>2026-09-03T01:05:52Z</time>
					</trkpt>
					<trkpt lat="44.266870" lon="5.403520">
						<ele>996</ele>
						<time>2026-09-03T01:06:04Z</time>
					</trkpt>
					<trkpt lat="44.267150" lon="5.403310">
						<ele>994</ele>
						<time>2026-09-03T01:06:20Z</time>
					</trkpt>
					<trkpt lat="44.267270" lon="5.403130">
						<ele>993</ele>
						<time>2026-09-03T01:06:28Z</time>
					</trkpt>
					<trkpt lat="44.267550" lon="5.402970">
						<ele>991</ele>
						<time>2026-09-03T01:06:44Z</time>
					</trkpt>
					<trkpt lat="44.267960" lon="5.402990">
						<ele>986</ele>
						<time>2026-09-03T01:07:04Z</time>
					</trkpt>
					<trkpt lat="44.268160" lon="5.402910">
						<ele>985</ele>
						<time>2026-09-03T01:07:15Z</time>
					</trkpt>
					<trkpt lat="44.268470" lon="5.402680">
						<ele>985</ele>
						<time>2026-09-03T01:07:32Z</time>
					</trkpt>
					<trkpt lat="44.268600" lon="5.402620">
						<ele>985</ele>
						<time>2026-09-03T01:07:39Z</time>
					</trkpt>
					<trkpt lat="44.268680" lon="5.402620">
						<ele>985</ele>
						<time>2026-09-03T01:07:43Z</time>
					</trkpt>
					<trkpt lat="44.268870" lon="5.402720">
						<ele>984</ele>
						<time>2026-09-03T01:07:53Z</time>
					</trkpt>
					<trkpt lat="44.269160" lon="5.403080">
						<ele>983</ele>
						<time>2026-09-03T01:08:13Z</time>
					</trkpt>
					<trkpt lat="44.269230" lon="5.403110">
						<ele>983</ele>
						<time>2026-09-03T01:08:16Z</time>
					</trkpt>
					<trkpt lat="44.269320" lon="5.403080">
						<ele>984</ele>
						<time>2026-09-03T01:08:21Z</time>
					</trkpt>
					<trkpt lat="44.269400" lon="5.403010">
						<ele>985</ele>
						<time>2026-09-03T01:08:26Z</time>
					</trkpt>
					<trkpt lat="44.269510" lon="5.402690">
						<ele>987</ele>
						<time>2026-09-03T01:08:38Z</time>
					</trkpt>
					<trkpt lat="44.269570" lon="5.402650">
						<ele>988</ele>
						<time>2026-09-03T01:08:42Z</time>
					</trkpt>
					<trkpt lat="44.269770" lon="5.402600">
						<ele>990</ele>
						<time>2026-09-03T01:08:52Z</time>
					</trkpt>
					<trkpt lat="44.269890" lon="5.402470">
						<ele>991</ele>
						<time>2026-09-03T01:08:59Z</time>
					</trkpt>
					<trkpt lat="44.270050" lon="5.402180">
						<ele>992</ele>
						<time>2026-09-03T01:09:12Z</time>
					</trkpt>
					<trkpt lat="44.270100" lon="5.402160">
						<ele>992</ele>
						<time>2026-09-03T01:09:15Z</time>
					</trkpt>
					<trkpt lat="44.270250" lon="5.402180">
						<ele>991</ele>
						<time>2026-09-03T01:09:23Z</time>
					</trkpt>
					<trkpt lat="44.270380" lon="5.402360">
						<ele>989</ele>
						<time>2026-09-03T01:09:32Z</time>
					</trkpt>
					<trkpt lat="44.270420" lon="5.402570">
						<ele>989</ele>
						<time>2026-09-03T01:09:40Z</time>
					</trkpt>
					<trkpt lat="44.270510" lon="5.402830">
						<ele>986</ele>
						<time>2026-09-03T01:09:50Z</time>
					</trkpt>
					<trkpt lat="44.270500" lon="5.403160">
						<ele>983</ele>
						<time>2026-09-03T01:10:02Z</time>
					</trkpt>
					<trkpt lat="44.270540" lon="5.403280">
						<ele>982</ele>
						<time>2026-09-03T01:10:06Z</time>
					</trkpt>
					<trkpt lat="44.271070" lon="5.403090">
						<ele>973</ele>
						<time>2026-09-03T01:10:34Z</time>
					</trkpt>
					<trkpt lat="44.271100" lon="5.403160">
						<ele>972</ele>
						<time>2026-09-03T01:10:37Z</time>
					</trkpt>
					<trkpt lat="44.271080" lon="5.403250">
						<ele>972</ele>
						<time>2026-09-03T01:10:40Z</time>
					</trkpt>
					<trkpt lat="44.270790" lon="5.403790">
						<ele>969</ele>
						<time>2026-09-03T01:11:04Z</time>
					</trkpt>
					<trkpt lat="44.270770" lon="5.403950">
						<ele>966</ele>
						<time>2026-09-03T01:11:10Z</time>
					</trkpt>
					<trkpt lat="44.270890" lon="5.404250">
						<ele>959</ele>
						<time>2026-09-03T01:11:22Z</time>
					</trkpt>
					<trkpt lat="44.270880" lon="5.404600">
						<ele>954</ele>
						<time>2026-09-03T01:11:35Z</time>
					</trkpt>
					<trkpt lat="44.270900" lon="5.404750">
						<ele>951</ele>
						<time>2026-09-03T01:11:41Z</time>
					</trkpt>
					<trkpt lat="44.271300" lon="5.405340">
						<ele>938</ele>
						<time>2026-09-03T01:12:10Z</time>
					</trkpt>
					<trkpt lat="44.271340" lon="5.405480">
						<ele>935</ele>
						<time>2026-09-03T01:12:15Z</time>
					</trkpt>
					<trkpt lat="44.271300" lon="5.405680">
						<ele>931</ele>
						<time>2026-09-03T01:12:22Z</time>
					</trkpt>
					<trkpt lat="44.271140" lon="5.405960">
						<ele>928</ele>
						<time>2026-09-03T01:12:35Z</time>
					</trkpt>
					<trkpt lat="44.270940" lon="5.406030">
						<ele>928</ele>
						<time>2026-09-03T01:12:46Z</time>
					</trkpt>
					<trkpt lat="44.271410" lon="5.406130">
						<ele>923</ele>
						<time>2026-09-03T01:13:09Z</time>
					</trkpt>
					<trkpt lat="44.271490" lon="5.406100">
						<ele>922</ele>
						<time>2026-09-03T01:13:14Z</time>
					</trkpt>
					<trkpt lat="44.271600" lon="5.405990">
						<ele>924</ele>
						<time>2026-09-03T01:13:20Z</time>
					</trkpt>
					<trkpt lat="44.271210" lon="5.407050">
						<ele>907</ele>
						<time>2026-09-03T01:14:03Z</time>
					</trkpt>
					<trkpt lat="44.271320" lon="5.407080">
						<ele>905</ele>
						<time>2026-09-03T01:14:09Z</time>
					</trkpt>
					<trkpt lat="44.271550" lon="5.406910">
						<ele>907</ele>
						<time>2026-09-03T01:14:22Z</time>
					</trkpt>
					<trkpt lat="44.271770" lon="5.406810">
						<ele>906</ele>
						<time>2026-09-03T01:14:33Z</time>
					</trkpt>
					<trkpt lat="44.271890" lon="5.406840">
						<ele>902</ele>
						<time>2026-09-03T01:14:39Z</time>
					</trkpt>
					<trkpt lat="44.271960" lon="5.406940">
						<ele>899</ele>
						<time>2026-09-03T01:14:44Z</time>
					</trkpt>
					<trkpt lat="44.272070" lon="5.407190">
						<ele>892</ele>
						<time>2026-09-03T01:14:55Z</time>
					</trkpt>
					<trkpt lat="44.272560" lon="5.408020">
						<ele>869</ele>
						<time>2026-09-03T01:15:33Z</time>
					</trkpt>
					<trkpt lat="44.272660" lon="5.408370">
						<ele>862</ele>
						<time>2026-09-03T01:15:47Z</time>
					</trkpt>
					<trkpt lat="44.272700" lon="5.408430">
						<ele>860</ele>
						<time>2026-09-03T01:15:50Z</time>
					</trkpt>
					<trkpt lat="44.272750" lon="5.408440">
						<ele>859</ele>
						<time>2026-09-03T01:15:52Z</time>
					</trkpt>
					<trkpt lat="44.272790" lon="5.408410">
						<ele>858</ele>
						<time>2026-09-03T01:15:55Z</time>
					</trkpt>
					<trkpt lat="44.273120" lon="5.407910">
						<ele>855</ele>
						<time>2026-09-03T01:16:19Z</time>
					</trkpt>
					<trkpt lat="44.273340" lon="5.407740">
						<ele>851</ele>
						<time>2026-09-03T01:16:32Z</time>
					</trkpt>
					<trkpt lat="44.273490" lon="5.407690">
						<ele>848</ele>
						<time>2026-09-03T01:16:39Z</time>
					</trkpt>
					<trkpt lat="44.273630" lon="5.407720">
						<ele>845</ele>
						<time>2026-09-03T01:16:46Z</time>
					</trkpt>
					<trkpt lat="44.273730" lon="5.407840">
						<ele>842</ele>
						<time>2026-09-03T01:16:53Z</time>
					</trkpt>
					<trkpt lat="44.273860" lon="5.407920">
						<ele>838</ele>
						<time>2026-09-03T01:17:00Z</time>
					</trkpt>
					<trkpt lat="44.274080" lon="5.407940">
						<ele>834</ele>
						<time>2026-09-03T01:17:11Z</time>
					</trkpt>
					<trkpt lat="44.274600" lon="5.407890">
						<ele>823</ele>
						<time>2026-09-03T01:17:37Z</time>
					</trkpt>
					<trkpt lat="44.274640" lon="5.408090">
						<ele>821</ele>
						<time>2026-09-03T01:17:45Z</time>
					</trkpt>
					<trkpt lat="44.274700" lon="5.408780">
						<ele>816</ele>
						<time>2026-09-03T01:18:10Z</time>
					</trkpt>
					<trkpt lat="44.274690" lon="5.409050">
						<ele>816</ele>
						<time>2026-09-03T01:18:19Z</time>
					</trkpt>
					<trkpt lat="44.274860" lon="5.409050">
						<ele>812</ele>
						<time>2026-09-03T01:18:28Z</time>
					</trkpt>
					<trkpt lat="44.274980" lon="5.409280">
						<ele>810</ele>
						<time>2026-09-03T01:18:38Z</time>
					</trkpt>
					<trkpt lat="44.275010" lon="5.409370">
						<ele>810</ele>
						<time>2026-09-03T01:18:42Z</time>
					</trkpt>
					<trkpt lat="44.274990" lon="5.409630">
						<ele>814</ele>
						<time>2026-09-03T01:18:51Z</time>
					</trkpt>
					<trkpt lat="44.275070" lon="5.409830">
						<ele>815</ele>
						<time>2026-09-03T01:18:59Z</time>
					</trkpt>
					<trkpt lat="44.275220" lon="5.409970">
						<ele>815</ele>
						<time>2026-09-03T01:19:08Z</time>
					</trkpt>
					<trkpt lat="44.275890" lon="5.409910">
						<ele>807</ele>
						<time>2026-09-03T01:19:42Z</time>
					</trkpt>
					<trkpt lat="44.276180" lon="5.409830">
						<ele>801</ele>
						<time>2026-09-03T01:19:57Z</time>
					</trkpt>
					<trkpt lat="44.276400" lon="5.409880">
						<ele>798</ele>
						<time>2026-09-03T01:20:08Z</time>
					</trkpt>
					<trkpt lat="44.276570" lon="5.409980">
						<ele>796</ele>
						<time>2026-09-03T01:20:17Z</time>
					</trkpt>
					<trkpt lat="44.276710" lon="5.410220">
						<ele>795</ele>
						<time>2026-09-03T01:20:28Z</time>
					</trkpt>
					<trkpt lat="44.276880" lon="5.410420">
						<ele>791</ele>
						<time>2026-09-03T01:20:39Z</time>
					</trkpt>
					<trkpt lat="44.276940" lon="5.410540">
						<ele>789</ele>
						<time>2026-09-03T01:20:44Z</time>
					</trkpt>
					<trkpt lat="44.277040" lon="5.410850">
						<ele>785</ele>
						<time>2026-09-03T01:20:57Z</time>
					</trkpt>
					<trkpt lat="44.277140" lon="5.411050">
						<ele>778</ele>
						<time>2026-09-03T01:21:05Z</time>
					</trkpt>
					<trkpt lat="44.277150" lon="5.411130">
						<ele>777</ele>
						<time>2026-09-03T01:21:08Z</time>
					</trkpt>
					<trkpt lat="44.277190" lon="5.411770">
						<ele>769</ele>
						<time>2026-09-03T01:21:31Z</time>
					</trkpt>
					<trkpt lat="44.277120" lon="5.412320">
						<ele>769</ele>
						<time>2026-09-03T01:21:51Z</time>
					</trkpt>
					<trkpt lat="44.277120" lon="5.412750">
						<ele>764</ele>
						<time>2026-09-03T01:22:07Z</time>
					</trkpt>
					<trkpt lat="44.277150" lon="5.413030">
						<ele>759</ele>
						<time>2026-09-03T01:22:17Z</time>
					</trkpt>
					<trkpt lat="44.277240" lon="5.413250">
						<ele>751</ele>
						<time>2026-09-03T01:22:26Z</time>
					</trkpt>
					<trkpt lat="44.277570" lon="5.413560">
						<ele>727</ele>
						<time>2026-09-03T01:22:46Z</time>
					</trkpt>
					<trkpt lat="44.277650" lon="5.413760">
						<ele>722</ele>
						<time>2026-09-03T01:22:54Z</time>
					</trkpt>
					<trkpt lat="44.277640" lon="5.414050">
						<ele>719</ele>
						<time>2026-09-03T01:23:04Z</time>
					</trkpt>
					<trkpt lat="44.277570" lon="5.414400">
						<ele>719</ele>
						<time>2026-09-03T01:23:17Z</time>
					</trkpt>
					<trkpt lat="44.277770" lon="5.415490">
						<ele>704</ele>
						<time>2026-09-03T01:23:58Z</time>
					</trkpt>
					<trkpt lat="44.277950" lon="5.416060">
						<ele>696</ele>
						<time>2026-09-03T01:24:20Z</time>
					</trkpt>
					<trkpt lat="44.278240" lon="5.416590">
						<ele>687</ele>
						<time>2026-09-03T01:24:44Z</time>
					</trkpt>
					<trkpt lat="44.278550" lon="5.416820">
						<ele>676</ele>
						<time>2026-09-03T01:25:01Z</time>
					</trkpt>
					<trkpt lat="44.278950" lon="5.417070">
						<ele>663</ele>
						<time>2026-09-03T01:25:23Z</time>
					</trkpt>
					<trkpt lat="44.279240" lon="5.417150">
						<ele>653</ele>
						<time>2026-09-03T01:25:38Z</time>
					</trkpt>
					<trkpt lat="44.279390" lon="5.417300">
						<ele>649</ele>
						<time>2026-09-03T01:25:47Z</time>
					</trkpt>
					<trkpt lat="44.279410" lon="5.417600">
						<ele>648</ele>
						<time>2026-09-03T01:25:58Z</time>
					</trkpt>
					<trkpt lat="44.279450" lon="5.417630">
						<ele>647</ele>
						<time>2026-09-03T01:26:01Z</time>
					</trkpt>
					<trkpt lat="44.279480" lon="5.417730">
						<ele>645</ele>
						<time>2026-09-03T01:26:04Z</time>
					</trkpt>
					<trkpt lat="44.279490" lon="5.418050">
						<ele>643</ele>
						<time>2026-09-03T01:26:16Z</time>
					</trkpt>
					<trkpt lat="44.279470" lon="5.418300">
						<ele>643</ele>
						<time>2026-09-03T01:26:25Z</time>
					</trkpt>
					<trkpt lat="44.279440" lon="5.418470">
						<ele>643</ele>
						<time>2026-09-03T01:26:31Z</time>
					</trkpt>
					<trkpt lat="44.279330" lon="5.418800">
						<ele>643</ele>
						<time>2026-09-03T01:26:44Z</time>
					</trkpt>
					<trkpt lat="44.279030" lon="5.419520">
						<ele>640</ele>
						<time>2026-09-03T01:27:14Z</time>
					</trkpt>
					<trkpt lat="44.278890" lon="5.419680">
						<ele>640</ele>
						<time>2026-09-03T01:27:23Z</time>
					</trkpt>
					<trkpt lat="44.278620" lon="5.419880">
						<ele>641</ele>
						<time>2026-09-03T01:27:38Z</time>
					</trkpt>
					<trkpt lat="44.278600" lon="5.419980">
						<ele>639</ele>
						<time>2026-09-03T01:27:42Z</time>
					</trkpt>
					<trkpt lat="44.278620" lon="5.420030">
						<ele>637</ele>
						<time>2026-09-03T01:27:44Z</time>
					</trkpt>
					<trkpt lat="44.278760" lon="5.420010">
						<ele>636</ele>
						<time>2026-09-03T01:27:51Z</time>
					</trkpt>
					<trkpt lat="44.279540" lon="5.419700">
						<ele>632</ele>
						<time>2026-09-03T01:28:32Z</time>
					</trkpt>
					<trkpt lat="44.279800" lon="5.419550">
						<ele>630</ele>
						<time>2026-09-03T01:28:46Z</time>
					</trkpt>
					<trkpt lat="44.280140" lon="5.419250">
						<ele>626</ele>
						<time>2026-09-03T01:29:06Z</time>
					</trkpt>
					<trkpt lat="44.280260" lon="5.419220">
						<ele>625</ele>
						<time>2026-09-03T01:29:12Z</time>
					</trkpt>
					<trkpt lat="44.280370" lon="5.419230">
						<ele>624</ele>
						<time>2026-09-03T01:29:18Z</time>
					</trkpt>
					<trkpt lat="44.281370" lon="5.419580">
						<ele>617</ele>
						<time>2026-09-03T01:30:09Z</time>
					</trkpt>
					<trkpt lat="44.281880" lon="5.419720">
						<ele>616</ele>
						<time>2026-09-03T01:30:35Z</time>
					</trkpt>
					<trkpt lat="44.282210" lon="5.419750">
						<ele>618</ele>
						<time>2026-09-03T01:30:52Z</time>
					</trkpt>
					<trkpt lat="44.282640" lon="5.419750">
						<ele>622</ele>
						<time>2026-09-03T01:31:13Z</time>
					</trkpt>
					<trkpt lat="44.283080" lon="5.419810">
						<ele>627</ele>
						<time>2026-09-03T01:31:35Z</time>
					</trkpt>
					<trkpt lat="44.283630" lon="5.419840">
						<ele>630</ele>
						<time>2026-09-03T01:32:03Z</time>
					</trkpt>
					<trkpt lat="44.283920" lon="5.419830">
						<ele>630</ele>
						<time>2026-09-03T01:32:17Z</time>
					</trkpt>
					<trkpt lat="44.284020" lon="5.419800">
						<ele>630</ele>
						<time>2026-09-03T01:32:23Z</time>
					</trkpt>
					<trkpt lat="44.284580" lon="5.419530">
						<ele>634</ele>
						<time>2026-09-03T01:32:52Z</time>
					</trkpt>
					<trkpt lat="44.284730" lon="5.419380">
						<ele>633</ele>
						<time>2026-09-03T01:33:01Z</time>
					</trkpt>
					<trkpt lat="44.285080" lon="5.418790">
						<ele>631</ele>
						<time>2026-09-03T01:33:29Z</time>
					</trkpt>
					<trkpt lat="44.285330" lon="5.418080">
						<ele>627</ele>
						<time>2026-09-03T01:33:57Z</time>
					</trkpt>
					<trkpt lat="44.285410" lon="5.417940">
						<ele>627</ele>
						<time>2026-09-03T01:34:04Z</time>
					</trkpt>
					<trkpt lat="44.285570" lon="5.417750">
						<ele>628</ele>
						<time>2026-09-03T01:34:14Z</time>
					</trkpt>
					<trkpt lat="44.285710" lon="5.417690">
						<ele>629</ele>
						<time>2026-09-03T01:34:22Z</time>
					</trkpt>
					<trkpt lat="44.285780" lon="5.417760">
						<ele>632</ele>
						<time>2026-09-03T01:34:26Z</time>
					</trkpt>
					<trkpt lat="44.286040" lon="5.417760">
						<ele>638</ele>
						<time>2026-09-03T01:34:39Z</time>
					</trkpt>
					<trkpt lat="44.286510" lon="5.417660">
						<ele>644</ele>
						<time>2026-09-03T01:35:03Z</time>
					</trkpt>
					<trkpt lat="44.286900" lon="5.417460">
						<ele>646</ele>
						<time>2026-09-03T01:35:23Z</time>
					</trkpt>
					<trkpt lat="44.287030" lon="5.417420">
						<ele>647</ele>
						<time>2026-09-03T01:35:30Z</time>
					</trkpt>
					<trkpt lat="44.287400" lon="5.417140">
						<ele>650</ele>
						<time>2026-09-03T01:35:51Z</time>
					</trkpt>
					<trkpt lat="44.287780" lon="5.416770">
						<ele>648</ele>
						<time>2026-09-03T01:36:14Z</time>
					</trkpt>
					<trkpt lat="44.288030" lon="5.416730">
						<ele>650</ele>
						<time>2026-09-03T01:36:27Z</time>
					</trkpt>
					<trkpt lat="44.287810" lon="5.417050">
						<ele>651</ele>
						<time>2026-09-03T01:36:43Z</time>
					</trkpt>
					<trkpt lat="44.287670" lon="5.417490">
						<ele>657</ele>
						<time>2026-09-03T01:37:00Z</time>
					</trkpt>
					<trkpt lat="44.287630" lon="5.417530">
						<ele>657</ele>
						<time>2026-09-03T01:37:02Z</time>
					</trkpt>
					<trkpt lat="44.287380" lon="5.417610">
						<ele>657</ele>
						<time>2026-09-03T01:37:15Z</time>
					</trkpt>
					<trkpt lat="44.287270" lon="5.417830">
						<ele>658</ele>
						<time>2026-09-03T01:37:25Z</time>
					</trkpt>
					<trkpt lat="44.287120" lon="5.418010">
						<ele>659</ele>
						<time>2026-09-03T01:37:35Z</time>
					</trkpt>
					<trkpt lat="44.286970" lon="5.418270">
						<ele>664</ele>
						<time>2026-09-03T01:37:47Z</time>
					</trkpt>
					<trkpt lat="44.286720" lon="5.418540">
						<ele>669</ele>
						<time>2026-09-03T01:38:03Z</time>
					</trkpt>
					<trkpt lat="44.286290" lon="5.419380">
						<ele>678</ele>
						<time>2026-09-03T01:38:40Z</time>
					</trkpt>
					<trkpt lat="44.286190" lon="5.419650">
						<ele>680</ele>
						<time>2026-09-03T01:38:51Z</time>
					</trkpt>
					<trkpt lat="44.286040" lon="5.419880">
						<ele>683</ele>
						<time>2026-09-03T01:39:02Z</time>
					</trkpt>
					<trkpt lat="44.285980" lon="5.420040">
						<ele>685</ele>
						<time>2026-09-03T01:39:08Z</time>
					</trkpt>
					<trkpt lat="44.285380" lon="5.421250">
						<ele>698</ele>
						<time>2026-09-03T01:40:01Z</time>
					</trkpt>
					<trkpt lat="44.284230" lon="5.423160">
						<ele>733</ele>
						<time>2026-09-03T01:41:30Z</time>
					</trkpt>
					<trkpt lat="44.283840" lon="5.423730">
						<ele>739</ele>
						<time>2026-09-03T01:41:59Z</time>
					</trkpt>
					<trkpt lat="44.283660" lon="5.424130">
						<ele>744</ele>
						<time>2026-09-03T01:42:15Z</time>
					</trkpt>
					<trkpt lat="44.283540" lon="5.424330">
						<ele>746</ele>
						<time>2026-09-03T01:42:25Z</time>
					</trkpt>
					<trkpt lat="44.283370" lon="5.424780">
						<ele>753</ele>
						<time>2026-09-03T01:42:43Z</time>
					</trkpt>
					<trkpt lat="44.283220" lon="5.425090">
						<ele>753</ele>
						<time>2026-09-03T01:42:56Z</time>
					</trkpt>
					<trkpt lat="44.283140" lon="5.425390">
						<ele>754</ele>
						<time>2026-09-03T01:43:08Z</time>
					</trkpt>
					<trkpt lat="44.282610" lon="5.426670">
						<ele>767</ele>
						<time>2026-09-03T01:44:01Z</time>
					</trkpt>
					<trkpt lat="44.282480" lon="5.427090">
						<ele>773</ele>
						<time>2026-09-03T01:44:17Z</time>
					</trkpt>
					<trkpt lat="44.282220" lon="5.427700">
						<ele>776</ele>
						<time>2026-09-03T01:44:43Z</time>
					</trkpt>
					<trkpt lat="44.282150" lon="5.427790">
						<ele>777</ele>
						<time>2026-09-03T01:44:47Z</time>
					</trkpt>
					<trkpt lat="44.281940" lon="5.428250">
						<ele>786</ele>
						<time>2026-09-03T01:45:07Z</time>
					</trkpt>
					<trkpt lat="44.281520" lon="5.429020">
						<ele>802</ele>
						<time>2026-09-03T01:45:42Z</time>
					</trkpt>
					<trkpt lat="44.281260" lon="5.429420">
						<ele>802</ele>
						<time>2026-09-03T01:46:01Z</time>
					</trkpt>
					<trkpt lat="44.281180" lon="5.429590">
						<ele>803</ele>
						<time>2026-09-03T01:46:08Z</time>
					</trkpt>
					<trkpt lat="44.280990" lon="5.430470">
						<ele>805</ele>
						<time>2026-09-03T01:46:41Z</time>
					</trkpt>
					<trkpt lat="44.280800" lon="5.431010">
						<ele>808</ele>
						<time>2026-09-03T01:47:03Z</time>
					</trkpt>
					<trkpt lat="44.280770" lon="5.431210">
						<ele>808</ele>
						<time>2026-09-03T01:47:10Z</time>
					</trkpt>
					<trkpt lat="44.280640" lon="5.431630">
						<ele>809</ele>
						<time>2026-09-03T01:47:27Z</time>
					</trkpt>
					<trkpt lat="44.280440" lon="5.432140">
						<ele>813</ele>
						<time>2026-09-03T01:47:47Z</time>
					</trkpt>
					<trkpt lat="44.280270" lon="5.432460">
						<ele>819</ele>
						<time>2026-09-03T01:48:02Z</time>
					</trkpt>
					<trkpt lat="44.280110" lon="5.432660">
						<ele>821</ele>
						<time>2026-09-03T01:48:12Z</time>
					</trkpt>
					<trkpt lat="44.279980" lon="5.433040">
						<ele>823</ele>
						<time>2026-09-03T01:48:27Z</time>
					</trkpt>
					<trkpt lat="44.279960" lon="5.433190">
						<ele>823</ele>
						<time>2026-09-03T01:48:33Z</time>
					</trkpt>
					<trkpt lat="44.280000" lon="5.433480">
						<ele>825</ele>
						<time>2026-09-03T01:48:44Z</time>
					</trkpt>
					<trkpt lat="44.280000" lon="5.433840">
						<ele>824</ele>
						<time>2026-09-03T01:48:56Z</time>
					</trkpt>
					<trkpt lat="44.279950" lon="5.434150">
						<ele>821</ele>
						<time>2026-09-03T01:49:08Z</time>
					</trkpt>
					<trkpt lat="44.279570" lon="5.435170">
						<ele>819</ele>
						<time>2026-09-03T01:49:49Z</time>
					</trkpt>
					<trkpt lat="44.279400" lon="5.435470">
						<ele>820</ele>
						<time>2026-09-03T01:50:03Z</time>
					</trkpt>
					<trkpt lat="44.279180" lon="5.436140">
						<ele>826</ele>
						<time>2026-09-03T01:50:29Z</time>
					</trkpt>
					<trkpt lat="44.278990" lon="5.436610">
						<ele>827</ele>
						<time>2026-09-03T01:50:48Z</time>
					</trkpt>
					<trkpt lat="44.278970" lon="5.436770">
						<ele>827</ele>
						<time>2026-09-03T01:50:54Z</time>
					</trkpt>
					<trkpt lat="44.278860" lon="5.436950">
						<ele>826</ele>
						<time>2026-09-03T01:51:03Z</time>
					</trkpt>
					<trkpt lat="44.278770" lon="5.437300">
						<ele>827</ele>
						<time>2026-09-03T01:51:16Z</time>
					</trkpt>
					<trkpt lat="44.278680" lon="5.437420">
						<ele>828</ele>
						<time>2026-09-03T01:51:22Z</time>
					</trkpt>
					<trkpt lat="44.278480" lon="5.438060">
						<ele>832</ele>
						<time>2026-09-03T01:51:47Z</time>
					</trkpt>
					<trkpt lat="44.278380" lon="5.438610">
						<ele>834</ele>
						<time>2026-09-03T01:52:08Z</time>
					</trkpt>
					<trkpt lat="44.278300" lon="5.438890">
						<ele>832</ele>
						<time>2026-09-03T01:52:18Z</time>
					</trkpt>
					<trkpt lat="44.278240" lon="5.438930">
						<ele>831</ele>
						<time>2026-09-03T01:52:22Z</time>
					</trkpt>
					<trkpt lat="44.278120" lon="5.438870">
						<ele>827</ele>
						<time>2026-09-03T01:52:28Z</time>
					</trkpt>
					<trkpt lat="44.277980" lon="5.439080">
						<ele>824</ele>
						<time>2026-09-03T01:52:38Z</time>
					</trkpt>
					<trkpt lat="44.277870" lon="5.439170">
						<ele>822</ele>
						<time>2026-09-03T01:52:45Z</time>
					</trkpt>
					<trkpt lat="44.277800" lon="5.439290">
						<ele>820</ele>
						<time>2026-09-03T01:52:50Z</time>
					</trkpt>
					<trkpt lat="44.277650" lon="5.439710">
						<ele>818</ele>
						<time>2026-09-03T01:53:07Z</time>
					</trkpt>
					<trkpt lat="44.277590" lon="5.439800">
						<ele>818</ele>
						<time>2026-09-03T01:53:12Z</time>
					</trkpt>
					<trkpt lat="44.277590" lon="5.440070">
						<ele>818</ele>
						<time>2026-09-03T01:53:21Z</time>
					</trkpt>
					<trkpt lat="44.277480" lon="5.440460">
						<ele>817</ele>
						<time>2026-09-03T01:53:36Z</time>
					</trkpt>
					<trkpt lat="44.277290" lon="5.440660">
						<ele>813</ele>
						<time>2026-09-03T01:53:48Z</time>
					</trkpt>
					<trkpt lat="44.277170" lon="5.440730">
						<ele>811</ele>
						<time>2026-09-03T01:53:55Z</time>
					</trkpt>
					<trkpt lat="44.277080" lon="5.440900">
						<ele>810</ele>
						<time>2026-09-03T01:54:02Z</time>
					</trkpt>
					<trkpt lat="44.277000" lon="5.441130">
						<ele>808</ele>
						<time>2026-09-03T01:54:11Z</time>
					</trkpt>
					<trkpt lat="44.276890" lon="5.441500">
						<ele>808</ele>
						<time>2026-09-03T01:54:26Z</time>
					</trkpt>
					<trkpt lat="44.276880" lon="5.441600">
						<ele>808</ele>
						<time>2026-09-03T01:54:29Z</time>
					</trkpt>
					<trkpt lat="44.276880" lon="5.441820">
						<ele>809</ele>
						<time>2026-09-03T01:54:37Z</time>
					</trkpt>
					<trkpt lat="44.276930" lon="5.441940">
						<ele>810</ele>
						<time>2026-09-03T01:54:42Z</time>
					</trkpt>
					<trkpt lat="44.276890" lon="5.442130">
						<ele>812</ele>
						<time>2026-09-03T01:54:49Z</time>
					</trkpt>
					<trkpt lat="44.276930" lon="5.442430">
						<ele>815</ele>
						<time>2026-09-03T01:55:00Z</time>
					</trkpt>
					<trkpt lat="44.276930" lon="5.442660">
						<ele>819</ele>
						<time>2026-09-03T01:55:09Z</time>
					</trkpt>
					<trkpt lat="44.276830" lon="5.443010">
						<ele>825</ele>
						<time>2026-09-03T01:55:22Z</time>
					</trkpt>
					<trkpt lat="44.276790" lon="5.443060">
						<ele>826</ele>
						<time>2026-09-03T01:55:25Z</time>
					</trkpt>
					<trkpt lat="44.276540" lon="5.443230">
						<ele>827</ele>
						<time>2026-09-03T01:55:39Z</time>
					</trkpt>
					<trkpt lat="44.276380" lon="5.443500">
						<ele>827</ele>
						<time>2026-09-03T01:55:51Z</time>
					</trkpt>
					<trkpt lat="44.276200" lon="5.443680">
						<ele>826</ele>
						<time>2026-09-03T01:56:02Z</time>
					</trkpt>
					<trkpt lat="44.276030" lon="5.443780">
						<ele>825</ele>
						<time>2026-09-03T01:56:11Z</time>
					</trkpt>
					<trkpt lat="44.275950" lon="5.443880">
						<ele>825</ele>
						<time>2026-09-03T01:56:17Z</time>
					</trkpt>
					<trkpt lat="44.275920" lon="5.444000">
						<ele>826</ele>
						<time>2026-09-03T01:56:21Z</time>
					</trkpt>
					<trkpt lat="44.275810" lon="5.443950">
						<ele>824</ele>
						<time>2026-09-03T01:56:27Z</time>
					</trkpt>
					<trkpt lat="44.275750" lon="5.443880">
						<ele>821</ele>
						<time>2026-09-03T01:56:31Z</time>
					</trkpt>
					<trkpt lat="44.275720" lon="5.443880">
						<ele>820</ele>
						<time>2026-09-03T01:56:33Z</time>
					</trkpt>
					<trkpt lat="44.275700" lon="5.443920">
						<ele>820</ele>
						<time>2026-09-03T01:56:34Z</time>
					</trkpt>
					<trkpt lat="44.275440" lon="5.444770">
						<ele>815</ele>
						<time>2026-09-03T01:57:07Z</time>
					</trkpt>
					<trkpt lat="44.275320" lon="5.445250">
						<ele>815</ele>
						<time>2026-09-03T01:57:26Z</time>
					</trkpt>
					<trkpt lat="44.275160" lon="5.445690">
						<ele>821</ele>
						<time>2026-09-03T01:57:43Z</time>
					</trkpt>
					<trkpt lat="44.275010" lon="5.445950">
						<ele>827</ele>
						<time>2026-09-03T01:57:55Z</time>
					</trkpt>
					<trkpt lat="44.274930" lon="5.446170">
						<ele>828</ele>
						<time>2026-09-03T01:58:04Z</time>
					</trkpt>
					<trkpt lat="44.274900" lon="5.446330">
						<ele>829</ele>
						<time>2026-09-03T01:58:10Z</time>
					</trkpt>
					<trkpt lat="44.274800" lon="5.446450">
						<ele>829</ele>
						<time>2026-09-03T01:58:17Z</time>
					</trkpt>
					<trkpt lat="44.274720" lon="5.446600">
						<ele>831</ele>
						<time>2026-09-03T01:58:23Z</time>
					</trkpt>
					<trkpt lat="44.274660" lon="5.446900">
						<ele>835</ele>
						<time>2026-09-03T01:58:35Z</time>
					</trkpt>
					<trkpt lat="44.274560" lon="5.447110">
						<ele>837</ele>
						<time>2026-09-03T01:58:44Z</time>
					</trkpt>
					<trkpt lat="44.274360" lon="5.447730">
						<ele>847</ele>
						<time>2026-09-03T01:59:08Z</time>
					</trkpt>
					<trkpt lat="44.274290" lon="5.447980">
						<ele>850</ele>
						<time>2026-09-03T01:59:18Z</time>
					</trkpt>
					<trkpt lat="44.274260" lon="5.448210">
						<ele>852</ele>
						<time>2026-09-03T01:59:26Z</time>
					</trkpt>
					<trkpt lat="44.274090" lon="5.448520">
						<ele>852</ele>
						<time>2026-09-03T01:59:40Z</time>
					</trkpt>
					<trkpt lat="44.274010" lon="5.448600">
						<ele>851</ele>
						<time>2026-09-03T01:59:45Z</time>
					</trkpt>
					<trkpt lat="44.273860" lon="5.448910">
						<ele>851</ele>
						<time>2026-09-03T01:59:58Z</time>
					</trkpt>
					<trkpt lat="44.273700" lon="5.449270">
						<ele>855</ele>
						<time>2026-09-03T02:00:13Z</time>
					</trkpt>
					<trkpt lat="44.273280" lon="5.450500">
						<ele>870</ele>
						<time>2026-09-03T02:01:02Z</time>
					</trkpt>
					<trkpt lat="44.272940" lon="5.451130">
						<ele>869</ele>
						<time>2026-09-03T02:01:31Z</time>
					</trkpt>
					<trkpt lat="44.272700" lon="5.451790">
						<ele>877</ele>
						<time>2026-09-03T02:01:57Z</time>
					</trkpt>
					<trkpt lat="44.272600" lon="5.452230">
						<ele>881</ele>
						<time>2026-09-03T02:02:14Z</time>
					</trkpt>
					<trkpt lat="44.272480" lon="5.452500">
						<ele>884</ele>
						<time>2026-09-03T02:02:25Z</time>
					</trkpt>
					<trkpt lat="44.272470" lon="5.452590">
						<ele>884</ele>
						<time>2026-09-03T02:02:28Z</time>
					</trkpt>
					<trkpt lat="44.272290" lon="5.453160">
						<ele>880</ele>
						<time>2026-09-03T02:02:51Z</time>
					</trkpt>
					<trkpt lat="44.271860" lon="5.453820">
						<ele>878</ele>
						<time>2026-09-03T02:03:23Z</time>
					</trkpt>
					<trkpt lat="44.270930" lon="5.455810">
						<ele>873</ele>
						<time>2026-09-03T02:04:48Z</time>
					</trkpt>
					<trkpt lat="44.270750" lon="5.456270">
						<ele>867</ele>
						<time>2026-09-03T02:05:07Z</time>
					</trkpt>
					<trkpt lat="44.270610" lon="5.456890">
						<ele>861</ele>
						<time>2026-09-03T02:05:30Z</time>
					</trkpt>
					<trkpt lat="44.270510" lon="5.457170">
						<ele>859</ele>
						<time>2026-09-03T02:05:41Z</time>
					</trkpt>
					<trkpt lat="44.270370" lon="5.457830">
						<ele>863</ele>
						<time>2026-09-03T02:06:06Z</time>
					</trkpt>
					<trkpt lat="44.270290" lon="5.458020">
						<ele>865</ele>
						<time>2026-09-03T02:06:14Z</time>
					</trkpt>
					<trkpt lat="44.270070" lon="5.458380">
						<ele>869</ele>
						<time>2026-09-03T02:06:31Z</time>
					</trkpt>
					<trkpt lat="44.269910" lon="5.458960">
						<ele>880</ele>
						<time>2026-09-03T02:06:53Z</time>
					</trkpt>
					<trkpt lat="44.269830" lon="5.459040">
						<ele>880</ele>
						<time>2026-09-03T02:06:58Z</time>
					</trkpt>
					<trkpt lat="44.269750" lon="5.459080">
						<ele>879</ele>
						<time>2026-09-03T02:07:02Z</time>
					</trkpt>
					<trkpt lat="44.269580" lon="5.459090">
						<ele>875</ele>
						<time>2026-09-03T02:07:10Z</time>
					</trkpt>
					<trkpt lat="44.269360" lon="5.459030">
						<ele>867</ele>
						<time>2026-09-03T02:07:22Z</time>
					</trkpt>
					<trkpt lat="44.269300" lon="5.459040">
						<ele>866</ele>
						<time>2026-09-03T02:07:25Z</time>
					</trkpt>
					<trkpt lat="44.269140" lon="5.459300">
						<ele>870</ele>
						<time>2026-09-03T02:07:37Z</time>
					</trkpt>
					<trkpt lat="44.269020" lon="5.459440">
						<ele>871</ele>
						<time>2026-09-03T02:07:45Z</time>
					</trkpt>
					<trkpt lat="44.268930" lon="5.459760">
						<ele>878</ele>
						<time>2026-09-03T02:07:57Z</time>
					</trkpt>
					<trkpt lat="44.268800" lon="5.459920">
						<ele>879</ele>
						<time>2026-09-03T02:08:06Z</time>
					</trkpt>
					<trkpt lat="44.268050" lon="5.460320">
						<ele>879</ele>
						<time>2026-09-03T02:08:46Z</time>
					</trkpt>
					<trkpt lat="44.267750" lon="5.460420">
						<ele>879</ele>
						<time>2026-09-03T02:09:01Z</time>
					</trkpt>
					<trkpt lat="44.267590" lon="5.460510">
						<ele>879</ele>
						<time>2026-09-03T02:09:10Z</time>
					</trkpt>
					<trkpt lat="44.267170" lon="5.460830">
						<ele>885</ele>
						<time>2026-09-03T02:09:34Z</time>
					</trkpt>
					<trkpt lat="44.267090" lon="5.460920">
						<ele>887</ele>
						<time>2026-09-03T02:09:39Z</time>
					</trkpt>
					<trkpt lat="44.266970" lon="5.461130">
						<ele>890</ele>
						<time>2026-09-03T02:09:49Z</time>
					</trkpt>
					<trkpt lat="44.266920" lon="5.461160">
						<ele>891</ele>
						<time>2026-09-03T02:09:52Z</time>
					</trkpt>
					<trkpt lat="44.266880" lon="5.461150">
						<ele>890</ele>
						<time>2026-09-03T02:09:54Z</time>
					</trkpt>
					<trkpt lat="44.266830" lon="5.461070">
						<ele>889</ele>
						<time>2026-09-03T02:09:57Z</time>
					</trkpt>
					<trkpt lat="44.266820" lon="5.460880">
						<ele>886</ele>
						<time>2026-09-03T02:10:04Z</time>
					</trkpt>
					<trkpt lat="44.266870" lon="5.459980">
						<ele>882</ele>
						<time>2026-09-03T02:10:37Z</time>
					</trkpt>
					<trkpt lat="44.266790" lon="5.459680">
						<ele>885</ele>
						<time>2026-09-03T02:10:48Z</time>
					</trkpt>
					<trkpt lat="44.266750" lon="5.459570">
						<ele>886</ele>
						<time>2026-09-03T02:10:52Z</time>
					</trkpt>
					<trkpt lat="44.266590" lon="5.459400">
						<ele>892</ele>
						<time>2026-09-03T02:11:02Z</time>
					</trkpt>
					<trkpt lat="44.266570" lon="5.459180">
						<ele>894</ele>
						<time>2026-09-03T02:11:10Z</time>
					</trkpt>
					<trkpt lat="44.266510" lon="5.459010">
						<ele>896</ele>
						<time>2026-09-03T02:11:17Z</time>
					</trkpt>
					<trkpt lat="44.266420" lon="5.458870">
						<ele>899</ele>
						<time>2026-09-03T02:11:24Z</time>
					</trkpt>
					<trkpt lat="44.266280" lon="5.458770">
						<ele>903</ele>
						<time>2026-09-03T02:11:32Z</time>
					</trkpt>
					<trkpt lat="44.266230" lon="5.458680">
						<ele>905</ele>
						<time>2026-09-03T02:11:36Z</time>
					</trkpt>
					<trkpt lat="44.266260" lon="5.458200">
						<ele>902</ele>
						<time>2026-09-03T02:11:53Z</time>
					</trkpt>
					<trkpt lat="44.266220" lon="5.457970">
						<ele>902</ele>
						<time>2026-09-03T02:12:02Z</time>
					</trkpt>
					<trkpt lat="44.266170" lon="5.457840">
						<ele>903</ele>
						<time>2026-09-03T02:12:07Z</time>
					</trkpt>
					<trkpt lat="44.266000" lon="5.457540">
						<ele>907</ele>
						<time>2026-09-03T02:12:21Z</time>
					</trkpt>
					<trkpt lat="44.265700" lon="5.457110">
						<ele>913</ele>
						<time>2026-09-03T02:12:42Z</time>
					</trkpt>
					<trkpt lat="44.265660" lon="5.457090">
						<ele>915</ele>
						<time>2026-09-03T02:12:44Z</time>
					</trkpt>
					<trkpt lat="44.265600" lon="5.457120">
						<ele>918</ele>
						<time>2026-09-03T02:12:47Z</time>
					</trkpt>
					<trkpt lat="44.265620" lon="5.457790">
						<ele>923</ele>
						<time>2026-09-03T02:13:12Z</time>
					</trkpt>
					<trkpt lat="44.265580" lon="5.458230">
						<ele>927</ele>
						<time>2026-09-03T02:13:27Z</time>
					</trkpt>
					<trkpt lat="44.265590" lon="5.458570">
						<ele>927</ele>
						<time>2026-09-03T02:13:40Z</time>
					</trkpt>
					<trkpt lat="44.265570" lon="5.458630">
						<ele>928</ele>
						<time>2026-09-03T02:13:42Z</time>
					</trkpt>
					<trkpt lat="44.265320" lon="5.458920">
						<ele>936</ele>
						<time>2026-09-03T02:13:58Z</time>
					</trkpt>
					<trkpt lat="44.265280" lon="5.459240">
						<ele>938</ele>
						<time>2026-09-03T02:14:10Z</time>
					</trkpt>
					<trkpt lat="44.265240" lon="5.459270">
						<ele>939</ele>
						<time>2026-09-03T02:14:12Z</time>
					</trkpt>
					<trkpt lat="44.265190" lon="5.459250">
						<ele>941</ele>
						<time>2026-09-03T02:14:15Z</time>
					</trkpt>
					<trkpt lat="44.265140" lon="5.459140">
						<ele>942</ele>
						<time>2026-09-03T02:14:19Z</time>
					</trkpt>
					<trkpt lat="44.265130" lon="5.459010">
						<ele>942</ele>
						<time>2026-09-03T02:14:24Z</time>
					</trkpt>
					<trkpt lat="44.265210" lon="5.458570">
						<ele>940</ele>
						<time>2026-09-03T02:14:40Z</time>
					</trkpt>
					<trkpt lat="44.265070" lon="5.458110">
						<ele>945</ele>
						<time>2026-09-03T02:14:58Z</time>
					</trkpt>
					<trkpt lat="44.265040" lon="5.458060">
						<ele>946</ele>
						<time>2026-09-03T02:15:01Z</time>
					</trkpt>
					<trkpt lat="44.264980" lon="5.458070">
						<ele>949</ele>
						<time>2026-09-03T02:15:04Z</time>
					</trkpt>
					<trkpt lat="44.264920" lon="5.458150">
						<ele>951</ele>
						<time>2026-09-03T02:15:08Z</time>
					</trkpt>
					<trkpt lat="44.264580" lon="5.459320">
						<ele>966</ele>
						<time>2026-09-03T02:15:53Z</time>
					</trkpt>
					<trkpt lat="44.264540" lon="5.459690">
						<ele>969</ele>
						<time>2026-09-03T02:16:06Z</time>
					</trkpt>
					<trkpt lat="44.264690" lon="5.460530">
						<ele>968</ele>
						<time>2026-09-03T02:16:37Z</time>
					</trkpt>
					<trkpt lat="44.264700" lon="5.460900">
						<ele>970</ele>
						<time>2026-09-03T02:16:51Z</time>
					</trkpt>
					<trkpt lat="44.264570" lon="5.461750">
						<ele>979</ele>
						<time>2026-09-03T02:17:22Z</time>
					</trkpt>
					<trkpt lat="44.264370" lon="5.462570">
						<ele>984</ele>
						<time>2026-09-03T02:17:53Z</time>
					</trkpt>
					<trkpt lat="44.264220" lon="5.462920">
						<ele>986</ele>
						<time>2026-09-03T02:18:08Z</time>
					</trkpt>
					<trkpt lat="44.263910" lon="5.463240">
						<ele>995</ele>
						<time>2026-09-03T02:18:27Z</time>
					</trkpt>
					<trkpt lat="44.263560" lon="5.464260">
						<ele>999</ele>
						<time>2026-09-03T02:19:07Z</time>
					</trkpt>
					<trkpt lat="44.263210" lon="5.464890">
						<ele>1008</ele>
						<time>2026-09-03T02:19:36Z</time>
					</trkpt>
					<trkpt lat="44.262460" lon="5.466120">
						<ele>1030</ele>
						<time>2026-09-03T02:20:34Z</time>
					</trkpt>
					<trkpt lat="44.262350" lon="5.466410">
						<ele>1036</ele>
						<time>2026-09-03T02:20:46Z</time>
					</trkpt>
					<trkpt lat="44.262300" lon="5.466670">
						<ele>1038</ele>
						<time>2026-09-03T02:20:55Z</time>
					</trkpt>
					<trkpt lat="44.262290" lon="5.466910">
						<ele>1043</ele>
						<time>2026-09-03T02:21:04Z</time>
					</trkpt>
					<trkpt lat="44.262240" lon="5.467020">
						<ele>1046</ele>
						<time>2026-09-03T02:21:09Z</time>
					</trkpt>
					<trkpt lat="44.262190" lon="5.467020">
						<ele>1047</ele>
						<time>2026-09-03T02:21:11Z</time>
					</trkpt>
					<trkpt lat="44.262140" lon="5.466930">
						<ele>1047</ele>
						<time>2026-09-03T02:21:15Z</time>
					</trkpt>
					<trkpt lat="44.262070" lon="5.466370">
						<ele>1046</ele>
						<time>2026-09-03T02:21:36Z</time>
					</trkpt>
					<trkpt lat="44.262070" lon="5.466160">
						<ele>1047</ele>
						<time>2026-09-03T02:21:43Z</time>
					</trkpt>
					<trkpt lat="44.262200" lon="5.465720">
						<ele>1043</ele>
						<time>2026-09-03T02:22:00Z</time>
					</trkpt>
					<trkpt lat="44.262150" lon="5.465390">
						<ele>1050</ele>
						<time>2026-09-03T02:22:12Z</time>
					</trkpt>
					<trkpt lat="44.262100" lon="5.465390">
						<ele>1052</ele>
						<time>2026-09-03T02:22:15Z</time>
					</trkpt>
					<trkpt lat="44.262020" lon="5.465450">
						<ele>1055</ele>
						<time>2026-09-03T02:22:19Z</time>
					</trkpt>
					<trkpt lat="44.261790" lon="5.466040">
						<ele>1059</ele>
						<time>2026-09-03T02:22:43Z</time>
					</trkpt>
					<trkpt lat="44.261640" lon="5.466540">
						<ele>1063</ele>
						<time>2026-09-03T02:23:03Z</time>
					</trkpt>
					<trkpt lat="44.261400" lon="5.467580">
						<ele>1075</ele>
						<time>2026-09-03T02:23:42Z</time>
					</trkpt>
					<trkpt lat="44.261390" lon="5.467840">
						<ele>1078</ele>
						<time>2026-09-03T02:23:51Z</time>
					</trkpt>
					<trkpt lat="44.261440" lon="5.468710">
						<ele>1083</ele>
						<time>2026-09-03T02:24:23Z</time>
					</trkpt>
					<trkpt lat="44.261420" lon="5.468970">
						<ele>1085</ele>
						<time>2026-09-03T02:24:32Z</time>
					</trkpt>
					<trkpt lat="44.261360" lon="5.469240">
						<ele>1087</ele>
						<time>2026-09-03T02:24:42Z</time>
					</trkpt>
					<trkpt lat="44.261250" lon="5.469370">
						<ele>1088</ele>
						<time>2026-09-03T02:24:49Z</time>
					</trkpt>
					<trkpt lat="44.260670" lon="5.469670">
						<ele>1088</ele>
						<time>2026-09-03T02:25:20Z</time>
					</trkpt>
					<trkpt lat="44.260340" lon="5.470000">
						<ele>1087</ele>
						<time>2026-09-03T02:25:40Z</time>
					</trkpt>
					<trkpt lat="44.259830" lon="5.470730">
						<ele>1081</ele>
						<time>2026-09-03T02:26:17Z</time>
					</trkpt>
					<trkpt lat="44.259590" lon="5.471030">
						<ele>1080</ele>
						<time>2026-09-03T02:26:33Z</time>
					</trkpt>
					<trkpt lat="44.259210" lon="5.471410">
						<ele>1079</ele>
						<time>2026-09-03T02:26:57Z</time>
					</trkpt>
					<trkpt lat="44.259050" lon="5.471660">
						<ele>1077</ele>
						<time>2026-09-03T02:27:09Z</time>
					</trkpt>
					<trkpt lat="44.258900" lon="5.472040">
						<ele>1073</ele>
						<time>2026-09-03T02:27:24Z</time>
					</trkpt>
					<trkpt lat="44.258800" lon="5.472120">
						<ele>1073</ele>
						<time>2026-09-03T02:27:30Z</time>
					</trkpt>
					<trkpt lat="44.258600" lon="5.472200">
						<ele>1075</ele>
						<time>2026-09-03T02:27:40Z</time>
					</trkpt>
					<trkpt lat="44.258460" lon="5.472340">
						<ele>1074</ele>
						<time>2026-09-03T02:27:49Z</time>
					</trkpt>
					<trkpt lat="44.258320" lon="5.472670">
						<ele>1069</ele>
						<time>2026-09-03T02:28:03Z</time>
					</trkpt>
					<trkpt lat="44.258090" lon="5.473020">
						<ele>1071</ele>
						<time>2026-09-03T02:28:20Z</time>
					</trkpt>
					<trkpt lat="44.257870" lon="5.473450">
						<ele>1068</ele>
						<time>2026-09-03T02:28:39Z</time>
					</trkpt>
					<trkpt lat="44.257680" lon="5.474050">
						<ele>1058</ele>
						<time>2026-09-03T02:29:02Z</time>
					</trkpt>
					<trkpt lat="44.257440" lon="5.474510">
						<ele>1056</ele>
						<time>2026-09-03T02:29:23Z</time>
					</trkpt>
					<trkpt lat="44.257250" lon="5.475290">
						<ele>1054</ele>
						<time>2026-09-03T02:29:52Z</time>
					</trkpt>
					<trkpt lat="44.257100" lon="5.476090">
						<ele>1049</ele>
						<time>2026-09-03T02:30:22Z</time>
					</trkpt>
					<trkpt lat="44.256780" lon="5.476810">
						<ele>1047</ele>
						<time>2026-09-03T02:30:52Z</time>
					</trkpt>
					<trkpt lat="44.256560" lon="5.477170">
						<ele>1048</ele>
						<time>2026-09-03T02:31:09Z</time>
					</trkpt>
					<trkpt lat="44.256400" lon="5.477760">
						<ele>1046</ele>
						<time>2026-09-03T02:31:32Z</time>
					</trkpt>
					<trkpt lat="44.256440" lon="5.478330">
						<ele>1038</ele>
						<time>2026-09-03T02:31:52Z</time>
					</trkpt>
					<trkpt lat="44.256360" lon="5.479280">
						<ele>1040</ele>
						<time>2026-09-03T02:32:26Z</time>
					</trkpt>
					<trkpt lat="44.256330" lon="5.479940">
						<ele>1040</ele>
						<time>2026-09-03T02:32:50Z</time>
					</trkpt>
					<trkpt lat="44.256200" lon="5.480430">
						<ele>1045</ele>
						<time>2026-09-03T02:33:09Z</time>
					</trkpt>
					<trkpt lat="44.256270" lon="5.481150">
						<ele>1039</ele>
						<time>2026-09-03T02:33:35Z</time>
					</trkpt>
					<trkpt lat="44.256330" lon="5.481310">
						<ele>1036</ele>
						<time>2026-09-03T02:33:41Z</time>
					</trkpt>
					<trkpt lat="44.256500" lon="5.481550">
						<ele>1027</ele>
						<time>2026-09-03T02:33:53Z</time>
					</trkpt>
					<trkpt lat="44.256520" lon="5.481660">
						<ele>1025</ele>
						<time>2026-09-03T02:33:58Z</time>
					</trkpt>
					<trkpt lat="44.256430" lon="5.482100">
						<ele>1026</ele>
						<time>2026-09-03T02:34:14Z</time>
					</trkpt>
					<trkpt lat="44.256380" lon="5.482720">
						<ele>1022</ele>
						<time>2026-09-03T02:34:36Z</time>
					</trkpt>
					<trkpt lat="44.256250" lon="5.483130">
						<ele>1024</ele>
						<time>2026-09-03T02:34:52Z</time>
					</trkpt>
					<trkpt lat="44.256230" lon="5.483260">
						<ele>1023</ele>
						<time>2026-09-03T02:34:57Z</time>
					</trkpt>
					<trkpt lat="44.256280" lon="5.483560">
						<ele>1017</ele>
						<time>2026-09-03T02:35:08Z</time>
					</trkpt>
					<trkpt lat="44.256260" lon="5.483930">
						<ele>1014</ele>
						<time>2026-09-03T02:35:22Z</time>
					</trkpt>
					<trkpt lat="44.256320" lon="5.484240">
						<ele>1008</ele>
						<time>2026-09-03T02:35:33Z</time>
					</trkpt>
					<trkpt lat="44.256330" lon="5.484650">
						<ele>1003</ele>
						<time>2026-09-03T02:35:48Z</time>
					</trkpt>
					<trkpt lat="44.256210" lon="5.485020">
						<ele>1005</ele>
						<time>2026-09-03T02:36:02Z</time>
					</trkpt>
					<trkpt lat="44.256030" lon="5.485900">
						<ele>1005</ele>
						<time>2026-09-03T02:36:35Z</time>
					</trkpt>
					<trkpt lat="44.256030" lon="5.486520">
						<ele>1002</ele>
						<time>2026-09-03T02:36:57Z</time>
					</trkpt>
					<trkpt lat="44.255980" lon="5.487500">
						<ele>1002</ele>
						<time>2026-09-03T02:37:33Z</time>
					</trkpt>
					<trkpt lat="44.255900" lon="5.488230">
						<ele>1007</ele>
						<time>2026-09-03T02:37:59Z</time>
					</trkpt>
					<trkpt lat="44.255920" lon="5.488570">
						<ele>1006</ele>
						<time>2026-09-03T02:38:11Z</time>
					</trkpt>
					<trkpt lat="44.255890" lon="5.488990">
						<ele>1008</ele>
						<time>2026-09-03T02:38:26Z</time>
					</trkpt>
					<trkpt lat="44.255820" lon="5.489390">
						<ele>1011</ele>
						<time>2026-09-03T02:38:41Z</time>
					</trkpt>
					<trkpt lat="44.255660" lon="5.489840">
						<ele>1016</ele>
						<time>2026-09-03T02:38:59Z</time>
					</trkpt>
					<trkpt lat="44.255380" lon="5.490400">
						<ele>1026</ele>
						<time>2026-09-03T02:39:24Z</time>
					</trkpt>
					<trkpt lat="44.255190" lon="5.490950">
						<ele>1030</ele>
						<time>2026-09-03T02:39:45Z</time>
					</trkpt>
					<trkpt lat="44.254980" lon="5.491420">
						<ele>1033</ele>
						<time>2026-09-03T02:40:05Z</time>
					</trkpt>
					<trkpt lat="44.254790" lon="5.491780">
						<ele>1036</ele>
						<time>2026-09-03T02:40:21Z</time>
					</trkpt>
					<trkpt lat="44.254710" lon="5.492000">
						<ele>1035</ele>
						<time>2026-09-03T02:40:30Z</time>
					</trkpt>
					<trkpt lat="44.254550" lon="5.492220">
						<ele>1038</ele>
						<time>2026-09-03T02:40:41Z</time>
					</trkpt>
					<trkpt lat="44.254300" lon="5.492660">
						<ele>1042</ele>
						<time>2026-09-03T02:41:02Z</time>
					</trkpt>
					<trkpt lat="44.254090" lon="5.493480">
						<ele>1045</ele>
						<time>2026-09-03T02:41:33Z</time>
					</trkpt>
					<trkpt lat="44.254020" lon="5.493940">
						<ele>1045</ele>
						<time>2026-09-03T02:41:50Z</time>
					</trkpt>
					<trkpt lat="44.253910" lon="5.494260">
						<ele>1046</ele>
						<time>2026-09-03T02:42:02Z</time>
					</trkpt>
					<trkpt lat="44.253750" lon="5.494610">
						<ele>1046</ele>
						<time>2026-09-03T02:42:17Z</time>
					</trkpt>
					<trkpt lat="44.253370" lon="5.495290">
						<ele>1052</ele>
						<time>2026-09-03T02:42:48Z</time>
					</trkpt>
					<trkpt lat="44.253230" lon="5.495630">
						<ele>1054</ele>
						<time>2026-09-03T02:43:02Z</time>
					</trkpt>
					<trkpt lat="44.252880" lon="5.496330">
						<ele>1058</ele>
						<time>2026-09-03T02:43:33Z</time>
					</trkpt>
					<trkpt lat="44.252480" lon="5.496970">
						<ele>1063</ele>
						<time>2026-09-03T02:44:03Z</time>
					</trkpt>
					<trkpt lat="44.252250" lon="5.497190">
						<ele>1056</ele>
						<time>2026-09-03T02:44:17Z</time>
					</trkpt>
					<trkpt lat="44.252180" lon="5.497130">
						<ele>1055</ele>
						<time>2026-09-03T02:44:21Z</time>
					</trkpt>
					<trkpt lat="44.252070" lon="5.496900">
						<ele>1053</ele>
						<time>2026-09-03T02:44:31Z</time>
					</trkpt>
					<trkpt lat="44.252040" lon="5.496880">
						<ele>1052</ele>
						<time>2026-09-03T02:44:33Z</time>
					</trkpt>
					<trkpt lat="44.252000" lon="5.496890">
						<ele>1051</ele>
						<time>2026-09-03T02:44:35Z</time>
					</trkpt>
					<trkpt lat="44.251940" lon="5.497280">
						<ele>1048</ele>
						<time>2026-09-03T02:44:49Z</time>
					</trkpt>
					<trkpt lat="44.251670" lon="5.498010">
						<ele>1040</ele>
						<time>2026-09-03T02:45:19Z</time>
					</trkpt>
					<trkpt lat="44.251560" lon="5.498730">
						<ele>1033</ele>
						<time>2026-09-03T02:45:45Z</time>
					</trkpt>
					<trkpt lat="44.251580" lon="5.498960">
						<ele>1033</ele>
						<time>2026-09-03T02:45:53Z</time>
					</trkpt>
					<trkpt lat="44.251560" lon="5.499450">
						<ele>1029</ele>
						<time>2026-09-03T02:46:11Z</time>
					</trkpt>
					<trkpt lat="44.251600" lon="5.500410">
						<ele>1027</ele>
						<time>2026-09-03T02:46:45Z</time>
					</trkpt>
					<trkpt lat="44.251550" lon="5.501250">
						<ele>1023</ele>
						<time>2026-09-03T02:47:16Z</time>
					</trkpt>
					<trkpt lat="44.251490" lon="5.501540">
						<ele>1020</ele>
						<time>2026-09-03T02:47:26Z</time>
					</trkpt>
					<trkpt lat="44.251400" lon="5.502500">
						<ele>1019</ele>
						<time>2026-09-03T02:48:01Z</time>
					</trkpt>
					<trkpt lat="44.251300" lon="5.502740">
						<ele>1016</ele>
						<time>2026-09-03T02:48:11Z</time>
					</trkpt>
					<trkpt lat="44.251250" lon="5.502790">
						<ele>1013</ele>
						<time>2026-09-03T02:48:14Z</time>
					</trkpt>
					<trkpt lat="44.251210" lon="5.502780">
						<ele>1011</ele>
						<time>2026-09-03T02:48:16Z</time>
					</trkpt>
					<trkpt lat="44.251160" lon="5.502860">
						<ele>1009</ele>
						<time>2026-09-03T02:48:20Z</time>
					</trkpt>
					<trkpt lat="44.251170" lon="5.504410">
						<ele>1022</ele>
						<time>2026-09-03T02:49:16Z</time>
					</trkpt>
					<trkpt lat="44.251110" lon="5.504920">
						<ele>1025</ele>
						<time>2026-09-03T02:49:34Z</time>
					</trkpt>
					<trkpt lat="44.251110" lon="5.505570">
						<ele>1032</ele>
						<time>2026-09-03T02:49:57Z</time>
					</trkpt>
					<trkpt lat="44.251060" lon="5.506130">
						<ele>1034</ele>
						<time>2026-09-03T02:50:18Z</time>
					</trkpt>
					<trkpt lat="44.251060" lon="5.506300">
						<ele>1036</ele>
						<time>2026-09-03T02:50:24Z</time>
					</trkpt>
					<trkpt lat="44.251200" lon="5.506870">
						<ele>1048</ele>
						<time>2026-09-03T02:50:45Z</time>
					</trkpt>
					<trkpt lat="44.251280" lon="5.507320">
						<ele>1055</ele>
						<time>2026-09-03T02:51:02Z</time>
					</trkpt>
					<trkpt lat="44.251480" lon="5.507900">
						<ele>1065</ele>
						<time>2026-09-03T02:51:25Z</time>
					</trkpt>
					<trkpt lat="44.251510" lon="5.508080">
						<ele>1067</ele>
						<time>2026-09-03T02:51:32Z</time>
					</trkpt>
					<trkpt lat="44.251510" lon="5.509870">
						<ele>1071</ele>
						<time>2026-09-03T02:52:36Z</time>
					</trkpt>
					<trkpt lat="44.251590" lon="5.510330">
						<ele>1075</ele>
						<time>2026-09-03T02:52:53Z</time>
					</trkpt>
					<trkpt lat="44.251600" lon="5.510600">
						<ele>1077</ele>
						<time>2026-09-03T02:53:02Z</time>
					</trkpt>
					<trkpt lat="44.251570" lon="5.511660">
						<ele>1086</ele>
						<time>2026-09-03T02:53:41Z</time>
					</trkpt>
					<trkpt lat="44.251470" lon="5.513010">
						<ele>1097</ele>
						<time>2026-09-03T02:54:29Z</time>
					</trkpt>
					<trkpt lat="44.251440" lon="5.513780">
						<ele>1104</ele>
						<time>2026-09-03T02:54:57Z</time>
					</trkpt>
					<trkpt lat="44.251450" lon="5.514190">
						<ele>1108</ele>
						<time>2026-09-03T02:55:11Z</time>
					</trkpt>
					<trkpt lat="44.251500" lon="5.514560">
						<ele>1110</ele>
						<time>2026-09-03T02:55:25Z</time>
					</trkpt>
					<trkpt lat="44.251590" lon="5.514960">
						<ele>1114</ele>
						<time>2026-09-03T02:55:40Z</time>
					</trkpt>
					<trkpt lat="44.251650" lon="5.515520">
						<ele>1117</ele>
						<time>2026-09-03T02:56:00Z</time>
					</trkpt>
					<trkpt lat="44.251740" lon="5.515770">
						<ele>1118</ele>
						<time>2026-09-03T02:56:10Z</time>
					</trkpt>
					<trkpt lat="44.251750" lon="5.516020">
						<ele>1120</ele>
						<time>2026-09-03T02:56:19Z</time>
					</trkpt>
					<trkpt lat="44.251980" lon="5.516380">
						<ele>1126</ele>
						<time>2026-09-03T02:56:37Z</time>
					</trkpt>
					<trkpt lat="44.252030" lon="5.516590">
						<ele>1129</ele>
						<time>2026-09-03T02:56:45Z</time>
					</trkpt>
					<trkpt lat="44.251980" lon="5.516950">
						<ele>1131</ele>
						<time>2026-09-03T02:56:58Z</time>
					</trkpt>
					<trkpt lat="44.252070" lon="5.517240">
						<ele>1135</ele>
						<time>2026-09-03T02:57:09Z</time>
					</trkpt>
					<trkpt lat="44.252050" lon="5.517640">
						<ele>1138</ele>
						<time>2026-09-03T02:57:23Z</time>
					</trkpt>
					<trkpt lat="44.252080" lon="5.518360">
						<ele>1145</ele>
						<time>2026-09-03T02:57:49Z</time>
					</trkpt>
					<trkpt lat="44.251960" lon="5.519090">
						<ele>1150</ele>
						<time>2026-09-03T02:58:16Z</time>
					</trkpt>
					<trkpt lat="44.251980" lon="5.519250">
						<ele>1151</ele>
						<time>2026-09-03T02:58:22Z</time>
					</trkpt>
					<trkpt lat="44.252220" lon="5.519900">
						<ele>1157</ele>
						<time>2026-09-03T02:58:48Z</time>
					</trkpt>
					<trkpt lat="44.252730" lon="5.520870">
						<ele>1168</ele>
						<time>2026-09-03T02:59:31Z</time>
					</trkpt>
					<trkpt lat="44.252840" lon="5.521020">
						<ele>1170</ele>
						<time>2026-09-03T02:59:39Z</time>
					</trkpt>
					<trkpt lat="44.252980" lon="5.521150">
						<ele>1172</ele>
						<time>2026-09-03T02:59:47Z</time>
					</trkpt>
					<trkpt lat="44.253340" lon="5.521100">
						<ele>1175</ele>
						<time>2026-09-03T03:00:05Z</time>
					</trkpt>
					<trkpt lat="44.253410" lon="5.521110">
						<ele>1174</ele>
						<time>2026-09-03T03:00:09Z</time>
					</trkpt>
					<trkpt lat="44.253470" lon="5.521180">
						<ele>1174</ele>
						<time>2026-09-03T03:00:13Z</time>
					</trkpt>
					<trkpt lat="44.253590" lon="5.521590">
						<ele>1175</ele>
						<time>2026-09-03T03:00:29Z</time>
					</trkpt>
					<trkpt lat="44.253670" lon="5.522110">
						<ele>1178</ele>
						<time>2026-09-03T03:00:48Z</time>
					</trkpt>
					<trkpt lat="44.253660" lon="5.522800">
						<ele>1185</ele>
						<time>2026-09-03T03:01:13Z</time>
					</trkpt>
					<trkpt lat="44.253690" lon="5.523080">
						<ele>1188</ele>
						<time>2026-09-03T03:01:23Z</time>
					</trkpt>
					<trkpt lat="44.253650" lon="5.523550">
						<ele>1193</ele>
						<time>2026-09-03T03:01:40Z</time>
					</trkpt>
					<trkpt lat="44.253670" lon="5.524380">
						<ele>1203</ele>
						<time>2026-09-03T03:02:09Z</time>
					</trkpt>
					<trkpt lat="44.253710" lon="5.524800">
						<ele>1208</ele>
						<time>2026-09-03T03:02:25Z</time>
					</trkpt>
					<trkpt lat="44.253820" lon="5.525190">
						<ele>1213</ele>
						<time>2026-09-03T03:02:40Z</time>
					</trkpt>
					<trkpt lat="44.253760" lon="5.527940">
						<ele>1234</ele>
						<time>2026-09-03T03:04:18Z</time>
					</trkpt>
					<trkpt lat="44.253810" lon="5.528300">
						<ele>1236</ele>
						<time>2026-09-03T03:04:31Z</time>
					</trkpt>
					<trkpt lat="44.254060" lon="5.529280">
						<ele>1237</ele>
						<time>2026-09-03T03:05:09Z</time>
					</trkpt>
					<trkpt lat="44.254090" lon="5.529590">
						<ele>1237</ele>
						<time>2026-09-03T03:05:20Z</time>
					</trkpt>
					<trkpt lat="44.254090" lon="5.530180">
						<ele>1237</ele>
						<time>2026-09-03T03:05:41Z</time>
					</trkpt>
					<trkpt lat="44.254160" lon="5.531220">
						<ele>1237</ele>
						<time>2026-09-03T03:06:19Z</time>
					</trkpt>
					<trkpt lat="44.254310" lon="5.532230">
						<ele>1243</ele>
						<time>2026-09-03T03:06:55Z</time>
					</trkpt>
					<trkpt lat="44.254280" lon="5.532480">
						<ele>1248</ele>
						<time>2026-09-03T03:07:05Z</time>
					</trkpt>
					<trkpt lat="44.254290" lon="5.532630">
						<ele>1250</ele>
						<time>2026-09-03T03:07:10Z</time>
					</trkpt>
					<trkpt lat="44.254220" lon="5.533220">
						<ele>1259</ele>
						<time>2026-09-03T03:07:31Z</time>
					</trkpt>
					<trkpt lat="44.254300" lon="5.534030">
						<ele>1268</ele>
						<time>2026-09-03T03:08:01Z</time>
					</trkpt>
					<trkpt lat="44.254230" lon="5.534720">
						<ele>1275</ele>
						<time>2026-09-03T03:08:26Z</time>
					</trkpt>
					<trkpt lat="44.254320" lon="5.535260">
						<ele>1280</ele>
						<time>2026-09-03T03:08:46Z</time>
					</trkpt>
					<trkpt lat="44.254370" lon="5.536250">
						<ele>1292</ele>
						<time>2026-09-03T03:09:21Z</time>
					</trkpt>
					<trkpt lat="44.254360" lon="5.536580">
						<ele>1296</ele>
						<time>2026-09-03T03:09:33Z</time>
					</trkpt>
					<trkpt lat="44.254540" lon="5.538650">
						<ele>1315</ele>
						<time>2026-09-03T03:10:48Z</time>
					</trkpt>
					<trkpt lat="44.254510" lon="5.539140">
						<ele>1318</ele>
						<time>2026-09-03T03:11:05Z</time>
					</trkpt>
					<trkpt lat="44.254550" lon="5.540310">
						<ele>1318</ele>
						<time>2026-09-03T03:11:47Z</time>
					</trkpt>
					<trkpt lat="44.254490" lon="5.540640">
						<ele>1315</ele>
						<time>2026-09-03T03:12:00Z</time>
					</trkpt>
					<trkpt lat="44.254480" lon="5.540840">
						<ele>1315</ele>
						<time>2026-09-03T03:12:07Z</time>
					</trkpt>
					<trkpt lat="44.254500" lon="5.541470">
						<ele>1314</ele>
						<time>2026-09-03T03:12:29Z</time>
					</trkpt>
					<trkpt lat="44.254590" lon="5.542540">
						<ele>1314</ele>
						<time>2026-09-03T03:13:08Z</time>
					</trkpt>
					<trkpt lat="44.254650" lon="5.542890">
						<ele>1316</ele>
						<time>2026-09-03T03:13:21Z</time>
					</trkpt>
					<trkpt lat="44.254620" lon="5.543390">
						<ele>1317</ele>
						<time>2026-09-03T03:13:39Z</time>
					</trkpt>
					<trkpt lat="44.254690" lon="5.543640">
						<ele>1320</ele>
						<time>2026-09-03T03:13:48Z</time>
					</trkpt>
					<trkpt lat="44.254790" lon="5.543800">
						<ele>1325</ele>
						<time>2026-09-03T03:13:56Z</time>
					</trkpt>
					<trkpt lat="44.255060" lon="5.544010">
						<ele>1335</ele>
						<time>2026-09-03T03:14:12Z</time>
					</trkpt>
					<trkpt lat="44.255370" lon="5.544350">
						<ele>1335</ele>
						<time>2026-09-03T03:14:31Z</time>
					</trkpt>
					<trkpt lat="44.255650" lon="5.544840">
						<ele>1340</ele>
						<time>2026-09-03T03:14:54Z</time>
					</trkpt>
					<trkpt lat="44.255730" lon="5.545160">
						<ele>1344</ele>
						<time>2026-09-03T03:15:06Z</time>
					</trkpt>
					<trkpt lat="44.255730" lon="5.545270">
						<ele>1346</ele>
						<time>2026-09-03T03:15:10Z</time>
					</trkpt>
					<trkpt lat="44.255590" lon="5.545970">
						<ele>1352</ele>
						<time>2026-09-03T03:15:36Z</time>
					</trkpt>
					<trkpt lat="44.255290" lon="5.547250">
						<ele>1358</ele>
						<time>2026-09-03T03:16:24Z</time>
					</trkpt>
					<trkpt lat="44.255310" lon="5.547390">
						<ele>1360</ele>
						<time>2026-09-03T03:16:29Z</time>
					</trkpt>
					<trkpt lat="44.255450" lon="5.547870">
						<ele>1366</ele>
						<time>2026-09-03T03:16:48Z</time>
					</trkpt>
					<trkpt lat="44.255510" lon="5.548210">
						<ele>1369</ele>
						<time>2026-09-03T03:17:00Z</time>
					</trkpt>
					<trkpt lat="44.255930" lon="5.549020">
						<ele>1380</ele>
						<time>2026-09-03T03:17:36Z</time>
					</trkpt>
					<trkpt lat="44.255890" lon="5.550900">
						<ele>1372</ele>
						<time>2026-09-03T03:18:44Z</time>
					</trkpt>
					<trkpt lat="44.255940" lon="5.551820">
						<ele>1364</ele>
						<time>2026-09-03T03:19:17Z</time>
					</trkpt>
					<trkpt lat="44.256060" lon="5.552070">
						<ele>1363</ele>
						<time>2026-09-03T03:19:27Z</time>
					</trkpt>
					<trkpt lat="44.256280" lon="5.552680">
						<ele>1361</ele>
						<time>2026-09-03T03:19:52Z</time>
					</trkpt>
					<trkpt lat="44.256480" lon="5.553010">
						<ele>1360</ele>
						<time>2026-09-03T03:20:07Z</time>
					</trkpt>
					<trkpt lat="44.256520" lon="5.553130">
						<ele>1360</ele>
						<time>2026-09-03T03:20:12Z</time>
					</trkpt>
					<trkpt lat="44.256510" lon="5.553390">
						<ele>1357</ele>
						<time>2026-09-03T03:20:22Z</time>
					</trkpt>
					<trkpt lat="44.256530" lon="5.553470">
						<ele>1357</ele>
						<time>2026-09-03T03:20:25Z</time>
					</trkpt>
					<trkpt lat="44.257040" lon="5.554280">
						<ele>1352</ele>
						<time>2026-09-03T03:21:03Z</time>
					</trkpt>
					<trkpt lat="44.257260" lon="5.554520">
						<ele>1350</ele>
						<time>2026-09-03T03:21:17Z</time>
					</trkpt>
					<trkpt lat="44.257410" lon="5.554790">
						<ele>1349</ele>
						<time>2026-09-03T03:21:29Z</time>
					</trkpt>
					<trkpt lat="44.257440" lon="5.554880">
						<ele>1348</ele>
						<time>2026-09-03T03:21:33Z</time>
					</trkpt>
					<trkpt lat="44.257430" lon="5.555360">
						<ele>1348</ele>
						<time>2026-09-03T03:21:50Z</time>
					</trkpt>
					<trkpt lat="44.257450" lon="5.555450">
						<ele>1348</ele>
						<time>2026-09-03T03:21:54Z</time>
					</trkpt>
					<trkpt lat="44.257540" lon="5.555590">
						<ele>1348</ele>
						<time>2026-09-03T03:22:00Z</time>
					</trkpt>
					<trkpt lat="44.257550" lon="5.555650">
						<ele>1348</ele>
						<time>2026-09-03T03:22:03Z</time>
					</trkpt>
					<trkpt lat="44.257320" lon="5.555970">
						<ele>1347</ele>
						<time>2026-09-03T03:22:19Z</time>
					</trkpt>
					<trkpt lat="44.257070" lon="5.556230">
						<ele>1345</ele>
						<time>2026-09-03T03:22:34Z</time>
					</trkpt>
					<trkpt lat="44.256970" lon="5.556370">
						<ele>1343</ele>
						<time>2026-09-03T03:22:41Z</time>
					</trkpt>
					<trkpt lat="44.256490" lon="5.557280">
						<ele>1345</ele>
						<time>2026-09-03T03:23:22Z</time>
					</trkpt>
					<trkpt lat="44.256300" lon="5.557550">
						<ele>1344</ele>
						<time>2026-09-03T03:23:36Z</time>
					</trkpt>
					<trkpt lat="44.256180" lon="5.557660">
						<ele>1342</ele>
						<time>2026-09-03T03:23:43Z</time>
					</trkpt>
					<trkpt lat="44.255970" lon="5.557920">
						<ele>1338</ele>
						<time>2026-09-03T03:23:57Z</time>
					</trkpt>
					<trkpt lat="44.255740" lon="5.558390">
						<ele>1333</ele>
						<time>2026-09-03T03:24:17Z</time>
					</trkpt>
					<trkpt lat="44.255650" lon="5.558720">
						<ele>1328</ele>
						<time>2026-09-03T03:24:30Z</time>
					</trkpt>
					<trkpt lat="44.255580" lon="5.559410">
						<ele>1324</ele>
						<time>2026-09-03T03:24:55Z</time>
					</trkpt>
					<trkpt lat="44.255550" lon="5.559820">
						<ele>1322</ele>
						<time>2026-09-03T03:25:10Z</time>
					</trkpt>
					<trkpt lat="44.255580" lon="5.560410">
						<ele>1324</ele>
						<time>2026-09-03T03:25:31Z</time>
					</trkpt>
					<trkpt lat="44.255550" lon="5.560640">
						<ele>1322</ele>
						<time>2026-09-03T03:25:39Z</time>
					</trkpt>
					<trkpt lat="44.255300" lon="5.561530">
						<ele>1312</ele>
						<time>2026-09-03T03:26:13Z</time>
					</trkpt>
					<trkpt lat="44.254940" lon="5.562470">
						<ele>1303</ele>
						<time>2026-09-03T03:26:52Z</time>
					</trkpt>
					<trkpt lat="44.254790" lon="5.563700">
						<ele>1309</ele>
						<time>2026-09-03T03:27:36Z</time>
					</trkpt>
					<trkpt lat="44.254140" lon="5.565510">
						<ele>1294</ele>
						<time>2026-09-03T03:28:49Z</time>
					</trkpt>
					<trkpt lat="44.253950" lon="5.565890">
						<ele>1293</ele>
						<time>2026-09-03T03:29:06Z</time>
					</trkpt>
					<trkpt lat="44.253700" lon="5.566280">
						<ele>1288</ele>
						<time>2026-09-03T03:29:24Z</time>
					</trkpt>
					<trkpt lat="44.253090" lon="5.567830">
						<ele>1279</ele>
						<time>2026-09-03T03:30:28Z</time>
					</trkpt>
					<trkpt lat="44.252990" lon="5.568170">
						<ele>1276</ele>
						<time>2026-09-03T03:30:41Z</time>
					</trkpt>
					<trkpt lat="44.252920" lon="5.569120">
						<ele>1275</ele>
						<time>2026-09-03T03:31:15Z</time>
					</trkpt>
					<trkpt lat="44.252800" lon="5.569710">
						<ele>1272</ele>
						<time>2026-09-03T03:31:37Z</time>
					</trkpt>
					<trkpt lat="44.252810" lon="5.570070">
						<ele>1273</ele>
						<time>2026-09-03T03:31:50Z</time>
					</trkpt>
					<trkpt lat="44.252850" lon="5.570220">
						<ele>1275</ele>
						<time>2026-09-03T03:31:56Z</time>
					</trkpt>
					<trkpt lat="44.252890" lon="5.570620">
						<ele>1276</ele>
						<time>2026-09-03T03:32:10Z</time>
					</trkpt>
					<trkpt lat="44.252860" lon="5.571010">
						<ele>1273</ele>
						<time>2026-09-03T03:32:24Z</time>
					</trkpt>
					<trkpt lat="44.252860" lon="5.571590">
						<ele>1269</ele>
						<time>2026-09-03T03:32:45Z</time>
					</trkpt>
					<trkpt lat="44.252890" lon="5.571970">
						<ele>1268</ele>
						<time>2026-09-03T03:32:59Z</time>
					</trkpt>
					<trkpt lat="44.252880" lon="5.572100">
						<ele>1267</ele>
						<time>2026-09-03T03:33:03Z</time>
					</trkpt>
					<trkpt lat="44.252820" lon="5.572300">
						<ele>1264</ele>
						<time>2026-09-03T03:33:11Z</time>
					</trkpt>
					<trkpt lat="44.252860" lon="5.572590">
						<ele>1264</ele>
						<time>2026-09-03T03:33:22Z</time>
					</trkpt>
					<trkpt lat="44.252760" lon="5.572910">
						<ele>1260</ele>
						<time>2026-09-03T03:33:34Z</time>
					</trkpt>
					<trkpt lat="44.252720" lon="5.573160">
						<ele>1258</ele>
						<time>2026-09-03T03:33:43Z</time>
					</trkpt>
					<trkpt lat="44.252780" lon="5.573400">
						<ele>1258</ele>
						<time>2026-09-03T03:33:53Z</time>
					</trkpt>
					<trkpt lat="44.252910" lon="5.573620">
						<ele>1258</ele>
						<time>2026-09-03T03:34:03Z</time>
					</trkpt>
					<trkpt lat="44.252910" lon="5.573740">
						<ele>1256</ele>
						<time>2026-09-03T03:34:07Z</time>
					</trkpt>
					<trkpt lat="44.253090" lon="5.573900">
						<ele>1256</ele>
						<time>2026-09-03T03:34:18Z</time>
					</trkpt>
					<trkpt lat="44.253210" lon="5.574100">
						<ele>1254</ele>
						<time>2026-09-03T03:34:27Z</time>
					</trkpt>
					<trkpt lat="44.253270" lon="5.574290">
						<ele>1252</ele>
						<time>2026-09-03T03:34:35Z</time>
					</trkpt>
					<trkpt lat="44.253330" lon="5.574720">
						<ele>1247</ele>
						<time>2026-09-03T03:34:50Z</time>
					</trkpt>
					<trkpt lat="44.253520" lon="5.575260">
						<ele>1245</ele>
						<time>2026-09-03T03:35:12Z</time>
					</trkpt>
					<trkpt lat="44.253520" lon="5.575320">
						<ele>1244</ele>
						<time>2026-09-03T03:35:14Z</time>
					</trkpt>
					<trkpt lat="44.253740" lon="5.575710">
						<ele>1244</ele>
						<time>2026-09-03T03:35:32Z</time>
					</trkpt>
					<trkpt lat="44.254220" lon="5.576430">
						<ele>1240</ele>
						<time>2026-09-03T03:36:07Z</time>
					</trkpt>
					<trkpt lat="44.254360" lon="5.576580">
						<ele>1239</ele>
						<time>2026-09-03T03:36:16Z</time>
					</trkpt>
					<trkpt lat="44.254840" lon="5.576920">
						<ele>1241</ele>
						<time>2026-09-03T03:36:43Z</time>
					</trkpt>
					<trkpt lat="44.254910" lon="5.577040">
						<ele>1241</ele>
						<time>2026-09-03T03:36:48Z</time>
					</trkpt>
					<trkpt lat="44.254950" lon="5.577200">
						<ele>1238</ele>
						<time>2026-09-03T03:36:54Z</time>
					</trkpt>
					<trkpt lat="44.255080" lon="5.577410">
						<ele>1237</ele>
						<time>2026-09-03T03:37:04Z</time>
					</trkpt>
					<trkpt lat="44.255110" lon="5.577730">
						<ele>1232</ele>
						<time>2026-09-03T03:37:16Z</time>
					</trkpt>
					<trkpt lat="44.255160" lon="5.577900">
						<ele>1230</ele>
						<time>2026-09-03T03:37:23Z</time>
					</trkpt>
					<trkpt lat="44.255190" lon="5.578260">
						<ele>1225</ele>
						<time>2026-09-03T03:37:36Z</time>
					</trkpt>
					<trkpt lat="44.255310" lon="5.578620">
						<ele>1221</ele>
						<time>2026-09-03T03:37:50Z</time>
					</trkpt>
					<trkpt lat="44.255370" lon="5.578730">
						<ele>1220</ele>
						<time>2026-09-03T03:37:55Z</time>
					</trkpt>
					<trkpt lat="44.255410" lon="5.578790">
						<ele>1220</ele>
						<time>2026-09-03T03:37:58Z</time>
					</trkpt>
					<trkpt lat="44.256010" lon="5.579130">
						<ele>1222</ele>
						<time>2026-09-03T03:38:30Z</time>
					</trkpt>
					<trkpt lat="44.256200" lon="5.579060">
						<ele>1224</ele>
						<time>2026-09-03T03:38:40Z</time>
					</trkpt>
					<trkpt lat="44.256310" lon="5.579100">
						<ele>1224</ele>
						<time>2026-09-03T03:38:46Z</time>
					</trkpt>
					<trkpt lat="44.256370" lon="5.579220">
						<ele>1222</ele>
						<time>2026-09-03T03:38:51Z</time>
					</trkpt>
					<trkpt lat="44.256510" lon="5.579680">
						<ele>1213</ele>
						<time>2026-09-03T03:39:09Z</time>
					</trkpt>
					<trkpt lat="44.256500" lon="5.579810">
						<ele>1210</ele>
						<time>2026-09-03T03:39:13Z</time>
					</trkpt>
					<trkpt lat="44.256460" lon="5.579870">
						<ele>1209</ele>
						<time>2026-09-03T03:39:16Z</time>
					</trkpt>
					<trkpt lat="44.256360" lon="5.579870">
						<ele>1208</ele>
						<time>2026-09-03T03:39:21Z</time>
					</trkpt>
					<trkpt lat="44.256150" lon="5.579590">
						<ele>1213</ele>
						<time>2026-09-03T03:39:36Z</time>
					</trkpt>
					<trkpt lat="44.256100" lon="5.579560">
						<ele>1213</ele>
						<time>2026-09-03T03:39:39Z</time>
					</trkpt>
					<trkpt lat="44.256050" lon="5.579600">
						<ele>1212</ele>
						<time>2026-09-03T03:39:42Z</time>
					</trkpt>
					<trkpt lat="44.256020" lon="5.579730">
						<ele>1209</ele>
						<time>2026-09-03T03:39:46Z</time>
					</trkpt>
					<trkpt lat="44.256040" lon="5.579890">
						<ele>1205</ele>
						<time>2026-09-03T03:39:52Z</time>
					</trkpt>
					<trkpt lat="44.255990" lon="5.580360">
						<ele>1196</ele>
						<time>2026-09-03T03:40:09Z</time>
					</trkpt>
					<trkpt lat="44.256010" lon="5.580500">
						<ele>1194</ele>
						<time>2026-09-03T03:40:14Z</time>
					</trkpt>
					<trkpt lat="44.256080" lon="5.580570">
						<ele>1193</ele>
						<time>2026-09-03T03:40:19Z</time>
					</trkpt>
					<trkpt lat="44.256470" lon="5.580570">
						<ele>1197</ele>
						<time>2026-09-03T03:40:38Z</time>
					</trkpt>
					<trkpt lat="44.256510" lon="5.580650">
						<ele>1196</ele>
						<time>2026-09-03T03:40:42Z</time>
					</trkpt>
					<trkpt lat="44.256390" lon="5.580930">
						<ele>1190</ele>
						<time>2026-09-03T03:40:53Z</time>
					</trkpt>
					<trkpt lat="44.256390" lon="5.581040">
						<ele>1189</ele>
						<time>2026-09-03T03:40:57Z</time>
					</trkpt>
					<trkpt lat="44.256460" lon="5.581140">
						<ele>1189</ele>
						<time>2026-09-03T03:41:02Z</time>
					</trkpt>
					<trkpt lat="44.256540" lon="5.581200">
						<ele>1189</ele>
						<time>2026-09-03T03:41:07Z</time>
					</trkpt>
					<trkpt lat="44.256830" lon="5.581300">
						<ele>1193</ele>
						<time>2026-09-03T03:41:22Z</time>
					</trkpt>
					<trkpt lat="44.256940" lon="5.581300">
						<ele>1195</ele>
						<time>2026-09-03T03:41:27Z</time>
					</trkpt>
					<trkpt lat="44.257010" lon="5.581270">
						<ele>1197</ele>
						<time>2026-09-03T03:41:31Z</time>
					</trkpt>
					<trkpt lat="44.257070" lon="5.581360">
						<ele>1197</ele>
						<time>2026-09-03T03:41:35Z</time>
					</trkpt>
					<trkpt lat="44.257060" lon="5.581460">
						<ele>1197</ele>
						<time>2026-09-03T03:41:39Z</time>
					</trkpt>
					<trkpt lat="44.257020" lon="5.581520">
						<ele>1196</ele>
						<time>2026-09-03T03:41:42Z</time>
					</trkpt>
					<trkpt lat="44.256780" lon="5.581690">
						<ele>1188</ele>
						<time>2026-09-03T03:41:55Z</time>
					</trkpt>
					<trkpt lat="44.256670" lon="5.581840">
						<ele>1186</ele>
						<time>2026-09-03T03:42:03Z</time>
					</trkpt>
					<trkpt lat="44.256600" lon="5.581880">
						<ele>1185</ele>
						<time>2026-09-03T03:42:07Z</time>
					</trkpt>
					<trkpt lat="44.256390" lon="5.581920">
						<ele>1182</ele>
						<time>2026-09-03T03:42:18Z</time>
					</trkpt>
					<trkpt lat="44.255920" lon="5.582150">
						<ele>1175</ele>
						<time>2026-09-03T03:42:42Z</time>
					</trkpt>
					<trkpt lat="44.255880" lon="5.582200">
						<ele>1174</ele>
						<time>2026-09-03T03:42:45Z</time>
					</trkpt>
					<trkpt lat="44.255890" lon="5.582320">
						<ele>1174</ele>
						<time>2026-09-03T03:42:49Z</time>
					</trkpt>
					<trkpt lat="44.255970" lon="5.582600">
						<ele>1175</ele>
						<time>2026-09-03T03:43:00Z</time>
					</trkpt>
					<trkpt lat="44.256040" lon="5.583170">
						<ele>1174</ele>
						<time>2026-09-03T03:43:21Z</time>
					</trkpt>
					<trkpt lat="44.256130" lon="5.583460">
						<ele>1176</ele>
						<time>2026-09-03T03:43:32Z</time>
					</trkpt>
					<trkpt lat="44.256110" lon="5.583590">
						<ele>1176</ele>
						<time>2026-09-03T03:43:37Z</time>
					</trkpt>
					<trkpt lat="44.255920" lon="5.584140">
						<ele>1172</ele>
						<time>2026-09-03T03:43:59Z</time>
					</trkpt>
					<trkpt lat="44.255360" lon="5.584880">
						<ele>1165</ele>
						<time>2026-09-03T03:44:38Z</time>
					</trkpt>
					<trkpt lat="44.255130" lon="5.585100">
						<ele>1156</ele>
						<time>2026-09-03T03:44:52Z</time>
					</trkpt>
					<trkpt lat="44.254960" lon="5.585220">
						<ele>1149</ele>
						<time>2026-09-03T03:45:01Z</time>
					</trkpt>
					<trkpt lat="44.254870" lon="5.585230">
						<ele>1146</ele>
						<time>2026-09-03T03:45:06Z</time>
					</trkpt>
					<trkpt lat="44.254760" lon="5.585160">
						<ele>1144</ele>
						<time>2026-09-03T03:45:12Z</time>
					</trkpt>
					<trkpt lat="44.254640" lon="5.584910">
						<ele>1141</ele>
						<time>2026-09-03T03:45:22Z</time>
					</trkpt>
					<trkpt lat="44.254570" lon="5.584830">
						<ele>1139</ele>
						<time>2026-09-03T03:45:27Z</time>
					</trkpt>
					<trkpt lat="44.254510" lon="5.584800">
						<ele>1137</ele>
						<time>2026-09-03T03:45:30Z</time>
					</trkpt>
					<trkpt lat="44.254480" lon="5.584800">
						<ele>1136</ele>
						<time>2026-09-03T03:45:32Z</time>
					</trkpt>
					<trkpt lat="44.254260" lon="5.585040">
						<ele>1130</ele>
						<time>2026-09-03T03:45:46Z</time>
					</trkpt>
					<trkpt lat="44.254110" lon="5.585470">
						<ele>1124</ele>
						<time>2026-09-03T03:46:03Z</time>
					</trkpt>
					<trkpt lat="44.254110" lon="5.585580">
						<ele>1123</ele>
						<time>2026-09-03T03:46:07Z</time>
					</trkpt>
					<trkpt lat="44.254150" lon="5.585630">
						<ele>1124</ele>
						<time>2026-09-03T03:46:09Z</time>
					</trkpt>
					<trkpt lat="44.254480" lon="5.585810">
						<ele>1132</ele>
						<time>2026-09-03T03:46:27Z</time>
					</trkpt>
					<trkpt lat="44.254670" lon="5.586110">
						<ele>1134</ele>
						<time>2026-09-03T03:46:41Z</time>
					</trkpt>
					<trkpt lat="44.254680" lon="5.586200">
						<ele>1134</ele>
						<time>2026-09-03T03:46:45Z</time>
					</trkpt>
					<trkpt lat="44.254630" lon="5.586470">
						<ele>1129</ele>
						<time>2026-09-03T03:46:55Z</time>
					</trkpt>
					<trkpt lat="44.254560" lon="5.586490">
						<ele>1126</ele>
						<time>2026-09-03T03:46:58Z</time>
					</trkpt>
					<trkpt lat="44.254080" lon="5.586150">
						<ele>1116</ele>
						<time>2026-09-03T03:47:25Z</time>
					</trkpt>
					<trkpt lat="44.254040" lon="5.586210">
						<ele>1114</ele>
						<time>2026-09-03T03:47:28Z</time>
					</trkpt>
					<trkpt lat="44.254050" lon="5.586450">
						<ele>1110</ele>
						<time>2026-09-03T03:47:37Z</time>
					</trkpt>
					<trkpt lat="44.253970" lon="5.586710">
						<ele>1104</ele>
						<time>2026-09-03T03:47:47Z</time>
					</trkpt>
					<trkpt lat="44.254010" lon="5.586770">
						<ele>1104</ele>
						<time>2026-09-03T03:47:50Z</time>
					</trkpt>
					<trkpt lat="44.254240" lon="5.586970">
						<ele>1107</ele>
						<time>2026-09-03T03:48:03Z</time>
					</trkpt>
					<trkpt lat="44.254280" lon="5.587040">
						<ele>1108</ele>
						<time>2026-09-03T03:48:07Z</time>
					</trkpt>
					<trkpt lat="44.254310" lon="5.587280">
						<ele>1105</ele>
						<time>2026-09-03T03:48:15Z</time>
					</trkpt>
					<trkpt lat="44.254280" lon="5.587530">
						<ele>1100</ele>
						<time>2026-09-03T03:48:24Z</time>
					</trkpt>
					<trkpt lat="44.254270" lon="5.588060">
						<ele>1091</ele>
						<time>2026-09-03T03:48:43Z</time>
					</trkpt>
					<trkpt lat="44.254310" lon="5.588280">
						<ele>1088</ele>
						<time>2026-09-03T03:48:52Z</time>
					</trkpt>
					<trkpt lat="44.254340" lon="5.588400">
						<ele>1087</ele>
						<time>2026-09-03T03:48:56Z</time>
					</trkpt>
					<trkpt lat="44.254530" lon="5.588710">
						<ele>1087</ele>
						<time>2026-09-03T03:49:11Z</time>
					</trkpt>
					<trkpt lat="44.254880" lon="5.589650">
						<ele>1076</ele>
						<time>2026-09-03T03:49:49Z</time>
					</trkpt>
					<trkpt lat="44.255060" lon="5.589880">
						<ele>1078</ele>
						<time>2026-09-03T03:50:01Z</time>
					</trkpt>
					<trkpt lat="44.255260" lon="5.590880">
						<ele>1074</ele>
						<time>2026-09-03T03:50:38Z</time>
					</trkpt>
					<trkpt lat="44.255290" lon="5.591350">
						<ele>1065</ele>
						<time>2026-09-03T03:50:55Z</time>
					</trkpt>
					<trkpt lat="44.255410" lon="5.591820">
						<ele>1059</ele>
						<time>2026-09-03T03:51:13Z</time>
					</trkpt>
					<trkpt lat="44.255580" lon="5.592220">
						<ele>1055</ele>
						<time>2026-09-03T03:51:30Z</time>
					</trkpt>
					<trkpt lat="44.255700" lon="5.592580">
						<ele>1050</ele>
						<time>2026-09-03T03:51:44Z</time>
					</trkpt>
					<trkpt lat="44.255820" lon="5.592830">
						<ele>1049</ele>
						<time>2026-09-03T03:51:55Z</time>
					</trkpt>
					<trkpt lat="44.256000" lon="5.593110">
						<ele>1048</ele>
						<time>2026-09-03T03:52:08Z</time>
					</trkpt>
					<trkpt lat="44.256220" lon="5.593290">
						<ele>1050</ele>
						<time>2026-09-03T03:52:21Z</time>
					</trkpt>
					<trkpt lat="44.256210" lon="5.593360">
						<ele>1048</ele>
						<time>2026-09-03T03:52:23Z</time>
					</trkpt>
					<trkpt lat="44.256170" lon="5.593410">
						<ele>1047</ele>
						<time>2026-09-03T03:52:26Z</time>
					</trkpt>
					<trkpt lat="44.256040" lon="5.593520">
						<ele>1042</ele>
						<time>2026-09-03T03:52:34Z</time>
					</trkpt>
					<trkpt lat="44.255910" lon="5.593580">
						<ele>1039</ele>
						<time>2026-09-03T03:52:41Z</time>
					</trkpt>
					<trkpt lat="44.256000" lon="5.594040">
						<ele>1034</ele>
						<time>2026-09-03T03:52:58Z</time>
					</trkpt>
					<trkpt lat="44.256080" lon="5.594100">
						<ele>1034</ele>
						<time>2026-09-03T03:53:02Z</time>
					</trkpt>
					<trkpt lat="44.256130" lon="5.594090">
						<ele>1036</ele>
						<time>2026-09-03T03:53:05Z</time>
					</trkpt>
					<trkpt lat="44.256350" lon="5.593940">
						<ele>1043</ele>
						<time>2026-09-03T03:53:17Z</time>
					</trkpt>
					<trkpt lat="44.256670" lon="5.593850">
						<ele>1051</ele>
						<time>2026-09-03T03:53:33Z</time>
					</trkpt>
					<trkpt lat="44.257000" lon="5.593880">
						<ele>1056</ele>
						<time>2026-09-03T03:53:50Z</time>
					</trkpt>
					<trkpt lat="44.257170" lon="5.593950">
						<ele>1058</ele>
						<time>2026-09-03T03:53:59Z</time>
					</trkpt>
					<trkpt lat="44.257310" lon="5.594170">
						<ele>1057</ele>
						<time>2026-09-03T03:54:09Z</time>
					</trkpt>
					<trkpt lat="44.257370" lon="5.594760">
						<ele>1047</ele>
						<time>2026-09-03T03:54:31Z</time>
					</trkpt>
					<trkpt lat="44.257450" lon="5.594960">
						<ele>1045</ele>
						<time>2026-09-03T03:54:39Z</time>
					</trkpt>
					<trkpt lat="44.257540" lon="5.595090">
						<ele>1044</ele>
						<time>2026-09-03T03:54:45Z</time>
					</trkpt>
					<trkpt lat="44.257600" lon="5.595130">
						<ele>1044</ele>
						<time>2026-09-03T03:54:49Z</time>
					</trkpt>
					<trkpt lat="44.257680" lon="5.595140">
						<ele>1046</ele>
						<time>2026-09-03T03:54:53Z</time>
					</trkpt>
					<trkpt lat="44.257890" lon="5.595040">
						<ele>1053</ele>
						<time>2026-09-03T03:55:04Z</time>
					</trkpt>
					<trkpt lat="44.258000" lon="5.595030">
						<ele>1055</ele>
						<time>2026-09-03T03:55:09Z</time>
					</trkpt>
					<trkpt lat="44.258300" lon="5.595180">
						<ele>1058</ele>
						<time>2026-09-03T03:55:25Z</time>
					</trkpt>
					<trkpt lat="44.258420" lon="5.595280">
						<ele>1060</ele>
						<time>2026-09-03T03:55:32Z</time>
					</trkpt>
					<trkpt lat="44.258730" lon="5.595730">
						<ele>1058</ele>
						<time>2026-09-03T03:55:55Z</time>
					</trkpt>
					<trkpt lat="44.259920" lon="5.596520">
						<ele>1060</ele>
						<time>2026-09-03T03:57:01Z</time>
					</trkpt>
					<trkpt lat="44.260450" lon="5.597110">
						<ele>1052</ele>
						<time>2026-09-03T03:57:35Z</time>
					</trkpt>
					<trkpt lat="44.260510" lon="5.597150">
						<ele>1051</ele>
						<time>2026-09-03T03:57:38Z</time>
					</trkpt>
					<trkpt lat="44.260660" lon="5.597140">
						<ele>1052</ele>
						<time>2026-09-03T03:57:45Z</time>
					</trkpt>
					<trkpt lat="44.260860" lon="5.597040">
						<ele>1055</ele>
						<time>2026-09-03T03:57:56Z</time>
					</trkpt>
					<trkpt lat="44.261190" lon="5.596790">
						<ele>1055</ele>
						<time>2026-09-03T03:58:15Z</time>
					</trkpt>
					<trkpt lat="44.261380" lon="5.596570">
						<ele>1054</ele>
						<time>2026-09-03T03:58:27Z</time>
					</trkpt>
					<trkpt lat="44.261460" lon="5.596440">
						<ele>1054</ele>
						<time>2026-09-03T03:58:33Z</time>
					</trkpt>
					<trkpt lat="44.261550" lon="5.596190">
						<ele>1055</ele>
						<time>2026-09-03T03:58:43Z</time>
					</trkpt>
					<trkpt lat="44.261780" lon="5.595360">
						<ele>1059</ele>
						<time>2026-09-03T03:59:15Z</time>
					</trkpt>
					<trkpt lat="44.261850" lon="5.595280">
						<ele>1059</ele>
						<time>2026-09-03T03:59:20Z</time>
					</trkpt>
					<trkpt lat="44.261960" lon="5.595230">
						<ele>1059</ele>
						<time>2026-09-03T03:59:26Z</time>
					</trkpt>
					<trkpt lat="44.262210" lon="5.595240">
						<ele>1057</ele>
						<time>2026-09-03T03:59:38Z</time>
					</trkpt>
					<trkpt lat="44.262320" lon="5.595260">
						<ele>1056</ele>
						<time>2026-09-03T03:59:44Z</time>
					</trkpt>
					<trkpt lat="44.262670" lon="5.595410">
						<ele>1053</ele>
						<time>2026-09-03T04:00:02Z</time>
					</trkpt>
					<trkpt lat="44.262780" lon="5.595500">
						<ele>1052</ele>
						<time>2026-09-03T04:00:08Z</time>
					</trkpt>
					<trkpt lat="44.262990" lon="5.595780">
						<ele>1051</ele>
						<time>2026-09-03T04:00:23Z</time>
					</trkpt>
					<trkpt lat="44.263190" lon="5.596140">
						<ele>1052</ele>
						<time>2026-09-03T04:00:39Z</time>
					</trkpt>
					<trkpt lat="44.263260" lon="5.596410">
						<ele>1053</ele>
						<time>2026-09-03T04:00:49Z</time>
					</trkpt>
					<trkpt lat="44.263330" lon="5.596900">
						<ele>1055</ele>
						<time>2026-09-03T04:01:07Z</time>
					</trkpt>
					<trkpt lat="44.263670" lon="5.597860">
						<ele>1065</ele>
						<time>2026-09-03T04:01:46Z</time>
					</trkpt>
					<trkpt lat="44.263730" lon="5.598730">
						<ele>1071</ele>
						<time>2026-09-03T04:02:17Z</time>
					</trkpt>
					<trkpt lat="44.263850" lon="5.599180">
						<ele>1076</ele>
						<time>2026-09-03T04:02:34Z</time>
					</trkpt>
					<trkpt lat="44.263870" lon="5.599360">
						<ele>1077</ele>
						<time>2026-09-03T04:02:41Z</time>
					</trkpt>
					<trkpt lat="44.263910" lon="5.599440">
						<ele>1077</ele>
						<time>2026-09-03T04:02:44Z</time>
					</trkpt>
					<trkpt lat="44.263990" lon="5.600220">
						<ele>1082</ele>
						<time>2026-09-03T04:03:13Z</time>
					</trkpt>
					<trkpt lat="44.264100" lon="5.600530">
						<ele>1085</ele>
						<time>2026-09-03T04:03:25Z</time>
					</trkpt>
					<trkpt lat="44.264130" lon="5.601050">
						<ele>1091</ele>
						<time>2026-09-03T04:03:44Z</time>
					</trkpt>
					<trkpt lat="44.264100" lon="5.601650">
						<ele>1100</ele>
						<time>2026-09-03T04:04:05Z</time>
					</trkpt>
					<trkpt lat="44.264000" lon="5.601840">
						<ele>1104</ele>
						<time>2026-09-03T04:04:14Z</time>
					</trkpt>
					<trkpt lat="44.263760" lon="5.602720">
						<ele>1119</ele>
						<time>2026-09-03T04:04:47Z</time>
					</trkpt>
					<trkpt lat="44.263770" lon="5.603350">
						<ele>1128</ele>
						<time>2026-09-03T04:05:10Z</time>
					</trkpt>
					<trkpt lat="44.263820" lon="5.603580">
						<ele>1131</ele>
						<time>2026-09-03T04:05:19Z</time>
					</trkpt>
					<trkpt lat="44.263800" lon="5.603670">
						<ele>1131</ele>
						<time>2026-09-03T04:05:22Z</time>
					</trkpt>
					<trkpt lat="44.263750" lon="5.603720">
						<ele>1132</ele>
						<time>2026-09-03T04:05:25Z</time>
					</trkpt>
					<trkpt lat="44.263760" lon="5.604020">
						<ele>1135</ele>
						<time>2026-09-03T04:05:36Z</time>
					</trkpt>
					<trkpt lat="44.263810" lon="5.604200">
						<ele>1137</ele>
						<time>2026-09-03T04:05:43Z</time>
					</trkpt>
					<trkpt lat="44.263810" lon="5.604350">
						<ele>1139</ele>
						<time>2026-09-03T04:05:48Z</time>
					</trkpt>
					<trkpt lat="44.263710" lon="5.604620">
						<ele>1140</ele>
						<time>2026-09-03T04:05:59Z</time>
					</trkpt>
					<trkpt lat="44.263690" lon="5.604980">
						<ele>1144</ele>
						<time>2026-09-03T04:06:12Z</time>
					</trkpt>
					<trkpt lat="44.263600" lon="5.605340">
						<ele>1149</ele>
						<time>2026-09-03T04:06:26Z</time>
					</trkpt>
					<trkpt lat="44.263540" lon="5.605420">
						<ele>1149</ele>
						<time>2026-09-03T04:06:30Z</time>
					</trkpt>
					<trkpt lat="44.263500" lon="5.605550">
						<ele>1150</ele>
						<time>2026-09-03T04:06:35Z</time>
					</trkpt>
					<trkpt lat="44.263170" lon="5.606260">
						<ele>1160</ele>
						<time>2026-09-03T04:07:05Z</time>
					</trkpt>
					<trkpt lat="44.262760" lon="5.607590">
						<ele>1176</ele>
						<time>2026-09-03T04:07:57Z</time>
					</trkpt>
					<trkpt lat="44.262500" lon="5.608070">
						<ele>1180</ele>
						<time>2026-09-03T04:08:19Z</time>
					</trkpt>
					<trkpt lat="44.262090" lon="5.609300">
						<ele>1198</ele>
						<time>2026-09-03T04:09:07Z</time>
					</trkpt>
					<trkpt lat="44.261920" lon="5.609600">
						<ele>1201</ele>
						<time>2026-09-03T04:09:21Z</time>
					</trkpt>
					<trkpt lat="44.261860" lon="5.610180">
						<ele>1208</ele>
						<time>2026-09-03T04:09:42Z</time>
					</trkpt>
					<trkpt lat="44.261540" lon="5.610440">
						<ele>1210</ele>
						<time>2026-09-03T04:10:00Z</time>
					</trkpt>
					<trkpt lat="44.261480" lon="5.610580">
						<ele>1212</ele>
						<time>2026-09-03T04:10:06Z</time>
					</trkpt>
					<trkpt lat="44.261430" lon="5.610790">
						<ele>1214</ele>
						<time>2026-09-03T04:10:14Z</time>
					</trkpt>
					<trkpt lat="44.261590" lon="5.611400">
						<ele>1211</ele>
						<time>2026-09-03T04:10:37Z</time>
					</trkpt>
					<trkpt lat="44.261670" lon="5.611590">
						<ele>1210</ele>
						<time>2026-09-03T04:10:45Z</time>
					</trkpt>
					<trkpt lat="44.261800" lon="5.611750">
						<ele>1211</ele>
						<time>2026-09-03T04:10:54Z</time>
					</trkpt>
					<trkpt lat="44.261870" lon="5.612040">
						<ele>1209</ele>
						<time>2026-09-03T04:11:05Z</time>
					</trkpt>
					<trkpt lat="44.261990" lon="5.612300">
						<ele>1208</ele>
						<time>2026-09-03T04:11:16Z</time>
					</trkpt>
					<trkpt lat="44.262010" lon="5.612410">
						<ele>1207</ele>
						<time>2026-09-03T04:11:20Z</time>
					</trkpt>
					<trkpt lat="44.261990" lon="5.612840">
						<ele>1201</ele>
						<time>2026-09-03T04:11:36Z</time>
					</trkpt>
					<trkpt lat="44.262110" lon="5.613200">
						<ele>1200</ele>
						<time>2026-09-03T04:11:50Z</time>
					</trkpt>
					<trkpt lat="44.262230" lon="5.613460">
						<ele>1201</ele>
						<time>2026-09-03T04:12:01Z</time>
					</trkpt>
					<trkpt lat="44.262250" lon="5.613570">
						<ele>1201</ele>
						<time>2026-09-03T04:12:05Z</time>
					</trkpt>
					<trkpt lat="44.262220" lon="5.614480">
						<ele>1194</ele>
						<time>2026-09-03T04:12:38Z</time>
					</trkpt>
					<trkpt lat="44.262080" lon="5.614920">
						<ele>1187</ele>
						<time>2026-09-03T04:12:55Z</time>
					</trkpt>
					<trkpt lat="44.262060" lon="5.615120">
						<ele>1184</ele>
						<time>2026-09-03T04:13:02Z</time>
					</trkpt>
					<trkpt lat="44.262350" lon="5.616310">
						<ele>1183</ele>
						<time>2026-09-03T04:13:47Z</time>
					</trkpt>
					<trkpt lat="44.262320" lon="5.618130">
						<ele>1164</ele>
						<time>2026-09-03T04:14:52Z</time>
					</trkpt>
					<trkpt lat="44.262340" lon="5.618330">
						<ele>1163</ele>
						<time>2026-09-03T04:15:00Z</time>
					</trkpt>
					<trkpt lat="44.262440" lon="5.618760">
						<ele>1164</ele>
						<time>2026-09-03T04:15:16Z</time>
					</trkpt>
					<trkpt lat="44.262420" lon="5.619640">
						<ele>1155</ele>
						<time>2026-09-03T04:15:47Z</time>
					</trkpt>
					<trkpt lat="44.262450" lon="5.620000">
						<ele>1153</ele>
						<time>2026-09-03T04:16:00Z</time>
					</trkpt>
					<trkpt lat="44.262330" lon="5.620590">
						<ele>1152</ele>
						<time>2026-09-03T04:16:22Z</time>
					</trkpt>
					<trkpt lat="44.262290" lon="5.620680">
						<ele>1151</ele>
						<time>2026-09-03T04:16:26Z</time>
					</trkpt>
					<trkpt lat="44.262250" lon="5.621060">
						<ele>1153</ele>
						<time>2026-09-03T04:16:40Z</time>
					</trkpt>
					<trkpt lat="44.262110" lon="5.621440">
						<ele>1155</ele>
						<time>2026-09-03T04:16:55Z</time>
					</trkpt>
					<trkpt lat="44.262010" lon="5.621510">
						<ele>1156</ele>
						<time>2026-09-03T04:17:01Z</time>
					</trkpt>
					<trkpt lat="44.261910" lon="5.621510">
						<ele>1155</ele>
						<time>2026-09-03T04:17:06Z</time>
					</trkpt>
					<trkpt lat="44.261740" lon="5.621450">
						<ele>1154</ele>
						<time>2026-09-03T04:17:15Z</time>
					</trkpt>
					<trkpt lat="44.261690" lon="5.621460">
						<ele>1154</ele>
						<time>2026-09-03T04:17:17Z</time>
					</trkpt>
					<trkpt lat="44.261670" lon="5.621500">
						<ele>1155</ele>
						<time>2026-09-03T04:17:19Z</time>
					</trkpt>
					<trkpt lat="44.261710" lon="5.621610">
						<ele>1158</ele>
						<time>2026-09-03T04:17:23Z</time>
					</trkpt>
					<trkpt lat="44.261990" lon="5.621810">
						<ele>1160</ele>
						<time>2026-09-03T04:17:39Z</time>
					</trkpt>
					<trkpt lat="44.262220" lon="5.621910">
						<ele>1160</ele>
						<time>2026-09-03T04:17:51Z</time>
					</trkpt>
					<trkpt lat="44.262330" lon="5.621930">
						<ele>1158</ele>
						<time>2026-09-03T04:17:57Z</time>
					</trkpt>
					<trkpt lat="44.262410" lon="5.621900">
						<ele>1157</ele>
						<time>2026-09-03T04:18:01Z</time>
					</trkpt>
					<trkpt lat="44.262410" lon="5.622510">
						<ele>1160</ele>
						<time>2026-09-03T04:18:23Z</time>
					</trkpt>
					<trkpt lat="44.262560" lon="5.623430">
						<ele>1162</ele>
						<time>2026-09-03T04:18:57Z</time>
					</trkpt>
					<trkpt lat="44.262630" lon="5.624180">
						<ele>1166</ele>
						<time>2026-09-03T04:19:24Z</time>
					</trkpt>
					<trkpt lat="44.262770" lon="5.624880">
						<ele>1162</ele>
						<time>2026-09-03T04:19:50Z</time>
					</trkpt>
					<trkpt lat="44.262780" lon="5.625100">
						<ele>1162</ele>
						<time>2026-09-03T04:19:58Z</time>
					</trkpt>
					<trkpt lat="44.262750" lon="5.625490">
						<ele>1164</ele>
						<time>2026-09-03T04:20:12Z</time>
					</trkpt>
					<trkpt lat="44.262670" lon="5.625940">
						<ele>1167</ele>
						<time>2026-09-03T04:20:28Z</time>
					</trkpt>
					<trkpt lat="44.262680" lon="5.626070">
						<ele>1167</ele>
						<time>2026-09-03T04:20:33Z</time>
					</trkpt>
					<trkpt lat="44.262790" lon="5.626410">
						<ele>1164</ele>
						<time>2026-09-03T04:20:46Z</time>
					</trkpt>
					<trkpt lat="44.262860" lon="5.627230">
						<ele>1167</ele>
						<time>2026-09-03T04:21:16Z</time>
					</trkpt>
					<trkpt lat="44.262960" lon="5.627570">
						<ele>1166</ele>
						<time>2026-09-03T04:21:29Z</time>
					</trkpt>
					<trkpt lat="44.262940" lon="5.627830">
						<ele>1167</ele>
						<time>2026-09-03T04:21:38Z</time>
					</trkpt>
					<trkpt lat="44.262960" lon="5.628220">
						<ele>1168</ele>
						<time>2026-09-03T04:21:52Z</time>
					</trkpt>
					<trkpt lat="44.263100" lon="5.628880">
						<ele>1164</ele>
						<time>2026-09-03T04:22:17Z</time>
					</trkpt>
					<trkpt lat="44.263020" lon="5.629200">
						<ele>1166</ele>
						<time>2026-09-03T04:22:29Z</time>
					</trkpt>
					<trkpt lat="44.262860" lon="5.629360">
						<ele>1173</ele>
						<time>2026-09-03T04:22:39Z</time>
					</trkpt>
					<trkpt lat="44.262840" lon="5.629430">
						<ele>1174</ele>
						<time>2026-09-03T04:22:42Z</time>
					</trkpt>
					<trkpt lat="44.262850" lon="5.630240">
						<ele>1177</ele>
						<time>2026-09-03T04:23:11Z</time>
					</trkpt>
					<trkpt lat="44.262880" lon="5.630550">
						<ele>1177</ele>
						<time>2026-09-03T04:23:22Z</time>
					</trkpt>
					<trkpt lat="44.262860" lon="5.630670">
						<ele>1178</ele>
						<time>2026-09-03T04:23:26Z</time>
					</trkpt>
					<trkpt lat="44.262640" lon="5.631320">
						<ele>1188</ele>
						<time>2026-09-03T04:23:52Z</time>
					</trkpt>
					<trkpt lat="44.262640" lon="5.631400">
						<ele>1189</ele>
						<time>2026-09-03T04:23:55Z</time>
					</trkpt>
					<trkpt lat="44.262790" lon="5.631830">
						<ele>1186</ele>
						<time>2026-09-03T04:24:12Z</time>
					</trkpt>
					<trkpt lat="44.262830" lon="5.632100">
						<ele>1189</ele>
						<time>2026-09-03T04:24:22Z</time>
					</trkpt>
					<trkpt lat="44.262830" lon="5.632310">
						<ele>1191</ele>
						<time>2026-09-03T04:24:30Z</time>
					</trkpt>
					<trkpt lat="44.262770" lon="5.632890">
						<ele>1204</ele>
						<time>2026-09-03T04:24:51Z</time>
					</trkpt>
					<trkpt lat="44.262790" lon="5.633120">
						<ele>1208</ele>
						<time>2026-09-03T04:24:59Z</time>
					</trkpt>
					<trkpt lat="44.262930" lon="5.633580">
						<ele>1210</ele>
						<time>2026-09-03T04:25:17Z</time>
					</trkpt>
					<trkpt lat="44.263090" lon="5.634350">
						<ele>1220</ele>
						<time>2026-09-03T04:25:46Z</time>
					</trkpt>
					<trkpt lat="44.263220" lon="5.634640">
						<ele>1223</ele>
						<time>2026-09-03T04:25:58Z</time>
					</trkpt>
					<trkpt lat="44.263770" lon="5.635550">
						<ele>1237</ele>
						<time>2026-09-03T04:26:41Z</time>
					</trkpt>
					<trkpt lat="44.264160" lon="5.636060">
						<ele>1245</ele>
						<time>2026-09-03T04:27:07Z</time>
					</trkpt>
					<trkpt lat="44.264400" lon="5.636620">
						<ele>1256</ele>
						<time>2026-09-03T04:27:31Z</time>
					</trkpt>
					<trkpt lat="44.264710" lon="5.637130">
						<ele>1262</ele>
						<time>2026-09-03T04:27:55Z</time>
					</trkpt>
					<trkpt lat="44.264800" lon="5.637740">
						<ele>1275</ele>
						<time>2026-09-03T04:28:17Z</time>
					</trkpt>
					<trkpt lat="44.264950" lon="5.638520">
						<ele>1286</ele>
						<time>2026-09-03T04:28:46Z</time>
					</trkpt>
					<trkpt lat="44.265100" lon="5.639020">
						<ele>1294</ele>
						<time>2026-09-03T04:29:05Z</time>
					</trkpt>
					<trkpt lat="44.265360" lon="5.639640">
						<ele>1306</ele>
						<time>2026-09-03T04:29:31Z</time>
					</trkpt>
					<trkpt lat="44.265480" lon="5.639760">
						<ele>1307</ele>
						<time>2026-09-03T04:29:38Z</time>
					</trkpt>
					<trkpt lat="44.265650" lon="5.639800">
						<ele>1305</ele>
						<time>2026-09-03T04:29:47Z</time>
					</trkpt>
					<trkpt lat="44.265890" lon="5.639810">
						<ele>1301</ele>
						<time>2026-09-03T04:29:59Z</time>
					</trkpt>
					<trkpt lat="44.266250" lon="5.639690">
						<ele>1292</ele>
						<time>2026-09-03T04:30:18Z</time>
					</trkpt>
					<trkpt lat="44.266290" lon="5.639730">
						<ele>1292</ele>
						<time>2026-09-03T04:30:20Z</time>
					</trkpt>
					<trkpt lat="44.266530" lon="5.640290">
						<ele>1304</ele>
						<time>2026-09-03T04:30:43Z</time>
					</trkpt>
					<trkpt lat="44.266930" lon="5.640700">
						<ele>1300</ele>
						<time>2026-09-03T04:31:08Z</time>
					</trkpt>
					<trkpt lat="44.267090" lon="5.641210">
						<ele>1304</ele>
						<time>2026-09-03T04:31:28Z</time>
					</trkpt>
					<trkpt lat="44.267300" lon="5.641720">
						<ele>1303</ele>
						<time>2026-09-03T04:31:49Z</time>
					</trkpt>
					<trkpt lat="44.267350" lon="5.641880">
						<ele>1301</ele>
						<time>2026-09-03T04:31:56Z</time>
					</trkpt>
					<trkpt lat="44.267380" lon="5.642230">
						<ele>1300</ele>
						<time>2026-09-03T04:32:08Z</time>
					</trkpt>
					<trkpt lat="44.267320" lon="5.642740">
						<ele>1307</ele>
						<time>2026-09-03T04:32:27Z</time>
					</trkpt>
					<trkpt lat="44.267330" lon="5.642940">
						<ele>1309</ele>
						<time>2026-09-03T04:32:34Z</time>
					</trkpt>
					<trkpt lat="44.267750" lon="5.643510">
						<ele>1299</ele>
						<time>2026-09-03T04:33:03Z</time>
					</trkpt>
					<trkpt lat="44.267830" lon="5.643660">
						<ele>1299</ele>
						<time>2026-09-03T04:33:10Z</time>
					</trkpt>
					<trkpt lat="44.268130" lon="5.644510">
						<ele>1305</ele>
						<time>2026-09-03T04:33:44Z</time>
					</trkpt>
					<trkpt lat="44.268200" lon="5.644770">
						<ele>1306</ele>
						<time>2026-09-03T04:33:54Z</time>
					</trkpt>
					<trkpt lat="44.268210" lon="5.644880">
						<ele>1307</ele>
						<time>2026-09-03T04:33:58Z</time>
					</trkpt>
					<trkpt lat="44.268120" lon="5.645320">
						<ele>1315</ele>
						<time>2026-09-03T04:34:14Z</time>
					</trkpt>
					<trkpt lat="44.268190" lon="5.645960">
						<ele>1315</ele>
						<time>2026-09-03T04:34:37Z</time>
					</trkpt>
					<trkpt lat="44.268220" lon="5.646630">
						<ele>1312</ele>
						<time>2026-09-03T04:35:01Z</time>
					</trkpt>
					<trkpt lat="44.268240" lon="5.646760">
						<ele>1312</ele>
						<time>2026-09-03T04:35:06Z</time>
					</trkpt>
					<trkpt lat="44.268410" lon="5.647320">
						<ele>1307</ele>
						<time>2026-09-03T04:35:28Z</time>
					</trkpt>
					<trkpt lat="44.268510" lon="5.647840">
						<ele>1300</ele>
						<time>2026-09-03T04:35:47Z</time>
					</trkpt>
					<trkpt lat="44.268380" lon="5.648340">
						<ele>1309</ele>
						<time>2026-09-03T04:36:06Z</time>
					</trkpt>
					<trkpt lat="44.268360" lon="5.648460">
						<ele>1310</ele>
						<time>2026-09-03T04:36:11Z</time>
					</trkpt>
					<trkpt lat="44.268370" lon="5.648670">
						<ele>1309</ele>
						<time>2026-09-03T04:36:18Z</time>
					</trkpt>
					<trkpt lat="44.268660" lon="5.650280">
						<ele>1295</ele>
						<time>2026-09-03T04:37:18Z</time>
					</trkpt>
					<trkpt lat="44.268680" lon="5.650600">
						<ele>1294</ele>
						<time>2026-09-03T04:37:29Z</time>
					</trkpt>
					<trkpt lat="44.268750" lon="5.651030">
						<ele>1290</ele>
						<time>2026-09-03T04:37:45Z</time>
					</trkpt>
					<trkpt lat="44.268840" lon="5.651390">
						<ele>1286</ele>
						<time>2026-09-03T04:37:59Z</time>
					</trkpt>
					<trkpt lat="44.268940" lon="5.651640">
						<ele>1285</ele>
						<time>2026-09-03T04:38:09Z</time>
					</trkpt>
					<trkpt lat="44.269360" lon="5.652320">
						<ele>1277</ele>
						<time>2026-09-03T04:38:41Z</time>
					</trkpt>
					<trkpt lat="44.269520" lon="5.652730">
						<ele>1270</ele>
						<time>2026-09-03T04:38:58Z</time>
					</trkpt>
					<trkpt lat="44.269600" lon="5.652860">
						<ele>1268</ele>
						<time>2026-09-03T04:39:04Z</time>
					</trkpt>
					<trkpt lat="44.270000" lon="5.653330">
						<ele>1267</ele>
						<time>2026-09-03T04:39:30Z</time>
					</trkpt>
					<trkpt lat="44.270240" lon="5.653760">
						<ele>1257</ele>
						<time>2026-09-03T04:39:50Z</time>
					</trkpt>
					<trkpt lat="44.270570" lon="5.655110">
						<ele>1264</ele>
						<time>2026-09-03T04:40:41Z</time>
					</trkpt>
					<trkpt lat="44.270710" lon="5.655340">
						<ele>1265</ele>
						<time>2026-09-03T04:40:52Z</time>
					</trkpt>
					<trkpt lat="44.270860" lon="5.655500">
						<ele>1266</ele>
						<time>2026-09-03T04:41:01Z</time>
					</trkpt>
					<trkpt lat="44.271100" lon="5.655680">
						<ele>1266</ele>
						<time>2026-09-03T04:41:15Z</time>
					</trkpt>
					<trkpt lat="44.271330" lon="5.655760">
						<ele>1268</ele>
						<time>2026-09-03T04:41:27Z</time>
					</trkpt>
					<trkpt lat="44.271570" lon="5.656180">
						<ele>1275</ele>
						<time>2026-09-03T04:41:46Z</time>
					</trkpt>
					<trkpt lat="44.271830" lon="5.656560">
						<ele>1281</ele>
						<time>2026-09-03T04:42:05Z</time>
					</trkpt>
					<trkpt lat="44.272200" lon="5.657060">
						<ele>1283</ele>
						<time>2026-09-03T04:42:31Z</time>
					</trkpt>
					<trkpt lat="44.272360" lon="5.657210">
						<ele>1286</ele>
						<time>2026-09-03T04:42:40Z</time>
					</trkpt>
					<trkpt lat="44.272470" lon="5.657360">
						<ele>1290</ele>
						<time>2026-09-03T04:42:48Z</time>
					</trkpt>
					<trkpt lat="44.272510" lon="5.657510">
						<ele>1293</ele>
						<time>2026-09-03T04:42:54Z</time>
					</trkpt>
					<trkpt lat="44.272480" lon="5.658340">
						<ele>1297</ele>
						<time>2026-09-03T04:43:23Z</time>
					</trkpt>
					<trkpt lat="44.272310" lon="5.659400">
						<ele>1286</ele>
						<time>2026-09-03T04:44:02Z</time>
					</trkpt>
					<trkpt lat="44.272210" lon="5.659840">
						<ele>1282</ele>
						<time>2026-09-03T04:44:19Z</time>
					</trkpt>
					<trkpt lat="44.272200" lon="5.660300">
						<ele>1280</ele>
						<time>2026-09-03T04:44:35Z</time>
					</trkpt>
					<trkpt lat="44.272280" lon="5.661420">
						<ele>1272</ele>
						<time>2026-09-03T04:45:16Z</time>
					</trkpt>
					<trkpt lat="44.272600" lon="5.662980">
						<ele>1265</ele>
						<time>2026-09-03T04:46:14Z</time>
					</trkpt>
					<trkpt lat="44.272950" lon="5.664110">
						<ele>1248</ele>
						<time>2026-09-03T04:46:58Z</time>
					</trkpt>
					<trkpt lat="44.273050" lon="5.664590">
						<ele>1246</ele>
						<time>2026-09-03T04:47:16Z</time>
					</trkpt>
					<trkpt lat="44.273100" lon="5.665200">
						<ele>1244</ele>
						<time>2026-09-03T04:47:38Z</time>
					</trkpt>
					<trkpt lat="44.273180" lon="5.665660">
						<ele>1243</ele>
						<time>2026-09-03T04:47:55Z</time>
					</trkpt>
					<trkpt lat="44.273200" lon="5.665970">
						<ele>1241</ele>
						<time>2026-09-03T04:48:06Z</time>
					</trkpt>
					<trkpt lat="44.273370" lon="5.666700">
						<ele>1233</ele>
						<time>2026-09-03T04:48:33Z</time>
					</trkpt>
					<trkpt lat="44.273540" lon="5.667590">
						<ele>1226</ele>
						<time>2026-09-03T04:49:06Z</time>
					</trkpt>
					<trkpt lat="44.273870" lon="5.668400">
						<ele>1219</ele>
						<time>2026-09-03T04:49:40Z</time>
					</trkpt>
					<trkpt lat="44.273880" lon="5.668810">
						<ele>1221</ele>
						<time>2026-09-03T04:49:55Z</time>
					</trkpt>
					<trkpt lat="44.273950" lon="5.669360">
						<ele>1223</ele>
						<time>2026-09-03T04:50:15Z</time>
					</trkpt>
					<trkpt lat="44.274040" lon="5.669670">
						<ele>1225</ele>
						<time>2026-09-03T04:50:27Z</time>
					</trkpt>
					<trkpt lat="44.274020" lon="5.669960">
						<ele>1224</ele>
						<time>2026-09-03T04:50:37Z</time>
					</trkpt>
					<trkpt lat="44.274030" lon="5.670030">
						<ele>1224</ele>
						<time>2026-09-03T04:50:40Z</time>
					</trkpt>
					<trkpt lat="44.274070" lon="5.670070">
						<ele>1225</ele>
						<time>2026-09-03T04:50:42Z</time>
					</trkpt>
					<trkpt lat="44.274190" lon="5.671000">
						<ele>1224</ele>
						<time>2026-09-03T04:51:16Z</time>
					</trkpt>
					<trkpt lat="44.274400" lon="5.671650">
						<ele>1215</ele>
						<time>2026-09-03T04:51:41Z</time>
					</trkpt>
					<trkpt lat="44.274480" lon="5.672070">
						<ele>1211</ele>
						<time>2026-09-03T04:51:57Z</time>
					</trkpt>
					<trkpt lat="44.274560" lon="5.672320">
						<ele>1209</ele>
						<time>2026-09-03T04:52:07Z</time>
					</trkpt>
					<trkpt lat="44.274590" lon="5.672570">
						<ele>1207</ele>
						<time>2026-09-03T04:52:16Z</time>
					</trkpt>
					<trkpt lat="44.274700" lon="5.672890">
						<ele>1204</ele>
						<time>2026-09-03T04:52:29Z</time>
					</trkpt>
					<trkpt lat="44.274840" lon="5.673200">
						<ele>1205</ele>
						<time>2026-09-03T04:52:42Z</time>
					</trkpt>
					<trkpt lat="44.275110" lon="5.673640">
						<ele>1200</ele>
						<time>2026-09-03T04:53:03Z</time>
					</trkpt>
					<trkpt lat="44.275210" lon="5.673960">
						<ele>1193</ele>
						<time>2026-09-03T04:53:15Z</time>
					</trkpt>
					<trkpt lat="44.275220" lon="5.674060">
						<ele>1192</ele>
						<time>2026-09-03T04:53:19Z</time>
					</trkpt>
					<trkpt lat="44.275290" lon="5.674150">
						<ele>1190</ele>
						<time>2026-09-03T04:53:23Z</time>
					</trkpt>
					<trkpt lat="44.275470" lon="5.674520">
						<ele>1184</ele>
						<time>2026-09-03T04:53:39Z</time>
					</trkpt>
					<trkpt lat="44.275480" lon="5.674550">
						<ele>1184</ele>
						<time>2026-09-03T04:53:41Z</time>
					</trkpt>
					<trkpt lat="44.275450" lon="5.674560">
						<ele>1184</ele>
						<time>2026-09-03T04:53:42Z</time>
					</trkpt>
					<trkpt lat="44.275440" lon="5.674620">
						<ele>1183</ele>
						<time>2026-09-03T04:53:44Z</time>
					</trkpt>
					<trkpt lat="44.275690" lon="5.674940">
						<ele>1187</ele>
						<time>2026-09-03T04:54:01Z</time>
					</trkpt>
					<trkpt lat="44.275770" lon="5.675100">
						<ele>1189</ele>
						<time>2026-09-03T04:54:08Z</time>
					</trkpt>
					<trkpt lat="44.275790" lon="5.675330">
						<ele>1190</ele>
						<time>2026-09-03T04:54:17Z</time>
					</trkpt>
					<trkpt lat="44.275930" lon="5.675570">
						<ele>1192</ele>
						<time>2026-09-03T04:54:28Z</time>
					</trkpt>
					<trkpt lat="44.276010" lon="5.675850">
						<ele>1194</ele>
						<time>2026-09-03T04:54:39Z</time>
					</trkpt>
					<trkpt lat="44.276160" lon="5.676220">
						<ele>1196</ele>
						<time>2026-09-03T04:54:54Z</time>
					</trkpt>
					<trkpt lat="44.276460" lon="5.676920">
						<ele>1208</ele>
						<time>2026-09-03T04:55:23Z</time>
					</trkpt>
					<trkpt lat="44.276650" lon="5.677280">
						<ele>1217</ele>
						<time>2026-09-03T04:55:39Z</time>
					</trkpt>
					<trkpt lat="44.276690" lon="5.677520">
						<ele>1218</ele>
						<time>2026-09-03T04:55:48Z</time>
					</trkpt>
					<trkpt lat="44.276790" lon="5.677720">
						<ele>1218</ele>
						<time>2026-09-03T04:55:57Z</time>
					</trkpt>
					<trkpt lat="44.276890" lon="5.677860">
						<ele>1220</ele>
						<time>2026-09-03T04:56:04Z</time>
					</trkpt>
					<trkpt lat="44.277020" lon="5.677980">
						<ele>1223</ele>
						<time>2026-09-03T04:56:11Z</time>
					</trkpt>
					<trkpt lat="44.277120" lon="5.678200">
						<ele>1227</ele>
						<time>2026-09-03T04:56:21Z</time>
					</trkpt>
					<trkpt lat="44.277200" lon="5.678520">
						<ele>1230</ele>
						<time>2026-09-03T04:56:33Z</time>
					</trkpt>
					<trkpt lat="44.277290" lon="5.678640">
						<ele>1233</ele>
						<time>2026-09-03T04:56:39Z</time>
					</trkpt>
					<trkpt lat="44.277490" lon="5.679300">
						<ele>1241</ele>
						<time>2026-09-03T04:57:05Z</time>
					</trkpt>
					<trkpt lat="44.277820" lon="5.680730">
						<ele>1235</ele>
						<time>2026-09-03T04:57:59Z</time>
					</trkpt>
					<trkpt lat="44.277930" lon="5.680870">
						<ele>1235</ele>
						<time>2026-09-03T04:58:06Z</time>
					</trkpt>
					<trkpt lat="44.277990" lon="5.681190">
						<ele>1240</ele>
						<time>2026-09-03T04:58:18Z</time>
					</trkpt>
					<trkpt lat="44.278020" lon="5.681250">
						<ele>1241</ele>
						<time>2026-09-03T04:58:21Z</time>
					</trkpt>
					<trkpt lat="44.278100" lon="5.681300">
						<ele>1241</ele>
						<time>2026-09-03T04:58:25Z</time>
					</trkpt>
					<trkpt lat="44.278230" lon="5.681720">
						<ele>1251</ele>
						<time>2026-09-03T04:58:41Z</time>
					</trkpt>
					<trkpt lat="44.278210" lon="5.682380">
						<ele>1257</ele>
						<time>2026-09-03T04:59:05Z</time>
					</trkpt>
					<trkpt lat="44.278270" lon="5.682660">
						<ele>1262</ele>
						<time>2026-09-03T04:59:16Z</time>
					</trkpt>
					<trkpt lat="44.278370" lon="5.683000">
						<ele>1267</ele>
						<time>2026-09-03T04:59:29Z</time>
					</trkpt>
					<trkpt lat="44.278440" lon="5.683120">
						<ele>1265</ele>
						<time>2026-09-03T04:59:34Z</time>
					</trkpt>
					<trkpt lat="44.278470" lon="5.683380">
						<ele>1267</ele>
						<time>2026-09-03T04:59:44Z</time>
					</trkpt>
					<trkpt lat="44.278550" lon="5.683560">
						<ele>1265</ele>
						<time>2026-09-03T04:59:51Z</time>
					</trkpt>
					<trkpt lat="44.278580" lon="5.683790">
						<ele>1267</ele>
						<time>2026-09-03T05:00:00Z</time>
					</trkpt>
					<trkpt lat="44.278720" lon="5.684260">
						<ele>1269</ele>
						<time>2026-09-03T05:00:18Z</time>
					</trkpt>
					<trkpt lat="44.279000" lon="5.684870">
						<ele>1274</ele>
						<time>2026-09-03T05:00:44Z</time>
					</trkpt>
					<trkpt lat="44.279080" lon="5.685610">
						<ele>1276</ele>
						<time>2026-09-03T05:01:11Z</time>
					</trkpt>
					<trkpt lat="44.279200" lon="5.686180">
						<ele>1275</ele>
						<time>2026-09-03T05:01:32Z</time>
					</trkpt>
					<trkpt lat="44.279120" lon="5.686540">
						<ele>1274</ele>
						<time>2026-09-03T05:01:45Z</time>
					</trkpt>
					<trkpt lat="44.279150" lon="5.686940">
						<ele>1276</ele>
						<time>2026-09-03T05:02:00Z</time>
					</trkpt>
					<trkpt lat="44.279800" lon="5.689530">
						<ele>1283</ele>
						<time>2026-09-03T05:03:38Z</time>
					</trkpt>
					<trkpt lat="44.280000" lon="5.690790">
						<ele>1298</ele>
						<time>2026-09-03T05:04:24Z</time>
					</trkpt>
					<trkpt lat="44.280310" lon="5.692260">
						<ele>1278</ele>
						<time>2026-09-03T05:05:19Z</time>
					</trkpt>
					<trkpt lat="44.280450" lon="5.692510">
						<ele>1274</ele>
						<time>2026-09-03T05:05:31Z</time>
					</trkpt>
					<trkpt lat="44.280510" lon="5.692750">
						<ele>1274</ele>
						<time>2026-09-03T05:05:40Z</time>
					</trkpt>
					<trkpt lat="44.280560" lon="5.693310">
						<ele>1275</ele>
						<time>2026-09-03T05:06:00Z</time>
					</trkpt>
					<trkpt lat="44.280510" lon="5.693610">
						<ele>1276</ele>
						<time>2026-09-03T05:06:11Z</time>
					</trkpt>
					<trkpt lat="44.280500" lon="5.693920">
						<ele>1277</ele>
						<time>2026-09-03T05:06:22Z</time>
					</trkpt>
					<trkpt lat="44.280570" lon="5.694150">
						<ele>1279</ele>
						<time>2026-09-03T05:06:31Z</time>
					</trkpt>
					<trkpt lat="44.280620" lon="5.694460">
						<ele>1278</ele>
						<time>2026-09-03T05:06:43Z</time>
					</trkpt>
					<trkpt lat="44.280610" lon="5.694770">
						<ele>1276</ele>
						<time>2026-09-03T05:06:54Z</time>
					</trkpt>
					<trkpt lat="44.280560" lon="5.694910">
						<ele>1274</ele>
						<time>2026-09-03T05:06:59Z</time>
					</trkpt>
					<trkpt lat="44.280580" lon="5.695320">
						<ele>1271</ele>
						<time>2026-09-03T05:07:14Z</time>
					</trkpt>
					<trkpt lat="44.280650" lon="5.695610">
						<ele>1271</ele>
						<time>2026-09-03T05:07:25Z</time>
					</trkpt>
					<trkpt lat="44.280720" lon="5.695720">
						<ele>1273</ele>
						<time>2026-09-03T05:07:30Z</time>
					</trkpt>
					<trkpt lat="44.280900" lon="5.696210">
						<ele>1275</ele>
						<time>2026-09-03T05:07:50Z</time>
					</trkpt>
					<trkpt lat="44.280940" lon="5.696440">
						<ele>1274</ele>
						<time>2026-09-03T05:07:58Z</time>
					</trkpt>
					<trkpt lat="44.280930" lon="5.696520">
						<ele>1275</ele>
						<time>2026-09-03T05:08:01Z</time>
					</trkpt>
					<trkpt lat="44.280980" lon="5.696740">
						<ele>1274</ele>
						<time>2026-09-03T05:08:10Z</time>
					</trkpt>
					<trkpt lat="44.281050" lon="5.696820">
						<ele>1272</ele>
						<time>2026-09-03T05:08:14Z</time>
					</trkpt>
					<trkpt lat="44.281110" lon="5.697020">
						<ele>1270</ele>
						<time>2026-09-03T05:08:22Z</time>
					</trkpt>
					<trkpt lat="44.281160" lon="5.697100">
						<ele>1270</ele>
						<time>2026-09-03T05:08:26Z</time>
					</trkpt>
					<trkpt lat="44.281340" lon="5.697240">
						<ele>1270</ele>
						<time>2026-09-03T05:08:36Z</time>
					</trkpt>
					<trkpt lat="44.281370" lon="5.697450">
						<ele>1271</ele>
						<time>2026-09-03T05:08:44Z</time>
					</trkpt>
					<trkpt lat="44.281450" lon="5.697580">
						<ele>1274</ele>
						<time>2026-09-03T05:08:50Z</time>
					</trkpt>
					<trkpt lat="44.281620" lon="5.698950">
						<ele>1290</ele>
						<time>2026-09-03T05:09:40Z</time>
					</trkpt>
					<trkpt lat="44.281820" lon="5.699790">
						<ele>1284</ele>
						<time>2026-09-03T05:10:11Z</time>
					</trkpt>
					<trkpt lat="44.282020" lon="5.700340">
						<ele>1277</ele>
						<time>2026-09-03T05:10:33Z</time>
					</trkpt>
					<trkpt lat="44.282090" lon="5.700660">
						<ele>1275</ele>
						<time>2026-09-03T05:10:45Z</time>
					</trkpt>
					<trkpt lat="44.282070" lon="5.700840">
						<ele>1274</ele>
						<time>2026-09-03T05:10:52Z</time>
					</trkpt>
					<trkpt lat="44.282120" lon="5.701440">
						<ele>1271</ele>
						<time>2026-09-03T05:11:14Z</time>
					</trkpt>
					<trkpt lat="44.282290" lon="5.702220">
						<ele>1269</ele>
						<time>2026-09-03T05:11:43Z</time>
					</trkpt>
					<trkpt lat="44.282630" lon="5.703340">
						<ele>1258</ele>
						<time>2026-09-03T05:12:26Z</time>
					</trkpt>
					<trkpt lat="44.282910" lon="5.703920">
						<ele>1247</ele>
						<time>2026-09-03T05:12:51Z</time>
					</trkpt>
					<trkpt lat="44.283120" lon="5.704090">
						<ele>1252</ele>
						<time>2026-09-03T05:13:04Z</time>
					</trkpt>
					<trkpt lat="44.283510" lon="5.704170">
						<ele>1251</ele>
						<time>2026-09-03T05:13:23Z</time>
					</trkpt>
					<trkpt lat="44.283760" lon="5.704190">
						<ele>1240</ele>
						<time>2026-09-03T05:13:36Z</time>
					</trkpt>
					<trkpt lat="44.283720" lon="5.704080">
						<ele>1241</ele>
						<time>2026-09-03T05:13:40Z</time>
					</trkpt>
					<trkpt lat="44.283410" lon="5.703860">
						<ele>1252</ele>
						<time>2026-09-03T05:13:58Z</time>
					</trkpt>
					<trkpt lat="44.283320" lon="5.703710">
						<ele>1253</ele>
						<time>2026-09-03T05:14:05Z</time>
					</trkpt>
					<trkpt lat="44.283150" lon="5.703140">
						<ele>1250</ele>
						<time>2026-09-03T05:14:27Z</time>
					</trkpt>
					<trkpt lat="44.283140" lon="5.702720">
						<ele>1247</ele>
						<time>2026-09-03T05:14:42Z</time>
					</trkpt>
					<trkpt lat="44.283100" lon="5.702460">
						<ele>1247</ele>
						<time>2026-09-03T05:14:51Z</time>
					</trkpt>
					<trkpt lat="44.283110" lon="5.701910">
						<ele>1243</ele>
						<time>2026-09-03T05:15:11Z</time>
					</trkpt>
					<trkpt lat="44.283160" lon="5.701660">
						<ele>1239</ele>
						<time>2026-09-03T05:15:20Z</time>
					</trkpt>
					<trkpt lat="44.283140" lon="5.701410">
						<ele>1239</ele>
						<time>2026-09-03T05:15:29Z</time>
					</trkpt>
					<trkpt lat="44.283300" lon="5.700930">
						<ele>1228</ele>
						<time>2026-09-03T05:15:48Z</time>
					</trkpt>
					<trkpt lat="44.283340" lon="5.700650">
						<ele>1225</ele>
						<time>2026-09-03T05:15:59Z</time>
					</trkpt>
					<trkpt lat="44.283740" lon="5.699850">
						<ele>1202</ele>
						<time>2026-09-03T05:16:34Z</time>
					</trkpt>
					<trkpt lat="44.283750" lon="5.699750">
						<ele>1201</ele>
						<time>2026-09-03T05:16:37Z</time>
					</trkpt>
					<trkpt lat="44.283700" lon="5.699430">
						<ele>1203</ele>
						<time>2026-09-03T05:16:49Z</time>
					</trkpt>
					<trkpt lat="44.283790" lon="5.699190">
						<ele>1197</ele>
						<time>2026-09-03T05:16:59Z</time>
					</trkpt>
					<trkpt lat="44.283900" lon="5.698750">
						<ele>1190</ele>
						<time>2026-09-03T05:17:15Z</time>
					</trkpt>
					<trkpt lat="44.284040" lon="5.698650">
						<ele>1183</ele>
						<time>2026-09-03T05:17:23Z</time>
					</trkpt>
					<trkpt lat="44.284140" lon="5.698490">
						<ele>1177</ele>
						<time>2026-09-03T05:17:31Z</time>
					</trkpt>
					<trkpt lat="44.284190" lon="5.698310">
						<ele>1174</ele>
						<time>2026-09-03T05:17:38Z</time>
					</trkpt>
					<trkpt lat="44.284220" lon="5.697940">
						<ele>1172</ele>
						<time>2026-09-03T05:17:51Z</time>
					</trkpt>
					<trkpt lat="44.284330" lon="5.697890">
						<ele>1169</ele>
						<time>2026-09-03T05:17:57Z</time>
					</trkpt>
					<trkpt lat="44.284500" lon="5.697900">
						<ele>1164</ele>
						<time>2026-09-03T05:18:05Z</time>
					</trkpt>
					<trkpt lat="44.284770" lon="5.698110">
						<ele>1157</ele>
						<time>2026-09-03T05:18:21Z</time>
					</trkpt>
					<trkpt lat="44.284960" lon="5.697960">
						<ele>1151</ele>
						<time>2026-09-03T05:18:32Z</time>
					</trkpt>
					<trkpt lat="44.285070" lon="5.697730">
						<ele>1146</ele>
						<time>2026-09-03T05:18:42Z</time>
					</trkpt>
					<trkpt lat="44.285050" lon="5.697260">
						<ele>1143</ele>
						<time>2026-09-03T05:18:59Z</time>
					</trkpt>
					<trkpt lat="44.285230" lon="5.696900">
						<ele>1132</ele>
						<time>2026-09-03T05:19:14Z</time>
					</trkpt>
					<trkpt lat="44.285620" lon="5.696920">
						<ele>1119</ele>
						<time>2026-09-03T05:19:34Z</time>
					</trkpt>
					<trkpt lat="44.285990" lon="5.696870">
						<ele>1108</ele>
						<time>2026-09-03T05:19:52Z</time>
					</trkpt>
					<trkpt lat="44.286990" lon="5.697260">
						<ele>1085</ele>
						<time>2026-09-03T05:20:44Z</time>
					</trkpt>
					<trkpt lat="44.287610" lon="5.696970">
						<ele>1075</ele>
						<time>2026-09-03T05:21:17Z</time>
					</trkpt>
					<trkpt lat="44.287640" lon="5.696130">
						<ele>1077</ele>
						<time>2026-09-03T05:21:47Z</time>
					</trkpt>
					<trkpt lat="44.287670" lon="5.695960">
						<ele>1078</ele>
						<time>2026-09-03T05:21:53Z</time>
					</trkpt>
					<trkpt lat="44.287870" lon="5.695300">
						<ele>1074</ele>
						<time>2026-09-03T05:22:19Z</time>
					</trkpt>
					<trkpt lat="44.288230" lon="5.694570">
						<ele>1069</ele>
						<time>2026-09-03T05:22:51Z</time>
					</trkpt>
					<trkpt lat="44.288420" lon="5.694070">
						<ele>1065</ele>
						<time>2026-09-03T05:23:11Z</time>
					</trkpt>
					<trkpt lat="44.289170" lon="5.692540">
						<ele>1055</ele>
						<time>2026-09-03T05:24:18Z</time>
					</trkpt>
					<trkpt lat="44.289270" lon="5.692380">
						<ele>1055</ele>
						<time>2026-09-03T05:24:25Z</time>
					</trkpt>
					<trkpt lat="44.289670" lon="5.691890">
						<ele>1053</ele>
						<time>2026-09-03T05:24:52Z</time>
					</trkpt>
					<trkpt lat="44.289900" lon="5.691780">
						<ele>1052</ele>
						<time>2026-09-03T05:25:04Z</time>
					</trkpt>
					<trkpt lat="44.290220" lon="5.691730">
						<ele>1051</ele>
						<time>2026-09-03T05:25:20Z</time>
					</trkpt>
					<trkpt lat="44.290850" lon="5.691750">
						<ele>1054</ele>
						<time>2026-09-03T05:25:52Z</time>
					</trkpt>
					<trkpt lat="44.291340" lon="5.691700">
						<ele>1060</ele>
						<time>2026-09-03T05:26:16Z</time>
					</trkpt>
					<trkpt lat="44.291690" lon="5.691580">
						<ele>1062</ele>
						<time>2026-09-03T05:26:34Z</time>
					</trkpt>
					<trkpt lat="44.292510" lon="5.691140">
						<ele>1058</ele>
						<time>2026-09-03T05:27:18Z</time>
					</trkpt>
					<trkpt lat="44.292590" lon="5.691120">
						<ele>1056</ele>
						<time>2026-09-03T05:27:22Z</time>
					</trkpt>
					<trkpt lat="44.292690" lon="5.691190">
						<ele>1056</ele>
						<time>2026-09-03T05:27:28Z</time>
					</trkpt>
					<trkpt lat="44.292870" lon="5.691570">
						<ele>1064</ele>
						<time>2026-09-03T05:27:44Z</time>
					</trkpt>
					<trkpt lat="44.293040" lon="5.691760">
						<ele>1066</ele>
						<time>2026-09-03T05:27:55Z</time>
					</trkpt>
					<trkpt lat="44.293330" lon="5.691950">
						<ele>1067</ele>
						<time>2026-09-03T05:28:11Z</time>
					</trkpt>
					<trkpt lat="44.293450" lon="5.692060">
						<ele>1068</ele>
						<time>2026-09-03T05:28:18Z</time>
					</trkpt>
					<trkpt lat="44.293850" lon="5.692100">
						<ele>1059</ele>
						<time>2026-09-03T05:28:38Z</time>
					</trkpt>
					<trkpt lat="44.294290" lon="5.692100">
						<ele>1046</ele>
						<time>2026-09-03T05:29:00Z</time>
					</trkpt>
					<trkpt lat="44.294000" lon="5.691430">
						<ele>1038</ele>
						<time>2026-09-03T05:29:28Z</time>
					</trkpt>
					<trkpt lat="44.294370" lon="5.691690">
						<ele>1031</ele>
						<time>2026-09-03T05:29:49Z</time>
					</trkpt>
					<trkpt lat="44.294490" lon="5.691730">
						<ele>1027</ele>
						<time>2026-09-03T05:29:55Z</time>
					</trkpt>
					<trkpt lat="44.294950" lon="5.692200">
						<ele>1019</ele>
						<time>2026-09-03T05:30:24Z</time>
					</trkpt>
					<trkpt lat="44.295370" lon="5.692560">
						<ele>1012</ele>
						<time>2026-09-03T05:30:49Z</time>
					</trkpt>
					<trkpt lat="44.295650" lon="5.692720">
						<ele>1008</ele>
						<time>2026-09-03T05:31:04Z</time>
					</trkpt>
					<trkpt lat="44.295890" lon="5.692800">
						<ele>1005</ele>
						<time>2026-09-03T05:31:16Z</time>
					</trkpt>
					<trkpt lat="44.296890" lon="5.692840">
						<ele>996</ele>
						<time>2026-09-03T05:32:06Z</time>
					</trkpt>
					<trkpt lat="44.297280" lon="5.692760">
						<ele>992</ele>
						<time>2026-09-03T05:32:26Z</time>
					</trkpt>
					<trkpt lat="44.297480" lon="5.692600">
						<ele>982</ele>
						<time>2026-09-03T05:32:37Z</time>
					</trkpt>
					<trkpt lat="44.297610" lon="5.692530">
						<ele>979</ele>
						<time>2026-09-03T05:32:44Z</time>
					</trkpt>
					<trkpt lat="44.297760" lon="5.692490">
						<ele>979</ele>
						<time>2026-09-03T05:32:52Z</time>
					</trkpt>
					<trkpt lat="44.297960" lon="5.692570">
						<ele>986</ele>
						<time>2026-09-03T05:33:02Z</time>
					</trkpt>
					<trkpt lat="44.298050" lon="5.692570">
						<ele>987</ele>
						<time>2026-09-03T05:33:07Z</time>
					</trkpt>
					<trkpt lat="44.298170" lon="5.692520">
						<ele>985</ele>
						<time>2026-09-03T05:33:13Z</time>
					</trkpt>
					<trkpt lat="44.298790" lon="5.692430">
						<ele>978</ele>
						<time>2026-09-03T05:33:44Z</time>
					</trkpt>
					<trkpt lat="44.298920" lon="5.692510">
						<ele>982</ele>
						<time>2026-09-03T05:33:51Z</time>
					</trkpt>
					<trkpt lat="44.299210" lon="5.692610">
						<ele>983</ele>
						<time>2026-09-03T05:34:06Z</time>
					</trkpt>
					<trkpt lat="44.299460" lon="5.692790">
						<ele>981</ele>
						<time>2026-09-03T05:34:20Z</time>
					</trkpt>
					<trkpt lat="44.299780" lon="5.693290">
						<ele>987</ele>
						<time>2026-09-03T05:34:44Z</time>
					</trkpt>
					<trkpt lat="44.300440" lon="5.694110">
						<ele>995</ele>
						<time>2026-09-03T05:35:29Z</time>
					</trkpt>
					<trkpt lat="44.300550" lon="5.694390">
						<ele>998</ele>
						<time>2026-09-03T05:35:40Z</time>
					</trkpt>
					<trkpt lat="44.300740" lon="5.694670">
						<ele>997</ele>
						<time>2026-09-03T05:35:54Z</time>
					</trkpt>
					<trkpt lat="44.300830" lon="5.694780">
						<ele>996</ele>
						<time>2026-09-03T05:36:00Z</time>
					</trkpt>
					<trkpt lat="44.300880" lon="5.694780">
						<ele>998</ele>
						<time>2026-09-03T05:36:02Z</time>
					</trkpt>
					<trkpt lat="44.300930" lon="5.694750">
						<ele>999</ele>
						<time>2026-09-03T05:36:05Z</time>
					</trkpt>
					<trkpt lat="44.300960" lon="5.694680">
						<ele>999</ele>
						<time>2026-09-03T05:36:08Z</time>
					</trkpt>
					<trkpt lat="44.301010" lon="5.694300">
						<ele>993</ele>
						<time>2026-09-03T05:36:22Z</time>
					</trkpt>
					<trkpt lat="44.301150" lon="5.693730">
						<ele>988</ele>
						<time>2026-09-03T05:36:43Z</time>
					</trkpt>
					<trkpt lat="44.301320" lon="5.693310">
						<ele>988</ele>
						<time>2026-09-03T05:37:01Z</time>
					</trkpt>
					<trkpt lat="44.301320" lon="5.693160">
						<ele>986</ele>
						<time>2026-09-03T05:37:06Z</time>
					</trkpt>
					<trkpt lat="44.301440" lon="5.692340">
						<ele>980</ele>
						<time>2026-09-03T05:37:36Z</time>
					</trkpt>
					<trkpt lat="44.301570" lon="5.691920">
						<ele>981</ele>
						<time>2026-09-03T05:37:53Z</time>
					</trkpt>
					<trkpt lat="44.301630" lon="5.691840">
						<ele>983</ele>
						<time>2026-09-03T05:37:57Z</time>
					</trkpt>
					<trkpt lat="44.301740" lon="5.691540">
						<ele>980</ele>
						<time>2026-09-03T05:38:09Z</time>
					</trkpt>
					<trkpt lat="44.301810" lon="5.691480">
						<ele>979</ele>
						<time>2026-09-03T05:38:13Z</time>
					</trkpt>
					<trkpt lat="44.302080" lon="5.691360">
						<ele>979</ele>
						<time>2026-09-03T05:38:27Z</time>
					</trkpt>
					<trkpt lat="44.302190" lon="5.691270">
						<ele>978</ele>
						<time>2026-09-03T05:38:33Z</time>
					</trkpt>
					<trkpt lat="44.303030" lon="5.691070">
						<ele>966</ele>
						<time>2026-09-03T05:39:16Z</time>
					</trkpt>
					<trkpt lat="44.303390" lon="5.690910">
						<ele>956</ele>
						<time>2026-09-03T05:39:35Z</time>
					</trkpt>
					<trkpt lat="44.303680" lon="5.690920">
						<ele>950</ele>
						<time>2026-09-03T05:39:49Z</time>
					</trkpt>
					<trkpt lat="44.303770" lon="5.690780">
						<ele>948</ele>
						<time>2026-09-03T05:39:56Z</time>
					</trkpt>
					<trkpt lat="44.303830" lon="5.690730">
						<ele>947</ele>
						<time>2026-09-03T05:40:00Z</time>
					</trkpt>
					<trkpt lat="44.303900" lon="5.690730">
						<ele>945</ele>
						<time>2026-09-03T05:40:03Z</time>
					</trkpt>
					<trkpt lat="44.303960" lon="5.691000">
						<ele>945</ele>
						<time>2026-09-03T05:40:13Z</time>
					</trkpt>
					<trkpt lat="44.304160" lon="5.691270">
						<ele>941</ele>
						<time>2026-09-03T05:40:27Z</time>
					</trkpt>
					<trkpt lat="44.304730" lon="5.691910">
						<ele>922</ele>
						<time>2026-09-03T05:41:04Z</time>
					</trkpt>
					<trkpt lat="44.305090" lon="5.692210">
						<ele>912</ele>
						<time>2026-09-03T05:41:25Z</time>
					</trkpt>
					<trkpt lat="44.305280" lon="5.692280">
						<ele>906</ele>
						<time>2026-09-03T05:41:35Z</time>
					</trkpt>
					<trkpt lat="44.305400" lon="5.692260">
						<ele>902</ele>
						<time>2026-09-03T05:41:41Z</time>
					</trkpt>
					<trkpt lat="44.305730" lon="5.692530">
						<ele>892</ele>
						<time>2026-09-03T05:42:00Z</time>
					</trkpt>
					<trkpt lat="44.305850" lon="5.693170">
						<ele>886</ele>
						<time>2026-09-03T05:42:24Z</time>
					</trkpt>
					<trkpt lat="44.305950" lon="5.693320">
						<ele>882</ele>
						<time>2026-09-03T05:42:31Z</time>
					</trkpt>
					<trkpt lat="44.306180" lon="5.693290">
						<ele>874</ele>
						<time>2026-09-03T05:42:42Z</time>
					</trkpt>
					<trkpt lat="44.306280" lon="5.693300">
						<ele>871</ele>
						<time>2026-09-03T05:42:47Z</time>
					</trkpt>
					<trkpt lat="44.306350" lon="5.693270">
						<ele>868</ele>
						<time>2026-09-03T05:42:51Z</time>
					</trkpt>
					<trkpt lat="44.306510" lon="5.693080">
						<ele>864</ele>
						<time>2026-09-03T05:43:02Z</time>
					</trkpt>
					<trkpt lat="44.306610" lon="5.693060">
						<ele>861</ele>
						<time>2026-09-03T05:43:07Z</time>
					</trkpt>
					<trkpt lat="44.306700" lon="5.692970">
						<ele>859</ele>
						<time>2026-09-03T05:43:12Z</time>
					</trkpt>
					<trkpt lat="44.306850" lon="5.692890">
						<ele>857</ele>
						<time>2026-09-03T05:43:20Z</time>
					</trkpt>
					<trkpt lat="44.307050" lon="5.692740">
						<ele>855</ele>
						<time>2026-09-03T05:43:32Z</time>
					</trkpt>
					<trkpt lat="44.307150" lon="5.692620">
						<ele>855</ele>
						<time>2026-09-03T05:43:38Z</time>
					</trkpt>
					<trkpt lat="44.307190" lon="5.692620">
						<ele>854</ele>
						<time>2026-09-03T05:43:40Z</time>
					</trkpt>
					<trkpt lat="44.307220" lon="5.692670">
						<ele>853</ele>
						<time>2026-09-03T05:43:43Z</time>
					</trkpt>
					<trkpt lat="44.307190" lon="5.692810">
						<ele>851</ele>
						<time>2026-09-03T05:43:48Z</time>
					</trkpt>
					<trkpt lat="44.306980" lon="5.693020">
						<ele>852</ele>
						<time>2026-09-03T05:44:01Z</time>
					</trkpt>
					<trkpt lat="44.306930" lon="5.693100">
						<ele>853</ele>
						<time>2026-09-03T05:44:04Z</time>
					</trkpt>
					<trkpt lat="44.306820" lon="5.693400">
						<ele>852</ele>
						<time>2026-09-03T05:44:17Z</time>
					</trkpt>
					<trkpt lat="44.306680" lon="5.693580">
						<ele>852</ele>
						<time>2026-09-03T05:44:26Z</time>
					</trkpt>
					<trkpt lat="44.306580" lon="5.693680">
						<ele>855</ele>
						<time>2026-09-03T05:44:32Z</time>
					</trkpt>
					<trkpt lat="44.306480" lon="5.693740">
						<ele>858</ele>
						<time>2026-09-03T05:44:38Z</time>
					</trkpt>
					<trkpt lat="44.306420" lon="5.693860">
						<ele>859</ele>
						<time>2026-09-03T05:44:43Z</time>
					</trkpt>
					<trkpt lat="44.306550" lon="5.694540">
						<ele>851</ele>
						<time>2026-09-03T05:45:08Z</time>
					</trkpt>
					<trkpt lat="44.306600" lon="5.694650">
						<ele>850</ele>
						<time>2026-09-03T05:45:13Z</time>
					</trkpt>
					<trkpt lat="44.306920" lon="5.695020">
						<ele>840</ele>
						<time>2026-09-03T05:45:34Z</time>
					</trkpt>
					<trkpt lat="44.307060" lon="5.695250">
						<ele>837</ele>
						<time>2026-09-03T05:45:44Z</time>
					</trkpt>
					<trkpt lat="44.307210" lon="5.695590">
						<ele>834</ele>
						<time>2026-09-03T05:45:59Z</time>
					</trkpt>
					<trkpt lat="44.307270" lon="5.695670">
						<ele>832</ele>
						<time>2026-09-03T05:46:03Z</time>
					</trkpt>
					<trkpt lat="44.307490" lon="5.695820">
						<ele>824</ele>
						<time>2026-09-03T05:46:15Z</time>
					</trkpt>
					<trkpt lat="44.307700" lon="5.696120">
						<ele>822</ele>
						<time>2026-09-03T05:46:30Z</time>
					</trkpt>
					<trkpt lat="44.307830" lon="5.696420">
						<ele>821</ele>
						<time>2026-09-03T05:46:43Z</time>
					</trkpt>
					<trkpt lat="44.308380" lon="5.696830">
						<ele>803</ele>
						<time>2026-09-03T05:47:14Z</time>
					</trkpt>
					<trkpt lat="44.308360" lon="5.696250">
						<ele>802</ele>
						<time>2026-09-03T05:47:35Z</time>
					</trkpt>
					<trkpt lat="44.308430" lon="5.696070">
						<ele>799</ele>
						<time>2026-09-03T05:47:42Z</time>
					</trkpt>
					<trkpt lat="44.308750" lon="5.695480">
						<ele>785</ele>
						<time>2026-09-03T05:48:09Z</time>
					</trkpt>
					<trkpt lat="44.308750" lon="5.695210">
						<ele>784</ele>
						<time>2026-09-03T05:48:18Z</time>
					</trkpt>
					<trkpt lat="44.308630" lon="5.694980">
						<ele>786</ele>
						<time>2026-09-03T05:48:28Z</time>
					</trkpt>
					<trkpt lat="44.308650" lon="5.694870">
						<ele>785</ele>
						<time>2026-09-03T05:48:32Z</time>
					</trkpt>
					<trkpt lat="44.308740" lon="5.694890">
						<ele>783</ele>
						<time>2026-09-03T05:48:37Z</time>
					</trkpt>
					<trkpt lat="44.309100" lon="5.695250">
						<ele>774</ele>
						<time>2026-09-03T05:48:59Z</time>
					</trkpt>
					<trkpt lat="44.309140" lon="5.695370">
						<ele>772</ele>
						<time>2026-09-03T05:49:04Z</time>
					</trkpt>
					<trkpt lat="44.309120" lon="5.696170">
						<ele>772</ele>
						<time>2026-09-03T05:49:33Z</time>
					</trkpt>
					<trkpt lat="44.309140" lon="5.696270">
						<ele>771</ele>
						<time>2026-09-03T05:49:36Z</time>
					</trkpt>
					<trkpt lat="44.309330" lon="5.696610">
						<ele>762</ele>
						<time>2026-09-03T05:49:52Z</time>
					</trkpt>
					<trkpt lat="44.309530" lon="5.697170">
						<ele>758</ele>
						<time>2026-09-03T05:50:14Z</time>
					</trkpt>
					<trkpt lat="44.309800" lon="5.697640">
						<ele>750</ele>
						<time>2026-09-03T05:50:36Z</time>
					</trkpt>
					<trkpt lat="44.310020" lon="5.697870">
						<ele>743</ele>
						<time>2026-09-03T05:50:49Z</time>
					</trkpt>
					<trkpt lat="44.310180" lon="5.698260">
						<ele>741</ele>
						<time>2026-09-03T05:51:06Z</time>
					</trkpt>
					<trkpt lat="44.310530" lon="5.698930">
						<ele>730</ele>
						<time>2026-09-03T05:51:35Z</time>
					</trkpt>
					<trkpt lat="44.310580" lon="5.699110">
						<ele>729</ele>
						<time>2026-09-03T05:51:42Z</time>
					</trkpt>
					<trkpt lat="44.310620" lon="5.699300">
						<ele>728</ele>
						<time>2026-09-03T05:51:49Z</time>
					</trkpt>
					<trkpt lat="44.310620" lon="5.699720">
						<ele>728</ele>
						<time>2026-09-03T05:52:04Z</time>
					</trkpt>
					<trkpt lat="44.310580" lon="5.700140">
						<ele>729</ele>
						<time>2026-09-03T05:52:19Z</time>
					</trkpt>
					<trkpt lat="44.310450" lon="5.700670">
						<ele>731</ele>
						<time>2026-09-03T05:52:40Z</time>
					</trkpt>
					<trkpt lat="44.310480" lon="5.700730">
						<ele>730</ele>
						<time>2026-09-03T05:52:42Z</time>
					</trkpt>
					<trkpt lat="44.310530" lon="5.700690">
						<ele>728</ele>
						<time>2026-09-03T05:52:45Z</time>
					</trkpt>
					<trkpt lat="44.310640" lon="5.700510">
						<ele>725</ele>
						<time>2026-09-03T05:52:54Z</time>
					</trkpt>
					<trkpt lat="44.310820" lon="5.700030">
						<ele>719</ele>
						<time>2026-09-03T05:53:13Z</time>
					</trkpt>
					<trkpt lat="44.310870" lon="5.699770">
						<ele>717</ele>
						<time>2026-09-03T05:53:23Z</time>
					</trkpt>
					<trkpt lat="44.310940" lon="5.699120">
						<ele>713</ele>
						<time>2026-09-03T05:53:46Z</time>
					</trkpt>
					<trkpt lat="44.310940" lon="5.698910">
						<ele>711</ele>
						<time>2026-09-03T05:53:54Z</time>
					</trkpt>
					<trkpt lat="44.310890" lon="5.698430">
						<ele>710</ele>
						<time>2026-09-03T05:54:11Z</time>
					</trkpt>
					<trkpt lat="44.310950" lon="5.697630">
						<ele>703</ele>
						<time>2026-09-03T05:54:40Z</time>
					</trkpt>
					<trkpt lat="44.311020" lon="5.697070">
						<ele>703</ele>
						<time>2026-09-03T05:55:00Z</time>
					</trkpt>
					<trkpt lat="44.311120" lon="5.696590">
						<ele>702</ele>
						<time>2026-09-03T05:55:18Z</time>
					</trkpt>
					<trkpt lat="44.311340" lon="5.696020">
						<ele>698</ele>
						<time>2026-09-03T05:55:41Z</time>
					</trkpt>
					<trkpt lat="44.311480" lon="5.695760">
						<ele>695</ele>
						<time>2026-09-03T05:55:53Z</time>
					</trkpt>
					<trkpt lat="44.311630" lon="5.695570">
						<ele>691</ele>
						<time>2026-09-03T05:56:03Z</time>
					</trkpt>
					<trkpt lat="44.311670" lon="5.695560">
						<ele>691</ele>
						<time>2026-09-03T05:56:05Z</time>
					</trkpt>
					<trkpt lat="44.311720" lon="5.695610">
						<ele>690</ele>
						<time>2026-09-03T05:56:08Z</time>
					</trkpt>
					<trkpt lat="44.311720" lon="5.695700">
						<ele>690</ele>
						<time>2026-09-03T05:56:11Z</time>
					</trkpt>
					<trkpt lat="44.311610" lon="5.696010">
						<ele>692</ele>
						<time>2026-09-03T05:56:24Z</time>
					</trkpt>
					<trkpt lat="44.311600" lon="5.696150">
						<ele>692</ele>
						<time>2026-09-03T05:56:29Z</time>
					</trkpt>
					<trkpt lat="44.311620" lon="5.696230">
						<ele>692</ele>
						<time>2026-09-03T05:56:32Z</time>
					</trkpt>
					<trkpt lat="44.311680" lon="5.696320">
						<ele>690</ele>
						<time>2026-09-03T05:56:36Z</time>
					</trkpt>
					<trkpt lat="44.311890" lon="5.695620">
						<ele>688</ele>
						<time>2026-09-03T05:57:03Z</time>
					</trkpt>
					<trkpt lat="44.311870" lon="5.695230">
						<ele>688</ele>
						<time>2026-09-03T05:57:17Z</time>
					</trkpt>
					<trkpt lat="44.311880" lon="5.695130">
						<ele>688</ele>
						<time>2026-09-03T05:57:21Z</time>
					</trkpt>
					<trkpt lat="44.311920" lon="5.695070">
						<ele>688</ele>
						<time>2026-09-03T05:57:24Z</time>
					</trkpt>
					<trkpt lat="44.312820" lon="5.694640">
						<ele>685</ele>
						<time>2026-09-03T05:58:12Z</time>
					</trkpt>
					<trkpt lat="44.313590" lon="5.694230">
						<ele>690</ele>
						<time>2026-09-03T05:58:53Z</time>
					</trkpt>
					<trkpt lat="44.313480" lon="5.692710">
						<ele>688</ele>
						<time>2026-09-03T05:59:48Z</time>
					</trkpt>
					<trkpt lat="44.313890" lon="5.692590">
						<ele>691</ele>
						<time>2026-09-03T06:00:08Z</time>
					</trkpt>
					<trkpt lat="44.314020" lon="5.692340">
						<ele>697</ele>
						<time>2026-09-03T06:00:20Z</time>
					</trkpt>
					<trkpt lat="44.313950" lon="5.692100">
						<ele>703</ele>
						<time>2026-09-03T06:00:29Z</time>
					</trkpt>
					<trkpt lat="44.313860" lon="5.692010">
						<ele>704</ele>
						<time>2026-09-03T06:00:34Z</time>
					</trkpt>
					<trkpt lat="44.313830" lon="5.691830">
						<ele>707</ele>
						<time>2026-09-03T06:00:41Z</time>
					</trkpt>
					<trkpt lat="44.313780" lon="5.691760">
						<ele>707</ele>
						<time>2026-09-03T06:00:45Z</time>
					</trkpt>
					<trkpt lat="44.313570" lon="5.691210">
						<ele>714</ele>
						<time>2026-09-03T06:01:07Z</time>
					</trkpt>
					<trkpt lat="44.313670" lon="5.691260">
						<ele>717</ele>
						<time>2026-09-03T06:01:12Z</time>
					</trkpt>
					<trkpt lat="44.313820" lon="5.691410">
						<ele>719</ele>
						<time>2026-09-03T06:01:21Z</time>
					</trkpt>
					<trkpt lat="44.313960" lon="5.691490">
						<ele>721</ele>
						<time>2026-09-03T06:01:29Z</time>
					</trkpt>
					<trkpt lat="44.313980" lon="5.691530">
						<ele>721</ele>
						<time>2026-09-03T06:01:31Z</time>
					</trkpt>
					<trkpt lat="44.314060" lon="5.691420">
						<ele>728</ele>
						<time>2026-09-03T06:01:36Z</time>
					</trkpt>
					<trkpt lat="44.314220" lon="5.691490">
						<ele>731</ele>
						<time>2026-09-03T06:01:45Z</time>
					</trkpt>
					<trkpt lat="44.314220" lon="5.691310">
						<ele>739</ele>
						<time>2026-09-03T06:01:51Z</time>
					</trkpt>
					<trkpt lat="44.314180" lon="5.691270">
						<ele>738</ele>
						<time>2026-09-03T06:01:54Z</time>
					</trkpt>
					<trkpt lat="44.314200" lon="5.691230">
						<ele>741</ele>
						<time>2026-09-03T06:01:55Z</time>
					</trkpt>
					<trkpt lat="44.314320" lon="5.691340">
						<ele>742</ele>
						<time>2026-09-03T06:02:03Z</time>
					</trkpt>
					<trkpt lat="44.314300" lon="5.691180">
						<ele>747</ele>
						<time>2026-09-03T06:02:08Z</time>
					</trkpt>
					<trkpt lat="44.314530" lon="5.691270">
						<ele>755</ele>
						<time>2026-09-03T06:02:20Z</time>
					</trkpt>
					<trkpt lat="44.314540" lon="5.691220">
						<ele>757</ele>
						<time>2026-09-03T06:02:22Z</time>
					</trkpt>
					<trkpt lat="44.314490" lon="5.691140">
						<ele>758</ele>
						<time>2026-09-03T06:02:26Z</time>
					</trkpt>
					<trkpt lat="44.314530" lon="5.691130">
						<ele>760</ele>
						<time>2026-09-03T06:02:28Z</time>
					</trkpt>
					<trkpt lat="44.314380" lon="5.690750">
						<ele>764</ele>
						<time>2026-09-03T06:02:44Z</time>
					</trkpt>
					<trkpt lat="44.314410" lon="5.690720">
						<ele>765</ele>
						<time>2026-09-03T06:02:45Z</time>
					</trkpt>
					<trkpt lat="44.314500" lon="5.690810">
						<ele>770</ele>
						<time>2026-09-03T06:02:51Z</time>
					</trkpt>
					<trkpt lat="44.314700" lon="5.690880">
						<ele>778</ele>
						<time>2026-09-03T06:03:01Z</time>
					</trkpt>
					<trkpt lat="44.314580" lon="5.690590">
						<ele>771</ele>
						<time>2026-09-03T06:03:13Z</time>
					</trkpt>
					<trkpt lat="44.314600" lon="5.690590">
						<ele>772</ele>
						<time>2026-09-03T06:03:14Z</time>
					</trkpt>
					<trkpt lat="44.314640" lon="5.690460">
						<ele>772</ele>
						<time>2026-09-03T06:03:19Z</time>
					</trkpt>
					<trkpt lat="44.314630" lon="5.690400">
						<ele>771</ele>
						<time>2026-09-03T06:03:22Z</time>
					</trkpt>
					<trkpt lat="44.314820" lon="5.690490">
						<ele>780</ele>
						<time>2026-09-03T06:03:32Z</time>
					</trkpt>
					<trkpt lat="44.314950" lon="5.690480">
						<ele>785</ele>
						<time>2026-09-03T06:03:38Z</time>
					</trkpt>
					<trkpt lat="44.315020" lon="5.690430">
						<ele>786</ele>
						<time>2026-09-03T06:03:42Z</time>
					</trkpt>
					<trkpt lat="44.315690" lon="5.689850">
						<ele>808</ele>
						<time>2026-09-03T06:04:21Z</time>
					</trkpt>
					<trkpt lat="44.316170" lon="5.689240">
						<ele>818</ele>
						<time>2026-09-03T06:04:54Z</time>
					</trkpt>
					<trkpt lat="44.316190" lon="5.689140">
						<ele>817</ele>
						<time>2026-09-03T06:04:58Z</time>
					</trkpt>
					<trkpt lat="44.316750" lon="5.688670">
						<ele>830</ele>
						<time>2026-09-03T06:05:30Z</time>
					</trkpt>
					<trkpt lat="44.316870" lon="5.688650">
						<ele>831</ele>
						<time>2026-09-03T06:05:36Z</time>
					</trkpt>
					<trkpt lat="44.317150" lon="5.688710">
						<ele>835</ele>
						<time>2026-09-03T06:05:51Z</time>
					</trkpt>
					<trkpt lat="44.317330" lon="5.688800">
						<ele>839</ele>
						<time>2026-09-03T06:06:00Z</time>
					</trkpt>
					<trkpt lat="44.317640" lon="5.688880">
						<ele>844</ele>
						<time>2026-09-03T06:06:16Z</time>
					</trkpt>
					<trkpt lat="44.317890" lon="5.688860">
						<ele>845</ele>
						<time>2026-09-03T06:06:28Z</time>
					</trkpt>
					<trkpt lat="44.318060" lon="5.688810">
						<ele>844</ele>
						<time>2026-09-03T06:06:37Z</time>
					</trkpt>
					<trkpt lat="44.318790" lon="5.688740">
						<ele>844</ele>
						<time>2026-09-03T06:07:14Z</time>
					</trkpt>
					<trkpt lat="44.319060" lon="5.688680">
						<ele>844</ele>
						<time>2026-09-03T06:07:27Z</time>
					</trkpt>
					<trkpt lat="44.319310" lon="5.688510">
						<ele>844</ele>
						<time>2026-09-03T06:07:41Z</time>
					</trkpt>
					<trkpt lat="44.319480" lon="5.688450">
						<ele>845</ele>
						<time>2026-09-03T06:07:50Z</time>
					</trkpt>
					<trkpt lat="44.319960" lon="5.688060">
						<ele>858</ele>
						<time>2026-09-03T06:08:18Z</time>
					</trkpt>
					<trkpt lat="44.320080" lon="5.688030">
						<ele>862</ele>
						<time>2026-09-03T06:08:24Z</time>
					</trkpt>
					<trkpt lat="44.320190" lon="5.688040">
						<ele>864</ele>
						<time>2026-09-03T06:08:29Z</time>
					</trkpt>
					<trkpt lat="44.320430" lon="5.687940">
						<ele>872</ele>
						<time>2026-09-03T06:08:42Z</time>
					</trkpt>
					<trkpt lat="44.321180" lon="5.687830">
						<ele>893</ele>
						<time>2026-09-03T06:09:20Z</time>
					</trkpt>
					<trkpt lat="44.321280" lon="5.687780">
						<ele>898</ele>
						<time>2026-09-03T06:09:25Z</time>
					</trkpt>
					<trkpt lat="44.321600" lon="5.687710">
						<ele>909</ele>
						<time>2026-09-03T06:09:41Z</time>
					</trkpt>
					<trkpt lat="44.321980" lon="5.687510">
						<ele>920</ele>
						<time>2026-09-03T06:10:02Z</time>
					</trkpt>
					<trkpt lat="44.322450" lon="5.687200">
						<ele>932</ele>
						<time>2026-09-03T06:10:28Z</time>
					</trkpt>
					<trkpt lat="44.322660" lon="5.687120">
						<ele>939</ele>
						<time>2026-09-03T06:10:38Z</time>
					</trkpt>
					<trkpt lat="44.322760" lon="5.687140">
						<ele>940</ele>
						<time>2026-09-03T06:10:44Z</time>
					</trkpt>
					<trkpt lat="44.322810" lon="5.687330">
						<ele>931</ele>
						<time>2026-09-03T06:10:51Z</time>
					</trkpt>
					<trkpt lat="44.322880" lon="5.687400">
						<ele>929</ele>
						<time>2026-09-03T06:10:55Z</time>
					</trkpt>
					<trkpt lat="44.322950" lon="5.687360">
						<ele>932</ele>
						<time>2026-09-03T06:10:59Z</time>
					</trkpt>
					<trkpt lat="44.323200" lon="5.687300">
						<ele>940</ele>
						<time>2026-09-03T06:11:12Z</time>
					</trkpt>
					<trkpt lat="44.323350" lon="5.687400">
						<ele>938</ele>
						<time>2026-09-03T06:11:20Z</time>
					</trkpt>
					<trkpt lat="44.323550" lon="5.687400">
						<ele>941</ele>
						<time>2026-09-03T06:11:30Z</time>
					</trkpt>
					<trkpt lat="44.323730" lon="5.687450">
						<ele>941</ele>
						<time>2026-09-03T06:11:39Z</time>
					</trkpt>
					<trkpt lat="44.323940" lon="5.687470">
						<ele>943</ele>
						<time>2026-09-03T06:11:50Z</time>
					</trkpt>
					<trkpt lat="44.324130" lon="5.687460">
						<ele>946</ele>
						<time>2026-09-03T06:11:59Z</time>
					</trkpt>
					<trkpt lat="44.324240" lon="5.687410">
						<ele>951</ele>
						<time>2026-09-03T06:12:05Z</time>
					</trkpt>
					<trkpt lat="44.324520" lon="5.687210">
						<ele>965</ele>
						<time>2026-09-03T06:12:21Z</time>
					</trkpt>
					<trkpt lat="44.324650" lon="5.687060">
						<ele>974</ele>
						<time>2026-09-03T06:12:29Z</time>
					</trkpt>
					<trkpt lat="44.324710" lon="5.687100">
						<ele>973</ele>
						<time>2026-09-03T06:12:32Z</time>
					</trkpt>
					<trkpt lat="44.324960" lon="5.687510">
						<ele>959</ele>
						<time>2026-09-03T06:12:52Z</time>
					</trkpt>
					<trkpt lat="44.325060" lon="5.687600">
						<ele>958</ele>
						<time>2026-09-03T06:12:58Z</time>
					</trkpt>
					<trkpt lat="44.325330" lon="5.687670">
						<ele>966</ele>
						<time>2026-09-03T06:13:11Z</time>
					</trkpt>
					<trkpt lat="44.325780" lon="5.687690">
						<ele>982</ele>
						<time>2026-09-03T06:13:34Z</time>
					</trkpt>
					<trkpt lat="44.325910" lon="5.687650">
						<ele>989</ele>
						<time>2026-09-03T06:13:41Z</time>
					</trkpt>
					<trkpt lat="44.325970" lon="5.687720">
						<ele>989</ele>
						<time>2026-09-03T06:13:45Z</time>
					</trkpt>
					<trkpt lat="44.326180" lon="5.687780">
						<ele>996</ele>
						<time>2026-09-03T06:13:55Z</time>
					</trkpt>
					<trkpt lat="44.326320" lon="5.687870">
						<ele>999</ele>
						<time>2026-09-03T06:14:03Z</time>
					</trkpt>
					<trkpt lat="44.326420" lon="5.687990">
						<ele>999</ele>
						<time>2026-09-03T06:14:10Z</time>
					</trkpt>
					<trkpt lat="44.326450" lon="5.688080">
						<ele>998</ele>
						<time>2026-09-03T06:14:13Z</time>
					</trkpt>
					<trkpt lat="44.326420" lon="5.688200">
						<ele>993</ele>
						<time>2026-09-03T06:14:18Z</time>
					</trkpt>
					<trkpt lat="44.326430" lon="5.688340">
						<ele>989</ele>
						<time>2026-09-03T06:14:23Z</time>
					</trkpt>
					<trkpt lat="44.326600" lon="5.688740">
						<ele>988</ele>
						<time>2026-09-03T06:14:39Z</time>
					</trkpt>
					<trkpt lat="44.326780" lon="5.688990">
						<ele>993</ele>
						<time>2026-09-03T06:14:52Z</time>
					</trkpt>
					<trkpt lat="44.326860" lon="5.689150">
						<ele>995</ele>
						<time>2026-09-03T06:14:59Z</time>
					</trkpt>
					<trkpt lat="44.326980" lon="5.689530">
						<ele>993</ele>
						<time>2026-09-03T06:15:14Z</time>
					</trkpt>
					<trkpt lat="44.327250" lon="5.690580">
						<ele>986</ele>
						<time>2026-09-03T06:15:54Z</time>
					</trkpt>
					<trkpt lat="44.327300" lon="5.690650">
						<ele>987</ele>
						<time>2026-09-03T06:15:57Z</time>
					</trkpt>
					<trkpt lat="44.327490" lon="5.690650">
						<ele>998</ele>
						<time>2026-09-03T06:16:07Z</time>
					</trkpt>
					<trkpt lat="44.327530" lon="5.690670">
						<ele>999</ele>
						<time>2026-09-03T06:16:09Z</time>
					</trkpt>
					<trkpt lat="44.327650" lon="5.690970">
						<ele>996</ele>
						<time>2026-09-03T06:16:21Z</time>
					</trkpt>
					<trkpt lat="44.327770" lon="5.691070">
						<ele>998</ele>
						<time>2026-09-03T06:16:28Z</time>
					</trkpt>
					<trkpt lat="44.327870" lon="5.691120">
						<ele>1001</ele>
						<time>2026-09-03T06:16:34Z</time>
					</trkpt>
					<trkpt lat="44.328270" lon="5.691170">
						<ele>1014</ele>
						<time>2026-09-03T06:16:54Z</time>
					</trkpt>
					<trkpt lat="44.328390" lon="5.691240">
						<ele>1018</ele>
						<time>2026-09-03T06:17:00Z</time>
					</trkpt>
					<trkpt lat="44.328560" lon="5.691230">
						<ele>1023</ele>
						<time>2026-09-03T06:17:09Z</time>
					</trkpt>
					<trkpt lat="44.328710" lon="5.691300">
						<ele>1028</ele>
						<time>2026-09-03T06:17:17Z</time>
					</trkpt>
					<trkpt lat="44.328780" lon="5.691400">
						<ele>1029</ele>
						<time>2026-09-03T06:17:22Z</time>
					</trkpt>
					<trkpt lat="44.328980" lon="5.691450">
						<ele>1036</ele>
						<time>2026-09-03T06:17:32Z</time>
					</trkpt>
					<trkpt lat="44.329080" lon="5.691450">
						<ele>1039</ele>
						<time>2026-09-03T06:17:37Z</time>
					</trkpt>
					<trkpt lat="44.329250" lon="5.691610">
						<ele>1043</ele>
						<time>2026-09-03T06:17:47Z</time>
					</trkpt>
					<trkpt lat="44.329260" lon="5.691690">
						<ele>1043</ele>
						<time>2026-09-03T06:17:50Z</time>
					</trkpt>
					<trkpt lat="44.329300" lon="5.691760">
						<ele>1045</ele>
						<time>2026-09-03T06:17:53Z</time>
					</trkpt>
					<trkpt lat="44.329620" lon="5.691920">
						<ele>1055</ele>
						<time>2026-09-03T06:18:10Z</time>
					</trkpt>
					<trkpt lat="44.329670" lon="5.691970">
						<ele>1057</ele>
						<time>2026-09-03T06:18:13Z</time>
					</trkpt>
					<trkpt lat="44.329700" lon="5.692070">
						<ele>1059</ele>
						<time>2026-09-03T06:18:17Z</time>
					</trkpt>
					<trkpt lat="44.329820" lon="5.692170">
						<ele>1063</ele>
						<time>2026-09-03T06:18:24Z</time>
					</trkpt>
					<trkpt lat="44.329890" lon="5.692440">
						<ele>1067</ele>
						<time>2026-09-03T06:18:34Z</time>
					</trkpt>
					<trkpt lat="44.329900" lon="5.692980">
						<ele>1074</ele>
						<time>2026-09-03T06:18:54Z</time>
					</trkpt>
					<trkpt lat="44.330010" lon="5.693160">
						<ele>1079</ele>
						<time>2026-09-03T06:19:02Z</time>
					</trkpt>
					<trkpt lat="44.330060" lon="5.693390">
						<ele>1083</ele>
						<time>2026-09-03T06:19:11Z</time>
					</trkpt>
					<trkpt lat="44.329920" lon="5.693730">
						<ele>1083</ele>
						<time>2026-09-03T06:19:25Z</time>
					</trkpt>
					<trkpt lat="44.329870" lon="5.694300">
						<ele>1088</ele>
						<time>2026-09-03T06:19:45Z</time>
					</trkpt>
					<trkpt lat="44.330020" lon="5.694620">
						<ele>1094</ele>
						<time>2026-09-03T06:19:59Z</time>
					</trkpt>
					<trkpt lat="44.330000" lon="5.695190">
						<ele>1101</ele>
						<time>2026-09-03T06:20:20Z</time>
					</trkpt>
					<trkpt lat="44.329910" lon="5.695280">
						<ele>1101</ele>
						<time>2026-09-03T06:20:25Z</time>
					</trkpt>
					<trkpt lat="44.329760" lon="5.695310">
						<ele>1101</ele>
						<time>2026-09-03T06:20:33Z</time>
					</trkpt>
					<trkpt lat="44.329570" lon="5.695470">
						<ele>1102</ele>
						<time>2026-09-03T06:20:44Z</time>
					</trkpt>
					<trkpt lat="44.329390" lon="5.695710">
						<ele>1105</ele>
						<time>2026-09-03T06:20:56Z</time>
					</trkpt>
					<trkpt lat="44.329300" lon="5.695910">
						<ele>1109</ele>
						<time>2026-09-03T06:21:05Z</time>
					</trkpt>
					<trkpt lat="44.329240" lon="5.695970">
						<ele>1110</ele>
						<time>2026-09-03T06:21:08Z</time>
					</trkpt>
					<trkpt lat="44.329010" lon="5.696080">
						<ele>1111</ele>
						<time>2026-09-03T06:21:21Z</time>
					</trkpt>
					<trkpt lat="44.328960" lon="5.696140">
						<ele>1112</ele>
						<time>2026-09-03T06:21:24Z</time>
					</trkpt>
					<trkpt lat="44.328840" lon="5.696210">
						<ele>1114</ele>
						<time>2026-09-03T06:21:30Z</time>
					</trkpt>
					<trkpt lat="44.328570" lon="5.696490">
						<ele>1121</ele>
						<time>2026-09-03T06:21:47Z</time>
					</trkpt>
					<trkpt lat="44.328160" lon="5.696770">
						<ele>1128</ele>
						<time>2026-09-03T06:22:10Z</time>
					</trkpt>
					<trkpt lat="44.327810" lon="5.696960">
						<ele>1128</ele>
						<time>2026-09-03T06:22:29Z</time>
					</trkpt>
					<trkpt lat="44.327740" lon="5.697030">
						<ele>1129</ele>
						<time>2026-09-03T06:22:33Z</time>
					</trkpt>
					<trkpt lat="44.327760" lon="5.697060">
						<ele>1130</ele>
						<time>2026-09-03T06:22:35Z</time>
					</trkpt>
					<trkpt lat="44.327920" lon="5.697120">
						<ele>1134</ele>
						<time>2026-09-03T06:22:43Z</time>
					</trkpt>
					<trkpt lat="44.328200" lon="5.697310">
						<ele>1144</ele>
						<time>2026-09-03T06:22:58Z</time>
					</trkpt>
					<trkpt lat="44.328430" lon="5.697600">
						<ele>1153</ele>
						<time>2026-09-03T06:23:14Z</time>
					</trkpt>
					<trkpt lat="44.328520" lon="5.697670">
						<ele>1154</ele>
						<time>2026-09-03T06:23:19Z</time>
					</trkpt>
					<trkpt lat="44.328890" lon="5.697810">
						<ele>1155</ele>
						<time>2026-09-03T06:23:38Z</time>
					</trkpt>
					<trkpt lat="44.329060" lon="5.697800">
						<ele>1153</ele>
						<time>2026-09-03T06:23:47Z</time>
					</trkpt>
					<trkpt lat="44.329370" lon="5.697700">
						<ele>1148</ele>
						<time>2026-09-03T06:24:03Z</time>
					</trkpt>
					<trkpt lat="44.329630" lon="5.697720">
						<ele>1147</ele>
						<time>2026-09-03T06:24:16Z</time>
					</trkpt>
					<trkpt lat="44.329710" lon="5.697760">
						<ele>1148</ele>
						<time>2026-09-03T06:24:20Z</time>
					</trkpt>
					<trkpt lat="44.330050" lon="5.698070">
						<ele>1153</ele>
						<time>2026-09-03T06:24:40Z</time>
					</trkpt>
					<trkpt lat="44.330110" lon="5.698100">
						<ele>1154</ele>
						<time>2026-09-03T06:24:44Z</time>
					</trkpt>
					<trkpt lat="44.330260" lon="5.698080">
						<ele>1154</ele>
						<time>2026-09-03T06:24:51Z</time>
					</trkpt>
					<trkpt lat="44.330390" lon="5.698090">
						<ele>1154</ele>
						<time>2026-09-03T06:24:58Z</time>
					</trkpt>
					<trkpt lat="44.330450" lon="5.698120">
						<ele>1155</ele>
						<time>2026-09-03T06:25:01Z</time>
					</trkpt>
					<trkpt lat="44.330630" lon="5.698300">
						<ele>1158</ele>
						<time>2026-09-03T06:25:12Z</time>
					</trkpt>
					<trkpt lat="44.330830" lon="5.698570">
						<ele>1164</ele>
						<time>2026-09-03T06:25:26Z</time>
					</trkpt>
					<trkpt lat="44.330880" lon="5.698600">
						<ele>1165</ele>
						<time>2026-09-03T06:25:28Z</time>
					</trkpt>
					<trkpt lat="44.331280" lon="5.698660">
						<ele>1172</ele>
						<time>2026-09-03T06:25:49Z</time>
					</trkpt>
					<trkpt lat="44.331480" lon="5.698750">
						<ele>1176</ele>
						<time>2026-09-03T06:25:59Z</time>
					</trkpt>
					<trkpt lat="44.331500" lon="5.698790">
						<ele>1177</ele>
						<time>2026-09-03T06:26:01Z</time>
					</trkpt>
					<trkpt lat="44.331100" lon="5.699210">
						<ele>1178</ele>
						<time>2026-09-03T06:26:26Z</time>
					</trkpt>
					<trkpt lat="44.330690" lon="5.699720">
						<ele>1188</ele>
						<time>2026-09-03T06:26:53Z</time>
					</trkpt>
					<trkpt lat="44.330590" lon="5.699890">
						<ele>1192</ele>
						<time>2026-09-03T06:27:01Z</time>
					</trkpt>
					<trkpt lat="44.330610" lon="5.699910">
						<ele>1192</ele>
						<time>2026-09-03T06:27:02Z</time>
					</trkpt>
					<trkpt lat="44.331150" lon="5.699950">
						<ele>1193</ele>
						<time>2026-09-03T06:27:30Z</time>
					</trkpt>
					<trkpt lat="44.331620" lon="5.700250">
						<ele>1201</ele>
						<time>2026-09-03T06:27:55Z</time>
					</trkpt>
					<trkpt lat="44.331880" lon="5.700350">
						<ele>1201</ele>
						<time>2026-09-03T06:28:09Z</time>
					</trkpt>
					<trkpt lat="44.332100" lon="5.700460">
						<ele>1201</ele>
						<time>2026-09-03T06:28:21Z</time>
					</trkpt>
					<trkpt lat="44.332120" lon="5.700490">
						<ele>1201</ele>
						<time>2026-09-03T06:28:22Z</time>
					</trkpt>
					<trkpt lat="44.332110" lon="5.700550">
						<ele>1202</ele>
						<time>2026-09-03T06:28:24Z</time>
					</trkpt>
					<trkpt lat="44.332070" lon="5.700600">
						<ele>1203</ele>
						<time>2026-09-03T06:28:27Z</time>
					</trkpt>
					<trkpt lat="44.331650" lon="5.700900">
						<ele>1213</ele>
						<time>2026-09-03T06:28:51Z</time>
					</trkpt>
					<trkpt lat="44.331430" lon="5.701020">
						<ele>1216</ele>
						<time>2026-09-03T06:29:02Z</time>
					</trkpt>
					<trkpt lat="44.331330" lon="5.701160">
						<ele>1220</ele>
						<time>2026-09-03T06:29:09Z</time>
					</trkpt>
					<trkpt lat="44.331200" lon="5.701240">
						<ele>1222</ele>
						<time>2026-09-03T06:29:17Z</time>
					</trkpt>
					<trkpt lat="44.331150" lon="5.701320">
						<ele>1224</ele>
						<time>2026-09-03T06:29:20Z</time>
					</trkpt>
					<trkpt lat="44.331020" lon="5.701380">
						<ele>1227</ele>
						<time>2026-09-03T06:29:27Z</time>
					</trkpt>
					<trkpt lat="44.330180" lon="5.701460">
						<ele>1238</ele>
						<time>2026-09-03T06:30:09Z</time>
					</trkpt>
					<trkpt lat="44.329520" lon="5.701430">
						<ele>1246</ele>
						<time>2026-09-03T06:30:42Z</time>
					</trkpt>
					<trkpt lat="44.329040" lon="5.701310">
						<ele>1246</ele>
						<time>2026-09-03T06:31:07Z</time>
					</trkpt>
					<trkpt lat="44.328890" lon="5.701300">
						<ele>1243</ele>
						<time>2026-09-03T06:31:14Z</time>
					</trkpt>
					<trkpt lat="44.328790" lon="5.701340">
						<ele>1242</ele>
						<time>2026-09-03T06:31:19Z</time>
					</trkpt>
					<trkpt lat="44.328780" lon="5.701380">
						<ele>1242</ele>
						<time>2026-09-03T06:31:21Z</time>
					</trkpt>
					<trkpt lat="44.328980" lon="5.701870">
						<ele>1255</ele>
						<time>2026-09-03T06:31:41Z</time>
					</trkpt>
					<trkpt lat="44.329320" lon="5.702310">
						<ele>1268</ele>
						<time>2026-09-03T06:32:04Z</time>
					</trkpt>
					<trkpt lat="44.329330" lon="5.702360">
						<ele>1269</ele>
						<time>2026-09-03T06:32:06Z</time>
					</trkpt>
					<trkpt lat="44.329220" lon="5.702420">
						<ele>1271</ele>
						<time>2026-09-03T06:32:12Z</time>
					</trkpt>
					<trkpt lat="44.329200" lon="5.702530">
						<ele>1273</ele>
						<time>2026-09-03T06:32:16Z</time>
					</trkpt>
					<trkpt lat="44.329360" lon="5.702660">
						<ele>1275</ele>
						<time>2026-09-03T06:32:25Z</time>
					</trkpt>
					<trkpt lat="44.329540" lon="5.702870">
						<ele>1279</ele>
						<time>2026-09-03T06:32:37Z</time>
					</trkpt>
					<trkpt lat="44.329730" lon="5.703010">
						<ele>1282</ele>
						<time>2026-09-03T06:32:48Z</time>
					</trkpt>
					<trkpt lat="44.329750" lon="5.703060">
						<ele>1283</ele>
						<time>2026-09-03T06:32:50Z</time>
					</trkpt>
					<trkpt lat="44.329720" lon="5.703100">
						<ele>1284</ele>
						<time>2026-09-03T06:32:52Z</time>
					</trkpt>
					<trkpt lat="44.329380" lon="5.703190">
						<ele>1284</ele>
						<time>2026-09-03T06:33:09Z</time>
					</trkpt>
					<trkpt lat="44.329290" lon="5.703350">
						<ele>1285</ele>
						<time>2026-09-03T06:33:17Z</time>
					</trkpt>
					<trkpt lat="44.329260" lon="5.703540">
						<ele>1287</ele>
						<time>2026-09-03T06:33:24Z</time>
					</trkpt>
					<trkpt lat="44.329410" lon="5.703440">
						<ele>1288</ele>
						<time>2026-09-03T06:33:32Z</time>
					</trkpt>
					<trkpt lat="44.329480" lon="5.703450">
						<ele>1289</ele>
						<time>2026-09-03T06:33:35Z</time>
					</trkpt>
					<trkpt lat="44.329870" lon="5.703640">
						<ele>1296</ele>
						<time>2026-09-03T06:33:56Z</time>
					</trkpt>
					<trkpt lat="44.330330" lon="5.704000">
						<ele>1299</ele>
						<time>2026-09-03T06:34:23Z</time>
					</trkpt>
					<trkpt lat="44.330360" lon="5.704050">
						<ele>1300</ele>
						<time>2026-09-03T06:34:25Z</time>
					</trkpt>
					<trkpt lat="44.330350" lon="5.704070">
						<ele>1301</ele>
						<time>2026-09-03T06:34:26Z</time>
					</trkpt>
					<trkpt lat="44.330060" lon="5.704100">
						<ele>1307</ele>
						<time>2026-09-03T06:34:40Z</time>
					</trkpt>
					<trkpt lat="44.329980" lon="5.704150">
						<ele>1308</ele>
						<time>2026-09-03T06:34:45Z</time>
					</trkpt>
					<trkpt lat="44.329920" lon="5.704240">
						<ele>1307</ele>
						<time>2026-09-03T06:34:49Z</time>
					</trkpt>
					<trkpt lat="44.329900" lon="5.704350">
						<ele>1305</ele>
						<time>2026-09-03T06:34:53Z</time>
					</trkpt>
					<trkpt lat="44.329920" lon="5.704370">
						<ele>1305</ele>
						<time>2026-09-03T06:34:54Z</time>
					</trkpt>
					<trkpt lat="44.330010" lon="5.704350">
						<ele>1307</ele>
						<time>2026-09-03T06:34:59Z</time>
					</trkpt>
					<trkpt lat="44.330160" lon="5.704450">
						<ele>1304</ele>
						<time>2026-09-03T06:35:07Z</time>
					</trkpt>
					<trkpt lat="44.330350" lon="5.704470">
						<ele>1301</ele>
						<time>2026-09-03T06:35:17Z</time>
					</trkpt>
					<trkpt lat="44.330370" lon="5.704510">
						<ele>1300</ele>
						<time>2026-09-03T06:35:19Z</time>
					</trkpt>
					<trkpt lat="44.330610" lon="5.704700">
						<ele>1296</ele>
						<time>2026-09-03T06:35:32Z</time>
					</trkpt>
					<trkpt lat="44.330620" lon="5.704760">
						<ele>1295</ele>
						<time>2026-09-03T06:35:35Z</time>
					</trkpt>
					<trkpt lat="44.330430" lon="5.704910">
						<ele>1297</ele>
						<time>2026-09-03T06:35:45Z</time>
					</trkpt>
					<trkpt lat="44.330360" lon="5.705020">
						<ele>1296</ele>
						<time>2026-09-03T06:35:51Z</time>
					</trkpt>
					<trkpt lat="44.330350" lon="5.705070">
						<ele>1294</ele>
						<time>2026-09-03T06:35:53Z</time>
					</trkpt>
					<trkpt lat="44.330380" lon="5.705210">
						<ele>1286</ele>
						<time>2026-09-03T06:35:58Z</time>
					</trkpt>
					<trkpt lat="44.330600" lon="5.705250">
						<ele>1283</ele>
						<time>2026-09-03T06:36:09Z</time>
					</trkpt>
					<trkpt lat="44.330760" lon="5.705320">
						<ele>1279</ele>
						<time>2026-09-03T06:36:17Z</time>
					</trkpt>
					<trkpt lat="44.331360" lon="5.705640">
						<ele>1252</ele>
						<time>2026-09-03T06:36:49Z</time>
					</trkpt>
					<trkpt lat="44.331440" lon="5.705730">
						<ele>1249</ele>
						<time>2026-09-03T06:36:55Z</time>
					</trkpt>
					<trkpt lat="44.331850" lon="5.705890">
						<ele>1236</ele>
						<time>2026-09-03T06:37:16Z</time>
					</trkpt>
					<trkpt lat="44.331900" lon="5.705880">
						<ele>1234</ele>
						<time>2026-09-03T06:37:18Z</time>
					</trkpt>
					<trkpt lat="44.331960" lon="5.705920">
						<ele>1232</ele>
						<time>2026-09-03T06:37:22Z</time>
					</trkpt>
					<trkpt lat="44.332190" lon="5.706180">
						<ele>1225</ele>
						<time>2026-09-03T06:37:37Z</time>
					</trkpt>
					<trkpt lat="44.332430" lon="5.706630">
						<ele>1227</ele>
						<time>2026-09-03T06:37:57Z</time>
					</trkpt>
					<trkpt lat="44.332490" lon="5.706690">
						<ele>1227</ele>
						<time>2026-09-03T06:38:00Z</time>
					</trkpt>
					<trkpt lat="44.332550" lon="5.706870">
						<ele>1222</ele>
						<time>2026-09-03T06:38:07Z</time>
					</trkpt>
					<trkpt lat="44.332940" lon="5.707080">
						<ele>1216</ele>
						<time>2026-09-03T06:38:28Z</time>
					</trkpt>
					<trkpt lat="44.333000" lon="5.707260">
						<ele>1216</ele>
						<time>2026-09-03T06:38:35Z</time>
					</trkpt>
					<trkpt lat="44.333100" lon="5.707270">
						<ele>1216</ele>
						<time>2026-09-03T06:38:40Z</time>
					</trkpt>
					<trkpt lat="44.333180" lon="5.707350">
						<ele>1217</ele>
						<time>2026-09-03T06:38:45Z</time>
					</trkpt>
					<trkpt lat="44.333450" lon="5.707720">
						<ele>1212</ele>
						<time>2026-09-03T06:39:04Z</time>
					</trkpt>
					<trkpt lat="44.333610" lon="5.707890">
						<ele>1206</ele>
						<time>2026-09-03T06:39:14Z</time>
					</trkpt>
					<trkpt lat="44.333640" lon="5.707890">
						<ele>1206</ele>
						<time>2026-09-03T06:39:16Z</time>
					</trkpt>
					<trkpt lat="44.333860" lon="5.708050">
						<ele>1204</ele>
						<time>2026-09-03T06:39:28Z</time>
					</trkpt>
					<trkpt lat="44.333940" lon="5.708160">
						<ele>1204</ele>
						<time>2026-09-03T06:39:34Z</time>
					</trkpt>
					<trkpt lat="44.334070" lon="5.708180">
						<ele>1205</ele>
						<time>2026-09-03T06:39:40Z</time>
					</trkpt>
					<trkpt lat="44.334110" lon="5.708290">
						<ele>1207</ele>
						<time>2026-09-03T06:39:45Z</time>
					</trkpt>
					<trkpt lat="44.334140" lon="5.708290">
						<ele>1207</ele>
						<time>2026-09-03T06:39:46Z</time>
					</trkpt>
					<trkpt lat="44.334260" lon="5.708450">
						<ele>1202</ele>
						<time>2026-09-03T06:39:55Z</time>
					</trkpt>
					<trkpt lat="44.334350" lon="5.708480">
						<ele>1200</ele>
						<time>2026-09-03T06:39:59Z</time>
					</trkpt>
					<trkpt lat="44.334430" lon="5.708570">
						<ele>1197</ele>
						<time>2026-09-03T06:40:04Z</time>
					</trkpt>
					<trkpt lat="44.334590" lon="5.708630">
						<ele>1193</ele>
						<time>2026-09-03T06:40:13Z</time>
					</trkpt>
					<trkpt lat="44.334640" lon="5.708790">
						<ele>1191</ele>
						<time>2026-09-03T06:40:19Z</time>
					</trkpt>
					<trkpt lat="44.334700" lon="5.708850">
						<ele>1190</ele>
						<time>2026-09-03T06:40:23Z</time>
					</trkpt>
					<trkpt lat="44.334740" lon="5.708940">
						<ele>1189</ele>
						<time>2026-09-03T06:40:26Z</time>
					</trkpt>
					<trkpt lat="44.334780" lon="5.708960">
						<ele>1189</ele>
						<time>2026-09-03T06:40:29Z</time>
					</trkpt>
					<trkpt lat="44.334840" lon="5.709080">
						<ele>1189</ele>
						<time>2026-09-03T06:40:34Z</time>
					</trkpt>
					<trkpt lat="44.335160" lon="5.709410">
						<ele>1183</ele>
						<time>2026-09-03T06:40:54Z</time>
					</trkpt>
					<trkpt lat="44.335250" lon="5.709470">
						<ele>1182</ele>
						<time>2026-09-03T06:40:59Z</time>
					</trkpt>
					<trkpt lat="44.335310" lon="5.709610">
						<ele>1181</ele>
						<time>2026-09-03T06:41:05Z</time>
					</trkpt>
					<trkpt lat="44.335350" lon="5.709650">
						<ele>1180</ele>
						<time>2026-09-03T06:41:07Z</time>
					</trkpt>
					<trkpt lat="44.335350" lon="5.709690">
						<ele>1180</ele>
						<time>2026-09-03T06:41:08Z</time>
					</trkpt>
					<trkpt lat="44.335470" lon="5.709760">
						<ele>1180</ele>
						<time>2026-09-03T06:41:15Z</time>
					</trkpt>
					<trkpt lat="44.335540" lon="5.710010">
						<ele>1182</ele>
						<time>2026-09-03T06:41:25Z</time>
					</trkpt>
					<trkpt lat="44.335600" lon="5.710080">
						<ele>1182</ele>
						<time>2026-09-03T06:41:28Z</time>
					</trkpt>
					<trkpt lat="44.335640" lon="5.710210">
						<ele>1183</ele>
						<time>2026-09-03T06:41:34Z</time>
					</trkpt>
					<trkpt lat="44.335700" lon="5.710270">
						<ele>1185</ele>
						<time>2026-09-03T06:41:37Z</time>
					</trkpt>
					<trkpt lat="44.335790" lon="5.710450">
						<ele>1188</ele>
						<time>2026-09-03T06:41:45Z</time>
					</trkpt>
					<trkpt lat="44.335880" lon="5.710720">
						<ele>1190</ele>
						<time>2026-09-03T06:41:56Z</time>
					</trkpt>
					<trkpt lat="44.336050" lon="5.710900">
						<ele>1187</ele>
						<time>2026-09-03T06:42:06Z</time>
					</trkpt>
					<trkpt lat="44.336080" lon="5.711150">
						<ele>1187</ele>
						<time>2026-09-03T06:42:16Z</time>
					</trkpt>
					<trkpt lat="44.336200" lon="5.711310">
						<ele>1187</ele>
						<time>2026-09-03T06:42:24Z</time>
					</trkpt>
					<trkpt lat="44.336210" lon="5.711390">
						<ele>1187</ele>
						<time>2026-09-03T06:42:27Z</time>
					</trkpt>
					<trkpt lat="44.336330" lon="5.711480">
						<ele>1188</ele>
						<time>2026-09-03T06:42:34Z</time>
					</trkpt>
					<trkpt lat="44.336360" lon="5.711570">
						<ele>1190</ele>
						<time>2026-09-03T06:42:37Z</time>
					</trkpt>
					<trkpt lat="44.336450" lon="5.711650">
						<ele>1192</ele>
						<time>2026-09-03T06:42:42Z</time>
					</trkpt>
					<trkpt lat="44.336530" lon="5.711810">
						<ele>1193</ele>
						<time>2026-09-03T06:42:49Z</time>
					</trkpt>
					<trkpt lat="44.336730" lon="5.712070">
						<ele>1192</ele>
						<time>2026-09-03T06:43:03Z</time>
					</trkpt>
					<trkpt lat="44.336820" lon="5.712380">
						<ele>1191</ele>
						<time>2026-09-03T06:43:15Z</time>
					</trkpt>
					<trkpt lat="44.337100" lon="5.712730">
						<ele>1188</ele>
						<time>2026-09-03T06:43:34Z</time>
					</trkpt>
					<trkpt lat="44.337170" lon="5.712770">
						<ele>1188</ele>
						<time>2026-09-03T06:43:38Z</time>
					</trkpt>
					<trkpt lat="44.337320" lon="5.712960">
						<ele>1189</ele>
						<time>2026-09-03T06:43:48Z</time>
					</trkpt>
					<trkpt lat="44.337360" lon="5.713120">
						<ele>1190</ele>
						<time>2026-09-03T06:43:54Z</time>
					</trkpt>
					<trkpt lat="44.337410" lon="5.713150">
						<ele>1191</ele>
						<time>2026-09-03T06:43:57Z</time>
					</trkpt>
					<trkpt lat="44.337530" lon="5.713510">
						<ele>1194</ele>
						<time>2026-09-03T06:44:11Z</time>
					</trkpt>
					<trkpt lat="44.337670" lon="5.713570">
						<ele>1192</ele>
						<time>2026-09-03T06:44:18Z</time>
					</trkpt>
					<trkpt lat="44.337730" lon="5.713750">
						<ele>1193</ele>
						<time>2026-09-03T06:44:25Z</time>
					</trkpt>
					<trkpt lat="44.337850" lon="5.713940">
						<ele>1194</ele>
						<time>2026-09-03T06:44:34Z</time>
					</trkpt>
					<trkpt lat="44.337960" lon="5.714230">
						<ele>1197</ele>
						<time>2026-09-03T06:44:46Z</time>
					</trkpt>
					<trkpt lat="44.338500" lon="5.715000">
						<ele>1204</ele>
						<time>2026-09-03T06:45:25Z</time>
					</trkpt>
					<trkpt lat="44.338870" lon="5.715590">
						<ele>1188</ele>
						<time>2026-09-03T06:45:53Z</time>
					</trkpt>
					<trkpt lat="44.339130" lon="5.716220">
						<ele>1178</ele>
						<time>2026-09-03T06:46:19Z</time>
					</trkpt>
					<trkpt lat="44.339260" lon="5.716890">
						<ele>1167</ele>
						<time>2026-09-03T06:46:44Z</time>
					</trkpt>
					<trkpt lat="44.339660" lon="5.717880">
						<ele>1142</ele>
						<time>2026-09-03T06:47:24Z</time>
					</trkpt>
					<trkpt lat="44.340190" lon="5.718590">
						<ele>1115</ele>
						<time>2026-09-03T06:48:01Z</time>
					</trkpt>
					<trkpt lat="44.340770" lon="5.719140">
						<ele>1089</ele>
						<time>2026-09-03T06:48:36Z</time>
					</trkpt>
					<trkpt lat="44.341330" lon="5.719470">
						<ele>1065</ele>
						<time>2026-09-03T06:49:06Z</time>
					</trkpt>
					<trkpt lat="44.341870" lon="5.719890">
						<ele>1041</ele>
						<time>2026-09-03T06:49:37Z</time>
					</trkpt>
					<trkpt lat="44.342340" lon="5.720140">
						<ele>1027</ele>
						<time>2026-09-03T06:50:03Z</time>
					</trkpt>
					<trkpt lat="44.342720" lon="5.720460">
						<ele>1015</ele>
						<time>2026-09-03T06:50:25Z</time>
					</trkpt>
					<trkpt lat="44.342920" lon="5.720530">
						<ele>1010</ele>
						<time>2026-09-03T06:50:35Z</time>
					</trkpt>
					<trkpt lat="44.343020" lon="5.720770">
						<ele>1008</ele>
						<time>2026-09-03T06:50:45Z</time>
					</trkpt>
					<trkpt lat="44.343060" lon="5.721110">
						<ele>1009</ele>
						<time>2026-09-03T06:50:57Z</time>
					</trkpt>
					<trkpt lat="44.343140" lon="5.721200">
						<ele>1007</ele>
						<time>2026-09-03T06:51:03Z</time>
					</trkpt>
					<trkpt lat="44.343250" lon="5.721420">
						<ele>1004</ele>
						<time>2026-09-03T06:51:12Z</time>
					</trkpt>
					<trkpt lat="44.343410" lon="5.721950">
						<ele>998</ele>
						<time>2026-09-03T06:51:33Z</time>
					</trkpt>
					<trkpt lat="44.343450" lon="5.722260">
						<ele>996</ele>
						<time>2026-09-03T06:51:44Z</time>
					</trkpt>
					<trkpt lat="44.343460" lon="5.723540">
						<ele>985</ele>
						<time>2026-09-03T06:52:30Z</time>
					</trkpt>
					<trkpt lat="44.343310" lon="5.724230">
						<ele>968</ele>
						<time>2026-09-03T06:52:56Z</time>
					</trkpt>
					<trkpt lat="44.343240" lon="5.724700">
						<ele>961</ele>
						<time>2026-09-03T06:53:13Z</time>
					</trkpt>
					<trkpt lat="44.343280" lon="5.724890">
						<ele>957</ele>
						<time>2026-09-03T06:53:20Z</time>
					</trkpt>
					<trkpt lat="44.343250" lon="5.725200">
						<ele>951</ele>
						<time>2026-09-03T06:53:31Z</time>
					</trkpt>
					<trkpt lat="44.343140" lon="5.725780">
						<ele>940</ele>
						<time>2026-09-03T06:53:53Z</time>
					</trkpt>
					<trkpt lat="44.343000" lon="5.726210">
						<ele>930</ele>
						<time>2026-09-03T06:54:09Z</time>
					</trkpt>
					<trkpt lat="44.342700" lon="5.726530">
						<ele>917</ele>
						<time>2026-09-03T06:54:28Z</time>
					</trkpt>
					<trkpt lat="44.342290" lon="5.727140">
						<ele>894</ele>
						<time>2026-09-03T06:54:58Z</time>
					</trkpt>
					<trkpt lat="44.341760" lon="5.727550">
						<ele>881</ele>
						<time>2026-09-03T06:55:29Z</time>
					</trkpt>
					<trkpt lat="44.341290" lon="5.727990">
						<ele>860</ele>
						<time>2026-09-03T06:55:57Z</time>
					</trkpt>
					<trkpt lat="44.340940" lon="5.728130">
						<ele>852</ele>
						<time>2026-09-03T06:56:15Z</time>
					</trkpt>
					<trkpt lat="44.340530" lon="5.728230">
						<ele>841</ele>
						<time>2026-09-03T06:56:36Z</time>
					</trkpt>
					<trkpt lat="44.340220" lon="5.728250">
						<ele>835</ele>
						<time>2026-09-03T06:56:51Z</time>
					</trkpt>
					<trkpt lat="44.339720" lon="5.728560">
						<ele>820</ele>
						<time>2026-09-03T06:57:19Z</time>
					</trkpt>
					<trkpt lat="44.339620" lon="5.728590">
						<ele>818</ele>
						<time>2026-09-03T06:57:24Z</time>
					</trkpt>
					<trkpt lat="44.339570" lon="5.728660">
						<ele>816</ele>
						<time>2026-09-03T06:57:28Z</time>
					</trkpt>
					<trkpt lat="44.339620" lon="5.728800">
						<ele>812</ele>
						<time>2026-09-03T06:57:33Z</time>
					</trkpt>
					<trkpt lat="44.339740" lon="5.728890">
						<ele>810</ele>
						<time>2026-09-03T06:57:40Z</time>
					</trkpt>
					<trkpt lat="44.340010" lon="5.729280">
						<ele>800</ele>
						<time>2026-09-03T06:57:59Z</time>
					</trkpt>
					<trkpt lat="44.340110" lon="5.729480">
						<ele>797</ele>
						<time>2026-09-03T06:58:08Z</time>
					</trkpt>
					<trkpt lat="44.340190" lon="5.729790">
						<ele>791</ele>
						<time>2026-09-03T06:58:20Z</time>
					</trkpt>
					<trkpt lat="44.340210" lon="5.730040">
						<ele>785</ele>
						<time>2026-09-03T06:58:29Z</time>
					</trkpt>
					<trkpt lat="44.340310" lon="5.730260">
						<ele>781</ele>
						<time>2026-09-03T06:58:38Z</time>
					</trkpt>
					<trkpt lat="44.340400" lon="5.730560">
						<ele>775</ele>
						<time>2026-09-03T06:58:50Z</time>
					</trkpt>
					<trkpt lat="44.340430" lon="5.731170">
						<ele>763</ele>
						<time>2026-09-03T06:59:12Z</time>
					</trkpt>
					<trkpt lat="44.340500" lon="5.731350">
						<ele>760</ele>
						<time>2026-09-03T06:59:19Z</time>
					</trkpt>
					<trkpt lat="44.340660" lon="5.731580">
						<ele>759</ele>
						<time>2026-09-03T06:59:31Z</time>
					</trkpt>
					<trkpt lat="44.340980" lon="5.731810">
						<ele>758</ele>
						<time>2026-09-03T06:59:49Z</time>
					</trkpt>
					<trkpt lat="44.341330" lon="5.732140">
						<ele>752</ele>
						<time>2026-09-03T07:00:10Z</time>
					</trkpt>
					<trkpt lat="44.341870" lon="5.731970">
						<ele>759</ele>
						<time>2026-09-03T07:00:37Z</time>
					</trkpt>
					<trkpt lat="44.342110" lon="5.731950">
						<ele>762</ele>
						<time>2026-09-03T07:00:49Z</time>
					</trkpt>
					<trkpt lat="44.342290" lon="5.732080">
						<ele>761</ele>
						<time>2026-09-03T07:01:00Z</time>
					</trkpt>
					<trkpt lat="44.342500" lon="5.732280">
						<ele>759</ele>
						<time>2026-09-03T07:01:12Z</time>
					</trkpt>
					<trkpt lat="44.342710" lon="5.732670">
						<ele>756</ele>
						<time>2026-09-03T07:01:30Z</time>
					</trkpt>
					<trkpt lat="44.342840" lon="5.732850">
						<ele>756</ele>
						<time>2026-09-03T07:01:39Z</time>
					</trkpt>
					<trkpt lat="44.343090" lon="5.733500">
						<ele>748</ele>
						<time>2026-09-03T07:02:05Z</time>
					</trkpt>
					<trkpt lat="44.343410" lon="5.733800">
						<ele>747</ele>
						<time>2026-09-03T07:02:25Z</time>
					</trkpt>
					<trkpt lat="44.343880" lon="5.734330">
						<ele>738</ele>
						<time>2026-09-03T07:02:55Z</time>
					</trkpt>
					<trkpt lat="44.344040" lon="5.734450">
						<ele>737</ele>
						<time>2026-09-03T07:03:04Z</time>
					</trkpt>
					<trkpt lat="44.344190" lon="5.734470">
						<ele>737</ele>
						<time>2026-09-03T07:03:11Z</time>
					</trkpt>
					<trkpt lat="44.344350" lon="5.734410">
						<ele>736</ele>
						<time>2026-09-03T07:03:20Z</time>
					</trkpt>
					<trkpt lat="44.344610" lon="5.734220">
						<ele>736</ele>
						<time>2026-09-03T07:03:34Z</time>
					</trkpt>
					<trkpt lat="44.344700" lon="5.734070">
						<ele>738</ele>
						<time>2026-09-03T07:03:41Z</time>
					</trkpt>
					<trkpt lat="44.344980" lon="5.734030">
						<ele>734</ele>
						<time>2026-09-03T07:03:55Z</time>
					</trkpt>
					<trkpt lat="44.345110" lon="5.733950">
						<ele>733</ele>
						<time>2026-09-03T07:04:03Z</time>
					</trkpt>
					<trkpt lat="44.345200" lon="5.734010">
						<ele>729</ele>
						<time>2026-09-03T07:04:08Z</time>
					</trkpt>
					<trkpt lat="44.345380" lon="5.734190">
						<ele>720</ele>
						<time>2026-09-03T07:04:19Z</time>
					</trkpt>
					<trkpt lat="44.345500" lon="5.734360">
						<ele>714</ele>
						<time>2026-09-03T07:04:27Z</time>
					</trkpt>
					<trkpt lat="44.345550" lon="5.734520">
						<ele>711</ele>
						<time>2026-09-03T07:04:33Z</time>
					</trkpt>
					<trkpt lat="44.345690" lon="5.734590">
						<ele>707</ele>
						<time>2026-09-03T07:04:41Z</time>
					</trkpt>
					<trkpt lat="44.345780" lon="5.734760">
						<ele>703</ele>
						<time>2026-09-03T07:04:48Z</time>
					</trkpt>
					<trkpt lat="44.345780" lon="5.734960">
						<ele>700</ele>
						<time>2026-09-03T07:04:56Z</time>
					</trkpt>
					<trkpt lat="44.345820" lon="5.735100">
						<ele>698</ele>
						<time>2026-09-03T07:05:01Z</time>
					</trkpt>
					<trkpt lat="44.345740" lon="5.735530">
						<ele>695</ele>
						<time>2026-09-03T07:05:17Z</time>
					</trkpt>
					<trkpt lat="44.345780" lon="5.735710">
						<ele>692</ele>
						<time>2026-09-03T07:05:24Z</time>
					</trkpt>
					<trkpt lat="44.345890" lon="5.735850">
						<ele>689</ele>
						<time>2026-09-03T07:05:31Z</time>
					</trkpt>
					<trkpt lat="44.346030" lon="5.735860">
						<ele>685</ele>
						<time>2026-09-03T07:05:38Z</time>
					</trkpt>
					<trkpt lat="44.346160" lon="5.735840">
						<ele>682</ele>
						<time>2026-09-03T07:05:45Z</time>
					</trkpt>
					<trkpt lat="44.346320" lon="5.735910">
						<ele>678</ele>
						<time>2026-09-03T07:05:53Z</time>
					</trkpt>
					<trkpt lat="44.346440" lon="5.736110">
						<ele>674</ele>
						<time>2026-09-03T07:06:02Z</time>
					</trkpt>
					<trkpt lat="44.346500" lon="5.736080">
						<ele>672</ele>
						<time>2026-09-03T07:06:06Z</time>
					</trkpt>
					<trkpt lat="44.346610" lon="5.735950">
						<ele>671</ele>
						<time>2026-09-03T07:06:13Z</time>
					</trkpt>
					<trkpt lat="44.346690" lon="5.735910">
						<ele>669</ele>
						<time>2026-09-03T07:06:17Z</time>
					</trkpt>
					<trkpt lat="44.346750" lon="5.735840">
						<ele>669</ele>
						<time>2026-09-03T07:06:21Z</time>
					</trkpt>
					<trkpt lat="44.346820" lon="5.735820">
						<ele>669</ele>
						<time>2026-09-03T07:06:25Z</time>
					</trkpt>
					<trkpt lat="44.347040" lon="5.735920">
						<ele>667</ele>
						<time>2026-09-03T07:06:36Z</time>
					</trkpt>
					<trkpt lat="44.347790" lon="5.736030">
						<ele>659</ele>
						<time>2026-09-03T07:07:14Z</time>
					</trkpt>
					<trkpt lat="44.348080" lon="5.736000">
						<ele>657</ele>
						<time>2026-09-03T07:07:28Z</time>
					</trkpt>
					<trkpt lat="44.348290" lon="5.735890">
						<ele>656</ele>
						<time>2026-09-03T07:07:40Z</time>
					</trkpt>
					<trkpt lat="44.348580" lon="5.735610">
						<ele>653</ele>
						<time>2026-09-03T07:07:57Z</time>
					</trkpt>
					<trkpt lat="44.348870" lon="5.735140">
						<ele>652</ele>
						<time>2026-09-03T07:08:19Z</time>
					</trkpt>
					<trkpt lat="44.349150" lon="5.734920">
						<ele>648</ele>
						<time>2026-09-03T07:08:36Z</time>
					</trkpt>
					<trkpt lat="44.349640" lon="5.734260">
						<ele>648</ele>
						<time>2026-09-03T07:09:10Z</time>
					</trkpt>
					<trkpt lat="44.350190" lon="5.733680">
						<ele>648</ele>
						<time>2026-09-03T07:09:44Z</time>
					</trkpt>
					<trkpt lat="44.350430" lon="5.733390">
						<ele>646</ele>
						<time>2026-09-03T07:10:00Z</time>
					</trkpt>
					<trkpt lat="44.350620" lon="5.733110">
						<ele>644</ele>
						<time>2026-09-03T07:10:14Z</time>
					</trkpt>
					<trkpt lat="44.350730" lon="5.732900">
						<ele>642</ele>
						<time>2026-09-03T07:10:23Z</time>
					</trkpt>
					<trkpt lat="44.350790" lon="5.732760">
						<ele>641</ele>
						<time>2026-09-03T07:10:29Z</time>
					</trkpt>
					<trkpt lat="44.350890" lon="5.732340">
						<ele>641</ele>
						<time>2026-09-03T07:10:45Z</time>
					</trkpt>
					<trkpt lat="44.351190" lon="5.731520">
						<ele>642</ele>
						<time>2026-09-03T07:11:18Z</time>
					</trkpt>
					<trkpt lat="44.351330" lon="5.731250">
						<ele>642</ele>
						<time>2026-09-03T07:11:30Z</time>
					</trkpt>
					<trkpt lat="44.351610" lon="5.729920">
						<ele>642</ele>
						<time>2026-09-03T07:12:19Z</time>
					</trkpt>
					<trkpt lat="44.351680" lon="5.728970">
						<ele>645</ele>
						<time>2026-09-03T07:12:53Z</time>
					</trkpt>
					<trkpt lat="44.351810" lon="5.728400">
						<ele>644</ele>
						<time>2026-09-03T07:13:15Z</time>
					</trkpt>
					<trkpt lat="44.351970" lon="5.727380">
						<ele>646</ele>
						<time>2026-09-03T07:13:52Z</time>
					</trkpt>
					<trkpt lat="44.352130" lon="5.726830">
						<ele>645</ele>
						<time>2026-09-03T07:14:13Z</time>
					</trkpt>
					<trkpt lat="44.352140" lon="5.726690">
						<ele>646</ele>
						<time>2026-09-03T07:14:18Z</time>
					</trkpt>
					<trkpt lat="44.352110" lon="5.726420">
						<ele>647</ele>
						<time>2026-09-03T07:14:28Z</time>
					</trkpt>
					<trkpt lat="44.351950" lon="5.725820">
						<ele>655</ele>
						<time>2026-09-03T07:14:51Z</time>
					</trkpt>
					<trkpt lat="44.351900" lon="5.725490">
						<ele>658</ele>
						<time>2026-09-03T07:15:03Z</time>
					</trkpt>
					<trkpt lat="44.351750" lon="5.724970">
						<ele>663</ele>
						<time>2026-09-03T07:15:23Z</time>
					</trkpt>
					<trkpt lat="44.351740" lon="5.724800">
						<ele>664</ele>
						<time>2026-09-03T07:15:29Z</time>
					</trkpt>
					<trkpt lat="44.351830" lon="5.724020">
						<ele>662</ele>
						<time>2026-09-03T07:15:58Z</time>
					</trkpt>
					<trkpt lat="44.352080" lon="5.723290">
						<ele>662</ele>
						<time>2026-09-03T07:16:27Z</time>
					</trkpt>
					<trkpt lat="44.352330" lon="5.721990">
						<ele>659</ele>
						<time>2026-09-03T07:17:15Z</time>
					</trkpt>
					<trkpt lat="44.352360" lon="5.721710">
						<ele>658</ele>
						<time>2026-09-03T07:17:25Z</time>
					</trkpt>
					<trkpt lat="44.352250" lon="5.720730">
						<ele>662</ele>
						<time>2026-09-03T07:18:00Z</time>
					</trkpt>
					<trkpt lat="44.352330" lon="5.720520">
						<ele>658</ele>
						<time>2026-09-03T07:18:09Z</time>
					</trkpt>
					<trkpt lat="44.352410" lon="5.720130">
						<ele>656</ele>
						<time>2026-09-03T07:18:23Z</time>
					</trkpt>
					<trkpt lat="44.352320" lon="5.718950">
						<ele>658</ele>
						<time>2026-09-03T07:19:06Z</time>
					</trkpt>
					<trkpt lat="44.352270" lon="5.718610">
						<ele>658</ele>
						<time>2026-09-03T07:19:18Z</time>
					</trkpt>
					<trkpt lat="44.352230" lon="5.718520">
						<ele>659</ele>
						<time>2026-09-03T07:19:22Z</time>
					</trkpt>
					<trkpt lat="44.351970" lon="5.718150">
						<ele>662</ele>
						<time>2026-09-03T07:19:41Z</time>
					</trkpt>
					<trkpt lat="44.351940" lon="5.718020">
						<ele>661</ele>
						<time>2026-09-03T07:19:46Z</time>
					</trkpt>
					<trkpt lat="44.352000" lon="5.717660">
						<ele>658</ele>
						<time>2026-09-03T07:19:59Z</time>
					</trkpt>
					<trkpt lat="44.351980" lon="5.717520">
						<ele>657</ele>
						<time>2026-09-03T07:20:04Z</time>
					</trkpt>
					<trkpt lat="44.351750" lon="5.717110">
						<ele>659</ele>
						<time>2026-09-03T07:20:23Z</time>
					</trkpt>
					<trkpt lat="44.351710" lon="5.717000">
						<ele>659</ele>
						<time>2026-09-03T07:20:27Z</time>
					</trkpt>
					<trkpt lat="44.351700" lon="5.716870">
						<ele>658</ele>
						<time>2026-09-03T07:20:32Z</time>
					</trkpt>
					<trkpt lat="44.351710" lon="5.716720">
						<ele>658</ele>
						<time>2026-09-03T07:20:37Z</time>
					</trkpt>
					<trkpt lat="44.351790" lon="5.716400">
						<ele>658</ele>
						<time>2026-09-03T07:20:49Z</time>
					</trkpt>
					<trkpt lat="44.352350" lon="5.714900">
						<ele>656</ele>
						<time>2026-09-03T07:21:50Z</time>
					</trkpt>
					<trkpt lat="44.352420" lon="5.714490">
						<ele>658</ele>
						<time>2026-09-03T07:22:05Z</time>
					</trkpt>
					<trkpt lat="44.352400" lon="5.714140">
						<ele>660</ele>
						<time>2026-09-03T07:22:17Z</time>
					</trkpt>
					<trkpt lat="44.352360" lon="5.713960">
						<ele>660</ele>
						<time>2026-09-03T07:22:24Z</time>
					</trkpt>
					<trkpt lat="44.352040" lon="5.713160">
						<ele>666</ele>
						<time>2026-09-03T07:22:57Z</time>
					</trkpt>
					<trkpt lat="44.351950" lon="5.712840">
						<ele>667</ele>
						<time>2026-09-03T07:23:09Z</time>
					</trkpt>
					<trkpt lat="44.351950" lon="5.712620">
						<ele>667</ele>
						<time>2026-09-03T07:23:17Z</time>
					</trkpt>
					<trkpt lat="44.352070" lon="5.711790">
						<ele>663</ele>
						<time>2026-09-03T07:23:47Z</time>
					</trkpt>
					<trkpt lat="44.352110" lon="5.711240">
						<ele>660</ele>
						<time>2026-09-03T07:24:07Z</time>
					</trkpt>
					<trkpt lat="44.352180" lon="5.710990">
						<ele>659</ele>
						<time>2026-09-03T07:24:17Z</time>
					</trkpt>
					<trkpt lat="44.352480" lon="5.710540">
						<ele>656</ele>
						<time>2026-09-03T07:24:39Z</time>
					</trkpt>
					<trkpt lat="44.352610" lon="5.710450">
						<ele>657</ele>
						<time>2026-09-03T07:24:46Z</time>
					</trkpt>
					<trkpt lat="44.352900" lon="5.710420">
						<ele>658</ele>
						<time>2026-09-03T07:25:01Z</time>
					</trkpt>
					<trkpt lat="44.353300" lon="5.710340">
						<ele>661</ele>
						<time>2026-09-03T07:25:21Z</time>
					</trkpt>
					<trkpt lat="44.353800" lon="5.710330">
						<ele>665</ele>
						<time>2026-09-03T07:25:46Z</time>
					</trkpt>
					<trkpt lat="44.353910" lon="5.710160">
						<ele>666</ele>
						<time>2026-09-03T07:25:54Z</time>
					</trkpt>
					<trkpt lat="44.354060" lon="5.710020">
						<ele>668</ele>
						<time>2026-09-03T07:26:03Z</time>
					</trkpt>
					<trkpt lat="44.354030" lon="5.709910">
						<ele>669</ele>
						<time>2026-09-03T07:26:07Z</time>
					</trkpt>
					<trkpt lat="44.354030" lon="5.709770">
						<ele>670</ele>
						<time>2026-09-03T07:26:12Z</time>
					</trkpt>
					<trkpt lat="44.354110" lon="5.709390">
						<ele>673</ele>
						<time>2026-09-03T07:26:27Z</time>
					</trkpt>
					<trkpt lat="44.354180" lon="5.708870">
						<ele>679</ele>
						<time>2026-09-03T07:26:45Z</time>
					</trkpt>
					<trkpt lat="44.354220" lon="5.708750">
						<ele>681</ele>
						<time>2026-09-03T07:26:50Z</time>
					</trkpt>
					<trkpt lat="44.354400" lon="5.708560">
						<ele>684</ele>
						<time>2026-09-03T07:27:01Z</time>
					</trkpt>
					<trkpt lat="44.354490" lon="5.708280">
						<ele>688</ele>
						<time>2026-09-03T07:27:12Z</time>
					</trkpt>
					<trkpt lat="44.354710" lon="5.708270">
						<ele>689</ele>
						<time>2026-09-03T07:27:23Z</time>
					</trkpt>
					<trkpt lat="44.354790" lon="5.708230">
						<ele>690</ele>
						<time>2026-09-03T07:27:28Z</time>
					</trkpt>
					<trkpt lat="44.354810" lon="5.708190">
						<ele>690</ele>
						<time>2026-09-03T07:27:29Z</time>
					</trkpt>
					<trkpt lat="44.354960" lon="5.708430">
						<ele>688</ele>
						<time>2026-09-03T07:27:41Z</time>
					</trkpt>
					<trkpt lat="44.355180" lon="5.708570">
						<ele>690</ele>
						<time>2026-09-03T07:27:53Z</time>
					</trkpt>
					<trkpt lat="44.355300" lon="5.708560">
						<ele>692</ele>
						<time>2026-09-03T07:27:59Z</time>
					</trkpt>
					<trkpt lat="44.355350" lon="5.708500">
						<ele>694</ele>
						<time>2026-09-03T07:28:02Z</time>
					</trkpt>
					<trkpt lat="44.355410" lon="5.708290">
						<ele>697</ele>
						<time>2026-09-03T07:28:10Z</time>
					</trkpt>
					<trkpt lat="44.355470" lon="5.707730">
						<ele>704</ele>
						<time>2026-09-03T07:28:31Z</time>
					</trkpt>
					<trkpt lat="44.355500" lon="5.707690">
						<ele>705</ele>
						<time>2026-09-03T07:28:33Z</time>
					</trkpt>
					<trkpt lat="44.355620" lon="5.707700">
						<ele>707</ele>
						<time>2026-09-03T07:28:39Z</time>
					</trkpt>
					<trkpt lat="44.355640" lon="5.708050">
						<ele>704</ele>
						<time>2026-09-03T07:28:51Z</time>
					</trkpt>
					<trkpt lat="44.355790" lon="5.708300">
						<ele>704</ele>
						<time>2026-09-03T07:29:03Z</time>
					</trkpt>
					<trkpt lat="44.355940" lon="5.708330">
						<ele>709</ele>
						<time>2026-09-03T07:29:11Z</time>
					</trkpt>
					<trkpt lat="44.356140" lon="5.708320">
						<ele>716</ele>
						<time>2026-09-03T07:29:21Z</time>
					</trkpt>
					<trkpt lat="44.356270" lon="5.708500">
						<ele>718</ele>
						<time>2026-09-03T07:29:30Z</time>
					</trkpt>
					<trkpt lat="44.356550" lon="5.708630">
						<ele>726</ele>
						<time>2026-09-03T07:29:44Z</time>
					</trkpt>
					<trkpt lat="44.356710" lon="5.708920">
						<ele>726</ele>
						<time>2026-09-03T07:29:58Z</time>
					</trkpt>
					<trkpt lat="44.356860" lon="5.709090">
						<ele>727</ele>
						<time>2026-09-03T07:30:07Z</time>
					</trkpt>
					<trkpt lat="44.356900" lon="5.709220">
						<ele>726</ele>
						<time>2026-09-03T07:30:12Z</time>
					</trkpt>
					<trkpt lat="44.357070" lon="5.709520">
						<ele>726</ele>
						<time>2026-09-03T07:30:26Z</time>
					</trkpt>
					<trkpt lat="44.357160" lon="5.709570">
						<ele>728</ele>
						<time>2026-09-03T07:30:31Z</time>
					</trkpt>
					<trkpt lat="44.357210" lon="5.709570">
						<ele>730</ele>
						<time>2026-09-03T07:30:33Z</time>
					</trkpt>
					<trkpt lat="44.357240" lon="5.709520">
						<ele>731</ele>
						<time>2026-09-03T07:30:36Z</time>
					</trkpt>
					<trkpt lat="44.357240" lon="5.709420">
						<ele>732</ele>
						<time>2026-09-03T07:30:39Z</time>
					</trkpt>
					<trkpt lat="44.357560" lon="5.708600">
						<ele>751</ele>
						<time>2026-09-03T07:31:13Z</time>
					</trkpt>
					<trkpt lat="44.357640" lon="5.708440">
						<ele>754</ele>
						<time>2026-09-03T07:31:20Z</time>
					</trkpt>
					<trkpt lat="44.357700" lon="5.708380">
						<ele>756</ele>
						<time>2026-09-03T07:31:23Z</time>
					</trkpt>
					<trkpt lat="44.358150" lon="5.708210">
						<ele>762</ele>
						<time>2026-09-03T07:31:47Z</time>
					</trkpt>
					<trkpt lat="44.358400" lon="5.708400">
						<ele>761</ele>
						<time>2026-09-03T07:32:01Z</time>
					</trkpt>
					<trkpt lat="44.358530" lon="5.708440">
						<ele>763</ele>
						<time>2026-09-03T07:32:08Z</time>
					</trkpt>
					<trkpt lat="44.358710" lon="5.708280">
						<ele>769</ele>
						<time>2026-09-03T07:32:18Z</time>
					</trkpt>
					<trkpt lat="44.358910" lon="5.708040">
						<ele>775</ele>
						<time>2026-09-03T07:32:31Z</time>
					</trkpt>
					<trkpt lat="44.359080" lon="5.708070">
						<ele>778</ele>
						<time>2026-09-03T07:32:40Z</time>
					</trkpt>
					<trkpt lat="44.359430" lon="5.707870">
						<ele>787</ele>
						<time>2026-09-03T07:32:59Z</time>
					</trkpt>
					<trkpt lat="44.359520" lon="5.707660">
						<ele>791</ele>
						<time>2026-09-03T07:33:08Z</time>
					</trkpt>
					<trkpt lat="44.359750" lon="5.707870">
						<ele>793</ele>
						<time>2026-09-03T07:33:21Z</time>
					</trkpt>
					<trkpt lat="44.359930" lon="5.707900">
						<ele>796</ele>
						<time>2026-09-03T07:33:31Z</time>
					</trkpt>
					<trkpt lat="44.360000" lon="5.707780">
						<ele>799</ele>
						<time>2026-09-03T07:33:36Z</time>
					</trkpt>
					<trkpt lat="44.360220" lon="5.707740">
						<ele>800</ele>
						<time>2026-09-03T07:33:47Z</time>
					</trkpt>
					<trkpt lat="44.360320" lon="5.707590">
						<ele>803</ele>
						<time>2026-09-03T07:33:55Z</time>
					</trkpt>
					<trkpt lat="44.360390" lon="5.707600">
						<ele>803</ele>
						<time>2026-09-03T07:33:58Z</time>
					</trkpt>
					<trkpt lat="44.360490" lon="5.707450">
						<ele>806</ele>
						<time>2026-09-03T07:34:05Z</time>
					</trkpt>
					<trkpt lat="44.360670" lon="5.707320">
						<ele>809</ele>
						<time>2026-09-03T07:34:16Z</time>
					</trkpt>
					<trkpt lat="44.360820" lon="5.707290">
						<ele>810</ele>
						<time>2026-09-03T07:34:23Z</time>
					</trkpt>
					<trkpt lat="44.360950" lon="5.707320">
						<ele>811</ele>
						<time>2026-09-03T07:34:30Z</time>
					</trkpt>
					<trkpt lat="44.361080" lon="5.707310">
						<ele>812</ele>
						<time>2026-09-03T07:34:36Z</time>
					</trkpt>
					<trkpt lat="44.361260" lon="5.707380">
						<ele>813</ele>
						<time>2026-09-03T07:34:46Z</time>
					</trkpt>
					<trkpt lat="44.361400" lon="5.707330">
						<ele>815</ele>
						<time>2026-09-03T07:34:53Z</time>
					</trkpt>
					<trkpt lat="44.361640" lon="5.707300">
						<ele>819</ele>
						<time>2026-09-03T07:35:05Z</time>
					</trkpt>
					<trkpt lat="44.361710" lon="5.707270">
						<ele>820</ele>
						<time>2026-09-03T07:35:09Z</time>
					</trkpt>
					<trkpt lat="44.362070" lon="5.706890">
						<ele>833</ele>
						<time>2026-09-03T07:35:31Z</time>
					</trkpt>
					<trkpt lat="44.362250" lon="5.706660">
						<ele>840</ele>
						<time>2026-09-03T07:35:43Z</time>
					</trkpt>
					<trkpt lat="44.362280" lon="5.706590">
						<ele>842</ele>
						<time>2026-09-03T07:35:46Z</time>
					</trkpt>
					<trkpt lat="44.362360" lon="5.706550">
						<ele>844</ele>
						<time>2026-09-03T07:35:50Z</time>
					</trkpt>
					<trkpt lat="44.362510" lon="5.706340">
						<ele>850</ele>
						<time>2026-09-03T07:36:01Z</time>
					</trkpt>
					<trkpt lat="44.362530" lon="5.706270">
						<ele>852</ele>
						<time>2026-09-03T07:36:04Z</time>
					</trkpt>
					<trkpt lat="44.362880" lon="5.706040">
						<ele>862</ele>
						<time>2026-09-03T07:36:23Z</time>
					</trkpt>
					<trkpt lat="44.363020" lon="5.705860">
						<ele>868</ele>
						<time>2026-09-03T07:36:33Z</time>
					</trkpt>
					<trkpt lat="44.363070" lon="5.705830">
						<ele>870</ele>
						<time>2026-09-03T07:36:35Z</time>
					</trkpt>
					<trkpt lat="44.363220" lon="5.705830">
						<ele>872</ele>
						<time>2026-09-03T07:36:43Z</time>
					</trkpt>
					<trkpt lat="44.363540" lon="5.705750">
						<ele>880</ele>
						<time>2026-09-03T07:36:59Z</time>
					</trkpt>
					<trkpt lat="44.363680" lon="5.705780">
						<ele>881</ele>
						<time>2026-09-03T07:37:06Z</time>
					</trkpt>
					<trkpt lat="44.363730" lon="5.705760">
						<ele>882</ele>
						<time>2026-09-03T07:37:09Z</time>
					</trkpt>
					<trkpt lat="44.364200" lon="5.705370">
						<ele>901</ele>
						<time>2026-09-03T07:37:36Z</time>
					</trkpt>
					<trkpt lat="44.364370" lon="5.705150">
						<ele>908</ele>
						<time>2026-09-03T07:37:48Z</time>
					</trkpt>
					<trkpt lat="44.363900" lon="5.704290">
						<ele>933</ele>
						<time>2026-09-03T07:38:26Z</time>
					</trkpt>
					<trkpt lat="44.363900" lon="5.704270">
						<ele>933</ele>
						<time>2026-09-03T07:38:27Z</time>
					</trkpt>
					<trkpt lat="44.364100" lon="5.704190">
						<ele>938</ele>
						<time>2026-09-03T07:38:38Z</time>
					</trkpt>
					<trkpt lat="44.364090" lon="5.704100">
						<ele>941</ele>
						<time>2026-09-03T07:38:41Z</time>
					</trkpt>
					<trkpt lat="44.363820" lon="5.703810">
						<ele>951</ele>
						<time>2026-09-03T07:38:58Z</time>
					</trkpt>
					<trkpt lat="44.363380" lon="5.703610">
						<ele>955</ele>
						<time>2026-09-03T07:39:21Z</time>
					</trkpt>
					<trkpt lat="44.363170" lon="5.703440">
						<ele>961</ele>
						<time>2026-09-03T07:39:33Z</time>
					</trkpt>
					<trkpt lat="44.362860" lon="5.703270">
						<ele>968</ele>
						<time>2026-09-03T07:39:50Z</time>
					</trkpt>
					<trkpt lat="44.362780" lon="5.703190">
						<ele>972</ele>
						<time>2026-09-03T07:39:55Z</time>
					</trkpt>
					<trkpt lat="44.362340" lon="5.702910">
						<ele>982</ele>
						<time>2026-09-03T07:40:19Z</time>
					</trkpt>
					<trkpt lat="44.362130" lon="5.702720">
						<ele>988</ele>
						<time>2026-09-03T07:40:31Z</time>
					</trkpt>
					<trkpt lat="44.361750" lon="5.702480">
						<ele>993</ele>
						<time>2026-09-03T07:40:52Z</time>
					</trkpt>
					<trkpt lat="44.361660" lon="5.702340">
						<ele>998</ele>
						<time>2026-09-03T07:40:59Z</time>
					</trkpt>
					<trkpt lat="44.361540" lon="5.701940">
						<ele>1012</ele>
						<time>2026-09-03T07:41:15Z</time>
					</trkpt>
					<trkpt lat="44.361380" lon="5.701770">
						<ele>1015</ele>
						<time>2026-09-03T07:41:25Z</time>
					</trkpt>
					<trkpt lat="44.361340" lon="5.701610">
						<ele>1021</ele>
						<time>2026-09-03T07:41:31Z</time>
					</trkpt>
					<trkpt lat="44.360820" lon="5.701030">
						<ele>1038</ele>
						<time>2026-09-03T07:42:04Z</time>
					</trkpt>
					<trkpt lat="44.360690" lon="5.700970">
						<ele>1039</ele>
						<time>2026-09-03T07:42:11Z</time>
					</trkpt>
					<trkpt lat="44.360590" lon="5.700970">
						<ele>1038</ele>
						<time>2026-09-03T07:42:16Z</time>
					</trkpt>
					<trkpt lat="44.360200" lon="5.700810">
						<ele>1043</ele>
						<time>2026-09-03T07:42:36Z</time>
					</trkpt>
					<trkpt lat="44.360060" lon="5.700750">
						<ele>1045</ele>
						<time>2026-09-03T07:42:44Z</time>
					</trkpt>
					<trkpt lat="44.359930" lon="5.700660">
						<ele>1047</ele>
						<time>2026-09-03T07:42:51Z</time>
					</trkpt>
					<trkpt lat="44.359800" lon="5.700380">
						<ele>1061</ele>
						<time>2026-09-03T07:43:03Z</time>
					</trkpt>
					<trkpt lat="44.359830" lon="5.700340">
						<ele>1065</ele>
						<time>2026-09-03T07:43:05Z</time>
					</trkpt>
					<trkpt lat="44.360070" lon="5.700330">
						<ele>1073</ele>
						<time>2026-09-03T07:43:17Z</time>
					</trkpt>
					<trkpt lat="44.360060" lon="5.700280">
						<ele>1076</ele>
						<time>2026-09-03T07:43:19Z</time>
					</trkpt>
					<trkpt lat="44.359930" lon="5.700170">
						<ele>1079</ele>
						<time>2026-09-03T07:43:26Z</time>
					</trkpt>
					<trkpt lat="44.359870" lon="5.700160">
						<ele>1078</ele>
						<time>2026-09-03T07:43:29Z</time>
					</trkpt>
					<trkpt lat="44.359480" lon="5.699890">
						<ele>1086</ele>
						<time>2026-09-03T07:43:51Z</time>
					</trkpt>
					<trkpt lat="44.359640" lon="5.699830">
						<ele>1092</ele>
						<time>2026-09-03T07:43:59Z</time>
					</trkpt>
					<trkpt lat="44.359960" lon="5.699820">
						<ele>1100</ele>
						<time>2026-09-03T07:44:15Z</time>
					</trkpt>
					<trkpt lat="44.360000" lon="5.699780">
						<ele>1103</ele>
						<time>2026-09-03T07:44:18Z</time>
					</trkpt>
					<trkpt lat="44.359950" lon="5.699750">
						<ele>1103</ele>
						<time>2026-09-03T07:44:21Z</time>
					</trkpt>
					<trkpt lat="44.359880" lon="5.699630">
						<ele>1107</ele>
						<time>2026-09-03T07:44:26Z</time>
					</trkpt>
					<trkpt lat="44.359760" lon="5.699500">
						<ele>1109</ele>
						<time>2026-09-03T07:44:34Z</time>
					</trkpt>
					<trkpt lat="44.359590" lon="5.699450">
						<ele>1106</ele>
						<time>2026-09-03T07:44:42Z</time>
					</trkpt>
					<trkpt lat="44.359370" lon="5.699440">
						<ele>1100</ele>
						<time>2026-09-03T07:44:53Z</time>
					</trkpt>
					<trkpt lat="44.359310" lon="5.699400">
						<ele>1100</ele>
						<time>2026-09-03T07:44:57Z</time>
					</trkpt>
					<trkpt lat="44.359300" lon="5.699240">
						<ele>1105</ele>
						<time>2026-09-03T07:45:02Z</time>
					</trkpt>
					<trkpt lat="44.359340" lon="5.699080">
						<ele>1109</ele>
						<time>2026-09-03T07:45:09Z</time>
					</trkpt>
					<trkpt lat="44.359380" lon="5.698950">
						<ele>1111</ele>
						<time>2026-09-03T07:45:14Z</time>
					</trkpt>
					<trkpt lat="44.359510" lon="5.698700">
						<ele>1116</ele>
						<time>2026-09-03T07:45:25Z</time>
					</trkpt>
					<trkpt lat="44.359560" lon="5.698420">
						<ele>1119</ele>
						<time>2026-09-03T07:45:35Z</time>
					</trkpt>
					<trkpt lat="44.359770" lon="5.698330">
						<ele>1127</ele>
						<time>2026-09-03T07:45:46Z</time>
					</trkpt>
					<trkpt lat="44.360010" lon="5.698360">
						<ele>1136</ele>
						<time>2026-09-03T07:45:58Z</time>
					</trkpt>
					<trkpt lat="44.360430" lon="5.698190">
						<ele>1143</ele>
						<time>2026-09-03T07:46:20Z</time>
					</trkpt>
					<trkpt lat="44.361260" lon="5.697690">
						<ele>1153</ele>
						<time>2026-09-03T07:47:05Z</time>
					</trkpt>
					<trkpt lat="44.361380" lon="5.697570">
						<ele>1154</ele>
						<time>2026-09-03T07:47:13Z</time>
					</trkpt>
					<trkpt lat="44.361790" lon="5.697030">
						<ele>1157</ele>
						<time>2026-09-03T07:47:41Z</time>
					</trkpt>
					<trkpt lat="44.361970" lon="5.696710">
						<ele>1157</ele>
						<time>2026-09-03T07:47:55Z</time>
					</trkpt>
					<trkpt lat="44.362150" lon="5.696330">
						<ele>1160</ele>
						<time>2026-09-03T07:48:12Z</time>
					</trkpt>
					<trkpt lat="44.362230" lon="5.696100">
						<ele>1162</ele>
						<time>2026-09-03T07:48:21Z</time>
					</trkpt>
					<trkpt lat="44.362240" lon="5.695890">
						<ele>1162</ele>
						<time>2026-09-03T07:48:28Z</time>
					</trkpt>
					<trkpt lat="44.362330" lon="5.695560">
						<ele>1165</ele>
						<time>2026-09-03T07:48:41Z</time>
					</trkpt>
					<trkpt lat="44.362380" lon="5.695470">
						<ele>1166</ele>
						<time>2026-09-03T07:48:45Z</time>
					</trkpt>
					<trkpt lat="44.362580" lon="5.695210">
						<ele>1170</ele>
						<time>2026-09-03T07:48:59Z</time>
					</trkpt>
					<trkpt lat="44.362610" lon="5.695130">
						<ele>1171</ele>
						<time>2026-09-03T07:49:02Z</time>
					</trkpt>
					<trkpt lat="44.362930" lon="5.694830">
						<ele>1179</ele>
						<time>2026-09-03T07:49:21Z</time>
					</trkpt>
					<trkpt lat="44.363190" lon="5.694670">
						<ele>1183</ele>
						<time>2026-09-03T07:49:35Z</time>
					</trkpt>
					<trkpt lat="44.363350" lon="5.694630">
						<ele>1186</ele>
						<time>2026-09-03T07:49:44Z</time>
					</trkpt>
					<trkpt lat="44.363710" lon="5.694650">
						<ele>1192</ele>
						<time>2026-09-03T07:50:02Z</time>
					</trkpt>
					<trkpt lat="44.363970" lon="5.694520">
						<ele>1196</ele>
						<time>2026-09-03T07:50:15Z</time>
					</trkpt>
					<trkpt lat="44.364040" lon="5.694510">
						<ele>1197</ele>
						<time>2026-09-03T07:50:19Z</time>
					</trkpt>
					<trkpt lat="44.364360" lon="5.694620">
						<ele>1203</ele>
						<time>2026-09-03T07:50:35Z</time>
					</trkpt>
					<trkpt lat="44.364540" lon="5.694620">
						<ele>1207</ele>
						<time>2026-09-03T07:50:44Z</time>
					</trkpt>
					<trkpt lat="44.364660" lon="5.694490">
						<ele>1209</ele>
						<time>2026-09-03T07:50:52Z</time>
					</trkpt>
					<trkpt lat="44.364810" lon="5.694450">
						<ele>1211</ele>
						<time>2026-09-03T07:51:00Z</time>
					</trkpt>
					<trkpt lat="44.365020" lon="5.694350">
						<ele>1215</ele>
						<time>2026-09-03T07:51:11Z</time>
					</trkpt>
					<trkpt lat="44.365280" lon="5.694150">
						<ele>1222</ele>
						<time>2026-09-03T07:51:26Z</time>
					</trkpt>
					<trkpt lat="44.365570" lon="5.693840">
						<ele>1231</ele>
						<time>2026-09-03T07:51:44Z</time>
					</trkpt>
					<trkpt lat="44.365740" lon="5.693590">
						<ele>1234</ele>
						<time>2026-09-03T07:51:56Z</time>
					</trkpt>
					<trkpt lat="44.365740" lon="5.693490">
						<ele>1234</ele>
						<time>2026-09-03T07:52:00Z</time>
					</trkpt>
					<trkpt lat="44.365790" lon="5.693390">
						<ele>1235</ele>
						<time>2026-09-03T07:52:04Z</time>
					</trkpt>
					<trkpt lat="44.365820" lon="5.693360">
						<ele>1235</ele>
						<time>2026-09-03T07:52:06Z</time>
					</trkpt>
					<trkpt lat="44.365930" lon="5.693350">
						<ele>1236</ele>
						<time>2026-09-03T07:52:11Z</time>
					</trkpt>
					<trkpt lat="44.366010" lon="5.693290">
						<ele>1237</ele>
						<time>2026-09-03T07:52:16Z</time>
					</trkpt>
					<trkpt lat="44.366100" lon="5.693260">
						<ele>1238</ele>
						<time>2026-09-03T07:52:21Z</time>
					</trkpt>
					<trkpt lat="44.368150" lon="5.693450">
						<ele>1261</ele>
						<time>2026-09-03T07:54:03Z</time>
					</trkpt>
					<trkpt lat="44.368390" lon="5.693430">
						<ele>1263</ele>
						<time>2026-09-03T07:54:15Z</time>
					</trkpt>
					<trkpt lat="44.368690" lon="5.693330">
						<ele>1268</ele>
						<time>2026-09-03T07:54:31Z</time>
					</trkpt>
					<trkpt lat="44.368970" lon="5.693220">
						<ele>1275</ele>
						<time>2026-09-03T07:54:45Z</time>
					</trkpt>
					<trkpt lat="44.369210" lon="5.693060">
						<ele>1281</ele>
						<time>2026-09-03T07:54:59Z</time>
					</trkpt>
					<trkpt lat="44.369330" lon="5.693200">
						<ele>1287</ele>
						<time>2026-09-03T07:55:07Z</time>
					</trkpt>
					<trkpt lat="44.369330" lon="5.693300">
						<ele>1287</ele>
						<time>2026-09-03T07:55:10Z</time>
					</trkpt>
					<trkpt lat="44.369270" lon="5.693390">
						<ele>1287</ele>
						<time>2026-09-03T07:55:15Z</time>
					</trkpt>
					<trkpt lat="44.369280" lon="5.693430">
						<ele>1288</ele>
						<time>2026-09-03T07:55:16Z</time>
					</trkpt>
					<trkpt lat="44.369360" lon="5.693500">
						<ele>1293</ele>
						<time>2026-09-03T07:55:21Z</time>
					</trkpt>
					<trkpt lat="44.369440" lon="5.693660">
						<ele>1300</ele>
						<time>2026-09-03T07:55:28Z</time>
					</trkpt>
					<trkpt lat="44.369600" lon="5.693720">
						<ele>1307</ele>
						<time>2026-09-03T07:55:36Z</time>
					</trkpt>
					<trkpt lat="44.369630" lon="5.693720">
						<ele>1308</ele>
						<time>2026-09-03T07:55:38Z</time>
					</trkpt>
					<trkpt lat="44.369690" lon="5.693660">
						<ele>1309</ele>
						<time>2026-09-03T07:55:41Z</time>
					</trkpt>
					<trkpt lat="44.369720" lon="5.693800">
						<ele>1313</ele>
						<time>2026-09-03T07:55:47Z</time>
					</trkpt>
					<trkpt lat="44.369840" lon="5.693800">
						<ele>1316</ele>
						<time>2026-09-03T07:55:53Z</time>
					</trkpt>
					<trkpt lat="44.369930" lon="5.693860">
						<ele>1320</ele>
						<time>2026-09-03T07:55:58Z</time>
					</trkpt>
					<trkpt lat="44.370220" lon="5.693940">
						<ele>1331</ele>
						<time>2026-09-03T07:56:12Z</time>
					</trkpt>
					<trkpt lat="44.370280" lon="5.694110">
						<ele>1335</ele>
						<time>2026-09-03T07:56:19Z</time>
					</trkpt>
					<trkpt lat="44.370230" lon="5.694420">
						<ele>1338</ele>
						<time>2026-09-03T07:56:30Z</time>
					</trkpt>
					<trkpt lat="44.370260" lon="5.694490">
						<ele>1340</ele>
						<time>2026-09-03T07:56:33Z</time>
					</trkpt>
					<trkpt lat="44.370400" lon="5.694500">
						<ele>1342</ele>
						<time>2026-09-03T07:56:40Z</time>
					</trkpt>
					<trkpt lat="44.370560" lon="5.694420">
						<ele>1345</ele>
						<time>2026-09-03T07:56:49Z</time>
					</trkpt>
					<trkpt lat="44.370650" lon="5.694340">
						<ele>1348</ele>
						<time>2026-09-03T07:56:54Z</time>
					</trkpt>
					<trkpt lat="44.370730" lon="5.694380">
						<ele>1349</ele>
						<time>2026-09-03T07:56:58Z</time>
					</trkpt>
					<trkpt lat="44.371160" lon="5.694950">
						<ele>1338</ele>
						<time>2026-09-03T07:57:28Z</time>
					</trkpt>
					<trkpt lat="44.371490" lon="5.694420">
						<ele>1351</ele>
						<time>2026-09-03T07:57:53Z</time>
					</trkpt>
					<trkpt lat="44.372290" lon="5.693440">
						<ele>1378</ele>
						<time>2026-09-03T07:58:46Z</time>
					</trkpt>
					<trkpt lat="44.372350" lon="5.693400">
						<ele>1380</ele>
						<time>2026-09-03T07:58:50Z</time>
					</trkpt>
					<trkpt lat="44.372480" lon="5.693190">
						<ele>1387</ele>
						<time>2026-09-03T07:59:00Z</time>
					</trkpt>
					<trkpt lat="44.372620" lon="5.693070">
						<ele>1387</ele>
						<time>2026-09-03T07:59:08Z</time>
					</trkpt>
					<trkpt lat="44.372780" lon="5.693010">
						<ele>1386</ele>
						<time>2026-09-03T07:59:16Z</time>
					</trkpt>
					<trkpt lat="44.373040" lon="5.692750">
						<ele>1394</ele>
						<time>2026-09-03T07:59:32Z</time>
					</trkpt>
					<trkpt lat="44.373340" lon="5.692510">
						<ele>1406</ele>
						<time>2026-09-03T07:59:50Z</time>
					</trkpt>
					<trkpt lat="44.373760" lon="5.692040">
						<ele>1406</ele>
						<time>2026-09-03T08:00:16Z</time>
					</trkpt>
					<trkpt lat="44.374020" lon="5.691610">
						<ele>1418</ele>
						<time>2026-09-03T08:00:37Z</time>
					</trkpt>
					<trkpt lat="44.374180" lon="5.691470">
						<ele>1421</ele>
						<time>2026-09-03T08:00:46Z</time>
					</trkpt>
					<trkpt lat="44.374300" lon="5.691440">
						<ele>1420</ele>
						<time>2026-09-03T08:00:52Z</time>
					</trkpt>
					<trkpt lat="44.374390" lon="5.691380">
						<ele>1421</ele>
						<time>2026-09-03T08:00:57Z</time>
					</trkpt>
					<trkpt lat="44.374560" lon="5.691140">
						<ele>1427</ele>
						<time>2026-09-03T08:01:09Z</time>
					</trkpt>
					<trkpt lat="44.375170" lon="5.690620">
						<ele>1441</ele>
						<time>2026-09-03T08:01:45Z</time>
					</trkpt>
					<trkpt lat="44.375840" lon="5.689900">
						<ele>1453</ele>
						<time>2026-09-03T08:02:27Z</time>
					</trkpt>
					<trkpt lat="44.375880" lon="5.689750">
						<ele>1450</ele>
						<time>2026-09-03T08:02:33Z</time>
					</trkpt>
					<trkpt lat="44.375870" lon="5.689490">
						<ele>1449</ele>
						<time>2026-09-03T08:02:42Z</time>
					</trkpt>
					<trkpt lat="44.375790" lon="5.689230">
						<ele>1448</ele>
						<time>2026-09-03T08:02:52Z</time>
					</trkpt>
					<trkpt lat="44.375790" lon="5.688940">
						<ele>1441</ele>
						<time>2026-09-03T08:03:03Z</time>
					</trkpt>
					<trkpt lat="44.375870" lon="5.688760">
						<ele>1436</ele>
						<time>2026-09-03T08:03:10Z</time>
					</trkpt>
					<trkpt lat="44.376100" lon="5.688430">
						<ele>1426</ele>
						<time>2026-09-03T08:03:27Z</time>
					</trkpt>
					<trkpt lat="44.376490" lon="5.688070">
						<ele>1416</ele>
						<time>2026-09-03T08:03:50Z</time>
					</trkpt>
					<trkpt lat="44.376900" lon="5.687860">
						<ele>1408</ele>
						<time>2026-09-03T08:04:12Z</time>
					</trkpt>
					<trkpt lat="44.377490" lon="5.687380">
						<ele>1404</ele>
						<time>2026-09-03T08:04:46Z</time>
					</trkpt>
					<trkpt lat="44.377660" lon="5.687310">
						<ele>1405</ele>
						<time>2026-09-03T08:04:55Z</time>
					</trkpt>
					<trkpt lat="44.377790" lon="5.687220">
						<ele>1406</ele>
						<time>2026-09-03T08:05:02Z</time>
					</trkpt>
					<trkpt lat="44.378320" lon="5.686700">
						<ele>1428</ele>
						<time>2026-09-03T08:05:35Z</time>
					</trkpt>
					<trkpt lat="44.378470" lon="5.686420">
						<ele>1436</ele>
						<time>2026-09-03T08:05:47Z</time>
					</trkpt>
					<trkpt lat="44.378760" lon="5.686250">
						<ele>1446</ele>
						<time>2026-09-03T08:06:03Z</time>
					</trkpt>
					<trkpt lat="44.378830" lon="5.686250">
						<ele>1448</ele>
						<time>2026-09-03T08:06:06Z</time>
					</trkpt>
					<trkpt lat="44.378910" lon="5.686190">
						<ele>1452</ele>
						<time>2026-09-03T08:06:11Z</time>
					</trkpt>
					<trkpt lat="44.379000" lon="5.686170">
						<ele>1455</ele>
						<time>2026-09-03T08:06:16Z</time>
					</trkpt>
					<trkpt lat="44.379250" lon="5.686240">
						<ele>1460</ele>
						<time>2026-09-03T08:06:28Z</time>
					</trkpt>
					<trkpt lat="44.379470" lon="5.686240">
						<ele>1464</ele>
						<time>2026-09-03T08:06:39Z</time>
					</trkpt>
					<trkpt lat="44.379560" lon="5.686210">
						<ele>1466</ele>
						<time>2026-09-03T08:06:44Z</time>
					</trkpt>
					<trkpt lat="44.379610" lon="5.686160">
						<ele>1468</ele>
						<time>2026-09-03T08:06:47Z</time>
					</trkpt>
					<trkpt lat="44.379640" lon="5.686190">
						<ele>1468</ele>
						<time>2026-09-03T08:06:49Z</time>
					</trkpt>
					<trkpt lat="44.379900" lon="5.686230">
						<ele>1472</ele>
						<time>2026-09-03T08:07:02Z</time>
					</trkpt>
					<trkpt lat="44.380060" lon="5.686300">
						<ele>1474</ele>
						<time>2026-09-03T08:07:10Z</time>
					</trkpt>
					<trkpt lat="44.380540" lon="5.686610">
						<ele>1481</ele>
						<time>2026-09-03T08:07:37Z</time>
					</trkpt>
					<trkpt lat="44.380700" lon="5.686680">
						<ele>1483</ele>
						<time>2026-09-03T08:07:45Z</time>
					</trkpt>
					<trkpt lat="44.380970" lon="5.686620">
						<ele>1486</ele>
						<time>2026-09-03T08:07:59Z</time>
					</trkpt>
					<trkpt lat="44.381360" lon="5.686510">
						<ele>1484</ele>
						<time>2026-09-03T08:08:19Z</time>
					</trkpt>
					<trkpt lat="44.381600" lon="5.686340">
						<ele>1485</ele>
						<time>2026-09-03T08:08:32Z</time>
					</trkpt>
					<trkpt lat="44.381860" lon="5.686000">
						<ele>1484</ele>
						<time>2026-09-03T08:08:50Z</time>
					</trkpt>
					<trkpt lat="44.382060" lon="5.685670">
						<ele>1487</ele>
						<time>2026-09-03T08:09:06Z</time>
					</trkpt>
					<trkpt lat="44.382330" lon="5.685350">
						<ele>1492</ele>
						<time>2026-09-03T08:09:23Z</time>
					</trkpt>
					<trkpt lat="44.382830" lon="5.685100">
						<ele>1504</ele>
						<time>2026-09-03T08:09:50Z</time>
					</trkpt>
					<trkpt lat="44.383030" lon="5.685080">
						<ele>1507</ele>
						<time>2026-09-03T08:10:00Z</time>
					</trkpt>
					<trkpt lat="44.383410" lon="5.685100">
						<ele>1509</ele>
						<time>2026-09-03T08:10:19Z</time>
					</trkpt>
					<trkpt lat="44.383580" lon="5.685180">
						<ele>1505</ele>
						<time>2026-09-03T08:10:28Z</time>
					</trkpt>
					<trkpt lat="44.383710" lon="5.685180">
						<ele>1505</ele>
						<time>2026-09-03T08:10:34Z</time>
					</trkpt>
					<trkpt lat="44.384030" lon="5.685120">
						<ele>1507</ele>
						<time>2026-09-03T08:10:51Z</time>
					</trkpt>
					<trkpt lat="44.384270" lon="5.685190">
						<ele>1504</ele>
						<time>2026-09-03T08:11:03Z</time>
					</trkpt>
					<trkpt lat="44.384530" lon="5.685080">
						<ele>1509</ele>
						<time>2026-09-03T08:11:16Z</time>
					</trkpt>
					<trkpt lat="44.385010" lon="5.684770">
						<ele>1500</ele>
						<time>2026-09-03T08:11:43Z</time>
					</trkpt>
					<trkpt lat="44.385380" lon="5.684720">
						<ele>1488</ele>
						<time>2026-09-03T08:12:01Z</time>
					</trkpt>
					<trkpt lat="44.385840" lon="5.684890">
						<ele>1482</ele>
						<time>2026-09-03T08:12:25Z</time>
					</trkpt>
					<trkpt lat="44.386270" lon="5.685110">
						<ele>1475</ele>
						<time>2026-09-03T08:12:48Z</time>
					</trkpt>
					<trkpt lat="44.387350" lon="5.685040">
						<ele>1443</ele>
						<time>2026-09-03T08:13:42Z</time>
					</trkpt>
					<trkpt lat="44.387660" lon="5.685100">
						<ele>1435</ele>
						<time>2026-09-03T08:13:58Z</time>
					</trkpt>
					<trkpt lat="44.388210" lon="5.685270">
						<ele>1422</ele>
						<time>2026-09-03T08:14:26Z</time>
					</trkpt>
					<trkpt lat="44.388580" lon="5.685210">
						<ele>1416</ele>
						<time>2026-09-03T08:14:45Z</time>
					</trkpt>
					<trkpt lat="44.388990" lon="5.685110">
						<ele>1411</ele>
						<time>2026-09-03T08:15:06Z</time>
					</trkpt>
					<trkpt lat="44.389580" lon="5.685040">
						<ele>1404</ele>
						<time>2026-09-03T08:15:35Z</time>
					</trkpt>
					<trkpt lat="44.391050" lon="5.685270">
						<ele>1385</ele>
						<time>2026-09-03T08:16:49Z</time>
					</trkpt>
					<trkpt lat="44.391200" lon="5.685320">
						<ele>1383</ele>
						<time>2026-09-03T08:16:57Z</time>
					</trkpt>
					<trkpt lat="44.391550" lon="5.685280">
						<ele>1382</ele>
						<time>2026-09-03T08:17:15Z</time>
					</trkpt>
					<trkpt lat="44.391710" lon="5.685290">
						<ele>1382</ele>
						<time>2026-09-03T08:17:23Z</time>
					</trkpt>
					<trkpt lat="44.391790" lon="5.685260">
						<ele>1382</ele>
						<time>2026-09-03T08:17:27Z</time>
					</trkpt>
					<trkpt lat="44.392080" lon="5.685310">
						<ele>1381</ele>
						<time>2026-09-03T08:17:41Z</time>
					</trkpt>
					<trkpt lat="44.392290" lon="5.685300">
						<ele>1381</ele>
						<time>2026-09-03T08:17:52Z</time>
					</trkpt>
					<trkpt lat="44.392440" lon="5.685280">
						<ele>1381</ele>
						<time>2026-09-03T08:17:59Z</time>
					</trkpt>
					<trkpt lat="44.392760" lon="5.685060">
						<ele>1369</ele>
						<time>2026-09-03T08:18:17Z</time>
					</trkpt>
					<trkpt lat="44.392920" lon="5.684920">
						<ele>1357</ele>
						<time>2026-09-03T08:18:27Z</time>
					</trkpt>
					<trkpt lat="44.393260" lon="5.685740">
						<ele>1351</ele>
						<time>2026-09-03T08:19:01Z</time>
					</trkpt>
					<trkpt lat="44.393340" lon="5.685780">
						<ele>1348</ele>
						<time>2026-09-03T08:19:05Z</time>
					</trkpt>
					<trkpt lat="44.393340" lon="5.685850">
						<ele>1348</ele>
						<time>2026-09-03T08:19:07Z</time>
					</trkpt>
					<trkpt lat="44.393490" lon="5.685970">
						<ele>1336</ele>
						<time>2026-09-03T08:19:16Z</time>
					</trkpt>
					<trkpt lat="44.393560" lon="5.686060">
						<ele>1331</ele>
						<time>2026-09-03T08:19:21Z</time>
					</trkpt>
					<trkpt lat="44.393740" lon="5.686160">
						<ele>1322</ele>
						<time>2026-09-03T08:19:30Z</time>
					</trkpt>
					<trkpt lat="44.393830" lon="5.686240">
						<ele>1319</ele>
						<time>2026-09-03T08:19:36Z</time>
					</trkpt>
					<trkpt lat="44.393860" lon="5.686220">
						<ele>1318</ele>
						<time>2026-09-03T08:19:37Z</time>
					</trkpt>
					<trkpt lat="44.393900" lon="5.686230">
						<ele>1317</ele>
						<time>2026-09-03T08:19:39Z</time>
					</trkpt>
					<trkpt lat="44.394070" lon="5.686420">
						<ele>1314</ele>
						<time>2026-09-03T08:19:50Z</time>
					</trkpt>
					<trkpt lat="44.394200" lon="5.686650">
						<ele>1314</ele>
						<time>2026-09-03T08:20:01Z</time>
					</trkpt>
					<trkpt lat="44.394280" lon="5.686700">
						<ele>1310</ele>
						<time>2026-09-03T08:20:05Z</time>
					</trkpt>
					<trkpt lat="44.394420" lon="5.686890">
						<ele>1300</ele>
						<time>2026-09-03T08:20:15Z</time>
					</trkpt>
					<trkpt lat="44.394460" lon="5.687020">
						<ele>1297</ele>
						<time>2026-09-03T08:20:20Z</time>
					</trkpt>
					<trkpt lat="44.394570" lon="5.687220">
						<ele>1293</ele>
						<time>2026-09-03T08:20:29Z</time>
					</trkpt>
					<trkpt lat="44.394660" lon="5.687290">
						<ele>1292</ele>
						<time>2026-09-03T08:20:34Z</time>
					</trkpt>
					<trkpt lat="44.394880" lon="5.687600">
						<ele>1292</ele>
						<time>2026-09-03T08:20:50Z</time>
					</trkpt>
					<trkpt lat="44.395410" lon="5.688040">
						<ele>1287</ele>
						<time>2026-09-03T08:21:21Z</time>
					</trkpt>
					<trkpt lat="44.395890" lon="5.688650">
						<ele>1287</ele>
						<time>2026-09-03T08:21:53Z</time>
					</trkpt>
					<trkpt lat="44.395980" lon="5.688720">
						<ele>1285</ele>
						<time>2026-09-03T08:21:58Z</time>
					</trkpt>
					<trkpt lat="44.396400" lon="5.688930">
						<ele>1285</ele>
						<time>2026-09-03T08:22:21Z</time>
					</trkpt>
					<trkpt lat="44.396790" lon="5.689290">
						<ele>1287</ele>
						<time>2026-09-03T08:22:44Z</time>
					</trkpt>
					<trkpt lat="44.396950" lon="5.689400">
						<ele>1283</ele>
						<time>2026-09-03T08:22:53Z</time>
					</trkpt>
					<trkpt lat="44.397300" lon="5.689770">
						<ele>1283</ele>
						<time>2026-09-03T08:23:15Z</time>
					</trkpt>
					<trkpt lat="44.397530" lon="5.689940">
						<ele>1289</ele>
						<time>2026-09-03T08:23:28Z</time>
					</trkpt>
					<trkpt lat="44.397780" lon="5.690190">
						<ele>1282</ele>
						<time>2026-09-03T08:23:43Z</time>
					</trkpt>
					<trkpt lat="44.398420" lon="5.690990">
						<ele>1283</ele>
						<time>2026-09-03T08:24:26Z</time>
					</trkpt>
					<trkpt lat="44.398860" lon="5.691350">
						<ele>1275</ele>
						<time>2026-09-03T08:24:52Z</time>
					</trkpt>
					<trkpt lat="44.399200" lon="5.691720">
						<ele>1282</ele>
						<time>2026-09-03T08:25:13Z</time>
					</trkpt>
					<trkpt lat="44.399850" lon="5.692530">
						<ele>1264</ele>
						<time>2026-09-03T08:25:57Z</time>
					</trkpt>
					<trkpt lat="44.400120" lon="5.692740">
						<ele>1254</ele>
						<time>2026-09-03T08:26:12Z</time>
					</trkpt>
					<trkpt lat="44.400500" lon="5.692960">
						<ele>1248</ele>
						<time>2026-09-03T08:26:33Z</time>
					</trkpt>
					<trkpt lat="44.400850" lon="5.693270">
						<ele>1260</ele>
						<time>2026-09-03T08:26:54Z</time>
					</trkpt>
					<trkpt lat="44.400930" lon="5.693320">
						<ele>1259</ele>
						<time>2026-09-03T08:26:58Z</time>
					</trkpt>
					<trkpt lat="44.401220" lon="5.693420">
						<ele>1249</ele>
						<time>2026-09-03T08:27:13Z</time>
					</trkpt>
					<trkpt lat="44.401660" lon="5.693810">
						<ele>1240</ele>
						<time>2026-09-03T08:27:39Z</time>
					</trkpt>
					<trkpt lat="44.402090" lon="5.694080">
						<ele>1237</ele>
						<time>2026-09-03T08:28:03Z</time>
					</trkpt>
					<trkpt lat="44.402860" lon="5.694650">
						<ele>1219</ele>
						<time>2026-09-03T08:28:46Z</time>
					</trkpt>
					<trkpt lat="44.403640" lon="5.694980">
						<ele>1211</ele>
						<time>2026-09-03T08:29:27Z</time>
					</trkpt>
					<trkpt lat="44.403910" lon="5.695040">
						<ele>1206</ele>
						<time>2026-09-03T08:29:41Z</time>
					</trkpt>
					<trkpt lat="44.404220" lon="5.695280">
						<ele>1196</ele>
						<time>2026-09-03T08:29:58Z</time>
					</trkpt>
					<trkpt lat="44.404430" lon="5.695370">
						<ele>1190</ele>
						<time>2026-09-03T08:30:09Z</time>
					</trkpt>
					<trkpt lat="44.404550" lon="5.695590">
						<ele>1186</ele>
						<time>2026-09-03T08:30:19Z</time>
					</trkpt>
					<trkpt lat="44.404620" lon="5.695640">
						<ele>1185</ele>
						<time>2026-09-03T08:30:23Z</time>
					</trkpt>
					<trkpt lat="44.405130" lon="5.695950">
						<ele>1175</ele>
						<time>2026-09-03T08:30:51Z</time>
					</trkpt>
					<trkpt lat="44.405440" lon="5.696040">
						<ele>1165</ele>
						<time>2026-09-03T08:31:07Z</time>
					</trkpt>
					<trkpt lat="44.405570" lon="5.696140">
						<ele>1159</ele>
						<time>2026-09-03T08:31:14Z</time>
					</trkpt>
					<trkpt lat="44.405710" lon="5.696180">
						<ele>1156</ele>
						<time>2026-09-03T08:31:21Z</time>
					</trkpt>
					<trkpt lat="44.405850" lon="5.696290">
						<ele>1152</ele>
						<time>2026-09-03T08:31:29Z</time>
					</trkpt>
					<trkpt lat="44.406050" lon="5.696360">
						<ele>1145</ele>
						<time>2026-09-03T08:31:40Z</time>
					</trkpt>
					<trkpt lat="44.406100" lon="5.696420">
						<ele>1143</ele>
						<time>2026-09-03T08:31:43Z</time>
					</trkpt>
					<trkpt lat="44.406240" lon="5.696440">
						<ele>1140</ele>
						<time>2026-09-03T08:31:50Z</time>
					</trkpt>
					<trkpt lat="44.406300" lon="5.696480">
						<ele>1138</ele>
						<time>2026-09-03T08:31:53Z</time>
					</trkpt>
					<trkpt lat="44.406400" lon="5.696500">
						<ele>1136</ele>
						<time>2026-09-03T08:31:58Z</time>
					</trkpt>
					<trkpt lat="44.406470" lon="5.696560">
						<ele>1134</ele>
						<time>2026-09-03T08:32:03Z</time>
					</trkpt>
					<trkpt lat="44.406540" lon="5.696550">
						<ele>1133</ele>
						<time>2026-09-03T08:32:06Z</time>
					</trkpt>
					<trkpt lat="44.406710" lon="5.696580">
						<ele>1129</ele>
						<time>2026-09-03T08:32:15Z</time>
					</trkpt>
					<trkpt lat="44.406880" lon="5.696730">
						<ele>1123</ele>
						<time>2026-09-03T08:32:25Z</time>
					</trkpt>
					<trkpt lat="44.406990" lon="5.696750">
						<ele>1120</ele>
						<time>2026-09-03T08:32:30Z</time>
					</trkpt>
					<trkpt lat="44.407040" lon="5.696820">
						<ele>1117</ele>
						<time>2026-09-03T08:32:34Z</time>
					</trkpt>
					<trkpt lat="44.407240" lon="5.696800">
						<ele>1113</ele>
						<time>2026-09-03T08:32:44Z</time>
					</trkpt>
					<trkpt lat="44.407260" lon="5.696880">
						<ele>1111</ele>
						<time>2026-09-03T08:32:47Z</time>
					</trkpt>
					<trkpt lat="44.407370" lon="5.696960">
						<ele>1108</ele>
						<time>2026-09-03T08:32:53Z</time>
					</trkpt>
					<trkpt lat="44.407770" lon="5.697070">
						<ele>1101</ele>
						<time>2026-09-03T08:33:13Z</time>
					</trkpt>
					<trkpt lat="44.407840" lon="5.697060">
						<ele>1100</ele>
						<time>2026-09-03T08:33:17Z</time>
					</trkpt>
					<trkpt lat="44.407900" lon="5.697160">
						<ele>1098</ele>
						<time>2026-09-03T08:33:22Z</time>
					</trkpt>
					<trkpt lat="44.408050" lon="5.697240">
						<ele>1096</ele>
						<time>2026-09-03T08:33:30Z</time>
					</trkpt>
					<trkpt lat="44.408240" lon="5.697220">
						<ele>1094</ele>
						<time>2026-09-03T08:33:39Z</time>
					</trkpt>
					<trkpt lat="44.408330" lon="5.697240">
						<ele>1092</ele>
						<time>2026-09-03T08:33:44Z</time>
					</trkpt>
					<trkpt lat="44.408370" lon="5.697210">
						<ele>1092</ele>
						<time>2026-09-03T08:33:46Z</time>
					</trkpt>
					<trkpt lat="44.408550" lon="5.697210">
						<ele>1092</ele>
						<time>2026-09-03T08:33:55Z</time>
					</trkpt>
					<trkpt lat="44.408590" lon="5.697220">
						<ele>1091</ele>
						<time>2026-09-03T08:33:57Z</time>
					</trkpt>
					<trkpt lat="44.408620" lon="5.697280">
						<ele>1092</ele>
						<time>2026-09-03T08:34:00Z</time>
					</trkpt>
					<trkpt lat="44.408660" lon="5.697300">
						<ele>1092</ele>
						<time>2026-09-03T08:34:02Z</time>
					</trkpt>
					<trkpt lat="44.408950" lon="5.697290">
						<ele>1091</ele>
						<time>2026-09-03T08:34:16Z</time>
					</trkpt>
					<trkpt lat="44.409010" lon="5.697260">
						<ele>1091</ele>
						<time>2026-09-03T08:34:20Z</time>
					</trkpt>
					<trkpt lat="44.409260" lon="5.697420">
						<ele>1091</ele>
						<time>2026-09-03T08:34:33Z</time>
					</trkpt>
					<trkpt lat="44.409470" lon="5.697660">
						<ele>1080</ele>
						<time>2026-09-03T08:34:47Z</time>
					</trkpt>
					<trkpt lat="44.409720" lon="5.697780">
						<ele>1071</ele>
						<time>2026-09-03T08:35:00Z</time>
					</trkpt>
					<trkpt lat="44.409820" lon="5.697750">
						<ele>1070</ele>
						<time>2026-09-03T08:35:05Z</time>
					</trkpt>
					<trkpt lat="44.409880" lon="5.697790">
						<ele>1068</ele>
						<time>2026-09-03T08:35:09Z</time>
					</trkpt>
					<trkpt lat="44.410090" lon="5.697830">
						<ele>1062</ele>
						<time>2026-09-03T08:35:19Z</time>
					</trkpt>
					<trkpt lat="44.410340" lon="5.697850">
						<ele>1056</ele>
						<time>2026-09-03T08:35:32Z</time>
					</trkpt>
					<trkpt lat="44.410500" lon="5.697900">
						<ele>1052</ele>
						<time>2026-09-03T08:35:40Z</time>
					</trkpt>
					<trkpt lat="44.410790" lon="5.697900">
						<ele>1045</ele>
						<time>2026-09-03T08:35:54Z</time>
					</trkpt>
					<trkpt lat="44.410920" lon="5.697940">
						<ele>1043</ele>
						<time>2026-09-03T08:36:01Z</time>
					</trkpt>
					<trkpt lat="44.411360" lon="5.698190">
						<ele>1037</ele>
						<time>2026-09-03T08:36:25Z</time>
					</trkpt>
					<trkpt lat="44.411530" lon="5.698340">
						<ele>1037</ele>
						<time>2026-09-03T08:36:35Z</time>
					</trkpt>
					<trkpt lat="44.412020" lon="5.698460">
						<ele>1026</ele>
						<time>2026-09-03T08:37:00Z</time>
					</trkpt>
					<trkpt lat="44.412090" lon="5.698510">
						<ele>1023</ele>
						<time>2026-09-03T08:37:04Z</time>
					</trkpt>
					<trkpt lat="44.412600" lon="5.698540">
						<ele>1018</ele>
						<time>2026-09-03T08:37:29Z</time>
					</trkpt>
					<trkpt lat="44.412690" lon="5.698500">
						<ele>1018</ele>
						<time>2026-09-03T08:37:34Z</time>
					</trkpt>
					<trkpt lat="44.412780" lon="5.698540">
						<ele>1015</ele>
						<time>2026-09-03T08:37:39Z</time>
					</trkpt>
					<trkpt lat="44.412820" lon="5.698500">
						<ele>1016</ele>
						<time>2026-09-03T08:37:41Z</time>
					</trkpt>
					<trkpt lat="44.412920" lon="5.698490">
						<ele>1015</ele>
						<time>2026-09-03T08:37:46Z</time>
					</trkpt>
					<trkpt lat="44.412930" lon="5.698450">
						<ele>1017</ele>
						<time>2026-09-03T08:37:48Z</time>
					</trkpt>
					<trkpt lat="44.413680" lon="5.698410">
						<ele>1009</ele>
						<time>2026-09-03T08:38:25Z</time>
					</trkpt>
					<trkpt lat="44.414080" lon="5.698300">
						<ele>1008</ele>
						<time>2026-09-03T08:38:46Z</time>
					</trkpt>
					<trkpt lat="44.414320" lon="5.698320">
						<ele>1004</ele>
						<time>2026-09-03T08:38:58Z</time>
					</trkpt>
					<trkpt lat="44.414290" lon="5.698090">
						<ele>1001</ele>
						<time>2026-09-03T08:39:06Z</time>
					</trkpt>
					<trkpt lat="44.414160" lon="5.697980">
						<ele>1002</ele>
						<time>2026-09-03T08:39:14Z</time>
					</trkpt>
					<trkpt lat="44.414150" lon="5.697900">
						<ele>1000</ele>
						<time>2026-09-03T08:39:17Z</time>
					</trkpt>
					<trkpt lat="44.414100" lon="5.697840">
						<ele>1000</ele>
						<time>2026-09-03T08:39:20Z</time>
					</trkpt>
					<trkpt lat="44.414120" lon="5.697770">
						<ele>998</ele>
						<time>2026-09-03T08:39:23Z</time>
					</trkpt>
					<trkpt lat="44.413910" lon="5.697660">
						<ele>998</ele>
						<time>2026-09-03T08:39:34Z</time>
					</trkpt>
					<trkpt lat="44.413920" lon="5.697630">
						<ele>997</ele>
						<time>2026-09-03T08:39:35Z</time>
					</trkpt>
					<trkpt lat="44.413820" lon="5.697620">
						<ele>997</ele>
						<time>2026-09-03T08:39:40Z</time>
					</trkpt>
					<trkpt lat="44.413730" lon="5.697640">
						<ele>998</ele>
						<time>2026-09-03T08:39:44Z</time>
					</trkpt>
					<trkpt lat="44.413600" lon="5.697550">
						<ele>997</ele>
						<time>2026-09-03T08:39:52Z</time>
					</trkpt>
					<trkpt lat="44.413630" lon="5.697450">
						<ele>994</ele>
						<time>2026-09-03T08:39:56Z</time>
					</trkpt>
					<trkpt lat="44.413520" lon="5.697300">
						<ele>989</ele>
						<time>2026-09-03T08:40:03Z</time>
					</trkpt>
					<trkpt lat="44.413320" lon="5.697200">
						<ele>986</ele>
						<time>2026-09-03T08:40:14Z</time>
					</trkpt>
					<trkpt lat="44.413340" lon="5.697080">
						<ele>981</ele>
						<time>2026-09-03T08:40:18Z</time>
					</trkpt>
					<trkpt lat="44.413230" lon="5.696940">
						<ele>976</ele>
						<time>2026-09-03T08:40:26Z</time>
					</trkpt>
					<trkpt lat="44.413380" lon="5.696790">
						<ele>969</ele>
						<time>2026-09-03T08:40:35Z</time>
					</trkpt>
					<trkpt lat="44.413580" lon="5.696700">
						<ele>964</ele>
						<time>2026-09-03T08:40:46Z</time>
					</trkpt>
					<trkpt lat="44.413590" lon="5.696640">
						<ele>962</ele>
						<time>2026-09-03T08:40:48Z</time>
					</trkpt>
					<trkpt lat="44.413380" lon="5.696410">
						<ele>954</ele>
						<time>2026-09-03T08:41:01Z</time>
					</trkpt>
					<trkpt lat="44.413530" lon="5.696420">
						<ele>954</ele>
						<time>2026-09-03T08:41:09Z</time>
					</trkpt>
					<trkpt lat="44.414020" lon="5.696240">
						<ele>944</ele>
						<time>2026-09-03T08:41:34Z</time>
					</trkpt>
					<trkpt lat="44.414070" lon="5.696160">
						<ele>940</ele>
						<time>2026-09-03T08:41:38Z</time>
					</trkpt>
					<trkpt lat="44.413910" lon="5.696060">
						<ele>937</ele>
						<time>2026-09-03T08:41:46Z</time>
					</trkpt>
					<trkpt lat="44.413970" lon="5.695880">
						<ele>930</ele>
						<time>2026-09-03T08:41:54Z</time>
					</trkpt>
					<trkpt lat="44.414210" lon="5.695790">
						<ele>925</ele>
						<time>2026-09-03T08:42:06Z</time>
					</trkpt>
					<trkpt lat="44.414490" lon="5.695530">
						<ele>911</ele>
						<time>2026-09-03T08:42:23Z</time>
					</trkpt>
					<trkpt lat="44.414600" lon="5.695520">
						<ele>909</ele>
						<time>2026-09-03T08:42:28Z</time>
					</trkpt>
					<trkpt lat="44.414520" lon="5.695290">
						<ele>901</ele>
						<time>2026-09-03T08:42:37Z</time>
					</trkpt>
					<trkpt lat="44.414640" lon="5.695260">
						<ele>898</ele>
						<time>2026-09-03T08:42:44Z</time>
					</trkpt>
					<trkpt lat="44.414640" lon="5.695130">
						<ele>893</ele>
						<time>2026-09-03T08:42:48Z</time>
					</trkpt>
					<trkpt lat="44.414690" lon="5.695110">
						<ele>891</ele>
						<time>2026-09-03T08:42:51Z</time>
					</trkpt>
					<trkpt lat="44.414690" lon="5.694930">
						<ele>884</ele>
						<time>2026-09-03T08:42:57Z</time>
					</trkpt>
					<trkpt lat="44.414760" lon="5.694910">
						<ele>882</ele>
						<time>2026-09-03T08:43:01Z</time>
					</trkpt>
					<trkpt lat="44.414560" lon="5.694320">
						<ele>866</ele>
						<time>2026-09-03T08:43:24Z</time>
					</trkpt>
					<trkpt lat="44.414200" lon="5.693750">
						<ele>856</ele>
						<time>2026-09-03T08:43:51Z</time>
					</trkpt>
					<trkpt lat="44.413630" lon="5.693200">
						<ele>852</ele>
						<time>2026-09-03T08:44:26Z</time>
					</trkpt>
					<trkpt lat="44.413100" lon="5.692950">
						<ele>857</ele>
						<time>2026-09-03T08:44:54Z</time>
					</trkpt>
					<trkpt lat="44.412530" lon="5.692780">
						<ele>862</ele>
						<time>2026-09-03T08:45:23Z</time>
					</trkpt>
					<trkpt lat="44.412240" lon="5.692630">
						<ele>863</ele>
						<time>2026-09-03T08:45:39Z</time>
					</trkpt>
					<trkpt lat="44.411450" lon="5.691900">
						<ele>863</ele>
						<time>2026-09-03T08:46:26Z</time>
					</trkpt>
					<trkpt lat="44.411190" lon="5.691810">
						<ele>867</ele>
						<time>2026-09-03T08:46:39Z</time>
					</trkpt>
					<trkpt lat="44.411040" lon="5.691520">
						<ele>865</ele>
						<time>2026-09-03T08:46:52Z</time>
					</trkpt>
					<trkpt lat="44.411100" lon="5.691220">
						<ele>859</ele>
						<time>2026-09-03T08:47:03Z</time>
					</trkpt>
					<trkpt lat="44.411070" lon="5.690920">
						<ele>856</ele>
						<time>2026-09-03T08:47:14Z</time>
					</trkpt>
					<trkpt lat="44.411010" lon="5.690810">
						<ele>856</ele>
						<time>2026-09-03T08:47:19Z</time>
					</trkpt>
					<trkpt lat="44.410850" lon="5.690770">
						<ele>859</ele>
						<time>2026-09-03T08:47:27Z</time>
					</trkpt>
					<trkpt lat="44.410790" lon="5.690730">
						<ele>860</ele>
						<time>2026-09-03T08:47:31Z</time>
					</trkpt>
					<trkpt lat="44.410690" lon="5.690550">
						<ele>859</ele>
						<time>2026-09-03T08:47:39Z</time>
					</trkpt>
					<trkpt lat="44.410630" lon="5.690320">
						<ele>857</ele>
						<time>2026-09-03T08:47:48Z</time>
					</trkpt>
					<trkpt lat="44.410640" lon="5.690040">
						<ele>851</ele>
						<time>2026-09-03T08:47:58Z</time>
					</trkpt>
					<trkpt lat="44.410480" lon="5.689690">
						<ele>850</ele>
						<time>2026-09-03T08:48:12Z</time>
					</trkpt>
					<trkpt lat="44.410450" lon="5.689370">
						<ele>846</ele>
						<time>2026-09-03T08:48:24Z</time>
					</trkpt>
					<trkpt lat="44.410210" lon="5.688810">
						<ele>846</ele>
						<time>2026-09-03T08:48:47Z</time>
					</trkpt>
					<trkpt lat="44.410130" lon="5.688730">
						<ele>847</ele>
						<time>2026-09-03T08:48:52Z</time>
					</trkpt>
					<trkpt lat="44.409820" lon="5.688710">
						<ele>850</ele>
						<time>2026-09-03T08:49:08Z</time>
					</trkpt>
					<trkpt lat="44.409680" lon="5.688780">
						<ele>851</ele>
						<time>2026-09-03T08:49:15Z</time>
					</trkpt>
					<trkpt lat="44.409540" lon="5.688910">
						<ele>853</ele>
						<time>2026-09-03T08:49:24Z</time>
					</trkpt>
					<trkpt lat="44.409470" lon="5.688940">
						<ele>854</ele>
						<time>2026-09-03T08:49:27Z</time>
					</trkpt>
					<trkpt lat="44.409370" lon="5.688930">
						<ele>854</ele>
						<time>2026-09-03T08:49:32Z</time>
					</trkpt>
					<trkpt lat="44.409170" lon="5.688640">
						<ele>849</ele>
						<time>2026-09-03T08:49:47Z</time>
					</trkpt>
					<trkpt lat="44.408870" lon="5.688380">
						<ele>851</ele>
						<time>2026-09-03T08:50:04Z</time>
					</trkpt>
					<trkpt lat="44.408750" lon="5.688100">
						<ele>849</ele>
						<time>2026-09-03T08:50:16Z</time>
					</trkpt>
					<trkpt lat="44.408540" lon="5.687950">
						<ele>850</ele>
						<time>2026-09-03T08:50:28Z</time>
					</trkpt>
					<trkpt lat="44.408470" lon="5.687810">
						<ele>849</ele>
						<time>2026-09-03T08:50:34Z</time>
					</trkpt>
					<trkpt lat="44.408440" lon="5.687680">
						<ele>847</ele>
						<time>2026-09-03T08:50:39Z</time>
					</trkpt>
					<trkpt lat="44.408450" lon="5.687540">
						<ele>844</ele>
						<time>2026-09-03T08:50:44Z</time>
					</trkpt>
					<trkpt lat="44.408520" lon="5.687330">
						<ele>841</ele>
						<time>2026-09-03T08:50:52Z</time>
					</trkpt>
					<trkpt lat="44.408600" lon="5.687230">
						<ele>838</ele>
						<time>2026-09-03T08:50:57Z</time>
					</trkpt>
					<trkpt lat="44.408680" lon="5.687180">
						<ele>836</ele>
						<time>2026-09-03T08:51:02Z</time>
					</trkpt>
					<trkpt lat="44.408770" lon="5.687160">
						<ele>834</ele>
						<time>2026-09-03T08:51:06Z</time>
					</trkpt>
					<trkpt lat="44.408840" lon="5.687190">
						<ele>834</ele>
						<time>2026-09-03T08:51:10Z</time>
					</trkpt>
					<trkpt lat="44.408970" lon="5.687580">
						<ele>836</ele>
						<time>2026-09-03T08:51:25Z</time>
					</trkpt>
					<trkpt lat="44.409060" lon="5.687690">
						<ele>836</ele>
						<time>2026-09-03T08:51:31Z</time>
					</trkpt>
					<trkpt lat="44.409120" lon="5.687690">
						<ele>835</ele>
						<time>2026-09-03T08:51:34Z</time>
					</trkpt>
					<trkpt lat="44.409380" lon="5.687470">
						<ele>830</ele>
						<time>2026-09-03T08:51:50Z</time>
					</trkpt>
					<trkpt lat="44.409470" lon="5.687290">
						<ele>826</ele>
						<time>2026-09-03T08:51:57Z</time>
					</trkpt>
					<trkpt lat="44.409470" lon="5.687180">
						<ele>823</ele>
						<time>2026-09-03T08:52:01Z</time>
					</trkpt>
					<trkpt lat="44.409430" lon="5.687010">
						<ele>820</ele>
						<time>2026-09-03T08:52:08Z</time>
					</trkpt>
					<trkpt lat="44.409350" lon="5.686820">
						<ele>818</ele>
						<time>2026-09-03T08:52:16Z</time>
					</trkpt>
					<trkpt lat="44.408980" lon="5.686280">
						<ele>813</ele>
						<time>2026-09-03T08:52:42Z</time>
					</trkpt>
					<trkpt lat="44.408730" lon="5.686110">
						<ele>814</ele>
						<time>2026-09-03T08:52:56Z</time>
					</trkpt>
					<trkpt lat="44.408370" lon="5.685580">
						<ele>806</ele>
						<time>2026-09-03T08:53:23Z</time>
					</trkpt>
					<trkpt lat="44.408200" lon="5.685440">
						<ele>806</ele>
						<time>2026-09-03T08:53:32Z</time>
					</trkpt>
					<trkpt lat="44.408010" lon="5.685190">
						<ele>802</ele>
						<time>2026-09-03T08:53:45Z</time>
					</trkpt>
					<trkpt lat="44.407760" lon="5.685080">
						<ele>803</ele>
						<time>2026-09-03T08:53:59Z</time>
					</trkpt>
					<trkpt lat="44.407540" lon="5.684750">
						<ele>797</ele>
						<time>2026-09-03T08:54:15Z</time>
					</trkpt>
					<trkpt lat="44.407240" lon="5.684000">
						<ele>783</ele>
						<time>2026-09-03T08:54:45Z</time>
					</trkpt>
					<trkpt lat="44.407160" lon="5.683910">
						<ele>783</ele>
						<time>2026-09-03T08:54:51Z</time>
					</trkpt>
					<trkpt lat="44.406970" lon="5.683820">
						<ele>785</ele>
						<time>2026-09-03T08:55:01Z</time>
					</trkpt>
					<trkpt lat="44.406770" lon="5.683640">
						<ele>783</ele>
						<time>2026-09-03T08:55:12Z</time>
					</trkpt>
					<trkpt lat="44.406000" lon="5.682550">
						<ele>772</ele>
						<time>2026-09-03T08:56:07Z</time>
					</trkpt>
					<trkpt lat="44.405840" lon="5.682150">
						<ele>770</ele>
						<time>2026-09-03T08:56:24Z</time>
					</trkpt>
					<trkpt lat="44.405830" lon="5.681940">
						<ele>767</ele>
						<time>2026-09-03T08:56:31Z</time>
					</trkpt>
					<trkpt lat="44.405720" lon="5.681500">
						<ele>766</ele>
						<time>2026-09-03T08:56:48Z</time>
					</trkpt>
					<trkpt lat="44.405730" lon="5.681460">
						<ele>766</ele>
						<time>2026-09-03T08:56:49Z</time>
					</trkpt>
					<trkpt lat="44.405790" lon="5.681470">
						<ele>764</ele>
						<time>2026-09-03T08:56:52Z</time>
					</trkpt>
					<trkpt lat="44.405970" lon="5.681790">
						<ele>763</ele>
						<time>2026-09-03T08:57:07Z</time>
					</trkpt>
					<trkpt lat="44.406100" lon="5.681950">
						<ele>763</ele>
						<time>2026-09-03T08:57:16Z</time>
					</trkpt>
					<trkpt lat="44.406400" lon="5.682200">
						<ele>760</ele>
						<time>2026-09-03T08:57:33Z</time>
					</trkpt>
					<trkpt lat="44.406600" lon="5.682230">
						<ele>756</ele>
						<time>2026-09-03T08:57:43Z</time>
					</trkpt>
					<trkpt lat="44.406820" lon="5.682140">
						<ele>755</ele>
						<time>2026-09-03T08:57:55Z</time>
					</trkpt>
					<trkpt lat="44.406720" lon="5.682040">
						<ele>755</ele>
						<time>2026-09-03T08:58:01Z</time>
					</trkpt>
					<trkpt lat="44.407110" lon="5.682380">
						<ele>753</ele>
						<time>2026-09-03T08:58:24Z</time>
					</trkpt>
					<trkpt lat="44.407580" lon="5.682550">
						<ele>749</ele>
						<time>2026-09-03T08:58:48Z</time>
					</trkpt>
					<trkpt lat="44.408230" lon="5.682700">
						<ele>747</ele>
						<time>2026-09-03T08:59:21Z</time>
					</trkpt>
					<trkpt lat="44.408370" lon="5.682770">
						<ele>746</ele>
						<time>2026-09-03T08:59:28Z</time>
					</trkpt>
					<trkpt lat="44.408590" lon="5.682950">
						<ele>746</ele>
						<time>2026-09-03T08:59:41Z</time>
					</trkpt>
					<trkpt lat="44.408790" lon="5.683010">
						<ele>745</ele>
						<time>2026-09-03T08:59:51Z</time>
					</trkpt>
					<trkpt lat="44.409140" lon="5.683000">
						<ele>744</ele>
						<time>2026-09-03T09:00:09Z</time>
					</trkpt>
					<trkpt lat="44.409280" lon="5.683030">
						<ele>744</ele>
						<time>2026-09-03T09:00:16Z</time>
					</trkpt>
					<trkpt lat="44.409350" lon="5.683060">
						<ele>744</ele>
						<time>2026-09-03T09:00:20Z</time>
					</trkpt>
					<trkpt lat="44.409780" lon="5.683580">
						<ele>739</ele>
						<time>2026-09-03T09:00:48Z</time>
					</trkpt>
					<trkpt lat="44.409940" lon="5.683680">
						<ele>738</ele>
						<time>2026-09-03T09:00:57Z</time>
					</trkpt>
					<trkpt lat="44.410110" lon="5.683680">
						<ele>737</ele>
						<time>2026-09-03T09:01:05Z</time>
					</trkpt>
					<trkpt lat="44.410660" lon="5.683610">
						<ele>734</ele>
						<time>2026-09-03T09:01:33Z</time>
					</trkpt>
					<trkpt lat="44.411120" lon="5.683510">
						<ele>732</ele>
						<time>2026-09-03T09:01:56Z</time>
					</trkpt>
					<trkpt lat="44.411390" lon="5.683390">
						<ele>730</ele>
						<time>2026-09-03T09:02:11Z</time>
					</trkpt>
					<trkpt lat="44.412130" lon="5.682820">
						<ele>735</ele>
						<time>2026-09-03T09:02:53Z</time>
					</trkpt>
					<trkpt lat="44.412310" lon="5.682730">
						<ele>734</ele>
						<time>2026-09-03T09:03:02Z</time>
					</trkpt>
					<trkpt lat="44.412730" lon="5.682250">
						<ele>741</ele>
						<time>2026-09-03T09:03:30Z</time>
					</trkpt>
					<trkpt lat="44.412830" lon="5.682170">
						<ele>742</ele>
						<time>2026-09-03T09:03:35Z</time>
					</trkpt>
					<trkpt lat="44.412950" lon="5.682120">
						<ele>741</ele>
						<time>2026-09-03T09:03:42Z</time>
					</trkpt>
					<trkpt lat="44.413210" lon="5.682070">
						<ele>736</ele>
						<time>2026-09-03T09:03:55Z</time>
					</trkpt>
					<trkpt lat="44.413940" lon="5.681700">
						<ele>727</ele>
						<time>2026-09-03T09:04:34Z</time>
					</trkpt>
					<trkpt lat="44.414160" lon="5.681270">
						<ele>724</ele>
						<time>2026-09-03T09:04:52Z</time>
					</trkpt>
					<trkpt lat="44.414280" lon="5.681180">
						<ele>728</ele>
						<time>2026-09-03T09:04:59Z</time>
					</trkpt>
					<trkpt lat="44.414510" lon="5.681060">
						<ele>735</ele>
						<time>2026-09-03T09:05:12Z</time>
					</trkpt>
					<trkpt lat="44.414620" lon="5.681070">
						<ele>738</ele>
						<time>2026-09-03T09:05:17Z</time>
					</trkpt>
					<trkpt lat="44.414490" lon="5.681940">
						<ele>728</ele>
						<time>2026-09-03T09:05:49Z</time>
					</trkpt>
					<trkpt lat="44.414530" lon="5.681980">
						<ele>728</ele>
						<time>2026-09-03T09:05:51Z</time>
					</trkpt>
					<trkpt lat="44.414830" lon="5.682740">
						<ele>726</ele>
						<time>2026-09-03T09:06:22Z</time>
					</trkpt>
					<trkpt lat="44.415150" lon="5.683270">
						<ele>730</ele>
						<time>2026-09-03T09:06:47Z</time>
					</trkpt>
					<trkpt lat="44.415200" lon="5.683430">
						<ele>730</ele>
						<time>2026-09-03T09:06:53Z</time>
					</trkpt>
					<trkpt lat="44.415150" lon="5.683770">
						<ele>726</ele>
						<time>2026-09-03T09:07:06Z</time>
					</trkpt>
					<trkpt lat="44.415080" lon="5.683950">
						<ele>723</ele>
						<time>2026-09-03T09:07:13Z</time>
					</trkpt>
					<trkpt lat="44.414990" lon="5.684050">
						<ele>720</ele>
						<time>2026-09-03T09:07:19Z</time>
					</trkpt>
					<trkpt lat="44.415170" lon="5.684640">
						<ele>721</ele>
						<time>2026-09-03T09:07:42Z</time>
					</trkpt>
					<trkpt lat="44.415810" lon="5.685860">
						<ele>719</ele>
						<time>2026-09-03T09:08:36Z</time>
					</trkpt>
					<trkpt lat="44.415910" lon="5.686080">
						<ele>721</ele>
						<time>2026-09-03T09:08:45Z</time>
					</trkpt>
					<trkpt lat="44.415970" lon="5.686280">
						<ele>721</ele>
						<time>2026-09-03T09:08:53Z</time>
					</trkpt>
					<trkpt lat="44.416030" lon="5.686680">
						<ele>718</ele>
						<time>2026-09-03T09:09:08Z</time>
					</trkpt>
					<trkpt lat="44.416080" lon="5.687550">
						<ele>715</ele>
						<time>2026-09-03T09:09:39Z</time>
					</trkpt>
					<trkpt lat="44.416130" lon="5.687780">
						<ele>715</ele>
						<time>2026-09-03T09:09:47Z</time>
					</trkpt>
					<trkpt lat="44.416260" lon="5.688170">
						<ele>714</ele>
						<time>2026-09-03T09:10:03Z</time>
					</trkpt>
					<trkpt lat="44.416390" lon="5.688350">
						<ele>715</ele>
						<time>2026-09-03T09:10:12Z</time>
					</trkpt>
					<trkpt lat="44.416490" lon="5.688630">
						<ele>715</ele>
						<time>2026-09-03T09:10:23Z</time>
					</trkpt>
					<trkpt lat="44.416560" lon="5.689010">
						<ele>714</ele>
						<time>2026-09-03T09:10:37Z</time>
					</trkpt>
					<trkpt lat="44.416560" lon="5.689320">
						<ele>712</ele>
						<time>2026-09-03T09:10:48Z</time>
					</trkpt>
					<trkpt lat="44.416680" lon="5.689890">
						<ele>711</ele>
						<time>2026-09-03T09:11:09Z</time>
					</trkpt>
					<trkpt lat="44.416730" lon="5.689930">
						<ele>713</ele>
						<time>2026-09-03T09:11:12Z</time>
					</trkpt>
					<trkpt lat="44.416820" lon="5.690150">
						<ele>716</ele>
						<time>2026-09-03T09:11:21Z</time>
					</trkpt>
					<trkpt lat="44.416950" lon="5.690270">
						<ele>720</ele>
						<time>2026-09-03T09:11:29Z</time>
					</trkpt>
					<trkpt lat="44.417120" lon="5.690290">
						<ele>726</ele>
						<time>2026-09-03T09:11:38Z</time>
					</trkpt>
					<trkpt lat="44.417270" lon="5.690210">
						<ele>731</ele>
						<time>2026-09-03T09:11:46Z</time>
					</trkpt>
					<trkpt lat="44.417270" lon="5.690330">
						<ele>732</ele>
						<time>2026-09-03T09:11:50Z</time>
					</trkpt>
					<trkpt lat="44.417300" lon="5.690340">
						<ele>733</ele>
						<time>2026-09-03T09:11:52Z</time>
					</trkpt>
					<trkpt lat="44.417390" lon="5.690270">
						<ele>736</ele>
						<time>2026-09-03T09:11:57Z</time>
					</trkpt>
					<trkpt lat="44.417580" lon="5.690320">
						<ele>742</ele>
						<time>2026-09-03T09:12:06Z</time>
					</trkpt>
					<trkpt lat="44.417760" lon="5.690480">
						<ele>747</ele>
						<time>2026-09-03T09:12:17Z</time>
					</trkpt>
					<trkpt lat="44.417790" lon="5.690550">
						<ele>748</ele>
						<time>2026-09-03T09:12:20Z</time>
					</trkpt>
					<trkpt lat="44.417680" lon="5.690620">
						<ele>745</ele>
						<time>2026-09-03T09:12:26Z</time>
					</trkpt>
					<trkpt lat="44.417680" lon="5.690670">
						<ele>745</ele>
						<time>2026-09-03T09:12:28Z</time>
					</trkpt>
					<trkpt lat="44.417810" lon="5.690700">
						<ele>748</ele>
						<time>2026-09-03T09:12:34Z</time>
					</trkpt>
					<trkpt lat="44.417790" lon="5.690750">
						<ele>748</ele>
						<time>2026-09-03T09:12:36Z</time>
					</trkpt>
					<trkpt lat="44.417550" lon="5.690910">
						<ele>742</ele>
						<time>2026-09-03T09:12:50Z</time>
					</trkpt>
					<trkpt lat="44.417500" lon="5.691060">
						<ele>743</ele>
						<time>2026-09-03T09:12:56Z</time>
					</trkpt>
					<trkpt lat="44.417540" lon="5.691290">
						<ele>747</ele>
						<time>2026-09-03T09:13:04Z</time>
					</trkpt>
					<trkpt lat="44.417850" lon="5.691520">
						<ele>760</ele>
						<time>2026-09-03T09:13:22Z</time>
					</trkpt>
					<trkpt lat="44.417960" lon="5.691550">
						<ele>764</ele>
						<time>2026-09-03T09:13:27Z</time>
					</trkpt>
					<trkpt lat="44.418080" lon="5.691550">
						<ele>768</ele>
						<time>2026-09-03T09:13:33Z</time>
					</trkpt>
					<trkpt lat="44.418400" lon="5.691700">
						<ele>779</ele>
						<time>2026-09-03T09:13:50Z</time>
					</trkpt>
					<trkpt lat="44.418870" lon="5.691640">
						<ele>789</ele>
						<time>2026-09-03T09:14:14Z</time>
					</trkpt>
					<trkpt lat="44.419120" lon="5.691750">
						<ele>793</ele>
						<time>2026-09-03T09:14:27Z</time>
					</trkpt>
					<trkpt lat="44.419230" lon="5.691770">
						<ele>796</ele>
						<time>2026-09-03T09:14:32Z</time>
					</trkpt>
					<trkpt lat="44.419380" lon="5.691790">
						<ele>800</ele>
						<time>2026-09-03T09:14:40Z</time>
					</trkpt>
					<trkpt lat="44.419430" lon="5.691770">
						<ele>802</ele>
						<time>2026-09-03T09:14:43Z</time>
					</trkpt>
					<trkpt lat="44.419690" lon="5.691780">
						<ele>810</ele>
						<time>2026-09-03T09:14:56Z</time>
					</trkpt>
					<trkpt lat="44.419920" lon="5.692000">
						<ele>812</ele>
						<time>2026-09-03T09:15:10Z</time>
					</trkpt>
					<trkpt lat="44.420100" lon="5.691950">
						<ele>818</ele>
						<time>2026-09-03T09:15:19Z</time>
					</trkpt>
					<trkpt lat="44.420210" lon="5.691960">
						<ele>820</ele>
						<time>2026-09-03T09:15:24Z</time>
					</trkpt>
					<trkpt lat="44.420470" lon="5.692040">
						<ele>823</ele>
						<time>2026-09-03T09:15:38Z</time>
					</trkpt>
					<trkpt lat="44.420600" lon="5.691990">
						<ele>827</ele>
						<time>2026-09-03T09:15:44Z</time>
					</trkpt>
					<trkpt lat="44.421220" lon="5.691510">
						<ele>840</ele>
						<time>2026-09-03T09:16:20Z</time>
					</trkpt>
					<trkpt lat="44.421480" lon="5.691090">
						<ele>844</ele>
						<time>2026-09-03T09:16:40Z</time>
					</trkpt>
					<trkpt lat="44.421920" lon="5.690510">
						<ele>850</ele>
						<time>2026-09-03T09:17:10Z</time>
					</trkpt>
					<trkpt lat="44.422290" lon="5.689950">
						<ele>861</ele>
						<time>2026-09-03T09:17:37Z</time>
					</trkpt>
					<trkpt lat="44.422650" lon="5.689730">
						<ele>868</ele>
						<time>2026-09-03T09:17:57Z</time>
					</trkpt>
					<trkpt lat="44.422900" lon="5.689030">
						<ele>884</ele>
						<time>2026-09-03T09:18:25Z</time>
					</trkpt>
					<trkpt lat="44.423360" lon="5.688770">
						<ele>897</ele>
						<time>2026-09-03T09:18:50Z</time>
					</trkpt>
					<trkpt lat="44.423770" lon="5.688400">
						<ele>908</ele>
						<time>2026-09-03T09:19:14Z</time>
					</trkpt>
					<trkpt lat="44.424070" lon="5.688250">
						<ele>914</ele>
						<time>2026-09-03T09:19:30Z</time>
					</trkpt>
					<trkpt lat="44.424470" lon="5.687900">
						<ele>927</ele>
						<time>2026-09-03T09:19:54Z</time>
					</trkpt>
					<trkpt lat="44.424950" lon="5.687780">
						<ele>930</ele>
						<time>2026-09-03T09:20:18Z</time>
					</trkpt>
					<trkpt lat="44.425020" lon="5.687640">
						<ele>935</ele>
						<time>2026-09-03T09:20:24Z</time>
					</trkpt>
					<trkpt lat="44.425510" lon="5.687170">
						<ele>948</ele>
						<time>2026-09-03T09:20:54Z</time>
					</trkpt>
					<trkpt lat="44.425550" lon="5.686940">
						<ele>955</ele>
						<time>2026-09-03T09:21:02Z</time>
					</trkpt>
					<trkpt lat="44.425970" lon="5.686570">
						<ele>965</ele>
						<time>2026-09-03T09:21:27Z</time>
					</trkpt>
					<trkpt lat="44.425960" lon="5.686500">
						<ele>968</ele>
						<time>2026-09-03T09:21:30Z</time>
					</trkpt>
					<trkpt lat="44.425810" lon="5.686490">
						<ele>969</ele>
						<time>2026-09-03T09:21:37Z</time>
					</trkpt>
					<trkpt lat="44.425730" lon="5.686420">
						<ele>972</ele>
						<time>2026-09-03T09:21:42Z</time>
					</trkpt>
					<trkpt lat="44.425960" lon="5.686320">
						<ele>974</ele>
						<time>2026-09-03T09:21:54Z</time>
					</trkpt>
					<trkpt lat="44.426770" lon="5.685470">
						<ele>999</ele>
						<time>2026-09-03T09:22:45Z</time>
					</trkpt>
					<trkpt lat="44.427000" lon="5.685280">
						<ele>1003</ele>
						<time>2026-09-03T09:22:58Z</time>
					</trkpt>
					<trkpt lat="44.427650" lon="5.684390">
						<ele>1023</ele>
						<time>2026-09-03T09:23:43Z</time>
					</trkpt>
					<trkpt lat="44.428030" lon="5.683700">
						<ele>1041</ele>
						<time>2026-09-03T09:24:15Z</time>
					</trkpt>
					<trkpt lat="44.428310" lon="5.683380">
						<ele>1047</ele>
						<time>2026-09-03T09:24:33Z</time>
					</trkpt>
					<trkpt lat="44.428710" lon="5.683070">
						<ele>1052</ele>
						<time>2026-09-03T09:24:56Z</time>
					</trkpt>
					<trkpt lat="44.429080" lon="5.682690">
						<ele>1057</ele>
						<time>2026-09-03T09:25:19Z</time>
					</trkpt>
					<trkpt lat="44.429180" lon="5.682530">
						<ele>1060</ele>
						<time>2026-09-03T09:25:26Z</time>
					</trkpt>
					<trkpt lat="44.431750" lon="5.679380">
						<ele>1130</ele>
						<time>2026-09-03T09:28:17Z</time>
					</trkpt>
					<trkpt lat="44.432500" lon="5.678280">
						<ele>1145</ele>
						<time>2026-09-03T09:29:11Z</time>
					</trkpt>
					<trkpt lat="44.433160" lon="5.677170">
						<ele>1166</ele>
						<time>2026-09-03T09:30:03Z</time>
					</trkpt>
					<trkpt lat="44.434240" lon="5.675460">
						<ele>1188</ele>
						<time>2026-09-03T09:31:25Z</time>
					</trkpt>
					<trkpt lat="44.434640" lon="5.674890">
						<ele>1196</ele>
						<time>2026-09-03T09:31:53Z</time>
					</trkpt>
					<trkpt lat="44.434830" lon="5.674780">
						<ele>1194</ele>
						<time>2026-09-03T09:32:03Z</time>
					</trkpt>
					<trkpt lat="44.435300" lon="5.674950">
						<ele>1203</ele>
						<time>2026-09-03T09:32:28Z</time>
					</trkpt>
					<trkpt lat="44.435620" lon="5.675220">
						<ele>1216</ele>
						<time>2026-09-03T09:32:46Z</time>
					</trkpt>
					<trkpt lat="44.436030" lon="5.676090">
						<ele>1241</ele>
						<time>2026-09-03T09:33:24Z</time>
					</trkpt>
					<trkpt lat="44.436110" lon="5.676520">
						<ele>1247</ele>
						<time>2026-09-03T09:33:40Z</time>
					</trkpt>
					<trkpt lat="44.436190" lon="5.677260">
						<ele>1256</ele>
						<time>2026-09-03T09:34:06Z</time>
					</trkpt>
					<trkpt lat="44.436380" lon="5.677100">
						<ele>1266</ele>
						<time>2026-09-03T09:34:17Z</time>
					</trkpt>
					<trkpt lat="44.436610" lon="5.677750">
						<ele>1283</ele>
						<time>2026-09-03T09:34:43Z</time>
					</trkpt>
					<trkpt lat="44.436890" lon="5.677240">
						<ele>1294</ele>
						<time>2026-09-03T09:35:06Z</time>
					</trkpt>
					<trkpt lat="44.437300" lon="5.678100">
						<ele>1320</ele>
						<time>2026-09-03T09:35:43Z</time>
					</trkpt>
					<trkpt lat="44.437300" lon="5.678240">
						<ele>1320</ele>
						<time>2026-09-03T09:35:48Z</time>
					</trkpt>
					<trkpt lat="44.437430" lon="5.678580">
						<ele>1330</ele>
						<time>2026-09-03T09:36:02Z</time>
					</trkpt>
					<trkpt lat="44.437580" lon="5.679200">
						<ele>1340</ele>
						<time>2026-09-03T09:36:25Z</time>
					</trkpt>
					<trkpt lat="44.437740" lon="5.679500">
						<ele>1343</ele>
						<time>2026-09-03T09:36:39Z</time>
					</trkpt>
					<trkpt lat="44.437880" lon="5.679860">
						<ele>1344</ele>
						<time>2026-09-03T09:36:53Z</time>
					</trkpt>
					<trkpt lat="44.437980" lon="5.680010">
						<ele>1344</ele>
						<time>2026-09-03T09:37:01Z</time>
					</trkpt>
					<trkpt lat="44.438150" lon="5.680040">
						<ele>1346</ele>
						<time>2026-09-03T09:37:09Z</time>
					</trkpt>
					<trkpt lat="44.438200" lon="5.679940">
						<ele>1347</ele>
						<time>2026-09-03T09:37:14Z</time>
					</trkpt>
					<trkpt lat="44.438280" lon="5.680020">
						<ele>1347</ele>
						<time>2026-09-03T09:37:19Z</time>
					</trkpt>
					<trkpt lat="44.438280" lon="5.680160">
						<ele>1344</ele>
						<time>2026-09-03T09:37:24Z</time>
					</trkpt>
					<trkpt lat="44.438190" lon="5.680240">
						<ele>1342</ele>
						<time>2026-09-03T09:37:29Z</time>
					</trkpt>
					<trkpt lat="44.438180" lon="5.680320">
						<ele>1340</ele>
						<time>2026-09-03T09:37:32Z</time>
					</trkpt>
					<trkpt lat="44.438220" lon="5.680370">
						<ele>1339</ele>
						<time>2026-09-03T09:37:35Z</time>
					</trkpt>
					<trkpt lat="44.438410" lon="5.680320">
						<ele>1337</ele>
						<time>2026-09-03T09:37:44Z</time>
					</trkpt>
					<trkpt lat="44.438540" lon="5.680250">
						<ele>1335</ele>
						<time>2026-09-03T09:37:51Z</time>
					</trkpt>
					<trkpt lat="44.438880" lon="5.680240">
						<ele>1324</ele>
						<time>2026-09-03T09:38:08Z</time>
					</trkpt>
					<trkpt lat="44.439050" lon="5.680140">
						<ele>1321</ele>
						<time>2026-09-03T09:38:17Z</time>
					</trkpt>
					<trkpt lat="44.439170" lon="5.680120">
						<ele>1317</ele>
						<time>2026-09-03T09:38:23Z</time>
					</trkpt>
					<trkpt lat="44.439220" lon="5.680250">
						<ele>1312</ele>
						<time>2026-09-03T09:38:29Z</time>
					</trkpt>
					<trkpt lat="44.439150" lon="5.680460">
						<ele>1308</ele>
						<time>2026-09-03T09:38:37Z</time>
					</trkpt>
					<trkpt lat="44.439120" lon="5.680720">
						<ele>1302</ele>
						<time>2026-09-03T09:38:46Z</time>
					</trkpt>
					<trkpt lat="44.439080" lon="5.680820">
						<ele>1300</ele>
						<time>2026-09-03T09:38:51Z</time>
					</trkpt>
					<trkpt lat="44.439050" lon="5.681030">
						<ele>1295</ele>
						<time>2026-09-03T09:38:58Z</time>
					</trkpt>
					<trkpt lat="44.438960" lon="5.681300">
						<ele>1289</ele>
						<time>2026-09-03T09:39:09Z</time>
					</trkpt>
					<trkpt lat="44.439080" lon="5.681280">
						<ele>1285</ele>
						<time>2026-09-03T09:39:15Z</time>
					</trkpt>
					<trkpt lat="44.439010" lon="5.681470">
						<ele>1281</ele>
						<time>2026-09-03T09:39:23Z</time>
					</trkpt>
					<trkpt lat="44.438950" lon="5.681550">
						<ele>1281</ele>
						<time>2026-09-03T09:39:27Z</time>
					</trkpt>
					<trkpt lat="44.438870" lon="5.681900">
						<ele>1273</ele>
						<time>2026-09-03T09:39:40Z</time>
					</trkpt>
					<trkpt lat="44.438870" lon="5.682160">
						<ele>1264</ele>
						<time>2026-09-03T09:39:49Z</time>
					</trkpt>
					<trkpt lat="44.439070" lon="5.682490">
						<ele>1247</ele>
						<time>2026-09-03T09:40:05Z</time>
					</trkpt>
					<trkpt lat="44.439150" lon="5.682540">
						<ele>1244</ele>
						<time>2026-09-03T09:40:09Z</time>
					</trkpt>
					<trkpt lat="44.439470" lon="5.682640">
						<ele>1233</ele>
						<time>2026-09-03T09:40:25Z</time>
					</trkpt>
					<trkpt lat="44.439710" lon="5.682470">
						<ele>1230</ele>
						<time>2026-09-03T09:40:39Z</time>
					</trkpt>
					<trkpt lat="44.440080" lon="5.682350">
						<ele>1223</ele>
						<time>2026-09-03T09:40:58Z</time>
					</trkpt>
					<trkpt lat="44.440170" lon="5.682340">
						<ele>1221</ele>
						<time>2026-09-03T09:41:02Z</time>
					</trkpt>
					<trkpt lat="44.440280" lon="5.682450">
						<ele>1216</ele>
						<time>2026-09-03T09:41:09Z</time>
					</trkpt>
					<trkpt lat="44.440340" lon="5.682690">
						<ele>1210</ele>
						<time>2026-09-03T09:41:18Z</time>
					</trkpt>
					<trkpt lat="44.440310" lon="5.682920">
						<ele>1207</ele>
						<time>2026-09-03T09:41:27Z</time>
					</trkpt>
					<trkpt lat="44.440340" lon="5.683090">
						<ele>1204</ele>
						<time>2026-09-03T09:41:33Z</time>
					</trkpt>
					<trkpt lat="44.440410" lon="5.683240">
						<ele>1201</ele>
						<time>2026-09-03T09:41:39Z</time>
					</trkpt>
					<trkpt lat="44.440540" lon="5.683650">
						<ele>1194</ele>
						<time>2026-09-03T09:41:55Z</time>
					</trkpt>
					<trkpt lat="44.440690" lon="5.683920">
						<ele>1188</ele>
						<time>2026-09-03T09:42:07Z</time>
					</trkpt>
					<trkpt lat="44.440750" lon="5.684130">
						<ele>1184</ele>
						<time>2026-09-03T09:42:16Z</time>
					</trkpt>
					<trkpt lat="44.440830" lon="5.684180">
						<ele>1182</ele>
						<time>2026-09-03T09:42:20Z</time>
					</trkpt>
					<trkpt lat="44.440850" lon="5.684290">
						<ele>1179</ele>
						<time>2026-09-03T09:42:24Z</time>
					</trkpt>
					<trkpt lat="44.440840" lon="5.684410">
						<ele>1177</ele>
						<time>2026-09-03T09:42:28Z</time>
					</trkpt>
					<trkpt lat="44.440740" lon="5.684720">
						<ele>1172</ele>
						<time>2026-09-03T09:42:40Z</time>
					</trkpt>
					<trkpt lat="44.440600" lon="5.684990">
						<ele>1169</ele>
						<time>2026-09-03T09:42:52Z</time>
					</trkpt>
					<trkpt lat="44.440590" lon="5.685100">
						<ele>1166</ele>
						<time>2026-09-03T09:42:56Z</time>
					</trkpt>
					<trkpt lat="44.440480" lon="5.685280">
						<ele>1163</ele>
						<time>2026-09-03T09:43:05Z</time>
					</trkpt>
					<trkpt lat="44.440400" lon="5.685470">
						<ele>1159</ele>
						<time>2026-09-03T09:43:13Z</time>
					</trkpt>
					<trkpt lat="44.440360" lon="5.685680">
						<ele>1153</ele>
						<time>2026-09-03T09:43:20Z</time>
					</trkpt>
					<trkpt lat="44.440430" lon="5.685740">
						<ele>1150</ele>
						<time>2026-09-03T09:43:25Z</time>
					</trkpt>
					<trkpt lat="44.440600" lon="5.685760">
						<ele>1147</ele>
						<time>2026-09-03T09:43:33Z</time>
					</trkpt>
					<trkpt lat="44.440740" lon="5.685810">
						<ele>1143</ele>
						<time>2026-09-03T09:43:40Z</time>
					</trkpt>
					<trkpt lat="44.441000" lon="5.686030">
						<ele>1133</ele>
						<time>2026-09-03T09:43:55Z</time>
					</trkpt>
					<trkpt lat="44.440910" lon="5.686150">
						<ele>1131</ele>
						<time>2026-09-03T09:44:02Z</time>
					</trkpt>
					<trkpt lat="44.440920" lon="5.686300">
						<ele>1128</ele>
						<time>2026-09-03T09:44:07Z</time>
					</trkpt>
					<trkpt lat="44.440880" lon="5.686380">
						<ele>1126</ele>
						<time>2026-09-03T09:44:11Z</time>
					</trkpt>
					<trkpt lat="44.440690" lon="5.686570">
						<ele>1124</ele>
						<time>2026-09-03T09:44:22Z</time>
					</trkpt>
					<trkpt lat="44.440510" lon="5.686840">
						<ele>1117</ele>
						<time>2026-09-03T09:44:35Z</time>
					</trkpt>
					<trkpt lat="44.440340" lon="5.687280">
						<ele>1104</ele>
						<time>2026-09-03T09:44:53Z</time>
					</trkpt>
					<trkpt lat="44.440140" lon="5.687470">
						<ele>1097</ele>
						<time>2026-09-03T09:45:05Z</time>
					</trkpt>
					<trkpt lat="44.440100" lon="5.687570">
						<ele>1095</ele>
						<time>2026-09-03T09:45:10Z</time>
					</trkpt>
					<trkpt lat="44.440100" lon="5.687670">
						<ele>1093</ele>
						<time>2026-09-03T09:45:13Z</time>
					</trkpt>
					<trkpt lat="44.439990" lon="5.687850">
						<ele>1089</ele>
						<time>2026-09-03T09:45:22Z</time>
					</trkpt>
					<trkpt lat="44.439870" lon="5.688140">
						<ele>1080</ele>
						<time>2026-09-03T09:45:34Z</time>
					</trkpt>
					<trkpt lat="44.439690" lon="5.688360">
						<ele>1072</ele>
						<time>2026-09-03T09:45:45Z</time>
					</trkpt>
					<trkpt lat="44.439510" lon="5.688730">
						<ele>1065</ele>
						<time>2026-09-03T09:46:01Z</time>
					</trkpt>
					<trkpt lat="44.439410" lon="5.689020">
						<ele>1062</ele>
						<time>2026-09-03T09:46:13Z</time>
					</trkpt>
					<trkpt lat="44.439280" lon="5.689670">
						<ele>1056</ele>
						<time>2026-09-03T09:46:37Z</time>
					</trkpt>
					<trkpt lat="44.439300" lon="5.689900">
						<ele>1054</ele>
						<time>2026-09-03T09:46:45Z</time>
					</trkpt>
					<trkpt lat="44.439410" lon="5.690060">
						<ele>1054</ele>
						<time>2026-09-03T09:46:53Z</time>
					</trkpt>
					<trkpt lat="44.439450" lon="5.690160">
						<ele>1054</ele>
						<time>2026-09-03T09:46:57Z</time>
					</trkpt>
					<trkpt lat="44.439460" lon="5.690380">
						<ele>1053</ele>
						<time>2026-09-03T09:47:05Z</time>
					</trkpt>
					<trkpt lat="44.439430" lon="5.690550">
						<ele>1051</ele>
						<time>2026-09-03T09:47:12Z</time>
					</trkpt>
					<trkpt lat="44.439310" lon="5.690840">
						<ele>1048</ele>
						<time>2026-09-03T09:47:24Z</time>
					</trkpt>
					<trkpt lat="44.439290" lon="5.691060">
						<ele>1048</ele>
						<time>2026-09-03T09:47:31Z</time>
					</trkpt>
					<trkpt lat="44.439220" lon="5.691270">
						<ele>1047</ele>
						<time>2026-09-03T09:47:40Z</time>
					</trkpt>
					<trkpt lat="44.439150" lon="5.691400">
						<ele>1046</ele>
						<time>2026-09-03T09:47:46Z</time>
					</trkpt>
					<trkpt lat="44.439070" lon="5.691450">
						<ele>1044</ele>
						<time>2026-09-03T09:47:50Z</time>
					</trkpt>
					<trkpt lat="44.438990" lon="5.691720">
						<ele>1041</ele>
						<time>2026-09-03T09:48:00Z</time>
					</trkpt>
					<trkpt lat="44.438960" lon="5.691960">
						<ele>1040</ele>
						<time>2026-09-03T09:48:09Z</time>
					</trkpt>
					<trkpt lat="44.438840" lon="5.692260">
						<ele>1037</ele>
						<time>2026-09-03T09:48:21Z</time>
					</trkpt>
					<trkpt lat="44.438540" lon="5.692780">
						<ele>1032</ele>
						<time>2026-09-03T09:48:45Z</time>
					</trkpt>
					<trkpt lat="44.438190" lon="5.693150">
						<ele>1026</ele>
						<time>2026-09-03T09:49:07Z</time>
					</trkpt>
					<trkpt lat="44.438040" lon="5.693410">
						<ele>1023</ele>
						<time>2026-09-03T09:49:19Z</time>
					</trkpt>
					<trkpt lat="44.437910" lon="5.693820">
						<ele>1022</ele>
						<time>2026-09-03T09:49:35Z</time>
					</trkpt>
					<trkpt lat="44.437860" lon="5.693870">
						<ele>1022</ele>
						<time>2026-09-03T09:49:38Z</time>
					</trkpt>
					<trkpt lat="44.437820" lon="5.693800">
						<ele>1021</ele>
						<time>2026-09-03T09:49:41Z</time>
					</trkpt>
					<trkpt lat="44.437860" lon="5.693890">
						<ele>1022</ele>
						<time>2026-09-03T09:49:45Z</time>
					</trkpt>
					<trkpt lat="44.437920" lon="5.693940">
						<ele>1023</ele>
						<time>2026-09-03T09:49:49Z</time>
					</trkpt>
					<trkpt lat="44.438380" lon="5.693650">
						<ele>1029</ele>
						<time>2026-09-03T09:50:14Z</time>
					</trkpt>
					<trkpt lat="44.438520" lon="5.693630">
						<ele>1028</ele>
						<time>2026-09-03T09:50:21Z</time>
					</trkpt>
					<trkpt lat="44.438790" lon="5.693660">
						<ele>1027</ele>
						<time>2026-09-03T09:50:35Z</time>
					</trkpt>
					<trkpt lat="44.439110" lon="5.693500">
						<ele>1029</ele>
						<time>2026-09-03T09:50:52Z</time>
					</trkpt>
					<trkpt lat="44.439890" lon="5.693170">
						<ele>1024</ele>
						<time>2026-09-03T09:51:32Z</time>
					</trkpt>
					<trkpt lat="44.440520" lon="5.692940">
						<ele>1019</ele>
						<time>2026-09-03T09:52:05Z</time>
					</trkpt>
					<trkpt lat="44.440780" lon="5.692820">
						<ele>1018</ele>
						<time>2026-09-03T09:52:19Z</time>
					</trkpt>
					<trkpt lat="44.441210" lon="5.692480">
						<ele>1016</ele>
						<time>2026-09-03T09:52:43Z</time>
					</trkpt>
					<trkpt lat="44.441570" lon="5.692060">
						<ele>1016</ele>
						<time>2026-09-03T09:53:07Z</time>
					</trkpt>
					<trkpt lat="44.441940" lon="5.691850">
						<ele>1011</ele>
						<time>2026-09-03T09:53:27Z</time>
					</trkpt>
					<trkpt lat="44.442660" lon="5.691080">
						<ele>1003</ele>
						<time>2026-09-03T09:54:12Z</time>
					</trkpt>
					<trkpt lat="44.442940" lon="5.690740">
						<ele>999</ele>
						<time>2026-09-03T09:54:31Z</time>
					</trkpt>
					<trkpt lat="44.442930" lon="5.690600">
						<ele>1001</ele>
						<time>2026-09-03T09:54:36Z</time>
					</trkpt>
					<trkpt lat="44.443020" lon="5.690320">
						<ele>1003</ele>
						<time>2026-09-03T09:54:47Z</time>
					</trkpt>
					<trkpt lat="44.443070" lon="5.690270">
						<ele>1003</ele>
						<time>2026-09-03T09:54:50Z</time>
					</trkpt>
					<trkpt lat="44.443360" lon="5.690160">
						<ele>995</ele>
						<time>2026-09-03T09:55:05Z</time>
					</trkpt>
					<trkpt lat="44.443650" lon="5.689930">
						<ele>990</ele>
						<time>2026-09-03T09:55:21Z</time>
					</trkpt>
					<trkpt lat="44.443830" lon="5.689760">
						<ele>987</ele>
						<time>2026-09-03T09:55:32Z</time>
					</trkpt>
					<trkpt lat="44.444130" lon="5.689380">
						<ele>986</ele>
						<time>2026-09-03T09:55:53Z</time>
					</trkpt>
					<trkpt lat="44.444370" lon="5.688920">
						<ele>988</ele>
						<time>2026-09-03T09:56:13Z</time>
					</trkpt>
					<trkpt lat="44.444580" lon="5.688660">
						<ele>985</ele>
						<time>2026-09-03T09:56:27Z</time>
					</trkpt>
					<trkpt lat="44.444790" lon="5.688310">
						<ele>985</ele>
						<time>2026-09-03T09:56:43Z</time>
					</trkpt>
					<trkpt lat="44.445050" lon="5.687800">
						<ele>982</ele>
						<time>2026-09-03T09:57:06Z</time>
					</trkpt>
					<trkpt lat="44.445140" lon="5.687690">
						<ele>980</ele>
						<time>2026-09-03T09:57:12Z</time>
					</trkpt>
					<trkpt lat="44.445260" lon="5.687420">
						<ele>977</ele>
						<time>2026-09-03T09:57:23Z</time>
					</trkpt>
					<trkpt lat="44.445320" lon="5.687100">
						<ele>974</ele>
						<time>2026-09-03T09:57:35Z</time>
					</trkpt>
					<trkpt lat="44.445320" lon="5.686570">
						<ele>976</ele>
						<time>2026-09-03T09:57:54Z</time>
					</trkpt>
					<trkpt lat="44.445350" lon="5.686060">
						<ele>976</ele>
						<time>2026-09-03T09:58:12Z</time>
					</trkpt>
					<trkpt lat="44.445330" lon="5.685840">
						<ele>977</ele>
						<time>2026-09-03T09:58:20Z</time>
					</trkpt>
					<trkpt lat="44.445360" lon="5.685680">
						<ele>978</ele>
						<time>2026-09-03T09:58:26Z</time>
					</trkpt>
					<trkpt lat="44.445390" lon="5.685640">
						<ele>977</ele>
						<time>2026-09-03T09:58:28Z</time>
					</trkpt>
					<trkpt lat="44.445510" lon="5.685620">
						<ele>973</ele>
						<time>2026-09-03T09:58:34Z</time>
					</trkpt>
					<trkpt lat="44.445690" lon="5.685530">
						<ele>967</ele>
						<time>2026-09-03T09:58:44Z</time>
					</trkpt>
					<trkpt lat="44.446090" lon="5.685520">
						<ele>957</ele>
						<time>2026-09-03T09:59:04Z</time>
					</trkpt>
					<trkpt lat="44.446470" lon="5.685450">
						<ele>952</ele>
						<time>2026-09-03T09:59:23Z</time>
					</trkpt>
					<trkpt lat="44.446600" lon="5.685380">
						<ele>951</ele>
						<time>2026-09-03T09:59:30Z</time>
					</trkpt>
					<trkpt lat="44.447280" lon="5.684880">
						<ele>940</ele>
						<time>2026-09-03T10:00:08Z</time>
					</trkpt>
					<trkpt lat="44.447420" lon="5.684720">
						<ele>938</ele>
						<time>2026-09-03T10:00:17Z</time>
					</trkpt>
					<trkpt lat="44.447580" lon="5.684460">
						<ele>937</ele>
						<time>2026-09-03T10:00:29Z</time>
					</trkpt>
					<trkpt lat="44.447680" lon="5.684240">
						<ele>937</ele>
						<time>2026-09-03T10:00:39Z</time>
					</trkpt>
					<trkpt lat="44.447820" lon="5.684080">
						<ele>935</ele>
						<time>2026-09-03T10:00:48Z</time>
					</trkpt>
					<trkpt lat="44.447970" lon="5.684110">
						<ele>931</ele>
						<time>2026-09-03T10:00:55Z</time>
					</trkpt>
					<trkpt lat="44.448030" lon="5.684100">
						<ele>929</ele>
						<time>2026-09-03T10:00:58Z</time>
					</trkpt>
					<trkpt lat="44.448130" lon="5.684160">
						<ele>925</ele>
						<time>2026-09-03T10:01:04Z</time>
					</trkpt>
					<trkpt lat="44.448210" lon="5.684140">
						<ele>923</ele>
						<time>2026-09-03T10:01:08Z</time>
					</trkpt>
					<trkpt lat="44.448340" lon="5.684010">
						<ele>921</ele>
						<time>2026-09-03T10:01:16Z</time>
					</trkpt>
					<trkpt lat="44.448540" lon="5.683650">
						<ele>923</ele>
						<time>2026-09-03T10:01:32Z</time>
					</trkpt>
					<trkpt lat="44.448610" lon="5.683620">
						<ele>922</ele>
						<time>2026-09-03T10:01:36Z</time>
					</trkpt>
					<trkpt lat="44.448810" lon="5.683630">
						<ele>917</ele>
						<time>2026-09-03T10:01:46Z</time>
					</trkpt>
					<trkpt lat="44.448850" lon="5.683670">
						<ele>916</ele>
						<time>2026-09-03T10:01:48Z</time>
					</trkpt>
					<trkpt lat="44.448910" lon="5.683870">
						<ele>912</ele>
						<time>2026-09-03T10:01:56Z</time>
					</trkpt>
					<trkpt lat="44.449110" lon="5.684130">
						<ele>905</ele>
						<time>2026-09-03T10:02:10Z</time>
					</trkpt>
					<trkpt lat="44.449750" lon="5.684480">
						<ele>903</ele>
						<time>2026-09-03T10:02:44Z</time>
					</trkpt>
					<trkpt lat="44.449810" lon="5.684560">
						<ele>903</ele>
						<time>2026-09-03T10:02:48Z</time>
					</trkpt>
					<trkpt lat="44.450060" lon="5.685410">
						<ele>900</ele>
						<time>2026-09-03T10:03:21Z</time>
					</trkpt>
					<trkpt lat="44.450030" lon="5.685590">
						<ele>899</ele>
						<time>2026-09-03T10:03:28Z</time>
					</trkpt>
					<trkpt lat="44.449920" lon="5.685610">
						<ele>898</ele>
						<time>2026-09-03T10:03:33Z</time>
					</trkpt>
					<trkpt lat="44.449890" lon="5.685690">
						<ele>897</ele>
						<time>2026-09-03T10:03:37Z</time>
					</trkpt>
					<trkpt lat="44.449920" lon="5.685980">
						<ele>896</ele>
						<time>2026-09-03T10:03:47Z</time>
					</trkpt>
					<trkpt lat="44.449910" lon="5.686170">
						<ele>894</ele>
						<time>2026-09-03T10:03:54Z</time>
					</trkpt>
					<trkpt lat="44.450000" lon="5.686290">
						<ele>895</ele>
						<time>2026-09-03T10:04:00Z</time>
					</trkpt>
					<trkpt lat="44.450120" lon="5.686300">
						<ele>898</ele>
						<time>2026-09-03T10:04:06Z</time>
					</trkpt>
					<trkpt lat="44.450160" lon="5.686340">
						<ele>899</ele>
						<time>2026-09-03T10:04:08Z</time>
					</trkpt>
					<trkpt lat="44.450200" lon="5.686420">
						<ele>899</ele>
						<time>2026-09-03T10:04:12Z</time>
					</trkpt>
					<trkpt lat="44.450210" lon="5.686540">
						<ele>899</ele>
						<time>2026-09-03T10:04:16Z</time>
					</trkpt>
					<trkpt lat="44.450160" lon="5.686770">
						<ele>897</ele>
						<time>2026-09-03T10:04:25Z</time>
					</trkpt>
					<trkpt lat="44.449730" lon="5.687620">
						<ele>883</ele>
						<time>2026-09-03T10:05:02Z</time>
					</trkpt>
					<trkpt lat="44.449650" lon="5.687850">
						<ele>881</ele>
						<time>2026-09-03T10:05:11Z</time>
					</trkpt>
					<trkpt lat="44.449560" lon="5.688220">
						<ele>879</ele>
						<time>2026-09-03T10:05:25Z</time>
					</trkpt>
					<trkpt lat="44.449570" lon="5.688680">
						<ele>878</ele>
						<time>2026-09-03T10:05:42Z</time>
					</trkpt>
					<trkpt lat="44.449300" lon="5.689270">
						<ele>864</ele>
						<time>2026-09-03T10:06:07Z</time>
					</trkpt>
					<trkpt lat="44.449270" lon="5.689400">
						<ele>862</ele>
						<time>2026-09-03T10:06:12Z</time>
					</trkpt>
					<trkpt lat="44.449270" lon="5.689640">
						<ele>859</ele>
						<time>2026-09-03T10:06:20Z</time>
					</trkpt>
					<trkpt lat="44.449240" lon="5.689820">
						<ele>856</ele>
						<time>2026-09-03T10:06:27Z</time>
					</trkpt>
					<trkpt lat="44.449300" lon="5.689880">
						<ele>858</ele>
						<time>2026-09-03T10:06:30Z</time>
					</trkpt>
					<trkpt lat="44.449510" lon="5.689910">
						<ele>865</ele>
						<time>2026-09-03T10:06:41Z</time>
					</trkpt>
					<trkpt lat="44.449670" lon="5.690050">
						<ele>869</ele>
						<time>2026-09-03T10:06:50Z</time>
					</trkpt>
					<trkpt lat="44.449770" lon="5.690270">
						<ele>871</ele>
						<time>2026-09-03T10:07:00Z</time>
					</trkpt>
					<trkpt lat="44.449780" lon="5.690420">
						<ele>870</ele>
						<time>2026-09-03T10:07:05Z</time>
					</trkpt>
					<trkpt lat="44.449760" lon="5.690540">
						<ele>869</ele>
						<time>2026-09-03T10:07:10Z</time>
					</trkpt>
					<trkpt lat="44.449590" lon="5.691040">
						<ele>860</ele>
						<time>2026-09-03T10:07:29Z</time>
					</trkpt>
					<trkpt lat="44.449340" lon="5.691550">
						<ele>848</ele>
						<time>2026-09-03T10:07:51Z</time>
					</trkpt>
					<trkpt lat="44.449180" lon="5.692100">
						<ele>843</ele>
						<time>2026-09-03T10:08:13Z</time>
					</trkpt>
					<trkpt lat="44.448860" lon="5.692990">
						<ele>829</ele>
						<time>2026-09-03T10:08:48Z</time>
					</trkpt>
					<trkpt lat="44.448530" lon="5.694040">
						<ele>810</ele>
						<time>2026-09-03T10:09:29Z</time>
					</trkpt>
					<trkpt lat="44.448480" lon="5.694310">
						<ele>808</ele>
						<time>2026-09-03T10:09:39Z</time>
					</trkpt>
					<trkpt lat="44.448410" lon="5.694460">
						<ele>807</ele>
						<time>2026-09-03T10:09:46Z</time>
					</trkpt>
					<trkpt lat="44.448270" lon="5.694660">
						<ele>805</ele>
						<time>2026-09-03T10:09:56Z</time>
					</trkpt>
					<trkpt lat="44.448110" lon="5.694800">
						<ele>800</ele>
						<time>2026-09-03T10:10:05Z</time>
					</trkpt>
					<trkpt lat="44.448040" lon="5.694900">
						<ele>798</ele>
						<time>2026-09-03T10:10:10Z</time>
					</trkpt>
					<trkpt lat="44.447930" lon="5.695240">
						<ele>789</ele>
						<time>2026-09-03T10:10:23Z</time>
					</trkpt>
					<trkpt lat="44.447930" lon="5.695290">
						<ele>788</ele>
						<time>2026-09-03T10:10:25Z</time>
					</trkpt>
					<trkpt lat="44.447980" lon="5.695350">
						<ele>789</ele>
						<time>2026-09-03T10:10:28Z</time>
					</trkpt>
					<trkpt lat="44.448100" lon="5.695440">
						<ele>790</ele>
						<time>2026-09-03T10:10:35Z</time>
					</trkpt>
					<trkpt lat="44.448170" lon="5.695450">
						<ele>791</ele>
						<time>2026-09-03T10:10:39Z</time>
					</trkpt>
					<trkpt lat="44.448230" lon="5.695420">
						<ele>793</ele>
						<time>2026-09-03T10:10:42Z</time>
					</trkpt>
					<trkpt lat="44.448380" lon="5.695190">
						<ele>801</ele>
						<time>2026-09-03T10:10:53Z</time>
					</trkpt>
					<trkpt lat="44.448840" lon="5.694680">
						<ele>800</ele>
						<time>2026-09-03T10:11:22Z</time>
					</trkpt>
					<trkpt lat="44.449120" lon="5.694420">
						<ele>804</ele>
						<time>2026-09-03T10:11:39Z</time>
					</trkpt>
					<trkpt lat="44.449450" lon="5.694210">
						<ele>802</ele>
						<time>2026-09-03T10:11:57Z</time>
					</trkpt>
					<trkpt lat="44.450320" lon="5.693850">
						<ele>789</ele>
						<time>2026-09-03T10:12:43Z</time>
					</trkpt>
					<trkpt lat="44.450970" lon="5.693430">
						<ele>784</ele>
						<time>2026-09-03T10:13:19Z</time>
					</trkpt>
					<trkpt lat="44.451860" lon="5.693010">
						<ele>774</ele>
						<time>2026-09-03T10:14:06Z</time>
					</trkpt>
					<trkpt lat="44.451930" lon="5.692940">
						<ele>776</ele>
						<time>2026-09-03T10:14:10Z</time>
					</trkpt>
					<trkpt lat="44.452180" lon="5.692940">
						<ele>770</ele>
						<time>2026-09-03T10:14:22Z</time>
					</trkpt>
					<trkpt lat="44.452620" lon="5.692860">
						<ele>763</ele>
						<time>2026-09-03T10:14:45Z</time>
					</trkpt>
					<trkpt lat="44.452820" lon="5.692750">
						<ele>760</ele>
						<time>2026-09-03T10:14:55Z</time>
					</trkpt>
					<trkpt lat="44.452960" lon="5.692600">
						<ele>761</ele>
						<time>2026-09-03T10:15:04Z</time>
					</trkpt>
					<trkpt lat="44.453210" lon="5.692500">
						<ele>753</ele>
						<time>2026-09-03T10:15:17Z</time>
					</trkpt>
					<trkpt lat="44.453530" lon="5.692150">
						<ele>756</ele>
						<time>2026-09-03T10:15:38Z</time>
					</trkpt>
					<trkpt lat="44.453780" lon="5.691790">
						<ele>758</ele>
						<time>2026-09-03T10:15:55Z</time>
					</trkpt>
					<trkpt lat="44.453960" lon="5.691670">
						<ele>753</ele>
						<time>2026-09-03T10:16:05Z</time>
					</trkpt>
					<trkpt lat="44.454100" lon="5.691470">
						<ele>753</ele>
						<time>2026-09-03T10:16:15Z</time>
					</trkpt>
					<trkpt lat="44.454160" lon="5.691430">
						<ele>752</ele>
						<time>2026-09-03T10:16:19Z</time>
					</trkpt>
					<trkpt lat="44.454190" lon="5.691470">
						<ele>750</ele>
						<time>2026-09-03T10:16:21Z</time>
					</trkpt>
					<trkpt lat="44.454180" lon="5.691540">
						<ele>748</ele>
						<time>2026-09-03T10:16:23Z</time>
					</trkpt>
					<trkpt lat="44.454010" lon="5.692030">
						<ele>743</ele>
						<time>2026-09-03T10:16:43Z</time>
					</trkpt>
					<trkpt lat="44.453800" lon="5.692520">
						<ele>736</ele>
						<time>2026-09-03T10:17:03Z</time>
					</trkpt>
					<trkpt lat="44.453710" lon="5.692680">
						<ele>736</ele>
						<time>2026-09-03T10:17:11Z</time>
					</trkpt>
					<trkpt lat="44.453480" lon="5.692900">
						<ele>735</ele>
						<time>2026-09-03T10:17:24Z</time>
					</trkpt>
					<trkpt lat="44.453460" lon="5.692970">
						<ele>733</ele>
						<time>2026-09-03T10:17:27Z</time>
					</trkpt>
					<trkpt lat="44.453480" lon="5.693000">
						<ele>732</ele>
						<time>2026-09-03T10:17:29Z</time>
					</trkpt>
					<trkpt lat="44.453570" lon="5.693010">
						<ele>731</ele>
						<time>2026-09-03T10:17:33Z</time>
					</trkpt>
					<trkpt lat="44.453840" lon="5.692870">
						<ele>731</ele>
						<time>2026-09-03T10:17:48Z</time>
					</trkpt>
					<trkpt lat="44.453930" lon="5.692860">
						<ele>729</ele>
						<time>2026-09-03T10:17:52Z</time>
					</trkpt>
					<trkpt lat="44.454140" lon="5.692780">
						<ele>727</ele>
						<time>2026-09-03T10:18:03Z</time>
					</trkpt>
					<trkpt lat="44.454210" lon="5.692800">
						<ele>727</ele>
						<time>2026-09-03T10:18:07Z</time>
					</trkpt>
					<trkpt lat="44.454330" lon="5.692910">
						<ele>729</ele>
						<time>2026-09-03T10:18:14Z</time>
					</trkpt>
					<trkpt lat="44.454380" lon="5.692900">
						<ele>730</ele>
						<time>2026-09-03T10:18:16Z</time>
					</trkpt>
					<trkpt lat="44.454420" lon="5.692820">
						<ele>731</ele>
						<time>2026-09-03T10:18:20Z</time>
					</trkpt>
					<trkpt lat="44.454510" lon="5.692140">
						<ele>736</ele>
						<time>2026-09-03T10:18:44Z</time>
					</trkpt>
					<trkpt lat="44.454540" lon="5.692070">
						<ele>737</ele>
						<time>2026-09-03T10:18:47Z</time>
					</trkpt>
					<trkpt lat="44.454800" lon="5.691770">
						<ele>737</ele>
						<time>2026-09-03T10:19:04Z</time>
					</trkpt>
					<trkpt lat="44.454960" lon="5.691640">
						<ele>736</ele>
						<time>2026-09-03T10:19:13Z</time>
					</trkpt>
					<trkpt lat="44.455180" lon="5.690810">
						<ele>744</ele>
						<time>2026-09-03T10:19:45Z</time>
					</trkpt>
					<trkpt lat="44.455370" lon="5.690460">
						<ele>749</ele>
						<time>2026-09-03T10:20:01Z</time>
					</trkpt>
					<trkpt lat="44.455600" lon="5.689270">
						<ele>747</ele>
						<time>2026-09-03T10:20:45Z</time>
					</trkpt>
					<trkpt lat="44.455560" lon="5.688530">
						<ele>751</ele>
						<time>2026-09-03T10:21:11Z</time>
					</trkpt>
					<trkpt lat="44.455650" lon="5.687980">
						<ele>754</ele>
						<time>2026-09-03T10:21:32Z</time>
					</trkpt>
					<trkpt lat="44.455630" lon="5.687730">
						<ele>757</ele>
						<time>2026-09-03T10:21:40Z</time>
					</trkpt>
					<trkpt lat="44.455460" lon="5.687170">
						<ele>763</ele>
						<time>2026-09-03T10:22:02Z</time>
					</trkpt>
					<trkpt lat="44.455460" lon="5.687110">
						<ele>763</ele>
						<time>2026-09-03T10:22:04Z</time>
					</trkpt>
					<trkpt lat="44.455480" lon="5.687000">
						<ele>764</ele>
						<time>2026-09-03T10:22:08Z</time>
					</trkpt>
					<trkpt lat="44.455650" lon="5.686680">
						<ele>764</ele>
						<time>2026-09-03T10:22:23Z</time>
					</trkpt>
					<trkpt lat="44.455690" lon="5.686420">
						<ele>765</ele>
						<time>2026-09-03T10:22:32Z</time>
					</trkpt>
					<trkpt lat="44.455670" lon="5.686000">
						<ele>768</ele>
						<time>2026-09-03T10:22:47Z</time>
					</trkpt>
					<trkpt lat="44.455450" lon="5.685540">
						<ele>772</ele>
						<time>2026-09-03T10:23:07Z</time>
					</trkpt>
					<trkpt lat="44.455440" lon="5.685290">
						<ele>773</ele>
						<time>2026-09-03T10:23:16Z</time>
					</trkpt>
					<trkpt lat="44.455490" lon="5.685050">
						<ele>774</ele>
						<time>2026-09-03T10:23:25Z</time>
					</trkpt>
					<trkpt lat="44.455840" lon="5.684350">
						<ele>768</ele>
						<time>2026-09-03T10:23:55Z</time>
					</trkpt>
					<trkpt lat="44.455940" lon="5.684030">
						<ele>772</ele>
						<time>2026-09-03T10:24:08Z</time>
					</trkpt>
					<trkpt lat="44.456410" lon="5.683290">
						<ele>782</ele>
						<time>2026-09-03T10:24:43Z</time>
					</trkpt>
					<trkpt lat="44.456540" lon="5.682990">
						<ele>782</ele>
						<time>2026-09-03T10:24:56Z</time>
					</trkpt>
					<trkpt lat="44.456680" lon="5.682760">
						<ele>779</ele>
						<time>2026-09-03T10:25:07Z</time>
					</trkpt>
					<trkpt lat="44.456760" lon="5.682550">
						<ele>781</ele>
						<time>2026-09-03T10:25:15Z</time>
					</trkpt>
					<trkpt lat="44.456870" lon="5.681800">
						<ele>789</ele>
						<time>2026-09-03T10:25:42Z</time>
					</trkpt>
					<trkpt lat="44.457030" lon="5.681120">
						<ele>793</ele>
						<time>2026-09-03T10:26:08Z</time>
					</trkpt>
					<trkpt lat="44.457030" lon="5.680820">
						<ele>793</ele>
						<time>2026-09-03T10:26:19Z</time>
					</trkpt>
					<trkpt lat="44.457000" lon="5.680480">
						<ele>793</ele>
						<time>2026-09-03T10:26:31Z</time>
					</trkpt>
					<trkpt lat="44.456800" lon="5.679910">
						<ele>789</ele>
						<time>2026-09-03T10:26:54Z</time>
					</trkpt>
					<trkpt lat="44.456710" lon="5.679520">
						<ele>789</ele>
						<time>2026-09-03T10:27:08Z</time>
					</trkpt>
					<trkpt lat="44.456610" lon="5.679240">
						<ele>792</ele>
						<time>2026-09-03T10:27:19Z</time>
					</trkpt>
					<trkpt lat="44.456580" lon="5.678810">
						<ele>795</ele>
						<time>2026-09-03T10:27:35Z</time>
					</trkpt>
					<trkpt lat="44.456630" lon="5.678630">
						<ele>794</ele>
						<time>2026-09-03T10:27:42Z</time>
					</trkpt>
					<trkpt lat="44.456910" lon="5.678340">
						<ele>801</ele>
						<time>2026-09-03T10:27:59Z</time>
					</trkpt>
					<trkpt lat="44.457040" lon="5.677940">
						<ele>808</ele>
						<time>2026-09-03T10:28:15Z</time>
					</trkpt>
					<trkpt lat="44.457140" lon="5.677710">
						<ele>811</ele>
						<time>2026-09-03T10:28:25Z</time>
					</trkpt>
					<trkpt lat="44.457250" lon="5.677310">
						<ele>813</ele>
						<time>2026-09-03T10:28:40Z</time>
					</trkpt>
					<trkpt lat="44.457400" lon="5.677030">
						<ele>813</ele>
						<time>2026-09-03T10:28:52Z</time>
					</trkpt>
					<trkpt lat="44.457570" lon="5.676210">
						<ele>813</ele>
						<time>2026-09-03T10:29:23Z</time>
					</trkpt>
					<trkpt lat="44.457690" lon="5.675840">
						<ele>818</ele>
						<time>2026-09-03T10:29:37Z</time>
					</trkpt>
					<trkpt lat="44.457760" lon="5.675530">
						<ele>821</ele>
						<time>2026-09-03T10:29:49Z</time>
					</trkpt>
					<trkpt lat="44.457790" lon="5.675230">
						<ele>823</ele>
						<time>2026-09-03T10:30:00Z</time>
					</trkpt>
					<trkpt lat="44.457720" lon="5.674760">
						<ele>823</ele>
						<time>2026-09-03T10:30:17Z</time>
					</trkpt>
					<trkpt lat="44.457800" lon="5.674390">
						<ele>829</ele>
						<time>2026-09-03T10:30:31Z</time>
					</trkpt>
					<trkpt lat="44.457810" lon="5.674040">
						<ele>832</ele>
						<time>2026-09-03T10:30:43Z</time>
					</trkpt>
					<trkpt lat="44.457770" lon="5.673890">
						<ele>831</ele>
						<time>2026-09-03T10:30:49Z</time>
					</trkpt>
					<trkpt lat="44.457380" lon="5.673080">
						<ele>831</ele>
						<time>2026-09-03T10:31:24Z</time>
					</trkpt>
					<trkpt lat="44.457370" lon="5.673020">
						<ele>832</ele>
						<time>2026-09-03T10:31:26Z</time>
					</trkpt>
					<trkpt lat="44.457380" lon="5.672860">
						<ele>833</ele>
						<time>2026-09-03T10:31:32Z</time>
					</trkpt>
					<trkpt lat="44.457490" lon="5.672510">
						<ele>831</ele>
						<time>2026-09-03T10:31:46Z</time>
					</trkpt>
					<trkpt lat="44.457540" lon="5.672220">
						<ele>835</ele>
						<time>2026-09-03T10:31:56Z</time>
					</trkpt>
					<trkpt lat="44.457520" lon="5.672020">
						<ele>835</ele>
						<time>2026-09-03T10:32:03Z</time>
					</trkpt>
					<trkpt lat="44.457330" lon="5.671470">
						<ele>844</ele>
						<time>2026-09-03T10:32:25Z</time>
					</trkpt>
					<trkpt lat="44.457330" lon="5.671370">
						<ele>844</ele>
						<time>2026-09-03T10:32:29Z</time>
					</trkpt>
					<trkpt lat="44.457450" lon="5.670940">
						<ele>843</ele>
						<time>2026-09-03T10:32:45Z</time>
					</trkpt>
					<trkpt lat="44.457460" lon="5.670660">
						<ele>845</ele>
						<time>2026-09-03T10:32:55Z</time>
					</trkpt>
					<trkpt lat="44.457410" lon="5.670500">
						<ele>847</ele>
						<time>2026-09-03T10:33:02Z</time>
					</trkpt>
					<trkpt lat="44.457060" lon="5.669970">
						<ele>853</ele>
						<time>2026-09-03T10:33:27Z</time>
					</trkpt>
					<trkpt lat="44.456910" lon="5.669570">
						<ele>856</ele>
						<time>2026-09-03T10:33:43Z</time>
					</trkpt>
					<trkpt lat="44.456850" lon="5.669330">
						<ele>857</ele>
						<time>2026-09-03T10:33:53Z</time>
					</trkpt>
					<trkpt lat="44.456920" lon="5.668580">
						<ele>859</ele>
						<time>2026-09-03T10:34:20Z</time>
					</trkpt>
					<trkpt lat="44.457090" lon="5.668060">
						<ele>865</ele>
						<time>2026-09-03T10:34:40Z</time>
					</trkpt>
					<trkpt lat="44.457100" lon="5.667940">
						<ele>867</ele>
						<time>2026-09-03T10:34:44Z</time>
					</trkpt>
					<trkpt lat="44.457080" lon="5.667890">
						<ele>867</ele>
						<time>2026-09-03T10:34:46Z</time>
					</trkpt>
					<trkpt lat="44.456880" lon="5.667870">
						<ele>862</ele>
						<time>2026-09-03T10:34:56Z</time>
					</trkpt>
					<trkpt lat="44.456810" lon="5.667760">
						<ele>861</ele>
						<time>2026-09-03T10:35:02Z</time>
					</trkpt>
					<trkpt lat="44.456540" lon="5.667130">
						<ele>868</ele>
						<time>2026-09-03T10:35:28Z</time>
					</trkpt>
					<trkpt lat="44.456430" lon="5.666930">
						<ele>871</ele>
						<time>2026-09-03T10:35:37Z</time>
					</trkpt>
					<trkpt lat="44.456330" lon="5.666820">
						<ele>873</ele>
						<time>2026-09-03T10:35:43Z</time>
					</trkpt>
					<trkpt lat="44.456100" lon="5.666740">
						<ele>873</ele>
						<time>2026-09-03T10:35:55Z</time>
					</trkpt>
					<trkpt lat="44.455850" lon="5.666750">
						<ele>873</ele>
						<time>2026-09-03T10:36:08Z</time>
					</trkpt>
					<trkpt lat="44.455760" lon="5.666690">
						<ele>875</ele>
						<time>2026-09-03T10:36:13Z</time>
					</trkpt>
					<trkpt lat="44.455770" lon="5.666590">
						<ele>875</ele>
						<time>2026-09-03T10:36:16Z</time>
					</trkpt>
					<trkpt lat="44.456150" lon="5.666250">
						<ele>879</ele>
						<time>2026-09-03T10:36:39Z</time>
					</trkpt>
					<trkpt lat="44.456190" lon="5.666190">
						<ele>880</ele>
						<time>2026-09-03T10:36:42Z</time>
					</trkpt>
					<trkpt lat="44.456240" lon="5.666010">
						<ele>883</ele>
						<time>2026-09-03T10:36:49Z</time>
					</trkpt>
					<trkpt lat="44.456200" lon="5.665920">
						<ele>884</ele>
						<time>2026-09-03T10:36:52Z</time>
					</trkpt>
					<trkpt lat="44.456140" lon="5.665910">
						<ele>884</ele>
						<time>2026-09-03T10:36:55Z</time>
					</trkpt>
					<trkpt lat="44.455830" lon="5.666030">
						<ele>884</ele>
						<time>2026-09-03T10:37:12Z</time>
					</trkpt>
					<trkpt lat="44.455790" lon="5.666080">
						<ele>883</ele>
						<time>2026-09-03T10:37:14Z</time>
					</trkpt>
					<trkpt lat="44.455750" lon="5.666270">
						<ele>881</ele>
						<time>2026-09-03T10:37:21Z</time>
					</trkpt>
					<trkpt lat="44.455670" lon="5.666320">
						<ele>882</ele>
						<time>2026-09-03T10:37:26Z</time>
					</trkpt>
					<trkpt lat="44.455590" lon="5.666300">
						<ele>884</ele>
						<time>2026-09-03T10:37:30Z</time>
					</trkpt>
					<trkpt lat="44.455490" lon="5.666070">
						<ele>889</ele>
						<time>2026-09-03T10:37:39Z</time>
					</trkpt>
					<trkpt lat="44.455490" lon="5.665940">
						<ele>890</ele>
						<time>2026-09-03T10:37:44Z</time>
					</trkpt>
					<trkpt lat="44.455530" lon="5.665820">
						<ele>891</ele>
						<time>2026-09-03T10:37:49Z</time>
					</trkpt>
					<trkpt lat="44.455720" lon="5.665600">
						<ele>892</ele>
						<time>2026-09-03T10:38:01Z</time>
					</trkpt>
					<trkpt lat="44.455830" lon="5.665400">
						<ele>894</ele>
						<time>2026-09-03T10:38:10Z</time>
					</trkpt>
					<trkpt lat="44.455850" lon="5.665310">
						<ele>895</ele>
						<time>2026-09-03T10:38:13Z</time>
					</trkpt>
					<trkpt lat="44.455900" lon="5.664070">
						<ele>904</ele>
						<time>2026-09-03T10:38:58Z</time>
					</trkpt>
					<trkpt lat="44.456040" lon="5.663310">
						<ele>908</ele>
						<time>2026-09-03T10:39:26Z</time>
					</trkpt>
					<trkpt lat="44.456050" lon="5.663210">
						<ele>908</ele>
						<time>2026-09-03T10:39:29Z</time>
					</trkpt>
					<trkpt lat="44.456020" lon="5.663130">
						<ele>910</ele>
						<time>2026-09-03T10:39:33Z</time>
					</trkpt>
					<trkpt lat="44.455970" lon="5.663130">
						<ele>911</ele>
						<time>2026-09-03T10:39:35Z</time>
					</trkpt>
					<trkpt lat="44.455900" lon="5.663220">
						<ele>911</ele>
						<time>2026-09-03T10:39:40Z</time>
					</trkpt>
					<trkpt lat="44.455860" lon="5.663530">
						<ele>910</ele>
						<time>2026-09-03T10:39:51Z</time>
					</trkpt>
					<trkpt lat="44.455730" lon="5.663890">
						<ele>910</ele>
						<time>2026-09-03T10:40:06Z</time>
					</trkpt>
					<trkpt lat="44.455620" lon="5.664430">
						<ele>909</ele>
						<time>2026-09-03T10:40:26Z</time>
					</trkpt>
					<trkpt lat="44.455570" lon="5.664460">
						<ele>910</ele>
						<time>2026-09-03T10:40:28Z</time>
					</trkpt>
					<trkpt lat="44.455400" lon="5.664470">
						<ele>914</ele>
						<time>2026-09-03T10:40:37Z</time>
					</trkpt>
					<trkpt lat="44.455230" lon="5.664430">
						<ele>918</ele>
						<time>2026-09-03T10:40:46Z</time>
					</trkpt>
					<trkpt lat="44.455130" lon="5.664280">
						<ele>922</ele>
						<time>2026-09-03T10:40:53Z</time>
					</trkpt>
					<trkpt lat="44.455120" lon="5.664090">
						<ele>924</ele>
						<time>2026-09-03T10:41:00Z</time>
					</trkpt>
					<trkpt lat="44.455230" lon="5.663370">
						<ele>928</ele>
						<time>2026-09-03T10:41:26Z</time>
					</trkpt>
					<trkpt lat="44.455390" lon="5.663050">
						<ele>927</ele>
						<time>2026-09-03T10:41:40Z</time>
					</trkpt>
					<trkpt lat="44.455420" lon="5.662910">
						<ele>927</ele>
						<time>2026-09-03T10:41:45Z</time>
					</trkpt>
					<trkpt lat="44.455390" lon="5.662260">
						<ele>935</ele>
						<time>2026-09-03T10:42:08Z</time>
					</trkpt>
					<trkpt lat="44.455410" lon="5.661380">
						<ele>941</ele>
						<time>2026-09-03T10:42:40Z</time>
					</trkpt>
					<trkpt lat="44.455360" lon="5.661260">
						<ele>943</ele>
						<time>2026-09-03T10:42:45Z</time>
					</trkpt>
					<trkpt lat="44.455320" lon="5.661250">
						<ele>944</ele>
						<time>2026-09-03T10:42:47Z</time>
					</trkpt>
					<trkpt lat="44.455240" lon="5.661290">
						<ele>947</ele>
						<time>2026-09-03T10:42:51Z</time>
					</trkpt>
					<trkpt lat="44.454970" lon="5.662210">
						<ele>950</ele>
						<time>2026-09-03T10:43:27Z</time>
					</trkpt>
					<trkpt lat="44.454840" lon="5.662390">
						<ele>950</ele>
						<time>2026-09-03T10:43:36Z</time>
					</trkpt>
					<trkpt lat="44.454720" lon="5.662430">
						<ele>952</ele>
						<time>2026-09-03T10:43:42Z</time>
					</trkpt>
					<trkpt lat="44.454520" lon="5.662410">
						<ele>957</ele>
						<time>2026-09-03T10:43:52Z</time>
					</trkpt>
					<trkpt lat="44.454420" lon="5.662460">
						<ele>958</ele>
						<time>2026-09-03T10:43:57Z</time>
					</trkpt>
					<trkpt lat="44.454090" lon="5.663230">
						<ele>959</ele>
						<time>2026-09-03T10:44:29Z</time>
					</trkpt>
					<trkpt lat="44.453870" lon="5.663500">
						<ele>960</ele>
						<time>2026-09-03T10:44:44Z</time>
					</trkpt>
					<trkpt lat="44.453760" lon="5.663490">
						<ele>962</ele>
						<time>2026-09-03T10:44:50Z</time>
					</trkpt>
					<trkpt lat="44.453720" lon="5.663410">
						<ele>964</ele>
						<time>2026-09-03T10:44:53Z</time>
					</trkpt>
					<trkpt lat="44.453910" lon="5.662210">
						<ele>969</ele>
						<time>2026-09-03T10:45:37Z</time>
					</trkpt>
					<trkpt lat="44.453760" lon="5.661730">
						<ele>975</ele>
						<time>2026-09-03T10:45:56Z</time>
					</trkpt>
					<trkpt lat="44.453770" lon="5.661590">
						<ele>976</ele>
						<time>2026-09-03T10:46:01Z</time>
					</trkpt>
					<trkpt lat="44.453820" lon="5.661460">
						<ele>976</ele>
						<time>2026-09-03T10:46:06Z</time>
					</trkpt>
					<trkpt lat="44.453990" lon="5.661170">
						<ele>976</ele>
						<time>2026-09-03T10:46:19Z</time>
					</trkpt>
					<trkpt lat="44.454070" lon="5.661100">
						<ele>976</ele>
						<time>2026-09-03T10:46:24Z</time>
					</trkpt>
					<trkpt lat="44.454130" lon="5.661080">
						<ele>975</ele>
						<time>2026-09-03T10:46:27Z</time>
					</trkpt>
					<trkpt lat="44.454190" lon="5.661080">
						<ele>974</ele>
						<time>2026-09-03T10:46:30Z</time>
					</trkpt>
					<trkpt lat="44.454370" lon="5.661160">
						<ele>969</ele>
						<time>2026-09-03T10:46:40Z</time>
					</trkpt>
					<trkpt lat="44.454470" lon="5.661150">
						<ele>967</ele>
						<time>2026-09-03T10:46:45Z</time>
					</trkpt>
					<trkpt lat="44.454530" lon="5.661060">
						<ele>966</ele>
						<time>2026-09-03T10:46:49Z</time>
					</trkpt>
					<trkpt lat="44.454540" lon="5.660880">
						<ele>967</ele>
						<time>2026-09-03T10:46:55Z</time>
					</trkpt>
					<trkpt lat="44.454460" lon="5.660540">
						<ele>969</ele>
						<time>2026-09-03T10:47:08Z</time>
					</trkpt>
					<trkpt lat="44.454400" lon="5.660390">
						<ele>971</ele>
						<time>2026-09-03T10:47:14Z</time>
					</trkpt>
					<trkpt lat="44.454180" lon="5.660010">
						<ele>980</ele>
						<time>2026-09-03T10:47:32Z</time>
					</trkpt>
					<trkpt lat="44.454000" lon="5.659600">
						<ele>984</ele>
						<time>2026-09-03T10:47:49Z</time>
					</trkpt>
					<trkpt lat="44.453820" lon="5.658820">
						<ele>990</ele>
						<time>2026-09-03T10:48:18Z</time>
					</trkpt>
					<trkpt lat="44.453770" lon="5.658330">
						<ele>994</ele>
						<time>2026-09-03T10:48:36Z</time>
					</trkpt>
					<trkpt lat="44.453740" lon="5.658230">
						<ele>994</ele>
						<time>2026-09-03T10:48:40Z</time>
					</trkpt>
					<trkpt lat="44.453100" lon="5.657090">
						<ele>1007</ele>
						<time>2026-09-03T10:49:32Z</time>
					</trkpt>
					<trkpt lat="44.452870" lon="5.656490">
						<ele>1013</ele>
						<time>2026-09-03T10:49:56Z</time>
					</trkpt>
					<trkpt lat="44.452860" lon="5.656250">
						<ele>1015</ele>
						<time>2026-09-03T10:50:05Z</time>
					</trkpt>
					<trkpt lat="44.453020" lon="5.655810">
						<ele>1017</ele>
						<time>2026-09-03T10:50:22Z</time>
					</trkpt>
					<trkpt lat="44.453100" lon="5.655390">
						<ele>1019</ele>
						<time>2026-09-03T10:50:38Z</time>
					</trkpt>
					<trkpt lat="44.452920" lon="5.654660">
						<ele>1027</ele>
						<time>2026-09-03T10:51:05Z</time>
					</trkpt>
					<trkpt lat="44.452740" lon="5.654200">
						<ele>1032</ele>
						<time>2026-09-03T10:51:24Z</time>
					</trkpt>
					<trkpt lat="44.452730" lon="5.654050">
						<ele>1033</ele>
						<time>2026-09-03T10:51:30Z</time>
					</trkpt>
					<trkpt lat="44.452780" lon="5.653880">
						<ele>1033</ele>
						<time>2026-09-03T10:51:36Z</time>
					</trkpt>
					<trkpt lat="44.452990" lon="5.653530">
						<ele>1032</ele>
						<time>2026-09-03T10:51:52Z</time>
					</trkpt>
					<trkpt lat="44.453070" lon="5.653220">
						<ele>1033</ele>
						<time>2026-09-03T10:52:04Z</time>
					</trkpt>
					<trkpt lat="44.453190" lon="5.652890">
						<ele>1033</ele>
						<time>2026-09-03T10:52:17Z</time>
					</trkpt>
					<trkpt lat="44.453240" lon="5.652500">
						<ele>1035</ele>
						<time>2026-09-03T10:52:32Z</time>
					</trkpt>
					<trkpt lat="44.453180" lon="5.652250">
						<ele>1037</ele>
						<time>2026-09-03T10:52:41Z</time>
					</trkpt>
					<trkpt lat="44.453180" lon="5.651930">
						<ele>1039</ele>
						<time>2026-09-03T10:52:52Z</time>
					</trkpt>
					<trkpt lat="44.453140" lon="5.651770">
						<ele>1041</ele>
						<time>2026-09-03T10:52:59Z</time>
					</trkpt>
					<trkpt lat="44.453090" lon="5.651240">
						<ele>1046</ele>
						<time>2026-09-03T10:53:18Z</time>
					</trkpt>
					<trkpt lat="44.453100" lon="5.650730">
						<ele>1049</ele>
						<time>2026-09-03T10:53:36Z</time>
					</trkpt>
					<trkpt lat="44.453000" lon="5.649740">
						<ele>1060</ele>
						<time>2026-09-03T10:54:12Z</time>
					</trkpt>
					<trkpt lat="44.453060" lon="5.649410">
						<ele>1064</ele>
						<time>2026-09-03T10:54:24Z</time>
					</trkpt>
					<trkpt lat="44.453190" lon="5.649060">
						<ele>1067</ele>
						<time>2026-09-03T10:54:38Z</time>
					</trkpt>
					<trkpt lat="44.453240" lon="5.648810">
						<ele>1070</ele>
						<time>2026-09-03T10:54:47Z</time>
					</trkpt>
					<trkpt lat="44.453430" lon="5.648670">
						<ele>1073</ele>
						<time>2026-09-03T10:54:58Z</time>
					</trkpt>
					<trkpt lat="44.453490" lon="5.648600">
						<ele>1075</ele>
						<time>2026-09-03T10:55:02Z</time>
					</trkpt>
					<trkpt lat="44.453550" lon="5.648380">
						<ele>1079</ele>
						<time>2026-09-03T10:55:10Z</time>
					</trkpt>
					<trkpt lat="44.453480" lon="5.648210">
						<ele>1080</ele>
						<time>2026-09-03T10:55:17Z</time>
					</trkpt>
					<trkpt lat="44.453450" lon="5.648180">
						<ele>1080</ele>
						<time>2026-09-03T10:55:19Z</time>
					</trkpt>
					<trkpt lat="44.453280" lon="5.648150">
						<ele>1078</ele>
						<time>2026-09-03T10:55:28Z</time>
					</trkpt>
					<trkpt lat="44.453240" lon="5.648110">
						<ele>1079</ele>
						<time>2026-09-03T10:55:30Z</time>
					</trkpt>
					<trkpt lat="44.453200" lon="5.648000">
						<ele>1080</ele>
						<time>2026-09-03T10:55:34Z</time>
					</trkpt>
					<trkpt lat="44.453170" lon="5.647880">
						<ele>1082</ele>
						<time>2026-09-03T10:55:39Z</time>
					</trkpt>
					<trkpt lat="44.453240" lon="5.647310">
						<ele>1086</ele>
						<time>2026-09-03T10:56:00Z</time>
					</trkpt>
					<trkpt lat="44.453290" lon="5.647130">
						<ele>1087</ele>
						<time>2026-09-03T10:56:07Z</time>
					</trkpt>
					<trkpt lat="44.453370" lon="5.646960">
						<ele>1088</ele>
						<time>2026-09-03T10:56:14Z</time>
					</trkpt>
					<trkpt lat="44.453410" lon="5.646490">
						<ele>1091</ele>
						<time>2026-09-03T10:56:31Z</time>
					</trkpt>
					<trkpt lat="44.453530" lon="5.645970">
						<ele>1095</ele>
						<time>2026-09-03T10:56:50Z</time>
					</trkpt>
					<trkpt lat="44.453570" lon="5.645670">
						<ele>1097</ele>
						<time>2026-09-03T10:57:01Z</time>
					</trkpt>
					<trkpt lat="44.453610" lon="5.645590">
						<ele>1099</ele>
						<time>2026-09-03T10:57:05Z</time>
					</trkpt>
					<trkpt lat="44.453680" lon="5.645560">
						<ele>1100</ele>
						<time>2026-09-03T10:57:08Z</time>
					</trkpt>
					<trkpt lat="44.453800" lon="5.645390">
						<ele>1104</ele>
						<time>2026-09-03T10:57:17Z</time>
					</trkpt>
					<trkpt lat="44.453890" lon="5.645150">
						<ele>1107</ele>
						<time>2026-09-03T10:57:27Z</time>
					</trkpt>
					<trkpt lat="44.453930" lon="5.643870">
						<ele>1120</ele>
						<time>2026-09-03T10:58:12Z</time>
					</trkpt>
					<trkpt lat="44.454000" lon="5.642980">
						<ele>1128</ele>
						<time>2026-09-03T10:58:44Z</time>
					</trkpt>
					<trkpt lat="44.454110" lon="5.642670">
						<ele>1130</ele>
						<time>2026-09-03T10:58:57Z</time>
					</trkpt>
					<trkpt lat="44.454340" lon="5.642240">
						<ele>1138</ele>
						<time>2026-09-03T10:59:16Z</time>
					</trkpt>
					<trkpt lat="44.454640" lon="5.641820">
						<ele>1148</ele>
						<time>2026-09-03T10:59:37Z</time>
					</trkpt>
					<trkpt lat="44.454750" lon="5.641610">
						<ele>1152</ele>
						<time>2026-09-03T10:59:46Z</time>
					</trkpt>
					<trkpt lat="44.454870" lon="5.641300">
						<ele>1156</ele>
						<time>2026-09-03T10:59:59Z</time>
					</trkpt>
					<trkpt lat="44.454920" lon="5.640830">
						<ele>1159</ele>
						<time>2026-09-03T11:00:16Z</time>
					</trkpt>
					<trkpt lat="44.454940" lon="5.640130">
						<ele>1165</ele>
						<time>2026-09-03T11:00:41Z</time>
					</trkpt>
					<trkpt lat="44.454990" lon="5.639890">
						<ele>1167</ele>
						<time>2026-09-03T11:00:50Z</time>
					</trkpt>
					<trkpt lat="44.455050" lon="5.639100">
						<ele>1173</ele>
						<time>2026-09-03T11:01:18Z</time>
					</trkpt>
					<trkpt lat="44.455100" lon="5.638860">
						<ele>1176</ele>
						<time>2026-09-03T11:01:27Z</time>
					</trkpt>
					<trkpt lat="44.455110" lon="5.638660">
						<ele>1177</ele>
						<time>2026-09-03T11:01:34Z</time>
					</trkpt>
					<trkpt lat="44.455300" lon="5.638110">
						<ele>1188</ele>
						<time>2026-09-03T11:01:56Z</time>
					</trkpt>
					<trkpt lat="44.455350" lon="5.637800">
						<ele>1192</ele>
						<time>2026-09-03T11:02:08Z</time>
					</trkpt>
					<trkpt lat="44.455270" lon="5.637340">
						<ele>1192</ele>
						<time>2026-09-03T11:02:24Z</time>
					</trkpt>
					<trkpt lat="44.455220" lon="5.637220">
						<ele>1192</ele>
						<time>2026-09-03T11:02:29Z</time>
					</trkpt>
					<trkpt lat="44.455090" lon="5.637000">
						<ele>1189</ele>
						<time>2026-09-03T11:02:40Z</time>
					</trkpt>
					<trkpt lat="44.454650" lon="5.635960">
						<ele>1197</ele>
						<time>2026-09-03T11:03:23Z</time>
					</trkpt>
					<trkpt lat="44.454390" lon="5.635540">
						<ele>1198</ele>
						<time>2026-09-03T11:03:43Z</time>
					</trkpt>
					<trkpt lat="44.454360" lon="5.635150">
						<ele>1203</ele>
						<time>2026-09-03T11:03:57Z</time>
					</trkpt>
					<trkpt lat="44.454230" lon="5.634860">
						<ele>1203</ele>
						<time>2026-09-03T11:04:09Z</time>
					</trkpt>
					<trkpt lat="44.454130" lon="5.633610">
						<ele>1211</ele>
						<time>2026-09-03T11:04:54Z</time>
					</trkpt>
					<trkpt lat="44.454200" lon="5.632970">
						<ele>1214</ele>
						<time>2026-09-03T11:05:17Z</time>
					</trkpt>
					<trkpt lat="44.454220" lon="5.632820">
						<ele>1215</ele>
						<time>2026-09-03T11:05:22Z</time>
					</trkpt>
					<trkpt lat="44.454680" lon="5.631580">
						<ele>1228</ele>
						<time>2026-09-03T11:06:12Z</time>
					</trkpt>
					<trkpt lat="44.454730" lon="5.631180">
						<ele>1230</ele>
						<time>2026-09-03T11:06:27Z</time>
					</trkpt>
					<trkpt lat="44.454710" lon="5.630780">
						<ele>1232</ele>
						<time>2026-09-03T11:06:41Z</time>
					</trkpt>
					<trkpt lat="44.454700" lon="5.630710">
						<ele>1233</ele>
						<time>2026-09-03T11:06:44Z</time>
					</trkpt>
					<trkpt lat="44.454550" lon="5.630410">
						<ele>1235</ele>
						<time>2026-09-03T11:06:57Z</time>
					</trkpt>
					<trkpt lat="44.454350" lon="5.630120">
						<ele>1234</ele>
						<time>2026-09-03T11:07:11Z</time>
					</trkpt>
					<trkpt lat="44.454240" lon="5.628880">
						<ele>1246</ele>
						<time>2026-09-03T11:07:56Z</time>
					</trkpt>
					<trkpt lat="44.454130" lon="5.628480">
						<ele>1248</ele>
						<time>2026-09-03T11:08:11Z</time>
					</trkpt>
					<trkpt lat="44.453870" lon="5.627710">
						<ele>1263</ele>
						<time>2026-09-03T11:08:42Z</time>
					</trkpt>
					<trkpt lat="44.453820" lon="5.627470">
						<ele>1266</ele>
						<time>2026-09-03T11:08:50Z</time>
					</trkpt>
					<trkpt lat="44.453660" lon="5.627120">
						<ele>1268</ele>
						<time>2026-09-03T11:09:05Z</time>
					</trkpt>
					<trkpt lat="44.453670" lon="5.626770">
						<ele>1271</ele>
						<time>2026-09-03T11:09:18Z</time>
					</trkpt>
					<trkpt lat="44.453650" lon="5.626540">
						<ele>1273</ele>
						<time>2026-09-03T11:09:26Z</time>
					</trkpt>
					<trkpt lat="44.453600" lon="5.626340">
						<ele>1273</ele>
						<time>2026-09-03T11:09:34Z</time>
					</trkpt>
					<trkpt lat="44.453620" lon="5.626100">
						<ele>1275</ele>
						<time>2026-09-03T11:09:42Z</time>
					</trkpt>
					<trkpt lat="44.453440" lon="5.625150">
						<ele>1274</ele>
						<time>2026-09-03T11:10:17Z</time>
					</trkpt>
					<trkpt lat="44.453330" lon="5.624830">
						<ele>1274</ele>
						<time>2026-09-03T11:10:30Z</time>
					</trkpt>
					<trkpt lat="44.453090" lon="5.624850">
						<ele>1275</ele>
						<time>2026-09-03T11:10:42Z</time>
					</trkpt>
					<trkpt lat="44.452660" lon="5.625030">
						<ele>1278</ele>
						<time>2026-09-03T11:11:05Z</time>
					</trkpt>
					<trkpt lat="44.452510" lon="5.624570">
						<ele>1280</ele>
						<time>2026-09-03T11:11:23Z</time>
					</trkpt>
					<trkpt lat="44.452270" lon="5.624410">
						<ele>1285</ele>
						<time>2026-09-03T11:11:36Z</time>
					</trkpt>
					<trkpt lat="44.451690" lon="5.624210">
						<ele>1299</ele>
						<time>2026-09-03T11:12:06Z</time>
					</trkpt>
					<trkpt lat="44.451070" lon="5.623840">
						<ele>1315</ele>
						<time>2026-09-03T11:12:40Z</time>
					</trkpt>
					<trkpt lat="44.450780" lon="5.623440">
						<ele>1322</ele>
						<time>2026-09-03T11:13:00Z</time>
					</trkpt>
					<trkpt lat="44.450640" lon="5.622960">
						<ele>1331</ele>
						<time>2026-09-03T11:13:18Z</time>
					</trkpt>
					<trkpt lat="44.450670" lon="5.622690">
						<ele>1333</ele>
						<time>2026-09-03T11:13:28Z</time>
					</trkpt>
					<trkpt lat="44.450840" lon="5.622210">
						<ele>1335</ele>
						<time>2026-09-03T11:13:47Z</time>
					</trkpt>
					<trkpt lat="44.450930" lon="5.621870">
						<ele>1339</ele>
						<time>2026-09-03T11:14:00Z</time>
					</trkpt>
					<trkpt lat="44.451060" lon="5.621120">
						<ele>1346</ele>
						<time>2026-09-03T11:14:28Z</time>
					</trkpt>
					<trkpt lat="44.451480" lon="5.619680">
						<ele>1355</ele>
						<time>2026-09-03T11:15:23Z</time>
					</trkpt>
					<trkpt lat="44.451800" lon="5.618760">
						<ele>1366</ele>
						<time>2026-09-03T11:16:00Z</time>
					</trkpt>
					<trkpt lat="44.452130" lon="5.618140">
						<ele>1367</ele>
						<time>2026-09-03T11:16:28Z</time>
					</trkpt>
					<trkpt lat="44.452380" lon="5.617600">
						<ele>1365</ele>
						<time>2026-09-03T11:16:51Z</time>
					</trkpt>
					<trkpt lat="44.452610" lon="5.616960">
						<ele>1371</ele>
						<time>2026-09-03T11:17:16Z</time>
					</trkpt>
					<trkpt lat="44.452880" lon="5.616650">
						<ele>1371</ele>
						<time>2026-09-03T11:17:34Z</time>
					</trkpt>
					<trkpt lat="44.453190" lon="5.616370">
						<ele>1371</ele>
						<time>2026-09-03T11:17:52Z</time>
					</trkpt>
					<trkpt lat="44.453540" lon="5.616230">
						<ele>1372</ele>
						<time>2026-09-03T11:18:10Z</time>
					</trkpt>
					<trkpt lat="44.453730" lon="5.616280">
						<ele>1373</ele>
						<time>2026-09-03T11:18:20Z</time>
					</trkpt>
					<trkpt lat="44.454380" lon="5.615970">
						<ele>1383</ele>
						<time>2026-09-03T11:18:54Z</time>
					</trkpt>
					<trkpt lat="44.454890" lon="5.615650">
						<ele>1392</ele>
						<time>2026-09-03T11:19:22Z</time>
					</trkpt>
					<trkpt lat="44.455060" lon="5.615320">
						<ele>1398</ele>
						<time>2026-09-03T11:19:37Z</time>
					</trkpt>
					<trkpt lat="44.455250" lon="5.615050">
						<ele>1405</ele>
						<time>2026-09-03T11:19:50Z</time>
					</trkpt>
					<trkpt lat="44.455700" lon="5.614560">
						<ele>1420</ele>
						<time>2026-09-03T11:20:19Z</time>
					</trkpt>
					<trkpt lat="44.455690" lon="5.614440">
						<ele>1420</ele>
						<time>2026-09-03T11:20:23Z</time>
					</trkpt>
					<trkpt lat="44.455820" lon="5.614070">
						<ele>1423</ele>
						<time>2026-09-03T11:20:38Z</time>
					</trkpt>
					<trkpt lat="44.455940" lon="5.613860">
						<ele>1429</ele>
						<time>2026-09-03T11:20:48Z</time>
					</trkpt>
					<trkpt lat="44.456050" lon="5.613320">
						<ele>1437</ele>
						<time>2026-09-03T11:21:08Z</time>
					</trkpt>
					<trkpt lat="44.456050" lon="5.613240">
						<ele>1438</ele>
						<time>2026-09-03T11:21:11Z</time>
					</trkpt>
					<trkpt lat="44.455950" lon="5.612860">
						<ele>1439</ele>
						<time>2026-09-03T11:21:25Z</time>
					</trkpt>
					<trkpt lat="44.456050" lon="5.612190">
						<ele>1443</ele>
						<time>2026-09-03T11:21:49Z</time>
					</trkpt>
					<trkpt lat="44.456130" lon="5.612040">
						<ele>1444</ele>
						<time>2026-09-03T11:21:56Z</time>
					</trkpt>
					<trkpt lat="44.456390" lon="5.611760">
						<ele>1445</ele>
						<time>2026-09-03T11:22:13Z</time>
					</trkpt>
					<trkpt lat="44.456890" lon="5.611360">
						<ele>1447</ele>
						<time>2026-09-03T11:22:41Z</time>
					</trkpt>
					<trkpt lat="44.457000" lon="5.611150">
						<ele>1447</ele>
						<time>2026-09-03T11:22:51Z</time>
					</trkpt>
					<trkpt lat="44.457070" lon="5.610850">
						<ele>1447</ele>
						<time>2026-09-03T11:23:02Z</time>
					</trkpt>
					<trkpt lat="44.457230" lon="5.610530">
						<ele>1447</ele>
						<time>2026-09-03T11:23:16Z</time>
					</trkpt>
					<trkpt lat="44.457520" lon="5.610370">
						<ele>1446</ele>
						<time>2026-09-03T11:23:32Z</time>
					</trkpt>
					<trkpt lat="44.458000" lon="5.610260">
						<ele>1450</ele>
						<time>2026-09-03T11:23:56Z</time>
					</trkpt>
					<trkpt lat="44.458330" lon="5.610080">
						<ele>1453</ele>
						<time>2026-09-03T11:24:14Z</time>
					</trkpt>
					<trkpt lat="44.458310" lon="5.609830">
						<ele>1454</ele>
						<time>2026-09-03T11:24:23Z</time>
					</trkpt>
					<trkpt lat="44.458220" lon="5.609590">
						<ele>1454</ele>
						<time>2026-09-03T11:24:32Z</time>
					</trkpt>
					<trkpt lat="44.457980" lon="5.609250">
						<ele>1453</ele>
						<time>2026-09-03T11:24:49Z</time>
					</trkpt>
					<trkpt lat="44.457630" lon="5.608440">
						<ele>1454</ele>
						<time>2026-09-03T11:25:23Z</time>
					</trkpt>
					<trkpt lat="44.457030" lon="5.607220">
						<ele>1456</ele>
						<time>2026-09-03T11:26:16Z</time>
					</trkpt>
					<trkpt lat="44.456860" lon="5.606990">
						<ele>1456</ele>
						<time>2026-09-03T11:26:28Z</time>
					</trkpt>
					<trkpt lat="44.456700" lon="5.606840">
						<ele>1456</ele>
						<time>2026-09-03T11:26:38Z</time>
					</trkpt>
					<trkpt lat="44.456400" lon="5.605570">
						<ele>1457</ele>
						<time>2026-09-03T11:27:25Z</time>
					</trkpt>
					<trkpt lat="44.456410" lon="5.605400">
						<ele>1457</ele>
						<time>2026-09-03T11:27:31Z</time>
					</trkpt>
					<trkpt lat="44.456460" lon="5.605240">
						<ele>1457</ele>
						<time>2026-09-03T11:27:38Z</time>
					</trkpt>
					<trkpt lat="44.456680" lon="5.604930">
						<ele>1457</ele>
						<time>2026-09-03T11:27:53Z</time>
					</trkpt>
					<trkpt lat="44.456730" lon="5.604690">
						<ele>1455</ele>
						<time>2026-09-03T11:28:02Z</time>
					</trkpt>
					<trkpt lat="44.456940" lon="5.604410">
						<ele>1455</ele>
						<time>2026-09-03T11:28:17Z</time>
					</trkpt>
					<trkpt lat="44.457260" lon="5.604250">
						<ele>1456</ele>
						<time>2026-09-03T11:28:34Z</time>
					</trkpt>
					<trkpt lat="44.457390" lon="5.604090">
						<ele>1456</ele>
						<time>2026-09-03T11:28:42Z</time>
					</trkpt>
					<trkpt lat="44.457640" lon="5.604000">
						<ele>1459</ele>
						<time>2026-09-03T11:28:55Z</time>
					</trkpt>
					<trkpt lat="44.457740" lon="5.603850">
						<ele>1459</ele>
						<time>2026-09-03T11:29:03Z</time>
					</trkpt>
					<trkpt lat="44.458320" lon="5.602740">
						<ele>1456</ele>
						<time>2026-09-03T11:29:52Z</time>
					</trkpt>
					<trkpt lat="44.458430" lon="5.602610">
						<ele>1458</ele>
						<time>2026-09-03T11:29:59Z</time>
					</trkpt>
					<trkpt lat="44.458580" lon="5.602520">
						<ele>1462</ele>
						<time>2026-09-03T11:30:07Z</time>
					</trkpt>
					<trkpt lat="44.458640" lon="5.602390">
						<ele>1462</ele>
						<time>2026-09-03T11:30:13Z</time>
					</trkpt>
					<trkpt lat="44.458670" lon="5.602180">
						<ele>1459</ele>
						<time>2026-09-03T11:30:20Z</time>
					</trkpt>
					<trkpt lat="44.458850" lon="5.601580">
						<ele>1457</ele>
						<time>2026-09-03T11:30:44Z</time>
					</trkpt>
					<trkpt lat="44.459020" lon="5.601320">
						<ele>1462</ele>
						<time>2026-09-03T11:30:56Z</time>
					</trkpt>
					<trkpt lat="44.458990" lon="5.600940">
						<ele>1456</ele>
						<time>2026-09-03T11:31:10Z</time>
					</trkpt>
					<trkpt lat="44.459010" lon="5.600710">
						<ele>1454</ele>
						<time>2026-09-03T11:31:18Z</time>
					</trkpt>
					<trkpt lat="44.459180" lon="5.600210">
						<ele>1453</ele>
						<time>2026-09-03T11:31:38Z</time>
					</trkpt>
					<trkpt lat="44.459580" lon="5.599510">
						<ele>1460</ele>
						<time>2026-09-03T11:32:10Z</time>
					</trkpt>
					<trkpt lat="44.459580" lon="5.599190">
						<ele>1455</ele>
						<time>2026-09-03T11:32:21Z</time>
					</trkpt>
					<trkpt lat="44.459640" lon="5.598770">
						<ele>1453</ele>
						<time>2026-09-03T11:32:37Z</time>
					</trkpt>
					<trkpt lat="44.459760" lon="5.598300">
						<ele>1453</ele>
						<time>2026-09-03T11:32:54Z</time>
					</trkpt>
					<trkpt lat="44.459870" lon="5.598010">
						<ele>1453</ele>
						<time>2026-09-03T11:33:06Z</time>
					</trkpt>
					<trkpt lat="44.460090" lon="5.597690">
						<ele>1456</ele>
						<time>2026-09-03T11:33:22Z</time>
					</trkpt>
					<trkpt lat="44.460310" lon="5.597730">
						<ele>1464</ele>
						<time>2026-09-03T11:33:33Z</time>
					</trkpt>
					<trkpt lat="44.460490" lon="5.597800">
						<ele>1470</ele>
						<time>2026-09-03T11:33:42Z</time>
					</trkpt>
					<trkpt lat="44.460690" lon="5.597110">
						<ele>1463</ele>
						<time>2026-09-03T11:34:09Z</time>
					</trkpt>
					<trkpt lat="44.460850" lon="5.596880">
						<ele>1463</ele>
						<time>2026-09-03T11:34:21Z</time>
					</trkpt>
					<trkpt lat="44.460950" lon="5.596650">
						<ele>1462</ele>
						<time>2026-09-03T11:34:30Z</time>
					</trkpt>
					<trkpt lat="44.461010" lon="5.596570">
						<ele>1463</ele>
						<time>2026-09-03T11:34:34Z</time>
					</trkpt>
					<trkpt lat="44.461180" lon="5.596440">
						<ele>1468</ele>
						<time>2026-09-03T11:34:44Z</time>
					</trkpt>
					<trkpt lat="44.461330" lon="5.596400">
						<ele>1473</ele>
						<time>2026-09-03T11:34:52Z</time>
					</trkpt>
					<trkpt lat="44.461360" lon="5.596220">
						<ele>1472</ele>
						<time>2026-09-03T11:34:58Z</time>
					</trkpt>
					<trkpt lat="44.461340" lon="5.595570">
						<ele>1462</ele>
						<time>2026-09-03T11:35:21Z</time>
					</trkpt>
					<trkpt lat="44.461500" lon="5.595100">
						<ele>1463</ele>
						<time>2026-09-03T11:35:40Z</time>
					</trkpt>
					<trkpt lat="44.461590" lon="5.594860">
						<ele>1463</ele>
						<time>2026-09-03T11:35:50Z</time>
					</trkpt>
					<trkpt lat="44.462140" lon="5.593880">
						<ele>1471</ele>
						<time>2026-09-03T11:36:34Z</time>
					</trkpt>
					<trkpt lat="44.462570" lon="5.592850">
						<ele>1471</ele>
						<time>2026-09-03T11:37:17Z</time>
					</trkpt>
					<trkpt lat="44.462810" lon="5.592340">
						<ele>1472</ele>
						<time>2026-09-03T11:37:39Z</time>
					</trkpt>
					<trkpt lat="44.463060" lon="5.591640">
						<ele>1470</ele>
						<time>2026-09-03T11:38:07Z</time>
					</trkpt>
					<trkpt lat="44.463620" lon="5.590470">
						<ele>1467</ele>
						<time>2026-09-03T11:38:57Z</time>
					</trkpt>
					<trkpt lat="44.463870" lon="5.590050">
						<ele>1465</ele>
						<time>2026-09-03T11:39:17Z</time>
					</trkpt>
					<trkpt lat="44.463950" lon="5.589960">
						<ele>1465</ele>
						<time>2026-09-03T11:39:22Z</time>
					</trkpt>
					<trkpt lat="44.464420" lon="5.589710">
						<ele>1478</ele>
						<time>2026-09-03T11:39:47Z</time>
					</trkpt>
					<trkpt lat="44.464540" lon="5.589620">
						<ele>1480</ele>
						<time>2026-09-03T11:39:54Z</time>
					</trkpt>
					<trkpt lat="44.464580" lon="5.589550">
						<ele>1481</ele>
						<time>2026-09-03T11:39:57Z</time>
					</trkpt>
					<trkpt lat="44.464580" lon="5.589230">
						<ele>1474</ele>
						<time>2026-09-03T11:40:08Z</time>
					</trkpt>
					<trkpt lat="44.464520" lon="5.589040">
						<ele>1469</ele>
						<time>2026-09-03T11:40:16Z</time>
					</trkpt>
					<trkpt lat="44.464290" lon="5.588530">
						<ele>1454</ele>
						<time>2026-09-03T11:40:37Z</time>
					</trkpt>
					<trkpt lat="44.464260" lon="5.588410">
						<ele>1452</ele>
						<time>2026-09-03T11:40:42Z</time>
					</trkpt>
					<trkpt lat="44.464280" lon="5.588240">
						<ele>1449</ele>
						<time>2026-09-03T11:40:48Z</time>
					</trkpt>
					<trkpt lat="44.464710" lon="5.587520">
						<ele>1452</ele>
						<time>2026-09-03T11:41:21Z</time>
					</trkpt>
					<trkpt lat="44.464930" lon="5.587230">
						<ele>1453</ele>
						<time>2026-09-03T11:41:37Z</time>
					</trkpt>
					<trkpt lat="44.465020" lon="5.587050">
						<ele>1449</ele>
						<time>2026-09-03T11:41:44Z</time>
					</trkpt>
					<trkpt lat="44.465120" lon="5.586920">
						<ele>1448</ele>
						<time>2026-09-03T11:41:51Z</time>
					</trkpt>
					<trkpt lat="44.465400" lon="5.586280">
						<ele>1437</ele>
						<time>2026-09-03T11:42:18Z</time>
					</trkpt>
					<trkpt lat="44.465560" lon="5.586040">
						<ele>1437</ele>
						<time>2026-09-03T11:42:30Z</time>
					</trkpt>
					<trkpt lat="44.465680" lon="5.585780">
						<ele>1433</ele>
						<time>2026-09-03T11:42:41Z</time>
					</trkpt>
					<trkpt lat="44.465900" lon="5.585500">
						<ele>1429</ele>
						<time>2026-09-03T11:42:56Z</time>
					</trkpt>
					<trkpt lat="44.466020" lon="5.585470">
						<ele>1432</ele>
						<time>2026-09-03T11:43:02Z</time>
					</trkpt>
					<trkpt lat="44.466370" lon="5.585180">
						<ele>1433</ele>
						<time>2026-09-03T11:43:22Z</time>
					</trkpt>
					<trkpt lat="44.466470" lon="5.585130">
						<ele>1435</ele>
						<time>2026-09-03T11:43:27Z</time>
					</trkpt>
					<trkpt lat="44.466600" lon="5.584960">
						<ele>1434</ele>
						<time>2026-09-03T11:43:36Z</time>
					</trkpt>
					<trkpt lat="44.466600" lon="5.584800">
						<ele>1428</ele>
						<time>2026-09-03T11:43:42Z</time>
					</trkpt>
					<trkpt lat="44.466680" lon="5.584570">
						<ele>1423</ele>
						<time>2026-09-03T11:43:51Z</time>
					</trkpt>
					<trkpt lat="44.466680" lon="5.584480">
						<ele>1420</ele>
						<time>2026-09-03T11:43:54Z</time>
					</trkpt>
					<trkpt lat="44.466940" lon="5.584020">
						<ele>1419</ele>
						<time>2026-09-03T11:44:15Z</time>
					</trkpt>
					<trkpt lat="44.467180" lon="5.583460">
						<ele>1417</ele>
						<time>2026-09-03T11:44:39Z</time>
					</trkpt>
					<trkpt lat="44.467190" lon="5.583380">
						<ele>1415</ele>
						<time>2026-09-03T11:44:42Z</time>
					</trkpt>
					<trkpt lat="44.467270" lon="5.583260">
						<ele>1416</ele>
						<time>2026-09-03T11:44:48Z</time>
					</trkpt>
					<trkpt lat="44.467310" lon="5.583110">
						<ele>1415</ele>
						<time>2026-09-03T11:44:53Z</time>
					</trkpt>
					<trkpt lat="44.467370" lon="5.583030">
						<ele>1416</ele>
						<time>2026-09-03T11:44:57Z</time>
					</trkpt>
					<trkpt lat="44.467470" lon="5.582660">
						<ele>1413</ele>
						<time>2026-09-03T11:45:12Z</time>
					</trkpt>
					<trkpt lat="44.467490" lon="5.582490">
						<ele>1409</ele>
						<time>2026-09-03T11:45:18Z</time>
					</trkpt>
					<trkpt lat="44.467650" lon="5.582150">
						<ele>1412</ele>
						<time>2026-09-03T11:45:32Z</time>
					</trkpt>
					<trkpt lat="44.467660" lon="5.582020">
						<ele>1409</ele>
						<time>2026-09-03T11:45:37Z</time>
					</trkpt>
					<trkpt lat="44.467800" lon="5.581650">
						<ele>1408</ele>
						<time>2026-09-03T11:45:52Z</time>
					</trkpt>
					<trkpt lat="44.467890" lon="5.581320">
						<ele>1405</ele>
						<time>2026-09-03T11:46:04Z</time>
					</trkpt>
					<trkpt lat="44.467890" lon="5.581110">
						<ele>1399</ele>
						<time>2026-09-03T11:46:12Z</time>
					</trkpt>
					<trkpt lat="44.467990" lon="5.580760">
						<ele>1396</ele>
						<time>2026-09-03T11:46:25Z</time>
					</trkpt>
					<trkpt lat="44.468020" lon="5.580330">
						<ele>1388</ele>
						<time>2026-09-03T11:46:41Z</time>
					</trkpt>
					<trkpt lat="44.468130" lon="5.579730">
						<ele>1380</ele>
						<time>2026-09-03T11:47:03Z</time>
					</trkpt>
					<trkpt lat="44.468150" lon="5.579470">
						<ele>1375</ele>
						<time>2026-09-03T11:47:12Z</time>
					</trkpt>
					<trkpt lat="44.468770" lon="5.577730">
						<ele>1365</ele>
						<time>2026-09-03T11:48:22Z</time>
					</trkpt>
					<trkpt lat="44.469030" lon="5.577110">
						<ele>1362</ele>
						<time>2026-09-03T11:48:47Z</time>
					</trkpt>
					<trkpt lat="44.469250" lon="5.576450">
						<ele>1355</ele>
						<time>2026-09-03T11:49:13Z</time>
					</trkpt>
					<trkpt lat="44.469320" lon="5.576330">
						<ele>1356</ele>
						<time>2026-09-03T11:49:19Z</time>
					</trkpt>
					<trkpt lat="44.469350" lon="5.576130">
						<ele>1352</ele>
						<time>2026-09-03T11:49:26Z</time>
					</trkpt>
					<trkpt lat="44.469750" lon="5.575060">
						<ele>1343</ele>
						<time>2026-09-03T11:50:09Z</time>
					</trkpt>
					<trkpt lat="44.469900" lon="5.574750">
						<ele>1342</ele>
						<time>2026-09-03T11:50:23Z</time>
					</trkpt>
					<trkpt lat="44.470360" lon="5.573970">
						<ele>1341</ele>
						<time>2026-09-03T11:50:59Z</time>
					</trkpt>
					<trkpt lat="44.470700" lon="5.573340">
						<ele>1337</ele>
						<time>2026-09-03T11:51:27Z</time>
					</trkpt>
					<trkpt lat="44.471580" lon="5.571940">
						<ele>1326</ele>
						<time>2026-09-03T11:52:34Z</time>
					</trkpt>
					<trkpt lat="44.471870" lon="5.571580">
						<ele>1325</ele>
						<time>2026-09-03T11:52:53Z</time>
					</trkpt>
					<trkpt lat="44.472420" lon="5.570750">
						<ele>1315</ele>
						<time>2026-09-03T11:53:34Z</time>
					</trkpt>
					<trkpt lat="44.472970" lon="5.570010">
						<ele>1305</ele>
						<time>2026-09-03T11:54:12Z</time>
					</trkpt>
					<trkpt lat="44.473250" lon="5.569560">
						<ele>1299</ele>
						<time>2026-09-03T11:54:33Z</time>
					</trkpt>
					<trkpt lat="44.474070" lon="5.568630">
						<ele>1290</ele>
						<time>2026-09-03T11:55:26Z</time>
					</trkpt>
					<trkpt lat="44.474480" lon="5.568230">
						<ele>1287</ele>
						<time>2026-09-03T11:55:51Z</time>
					</trkpt>
					<trkpt lat="44.474520" lon="5.568130">
						<ele>1285</ele>
						<time>2026-09-03T11:55:55Z</time>
					</trkpt>
					<trkpt lat="44.474500" lon="5.568090">
						<ele>1284</ele>
						<time>2026-09-03T11:55:57Z</time>
					</trkpt>
					<trkpt lat="44.474410" lon="5.568080">
						<ele>1282</ele>
						<time>2026-09-03T11:56:01Z</time>
					</trkpt>
					<trkpt lat="44.474080" lon="5.568190">
						<ele>1279</ele>
						<time>2026-09-03T11:56:18Z</time>
					</trkpt>
					<trkpt lat="44.473700" lon="5.568280">
						<ele>1275</ele>
						<time>2026-09-03T11:56:37Z</time>
					</trkpt>
					<trkpt lat="44.473380" lon="5.568400">
						<ele>1272</ele>
						<time>2026-09-03T11:56:54Z</time>
					</trkpt>
					<trkpt lat="44.472770" lon="5.568540">
						<ele>1266</ele>
						<time>2026-09-03T11:57:25Z</time>
					</trkpt>
					<trkpt lat="44.472140" lon="5.568730">
						<ele>1261</ele>
						<time>2026-09-03T11:57:57Z</time>
					</trkpt>
					<trkpt lat="44.471750" lon="5.568800">
						<ele>1259</ele>
						<time>2026-09-03T11:58:17Z</time>
					</trkpt>
					<trkpt lat="44.471570" lon="5.568910">
						<ele>1260</ele>
						<time>2026-09-03T11:58:27Z</time>
					</trkpt>
					<trkpt lat="44.471430" lon="5.568950">
						<ele>1260</ele>
						<time>2026-09-03T11:58:34Z</time>
					</trkpt>
					<trkpt lat="44.471340" lon="5.568960">
						<ele>1259</ele>
						<time>2026-09-03T11:58:38Z</time>
					</trkpt>
					<trkpt lat="44.471220" lon="5.568890">
						<ele>1258</ele>
						<time>2026-09-03T11:58:45Z</time>
					</trkpt>
					<trkpt lat="44.470990" lon="5.569030">
						<ele>1258</ele>
						<time>2026-09-03T11:58:57Z</time>
					</trkpt>
					<trkpt lat="44.469380" lon="5.569800">
						<ele>1257</ele>
						<time>2026-09-03T12:00:23Z</time>
					</trkpt>
					<trkpt lat="44.469210" lon="5.569810">
						<ele>1257</ele>
						<time>2026-09-03T12:00:31Z</time>
					</trkpt>
					<trkpt lat="44.468430" lon="5.569760">
						<ele>1256</ele>
						<time>2026-09-03T12:01:10Z</time>
					</trkpt>
					<trkpt lat="44.468050" lon="5.569770">
						<ele>1256</ele>
						<time>2026-09-03T12:01:29Z</time>
					</trkpt>
					<trkpt lat="44.467680" lon="5.569670">
						<ele>1260</ele>
						<time>2026-09-03T12:01:48Z</time>
					</trkpt>
					<trkpt lat="44.466600" lon="5.569730">
						<ele>1253</ele>
						<time>2026-09-03T12:02:42Z</time>
					</trkpt>
					<trkpt lat="44.465770" lon="5.569840">
						<ele>1246</ele>
						<time>2026-09-03T12:03:24Z</time>
					</trkpt>
					<trkpt lat="44.465720" lon="5.569800">
						<ele>1246</ele>
						<time>2026-09-03T12:03:27Z</time>
					</trkpt>
					<trkpt lat="44.465680" lon="5.569810">
						<ele>1246</ele>
						<time>2026-09-03T12:03:29Z</time>
					</trkpt>
					<trkpt lat="44.465650" lon="5.569790">
						<ele>1246</ele>
						<time>2026-09-03T12:03:30Z</time>
					</trkpt>
					<trkpt lat="44.465570" lon="5.569510">
						<ele>1247</ele>
						<time>2026-09-03T12:03:41Z</time>
					</trkpt>
					<trkpt lat="44.465540" lon="5.569470">
						<ele>1247</ele>
						<time>2026-09-03T12:03:43Z</time>
					</trkpt>
					<trkpt lat="44.465420" lon="5.569410">
						<ele>1246</ele>
						<time>2026-09-03T12:03:50Z</time>
					</trkpt>
					<trkpt lat="44.465370" lon="5.569260">
						<ele>1244</ele>
						<time>2026-09-03T12:03:56Z</time>
					</trkpt>
					<trkpt lat="44.465370" lon="5.569210">
						<ele>1244</ele>
						<time>2026-09-03T12:03:57Z</time>
					</trkpt>
					<trkpt lat="44.465410" lon="5.569140">
						<ele>1244</ele>
						<time>2026-09-03T12:04:01Z</time>
					</trkpt>
					<trkpt lat="44.465210" lon="5.568950">
						<ele>1236</ele>
						<time>2026-09-03T12:04:13Z</time>
					</trkpt>
					<trkpt lat="44.465120" lon="5.568920">
						<ele>1234</ele>
						<time>2026-09-03T12:04:17Z</time>
					</trkpt>
					<trkpt lat="44.464970" lon="5.568930">
						<ele>1231</ele>
						<time>2026-09-03T12:04:25Z</time>
					</trkpt>
					<trkpt lat="44.464910" lon="5.568890">
						<ele>1228</ele>
						<time>2026-09-03T12:04:28Z</time>
					</trkpt>
					<trkpt lat="44.464830" lon="5.568450">
						<ele>1215</ele>
						<time>2026-09-03T12:04:44Z</time>
					</trkpt>
					<trkpt lat="44.464760" lon="5.568420">
						<ele>1213</ele>
						<time>2026-09-03T12:04:48Z</time>
					</trkpt>
					<trkpt lat="44.464430" lon="5.568400">
						<ele>1203</ele>
						<time>2026-09-03T12:05:05Z</time>
					</trkpt>
					<trkpt lat="44.464370" lon="5.568330">
						<ele>1200</ele>
						<time>2026-09-03T12:05:08Z</time>
					</trkpt>
					<trkpt lat="44.464310" lon="5.568100">
						<ele>1192</ele>
						<time>2026-09-03T12:05:17Z</time>
					</trkpt>
					<trkpt lat="44.464360" lon="5.567930">
						<ele>1189</ele>
						<time>2026-09-03T12:05:24Z</time>
					</trkpt>
					<trkpt lat="44.464400" lon="5.567870">
						<ele>1189</ele>
						<time>2026-09-03T12:05:27Z</time>
					</trkpt>
					<trkpt lat="44.464590" lon="5.567720">
						<ele>1189</ele>
						<time>2026-09-03T12:05:38Z</time>
					</trkpt>
					<trkpt lat="44.464590" lon="5.567660">
						<ele>1188</ele>
						<time>2026-09-03T12:05:40Z</time>
					</trkpt>
					<trkpt lat="44.464550" lon="5.567620">
						<ele>1186</ele>
						<time>2026-09-03T12:05:42Z</time>
					</trkpt>
					<trkpt lat="44.464230" lon="5.567470">
						<ele>1176</ele>
						<time>2026-09-03T12:05:59Z</time>
					</trkpt>
					<trkpt lat="44.463990" lon="5.567450">
						<ele>1169</ele>
						<time>2026-09-03T12:06:11Z</time>
					</trkpt>
					<trkpt lat="44.463890" lon="5.567380">
						<ele>1165</ele>
						<time>2026-09-03T12:06:17Z</time>
					</trkpt>
					<trkpt lat="44.463780" lon="5.567260">
						<ele>1161</ele>
						<time>2026-09-03T12:06:24Z</time>
					</trkpt>
					<trkpt lat="44.463400" lon="5.566620">
						<ele>1146</ele>
						<time>2026-09-03T12:06:53Z</time>
					</trkpt>
					<trkpt lat="44.463300" lon="5.566540">
						<ele>1142</ele>
						<time>2026-09-03T12:06:59Z</time>
					</trkpt>
					<trkpt lat="44.463190" lon="5.566390">
						<ele>1136</ele>
						<time>2026-09-03T12:07:07Z</time>
					</trkpt>
					<trkpt lat="44.463090" lon="5.566140">
						<ele>1129</ele>
						<time>2026-09-03T12:07:17Z</time>
					</trkpt>
					<trkpt lat="44.463040" lon="5.566080">
						<ele>1127</ele>
						<time>2026-09-03T12:07:20Z</time>
					</trkpt>
					<trkpt lat="44.462960" lon="5.566050">
						<ele>1124</ele>
						<time>2026-09-03T12:07:25Z</time>
					</trkpt>
					<trkpt lat="44.462880" lon="5.565960">
						<ele>1121</ele>
						<time>2026-09-03T12:07:30Z</time>
					</trkpt>
					<trkpt lat="44.462840" lon="5.565890">
						<ele>1119</ele>
						<time>2026-09-03T12:07:33Z</time>
					</trkpt>
					<trkpt lat="44.462800" lon="5.565690">
						<ele>1115</ele>
						<time>2026-09-03T12:07:40Z</time>
					</trkpt>
					<trkpt lat="44.462740" lon="5.565580">
						<ele>1112</ele>
						<time>2026-09-03T12:07:45Z</time>
					</trkpt>
					<trkpt lat="44.462650" lon="5.565570">
						<ele>1110</ele>
						<time>2026-09-03T12:07:50Z</time>
					</trkpt>
					<trkpt lat="44.462570" lon="5.565680">
						<ele>1110</ele>
						<time>2026-09-03T12:07:55Z</time>
					</trkpt>
					<trkpt lat="44.462540" lon="5.565830">
						<ele>1112</ele>
						<time>2026-09-03T12:08:01Z</time>
					</trkpt>
					<trkpt lat="44.462550" lon="5.565950">
						<ele>1112</ele>
						<time>2026-09-03T12:08:05Z</time>
					</trkpt>
					<trkpt lat="44.462510" lon="5.566020">
						<ele>1111</ele>
						<time>2026-09-03T12:08:08Z</time>
					</trkpt>
					<trkpt lat="44.462470" lon="5.566020">
						<ele>1109</ele>
						<time>2026-09-03T12:08:10Z</time>
					</trkpt>
					<trkpt lat="44.462360" lon="5.565930">
						<ele>1104</ele>
						<time>2026-09-03T12:08:17Z</time>
					</trkpt>
					<trkpt lat="44.462240" lon="5.565310">
						<ele>1090</ele>
						<time>2026-09-03T12:08:40Z</time>
					</trkpt>
					<trkpt lat="44.462240" lon="5.564890">
						<ele>1081</ele>
						<time>2026-09-03T12:08:55Z</time>
					</trkpt>
					<trkpt lat="44.462270" lon="5.564580">
						<ele>1072</ele>
						<time>2026-09-03T12:09:06Z</time>
					</trkpt>
					<trkpt lat="44.462220" lon="5.564510">
						<ele>1068</ele>
						<time>2026-09-03T12:09:09Z</time>
					</trkpt>
					<trkpt lat="44.462130" lon="5.564450">
						<ele>1062</ele>
						<time>2026-09-03T12:09:14Z</time>
					</trkpt>
					<trkpt lat="44.461450" lon="5.564880">
						<ele>1045</ele>
						<time>2026-09-03T12:09:52Z</time>
					</trkpt>
					<trkpt lat="44.461130" lon="5.565330">
						<ele>1037</ele>
						<time>2026-09-03T12:10:14Z</time>
					</trkpt>
					<trkpt lat="44.460970" lon="5.565240">
						<ele>1028</ele>
						<time>2026-09-03T12:10:23Z</time>
					</trkpt>
					<trkpt lat="44.461110" lon="5.564630">
						<ele>1024</ele>
						<time>2026-09-03T12:10:46Z</time>
					</trkpt>
					<trkpt lat="44.461330" lon="5.564170">
						<ele>1025</ele>
						<time>2026-09-03T12:11:06Z</time>
					</trkpt>
					<trkpt lat="44.461450" lon="5.563440">
						<ele>1009</ele>
						<time>2026-09-03T12:11:33Z</time>
					</trkpt>
					<trkpt lat="44.461660" lon="5.563130">
						<ele>1006</ele>
						<time>2026-09-03T12:11:48Z</time>
					</trkpt>
					<trkpt lat="44.461640" lon="5.563020">
						<ele>1003</ele>
						<time>2026-09-03T12:11:52Z</time>
					</trkpt>
					<trkpt lat="44.461510" lon="5.563030">
						<ele>1000</ele>
						<time>2026-09-03T12:11:58Z</time>
					</trkpt>
					<trkpt lat="44.461390" lon="5.563230">
						<ele>1001</ele>
						<time>2026-09-03T12:12:08Z</time>
					</trkpt>
					<trkpt lat="44.461280" lon="5.563510">
						<ele>1005</ele>
						<time>2026-09-03T12:12:19Z</time>
					</trkpt>
					<trkpt lat="44.461100" lon="5.563790">
						<ele>1006</ele>
						<time>2026-09-03T12:12:33Z</time>
					</trkpt>
					<trkpt lat="44.461000" lon="5.563890">
						<ele>1004</ele>
						<time>2026-09-03T12:12:39Z</time>
					</trkpt>
					<trkpt lat="44.460840" lon="5.564160">
						<ele>1003</ele>
						<time>2026-09-03T12:12:51Z</time>
					</trkpt>
					<trkpt lat="44.460680" lon="5.564610">
						<ele>1011</ele>
						<time>2026-09-03T12:13:09Z</time>
					</trkpt>
					<trkpt lat="44.460620" lon="5.564670">
						<ele>1012</ele>
						<time>2026-09-03T12:13:13Z</time>
					</trkpt>
					<trkpt lat="44.460600" lon="5.564570">
						<ele>1011</ele>
						<time>2026-09-03T12:13:17Z</time>
					</trkpt>
					<trkpt lat="44.461000" lon="5.562800">
						<ele>983</ele>
						<time>2026-09-03T12:14:23Z</time>
					</trkpt>
					<trkpt lat="44.460950" lon="5.562260">
						<ele>977</ele>
						<time>2026-09-03T12:14:42Z</time>
					</trkpt>
					<trkpt lat="44.460760" lon="5.561820">
						<ele>974</ele>
						<time>2026-09-03T12:15:01Z</time>
					</trkpt>
					<trkpt lat="44.460410" lon="5.561500">
						<ele>970</ele>
						<time>2026-09-03T12:15:22Z</time>
					</trkpt>
					<trkpt lat="44.460290" lon="5.561510">
						<ele>969</ele>
						<time>2026-09-03T12:15:28Z</time>
					</trkpt>
					<trkpt lat="44.460220" lon="5.561490">
						<ele>968</ele>
						<time>2026-09-03T12:15:31Z</time>
					</trkpt>
					<trkpt lat="44.460180" lon="5.561430">
						<ele>967</ele>
						<time>2026-09-03T12:15:34Z</time>
					</trkpt>
					<trkpt lat="44.460180" lon="5.561210">
						<ele>967</ele>
						<time>2026-09-03T12:15:42Z</time>
					</trkpt>
					<trkpt lat="44.460150" lon="5.561130">
						<ele>967</ele>
						<time>2026-09-03T12:15:45Z</time>
					</trkpt>
					<trkpt lat="44.459790" lon="5.560700">
						<ele>963</ele>
						<time>2026-09-03T12:16:09Z</time>
					</trkpt>
					<trkpt lat="44.459390" lon="5.560400">
						<ele>957</ele>
						<time>2026-09-03T12:16:32Z</time>
					</trkpt>
					<trkpt lat="44.459310" lon="5.560300">
						<ele>955</ele>
						<time>2026-09-03T12:16:37Z</time>
					</trkpt>
					<trkpt lat="44.459240" lon="5.559660">
						<ele>946</ele>
						<time>2026-09-03T12:17:00Z</time>
					</trkpt>
					<trkpt lat="44.459370" lon="5.559370">
						<ele>949</ele>
						<time>2026-09-03T12:17:12Z</time>
					</trkpt>
					<trkpt lat="44.459420" lon="5.559030">
						<ele>952</ele>
						<time>2026-09-03T12:17:25Z</time>
					</trkpt>
					<trkpt lat="44.459320" lon="5.558900">
						<ele>948</ele>
						<time>2026-09-03T12:17:32Z</time>
					</trkpt>
					<trkpt lat="44.459230" lon="5.558640">
						<ele>947</ele>
						<time>2026-09-03T12:17:42Z</time>
					</trkpt>
					<trkpt lat="44.459020" lon="5.558320">
						<ele>943</ele>
						<time>2026-09-03T12:17:57Z</time>
					</trkpt>
					<trkpt lat="44.458920" lon="5.558220">
						<ele>942</ele>
						<time>2026-09-03T12:18:04Z</time>
					</trkpt>
					<trkpt lat="44.458850" lon="5.558040">
						<ele>941</ele>
						<time>2026-09-03T12:18:11Z</time>
					</trkpt>
					<trkpt lat="44.458790" lon="5.557990">
						<ele>940</ele>
						<time>2026-09-03T12:18:14Z</time>
					</trkpt>
					<trkpt lat="44.458660" lon="5.557960">
						<ele>936</ele>
						<time>2026-09-03T12:18:21Z</time>
					</trkpt>
					<trkpt lat="44.458580" lon="5.557900">
						<ele>933</ele>
						<time>2026-09-03T12:18:26Z</time>
					</trkpt>
					<trkpt lat="44.458460" lon="5.557730">
						<ele>929</ele>
						<time>2026-09-03T12:18:34Z</time>
					</trkpt>
					<trkpt lat="44.458390" lon="5.557610">
						<ele>926</ele>
						<time>2026-09-03T12:18:40Z</time>
					</trkpt>
					<trkpt lat="44.458270" lon="5.557200">
						<ele>920</ele>
						<time>2026-09-03T12:18:55Z</time>
					</trkpt>
					<trkpt lat="44.458310" lon="5.557020">
						<ele>917</ele>
						<time>2026-09-03T12:19:02Z</time>
					</trkpt>
					<trkpt lat="44.458390" lon="5.556930">
						<ele>918</ele>
						<time>2026-09-03T12:19:07Z</time>
					</trkpt>
					<trkpt lat="44.458520" lon="5.556840">
						<ele>924</ele>
						<time>2026-09-03T12:19:15Z</time>
					</trkpt>
					<trkpt lat="44.458560" lon="5.556770">
						<ele>925</ele>
						<time>2026-09-03T12:19:18Z</time>
					</trkpt>
					<trkpt lat="44.458640" lon="5.556090">
						<ele>917</ele>
						<time>2026-09-03T12:19:42Z</time>
					</trkpt>
					<trkpt lat="44.458610" lon="5.555810">
						<ele>911</ele>
						<time>2026-09-03T12:19:52Z</time>
					</trkpt>
					<trkpt lat="44.458660" lon="5.555560">
						<ele>915</ele>
						<time>2026-09-03T12:20:02Z</time>
					</trkpt>
					<trkpt lat="44.458440" lon="5.555360">
						<ele>906</ele>
						<time>2026-09-03T12:20:15Z</time>
					</trkpt>
					<trkpt lat="44.458160" lon="5.554600">
						<ele>906</ele>
						<time>2026-09-03T12:20:45Z</time>
					</trkpt>
					<trkpt lat="44.458040" lon="5.554490">
						<ele>904</ele>
						<time>2026-09-03T12:20:53Z</time>
					</trkpt>
					<trkpt lat="44.457950" lon="5.554360">
						<ele>902</ele>
						<time>2026-09-03T12:20:59Z</time>
					</trkpt>
					<trkpt lat="44.457830" lon="5.554010">
						<ele>898</ele>
						<time>2026-09-03T12:21:13Z</time>
					</trkpt>
					<trkpt lat="44.457610" lon="5.553520">
						<ele>888</ele>
						<time>2026-09-03T12:21:34Z</time>
					</trkpt>
					<trkpt lat="44.457500" lon="5.553350">
						<ele>882</ele>
						<time>2026-09-03T12:21:42Z</time>
					</trkpt>
					<trkpt lat="44.457420" lon="5.553290">
						<ele>882</ele>
						<time>2026-09-03T12:21:46Z</time>
					</trkpt>
					<trkpt lat="44.457320" lon="5.553160">
						<ele>883</ele>
						<time>2026-09-03T12:21:53Z</time>
					</trkpt>
					<trkpt lat="44.457260" lon="5.553010">
						<ele>883</ele>
						<time>2026-09-03T12:21:59Z</time>
					</trkpt>
					<trkpt lat="44.457240" lon="5.552640">
						<ele>882</ele>
						<time>2026-09-03T12:22:13Z</time>
					</trkpt>
					<trkpt lat="44.457200" lon="5.552530">
						<ele>881</ele>
						<time>2026-09-03T12:22:17Z</time>
					</trkpt>
					<trkpt lat="44.456960" lon="5.552230">
						<ele>877</ele>
						<time>2026-09-03T12:22:33Z</time>
					</trkpt>
					<trkpt lat="44.456880" lon="5.552000">
						<ele>874</ele>
						<time>2026-09-03T12:22:42Z</time>
					</trkpt>
					<trkpt lat="44.456720" lon="5.551740">
						<ele>868</ele>
						<time>2026-09-03T12:22:54Z</time>
					</trkpt>
					<trkpt lat="44.456610" lon="5.551430">
						<ele>869</ele>
						<time>2026-09-03T12:23:07Z</time>
					</trkpt>
					<trkpt lat="44.456270" lon="5.550860">
						<ele>867</ele>
						<time>2026-09-03T12:23:33Z</time>
					</trkpt>
					<trkpt lat="44.456030" lon="5.550300">
						<ele>860</ele>
						<time>2026-09-03T12:23:57Z</time>
					</trkpt>
					<trkpt lat="44.455920" lon="5.549910">
						<ele>856</ele>
						<time>2026-09-03T12:24:12Z</time>
					</trkpt>
					<trkpt lat="44.455680" lon="5.549460">
						<ele>857</ele>
						<time>2026-09-03T12:24:32Z</time>
					</trkpt>
					<trkpt lat="44.455330" lon="5.548630">
						<ele>850</ele>
						<time>2026-09-03T12:25:06Z</time>
					</trkpt>
					<trkpt lat="44.455110" lon="5.548530">
						<ele>841</ele>
						<time>2026-09-03T12:25:18Z</time>
					</trkpt>
					<trkpt lat="44.455030" lon="5.548440">
						<ele>838</ele>
						<time>2026-09-03T12:25:23Z</time>
					</trkpt>
					<trkpt lat="44.454940" lon="5.547120">
						<ele>833</ele>
						<time>2026-09-03T12:26:10Z</time>
					</trkpt>
					<trkpt lat="44.454910" lon="5.546990">
						<ele>832</ele>
						<time>2026-09-03T12:26:15Z</time>
					</trkpt>
					<trkpt lat="44.454770" lon="5.546710">
						<ele>829</ele>
						<time>2026-09-03T12:26:27Z</time>
					</trkpt>
					<trkpt lat="44.454650" lon="5.546380">
						<ele>829</ele>
						<time>2026-09-03T12:26:41Z</time>
					</trkpt>
					<trkpt lat="44.454580" lon="5.546240">
						<ele>829</ele>
						<time>2026-09-03T12:26:47Z</time>
					</trkpt>
					<trkpt lat="44.454310" lon="5.545940">
						<ele>824</ele>
						<time>2026-09-03T12:27:04Z</time>
					</trkpt>
					<trkpt lat="44.453960" lon="5.545740">
						<ele>818</ele>
						<time>2026-09-03T12:27:23Z</time>
					</trkpt>
					<trkpt lat="44.453870" lon="5.545660">
						<ele>817</ele>
						<time>2026-09-03T12:27:28Z</time>
					</trkpt>
					<trkpt lat="44.453710" lon="5.545280">
						<ele>816</ele>
						<time>2026-09-03T12:27:44Z</time>
					</trkpt>
					<trkpt lat="44.453440" lon="5.544920">
						<ele>810</ele>
						<time>2026-09-03T12:28:03Z</time>
					</trkpt>
					<trkpt lat="44.453390" lon="5.544790">
						<ele>810</ele>
						<time>2026-09-03T12:28:08Z</time>
					</trkpt>
					<trkpt lat="44.453400" lon="5.544690">
						<ele>810</ele>
						<time>2026-09-03T12:28:11Z</time>
					</trkpt>
					<trkpt lat="44.453480" lon="5.544480">
						<ele>813</ele>
						<time>2026-09-03T12:28:20Z</time>
					</trkpt>
					<trkpt lat="44.453540" lon="5.544390">
						<ele>815</ele>
						<time>2026-09-03T12:28:24Z</time>
					</trkpt>
					<trkpt lat="44.453550" lon="5.544240">
						<ele>815</ele>
						<time>2026-09-03T12:28:30Z</time>
					</trkpt>
					<trkpt lat="44.453520" lon="5.544210">
						<ele>815</ele>
						<time>2026-09-03T12:28:32Z</time>
					</trkpt>
					<trkpt lat="44.453440" lon="5.544210">
						<ele>813</ele>
						<time>2026-09-03T12:28:36Z</time>
					</trkpt>
					<trkpt lat="44.453400" lon="5.544250">
						<ele>812</ele>
						<time>2026-09-03T12:28:38Z</time>
					</trkpt>
					<trkpt lat="44.453100" lon="5.545040">
						<ele>804</ele>
						<time>2026-09-03T12:29:10Z</time>
					</trkpt>
					<trkpt lat="44.453040" lon="5.545100">
						<ele>804</ele>
						<time>2026-09-03T12:29:14Z</time>
					</trkpt>
					<trkpt lat="44.453000" lon="5.545100">
						<ele>803</ele>
						<time>2026-09-03T12:29:16Z</time>
					</trkpt>
					<trkpt lat="44.452770" lon="5.544940">
						<ele>800</ele>
						<time>2026-09-03T12:29:29Z</time>
					</trkpt>
					<trkpt lat="44.452650" lon="5.544820">
						<ele>799</ele>
						<time>2026-09-03T12:29:36Z</time>
					</trkpt>
					<trkpt lat="44.452460" lon="5.544610">
						<ele>798</ele>
						<time>2026-09-03T12:29:48Z</time>
					</trkpt>
					<trkpt lat="44.452080" lon="5.544110">
						<ele>796</ele>
						<time>2026-09-03T12:30:14Z</time>
					</trkpt>
					<trkpt lat="44.451990" lon="5.544030">
						<ele>796</ele>
						<time>2026-09-03T12:30:20Z</time>
					</trkpt>
					<trkpt lat="44.451910" lon="5.544000">
						<ele>795</ele>
						<time>2026-09-03T12:30:24Z</time>
					</trkpt>
					<trkpt lat="44.451680" lon="5.543810">
						<ele>794</ele>
						<time>2026-09-03T12:30:37Z</time>
					</trkpt>
					<trkpt lat="44.451240" lon="5.543620">
						<ele>790</ele>
						<time>2026-09-03T12:31:00Z</time>
					</trkpt>
					<trkpt lat="44.451010" lon="5.543540">
						<ele>787</ele>
						<time>2026-09-03T12:31:12Z</time>
					</trkpt>
					<trkpt lat="44.450600" lon="5.543450">
						<ele>783</ele>
						<time>2026-09-03T12:31:33Z</time>
					</trkpt>
					<trkpt lat="44.450470" lon="5.543360">
						<ele>782</ele>
						<time>2026-09-03T12:31:40Z</time>
					</trkpt>
					<trkpt lat="44.450190" lon="5.543090">
						<ele>779</ele>
						<time>2026-09-03T12:31:57Z</time>
					</trkpt>
					<trkpt lat="44.450410" lon="5.542460">
						<ele>783</ele>
						<time>2026-09-03T12:32:22Z</time>
					</trkpt>
					<trkpt lat="44.451120" lon="5.540160">
						<ele>774</ele>
						<time>2026-09-03T12:33:52Z</time>
					</trkpt>
					<trkpt lat="44.451180" lon="5.539880">
						<ele>772</ele>
						<time>2026-09-03T12:34:02Z</time>
					</trkpt>
					<trkpt lat="44.451400" lon="5.537520">
						<ele>759</ele>
						<time>2026-09-03T12:35:27Z</time>
					</trkpt>
					<trkpt lat="44.451130" lon="5.537450">
						<ele>757</ele>
						<time>2026-09-03T12:35:41Z</time>
					</trkpt>
					<trkpt lat="44.450290" lon="5.536970">
						<ele>756</ele>
						<time>2026-09-03T12:36:26Z</time>
					</trkpt>
					<trkpt lat="44.450260" lon="5.536930">
						<ele>756</ele>
						<time>2026-09-03T12:36:28Z</time>
					</trkpt>
					<trkpt lat="44.450220" lon="5.536410">
						<ele>756</ele>
						<time>2026-09-03T12:36:47Z</time>
					</trkpt>
					<trkpt lat="44.449500" lon="5.533890">
						<ele>760</ele>
						<time>2026-09-03T12:38:24Z</time>
					</trkpt>
					<trkpt lat="44.449450" lon="5.533760">
						<ele>761</ele>
						<time>2026-09-03T12:38:29Z</time>
					</trkpt>
					<trkpt lat="44.449120" lon="5.533220">
						<ele>764</ele>
						<time>2026-09-03T12:38:55Z</time>
					</trkpt>
					<trkpt lat="44.449020" lon="5.532790">
						<ele>765</ele>
						<time>2026-09-03T12:39:11Z</time>
					</trkpt>
					<trkpt lat="44.448740" lon="5.532120">
						<ele>766</ele>
						<time>2026-09-03T12:39:38Z</time>
					</trkpt>
					<trkpt lat="44.448340" lon="5.531320">
						<ele>767</ele>
						<time>2026-09-03T12:40:13Z</time>
					</trkpt>
					<trkpt lat="44.447960" lon="5.530280">
						<ele>771</ele>
						<time>2026-09-03T12:40:55Z</time>
					</trkpt>
					<trkpt lat="44.447750" lon="5.529530">
						<ele>776</ele>
						<time>2026-09-03T12:41:24Z</time>
					</trkpt>
					<trkpt lat="44.447780" lon="5.529010">
						<ele>781</ele>
						<time>2026-09-03T12:41:42Z</time>
					</trkpt>
					<trkpt lat="44.447740" lon="5.528780">
						<ele>784</ele>
						<time>2026-09-03T12:41:51Z</time>
					</trkpt>
					<trkpt lat="44.447530" lon="5.528520">
						<ele>786</ele>
						<time>2026-09-03T12:42:05Z</time>
					</trkpt>
					<trkpt lat="44.447440" lon="5.528230">
						<ele>790</ele>
						<time>2026-09-03T12:42:16Z</time>
					</trkpt>
					<trkpt lat="44.447350" lon="5.528210">
						<ele>791</ele>
						<time>2026-09-03T12:42:21Z</time>
					</trkpt>
					<trkpt lat="44.447270" lon="5.528270">
						<ele>791</ele>
						<time>2026-09-03T12:42:25Z</time>
					</trkpt>
					<trkpt lat="44.447220" lon="5.528420">
						<ele>789</ele>
						<time>2026-09-03T12:42:31Z</time>
					</trkpt>
					<trkpt lat="44.447120" lon="5.528960">
						<ele>785</ele>
						<time>2026-09-03T12:42:51Z</time>
					</trkpt>
					<trkpt lat="44.447050" lon="5.529010">
						<ele>785</ele>
						<time>2026-09-03T12:42:55Z</time>
					</trkpt>
					<trkpt lat="44.446960" lon="5.528980">
						<ele>786</ele>
						<time>2026-09-03T12:43:00Z</time>
					</trkpt>
					<trkpt lat="44.446820" lon="5.528760">
						<ele>789</ele>
						<time>2026-09-03T12:43:10Z</time>
					</trkpt>
					<trkpt lat="44.446520" lon="5.528120">
						<ele>798</ele>
						<time>2026-09-03T12:43:38Z</time>
					</trkpt>
					<trkpt lat="44.446350" lon="5.527690">
						<ele>803</ele>
						<time>2026-09-03T12:43:55Z</time>
					</trkpt>
					<trkpt lat="44.446100" lon="5.527380">
						<ele>807</ele>
						<time>2026-09-03T12:44:12Z</time>
					</trkpt>
					<trkpt lat="44.446080" lon="5.527260">
						<ele>808</ele>
						<time>2026-09-03T12:44:16Z</time>
					</trkpt>
					<trkpt lat="44.446110" lon="5.527130">
						<ele>808</ele>
						<time>2026-09-03T12:44:21Z</time>
					</trkpt>
					<trkpt lat="44.446220" lon="5.527110">
						<ele>808</ele>
						<time>2026-09-03T12:44:27Z</time>
					</trkpt>
					<trkpt lat="44.446290" lon="5.527180">
						<ele>808</ele>
						<time>2026-09-03T12:44:31Z</time>
					</trkpt>
					<trkpt lat="44.446370" lon="5.527340">
						<ele>806</ele>
						<time>2026-09-03T12:44:38Z</time>
					</trkpt>
					<trkpt lat="44.446520" lon="5.527490">
						<ele>804</ele>
						<time>2026-09-03T12:44:47Z</time>
					</trkpt>
					<trkpt lat="44.446700" lon="5.527860">
						<ele>799</ele>
						<time>2026-09-03T12:45:03Z</time>
					</trkpt>
					<trkpt lat="44.446770" lon="5.527890">
						<ele>799</ele>
						<time>2026-09-03T12:45:07Z</time>
					</trkpt>
					<trkpt lat="44.446830" lon="5.527840">
						<ele>799</ele>
						<time>2026-09-03T12:45:10Z</time>
					</trkpt>
					<trkpt lat="44.446860" lon="5.527750">
						<ele>800</ele>
						<time>2026-09-03T12:45:14Z</time>
					</trkpt>
					<trkpt lat="44.446840" lon="5.527650">
						<ele>801</ele>
						<time>2026-09-03T12:45:18Z</time>
					</trkpt>
					<trkpt lat="44.446780" lon="5.527560">
						<ele>803</ele>
						<time>2026-09-03T12:45:22Z</time>
					</trkpt>
					<trkpt lat="44.446700" lon="5.527290">
						<ele>805</ele>
						<time>2026-09-03T12:45:32Z</time>
					</trkpt>
					<trkpt lat="44.446680" lon="5.526950">
						<ele>809</ele>
						<time>2026-09-03T12:45:45Z</time>
					</trkpt>
					<trkpt lat="44.446610" lon="5.526490">
						<ele>814</ele>
						<time>2026-09-03T12:46:01Z</time>
					</trkpt>
					<trkpt lat="44.446620" lon="5.526420">
						<ele>814</ele>
						<time>2026-09-03T12:46:04Z</time>
					</trkpt>
					<trkpt lat="44.446660" lon="5.526340">
						<ele>815</ele>
						<time>2026-09-03T12:46:08Z</time>
					</trkpt>
					<trkpt lat="44.446740" lon="5.526350">
						<ele>816</ele>
						<time>2026-09-03T12:46:12Z</time>
					</trkpt>
					<trkpt lat="44.446790" lon="5.526480">
						<ele>815</ele>
						<time>2026-09-03T12:46:17Z</time>
					</trkpt>
					<trkpt lat="44.446830" lon="5.526700">
						<ele>814</ele>
						<time>2026-09-03T12:46:25Z</time>
					</trkpt>
					<trkpt lat="44.446850" lon="5.526740">
						<ele>813</ele>
						<time>2026-09-03T12:46:27Z</time>
					</trkpt>
					<trkpt lat="44.446930" lon="5.526780">
						<ele>814</ele>
						<time>2026-09-03T12:46:31Z</time>
					</trkpt>
					<trkpt lat="44.447020" lon="5.526670">
						<ele>817</ele>
						<time>2026-09-03T12:46:37Z</time>
					</trkpt>
					<trkpt lat="44.447200" lon="5.526340">
						<ele>821</ele>
						<time>2026-09-03T12:46:52Z</time>
					</trkpt>
					<trkpt lat="44.447380" lon="5.526080">
						<ele>825</ele>
						<time>2026-09-03T12:47:05Z</time>
					</trkpt>
					<trkpt lat="44.447470" lon="5.525900">
						<ele>827</ele>
						<time>2026-09-03T12:47:13Z</time>
					</trkpt>
					<trkpt lat="44.447530" lon="5.525450">
						<ele>831</ele>
						<time>2026-09-03T12:47:29Z</time>
					</trkpt>
					<trkpt lat="44.447690" lon="5.524960">
						<ele>835</ele>
						<time>2026-09-03T12:47:48Z</time>
					</trkpt>
					<trkpt lat="44.447710" lon="5.524860">
						<ele>835</ele>
						<time>2026-09-03T12:47:52Z</time>
					</trkpt>
					<trkpt lat="44.447710" lon="5.524520">
						<ele>835</ele>
						<time>2026-09-03T12:48:04Z</time>
					</trkpt>
					<trkpt lat="44.447660" lon="5.524320">
						<ele>836</ele>
						<time>2026-09-03T12:48:12Z</time>
					</trkpt>
					<trkpt lat="44.447600" lon="5.524250">
						<ele>836</ele>
						<time>2026-09-03T12:48:15Z</time>
					</trkpt>
					<trkpt lat="44.447470" lon="5.524220">
						<ele>838</ele>
						<time>2026-09-03T12:48:22Z</time>
					</trkpt>
					<trkpt lat="44.447260" lon="5.524280">
						<ele>838</ele>
						<time>2026-09-03T12:48:33Z</time>
					</trkpt>
					<trkpt lat="44.447100" lon="5.524240">
						<ele>838</ele>
						<time>2026-09-03T12:48:41Z</time>
					</trkpt>
					<trkpt lat="44.446810" lon="5.523960">
						<ele>840</ele>
						<time>2026-09-03T12:48:59Z</time>
					</trkpt>
					<trkpt lat="44.446630" lon="5.523850">
						<ele>841</ele>
						<time>2026-09-03T12:49:08Z</time>
					</trkpt>
					<trkpt lat="44.446420" lon="5.523640">
						<ele>845</ele>
						<time>2026-09-03T12:49:21Z</time>
					</trkpt>
					<trkpt lat="44.446310" lon="5.523400">
						<ele>849</ele>
						<time>2026-09-03T12:49:31Z</time>
					</trkpt>
					<trkpt lat="44.446210" lon="5.522740">
						<ele>853</ele>
						<time>2026-09-03T12:49:56Z</time>
					</trkpt>
					<trkpt lat="44.446040" lon="5.522210">
						<ele>854</ele>
						<time>2026-09-03T12:50:16Z</time>
					</trkpt>
					<trkpt lat="44.445970" lon="5.522090">
						<ele>854</ele>
						<time>2026-09-03T12:50:22Z</time>
					</trkpt>
					<trkpt lat="44.445850" lon="5.522060">
						<ele>855</ele>
						<time>2026-09-03T12:50:28Z</time>
					</trkpt>
					<trkpt lat="44.445260" lon="5.522080">
						<ele>864</ele>
						<time>2026-09-03T12:50:57Z</time>
					</trkpt>
					<trkpt lat="44.445040" lon="5.522110">
						<ele>868</ele>
						<time>2026-09-03T12:51:09Z</time>
					</trkpt>
					<trkpt lat="44.444470" lon="5.522360">
						<ele>879</ele>
						<time>2026-09-03T12:51:38Z</time>
					</trkpt>
					<trkpt lat="44.444080" lon="5.522400">
						<ele>883</ele>
						<time>2026-09-03T12:51:58Z</time>
					</trkpt>
					<trkpt lat="44.443860" lon="5.522540">
						<ele>889</ele>
						<time>2026-09-03T12:52:10Z</time>
					</trkpt>
					<trkpt lat="44.443720" lon="5.522600">
						<ele>892</ele>
						<time>2026-09-03T12:52:17Z</time>
					</trkpt>
					<trkpt lat="44.442910" lon="5.522680">
						<ele>898</ele>
						<time>2026-09-03T12:52:58Z</time>
					</trkpt>
					<trkpt lat="44.442020" lon="5.522980">
						<ele>907</ele>
						<time>2026-09-03T12:53:44Z</time>
					</trkpt>
					<trkpt lat="44.440850" lon="5.523460">
						<ele>918</ele>
						<time>2026-09-03T12:54:45Z</time>
					</trkpt>
					<trkpt lat="44.440410" lon="5.523740">
						<ele>927</ele>
						<time>2026-09-03T12:55:09Z</time>
					</trkpt>
					<trkpt lat="44.439900" lon="5.524020">
						<ele>934</ele>
						<time>2026-09-03T12:55:36Z</time>
					</trkpt>
					<trkpt lat="44.439390" lon="5.524100">
						<ele>938</ele>
						<time>2026-09-03T12:56:02Z</time>
					</trkpt>
					<trkpt lat="44.439140" lon="5.524170">
						<ele>941</ele>
						<time>2026-09-03T12:56:15Z</time>
					</trkpt>
					<trkpt lat="44.439070" lon="5.524200">
						<ele>942</ele>
						<time>2026-09-03T12:56:19Z</time>
					</trkpt>
					<trkpt lat="44.438810" lon="5.524430">
						<ele>950</ele>
						<time>2026-09-03T12:56:34Z</time>
					</trkpt>
					<trkpt lat="44.438630" lon="5.524510">
						<ele>954</ele>
						<time>2026-09-03T12:56:43Z</time>
					</trkpt>
					<trkpt lat="44.438330" lon="5.524360">
						<ele>951</ele>
						<time>2026-09-03T12:56:59Z</time>
					</trkpt>
					<trkpt lat="44.437920" lon="5.524390">
						<ele>956</ele>
						<time>2026-09-03T12:57:20Z</time>
					</trkpt>
					<trkpt lat="44.436880" lon="5.524340">
						<ele>969</ele>
						<time>2026-09-03T12:58:12Z</time>
					</trkpt>
					<trkpt lat="44.436460" lon="5.523820">
						<ele>965</ele>
						<time>2026-09-03T12:58:40Z</time>
					</trkpt>
					<trkpt lat="44.436410" lon="5.523800">
						<ele>966</ele>
						<time>2026-09-03T12:58:43Z</time>
					</trkpt>
					<trkpt lat="44.436380" lon="5.523820">
						<ele>966</ele>
						<time>2026-09-03T12:58:44Z</time>
					</trkpt>
					<trkpt lat="44.436380" lon="5.524180">
						<ele>974</ele>
						<time>2026-09-03T12:58:57Z</time>
					</trkpt>
					<trkpt lat="44.436330" lon="5.524410">
						<ele>980</ele>
						<time>2026-09-03T12:59:06Z</time>
					</trkpt>
					<trkpt lat="44.436300" lon="5.524420">
						<ele>980</ele>
						<time>2026-09-03T12:59:07Z</time>
					</trkpt>
					<trkpt lat="44.436240" lon="5.524370">
						<ele>980</ele>
						<time>2026-09-03T12:59:11Z</time>
					</trkpt>
					<trkpt lat="44.436160" lon="5.524160">
						<ele>977</ele>
						<time>2026-09-03T12:59:19Z</time>
					</trkpt>
					<trkpt lat="44.436090" lon="5.524070">
						<ele>977</ele>
						<time>2026-09-03T12:59:24Z</time>
					</trkpt>
					<trkpt lat="44.435930" lon="5.523970">
						<ele>977</ele>
						<time>2026-09-03T12:59:33Z</time>
					</trkpt>
					<trkpt lat="44.435850" lon="5.524000">
						<ele>979</ele>
						<time>2026-09-03T12:59:37Z</time>
					</trkpt>
					<trkpt lat="44.435700" lon="5.524420">
						<ele>989</ele>
						<time>2026-09-03T12:59:54Z</time>
					</trkpt>
					<trkpt lat="44.435740" lon="5.524680">
						<ele>992</ele>
						<time>2026-09-03T13:00:03Z</time>
					</trkpt>
					<trkpt lat="44.435840" lon="5.524960">
						<ele>994</ele>
						<time>2026-09-03T13:00:14Z</time>
					</trkpt>
					<trkpt lat="44.435820" lon="5.525070">
						<ele>997</ele>
						<time>2026-09-03T13:00:18Z</time>
					</trkpt>
					<trkpt lat="44.435790" lon="5.525110">
						<ele>998</ele>
						<time>2026-09-03T13:00:21Z</time>
					</trkpt>
					<trkpt lat="44.435700" lon="5.525160">
						<ele>1001</ele>
						<time>2026-09-03T13:00:25Z</time>
					</trkpt>
					<trkpt lat="44.435620" lon="5.525140">
						<ele>1002</ele>
						<time>2026-09-03T13:00:29Z</time>
					</trkpt>
					<trkpt lat="44.435520" lon="5.525040">
						<ele>1001</ele>
						<time>2026-09-03T13:00:36Z</time>
					</trkpt>
					<trkpt lat="44.435370" lon="5.524800">
						<ele>1000</ele>
						<time>2026-09-03T13:00:47Z</time>
					</trkpt>
					<trkpt lat="44.435320" lon="5.524770">
						<ele>1000</ele>
						<time>2026-09-03T13:00:50Z</time>
					</trkpt>
					<trkpt lat="44.435250" lon="5.524770">
						<ele>1001</ele>
						<time>2026-09-03T13:00:53Z</time>
					</trkpt>
					<trkpt lat="44.435030" lon="5.525110">
						<ele>1010</ele>
						<time>2026-09-03T13:01:10Z</time>
					</trkpt>
					<trkpt lat="44.434970" lon="5.525320">
						<ele>1014</ele>
						<time>2026-09-03T13:01:18Z</time>
					</trkpt>
					<trkpt lat="44.434960" lon="5.525510">
						<ele>1017</ele>
						<time>2026-09-03T13:01:25Z</time>
					</trkpt>
					<trkpt lat="44.434920" lon="5.525590">
						<ele>1018</ele>
						<time>2026-09-03T13:01:28Z</time>
					</trkpt>
					<trkpt lat="44.434860" lon="5.525620">
						<ele>1019</ele>
						<time>2026-09-03T13:01:31Z</time>
					</trkpt>
					<trkpt lat="44.434800" lon="5.525590">
						<ele>1019</ele>
						<time>2026-09-03T13:01:34Z</time>
					</trkpt>
					<trkpt lat="44.434700" lon="5.525430">
						<ele>1018</ele>
						<time>2026-09-03T13:01:42Z</time>
					</trkpt>
					<trkpt lat="44.434640" lon="5.525070">
						<ele>1013</ele>
						<time>2026-09-03T13:01:55Z</time>
					</trkpt>
					<trkpt lat="44.434610" lon="5.525000">
						<ele>1012</ele>
						<time>2026-09-03T13:01:58Z</time>
					</trkpt>
					<trkpt lat="44.434540" lon="5.524950">
						<ele>1012</ele>
						<time>2026-09-03T13:02:02Z</time>
					</trkpt>
					<trkpt lat="44.434440" lon="5.524950">
						<ele>1013</ele>
						<time>2026-09-03T13:02:07Z</time>
					</trkpt>
					<trkpt lat="44.433900" lon="5.525130">
						<ele>1024</ele>
						<time>2026-09-03T13:02:35Z</time>
					</trkpt>
					<trkpt lat="44.433790" lon="5.525140">
						<ele>1026</ele>
						<time>2026-09-03T13:02:40Z</time>
					</trkpt>
					<trkpt lat="44.433650" lon="5.525110">
						<ele>1029</ele>
						<time>2026-09-03T13:02:47Z</time>
					</trkpt>
					<trkpt lat="44.433560" lon="5.525000">
						<ele>1029</ele>
						<time>2026-09-03T13:02:53Z</time>
					</trkpt>
					<trkpt lat="44.433500" lon="5.524740">
						<ele>1024</ele>
						<time>2026-09-03T13:03:03Z</time>
					</trkpt>
					<trkpt lat="44.433440" lon="5.524600">
						<ele>1022</ele>
						<time>2026-09-03T13:03:09Z</time>
					</trkpt>
					<trkpt lat="44.433360" lon="5.524510">
						<ele>1022</ele>
						<time>2026-09-03T13:03:14Z</time>
					</trkpt>
					<trkpt lat="44.433200" lon="5.524440">
						<ele>1022</ele>
						<time>2026-09-03T13:03:23Z</time>
					</trkpt>
					<trkpt lat="44.433070" lon="5.524420">
						<ele>1022</ele>
						<time>2026-09-03T13:03:29Z</time>
					</trkpt>
					<trkpt lat="44.432800" lon="5.524490">
						<ele>1026</ele>
						<time>2026-09-03T13:03:43Z</time>
					</trkpt>
					<trkpt lat="44.432220" lon="5.524710">
						<ele>1041</ele>
						<time>2026-09-03T13:04:13Z</time>
					</trkpt>
					<trkpt lat="44.431730" lon="5.524550">
						<ele>1048</ele>
						<time>2026-09-03T13:04:38Z</time>
					</trkpt>
					<trkpt lat="44.431580" lon="5.524400">
						<ele>1047</ele>
						<time>2026-09-03T13:04:47Z</time>
					</trkpt>
					<trkpt lat="44.431510" lon="5.524400">
						<ele>1048</ele>
						<time>2026-09-03T13:04:51Z</time>
					</trkpt>
					<trkpt lat="44.431380" lon="5.524460">
						<ele>1052</ele>
						<time>2026-09-03T13:04:58Z</time>
					</trkpt>
					<trkpt lat="44.431280" lon="5.524440">
						<ele>1054</ele>
						<time>2026-09-03T13:05:03Z</time>
					</trkpt>
					<trkpt lat="44.431240" lon="5.524400">
						<ele>1054</ele>
						<time>2026-09-03T13:05:05Z</time>
					</trkpt>
					<trkpt lat="44.431200" lon="5.524170">
						<ele>1049</ele>
						<time>2026-09-03T13:05:14Z</time>
					</trkpt>
					<trkpt lat="44.430930" lon="5.523930">
						<ele>1057</ele>
						<time>2026-09-03T13:05:30Z</time>
					</trkpt>
					<trkpt lat="44.430790" lon="5.523560">
						<ele>1064</ele>
						<time>2026-09-03T13:05:45Z</time>
					</trkpt>
					<trkpt lat="44.430760" lon="5.523400">
						<ele>1065</ele>
						<time>2026-09-03T13:05:51Z</time>
					</trkpt>
					<trkpt lat="44.430850" lon="5.523080">
						<ele>1064</ele>
						<time>2026-09-03T13:06:03Z</time>
					</trkpt>
					<trkpt lat="44.430820" lon="5.522810">
						<ele>1065</ele>
						<time>2026-09-03T13:06:13Z</time>
					</trkpt>
					<trkpt lat="44.430470" lon="5.521970">
						<ele>1077</ele>
						<time>2026-09-03T13:06:47Z</time>
					</trkpt>
					<trkpt lat="44.430370" lon="5.521660">
						<ele>1080</ele>
						<time>2026-09-03T13:06:59Z</time>
					</trkpt>
					<trkpt lat="44.430350" lon="5.521490">
						<ele>1082</ele>
						<time>2026-09-03T13:07:06Z</time>
					</trkpt>
					<trkpt lat="44.430370" lon="5.521180">
						<ele>1083</ele>
						<time>2026-09-03T13:07:17Z</time>
					</trkpt>
					<trkpt lat="44.430600" lon="5.519910">
						<ele>1086</ele>
						<time>2026-09-03T13:08:04Z</time>
					</trkpt>
					<trkpt lat="44.430610" lon="5.519650">
						<ele>1085</ele>
						<time>2026-09-03T13:08:13Z</time>
					</trkpt>
					<trkpt lat="44.430580" lon="5.519490">
						<ele>1085</ele>
						<time>2026-09-03T13:08:19Z</time>
					</trkpt>
					<trkpt lat="44.430300" lon="5.518950">
						<ele>1094</ele>
						<time>2026-09-03T13:08:43Z</time>
					</trkpt>
					<trkpt lat="44.430120" lon="5.518780">
						<ele>1099</ele>
						<time>2026-09-03T13:08:54Z</time>
					</trkpt>
					<trkpt lat="44.430190" lon="5.518400">
						<ele>1099</ele>
						<time>2026-09-03T13:09:08Z</time>
					</trkpt>
					<trkpt lat="44.430220" lon="5.517380">
						<ele>1114</ele>
						<time>2026-09-03T13:09:44Z</time>
					</trkpt>
					<trkpt lat="44.430560" lon="5.516650">
						<ele>1120</ele>
						<time>2026-09-03T13:10:15Z</time>
					</trkpt>
					<trkpt lat="44.430650" lon="5.516550">
						<ele>1120</ele>
						<time>2026-09-03T13:10:21Z</time>
					</trkpt>
					<trkpt lat="44.430770" lon="5.516290">
						<ele>1122</ele>
						<time>2026-09-03T13:10:32Z</time>
					</trkpt>
					<trkpt lat="44.430920" lon="5.515690">
						<ele>1131</ele>
						<time>2026-09-03T13:10:55Z</time>
					</trkpt>
					<trkpt lat="44.431120" lon="5.515260">
						<ele>1137</ele>
						<time>2026-09-03T13:11:13Z</time>
					</trkpt>
					<trkpt lat="44.430970" lon="5.515210">
						<ele>1142</ele>
						<time>2026-09-03T13:11:21Z</time>
					</trkpt>
					<trkpt lat="44.430810" lon="5.515210">
						<ele>1146</ele>
						<time>2026-09-03T13:11:29Z</time>
					</trkpt>
					<trkpt lat="44.430650" lon="5.515260">
						<ele>1150</ele>
						<time>2026-09-03T13:11:37Z</time>
					</trkpt>
					<trkpt lat="44.430390" lon="5.515440">
						<ele>1153</ele>
						<time>2026-09-03T13:11:51Z</time>
					</trkpt>
					<trkpt lat="44.429920" lon="5.516060">
						<ele>1153</ele>
						<time>2026-09-03T13:12:24Z</time>
					</trkpt>
					<trkpt lat="44.429720" lon="5.516240">
						<ele>1159</ele>
						<time>2026-09-03T13:12:36Z</time>
					</trkpt>
					<trkpt lat="44.429460" lon="5.516370">
						<ele>1168</ele>
						<time>2026-09-03T13:12:49Z</time>
					</trkpt>
					<trkpt lat="44.429400" lon="5.516430">
						<ele>1169</ele>
						<time>2026-09-03T13:12:53Z</time>
					</trkpt>
					<trkpt lat="44.428740" lon="5.517350">
						<ele>1181</ele>
						<time>2026-09-03T13:13:40Z</time>
					</trkpt>
					<trkpt lat="44.428570" lon="5.517470">
						<ele>1189</ele>
						<time>2026-09-03T13:13:49Z</time>
					</trkpt>
					<trkpt lat="44.428510" lon="5.517540">
						<ele>1192</ele>
						<time>2026-09-03T13:13:53Z</time>
					</trkpt>
					<trkpt lat="44.428240" lon="5.518200">
						<ele>1198</ele>
						<time>2026-09-03T13:14:20Z</time>
					</trkpt>
					<trkpt lat="44.427620" lon="5.519210">
						<ele>1217</ele>
						<time>2026-09-03T13:15:08Z</time>
					</trkpt>
					<trkpt lat="44.427140" lon="5.519750">
						<ele>1236</ele>
						<time>2026-09-03T13:15:39Z</time>
					</trkpt>
					<trkpt lat="44.426560" lon="5.520500">
						<ele>1260</ele>
						<time>2026-09-03T13:16:18Z</time>
					</trkpt>
					<trkpt lat="44.426110" lon="5.521730">
						<ele>1277</ele>
						<time>2026-09-03T13:17:08Z</time>
					</trkpt>
					<trkpt lat="44.426000" lon="5.521980">
						<ele>1283</ele>
						<time>2026-09-03T13:17:18Z</time>
					</trkpt>
					<trkpt lat="44.425920" lon="5.522050">
						<ele>1287</ele>
						<time>2026-09-03T13:17:23Z</time>
					</trkpt>
					<trkpt lat="44.425820" lon="5.522040">
						<ele>1293</ele>
						<time>2026-09-03T13:17:28Z</time>
					</trkpt>
					<trkpt lat="44.425730" lon="5.521910">
						<ele>1296</ele>
						<time>2026-09-03T13:17:34Z</time>
					</trkpt>
					<trkpt lat="44.425600" lon="5.521610">
						<ele>1300</ele>
						<time>2026-09-03T13:17:47Z</time>
					</trkpt>
					<trkpt lat="44.425520" lon="5.521340">
						<ele>1302</ele>
						<time>2026-09-03T13:17:57Z</time>
					</trkpt>
					<trkpt lat="44.425350" lon="5.520550">
						<ele>1303</ele>
						<time>2026-09-03T13:18:27Z</time>
					</trkpt>
					<trkpt lat="44.425280" lon="5.520490">
						<ele>1303</ele>
						<time>2026-09-03T13:18:31Z</time>
					</trkpt>
					<trkpt lat="44.425270" lon="5.520360">
						<ele>1303</ele>
						<time>2026-09-03T13:18:36Z</time>
					</trkpt>
					<trkpt lat="44.425110" lon="5.520040">
						<ele>1300</ele>
						<time>2026-09-03T13:18:50Z</time>
					</trkpt>
					<trkpt lat="44.425040" lon="5.519950">
						<ele>1300</ele>
						<time>2026-09-03T13:18:54Z</time>
					</trkpt>
					<trkpt lat="44.424970" lon="5.519780">
						<ele>1298</ele>
						<time>2026-09-03T13:19:01Z</time>
					</trkpt>
					<trkpt lat="44.424890" lon="5.519760">
						<ele>1293</ele>
						<time>2026-09-03T13:19:05Z</time>
					</trkpt>
					<trkpt lat="44.424770" lon="5.519920">
						<ele>1285</ele>
						<time>2026-09-03T13:19:14Z</time>
					</trkpt>
					<trkpt lat="44.424670" lon="5.519950">
						<ele>1279</ele>
						<time>2026-09-03T13:19:19Z</time>
					</trkpt>
					<trkpt lat="44.424490" lon="5.520190">
						<ele>1270</ele>
						<time>2026-09-03T13:19:31Z</time>
					</trkpt>
					<trkpt lat="44.424370" lon="5.520260">
						<ele>1263</ele>
						<time>2026-09-03T13:19:38Z</time>
					</trkpt>
					<trkpt lat="44.424340" lon="5.520180">
						<ele>1260</ele>
						<time>2026-09-03T13:19:41Z</time>
					</trkpt>
					<trkpt lat="44.424310" lon="5.520170">
						<ele>1258</ele>
						<time>2026-09-03T13:19:43Z</time>
					</trkpt>
					<trkpt lat="44.424270" lon="5.520210">
						<ele>1256</ele>
						<time>2026-09-03T13:19:45Z</time>
					</trkpt>
					<trkpt lat="44.424240" lon="5.520160">
						<ele>1254</ele>
						<time>2026-09-03T13:19:47Z</time>
					</trkpt>
					<trkpt lat="44.424190" lon="5.520180">
						<ele>1251</ele>
						<time>2026-09-03T13:19:50Z</time>
					</trkpt>
					<trkpt lat="44.424170" lon="5.520150">
						<ele>1249</ele>
						<time>2026-09-03T13:19:51Z</time>
					</trkpt>
					<trkpt lat="44.424060" lon="5.520210">
						<ele>1243</ele>
						<time>2026-09-03T13:19:57Z</time>
					</trkpt>
					<trkpt lat="44.423950" lon="5.520160">
						<ele>1236</ele>
						<time>2026-09-03T13:20:03Z</time>
					</trkpt>
					<trkpt lat="44.423890" lon="5.520210">
						<ele>1233</ele>
						<time>2026-09-03T13:20:07Z</time>
					</trkpt>
					<trkpt lat="44.423850" lon="5.520210">
						<ele>1230</ele>
						<time>2026-09-03T13:20:09Z</time>
					</trkpt>
					<trkpt lat="44.423780" lon="5.520030">
						<ele>1224</ele>
						<time>2026-09-03T13:20:16Z</time>
					</trkpt>
					<trkpt lat="44.423620" lon="5.520110">
						<ele>1215</ele>
						<time>2026-09-03T13:20:24Z</time>
					</trkpt>
					<trkpt lat="44.423610" lon="5.520030">
						<ele>1213</ele>
						<time>2026-09-03T13:20:27Z</time>
					</trkpt>
					<trkpt lat="44.423590" lon="5.520020">
						<ele>1212</ele>
						<time>2026-09-03T13:20:28Z</time>
					</trkpt>
					<trkpt lat="44.423520" lon="5.520110">
						<ele>1208</ele>
						<time>2026-09-03T13:20:33Z</time>
					</trkpt>
					<trkpt lat="44.423470" lon="5.520120">
						<ele>1205</ele>
						<time>2026-09-03T13:20:36Z</time>
					</trkpt>
					<trkpt lat="44.423450" lon="5.519920">
						<ele>1202</ele>
						<time>2026-09-03T13:20:43Z</time>
					</trkpt>
					<trkpt lat="44.423400" lon="5.519880">
						<ele>1199</ele>
						<time>2026-09-03T13:20:46Z</time>
					</trkpt>
					<trkpt lat="44.423290" lon="5.520070">
						<ele>1194</ele>
						<time>2026-09-03T13:20:55Z</time>
					</trkpt>
					<trkpt lat="44.423270" lon="5.520070">
						<ele>1192</ele>
						<time>2026-09-03T13:20:56Z</time>
					</trkpt>
					<trkpt lat="44.423220" lon="5.519920">
						<ele>1187</ele>
						<time>2026-09-03T13:21:01Z</time>
					</trkpt>
					<trkpt lat="44.423170" lon="5.519890">
						<ele>1184</ele>
						<time>2026-09-03T13:21:04Z</time>
					</trkpt>
					<trkpt lat="44.423070" lon="5.520060">
						<ele>1179</ele>
						<time>2026-09-03T13:21:12Z</time>
					</trkpt>
					<trkpt lat="44.423010" lon="5.520280">
						<ele>1176</ele>
						<time>2026-09-03T13:21:20Z</time>
					</trkpt>
					<trkpt lat="44.423000" lon="5.519980">
						<ele>1173</ele>
						<time>2026-09-03T13:21:31Z</time>
					</trkpt>
					<trkpt lat="44.423090" lon="5.519650">
						<ele>1176</ele>
						<time>2026-09-03T13:21:44Z</time>
					</trkpt>
					<trkpt lat="44.423140" lon="5.518150">
						<ele>1168</ele>
						<time>2026-09-03T13:22:38Z</time>
					</trkpt>
					<trkpt lat="44.422990" lon="5.517370">
						<ele>1156</ele>
						<time>2026-09-03T13:23:06Z</time>
					</trkpt>
					<trkpt lat="44.422960" lon="5.517100">
						<ele>1153</ele>
						<time>2026-09-03T13:23:16Z</time>
					</trkpt>
					<trkpt lat="44.423010" lon="5.516120">
						<ele>1147</ele>
						<time>2026-09-03T13:23:51Z</time>
					</trkpt>
					<trkpt lat="44.423140" lon="5.515660">
						<ele>1152</ele>
						<time>2026-09-03T13:24:09Z</time>
					</trkpt>
					<trkpt lat="44.423150" lon="5.515520">
						<ele>1153</ele>
						<time>2026-09-03T13:24:14Z</time>
					</trkpt>
					<trkpt lat="44.423110" lon="5.515350">
						<ele>1151</ele>
						<time>2026-09-03T13:24:20Z</time>
					</trkpt>
					<trkpt lat="44.422880" lon="5.515070">
						<ele>1141</ele>
						<time>2026-09-03T13:24:36Z</time>
					</trkpt>
					<trkpt lat="44.422370" lon="5.514210">
						<ele>1129</ele>
						<time>2026-09-03T13:25:16Z</time>
					</trkpt>
					<trkpt lat="44.422340" lon="5.514200">
						<ele>1128</ele>
						<time>2026-09-03T13:25:17Z</time>
					</trkpt>
					<trkpt lat="44.422320" lon="5.513860">
						<ele>1130</ele>
						<time>2026-09-03T13:25:29Z</time>
					</trkpt>
					<trkpt lat="44.422380" lon="5.513360">
						<ele>1137</ele>
						<time>2026-09-03T13:25:47Z</time>
					</trkpt>
					<trkpt lat="44.422400" lon="5.512920">
						<ele>1138</ele>
						<time>2026-09-03T13:26:03Z</time>
					</trkpt>
					<trkpt lat="44.422390" lon="5.512230">
						<ele>1140</ele>
						<time>2026-09-03T13:26:28Z</time>
					</trkpt>
					<trkpt lat="44.421990" lon="5.511830">
						<ele>1130</ele>
						<time>2026-09-03T13:26:52Z</time>
					</trkpt>
					<trkpt lat="44.421620" lon="5.511570">
						<ele>1121</ele>
						<time>2026-09-03T13:27:13Z</time>
					</trkpt>
					<trkpt lat="44.421620" lon="5.511280">
						<ele>1126</ele>
						<time>2026-09-03T13:27:24Z</time>
					</trkpt>
					<trkpt lat="44.421480" lon="5.510970">
						<ele>1128</ele>
						<time>2026-09-03T13:27:37Z</time>
					</trkpt>
					<trkpt lat="44.420950" lon="5.510410">
						<ele>1121</ele>
						<time>2026-09-03T13:28:10Z</time>
					</trkpt>
					<trkpt lat="44.420790" lon="5.510320">
						<ele>1119</ele>
						<time>2026-09-03T13:28:18Z</time>
					</trkpt>
					<trkpt lat="44.420180" lon="5.509640">
						<ele>1120</ele>
						<time>2026-09-03T13:28:58Z</time>
					</trkpt>
					<trkpt lat="44.420120" lon="5.509640">
						<ele>1120</ele>
						<time>2026-09-03T13:29:01Z</time>
					</trkpt>
					<trkpt lat="44.420190" lon="5.509180">
						<ele>1119</ele>
						<time>2026-09-03T13:29:17Z</time>
					</trkpt>
					<trkpt lat="44.420300" lon="5.509130">
						<ele>1118</ele>
						<time>2026-09-03T13:29:23Z</time>
					</trkpt>
					<trkpt lat="44.420330" lon="5.509090">
						<ele>1118</ele>
						<time>2026-09-03T13:29:25Z</time>
					</trkpt>
					<trkpt lat="44.420430" lon="5.508340">
						<ele>1108</ele>
						<time>2026-09-03T13:29:52Z</time>
					</trkpt>
					<trkpt lat="44.420550" lon="5.507980">
						<ele>1102</ele>
						<time>2026-09-03T13:30:07Z</time>
					</trkpt>
					<trkpt lat="44.420610" lon="5.507680">
						<ele>1096</ele>
						<time>2026-09-03T13:30:18Z</time>
					</trkpt>
					<trkpt lat="44.420560" lon="5.507340">
						<ele>1091</ele>
						<time>2026-09-03T13:30:30Z</time>
					</trkpt>
					<trkpt lat="44.420580" lon="5.506970">
						<ele>1087</ele>
						<time>2026-09-03T13:30:43Z</time>
					</trkpt>
					<trkpt lat="44.420540" lon="5.506920">
						<ele>1086</ele>
						<time>2026-09-03T13:30:46Z</time>
					</trkpt>
					<trkpt lat="44.420360" lon="5.506870">
						<ele>1084</ele>
						<time>2026-09-03T13:30:55Z</time>
					</trkpt>
					<trkpt lat="44.420320" lon="5.506770">
						<ele>1082</ele>
						<time>2026-09-03T13:30:59Z</time>
					</trkpt>
					<trkpt lat="44.420350" lon="5.506610">
						<ele>1080</ele>
						<time>2026-09-03T13:31:05Z</time>
					</trkpt>
					<trkpt lat="44.420360" lon="5.505940">
						<ele>1076</ele>
						<time>2026-09-03T13:31:29Z</time>
					</trkpt>
					<trkpt lat="44.420280" lon="5.505400">
						<ele>1071</ele>
						<time>2026-09-03T13:31:49Z</time>
					</trkpt>
					<trkpt lat="44.420400" lon="5.504710">
						<ele>1070</ele>
						<time>2026-09-03T13:32:14Z</time>
					</trkpt>
					<trkpt lat="44.420420" lon="5.503930">
						<ele>1064</ele>
						<time>2026-09-03T13:32:42Z</time>
					</trkpt>
					<trkpt lat="44.420340" lon="5.503610">
						<ele>1058</ele>
						<time>2026-09-03T13:32:54Z</time>
					</trkpt>
					<trkpt lat="44.420230" lon="5.502510">
						<ele>1044</ele>
						<time>2026-09-03T13:33:34Z</time>
					</trkpt>
					<trkpt lat="44.420130" lon="5.502120">
						<ele>1035</ele>
						<time>2026-09-03T13:33:49Z</time>
					</trkpt>
					<trkpt lat="44.420130" lon="5.501350">
						<ele>1028</ele>
						<time>2026-09-03T13:34:16Z</time>
					</trkpt>
					<trkpt lat="44.420180" lon="5.501090">
						<ele>1028</ele>
						<time>2026-09-03T13:34:26Z</time>
					</trkpt>
					<trkpt lat="44.420170" lon="5.500700">
						<ele>1024</ele>
						<time>2026-09-03T13:34:40Z</time>
					</trkpt>
					<trkpt lat="44.420130" lon="5.500550">
						<ele>1021</ele>
						<time>2026-09-03T13:34:46Z</time>
					</trkpt>
					<trkpt lat="44.420130" lon="5.500370">
						<ele>1019</ele>
						<time>2026-09-03T13:34:52Z</time>
					</trkpt>
					<trkpt lat="44.420240" lon="5.499860">
						<ele>1021</ele>
						<time>2026-09-03T13:35:11Z</time>
					</trkpt>
					<trkpt lat="44.420010" lon="5.499590">
						<ele>1011</ele>
						<time>2026-09-03T13:35:26Z</time>
					</trkpt>
					<trkpt lat="44.419950" lon="5.499370">
						<ele>1010</ele>
						<time>2026-09-03T13:35:35Z</time>
					</trkpt>
					<trkpt lat="44.419950" lon="5.499220">
						<ele>1010</ele>
						<time>2026-09-03T13:35:40Z</time>
					</trkpt>
					<trkpt lat="44.420040" lon="5.498810">
						<ele>1016</ele>
						<time>2026-09-03T13:35:55Z</time>
					</trkpt>
					<trkpt lat="44.420120" lon="5.498180">
						<ele>1021</ele>
						<time>2026-09-03T13:36:18Z</time>
					</trkpt>
					<trkpt lat="44.420140" lon="5.497390">
						<ele>1018</ele>
						<time>2026-09-03T13:36:46Z</time>
					</trkpt>
					<trkpt lat="44.420390" lon="5.496250">
						<ele>1016</ele>
						<time>2026-09-03T13:37:29Z</time>
					</trkpt>
					<trkpt lat="44.420510" lon="5.495860">
						<ele>1015</ele>
						<time>2026-09-03T13:37:44Z</time>
					</trkpt>
					<trkpt lat="44.420680" lon="5.495500">
						<ele>1016</ele>
						<time>2026-09-03T13:38:00Z</time>
					</trkpt>
					<trkpt lat="44.420910" lon="5.495120">
						<ele>1018</ele>
						<time>2026-09-03T13:38:17Z</time>
					</trkpt>
					<trkpt lat="44.421210" lon="5.494710">
						<ele>1027</ele>
						<time>2026-09-03T13:38:38Z</time>
					</trkpt>
					<trkpt lat="44.421360" lon="5.494420">
						<ele>1031</ele>
						<time>2026-09-03T13:38:51Z</time>
					</trkpt>
					<trkpt lat="44.421370" lon="5.494310">
						<ele>1031</ele>
						<time>2026-09-03T13:38:55Z</time>
					</trkpt>
					<trkpt lat="44.421320" lon="5.494040">
						<ele>1028</ele>
						<time>2026-09-03T13:39:05Z</time>
					</trkpt>
					<trkpt lat="44.421280" lon="5.493480">
						<ele>1029</ele>
						<time>2026-09-03T13:39:25Z</time>
					</trkpt>
					<trkpt lat="44.421310" lon="5.493270">
						<ele>1032</ele>
						<time>2026-09-03T13:39:33Z</time>
					</trkpt>
					<trkpt lat="44.421440" lon="5.492840">
						<ele>1042</ele>
						<time>2026-09-03T13:39:50Z</time>
					</trkpt>
					<trkpt lat="44.421420" lon="5.492690">
						<ele>1043</ele>
						<time>2026-09-03T13:39:55Z</time>
					</trkpt>
					<trkpt lat="44.421320" lon="5.492610">
						<ele>1043</ele>
						<time>2026-09-03T13:40:01Z</time>
					</trkpt>
					<trkpt lat="44.421150" lon="5.492570">
						<ele>1042</ele>
						<time>2026-09-03T13:40:09Z</time>
					</trkpt>
					<trkpt lat="44.420140" lon="5.492500">
						<ele>1036</ele>
						<time>2026-09-03T13:41:00Z</time>
					</trkpt>
					<trkpt lat="44.419570" lon="5.492560">
						<ele>1034</ele>
						<time>2026-09-03T13:41:29Z</time>
					</trkpt>
					<trkpt lat="44.419050" lon="5.492510">
						<ele>1034</ele>
						<time>2026-09-03T13:41:55Z</time>
					</trkpt>
					<trkpt lat="44.418760" lon="5.492380">
						<ele>1032</ele>
						<time>2026-09-03T13:42:10Z</time>
					</trkpt>
					<trkpt lat="44.418620" lon="5.492230">
						<ele>1034</ele>
						<time>2026-09-03T13:42:19Z</time>
					</trkpt>
					<trkpt lat="44.418490" lon="5.492030">
						<ele>1037</ele>
						<time>2026-09-03T13:42:28Z</time>
					</trkpt>
					<trkpt lat="44.417920" lon="5.490970">
						<ele>1040</ele>
						<time>2026-09-03T13:43:16Z</time>
					</trkpt>
					<trkpt lat="44.417900" lon="5.490840">
						<ele>1042</ele>
						<time>2026-09-03T13:43:21Z</time>
					</trkpt>
					<trkpt lat="44.417910" lon="5.490490">
						<ele>1053</ele>
						<time>2026-09-03T13:43:33Z</time>
					</trkpt>
					<trkpt lat="44.417810" lon="5.490150">
						<ele>1058</ele>
						<time>2026-09-03T13:43:46Z</time>
					</trkpt>
					<trkpt lat="44.417770" lon="5.489810">
						<ele>1068</ele>
						<time>2026-09-03T13:43:59Z</time>
					</trkpt>
					<trkpt lat="44.417720" lon="5.489640">
						<ele>1072</ele>
						<time>2026-09-03T13:44:05Z</time>
					</trkpt>
					<trkpt lat="44.417630" lon="5.489550">
						<ele>1071</ele>
						<time>2026-09-03T13:44:11Z</time>
					</trkpt>
					<trkpt lat="44.417400" lon="5.489610">
						<ele>1061</ele>
						<time>2026-09-03T13:44:22Z</time>
					</trkpt>
					<trkpt lat="44.417290" lon="5.489600">
						<ele>1058</ele>
						<time>2026-09-03T13:44:28Z</time>
					</trkpt>
					<trkpt lat="44.417110" lon="5.489490">
						<ele>1058</ele>
						<time>2026-09-03T13:44:38Z</time>
					</trkpt>
					<trkpt lat="44.416980" lon="5.489350">
						<ele>1059</ele>
						<time>2026-09-03T13:44:46Z</time>
					</trkpt>
					<trkpt lat="44.416490" lon="5.488660">
						<ele>1072</ele>
						<time>2026-09-03T13:45:21Z</time>
					</trkpt>
					<trkpt lat="44.416090" lon="5.487660">
						<ele>1087</ele>
						<time>2026-09-03T13:46:02Z</time>
					</trkpt>
					<trkpt lat="44.416000" lon="5.487560">
						<ele>1086</ele>
						<time>2026-09-03T13:46:08Z</time>
					</trkpt>
					<trkpt lat="44.415940" lon="5.487510">
						<ele>1085</ele>
						<time>2026-09-03T13:46:11Z</time>
					</trkpt>
					<trkpt lat="44.415830" lon="5.487480">
						<ele>1082</ele>
						<time>2026-09-03T13:46:17Z</time>
					</trkpt>
					<trkpt lat="44.415450" lon="5.487510">
						<ele>1084</ele>
						<time>2026-09-03T13:46:36Z</time>
					</trkpt>
					<trkpt lat="44.415280" lon="5.487500">
						<ele>1085</ele>
						<time>2026-09-03T13:46:44Z</time>
					</trkpt>
					<trkpt lat="44.415150" lon="5.487450">
						<ele>1085</ele>
						<time>2026-09-03T13:46:51Z</time>
					</trkpt>
					<trkpt lat="44.415010" lon="5.487340">
						<ele>1083</ele>
						<time>2026-09-03T13:46:59Z</time>
					</trkpt>
					<trkpt lat="44.414970" lon="5.487160">
						<ele>1079</ele>
						<time>2026-09-03T13:47:06Z</time>
					</trkpt>
					<trkpt lat="44.414990" lon="5.487020">
						<ele>1076</ele>
						<time>2026-09-03T13:47:11Z</time>
					</trkpt>
					<trkpt lat="44.415500" lon="5.486330">
						<ele>1078</ele>
						<time>2026-09-03T13:47:46Z</time>
					</trkpt>
					<trkpt lat="44.415660" lon="5.485860">
						<ele>1078</ele>
						<time>2026-09-03T13:48:05Z</time>
					</trkpt>
					<trkpt lat="44.415880" lon="5.485510">
						<ele>1088</ele>
						<time>2026-09-03T13:48:22Z</time>
					</trkpt>
					<trkpt lat="44.415890" lon="5.485430">
						<ele>1089</ele>
						<time>2026-09-03T13:48:24Z</time>
					</trkpt>
					<trkpt lat="44.415870" lon="5.485360">
						<ele>1088</ele>
						<time>2026-09-03T13:48:27Z</time>
					</trkpt>
					<trkpt lat="44.415710" lon="5.485160">
						<ele>1080</ele>
						<time>2026-09-03T13:48:38Z</time>
					</trkpt>
					<trkpt lat="44.415650" lon="5.485010">
						<ele>1077</ele>
						<time>2026-09-03T13:48:44Z</time>
					</trkpt>
					<trkpt lat="44.415530" lon="5.484820">
						<ele>1076</ele>
						<time>2026-09-03T13:48:53Z</time>
					</trkpt>
					<trkpt lat="44.415490" lon="5.484580">
						<ele>1081</ele>
						<time>2026-09-03T13:49:02Z</time>
					</trkpt>
					<trkpt lat="44.415420" lon="5.484470">
						<ele>1081</ele>
						<time>2026-09-03T13:49:07Z</time>
					</trkpt>
					<trkpt lat="44.415360" lon="5.484430">
						<ele>1080</ele>
						<time>2026-09-03T13:49:11Z</time>
					</trkpt>
					<trkpt lat="44.415240" lon="5.484430">
						<ele>1075</ele>
						<time>2026-09-03T13:49:17Z</time>
					</trkpt>
					<trkpt lat="44.414780" lon="5.484550">
						<ele>1054</ele>
						<time>2026-09-03T13:49:40Z</time>
					</trkpt>
					<trkpt lat="44.414660" lon="5.484520">
						<ele>1051</ele>
						<time>2026-09-03T13:49:46Z</time>
					</trkpt>
					<trkpt lat="44.414610" lon="5.484470">
						<ele>1050</ele>
						<time>2026-09-03T13:49:49Z</time>
					</trkpt>
					<trkpt lat="44.414290" lon="5.484110">
						<ele>1048</ele>
						<time>2026-09-03T13:50:10Z</time>
					</trkpt>
					<trkpt lat="44.414080" lon="5.483720">
						<ele>1050</ele>
						<time>2026-09-03T13:50:27Z</time>
					</trkpt>
					<trkpt lat="44.413930" lon="5.483500">
						<ele>1049</ele>
						<time>2026-09-03T13:50:38Z</time>
					</trkpt>
					<trkpt lat="44.413680" lon="5.483170">
						<ele>1046</ele>
						<time>2026-09-03T13:50:55Z</time>
					</trkpt>
					<trkpt lat="44.413370" lon="5.482820">
						<ele>1041</ele>
						<time>2026-09-03T13:51:15Z</time>
					</trkpt>
					<trkpt lat="44.412860" lon="5.482150">
						<ele>1034</ele>
						<time>2026-09-03T13:51:50Z</time>
					</trkpt>
					<trkpt lat="44.412810" lon="5.482020">
						<ele>1034</ele>
						<time>2026-09-03T13:51:55Z</time>
					</trkpt>
					<trkpt lat="44.412500" lon="5.480720">
						<ele>1032</ele>
						<time>2026-09-03T13:52:44Z</time>
					</trkpt>
					<trkpt lat="44.412350" lon="5.480250">
						<ele>1031</ele>
						<time>2026-09-03T13:53:03Z</time>
					</trkpt>
					<trkpt lat="44.412230" lon="5.479990">
						<ele>1028</ele>
						<time>2026-09-03T13:53:14Z</time>
					</trkpt>
					<trkpt lat="44.411660" lon="5.478940">
						<ele>1015</ele>
						<time>2026-09-03T13:54:01Z</time>
					</trkpt>
					<trkpt lat="44.411460" lon="5.478490">
						<ele>1014</ele>
						<time>2026-09-03T13:54:20Z</time>
					</trkpt>
					<trkpt lat="44.411090" lon="5.477890">
						<ele>1009</ele>
						<time>2026-09-03T13:54:48Z</time>
					</trkpt>
					<trkpt lat="44.410800" lon="5.477500">
						<ele>1003</ele>
						<time>2026-09-03T13:55:08Z</time>
					</trkpt>
					<trkpt lat="44.410400" lon="5.477140">
						<ele>995</ele>
						<time>2026-09-03T13:55:32Z</time>
					</trkpt>
					<trkpt lat="44.410230" lon="5.476760">
						<ele>994</ele>
						<time>2026-09-03T13:55:48Z</time>
					</trkpt>
					<trkpt lat="44.410160" lon="5.476730">
						<ele>992</ele>
						<time>2026-09-03T13:55:52Z</time>
					</trkpt>
					<trkpt lat="44.410110" lon="5.476740">
						<ele>991</ele>
						<time>2026-09-03T13:55:54Z</time>
					</trkpt>
					<trkpt lat="44.410080" lon="5.476840">
						<ele>988</ele>
						<time>2026-09-03T13:55:58Z</time>
					</trkpt>
					<trkpt lat="44.410110" lon="5.477140">
						<ele>985</ele>
						<time>2026-09-03T13:56:09Z</time>
					</trkpt>
					<trkpt lat="44.410250" lon="5.477650">
						<ele>984</ele>
						<time>2026-09-03T13:56:29Z</time>
					</trkpt>
					<trkpt lat="44.410320" lon="5.478230">
						<ele>980</ele>
						<time>2026-09-03T13:56:50Z</time>
					</trkpt>
					<trkpt lat="44.410330" lon="5.478830">
						<ele>973</ele>
						<time>2026-09-03T13:57:11Z</time>
					</trkpt>
					<trkpt lat="44.410560" lon="5.479150">
						<ele>977</ele>
						<time>2026-09-03T13:57:27Z</time>
					</trkpt>
					<trkpt lat="44.410650" lon="5.479330">
						<ele>979</ele>
						<time>2026-09-03T13:57:35Z</time>
					</trkpt>
					<trkpt lat="44.410700" lon="5.479450">
						<ele>980</ele>
						<time>2026-09-03T13:57:40Z</time>
					</trkpt>
					<trkpt lat="44.410730" lon="5.479650">
						<ele>979</ele>
						<time>2026-09-03T13:57:47Z</time>
					</trkpt>
					<trkpt lat="44.410820" lon="5.480720">
						<ele>973</ele>
						<time>2026-09-03T13:58:26Z</time>
					</trkpt>
					<trkpt lat="44.410680" lon="5.481440">
						<ele>959</ele>
						<time>2026-09-03T13:58:53Z</time>
					</trkpt>
					<trkpt lat="44.410700" lon="5.481590">
						<ele>958</ele>
						<time>2026-09-03T13:58:58Z</time>
					</trkpt>
					<trkpt lat="44.410810" lon="5.481880">
						<ele>958</ele>
						<time>2026-09-03T13:59:10Z</time>
					</trkpt>
					<trkpt lat="44.410770" lon="5.481960">
						<ele>955</ele>
						<time>2026-09-03T13:59:13Z</time>
					</trkpt>
					<trkpt lat="44.410700" lon="5.481910">
						<ele>954</ele>
						<time>2026-09-03T13:59:17Z</time>
					</trkpt>
					<trkpt lat="44.410250" lon="5.481210">
						<ele>946</ele>
						<time>2026-09-03T13:59:51Z</time>
					</trkpt>
					<trkpt lat="44.410010" lon="5.480650">
						<ele>946</ele>
						<time>2026-09-03T14:00:14Z</time>
					</trkpt>
					<trkpt lat="44.409850" lon="5.480440">
						<ele>942</ele>
						<time>2026-09-03T14:00:25Z</time>
					</trkpt>
					<trkpt lat="44.409790" lon="5.480300">
						<ele>941</ele>
						<time>2026-09-03T14:00:31Z</time>
					</trkpt>
					<trkpt lat="44.409740" lon="5.480030">
						<ele>942</ele>
						<time>2026-09-03T14:00:41Z</time>
					</trkpt>
					<trkpt lat="44.409790" lon="5.479620">
						<ele>947</ele>
						<time>2026-09-03T14:00:56Z</time>
					</trkpt>
					<trkpt lat="44.409790" lon="5.479430">
						<ele>948</ele>
						<time>2026-09-03T14:01:03Z</time>
					</trkpt>
					<trkpt lat="44.409760" lon="5.479280">
						<ele>948</ele>
						<time>2026-09-03T14:01:08Z</time>
					</trkpt>
					<trkpt lat="44.409680" lon="5.479110">
						<ele>947</ele>
						<time>2026-09-03T14:01:16Z</time>
					</trkpt>
					<trkpt lat="44.409520" lon="5.478900">
						<ele>944</ele>
						<time>2026-09-03T14:01:27Z</time>
					</trkpt>
					<trkpt lat="44.409180" lon="5.478570">
						<ele>936</ele>
						<time>2026-09-03T14:01:47Z</time>
					</trkpt>
					<trkpt lat="44.408710" lon="5.478320">
						<ele>924</ele>
						<time>2026-09-03T14:02:12Z</time>
					</trkpt>
					<trkpt lat="44.408630" lon="5.478200">
						<ele>922</ele>
						<time>2026-09-03T14:02:18Z</time>
					</trkpt>
					<trkpt lat="44.408470" lon="5.477210">
						<ele>924</ele>
						<time>2026-09-03T14:02:55Z</time>
					</trkpt>
					<trkpt lat="44.408430" lon="5.477020">
						<ele>924</ele>
						<time>2026-09-03T14:03:02Z</time>
					</trkpt>
					<trkpt lat="44.408380" lon="5.476940">
						<ele>923</ele>
						<time>2026-09-03T14:03:05Z</time>
					</trkpt>
					<trkpt lat="44.408310" lon="5.476920">
						<ele>921</ele>
						<time>2026-09-03T14:03:09Z</time>
					</trkpt>
					<trkpt lat="44.408210" lon="5.476940">
						<ele>919</ele>
						<time>2026-09-03T14:03:14Z</time>
					</trkpt>
					<trkpt lat="44.408140" lon="5.477070">
						<ele>916</ele>
						<time>2026-09-03T14:03:20Z</time>
					</trkpt>
					<trkpt lat="44.408120" lon="5.477210">
						<ele>914</ele>
						<time>2026-09-03T14:03:25Z</time>
					</trkpt>
					<trkpt lat="44.408120" lon="5.477390">
						<ele>913</ele>
						<time>2026-09-03T14:03:31Z</time>
					</trkpt>
					<trkpt lat="44.408160" lon="5.477680">
						<ele>912</ele>
						<time>2026-09-03T14:03:42Z</time>
					</trkpt>
					<trkpt lat="44.408140" lon="5.478430">
						<ele>906</ele>
						<time>2026-09-03T14:04:09Z</time>
					</trkpt>
					<trkpt lat="44.408160" lon="5.478800">
						<ele>904</ele>
						<time>2026-09-03T14:04:22Z</time>
					</trkpt>
					<trkpt lat="44.408210" lon="5.479000">
						<ele>904</ele>
						<time>2026-09-03T14:04:30Z</time>
					</trkpt>
					<trkpt lat="44.408310" lon="5.479250">
						<ele>905</ele>
						<time>2026-09-03T14:04:40Z</time>
					</trkpt>
					<trkpt lat="44.408300" lon="5.479350">
						<ele>903</ele>
						<time>2026-09-03T14:04:44Z</time>
					</trkpt>
					<trkpt lat="44.408220" lon="5.479380">
						<ele>900</ele>
						<time>2026-09-03T14:04:48Z</time>
					</trkpt>
					<trkpt lat="44.408140" lon="5.479290">
						<ele>899</ele>
						<time>2026-09-03T14:04:53Z</time>
					</trkpt>
					<trkpt lat="44.407920" lon="5.478840">
						<ele>895</ele>
						<time>2026-09-03T14:05:12Z</time>
					</trkpt>
					<trkpt lat="44.407660" lon="5.478210">
						<ele>891</ele>
						<time>2026-09-03T14:05:38Z</time>
					</trkpt>
					<trkpt lat="44.407280" lon="5.477710">
						<ele>887</ele>
						<time>2026-09-03T14:06:04Z</time>
					</trkpt>
					<trkpt lat="44.407230" lon="5.477590">
						<ele>887</ele>
						<time>2026-09-03T14:06:09Z</time>
					</trkpt>
					<trkpt lat="44.407200" lon="5.477400">
						<ele>889</ele>
						<time>2026-09-03T14:06:16Z</time>
					</trkpt>
					<trkpt lat="44.407130" lon="5.477290">
						<ele>889</ele>
						<time>2026-09-03T14:06:22Z</time>
					</trkpt>
					<trkpt lat="44.406690" lon="5.477110">
						<ele>882</ele>
						<time>2026-09-03T14:06:45Z</time>
					</trkpt>
					<trkpt lat="44.406310" lon="5.476990">
						<ele>877</ele>
						<time>2026-09-03T14:07:04Z</time>
					</trkpt>
					<trkpt lat="44.406120" lon="5.476830">
						<ele>877</ele>
						<time>2026-09-03T14:07:15Z</time>
					</trkpt>
					<trkpt lat="44.406010" lon="5.476790">
						<ele>876</ele>
						<time>2026-09-03T14:07:21Z</time>
					</trkpt>
					<trkpt lat="44.405870" lon="5.476790">
						<ele>874</ele>
						<time>2026-09-03T14:07:28Z</time>
					</trkpt>
					<trkpt lat="44.405480" lon="5.476860">
						<ele>869</ele>
						<time>2026-09-03T14:07:47Z</time>
					</trkpt>
					<trkpt lat="44.405320" lon="5.476970">
						<ele>865</ele>
						<time>2026-09-03T14:07:56Z</time>
					</trkpt>
					<trkpt lat="44.404540" lon="5.476990">
						<ele>850</ele>
						<time>2026-09-03T14:08:35Z</time>
					</trkpt>
					<trkpt lat="44.404460" lon="5.476910">
						<ele>851</ele>
						<time>2026-09-03T14:08:40Z</time>
					</trkpt>
					<trkpt lat="44.404340" lon="5.476700">
						<ele>856</ele>
						<time>2026-09-03T14:08:50Z</time>
					</trkpt>
					<trkpt lat="44.403600" lon="5.476390">
						<ele>848</ele>
						<time>2026-09-03T14:09:29Z</time>
					</trkpt>
					<trkpt lat="44.403350" lon="5.476200">
						<ele>849</ele>
						<time>2026-09-03T14:09:43Z</time>
					</trkpt>
					<trkpt lat="44.403140" lon="5.476180">
						<ele>844</ele>
						<time>2026-09-03T14:09:53Z</time>
					</trkpt>
					<trkpt lat="44.402210" lon="5.475820">
						<ele>833</ele>
						<time>2026-09-03T14:10:42Z</time>
					</trkpt>
					<trkpt lat="44.401800" lon="5.475600">
						<ele>827</ele>
						<time>2026-09-03T14:11:04Z</time>
					</trkpt>
					<trkpt lat="44.401400" lon="5.475300">
						<ele>823</ele>
						<time>2026-09-03T14:11:26Z</time>
					</trkpt>
					<trkpt lat="44.401220" lon="5.475120">
						<ele>822</ele>
						<time>2026-09-03T14:11:37Z</time>
					</trkpt>
					<trkpt lat="44.401180" lon="5.474940">
						<ele>824</ele>
						<time>2026-09-03T14:11:44Z</time>
					</trkpt>
					<trkpt lat="44.401250" lon="5.474620">
						<ele>828</ele>
						<time>2026-09-03T14:11:56Z</time>
					</trkpt>
					<trkpt lat="44.401240" lon="5.474450">
						<ele>829</ele>
						<time>2026-09-03T14:12:02Z</time>
					</trkpt>
					<trkpt lat="44.401190" lon="5.474320">
						<ele>828</ele>
						<time>2026-09-03T14:12:08Z</time>
					</trkpt>
					<trkpt lat="44.401090" lon="5.474220">
						<ele>827</ele>
						<time>2026-09-03T14:12:14Z</time>
					</trkpt>
					<trkpt lat="44.400780" lon="5.474100">
						<ele>821</ele>
						<time>2026-09-03T14:12:30Z</time>
					</trkpt>
					<trkpt lat="44.400420" lon="5.474080">
						<ele>817</ele>
						<time>2026-09-03T14:12:48Z</time>
					</trkpt>
					<trkpt lat="44.400190" lon="5.474020">
						<ele>814</ele>
						<time>2026-09-03T14:13:00Z</time>
					</trkpt>
					<trkpt lat="44.400020" lon="5.474040">
						<ele>812</ele>
						<time>2026-09-03T14:13:08Z</time>
					</trkpt>
					<trkpt lat="44.399740" lon="5.474130">
						<ele>806</ele>
						<time>2026-09-03T14:13:22Z</time>
					</trkpt>
					<trkpt lat="44.399610" lon="5.474100">
						<ele>803</ele>
						<time>2026-09-03T14:13:29Z</time>
					</trkpt>
					<trkpt lat="44.399580" lon="5.474070">
						<ele>803</ele>
						<time>2026-09-03T14:13:31Z</time>
					</trkpt>
					<trkpt lat="44.399560" lon="5.473970">
						<ele>803</ele>
						<time>2026-09-03T14:13:35Z</time>
					</trkpt>
					<trkpt lat="44.399580" lon="5.473860">
						<ele>804</ele>
						<time>2026-09-03T14:13:39Z</time>
					</trkpt>
					<trkpt lat="44.399810" lon="5.473690">
						<ele>809</ele>
						<time>2026-09-03T14:13:52Z</time>
					</trkpt>
					<trkpt lat="44.399810" lon="5.473560">
						<ele>809</ele>
						<time>2026-09-03T14:13:56Z</time>
					</trkpt>
					<trkpt lat="44.399780" lon="5.473490">
						<ele>809</ele>
						<time>2026-09-03T14:13:59Z</time>
					</trkpt>
					<trkpt lat="44.399710" lon="5.473480">
						<ele>807</ele>
						<time>2026-09-03T14:14:03Z</time>
					</trkpt>
					<trkpt lat="44.399630" lon="5.473520">
						<ele>806</ele>
						<time>2026-09-03T14:14:07Z</time>
					</trkpt>
					<trkpt lat="44.399350" lon="5.473870">
						<ele>799</ele>
						<time>2026-09-03T14:14:26Z</time>
					</trkpt>
					<trkpt lat="44.399150" lon="5.474330">
						<ele>792</ele>
						<time>2026-09-03T14:14:45Z</time>
					</trkpt>
					<trkpt lat="44.399100" lon="5.474510">
						<ele>789</ele>
						<time>2026-09-03T14:14:52Z</time>
					</trkpt>
					<trkpt lat="44.399090" lon="5.474570">
						<ele>789</ele>
						<time>2026-09-03T14:14:54Z</time>
					</trkpt>
					<trkpt lat="44.399120" lon="5.474660">
						<ele>788</ele>
						<time>2026-09-03T14:14:58Z</time>
					</trkpt>
					<trkpt lat="44.399500" lon="5.475010">
						<ele>791</ele>
						<time>2026-09-03T14:15:20Z</time>
					</trkpt>
					<trkpt lat="44.399500" lon="5.475150">
						<ele>788</ele>
						<time>2026-09-03T14:15:25Z</time>
					</trkpt>
					<trkpt lat="44.399450" lon="5.475220">
						<ele>785</ele>
						<time>2026-09-03T14:15:29Z</time>
					</trkpt>
					<trkpt lat="44.399380" lon="5.475230">
						<ele>785</ele>
						<time>2026-09-03T14:15:33Z</time>
					</trkpt>
					<trkpt lat="44.399160" lon="5.475130">
						<ele>784</ele>
						<time>2026-09-03T14:15:44Z</time>
					</trkpt>
					<trkpt lat="44.398890" lon="5.474890">
						<ele>781</ele>
						<time>2026-09-03T14:16:00Z</time>
					</trkpt>
					<trkpt lat="44.398750" lon="5.474840">
						<ele>779</ele>
						<time>2026-09-03T14:16:07Z</time>
					</trkpt>
					<trkpt lat="44.398610" lon="5.474750">
						<ele>777</ele>
						<time>2026-09-03T14:16:15Z</time>
					</trkpt>
					<trkpt lat="44.398580" lon="5.474630">
						<ele>777</ele>
						<time>2026-09-03T14:16:20Z</time>
					</trkpt>
					<trkpt lat="44.398550" lon="5.474170">
						<ele>781</ele>
						<time>2026-09-03T14:16:36Z</time>
					</trkpt>
					<trkpt lat="44.398430" lon="5.473890">
						<ele>780</ele>
						<time>2026-09-03T14:16:48Z</time>
					</trkpt>
					<trkpt lat="44.398310" lon="5.473740">
						<ele>778</ele>
						<time>2026-09-03T14:16:56Z</time>
					</trkpt>
					<trkpt lat="44.398190" lon="5.473730">
						<ele>776</ele>
						<time>2026-09-03T14:17:02Z</time>
					</trkpt>
					<trkpt lat="44.397970" lon="5.473790">
						<ele>772</ele>
						<time>2026-09-03T14:17:13Z</time>
					</trkpt>
					<trkpt lat="44.397680" lon="5.473830">
						<ele>767</ele>
						<time>2026-09-03T14:17:28Z</time>
					</trkpt>
					<trkpt lat="44.397600" lon="5.473850">
						<ele>766</ele>
						<time>2026-09-03T14:17:32Z</time>
					</trkpt>
					<trkpt lat="44.397470" lon="5.473930">
						<ele>764</ele>
						<time>2026-09-03T14:17:39Z</time>
					</trkpt>
					<trkpt lat="44.397390" lon="5.474110">
						<ele>762</ele>
						<time>2026-09-03T14:17:46Z</time>
					</trkpt>
					<trkpt lat="44.397420" lon="5.474310">
						<ele>761</ele>
						<time>2026-09-03T14:17:54Z</time>
					</trkpt>
					<trkpt lat="44.397450" lon="5.474390">
						<ele>761</ele>
						<time>2026-09-03T14:17:57Z</time>
					</trkpt>
					<trkpt lat="44.397570" lon="5.474530">
						<ele>761</ele>
						<time>2026-09-03T14:18:05Z</time>
					</trkpt>
					<trkpt lat="44.397590" lon="5.474710">
						<ele>759</ele>
						<time>2026-09-03T14:18:11Z</time>
					</trkpt>
					<trkpt lat="44.397540" lon="5.474740">
						<ele>758</ele>
						<time>2026-09-03T14:18:14Z</time>
					</trkpt>
					<trkpt lat="44.397440" lon="5.474740">
						<ele>756</ele>
						<time>2026-09-03T14:18:19Z</time>
					</trkpt>
					<trkpt lat="44.397210" lon="5.474460">
						<ele>754</ele>
						<time>2026-09-03T14:18:34Z</time>
					</trkpt>
					<trkpt lat="44.397120" lon="5.474380">
						<ele>752</ele>
						<time>2026-09-03T14:18:40Z</time>
					</trkpt>
					<trkpt lat="44.396860" lon="5.474220">
						<ele>747</ele>
						<time>2026-09-03T14:18:54Z</time>
					</trkpt>
					<trkpt lat="44.396790" lon="5.474130">
						<ele>745</ele>
						<time>2026-09-03T14:18:59Z</time>
					</trkpt>
					<trkpt lat="44.396750" lon="5.473840">
						<ele>745</ele>
						<time>2026-09-03T14:19:09Z</time>
					</trkpt>
					<trkpt lat="44.396760" lon="5.473680">
						<ele>746</ele>
						<time>2026-09-03T14:19:15Z</time>
					</trkpt>
					<trkpt lat="44.396830" lon="5.473380">
						<ele>748</ele>
						<time>2026-09-03T14:19:26Z</time>
					</trkpt>
					<trkpt lat="44.396820" lon="5.473260">
						<ele>749</ele>
						<time>2026-09-03T14:19:30Z</time>
					</trkpt>
					<trkpt lat="44.396770" lon="5.473160">
						<ele>750</ele>
						<time>2026-09-03T14:19:35Z</time>
					</trkpt>
					<trkpt lat="44.396450" lon="5.473080">
						<ele>746</ele>
						<time>2026-09-03T14:19:51Z</time>
					</trkpt>
					<trkpt lat="44.396210" lon="5.473140">
						<ele>740</ele>
						<time>2026-09-03T14:20:03Z</time>
					</trkpt>
					<trkpt lat="44.396010" lon="5.473160">
						<ele>736</ele>
						<time>2026-09-03T14:20:13Z</time>
					</trkpt>
					<trkpt lat="44.395220" lon="5.473170">
						<ele>725</ele>
						<time>2026-09-03T14:20:53Z</time>
					</trkpt>
					<trkpt lat="44.394910" lon="5.473100">
						<ele>723</ele>
						<time>2026-09-03T14:21:09Z</time>
					</trkpt>
					<trkpt lat="44.394290" lon="5.472890">
						<ele>720</ele>
						<time>2026-09-03T14:21:40Z</time>
					</trkpt>
					<trkpt lat="44.394030" lon="5.472830">
						<ele>717</ele>
						<time>2026-09-03T14:21:54Z</time>
					</trkpt>
					<trkpt lat="44.393880" lon="5.472750">
						<ele>715</ele>
						<time>2026-09-03T14:22:02Z</time>
					</trkpt>
					<trkpt lat="44.393780" lon="5.472630">
						<ele>714</ele>
						<time>2026-09-03T14:22:08Z</time>
					</trkpt>
					<trkpt lat="44.393650" lon="5.472240">
						<ele>715</ele>
						<time>2026-09-03T14:22:24Z</time>
					</trkpt>
					<trkpt lat="44.393510" lon="5.471930">
						<ele>715</ele>
						<time>2026-09-03T14:22:37Z</time>
					</trkpt>
					<trkpt lat="44.393270" lon="5.471590">
						<ele>712</ele>
						<time>2026-09-03T14:22:54Z</time>
					</trkpt>
					<trkpt lat="44.393100" lon="5.471420">
						<ele>710</ele>
						<time>2026-09-03T14:23:04Z</time>
					</trkpt>
					<trkpt lat="44.392980" lon="5.471200">
						<ele>710</ele>
						<time>2026-09-03T14:23:14Z</time>
					</trkpt>
					<trkpt lat="44.392900" lon="5.471120">
						<ele>709</ele>
						<time>2026-09-03T14:23:19Z</time>
					</trkpt>
					<trkpt lat="44.392840" lon="5.471100">
						<ele>708</ele>
						<time>2026-09-03T14:23:22Z</time>
					</trkpt>
					<trkpt lat="44.392730" lon="5.471110">
						<ele>707</ele>
						<time>2026-09-03T14:23:28Z</time>
					</trkpt>
					<trkpt lat="44.392620" lon="5.471190">
						<ele>705</ele>
						<time>2026-09-03T14:23:34Z</time>
					</trkpt>
					<trkpt lat="44.392610" lon="5.471110">
						<ele>706</ele>
						<time>2026-09-03T14:23:37Z</time>
					</trkpt>
					<trkpt lat="44.392630" lon="5.471040">
						<ele>706</ele>
						<time>2026-09-03T14:23:40Z</time>
					</trkpt>
					<trkpt lat="44.392610" lon="5.470930">
						<ele>707</ele>
						<time>2026-09-03T14:23:44Z</time>
					</trkpt>
					<trkpt lat="44.392970" lon="5.470460">
						<ele>709</ele>
						<time>2026-09-03T14:24:08Z</time>
					</trkpt>
					<trkpt lat="44.393090" lon="5.470360">
						<ele>709</ele>
						<time>2026-09-03T14:24:15Z</time>
					</trkpt>
					<trkpt lat="44.393250" lon="5.470360">
						<ele>711</ele>
						<time>2026-09-03T14:24:23Z</time>
					</trkpt>
					<trkpt lat="44.393420" lon="5.470300">
						<ele>713</ele>
						<time>2026-09-03T14:24:32Z</time>
					</trkpt>
					<trkpt lat="44.393800" lon="5.469680">
						<ele>714</ele>
						<time>2026-09-03T14:25:01Z</time>
					</trkpt>
					<trkpt lat="44.393910" lon="5.469430">
						<ele>715</ele>
						<time>2026-09-03T14:25:12Z</time>
					</trkpt>
					<trkpt lat="44.394100" lon="5.468760">
						<ele>714</ele>
						<time>2026-09-03T14:25:38Z</time>
					</trkpt>
					<trkpt lat="44.394150" lon="5.468460">
						<ele>713</ele>
						<time>2026-09-03T14:25:49Z</time>
					</trkpt>
					<trkpt lat="44.394250" lon="5.468200">
						<ele>712</ele>
						<time>2026-09-03T14:25:59Z</time>
					</trkpt>
					<trkpt lat="44.394340" lon="5.468130">
						<ele>712</ele>
						<time>2026-09-03T14:26:04Z</time>
					</trkpt>
					<trkpt lat="44.394680" lon="5.468000">
						<ele>713</ele>
						<time>2026-09-03T14:26:22Z</time>
					</trkpt>
					<trkpt lat="44.394900" lon="5.467780">
						<ele>712</ele>
						<time>2026-09-03T14:26:35Z</time>
					</trkpt>
					<trkpt lat="44.395090" lon="5.467500">
						<ele>710</ele>
						<time>2026-09-03T14:26:49Z</time>
					</trkpt>
					<trkpt lat="44.395330" lon="5.467350">
						<ele>711</ele>
						<time>2026-09-03T14:27:02Z</time>
					</trkpt>
					<trkpt lat="44.395490" lon="5.467040">
						<ele>710</ele>
						<time>2026-09-03T14:27:16Z</time>
					</trkpt>
					<trkpt lat="44.395560" lon="5.466840">
						<ele>710</ele>
						<time>2026-09-03T14:27:24Z</time>
					</trkpt>
					<trkpt lat="44.395560" lon="5.466680">
						<ele>709</ele>
						<time>2026-09-03T14:27:30Z</time>
					</trkpt>
					<trkpt lat="44.395420" lon="5.466180">
						<ele>703</ele>
						<time>2026-09-03T14:27:49Z</time>
					</trkpt>
					<trkpt lat="44.395420" lon="5.465940">
						<ele>702</ele>
						<time>2026-09-03T14:27:58Z</time>
					</trkpt>
					<trkpt lat="44.395450" lon="5.465790">
						<ele>702</ele>
						<time>2026-09-03T14:28:03Z</time>
					</trkpt>
					<trkpt lat="44.395800" lon="5.465230">
						<ele>707</ele>
						<time>2026-09-03T14:28:30Z</time>
					</trkpt>
					<trkpt lat="44.395820" lon="5.465020">
						<ele>707</ele>
						<time>2026-09-03T14:28:37Z</time>
					</trkpt>
					<trkpt lat="44.395790" lon="5.464900">
						<ele>707</ele>
						<time>2026-09-03T14:28:42Z</time>
					</trkpt>
					<trkpt lat="44.395400" lon="5.464150">
						<ele>706</ele>
						<time>2026-09-03T14:29:15Z</time>
					</trkpt>
					<trkpt lat="44.395260" lon="5.463810">
						<ele>703</ele>
						<time>2026-09-03T14:29:29Z</time>
					</trkpt>
					<trkpt lat="44.395220" lon="5.463410">
						<ele>703</ele>
						<time>2026-09-03T14:29:43Z</time>
					</trkpt>
					<trkpt lat="44.395230" lon="5.463240">
						<ele>703</ele>
						<time>2026-09-03T14:29:50Z</time>
					</trkpt>
					<trkpt lat="44.395320" lon="5.462830">
						<ele>703</ele>
						<time>2026-09-03T14:30:05Z</time>
					</trkpt>
					<trkpt lat="44.395450" lon="5.462530">
						<ele>705</ele>
						<time>2026-09-03T14:30:17Z</time>
					</trkpt>
					<trkpt lat="44.395510" lon="5.462280">
						<ele>706</ele>
						<time>2026-09-03T14:30:27Z</time>
					</trkpt>
					<trkpt lat="44.395530" lon="5.462030">
						<ele>706</ele>
						<time>2026-09-03T14:30:36Z</time>
					</trkpt>
					<trkpt lat="44.395530" lon="5.460620">
						<ele>704</ele>
						<time>2026-09-03T14:31:26Z</time>
					</trkpt>
					<trkpt lat="44.395660" lon="5.460120">
						<ele>704</ele>
						<time>2026-09-03T14:31:45Z</time>
					</trkpt>
					<trkpt lat="44.395820" lon="5.459920">
						<ele>704</ele>
						<time>2026-09-03T14:31:56Z</time>
					</trkpt>
					<trkpt lat="44.396170" lon="5.459760">
						<ele>706</ele>
						<time>2026-09-03T14:32:14Z</time>
					</trkpt>
					<trkpt lat="44.396360" lon="5.459620">
						<ele>706</ele>
						<time>2026-09-03T14:32:25Z</time>
					</trkpt>
					<trkpt lat="44.396540" lon="5.459440">
						<ele>704</ele>
						<time>2026-09-03T14:32:36Z</time>
					</trkpt>
					<trkpt lat="44.396660" lon="5.459370">
						<ele>704</ele>
						<time>2026-09-03T14:32:43Z</time>
					</trkpt>
					<trkpt lat="44.396820" lon="5.459330">
						<ele>705</ele>
						<time>2026-09-03T14:32:51Z</time>
					</trkpt>
					<trkpt lat="44.397120" lon="5.459400">
						<ele>709</ele>
						<time>2026-09-03T14:33:06Z</time>
					</trkpt>
					<trkpt lat="44.397230" lon="5.459400">
						<ele>710</ele>
						<time>2026-09-03T14:33:12Z</time>
					</trkpt>
					<trkpt lat="44.397300" lon="5.459370">
						<ele>710</ele>
						<time>2026-09-03T14:33:15Z</time>
					</trkpt>
					<trkpt lat="44.397330" lon="5.459330">
						<ele>710</ele>
						<time>2026-09-03T14:33:17Z</time>
					</trkpt>
					<trkpt lat="44.397360" lon="5.459180">
						<ele>708</ele>
						<time>2026-09-03T14:33:23Z</time>
					</trkpt>
					<trkpt lat="44.397350" lon="5.458840">
						<ele>704</ele>
						<time>2026-09-03T14:33:35Z</time>
					</trkpt>
					<trkpt lat="44.397500" lon="5.458210">
						<ele>699</ele>
						<time>2026-09-03T14:33:59Z</time>
					</trkpt>
					<trkpt lat="44.397710" lon="5.456720">
						<ele>694</ele>
						<time>2026-09-03T14:34:53Z</time>
					</trkpt>
					<trkpt lat="44.397760" lon="5.456550">
						<ele>694</ele>
						<time>2026-09-03T14:35:00Z</time>
					</trkpt>
					<trkpt lat="44.397830" lon="5.456450">
						<ele>694</ele>
						<time>2026-09-03T14:35:05Z</time>
					</trkpt>
					<trkpt lat="44.398300" lon="5.456300">
						<ele>699</ele>
						<time>2026-09-03T14:35:29Z</time>
					</trkpt>
					<trkpt lat="44.398730" lon="5.456070">
						<ele>703</ele>
						<time>2026-09-03T14:35:52Z</time>
					</trkpt>
					<trkpt lat="44.398860" lon="5.455940">
						<ele>703</ele>
						<time>2026-09-03T14:36:00Z</time>
					</trkpt>
					<trkpt lat="44.399130" lon="5.455770">
						<ele>705</ele>
						<time>2026-09-03T14:36:15Z</time>
					</trkpt>
					<trkpt lat="44.399180" lon="5.455630">
						<ele>708</ele>
						<time>2026-09-03T14:36:20Z</time>
					</trkpt>
					<trkpt lat="44.399160" lon="5.455550">
						<ele>709</ele>
						<time>2026-09-03T14:36:23Z</time>
					</trkpt>
					<trkpt lat="44.399130" lon="5.455510">
						<ele>709</ele>
						<time>2026-09-03T14:36:25Z</time>
					</trkpt>
					<trkpt lat="44.399030" lon="5.455500">
						<ele>708</ele>
						<time>2026-09-03T14:36:30Z</time>
					</trkpt>
					<trkpt lat="44.398580" lon="5.455570">
						<ele>702</ele>
						<time>2026-09-03T14:36:53Z</time>
					</trkpt>
					<trkpt lat="44.398420" lon="5.455630">
						<ele>700</ele>
						<time>2026-09-03T14:37:01Z</time>
					</trkpt>
					<trkpt lat="44.398260" lon="5.455640">
						<ele>698</ele>
						<time>2026-09-03T14:37:09Z</time>
					</trkpt>
					<trkpt lat="44.397620" lon="5.455490">
						<ele>693</ele>
						<time>2026-09-03T14:37:42Z</time>
					</trkpt>
					<trkpt lat="44.397390" lon="5.455320">
						<ele>692</ele>
						<time>2026-09-03T14:37:55Z</time>
					</trkpt>
					<trkpt lat="44.397330" lon="5.455230">
						<ele>692</ele>
						<time>2026-09-03T14:37:59Z</time>
					</trkpt>
					<trkpt lat="44.397230" lon="5.454850">
						<ele>693</ele>
						<time>2026-09-03T14:38:14Z</time>
					</trkpt>
					<trkpt lat="44.397260" lon="5.454580">
						<ele>694</ele>
						<time>2026-09-03T14:38:24Z</time>
					</trkpt>
					<trkpt lat="44.397350" lon="5.454330">
						<ele>695</ele>
						<time>2026-09-03T14:38:34Z</time>
					</trkpt>
					<trkpt lat="44.397330" lon="5.454330">
						<ele>695</ele>
						<time>2026-09-03T14:38:35Z</time>
					</trkpt>
					<trkpt lat="44.397330" lon="5.454270">
						<ele>695</ele>
						<time>2026-09-03T14:38:37Z</time>
					</trkpt>
					<trkpt lat="44.397400" lon="5.453940">
						<ele>694</ele>
						<time>2026-09-03T14:38:49Z</time>
					</trkpt>
					<trkpt lat="44.397330" lon="5.453250">
						<ele>688</ele>
						<time>2026-09-03T14:39:14Z</time>
					</trkpt>
					<trkpt lat="44.397180" lon="5.452570">
						<ele>682</ele>
						<time>2026-09-03T14:39:39Z</time>
					</trkpt>
					<trkpt lat="44.397120" lon="5.452160">
						<ele>679</ele>
						<time>2026-09-03T14:39:54Z</time>
					</trkpt>
					<trkpt lat="44.397110" lon="5.451760">
						<ele>677</ele>
						<time>2026-09-03T14:40:09Z</time>
					</trkpt>
					<trkpt lat="44.397180" lon="5.451570">
						<ele>678</ele>
						<time>2026-09-03T14:40:16Z</time>
					</trkpt>
					<trkpt lat="44.397050" lon="5.451430">
						<ele>674</ele>
						<time>2026-09-03T14:40:24Z</time>
					</trkpt>
					<trkpt lat="44.396970" lon="5.451180">
						<ele>670</ele>
						<time>2026-09-03T14:40:34Z</time>
					</trkpt>
					<trkpt lat="44.396710" lon="5.450930">
						<ele>663</ele>
						<time>2026-09-03T14:40:50Z</time>
					</trkpt>
					<trkpt lat="44.396200" lon="5.450570">
						<ele>650</ele>
						<time>2026-09-03T14:41:19Z</time>
					</trkpt>
					<trkpt lat="44.395910" lon="5.450530">
						<ele>643</ele>
						<time>2026-09-03T14:41:33Z</time>
					</trkpt>
					<trkpt lat="44.395660" lon="5.450310">
						<ele>636</ele>
						<time>2026-09-03T14:41:48Z</time>
					</trkpt>
					<trkpt lat="44.395560" lon="5.450270">
						<ele>633</ele>
						<time>2026-09-03T14:41:53Z</time>
					</trkpt>
					<trkpt lat="44.395210" lon="5.450250">
						<ele>627</ele>
						<time>2026-09-03T14:42:11Z</time>
					</trkpt>
					<trkpt lat="44.394910" lon="5.450170">
						<ele>622</ele>
						<time>2026-09-03T14:42:26Z</time>
					</trkpt>
					<trkpt lat="44.394720" lon="5.450170">
						<ele>620</ele>
						<time>2026-09-03T14:42:36Z</time>
					</trkpt>
					<trkpt lat="44.394370" lon="5.450230">
						<ele>617</ele>
						<time>2026-09-03T14:42:53Z</time>
					</trkpt>
					<trkpt lat="44.394300" lon="5.450220">
						<ele>616</ele>
						<time>2026-09-03T14:42:57Z</time>
					</trkpt>
					<trkpt lat="44.394470" lon="5.450110">
						<ele>617</ele>
						<time>2026-09-03T14:43:06Z</time>
					</trkpt>
					<trkpt lat="44.394590" lon="5.449990">
						<ele>616</ele>
						<time>2026-09-03T14:43:13Z</time>
					</trkpt>
					<trkpt lat="44.394810" lon="5.449860">
						<ele>617</ele>
						<time>2026-09-03T14:43:25Z</time>
					</trkpt>
					<trkpt lat="44.394910" lon="5.449740">
						<ele>616</ele>
						<time>2026-09-03T14:43:32Z</time>
					</trkpt>
					<trkpt lat="44.394940" lon="5.449690">
						<ele>616</ele>
						<time>2026-09-03T14:43:34Z</time>
					</trkpt>
					<trkpt lat="44.394940" lon="5.449570">
						<ele>614</ele>
						<time>2026-09-03T14:43:39Z</time>
					</trkpt>
					<trkpt lat="44.394890" lon="5.449270">
						<ele>610</ele>
						<time>2026-09-03T14:43:50Z</time>
					</trkpt>
					<trkpt lat="44.394320" lon="5.449130">
						<ele>607</ele>
						<time>2026-09-03T14:44:19Z</time>
					</trkpt>
					<trkpt lat="44.393510" lon="5.448760">
						<ele>605</ele>
						<time>2026-09-03T14:45:01Z</time>
					</trkpt>
					<trkpt lat="44.392920" lon="5.448300">
						<ele>604</ele>
						<time>2026-09-03T14:45:35Z</time>
					</trkpt>
					<trkpt lat="44.392790" lon="5.448230">
						<ele>604</ele>
						<time>2026-09-03T14:45:42Z</time>
					</trkpt>
					<trkpt lat="44.392700" lon="5.448240">
						<ele>603</ele>
						<time>2026-09-03T14:45:47Z</time>
					</trkpt>
					<trkpt lat="44.392580" lon="5.448360">
						<ele>601</ele>
						<time>2026-09-03T14:45:54Z</time>
					</trkpt>
					<trkpt lat="44.392450" lon="5.448380">
						<ele>600</ele>
						<time>2026-09-03T14:46:00Z</time>
					</trkpt>
					<trkpt lat="44.392290" lon="5.448340">
						<ele>599</ele>
						<time>2026-09-03T14:46:09Z</time>
					</trkpt>
					<trkpt lat="44.391540" lon="5.447760">
						<ele>598</ele>
						<time>2026-09-03T14:46:51Z</time>
					</trkpt>
					<trkpt lat="44.391280" lon="5.447510">
						<ele>599</ele>
						<time>2026-09-03T14:47:07Z</time>
					</trkpt>
					<trkpt lat="44.391160" lon="5.447470">
						<ele>599</ele>
						<time>2026-09-03T14:47:13Z</time>
					</trkpt>
					<trkpt lat="44.391050" lon="5.447510">
						<ele>598</ele>
						<time>2026-09-03T14:47:19Z</time>
					</trkpt>
					<trkpt lat="44.390980" lon="5.447570">
						<ele>597</ele>
						<time>2026-09-03T14:47:23Z</time>
					</trkpt>
					<trkpt lat="44.390680" lon="5.447980">
						<ele>592</ele>
						<time>2026-09-03T14:47:44Z</time>
					</trkpt>
					<trkpt lat="44.390540" lon="5.448060">
						<ele>591</ele>
						<time>2026-09-03T14:47:52Z</time>
					</trkpt>
					<trkpt lat="44.390330" lon="5.448090">
						<ele>590</ele>
						<time>2026-09-03T14:48:02Z</time>
					</trkpt>
					<trkpt lat="44.390180" lon="5.448060">
						<ele>590</ele>
						<time>2026-09-03T14:48:10Z</time>
					</trkpt>
					<trkpt lat="44.389640" lon="5.447840">
						<ele>590</ele>
						<time>2026-09-03T14:48:38Z</time>
					</trkpt>
					<trkpt lat="44.389010" lon="5.447820">
						<ele>589</ele>
						<time>2026-09-03T14:49:10Z</time>
					</trkpt>
					<trkpt lat="44.388730" lon="5.447770">
						<ele>589</ele>
						<time>2026-09-03T14:49:24Z</time>
					</trkpt>
					<trkpt lat="44.388500" lon="5.447790">
						<ele>588</ele>
						<time>2026-09-03T14:49:35Z</time>
					</trkpt>
					<trkpt lat="44.388250" lon="5.447900">
						<ele>586</ele>
						<time>2026-09-03T14:49:48Z</time>
					</trkpt>
					<trkpt lat="44.388000" lon="5.447890">
						<ele>584</ele>
						<time>2026-09-03T14:50:01Z</time>
					</trkpt>
					<trkpt lat="44.387240" lon="5.447510">
						<ele>584</ele>
						<time>2026-09-03T14:50:41Z</time>
					</trkpt>
					<trkpt lat="44.387150" lon="5.447510">
						<ele>584</ele>
						<time>2026-09-03T14:50:46Z</time>
					</trkpt>
					<trkpt lat="44.387010" lon="5.447620">
						<ele>583</ele>
						<time>2026-09-03T14:50:54Z</time>
					</trkpt>
					<trkpt lat="44.386910" lon="5.447660">
						<ele>582</ele>
						<time>2026-09-03T14:50:59Z</time>
					</trkpt>
					<trkpt lat="44.386610" lon="5.447620">
						<ele>582</ele>
						<time>2026-09-03T14:51:14Z</time>
					</trkpt>
					<trkpt lat="44.386350" lon="5.447650">
						<ele>580</ele>
						<time>2026-09-03T14:51:27Z</time>
					</trkpt>
					<trkpt lat="44.386040" lon="5.447580">
						<ele>578</ele>
						<time>2026-09-03T14:51:43Z</time>
					</trkpt>
					<trkpt lat="44.385680" lon="5.447350">
						<ele>579</ele>
						<time>2026-09-03T14:52:03Z</time>
					</trkpt>
					<trkpt lat="44.385460" lon="5.447180">
						<ele>580</ele>
						<time>2026-09-03T14:52:15Z</time>
					</trkpt>
					<trkpt lat="44.385180" lon="5.447070">
						<ele>579</ele>
						<time>2026-09-03T14:52:30Z</time>
					</trkpt>
					<trkpt lat="44.384670" lon="5.446730">
						<ele>577</ele>
						<time>2026-09-03T14:52:58Z</time>
					</trkpt>
					<trkpt lat="44.384290" lon="5.446520">
						<ele>575</ele>
						<time>2026-09-03T14:53:19Z</time>
					</trkpt>
					<trkpt lat="44.384140" lon="5.446320">
						<ele>575</ele>
						<time>2026-09-03T14:53:29Z</time>
					</trkpt>
					<trkpt lat="44.384060" lon="5.446150">
						<ele>576</ele>
						<time>2026-09-03T14:53:36Z</time>
					</trkpt>
					<trkpt lat="44.384080" lon="5.445890">
						<ele>578</ele>
						<time>2026-09-03T14:53:46Z</time>
					</trkpt>
					<trkpt lat="44.384060" lon="5.445810">
						<ele>579</ele>
						<time>2026-09-03T14:53:49Z</time>
					</trkpt>
					<trkpt lat="44.383870" lon="5.445500">
						<ele>581</ele>
						<time>2026-09-03T14:54:03Z</time>
					</trkpt>
					<trkpt lat="44.383790" lon="5.445430">
						<ele>581</ele>
						<time>2026-09-03T14:54:08Z</time>
					</trkpt>
					<trkpt lat="44.383670" lon="5.445430">
						<ele>580</ele>
						<time>2026-09-03T14:54:14Z</time>
					</trkpt>
					<trkpt lat="44.383410" lon="5.445570">
						<ele>577</ele>
						<time>2026-09-03T14:54:28Z</time>
					</trkpt>
					<trkpt lat="44.383340" lon="5.445670">
						<ele>575</ele>
						<time>2026-09-03T14:54:33Z</time>
					</trkpt>
					<trkpt lat="44.383210" lon="5.445990">
						<ele>572</ele>
						<time>2026-09-03T14:54:46Z</time>
					</trkpt>
					<trkpt lat="44.382760" lon="5.446200">
						<ele>569</ele>
						<time>2026-09-03T14:55:10Z</time>
					</trkpt>
					<trkpt lat="44.382490" lon="5.446380">
						<ele>567</ele>
						<time>2026-09-03T14:55:25Z</time>
					</trkpt>
					<trkpt lat="44.382320" lon="5.446260">
						<ele>567</ele>
						<time>2026-09-03T14:55:34Z</time>
					</trkpt>
					<trkpt lat="44.381700" lon="5.445570">
						<ele>564</ele>
						<time>2026-09-03T14:56:14Z</time>
					</trkpt>
					<trkpt lat="44.381560" lon="5.445500">
						<ele>564</ele>
						<time>2026-09-03T14:56:21Z</time>
					</trkpt>
					<trkpt lat="44.381340" lon="5.445490">
						<ele>563</ele>
						<time>2026-09-03T14:56:32Z</time>
					</trkpt>
					<trkpt lat="44.381160" lon="5.445550">
						<ele>561</ele>
						<time>2026-09-03T14:56:42Z</time>
					</trkpt>
					<trkpt lat="44.380970" lon="5.445710">
						<ele>560</ele>
						<time>2026-09-03T14:56:53Z</time>
					</trkpt>
					<trkpt lat="44.380450" lon="5.446000">
						<ele>560</ele>
						<time>2026-09-03T14:57:21Z</time>
					</trkpt>
					<trkpt lat="44.380060" lon="5.446050">
						<ele>560</ele>
						<time>2026-09-03T14:57:40Z</time>
					</trkpt>
					<trkpt lat="44.379980" lon="5.446000">
						<ele>560</ele>
						<time>2026-09-03T14:57:45Z</time>
					</trkpt>
					<trkpt lat="44.379810" lon="5.445430">
						<ele>557</ele>
						<time>2026-09-03T14:58:07Z</time>
					</trkpt>
					<trkpt lat="44.379770" lon="5.444860">
						<ele>555</ele>
						<time>2026-09-03T14:58:27Z</time>
					</trkpt>
					<trkpt lat="44.379540" lon="5.444200">
						<ele>554</ele>
						<time>2026-09-03T14:58:54Z</time>
					</trkpt>
					<trkpt lat="44.379450" lon="5.443240">
						<ele>554</ele>
						<time>2026-09-03T14:59:28Z</time>
					</trkpt>
					<trkpt lat="44.379410" lon="5.443090">
						<ele>553</ele>
						<time>2026-09-03T14:59:34Z</time>
					</trkpt>
					<trkpt lat="44.379400" lon="5.442390">
						<ele>554</ele>
						<time>2026-09-03T14:59:59Z</time>
					</trkpt>
					<trkpt lat="44.379360" lon="5.442180">
						<ele>553</ele>
						<time>2026-09-03T15:00:07Z</time>
					</trkpt>
					<trkpt lat="44.379220" lon="5.441860">
						<ele>552</ele>
						<time>2026-09-03T15:00:20Z</time>
					</trkpt>
					<trkpt lat="44.379150" lon="5.441620">
						<ele>552</ele>
						<time>2026-09-03T15:00:29Z</time>
					</trkpt>
					<trkpt lat="44.379190" lon="5.441240">
						<ele>553</ele>
						<time>2026-09-03T15:00:43Z</time>
					</trkpt>
					<trkpt lat="44.379090" lon="5.440760">
						<ele>553</ele>
						<time>2026-09-03T15:01:01Z</time>
					</trkpt>
					<trkpt lat="44.379080" lon="5.440430">
						<ele>552</ele>
						<time>2026-09-03T15:01:13Z</time>
					</trkpt>
					<trkpt lat="44.379030" lon="5.440070">
						<ele>551</ele>
						<time>2026-09-03T15:01:26Z</time>
					</trkpt>
					<trkpt lat="44.379030" lon="5.439740">
						<ele>550</ele>
						<time>2026-09-03T15:01:38Z</time>
					</trkpt>
					<trkpt lat="44.378940" lon="5.439350">
						<ele>547</ele>
						<time>2026-09-03T15:01:52Z</time>
					</trkpt>
					<trkpt lat="44.378820" lon="5.439190">
						<ele>546</ele>
						<time>2026-09-03T15:02:01Z</time>
					</trkpt>
					<trkpt lat="44.378790" lon="5.439090">
						<ele>545</ele>
						<time>2026-09-03T15:02:05Z</time>
					</trkpt>
					<trkpt lat="44.378670" lon="5.438490">
						<ele>543</ele>
						<time>2026-09-03T15:02:27Z</time>
					</trkpt>
					<trkpt lat="44.378660" lon="5.438110">
						<ele>543</ele>
						<time>2026-09-03T15:02:40Z</time>
					</trkpt>
					<trkpt lat="44.378740" lon="5.437580">
						<ele>543</ele>
						<time>2026-09-03T15:03:00Z</time>
					</trkpt>
					<trkpt lat="44.378830" lon="5.437210">
						<ele>544</ele>
						<time>2026-09-03T15:03:14Z</time>
					</trkpt>
					<trkpt lat="44.378900" lon="5.437220">
						<ele>545</ele>
						<time>2026-09-03T15:03:17Z</time>
					</trkpt>
					<trkpt lat="44.378960" lon="5.437170">
						<ele>545</ele>
						<time>2026-09-03T15:03:21Z</time>
					</trkpt>
					<trkpt lat="44.379030" lon="5.437160">
						<ele>546</ele>
						<time>2026-09-03T15:03:24Z</time>
					</trkpt>
					<trkpt lat="44.379490" lon="5.437180">
						<ele>550</ele>
						<time>2026-09-03T15:03:47Z</time>
					</trkpt>
					<trkpt lat="44.379670" lon="5.437110">
						<ele>552</ele>
						<time>2026-09-03T15:03:57Z</time>
					</trkpt>
					<trkpt lat="44.380110" lon="5.437020">
						<ele>556</ele>
						<time>2026-09-03T15:04:19Z</time>
					</trkpt>
					<trkpt lat="44.380360" lon="5.436900">
						<ele>559</ele>
						<time>2026-09-03T15:04:32Z</time>
					</trkpt>
					<trkpt lat="44.380590" lon="5.436830">
						<ele>561</ele>
						<time>2026-09-03T15:04:44Z</time>
					</trkpt>
					<trkpt lat="44.380870" lon="5.436820">
						<ele>564</ele>
						<time>2026-09-03T15:04:58Z</time>
					</trkpt>
					<trkpt lat="44.381010" lon="5.436760">
						<ele>565</ele>
						<time>2026-09-03T15:05:05Z</time>
					</trkpt>
					<trkpt lat="44.381140" lon="5.436630">
						<ele>567</ele>
						<time>2026-09-03T15:05:13Z</time>
					</trkpt>
					<trkpt lat="44.381200" lon="5.436510">
						<ele>567</ele>
						<time>2026-09-03T15:05:19Z</time>
					</trkpt>
					<trkpt lat="44.381360" lon="5.436320">
						<ele>569</ele>
						<time>2026-09-03T15:05:29Z</time>
					</trkpt>
					<trkpt lat="44.381570" lon="5.435930">
						<ele>571</ele>
						<time>2026-09-03T15:05:47Z</time>
					</trkpt>
					<trkpt lat="44.381910" lon="5.435070">
						<ele>573</ele>
						<time>2026-09-03T15:06:22Z</time>
					</trkpt>
					<trkpt lat="44.382140" lon="5.434650">
						<ele>572</ele>
						<time>2026-09-03T15:06:41Z</time>
					</trkpt>
					<trkpt lat="44.382420" lon="5.434050">
						<ele>569</ele>
						<time>2026-09-03T15:07:06Z</time>
					</trkpt>
					<trkpt lat="44.382540" lon="5.433860">
						<ele>568</ele>
						<time>2026-09-03T15:07:15Z</time>
					</trkpt>
					<trkpt lat="44.382860" lon="5.433480">
						<ele>566</ele>
						<time>2026-09-03T15:07:36Z</time>
					</trkpt>
					<trkpt lat="44.382970" lon="5.433390">
						<ele>565</ele>
						<time>2026-09-03T15:07:43Z</time>
					</trkpt>
					<trkpt lat="44.383050" lon="5.433380">
						<ele>564</ele>
						<time>2026-09-03T15:07:47Z</time>
					</trkpt>
					<trkpt lat="44.383260" lon="5.432850">
						<ele>556</ele>
						<time>2026-09-03T15:08:08Z</time>
					</trkpt>
					<trkpt lat="44.383410" lon="5.432590">
						<ele>551</ele>
						<time>2026-09-03T15:08:20Z</time>
					</trkpt>
					<trkpt lat="44.383510" lon="5.432530">
						<ele>551</ele>
						<time>2026-09-03T15:08:26Z</time>
					</trkpt>
					<trkpt lat="44.383760" lon="5.432480">
						<ele>551</ele>
						<time>2026-09-03T15:08:38Z</time>
					</trkpt>
					<trkpt lat="44.383810" lon="5.432420">
						<ele>551</ele>
						<time>2026-09-03T15:08:42Z</time>
					</trkpt>
					<trkpt lat="44.383870" lon="5.432220">
						<ele>551</ele>
						<time>2026-09-03T15:08:49Z</time>
					</trkpt>
					<trkpt lat="44.383880" lon="5.431970">
						<ele>551</ele>
						<time>2026-09-03T15:08:58Z</time>
					</trkpt>
					<trkpt lat="44.383650" lon="5.431710">
						<ele>549</ele>
						<time>2026-09-03T15:09:13Z</time>
					</trkpt>
					<trkpt lat="44.383630" lon="5.431650">
						<ele>549</ele>
						<time>2026-09-03T15:09:16Z</time>
					</trkpt>
					<trkpt lat="44.383640" lon="5.431550">
						<ele>549</ele>
						<time>2026-09-03T15:09:19Z</time>
					</trkpt>
					<trkpt lat="44.383830" lon="5.431630">
						<ele>551</ele>
						<time>2026-09-03T15:09:29Z</time>
					</trkpt>
					<trkpt lat="44.383880" lon="5.431610">
						<ele>552</ele>
						<time>2026-09-03T15:09:32Z</time>
					</trkpt>
					<trkpt lat="44.383900" lon="5.431540">
						<ele>552</ele>
						<time>2026-09-03T15:09:34Z</time>
					</trkpt>
					<trkpt lat="44.384060" lon="5.431550">
						<ele>554</ele>
						<time>2026-09-03T15:09:42Z</time>
					</trkpt>
					<trkpt lat="44.384360" lon="5.431870">
						<ele>557</ele>
						<time>2026-09-03T15:10:01Z</time>
					</trkpt>
					<trkpt lat="44.384760" lon="5.432240">
						<ele>562</ele>
						<time>2026-09-03T15:10:25Z</time>
					</trkpt>
					<trkpt lat="44.385040" lon="5.432570">
						<ele>563</ele>
						<time>2026-09-03T15:10:44Z</time>
					</trkpt>
					<trkpt lat="44.385190" lon="5.432660">
						<ele>563</ele>
						<time>2026-09-03T15:10:52Z</time>
					</trkpt>
					<trkpt lat="44.385330" lon="5.432660">
						<ele>564</ele>
						<time>2026-09-03T15:10:59Z</time>
					</trkpt>
					<trkpt lat="44.385440" lon="5.432600">
						<ele>565</ele>
						<time>2026-09-03T15:11:05Z</time>
					</trkpt>
					<trkpt lat="44.385500" lon="5.432530">
						<ele>565</ele>
						<time>2026-09-03T15:11:09Z</time>
					</trkpt>
					<trkpt lat="44.385770" lon="5.432100">
						<ele>572</ele>
						<time>2026-09-03T15:11:29Z</time>
					</trkpt>
					<trkpt lat="44.386020" lon="5.431770">
						<ele>576</ele>
						<time>2026-09-03T15:11:46Z</time>
					</trkpt>
					<trkpt lat="44.387170" lon="5.430520">
						<ele>586</ele>
						<time>2026-09-03T15:12:59Z</time>
					</trkpt>
					<trkpt lat="44.387580" lon="5.430220">
						<ele>593</ele>
						<time>2026-09-03T15:13:22Z</time>
					</trkpt>
					<trkpt lat="44.387730" lon="5.430130">
						<ele>596</ele>
						<time>2026-09-03T15:13:30Z</time>
					</trkpt>
					<trkpt lat="44.387970" lon="5.430030">
						<ele>599</ele>
						<time>2026-09-03T15:13:43Z</time>
					</trkpt>
					<trkpt lat="44.388200" lon="5.429990">
						<ele>602</ele>
						<time>2026-09-03T15:13:55Z</time>
					</trkpt>
					<trkpt lat="44.388390" lon="5.430070">
						<ele>603</ele>
						<time>2026-09-03T15:14:05Z</time>
					</trkpt>
					<trkpt lat="44.388430" lon="5.430040">
						<ele>603</ele>
						<time>2026-09-03T15:14:07Z</time>
					</trkpt>
					<trkpt lat="44.388430" lon="5.429970">
						<ele>605</ele>
						<time>2026-09-03T15:14:09Z</time>
					</trkpt>
					<trkpt lat="44.388320" lon="5.429920">
						<ele>605</ele>
						<time>2026-09-03T15:14:15Z</time>
					</trkpt>
					<trkpt lat="44.387960" lon="5.429860">
						<ele>602</ele>
						<time>2026-09-03T15:14:33Z</time>
					</trkpt>
					<trkpt lat="44.387680" lon="5.429850">
						<ele>599</ele>
						<time>2026-09-03T15:14:47Z</time>
					</trkpt>
					<trkpt lat="44.387650" lon="5.429830">
						<ele>599</ele>
						<time>2026-09-03T15:14:49Z</time>
					</trkpt>
					<trkpt lat="44.387670" lon="5.429770">
						<ele>600</ele>
						<time>2026-09-03T15:14:51Z</time>
					</trkpt>
					<trkpt lat="44.388150" lon="5.429660">
						<ele>608</ele>
						<time>2026-09-03T15:15:16Z</time>
					</trkpt>
					<trkpt lat="44.388420" lon="5.429570">
						<ele>614</ele>
						<time>2026-09-03T15:15:30Z</time>
					</trkpt>
					<trkpt lat="44.388740" lon="5.429620">
						<ele>615</ele>
						<time>2026-09-03T15:15:46Z</time>
					</trkpt>
					<trkpt lat="44.388990" lon="5.429550">
						<ele>618</ele>
						<time>2026-09-03T15:15:58Z</time>
					</trkpt>
					<trkpt lat="44.389300" lon="5.429500">
						<ele>622</ele>
						<time>2026-09-03T15:16:14Z</time>
					</trkpt>
					<trkpt lat="44.389550" lon="5.429510">
						<ele>623</ele>
						<time>2026-09-03T15:16:27Z</time>
					</trkpt>
					<trkpt lat="44.390160" lon="5.430010">
						<ele>621</ele>
						<time>2026-09-03T15:17:02Z</time>
					</trkpt>
					<trkpt lat="44.390430" lon="5.429910">
						<ele>625</ele>
						<time>2026-09-03T15:17:16Z</time>
					</trkpt>
					<trkpt lat="44.391010" lon="5.429750">
						<ele>633</ele>
						<time>2026-09-03T15:17:45Z</time>
					</trkpt>
					<trkpt lat="44.391330" lon="5.429710">
						<ele>637</ele>
						<time>2026-09-03T15:18:02Z</time>
					</trkpt>
					<trkpt lat="44.391830" lon="5.429740">
						<ele>642</ele>
						<time>2026-09-03T15:18:27Z</time>
					</trkpt>
					<trkpt lat="44.392240" lon="5.429540">
						<ele>650</ele>
						<time>2026-09-03T15:18:48Z</time>
					</trkpt>
					<trkpt lat="44.392590" lon="5.429550">
						<ele>653</ele>
						<time>2026-09-03T15:19:06Z</time>
					</trkpt>
					<trkpt lat="44.392970" lon="5.429640">
						<ele>658</ele>
						<time>2026-09-03T15:19:25Z</time>
					</trkpt>
					<trkpt lat="44.393080" lon="5.429690">
						<ele>659</ele>
						<time>2026-09-03T15:19:31Z</time>
					</trkpt>
					<trkpt lat="44.393210" lon="5.429840">
						<ele>659</ele>
						<time>2026-09-03T15:19:39Z</time>
					</trkpt>
					<trkpt lat="44.393370" lon="5.430160">
						<ele>658</ele>
						<time>2026-09-03T15:19:53Z</time>
					</trkpt>
					<trkpt lat="44.393410" lon="5.430200">
						<ele>658</ele>
						<time>2026-09-03T15:19:56Z</time>
					</trkpt>
					<trkpt lat="44.393830" lon="5.430410">
						<ele>660</ele>
						<time>2026-09-03T15:20:18Z</time>
					</trkpt>
					<trkpt lat="44.393960" lon="5.430400">
						<ele>661</ele>
						<time>2026-09-03T15:20:25Z</time>
					</trkpt>
					<trkpt lat="44.394220" lon="5.430230">
						<ele>666</ele>
						<time>2026-09-03T15:20:39Z</time>
					</trkpt>
					<trkpt lat="44.394370" lon="5.430380">
						<ele>666</ele>
						<time>2026-09-03T15:20:48Z</time>
					</trkpt>
					<trkpt lat="44.394560" lon="5.430520">
						<ele>666</ele>
						<time>2026-09-03T15:20:59Z</time>
					</trkpt>
					<trkpt lat="44.394600" lon="5.430500">
						<ele>667</ele>
						<time>2026-09-03T15:21:01Z</time>
					</trkpt>
					<trkpt lat="44.394600" lon="5.430430">
						<ele>668</ele>
						<time>2026-09-03T15:21:04Z</time>
					</trkpt>
					<trkpt lat="44.394480" lon="5.430190">
						<ele>670</ele>
						<time>2026-09-03T15:21:14Z</time>
					</trkpt>
					<trkpt lat="44.394470" lon="5.430110">
						<ele>671</ele>
						<time>2026-09-03T15:21:17Z</time>
					</trkpt>
					<trkpt lat="44.394480" lon="5.430010">
						<ele>673</ele>
						<time>2026-09-03T15:21:21Z</time>
					</trkpt>
					<trkpt lat="44.394530" lon="5.429960">
						<ele>674</ele>
						<time>2026-09-03T15:21:24Z</time>
					</trkpt>
					<trkpt lat="44.395030" lon="5.430080">
						<ele>678</ele>
						<time>2026-09-03T15:21:49Z</time>
					</trkpt>
					<trkpt lat="44.395320" lon="5.430190">
						<ele>679</ele>
						<time>2026-09-03T15:22:04Z</time>
					</trkpt>
					<trkpt lat="44.395400" lon="5.430190">
						<ele>680</ele>
						<time>2026-09-03T15:22:08Z</time>
					</trkpt>
					<trkpt lat="44.395450" lon="5.430110">
						<ele>682</ele>
						<time>2026-09-03T15:22:12Z</time>
					</trkpt>
					<trkpt lat="44.395430" lon="5.430010">
						<ele>684</ele>
						<time>2026-09-03T15:22:16Z</time>
					</trkpt>
					<trkpt lat="44.395370" lon="5.429880">
						<ele>685</ele>
						<time>2026-09-03T15:22:21Z</time>
					</trkpt>
					<trkpt lat="44.395230" lon="5.429680">
						<ele>685</ele>
						<time>2026-09-03T15:22:31Z</time>
					</trkpt>
					<trkpt lat="44.395160" lon="5.429470">
						<ele>686</ele>
						<time>2026-09-03T15:22:39Z</time>
					</trkpt>
					<trkpt lat="44.395110" lon="5.428770">
						<ele>694</ele>
						<time>2026-09-03T15:23:05Z</time>
					</trkpt>
					<trkpt lat="44.395060" lon="5.428480">
						<ele>698</ele>
						<time>2026-09-03T15:23:15Z</time>
					</trkpt>
					<trkpt lat="44.395080" lon="5.428410">
						<ele>699</ele>
						<time>2026-09-03T15:23:18Z</time>
					</trkpt>
					<trkpt lat="44.395140" lon="5.428390">
						<ele>700</ele>
						<time>2026-09-03T15:23:21Z</time>
					</trkpt>
					<trkpt lat="44.395200" lon="5.428420">
						<ele>701</ele>
						<time>2026-09-03T15:23:24Z</time>
					</trkpt>
					<trkpt lat="44.395680" lon="5.428810">
						<ele>703</ele>
						<time>2026-09-03T15:23:52Z</time>
					</trkpt>
					<trkpt lat="44.395760" lon="5.428900">
						<ele>703</ele>
						<time>2026-09-03T15:23:57Z</time>
					</trkpt>
					<trkpt lat="44.395920" lon="5.429250">
						<ele>701</ele>
						<time>2026-09-03T15:24:12Z</time>
					</trkpt>
					<trkpt lat="44.395970" lon="5.429310">
						<ele>701</ele>
						<time>2026-09-03T15:24:15Z</time>
					</trkpt>
					<trkpt lat="44.396050" lon="5.429350">
						<ele>701</ele>
						<time>2026-09-03T15:24:19Z</time>
					</trkpt>
					<trkpt lat="44.396150" lon="5.429340">
						<ele>702</ele>
						<time>2026-09-03T15:24:25Z</time>
					</trkpt>
					<trkpt lat="44.396220" lon="5.429290">
						<ele>704</ele>
						<time>2026-09-03T15:24:28Z</time>
					</trkpt>
					<trkpt lat="44.396240" lon="5.429200">
						<ele>706</ele>
						<time>2026-09-03T15:24:32Z</time>
					</trkpt>
					<trkpt lat="44.395760" lon="5.427760">
						<ele>719</ele>
						<time>2026-09-03T15:25:29Z</time>
					</trkpt>
					<trkpt lat="44.395760" lon="5.427620">
						<ele>721</ele>
						<time>2026-09-03T15:25:34Z</time>
					</trkpt>
					<trkpt lat="44.395860" lon="5.427360">
						<ele>727</ele>
						<time>2026-09-03T15:25:44Z</time>
					</trkpt>
					<trkpt lat="44.395800" lon="5.427280">
						<ele>727</ele>
						<time>2026-09-03T15:25:48Z</time>
					</trkpt>
					<trkpt lat="44.395560" lon="5.427250">
						<ele>725</ele>
						<time>2026-09-03T15:26:00Z</time>
					</trkpt>
					<trkpt lat="44.395500" lon="5.427210">
						<ele>725</ele>
						<time>2026-09-03T15:26:04Z</time>
					</trkpt>
					<trkpt lat="44.395420" lon="5.427080">
						<ele>726</ele>
						<time>2026-09-03T15:26:10Z</time>
					</trkpt>
					<trkpt lat="44.395370" lon="5.426910">
						<ele>728</ele>
						<time>2026-09-03T15:26:16Z</time>
					</trkpt>
					<trkpt lat="44.395340" lon="5.426640">
						<ele>732</ele>
						<time>2026-09-03T15:26:26Z</time>
					</trkpt>
					<trkpt lat="44.395340" lon="5.426550">
						<ele>733</ele>
						<time>2026-09-03T15:26:29Z</time>
					</trkpt>
					<trkpt lat="44.395400" lon="5.426480">
						<ele>735</ele>
						<time>2026-09-03T15:26:33Z</time>
					</trkpt>
					<trkpt lat="44.395470" lon="5.426480">
						<ele>736</ele>
						<time>2026-09-03T15:26:37Z</time>
					</trkpt>
					<trkpt lat="44.395980" lon="5.426720">
						<ele>739</ele>
						<time>2026-09-03T15:27:04Z</time>
					</trkpt>
					<trkpt lat="44.396120" lon="5.426740">
						<ele>741</ele>
						<time>2026-09-03T15:27:11Z</time>
					</trkpt>
					<trkpt lat="44.396230" lon="5.426680">
						<ele>744</ele>
						<time>2026-09-03T15:27:17Z</time>
					</trkpt>
					<trkpt lat="44.396290" lon="5.426690">
						<ele>745</ele>
						<time>2026-09-03T15:27:20Z</time>
					</trkpt>
					<trkpt lat="44.396350" lon="5.426780">
						<ele>745</ele>
						<time>2026-09-03T15:27:24Z</time>
					</trkpt>
					<trkpt lat="44.396460" lon="5.427070">
						<ele>744</ele>
						<time>2026-09-03T15:27:36Z</time>
					</trkpt>
					<trkpt lat="44.396640" lon="5.427190">
						<ele>746</ele>
						<time>2026-09-03T15:27:46Z</time>
					</trkpt>
					<trkpt lat="44.397020" lon="5.427300">
						<ele>753</ele>
						<time>2026-09-03T15:28:05Z</time>
					</trkpt>
					<trkpt lat="44.397670" lon="5.427830">
						<ele>755</ele>
						<time>2026-09-03T15:28:43Z</time>
					</trkpt>
					<trkpt lat="44.398170" lon="5.427730">
						<ele>763</ele>
						<time>2026-09-03T15:29:08Z</time>
					</trkpt>
					<trkpt lat="44.399190" lon="5.427400">
						<ele>775</ele>
						<time>2026-09-03T15:30:01Z</time>
					</trkpt>
					<trkpt lat="44.399350" lon="5.427240">
						<ele>779</ele>
						<time>2026-09-03T15:30:10Z</time>
					</trkpt>
					<trkpt lat="44.399610" lon="5.426780">
						<ele>792</ele>
						<time>2026-09-03T15:30:31Z</time>
					</trkpt>
					<trkpt lat="44.399750" lon="5.426680">
						<ele>793</ele>
						<time>2026-09-03T15:30:39Z</time>
					</trkpt>
					<trkpt lat="44.399950" lon="5.426600">
						<ele>792</ele>
						<time>2026-09-03T15:30:50Z</time>
					</trkpt>
					<trkpt lat="44.400240" lon="5.426330">
						<ele>802</ele>
						<time>2026-09-03T15:31:07Z</time>
					</trkpt>
					<trkpt lat="44.400360" lon="5.426310">
						<ele>802</ele>
						<time>2026-09-03T15:31:13Z</time>
					</trkpt>
					<trkpt lat="44.400790" lon="5.426410">
						<ele>799</ele>
						<time>2026-09-03T15:31:35Z</time>
					</trkpt>
					<trkpt lat="44.400890" lon="5.426390">
						<ele>800</ele>
						<time>2026-09-03T15:31:40Z</time>
					</trkpt>
					<trkpt lat="44.400980" lon="5.426340">
						<ele>800</ele>
						<time>2026-09-03T15:31:45Z</time>
					</trkpt>
					<trkpt lat="44.401310" lon="5.426010">
						<ele>809</ele>
						<time>2026-09-03T15:32:05Z</time>
					</trkpt>
					<trkpt lat="44.401510" lon="5.425900">
						<ele>813</ele>
						<time>2026-09-03T15:32:16Z</time>
					</trkpt>
					<trkpt lat="44.402170" lon="5.425170">
						<ele>832</ele>
						<time>2026-09-03T15:32:58Z</time>
					</trkpt>
					<trkpt lat="44.402470" lon="5.424940">
						<ele>836</ele>
						<time>2026-09-03T15:33:15Z</time>
					</trkpt>
					<trkpt lat="44.402660" lon="5.424870">
						<ele>838</ele>
						<time>2026-09-03T15:33:25Z</time>
					</trkpt>
					<trkpt lat="44.402800" lon="5.424760">
						<ele>841</ele>
						<time>2026-09-03T15:33:33Z</time>
					</trkpt>
					<trkpt lat="44.402910" lon="5.424710">
						<ele>843</ele>
						<time>2026-09-03T15:33:39Z</time>
					</trkpt>
					<trkpt lat="44.403120" lon="5.424500">
						<ele>849</ele>
						<time>2026-09-03T15:33:52Z</time>
					</trkpt>
					<trkpt lat="44.403280" lon="5.424420">
						<ele>851</ele>
						<time>2026-09-03T15:34:00Z</time>
					</trkpt>
					<trkpt lat="44.403720" lon="5.424380">
						<ele>854</ele>
						<time>2026-09-03T15:34:22Z</time>
					</trkpt>
					<trkpt lat="44.403870" lon="5.424150">
						<ele>862</ele>
						<time>2026-09-03T15:34:33Z</time>
					</trkpt>
					<trkpt lat="44.403950" lon="5.424110">
						<ele>863</ele>
						<time>2026-09-03T15:34:38Z</time>
					</trkpt>
					<trkpt lat="44.404120" lon="5.424110">
						<ele>865</ele>
						<time>2026-09-03T15:34:46Z</time>
					</trkpt>
					<trkpt lat="44.404280" lon="5.424260">
						<ele>862</ele>
						<time>2026-09-03T15:34:56Z</time>
					</trkpt>
					<trkpt lat="44.404320" lon="5.424260">
						<ele>862</ele>
						<time>2026-09-03T15:34:58Z</time>
					</trkpt>
					<trkpt lat="44.404900" lon="5.423910">
						<ele>875</ele>
						<time>2026-09-03T15:35:29Z</time>
					</trkpt>
					<trkpt lat="44.405180" lon="5.423650">
						<ele>882</ele>
						<time>2026-09-03T15:35:46Z</time>
					</trkpt>
					<trkpt lat="44.405680" lon="5.423110">
						<ele>898</ele>
						<time>2026-09-03T15:36:18Z</time>
					</trkpt>
					<trkpt lat="44.405860" lon="5.422840">
						<ele>907</ele>
						<time>2026-09-03T15:36:31Z</time>
					</trkpt>
					<trkpt lat="44.406120" lon="5.422660">
						<ele>911</ele>
						<time>2026-09-03T15:36:46Z</time>
					</trkpt>
					<trkpt lat="44.406270" lon="5.422390">
						<ele>920</ele>
						<time>2026-09-03T15:36:58Z</time>
					</trkpt>
					<trkpt lat="44.406840" lon="5.422170">
						<ele>924</ele>
						<time>2026-09-03T15:37:27Z</time>
					</trkpt>
					<trkpt lat="44.407320" lon="5.421720">
						<ele>939</ele>
						<time>2026-09-03T15:37:56Z</time>
					</trkpt>
					<trkpt lat="44.408060" lon="5.421190">
						<ele>958</ele>
						<time>2026-09-03T15:38:38Z</time>
					</trkpt>
					<trkpt lat="44.408350" lon="5.421070">
						<ele>962</ele>
						<time>2026-09-03T15:38:53Z</time>
					</trkpt>
					<trkpt lat="44.408690" lon="5.421020">
						<ele>964</ele>
						<time>2026-09-03T15:39:10Z</time>
					</trkpt>
					<trkpt lat="44.409140" lon="5.420690">
						<ele>977</ele>
						<time>2026-09-03T15:39:36Z</time>
					</trkpt>
					<trkpt lat="44.409280" lon="5.420510">
						<ele>984</ele>
						<time>2026-09-03T15:39:45Z</time>
					</trkpt>
					<trkpt lat="44.409330" lon="5.420510">
						<ele>984</ele>
						<time>2026-09-03T15:39:48Z</time>
					</trkpt>
					<trkpt lat="44.409460" lon="5.420670">
						<ele>980</ele>
						<time>2026-09-03T15:39:56Z</time>
					</trkpt>
					<trkpt lat="44.409520" lon="5.420710">
						<ele>979</ele>
						<time>2026-09-03T15:40:00Z</time>
					</trkpt>
					<trkpt lat="44.409720" lon="5.420730">
						<ele>979</ele>
						<time>2026-09-03T15:40:10Z</time>
					</trkpt>
					<trkpt lat="44.409910" lon="5.420690">
						<ele>982</ele>
						<time>2026-09-03T15:40:19Z</time>
					</trkpt>
					<trkpt lat="44.410040" lon="5.420630">
						<ele>985</ele>
						<time>2026-09-03T15:40:26Z</time>
					</trkpt>
					<trkpt lat="44.410090" lon="5.420580">
						<ele>987</ele>
						<time>2026-09-03T15:40:29Z</time>
					</trkpt>
					<trkpt lat="44.410360" lon="5.420220">
						<ele>999</ele>
						<time>2026-09-03T15:40:48Z</time>
					</trkpt>
					<trkpt lat="44.410430" lon="5.420230">
						<ele>999</ele>
						<time>2026-09-03T15:40:51Z</time>
					</trkpt>
					<trkpt lat="44.410520" lon="5.420360">
						<ele>996</ele>
						<time>2026-09-03T15:40:58Z</time>
					</trkpt>
					<trkpt lat="44.410590" lon="5.420560">
						<ele>992</ele>
						<time>2026-09-03T15:41:06Z</time>
					</trkpt>
					<trkpt lat="44.410630" lon="5.420600">
						<ele>991</ele>
						<time>2026-09-03T15:41:08Z</time>
					</trkpt>
					<trkpt lat="44.410730" lon="5.420610">
						<ele>992</ele>
						<time>2026-09-03T15:41:13Z</time>
					</trkpt>
					<trkpt lat="44.410780" lon="5.420580">
						<ele>993</ele>
						<time>2026-09-03T15:41:16Z</time>
					</trkpt>
					<trkpt lat="44.410810" lon="5.420460">
						<ele>995</ele>
						<time>2026-09-03T15:41:20Z</time>
					</trkpt>
					<trkpt lat="44.410830" lon="5.420100">
						<ele>1003</ele>
						<time>2026-09-03T15:41:33Z</time>
					</trkpt>
					<trkpt lat="44.410780" lon="5.419840">
						<ele>1010</ele>
						<time>2026-09-03T15:41:43Z</time>
					</trkpt>
					<trkpt lat="44.410680" lon="5.419710">
						<ele>1014</ele>
						<time>2026-09-03T15:41:50Z</time>
					</trkpt>
					<trkpt lat="44.410520" lon="5.419710">
						<ele>1014</ele>
						<time>2026-09-03T15:41:58Z</time>
					</trkpt>
					<trkpt lat="44.410410" lon="5.419660">
						<ele>1016</ele>
						<time>2026-09-03T15:42:04Z</time>
					</trkpt>
					<trkpt lat="44.410240" lon="5.419730">
						<ele>1014</ele>
						<time>2026-09-03T15:42:12Z</time>
					</trkpt>
					<trkpt lat="44.410070" lon="5.419760">
						<ele>1013</ele>
						<time>2026-09-03T15:42:21Z</time>
					</trkpt>
					<trkpt lat="44.409700" lon="5.419620">
						<ele>1017</ele>
						<time>2026-09-03T15:42:40Z</time>
					</trkpt>
					<trkpt lat="44.409650" lon="5.419560">
						<ele>1019</ele>
						<time>2026-09-03T15:42:44Z</time>
					</trkpt>
					<trkpt lat="44.409660" lon="5.419480">
						<ele>1021</ele>
						<time>2026-09-03T15:42:46Z</time>
					</trkpt>
					<trkpt lat="44.409700" lon="5.419450">
						<ele>1022</ele>
						<time>2026-09-03T15:42:49Z</time>
					</trkpt>
					<trkpt lat="44.409890" lon="5.419410">
						<ele>1024</ele>
						<time>2026-09-03T15:42:58Z</time>
					</trkpt>
					<trkpt lat="44.409970" lon="5.419360">
						<ele>1026</ele>
						<time>2026-09-03T15:43:03Z</time>
					</trkpt>
					<trkpt lat="44.410320" lon="5.418810">
						<ele>1042</ele>
						<time>2026-09-03T15:43:29Z</time>
					</trkpt>
					<trkpt lat="44.410680" lon="5.418400">
						<ele>1053</ele>
						<time>2026-09-03T15:43:52Z</time>
					</trkpt>
					<trkpt lat="44.410750" lon="5.418390">
						<ele>1053</ele>
						<time>2026-09-03T15:43:56Z</time>
					</trkpt>
					<trkpt lat="44.410850" lon="5.418440">
						<ele>1052</ele>
						<time>2026-09-03T15:44:01Z</time>
					</trkpt>
					<trkpt lat="44.410940" lon="5.418430">
						<ele>1054</ele>
						<time>2026-09-03T15:44:06Z</time>
					</trkpt>
					<trkpt lat="44.411360" lon="5.418260">
						<ele>1065</ele>
						<time>2026-09-03T15:44:27Z</time>
					</trkpt>
					<trkpt lat="44.411490" lon="5.418180">
						<ele>1070</ele>
						<time>2026-09-03T15:44:35Z</time>
					</trkpt>
					<trkpt lat="44.411560" lon="5.418170">
						<ele>1071</ele>
						<time>2026-09-03T15:44:38Z</time>
					</trkpt>
					<trkpt lat="44.411610" lon="5.418180">
						<ele>1072</ele>
						<time>2026-09-03T15:44:41Z</time>
					</trkpt>
					<trkpt lat="44.411880" lon="5.418400">
						<ele>1073</ele>
						<time>2026-09-03T15:44:56Z</time>
					</trkpt>
					<trkpt lat="44.412170" lon="5.418560">
						<ele>1077</ele>
						<time>2026-09-03T15:45:12Z</time>
					</trkpt>
					<trkpt lat="44.412810" lon="5.418740">
						<ele>1092</ele>
						<time>2026-09-03T15:45:45Z</time>
					</trkpt>
					<trkpt lat="44.413340" lon="5.418930">
						<ele>1103</ele>
						<time>2026-09-03T15:46:12Z</time>
					</trkpt>
					<trkpt lat="44.413760" lon="5.419200">
						<ele>1109</ele>
						<time>2026-09-03T15:46:35Z</time>
					</trkpt>
					<trkpt lat="44.414320" lon="5.419620">
						<ele>1120</ele>
						<time>2026-09-03T15:47:07Z</time>
					</trkpt>
					<trkpt lat="44.414420" lon="5.419660">
						<ele>1122</ele>
						<time>2026-09-03T15:47:12Z</time>
					</trkpt>
					<trkpt lat="44.414490" lon="5.419720">
						<ele>1124</ele>
						<time>2026-09-03T15:47:16Z</time>
					</trkpt>
					<trkpt lat="44.414650" lon="5.420190">
						<ele>1128</ele>
						<time>2026-09-03T15:47:35Z</time>
					</trkpt>
					<trkpt lat="44.414710" lon="5.420190">
						<ele>1130</ele>
						<time>2026-09-03T15:47:38Z</time>
					</trkpt>
					<trkpt lat="44.414980" lon="5.419590">
						<ele>1137</ele>
						<time>2026-09-03T15:48:03Z</time>
					</trkpt>
					<trkpt lat="44.415070" lon="5.418780">
						<ele>1135</ele>
						<time>2026-09-03T15:48:32Z</time>
					</trkpt>
					<trkpt lat="44.415250" lon="5.417890">
						<ele>1131</ele>
						<time>2026-09-03T15:49:05Z</time>
					</trkpt>
					<trkpt lat="44.415380" lon="5.417370">
						<ele>1127</ele>
						<time>2026-09-03T15:49:25Z</time>
					</trkpt>
					<trkpt lat="44.415580" lon="5.416770">
						<ele>1123</ele>
						<time>2026-09-03T15:49:49Z</time>
					</trkpt>
					<trkpt lat="44.415790" lon="5.415800">
						<ele>1115</ele>
						<time>2026-09-03T15:50:25Z</time>
					</trkpt>
					<trkpt lat="44.415940" lon="5.415250">
						<ele>1110</ele>
						<time>2026-09-03T15:50:46Z</time>
					</trkpt>
					<trkpt lat="44.416570" lon="5.413720">
						<ele>1102</ele>
						<time>2026-09-03T15:51:49Z</time>
					</trkpt>
					<trkpt lat="44.416550" lon="5.413380">
						<ele>1101</ele>
						<time>2026-09-03T15:52:01Z</time>
					</trkpt>
					<trkpt lat="44.416280" lon="5.413130">
						<ele>1096</ele>
						<time>2026-09-03T15:52:18Z</time>
					</trkpt>
					<trkpt lat="44.415880" lon="5.413330">
						<ele>1093</ele>
						<time>2026-09-03T15:52:39Z</time>
					</trkpt>
					<trkpt lat="44.415420" lon="5.413650">
						<ele>1097</ele>
						<time>2026-09-03T15:53:05Z</time>
					</trkpt>
					<trkpt lat="44.415350" lon="5.413610">
						<ele>1096</ele>
						<time>2026-09-03T15:53:08Z</time>
					</trkpt>
					<trkpt lat="44.414340" lon="5.412550">
						<ele>1077</ele>
						<time>2026-09-03T15:54:12Z</time>
					</trkpt>
					<trkpt lat="44.413770" lon="5.412040">
						<ele>1069</ele>
						<time>2026-09-03T15:54:45Z</time>
					</trkpt>
					<trkpt lat="44.413430" lon="5.411690">
						<ele>1062</ele>
						<time>2026-09-03T15:55:07Z</time>
					</trkpt>
					<trkpt lat="44.413320" lon="5.411540">
						<ele>1059</ele>
						<time>2026-09-03T15:55:14Z</time>
					</trkpt>
					<trkpt lat="44.412840" lon="5.410660">
						<ele>1043</ele>
						<time>2026-09-03T15:55:54Z</time>
					</trkpt>
					<trkpt lat="44.412300" lon="5.410000">
						<ele>1037</ele>
						<time>2026-09-03T15:56:30Z</time>
					</trkpt>
					<trkpt lat="44.412230" lon="5.409940">
						<ele>1037</ele>
						<time>2026-09-03T15:56:34Z</time>
					</trkpt>
					<trkpt lat="44.412040" lon="5.409880">
						<ele>1039</ele>
						<time>2026-09-03T15:56:43Z</time>
					</trkpt>
					<trkpt lat="44.411860" lon="5.409710">
						<ele>1037</ele>
						<time>2026-09-03T15:56:54Z</time>
					</trkpt>
					<trkpt lat="44.411500" lon="5.408930">
						<ele>1025</ele>
						<time>2026-09-03T15:57:28Z</time>
					</trkpt>
					<trkpt lat="44.411160" lon="5.408410">
						<ele>1020</ele>
						<time>2026-09-03T15:57:53Z</time>
					</trkpt>
					<trkpt lat="44.410590" lon="5.407690">
						<ele>1012</ele>
						<time>2026-09-03T15:58:31Z</time>
					</trkpt>
					<trkpt lat="44.410300" lon="5.407250">
						<ele>1006</ele>
						<time>2026-09-03T15:58:53Z</time>
					</trkpt>
					<trkpt lat="44.410030" lon="5.406900">
						<ele>1003</ele>
						<time>2026-09-03T15:59:11Z</time>
					</trkpt>
					<trkpt lat="44.409770" lon="5.406610">
						<ele>1002</ele>
						<time>2026-09-03T15:59:28Z</time>
					</trkpt>
					<trkpt lat="44.409590" lon="5.406300">
						<ele>999</ele>
						<time>2026-09-03T15:59:42Z</time>
					</trkpt>
					<trkpt lat="44.409040" lon="5.404700">
						<ele>978</ele>
						<time>2026-09-03T16:00:45Z</time>
					</trkpt>
					<trkpt lat="44.408820" lon="5.403900">
						<ele>972</ele>
						<time>2026-09-03T16:01:16Z</time>
					</trkpt>
					<trkpt lat="44.408510" lon="5.402440">
						<ele>959</ele>
						<time>2026-09-03T16:02:10Z</time>
					</trkpt>
					<trkpt lat="44.408070" lon="5.400750">
						<ele>944</ele>
						<time>2026-09-03T16:03:15Z</time>
					</trkpt>
					<trkpt lat="44.407930" lon="5.399820">
						<ele>936</ele>
						<time>2026-09-03T16:03:49Z</time>
					</trkpt>
					<trkpt lat="44.407940" lon="5.398550">
						<ele>920</ele>
						<time>2026-09-03T16:04:34Z</time>
					</trkpt>
					<trkpt lat="44.408130" lon="5.398330">
						<ele>916</ele>
						<time>2026-09-03T16:04:46Z</time>
					</trkpt>
					<trkpt lat="44.408150" lon="5.398240">
						<ele>915</ele>
						<time>2026-09-03T16:04:50Z</time>
					</trkpt>
					<trkpt lat="44.408110" lon="5.398100">
						<ele>914</ele>
						<time>2026-09-03T16:04:55Z</time>
					</trkpt>
					<trkpt lat="44.408020" lon="5.397980">
						<ele>912</ele>
						<time>2026-09-03T16:05:01Z</time>
					</trkpt>
					<trkpt lat="44.407910" lon="5.397890">
						<ele>912</ele>
						<time>2026-09-03T16:05:08Z</time>
					</trkpt>
					<trkpt lat="44.407800" lon="5.397840">
						<ele>911</ele>
						<time>2026-09-03T16:05:14Z</time>
					</trkpt>
					<trkpt lat="44.407740" lon="5.397830">
						<ele>912</ele>
						<time>2026-09-03T16:05:17Z</time>
					</trkpt>
					<trkpt lat="44.407640" lon="5.397860">
						<ele>912</ele>
						<time>2026-09-03T16:05:22Z</time>
					</trkpt>
					<trkpt lat="44.407590" lon="5.397820">
						<ele>912</ele>
						<time>2026-09-03T16:05:25Z</time>
					</trkpt>
					<trkpt lat="44.407430" lon="5.397800">
						<ele>911</ele>
						<time>2026-09-03T16:05:33Z</time>
					</trkpt>
					<trkpt lat="44.406780" lon="5.397260">
						<ele>890</ele>
						<time>2026-09-03T16:06:11Z</time>
					</trkpt>
					<trkpt lat="44.406680" lon="5.397270">
						<ele>888</ele>
						<time>2026-09-03T16:06:16Z</time>
					</trkpt>
					<trkpt lat="44.406450" lon="5.397500">
						<ele>892</ele>
						<time>2026-09-03T16:06:30Z</time>
					</trkpt>
					<trkpt lat="44.406330" lon="5.397490">
						<ele>891</ele>
						<time>2026-09-03T16:06:36Z</time>
					</trkpt>
					<trkpt lat="44.406230" lon="5.397430">
						<ele>889</ele>
						<time>2026-09-03T16:06:41Z</time>
					</trkpt>
					<trkpt lat="44.405850" lon="5.396990">
						<ele>874</ele>
						<time>2026-09-03T16:07:06Z</time>
					</trkpt>
					<trkpt lat="44.405370" lon="5.396600">
						<ele>867</ele>
						<time>2026-09-03T16:07:34Z</time>
					</trkpt>
					<trkpt lat="44.405300" lon="5.396500">
						<ele>865</ele>
						<time>2026-09-03T16:07:39Z</time>
					</trkpt>
					<trkpt lat="44.405100" lon="5.395970">
						<ele>853</ele>
						<time>2026-09-03T16:08:00Z</time>
					</trkpt>
					<trkpt lat="44.404830" lon="5.394800">
						<ele>821</ele>
						<time>2026-09-03T16:08:44Z</time>
					</trkpt>
					<trkpt lat="44.404780" lon="5.394680">
						<ele>818</ele>
						<time>2026-09-03T16:08:49Z</time>
					</trkpt>
					<trkpt lat="44.404440" lon="5.394200">
						<ele>805</ele>
						<time>2026-09-03T16:09:13Z</time>
					</trkpt>
					<trkpt lat="44.404170" lon="5.393910">
						<ele>800</ele>
						<time>2026-09-03T16:09:30Z</time>
					</trkpt>
					<trkpt lat="44.404050" lon="5.393850">
						<ele>800</ele>
						<time>2026-09-03T16:09:37Z</time>
					</trkpt>
					<trkpt lat="44.403950" lon="5.393860">
						<ele>800</ele>
						<time>2026-09-03T16:09:42Z</time>
					</trkpt>
					<trkpt lat="44.403650" lon="5.393990">
						<ele>801</ele>
						<time>2026-09-03T16:09:57Z</time>
					</trkpt>
					<trkpt lat="44.403550" lon="5.393990">
						<ele>801</ele>
						<time>2026-09-03T16:10:02Z</time>
					</trkpt>
					<trkpt lat="44.403560" lon="5.393890">
						<ele>800</ele>
						<time>2026-09-03T16:10:06Z</time>
					</trkpt>
					<trkpt lat="44.403750" lon="5.393400">
						<ele>797</ele>
						<time>2026-09-03T16:10:26Z</time>
					</trkpt>
					<trkpt lat="44.403840" lon="5.393350">
						<ele>795</ele>
						<time>2026-09-03T16:10:31Z</time>
					</trkpt>
					<trkpt lat="44.404220" lon="5.393250">
						<ele>791</ele>
						<time>2026-09-03T16:10:50Z</time>
					</trkpt>
					<trkpt lat="44.404260" lon="5.393180">
						<ele>792</ele>
						<time>2026-09-03T16:10:53Z</time>
					</trkpt>
					<trkpt lat="44.404220" lon="5.393010">
						<ele>793</ele>
						<time>2026-09-03T16:11:00Z</time>
					</trkpt>
					<trkpt lat="44.403220" lon="5.390490">
						<ele>785</ele>
						<time>2026-09-03T16:12:43Z</time>
					</trkpt>
					<trkpt lat="44.402780" lon="5.389770">
						<ele>782</ele>
						<time>2026-09-03T16:13:17Z</time>
					</trkpt>
					<trkpt lat="44.402610" lon="5.389440">
						<ele>779</ele>
						<time>2026-09-03T16:13:31Z</time>
					</trkpt>
					<trkpt lat="44.402550" lon="5.389200">
						<ele>777</ele>
						<time>2026-09-03T16:13:40Z</time>
					</trkpt>
					<trkpt lat="44.402470" lon="5.388520">
						<ele>774</ele>
						<time>2026-09-03T16:14:05Z</time>
					</trkpt>
					<trkpt lat="44.402480" lon="5.388190">
						<ele>773</ele>
						<time>2026-09-03T16:14:17Z</time>
					</trkpt>
					<trkpt lat="44.402360" lon="5.387940">
						<ele>774</ele>
						<time>2026-09-03T16:14:27Z</time>
					</trkpt>
					<trkpt lat="44.402220" lon="5.387730">
						<ele>776</ele>
						<time>2026-09-03T16:14:38Z</time>
					</trkpt>
					<trkpt lat="44.402110" lon="5.387440">
						<ele>777</ele>
						<time>2026-09-03T16:14:49Z</time>
					</trkpt>
					<trkpt lat="44.402080" lon="5.387220">
						<ele>777</ele>
						<time>2026-09-03T16:14:57Z</time>
					</trkpt>
					<trkpt lat="44.402000" lon="5.386960">
						<ele>778</ele>
						<time>2026-09-03T16:15:08Z</time>
					</trkpt>
					<trkpt lat="44.402020" lon="5.386210">
						<ele>786</ele>
						<time>2026-09-03T16:15:34Z</time>
					</trkpt>
					<trkpt lat="44.402200" lon="5.386040">
						<ele>784</ele>
						<time>2026-09-03T16:15:45Z</time>
					</trkpt>
					<trkpt lat="44.402350" lon="5.385820">
						<ele>783</ele>
						<time>2026-09-03T16:15:56Z</time>
					</trkpt>
					<trkpt lat="44.402680" lon="5.384960">
						<ele>791</ele>
						<time>2026-09-03T16:16:31Z</time>
					</trkpt>
					<trkpt lat="44.402920" lon="5.384500">
						<ele>791</ele>
						<time>2026-09-03T16:16:51Z</time>
					</trkpt>
					<trkpt lat="44.403290" lon="5.383880">
						<ele>788</ele>
						<time>2026-09-03T16:17:20Z</time>
					</trkpt>
					<trkpt lat="44.403350" lon="5.383380">
						<ele>793</ele>
						<time>2026-09-03T16:17:38Z</time>
					</trkpt>
					<trkpt lat="44.403570" lon="5.383140">
						<ele>782</ele>
						<time>2026-09-03T16:17:52Z</time>
					</trkpt>
					<trkpt lat="44.403620" lon="5.383010">
						<ele>779</ele>
						<time>2026-09-03T16:17:58Z</time>
					</trkpt>
					<trkpt lat="44.403620" lon="5.382940">
						<ele>779</ele>
						<time>2026-09-03T16:18:00Z</time>
					</trkpt>
					<trkpt lat="44.403570" lon="5.382840">
						<ele>780</ele>
						<time>2026-09-03T16:18:04Z</time>
					</trkpt>
					<trkpt lat="44.402820" lon="5.381480">
						<ele>781</ele>
						<time>2026-09-03T16:19:06Z</time>
					</trkpt>
					<trkpt lat="44.402770" lon="5.381360">
						<ele>782</ele>
						<time>2026-09-03T16:19:11Z</time>
					</trkpt>
					<trkpt lat="44.402740" lon="5.381030">
						<ele>780</ele>
						<time>2026-09-03T16:19:23Z</time>
					</trkpt>
					<trkpt lat="44.402820" lon="5.380850">
						<ele>776</ele>
						<time>2026-09-03T16:19:30Z</time>
					</trkpt>
					<trkpt lat="44.403110" lon="5.380650">
						<ele>766</ele>
						<time>2026-09-03T16:19:47Z</time>
					</trkpt>
					<trkpt lat="44.403360" lon="5.380390">
						<ele>759</ele>
						<time>2026-09-03T16:20:02Z</time>
					</trkpt>
					<trkpt lat="44.403490" lon="5.380170">
						<ele>754</ele>
						<time>2026-09-03T16:20:12Z</time>
					</trkpt>
					<trkpt lat="44.403650" lon="5.379820">
						<ele>746</ele>
						<time>2026-09-03T16:20:27Z</time>
					</trkpt>
					<trkpt lat="44.403710" lon="5.379610">
						<ele>742</ele>
						<time>2026-09-03T16:20:35Z</time>
					</trkpt>
					<trkpt lat="44.403880" lon="5.379750">
						<ele>735</ele>
						<time>2026-09-03T16:20:45Z</time>
					</trkpt>
					<trkpt lat="44.403940" lon="5.379750">
						<ele>732</ele>
						<time>2026-09-03T16:20:48Z</time>
					</trkpt>
					<trkpt lat="44.403980" lon="5.379710">
						<ele>730</ele>
						<time>2026-09-03T16:20:51Z</time>
					</trkpt>
					<trkpt lat="44.404000" lon="5.379600">
						<ele>729</ele>
						<time>2026-09-03T16:20:55Z</time>
					</trkpt>
					<trkpt lat="44.403980" lon="5.379500">
						<ele>730</ele>
						<time>2026-09-03T16:20:58Z</time>
					</trkpt>
					<trkpt lat="44.403850" lon="5.379230">
						<ele>735</ele>
						<time>2026-09-03T16:21:10Z</time>
					</trkpt>
					<trkpt lat="44.403730" lon="5.378870">
						<ele>741</ele>
						<time>2026-09-03T16:21:24Z</time>
					</trkpt>
					<trkpt lat="44.403760" lon="5.378790">
						<ele>740</ele>
						<time>2026-09-03T16:21:27Z</time>
					</trkpt>
					<trkpt lat="44.403900" lon="5.378700">
						<ele>736</ele>
						<time>2026-09-03T16:21:35Z</time>
					</trkpt>
					<trkpt lat="44.403940" lon="5.378710">
						<ele>735</ele>
						<time>2026-09-03T16:21:37Z</time>
					</trkpt>
					<trkpt lat="44.404090" lon="5.378820">
						<ele>729</ele>
						<time>2026-09-03T16:21:46Z</time>
					</trkpt>
					<trkpt lat="44.404250" lon="5.378890">
						<ele>723</ele>
						<time>2026-09-03T16:21:54Z</time>
					</trkpt>
					<trkpt lat="44.404330" lon="5.378960">
						<ele>719</ele>
						<time>2026-09-03T16:21:59Z</time>
					</trkpt>
					<trkpt lat="44.404580" lon="5.378770">
						<ele>713</ele>
						<time>2026-09-03T16:22:13Z</time>
					</trkpt>
					<trkpt lat="44.404880" lon="5.378460">
						<ele>707</ele>
						<time>2026-09-03T16:22:32Z</time>
					</trkpt>
					<trkpt lat="44.405230" lon="5.378320">
						<ele>698</ele>
						<time>2026-09-03T16:22:50Z</time>
					</trkpt>
					<trkpt lat="44.405330" lon="5.378220">
						<ele>699</ele>
						<time>2026-09-03T16:22:56Z</time>
					</trkpt>
					<trkpt lat="44.405480" lon="5.378200">
						<ele>695</ele>
						<time>2026-09-03T16:23:04Z</time>
					</trkpt>
					<trkpt lat="44.405560" lon="5.378070">
						<ele>696</ele>
						<time>2026-09-03T16:23:10Z</time>
					</trkpt>
					<trkpt lat="44.405830" lon="5.377860">
						<ele>689</ele>
						<time>2026-09-03T16:23:25Z</time>
					</trkpt>
					<trkpt lat="44.406320" lon="5.377620">
						<ele>686</ele>
						<time>2026-09-03T16:23:51Z</time>
					</trkpt>
					<trkpt lat="44.406450" lon="5.377340">
						<ele>679</ele>
						<time>2026-09-03T16:24:03Z</time>
					</trkpt>
					<trkpt lat="44.406500" lon="5.377160">
						<ele>676</ele>
						<time>2026-09-03T16:24:10Z</time>
					</trkpt>
					<trkpt lat="44.406560" lon="5.376770">
						<ele>667</ele>
						<time>2026-09-03T16:24:24Z</time>
					</trkpt>
					<trkpt lat="44.406620" lon="5.376080">
						<ele>655</ele>
						<time>2026-09-03T16:24:49Z</time>
					</trkpt>
					<trkpt lat="44.406790" lon="5.375830">
						<ele>647</ele>
						<time>2026-09-03T16:25:01Z</time>
					</trkpt>
					<trkpt lat="44.407080" lon="5.375310">
						<ele>649</ele>
						<time>2026-09-03T16:25:25Z</time>
					</trkpt>
					<trkpt lat="44.407360" lon="5.374690">
						<ele>646</ele>
						<time>2026-09-03T16:25:51Z</time>
					</trkpt>
					<trkpt lat="44.407690" lon="5.374440">
						<ele>639</ele>
						<time>2026-09-03T16:26:10Z</time>
					</trkpt>
					<trkpt lat="44.408090" lon="5.374460">
						<ele>627</ele>
						<time>2026-09-03T16:26:30Z</time>
					</trkpt>
					<trkpt lat="44.408140" lon="5.374440">
						<ele>625</ele>
						<time>2026-09-03T16:26:33Z</time>
					</trkpt>
					<trkpt lat="44.408590" lon="5.373940">
						<ele>616</ele>
						<time>2026-09-03T16:27:01Z</time>
					</trkpt>
					<trkpt lat="44.408680" lon="5.373790">
						<ele>615</ele>
						<time>2026-09-03T16:27:08Z</time>
					</trkpt>
					<trkpt lat="44.409320" lon="5.372100">
						<ele>603</ele>
						<time>2026-09-03T16:28:17Z</time>
					</trkpt>
					<trkpt lat="44.409350" lon="5.371960">
						<ele>601</ele>
						<time>2026-09-03T16:28:22Z</time>
					</trkpt>
					<trkpt lat="44.409350" lon="5.371850">
						<ele>601</ele>
						<time>2026-09-03T16:28:26Z</time>
					</trkpt>
					<trkpt lat="44.409280" lon="5.371530">
						<ele>602</ele>
						<time>2026-09-03T16:28:38Z</time>
					</trkpt>
					<trkpt lat="44.409190" lon="5.371250">
						<ele>602</ele>
						<time>2026-09-03T16:28:49Z</time>
					</trkpt>
					<trkpt lat="44.409190" lon="5.371110">
						<ele>601</ele>
						<time>2026-09-03T16:28:54Z</time>
					</trkpt>
					<trkpt lat="44.409220" lon="5.370810">
						<ele>596</ele>
						<time>2026-09-03T16:29:05Z</time>
					</trkpt>
					<trkpt lat="44.409310" lon="5.370380">
						<ele>593</ele>
						<time>2026-09-03T16:29:21Z</time>
					</trkpt>
					<trkpt lat="44.409430" lon="5.370020">
						<ele>588</ele>
						<time>2026-09-03T16:29:35Z</time>
					</trkpt>
					<trkpt lat="44.409800" lon="5.369290">
						<ele>569</ele>
						<time>2026-09-03T16:30:07Z</time>
					</trkpt>
					<trkpt lat="44.410790" lon="5.367930">
						<ele>547</ele>
						<time>2026-09-03T16:31:16Z</time>
					</trkpt>
					<trkpt lat="44.411040" lon="5.367380">
						<ele>545</ele>
						<time>2026-09-03T16:31:40Z</time>
					</trkpt>
					<trkpt lat="44.411300" lon="5.366890">
						<ele>541</ele>
						<time>2026-09-03T16:32:01Z</time>
					</trkpt>
					<trkpt lat="44.411390" lon="5.366800">
						<ele>538</ele>
						<time>2026-09-03T16:32:07Z</time>
					</trkpt>
					<trkpt lat="44.411520" lon="5.366750">
						<ele>532</ele>
						<time>2026-09-03T16:32:14Z</time>
					</trkpt>
					<trkpt lat="44.412120" lon="5.366330">
						<ele>524</ele>
						<time>2026-09-03T16:32:47Z</time>
					</trkpt>
					<trkpt lat="44.412340" lon="5.366220">
						<ele>520</ele>
						<time>2026-09-03T16:32:59Z</time>
					</trkpt>
					<trkpt lat="44.412690" lon="5.366160">
						<ele>515</ele>
						<time>2026-09-03T16:33:17Z</time>
					</trkpt>
					<trkpt lat="44.413090" lon="5.366160">
						<ele>511</ele>
						<time>2026-09-03T16:33:37Z</time>
					</trkpt>
					<trkpt lat="44.413260" lon="5.366100">
						<ele>508</ele>
						<time>2026-09-03T16:33:45Z</time>
					</trkpt>
					<trkpt lat="44.413410" lon="5.366000">
						<ele>505</ele>
						<time>2026-09-03T16:33:54Z</time>
					</trkpt>
					<trkpt lat="44.413540" lon="5.365840">
						<ele>502</ele>
						<time>2026-09-03T16:34:02Z</time>
					</trkpt>
					<trkpt lat="44.413740" lon="5.365360">
						<ele>502</ele>
						<time>2026-09-03T16:34:22Z</time>
					</trkpt>
					<trkpt lat="44.413980" lon="5.365310">
						<ele>498</ele>
						<time>2026-09-03T16:34:34Z</time>
					</trkpt>
					<trkpt lat="44.414220" lon="5.365160">
						<ele>494</ele>
						<time>2026-09-03T16:34:48Z</time>
					</trkpt>
					<trkpt lat="44.414310" lon="5.365080">
						<ele>494</ele>
						<time>2026-09-03T16:34:53Z</time>
					</trkpt>
					<trkpt lat="44.414410" lon="5.364900">
						<ele>493</ele>
						<time>2026-09-03T16:35:01Z</time>
					</trkpt>
					<trkpt lat="44.414470" lon="5.364650">
						<ele>492</ele>
						<time>2026-09-03T16:35:10Z</time>
					</trkpt>
					<trkpt lat="44.414490" lon="5.363960">
						<ele>488</ele>
						<time>2026-09-03T16:35:35Z</time>
					</trkpt>
					<trkpt lat="44.414630" lon="5.363580">
						<ele>485</ele>
						<time>2026-09-03T16:35:50Z</time>
					</trkpt>
					<trkpt lat="44.414620" lon="5.363380">
						<ele>483</ele>
						<time>2026-09-03T16:35:58Z</time>
					</trkpt>
					<trkpt lat="44.414530" lon="5.363050">
						<ele>482</ele>
						<time>2026-09-03T16:36:10Z</time>
					</trkpt>
					<trkpt lat="44.414540" lon="5.362630">
						<ele>480</ele>
						<time>2026-09-03T16:36:25Z</time>
					</trkpt>
					<trkpt lat="44.414470" lon="5.362120">
						<ele>477</ele>
						<time>2026-09-03T16:36:44Z</time>
					</trkpt>
					<trkpt lat="44.414340" lon="5.361770">
						<ele>474</ele>
						<time>2026-09-03T16:36:58Z</time>
					</trkpt>
					<trkpt lat="44.414110" lon="5.361450">
						<ele>472</ele>
						<time>2026-09-03T16:37:14Z</time>
					</trkpt>
					<trkpt lat="44.414060" lon="5.361110">
						<ele>470</ele>
						<time>2026-09-03T16:37:27Z</time>
					</trkpt>
					<trkpt lat="44.414070" lon="5.360820">
						<ele>468</ele>
						<time>2026-09-03T16:37:37Z</time>
					</trkpt>
					<trkpt lat="44.413860" lon="5.360470">
						<ele>469</ele>
						<time>2026-09-03T16:37:53Z</time>
					</trkpt>
					<trkpt lat="44.413610" lon="5.358780">
						<ele>463</ele>
						<time>2026-09-03T16:38:55Z</time>
					</trkpt>
					<trkpt lat="44.413480" lon="5.358460">
						<ele>462</ele>
						<time>2026-09-03T16:39:08Z</time>
					</trkpt>
					<trkpt lat="44.413570" lon="5.357130">
						<ele>457</ele>
						<time>2026-09-03T16:39:56Z</time>
					</trkpt>
					<trkpt lat="44.413630" lon="5.356690">
						<ele>456</ele>
						<time>2026-09-03T16:40:12Z</time>
					</trkpt>
					<trkpt lat="44.413710" lon="5.356450">
						<ele>454</ele>
						<time>2026-09-03T16:40:21Z</time>
					</trkpt>
					<trkpt lat="44.413910" lon="5.356480">
						<ele>453</ele>
						<time>2026-09-03T16:40:31Z</time>
					</trkpt>
					<trkpt lat="44.414040" lon="5.356410">
						<ele>452</ele>
						<time>2026-09-03T16:40:38Z</time>
					</trkpt>
					<trkpt lat="44.414240" lon="5.356440">
						<ele>451</ele>
						<time>2026-09-03T16:40:48Z</time>
					</trkpt>
					<trkpt lat="44.414350" lon="5.355840">
						<ele>450</ele>
						<time>2026-09-03T16:41:11Z</time>
					</trkpt>
					<trkpt lat="44.414460" lon="5.355490">
						<ele>451</ele>
						<time>2026-09-03T16:41:24Z</time>
					</trkpt>
					<trkpt lat="44.414470" lon="5.355390">
						<ele>452</ele>
						<time>2026-09-03T16:41:28Z</time>
					</trkpt>
					<trkpt lat="44.415170" lon="5.355660">
						<ele>452</ele>
						<time>2026-09-03T16:42:04Z</time>
					</trkpt>
					<trkpt lat="44.415210" lon="5.355530">
						<ele>454</ele>
						<time>2026-09-03T16:42:09Z</time>
					</trkpt>
					<trkpt lat="44.415210" lon="5.355360">
						<ele>457</ele>
						<time>2026-09-03T16:42:15Z</time>
					</trkpt>
					<trkpt lat="44.415180" lon="5.355280">
						<ele>458</ele>
						<time>2026-09-03T16:42:19Z</time>
					</trkpt>
					<trkpt lat="44.415040" lon="5.355120">
						<ele>459</ele>
						<time>2026-09-03T16:42:28Z</time>
					</trkpt>
					<trkpt lat="44.415030" lon="5.355070">
						<ele>459</ele>
						<time>2026-09-03T16:42:29Z</time>
					</trkpt>
					<trkpt lat="44.415040" lon="5.355050">
						<ele>460</ele>
						<time>2026-09-03T16:42:30Z</time>
					</trkpt>
					<trkpt lat="44.415170" lon="5.355050">
						<ele>461</ele>
						<time>2026-09-03T16:42:37Z</time>
					</trkpt>
					<trkpt lat="44.415190" lon="5.355020">
						<ele>462</ele>
						<time>2026-09-03T16:42:38Z</time>
					</trkpt>
					<trkpt lat="44.415050" lon="5.354820">
						<ele>464</ele>
						<time>2026-09-03T16:42:48Z</time>
					</trkpt>
					<trkpt lat="44.415220" lon="5.354840">
						<ele>466</ele>
						<time>2026-09-03T16:42:57Z</time>
					</trkpt>
					<trkpt lat="44.415570" lon="5.354690">
						<ele>474</ele>
						<time>2026-09-03T16:43:15Z</time>
					</trkpt>
					<trkpt lat="44.415480" lon="5.354480">
						<ele>478</ele>
						<time>2026-09-03T16:43:24Z</time>
					</trkpt>
					<trkpt lat="44.415520" lon="5.354350">
						<ele>482</ele>
						<time>2026-09-03T16:43:29Z</time>
					</trkpt>
					<trkpt lat="44.415830" lon="5.353970">
						<ele>497</ele>
						<time>2026-09-03T16:43:50Z</time>
					</trkpt>
					<trkpt lat="44.415820" lon="5.353870">
						<ele>499</ele>
						<time>2026-09-03T16:43:53Z</time>
					</trkpt>
					<trkpt lat="44.415630" lon="5.353580">
						<ele>503</ele>
						<time>2026-09-03T16:44:07Z</time>
					</trkpt>
					<trkpt lat="44.415560" lon="5.353410">
						<ele>506</ele>
						<time>2026-09-03T16:44:14Z</time>
					</trkpt>
					<trkpt lat="44.416450" lon="5.353450">
						<ele>525</ele>
						<time>2026-09-03T16:44:59Z</time>
					</trkpt>
					<trkpt lat="44.416580" lon="5.353440">
						<ele>528</ele>
						<time>2026-09-03T16:45:05Z</time>
					</trkpt>
					<trkpt lat="44.416830" lon="5.353340">
						<ele>536</ele>
						<time>2026-09-03T16:45:18Z</time>
					</trkpt>
					<trkpt lat="44.416950" lon="5.353170">
						<ele>542</ele>
						<time>2026-09-03T16:45:27Z</time>
					</trkpt>
					<trkpt lat="44.416850" lon="5.352870">
						<ele>547</ele>
						<time>2026-09-03T16:45:39Z</time>
					</trkpt>
					<trkpt lat="44.416900" lon="5.352790">
						<ele>550</ele>
						<time>2026-09-03T16:45:43Z</time>
					</trkpt>
					<trkpt lat="44.417070" lon="5.352630">
						<ele>556</ele>
						<time>2026-09-03T16:45:53Z</time>
					</trkpt>
					<trkpt lat="44.417190" lon="5.352560">
						<ele>560</ele>
						<time>2026-09-03T16:45:59Z</time>
					</trkpt>
					<trkpt lat="44.417320" lon="5.352530">
						<ele>563</ele>
						<time>2026-09-03T16:46:06Z</time>
					</trkpt>
					<trkpt lat="44.417400" lon="5.352540">
						<ele>564</ele>
						<time>2026-09-03T16:46:10Z</time>
					</trkpt>
					<trkpt lat="44.417620" lon="5.352780">
						<ele>564</ele>
						<time>2026-09-03T16:46:24Z</time>
					</trkpt>
					<trkpt lat="44.417690" lon="5.352800">
						<ele>565</ele>
						<time>2026-09-03T16:46:27Z</time>
					</trkpt>
					<trkpt lat="44.417850" lon="5.352790">
						<ele>570</ele>
						<time>2026-09-03T16:46:35Z</time>
					</trkpt>
					<trkpt lat="44.417940" lon="5.352870">
						<ele>571</ele>
						<time>2026-09-03T16:46:41Z</time>
					</trkpt>
					<trkpt lat="44.418060" lon="5.352920">
						<ele>573</ele>
						<time>2026-09-03T16:46:47Z</time>
					</trkpt>
					<trkpt lat="44.418370" lon="5.353210">
						<ele>574</ele>
						<time>2026-09-03T16:47:06Z</time>
					</trkpt>
					<trkpt lat="44.418700" lon="5.352960">
						<ele>586</ele>
						<time>2026-09-03T16:47:25Z</time>
					</trkpt>
					<trkpt lat="44.418740" lon="5.352600">
						<ele>597</ele>
						<time>2026-09-03T16:47:38Z</time>
					</trkpt>
					<trkpt lat="44.418840" lon="5.352450">
						<ele>603</ele>
						<time>2026-09-03T16:47:45Z</time>
					</trkpt>
					<trkpt lat="44.418920" lon="5.352410">
						<ele>606</ele>
						<time>2026-09-03T16:47:49Z</time>
					</trkpt>
					<trkpt lat="44.418990" lon="5.352330">
						<ele>609</ele>
						<time>2026-09-03T16:47:54Z</time>
					</trkpt>
					<trkpt lat="44.419120" lon="5.352240">
						<ele>615</ele>
						<time>2026-09-03T16:48:01Z</time>
					</trkpt>
					<trkpt lat="44.419550" lon="5.352280">
						<ele>617</ele>
						<time>2026-09-03T16:48:22Z</time>
					</trkpt>
					<trkpt lat="44.419730" lon="5.352330">
						<ele>616</ele>
						<time>2026-09-03T16:48:32Z</time>
					</trkpt>
					<trkpt lat="44.419820" lon="5.352330">
						<ele>616</ele>
						<time>2026-09-03T16:48:36Z</time>
					</trkpt>
					<trkpt lat="44.420290" lon="5.352470">
						<ele>617</ele>
						<time>2026-09-03T16:49:00Z</time>
					</trkpt>
					<trkpt lat="44.420380" lon="5.352470">
						<ele>618</ele>
						<time>2026-09-03T16:49:05Z</time>
					</trkpt>
					<trkpt lat="44.420430" lon="5.352430">
						<ele>620</ele>
						<time>2026-09-03T16:49:08Z</time>
					</trkpt>
					<trkpt lat="44.420560" lon="5.352450">
						<ele>621</ele>
						<time>2026-09-03T16:49:14Z</time>
					</trkpt>
					<trkpt lat="44.420590" lon="5.352430">
						<ele>623</ele>
						<time>2026-09-03T16:49:16Z</time>
					</trkpt>
					<trkpt lat="44.420640" lon="5.352460">
						<ele>622</ele>
						<time>2026-09-03T16:49:19Z</time>
					</trkpt>
					<trkpt lat="44.420810" lon="5.352490">
						<ele>624</ele>
						<time>2026-09-03T16:49:27Z</time>
					</trkpt>
					<trkpt lat="44.420930" lon="5.352570">
						<ele>623</ele>
						<time>2026-09-03T16:49:34Z</time>
					</trkpt>
					<trkpt lat="44.421020" lon="5.352600">
						<ele>623</ele>
						<time>2026-09-03T16:49:38Z</time>
					</trkpt>
					<trkpt lat="44.421090" lon="5.352590">
						<ele>624</ele>
						<time>2026-09-03T16:49:42Z</time>
					</trkpt>
					<trkpt lat="44.421330" lon="5.352480">
						<ele>631</ele>
						<time>2026-09-03T16:49:55Z</time>
					</trkpt>
					<trkpt lat="44.421580" lon="5.352490">
						<ele>633</ele>
						<time>2026-09-03T16:50:07Z</time>
					</trkpt>
					<trkpt lat="44.421670" lon="5.352420">
						<ele>636</ele>
						<time>2026-09-03T16:50:12Z</time>
					</trkpt>
					<trkpt lat="44.421920" lon="5.352370">
						<ele>639</ele>
						<time>2026-09-03T16:50:25Z</time>
					</trkpt>
					<trkpt lat="44.421990" lon="5.352330">
						<ele>641</ele>
						<time>2026-09-03T16:50:29Z</time>
					</trkpt>
					<trkpt lat="44.422030" lon="5.352270">
						<ele>643</ele>
						<time>2026-09-03T16:50:32Z</time>
					</trkpt>
					<trkpt lat="44.422180" lon="5.352180">
						<ele>646</ele>
						<time>2026-09-03T16:50:40Z</time>
					</trkpt>
					<trkpt lat="44.422380" lon="5.352170">
						<ele>648</ele>
						<time>2026-09-03T16:50:50Z</time>
					</trkpt>
					<trkpt lat="44.422650" lon="5.352210">
						<ele>647</ele>
						<time>2026-09-03T16:51:03Z</time>
					</trkpt>
					<trkpt lat="44.422800" lon="5.352190">
						<ele>647</ele>
						<time>2026-09-03T16:51:11Z</time>
					</trkpt>
					<trkpt lat="44.422840" lon="5.352220">
						<ele>646</ele>
						<time>2026-09-03T16:51:13Z</time>
					</trkpt>
					<trkpt lat="44.423140" lon="5.352200">
						<ele>646</ele>
						<time>2026-09-03T16:51:28Z</time>
					</trkpt>
					<trkpt lat="44.423290" lon="5.352160">
						<ele>647</ele>
						<time>2026-09-03T16:51:36Z</time>
					</trkpt>
					<trkpt lat="44.423420" lon="5.352080">
						<ele>651</ele>
						<time>2026-09-03T16:51:43Z</time>
					</trkpt>
					<trkpt lat="44.423470" lon="5.352080">
						<ele>652</ele>
						<time>2026-09-03T16:51:45Z</time>
					</trkpt>
					<trkpt lat="44.423580" lon="5.352110">
						<ele>653</ele>
						<time>2026-09-03T16:51:51Z</time>
					</trkpt>
					<trkpt lat="44.423930" lon="5.352410">
						<ele>652</ele>
						<time>2026-09-03T16:52:12Z</time>
					</trkpt>
					<trkpt lat="44.424220" lon="5.352540">
						<ele>655</ele>
						<time>2026-09-03T16:52:27Z</time>
					</trkpt>
					<trkpt lat="44.424350" lon="5.352670">
						<ele>654</ele>
						<time>2026-09-03T16:52:35Z</time>
					</trkpt>
					<trkpt lat="44.424450" lon="5.352720">
						<ele>655</ele>
						<time>2026-09-03T16:52:40Z</time>
					</trkpt>
					<trkpt lat="44.424590" lon="5.352750">
						<ele>658</ele>
						<time>2026-09-03T16:52:47Z</time>
					</trkpt>
					<trkpt lat="44.424810" lon="5.352720">
						<ele>664</ele>
						<time>2026-09-03T16:52:58Z</time>
					</trkpt>
					<trkpt lat="44.424850" lon="5.352740">
						<ele>664</ele>
						<time>2026-09-03T16:53:00Z</time>
					</trkpt>
					<trkpt lat="44.424950" lon="5.352700">
						<ele>668</ele>
						<time>2026-09-03T16:53:06Z</time>
					</trkpt>
					<trkpt lat="44.425080" lon="5.352530">
						<ele>675</ele>
						<time>2026-09-03T16:53:14Z</time>
					</trkpt>
					<trkpt lat="44.425250" lon="5.352410">
						<ele>680</ele>
						<time>2026-09-03T16:53:24Z</time>
					</trkpt>
					<trkpt lat="44.425350" lon="5.352400">
						<ele>681</ele>
						<time>2026-09-03T16:53:29Z</time>
					</trkpt>
					<trkpt lat="44.425570" lon="5.352280">
						<ele>687</ele>
						<time>2026-09-03T16:53:41Z</time>
					</trkpt>
					<trkpt lat="44.425810" lon="5.352210">
						<ele>691</ele>
						<time>2026-09-03T16:53:53Z</time>
					</trkpt>
					<trkpt lat="44.426260" lon="5.352020">
						<ele>682</ele>
						<time>2026-09-03T16:54:17Z</time>
					</trkpt>
					<trkpt lat="44.426300" lon="5.351990">
						<ele>682</ele>
						<time>2026-09-03T16:54:19Z</time>
					</trkpt>
					<trkpt lat="44.426450" lon="5.351700">
						<ele>687</ele>
						<time>2026-09-03T16:54:32Z</time>
					</trkpt>
					<trkpt lat="44.426620" lon="5.351530">
						<ele>688</ele>
						<time>2026-09-03T16:54:42Z</time>
					</trkpt>
					<trkpt lat="44.426850" lon="5.351500">
						<ele>684</ele>
						<time>2026-09-03T16:54:54Z</time>
					</trkpt>
					<trkpt lat="44.427090" lon="5.351410">
						<ele>683</ele>
						<time>2026-09-03T16:55:06Z</time>
					</trkpt>
					<trkpt lat="44.427130" lon="5.351370">
						<ele>684</ele>
						<time>2026-09-03T16:55:09Z</time>
					</trkpt>
					<trkpt lat="44.427350" lon="5.351390">
						<ele>679</ele>
						<time>2026-09-03T16:55:20Z</time>
					</trkpt>
					<trkpt lat="44.427770" lon="5.351360">
						<ele>673</ele>
						<time>2026-09-03T16:55:41Z</time>
					</trkpt>
					<trkpt lat="44.428190" lon="5.351260">
						<ele>670</ele>
						<time>2026-09-03T16:56:02Z</time>
					</trkpt>
					<trkpt lat="44.428420" lon="5.351180">
						<ele>670</ele>
						<time>2026-09-03T16:56:14Z</time>
					</trkpt>
					<trkpt lat="44.428500" lon="5.351190">
						<ele>669</ele>
						<time>2026-09-03T16:56:18Z</time>
					</trkpt>
					<trkpt lat="44.428740" lon="5.351320">
						<ele>662</ele>
						<time>2026-09-03T16:56:31Z</time>
					</trkpt>
					<trkpt lat="44.428980" lon="5.351270">
						<ele>662</ele>
						<time>2026-09-03T16:56:43Z</time>
					</trkpt>
					<trkpt lat="44.429140" lon="5.351270">
						<ele>661</ele>
						<time>2026-09-03T16:56:51Z</time>
					</trkpt>
					<trkpt lat="44.429510" lon="5.351440">
						<ele>655</ele>
						<time>2026-09-03T16:57:10Z</time>
					</trkpt>
					<trkpt lat="44.429750" lon="5.351450">
						<ele>656</ele>
						<time>2026-09-03T16:57:22Z</time>
					</trkpt>
					<trkpt lat="44.430000" lon="5.351530">
						<ele>654</ele>
						<time>2026-09-03T16:57:35Z</time>
					</trkpt>
					<trkpt lat="44.430170" lon="5.351630">
						<ele>650</ele>
						<time>2026-09-03T16:57:44Z</time>
					</trkpt>
					<trkpt lat="44.430290" lon="5.351740">
						<ele>647</ele>
						<time>2026-09-03T16:57:52Z</time>
					</trkpt>
					<trkpt lat="44.430510" lon="5.352020">
						<ele>641</ele>
						<time>2026-09-03T16:58:07Z</time>
					</trkpt>
					<trkpt lat="44.430700" lon="5.352180">
						<ele>638</ele>
						<time>2026-09-03T16:58:18Z</time>
					</trkpt>
					<trkpt lat="44.431000" lon="5.352280">
						<ele>637</ele>
						<time>2026-09-03T16:58:33Z</time>
					</trkpt>
					<trkpt lat="44.431220" lon="5.352260">
						<ele>638</ele>
						<time>2026-09-03T16:58:44Z</time>
					</trkpt>
					<trkpt lat="44.431350" lon="5.352220">
						<ele>640</ele>
						<time>2026-09-03T16:58:51Z</time>
					</trkpt>
					<trkpt lat="44.431480" lon="5.352220">
						<ele>640</ele>
						<time>2026-09-03T16:58:57Z</time>
					</trkpt>
					<trkpt lat="44.431760" lon="5.352120">
						<ele>644</ele>
						<time>2026-09-03T16:59:12Z</time>
					</trkpt>
					<trkpt lat="44.431970" lon="5.351950">
						<ele>650</ele>
						<time>2026-09-03T16:59:24Z</time>
					</trkpt>
					<trkpt lat="44.432100" lon="5.351940">
						<ele>651</ele>
						<time>2026-09-03T16:59:30Z</time>
					</trkpt>
					<trkpt lat="44.432180" lon="5.351710">
						<ele>656</ele>
						<time>2026-09-03T16:59:40Z</time>
					</trkpt>
					<trkpt lat="44.432240" lon="5.351680">
						<ele>658</ele>
						<time>2026-09-03T16:59:43Z</time>
					</trkpt>
					<trkpt lat="44.432420" lon="5.351690">
						<ele>659</ele>
						<time>2026-09-03T16:59:52Z</time>
					</trkpt>
					<trkpt lat="44.432520" lon="5.351730">
						<ele>659</ele>
						<time>2026-09-03T16:59:57Z</time>
					</trkpt>
					<trkpt lat="44.432740" lon="5.351720">
						<ele>660</ele>
						<time>2026-09-03T17:00:08Z</time>
					</trkpt>
					<trkpt lat="44.432830" lon="5.351740">
						<ele>660</ele>
						<time>2026-09-03T17:00:13Z</time>
					</trkpt>
					<trkpt lat="44.432950" lon="5.351800">
						<ele>660</ele>
						<time>2026-09-03T17:00:19Z</time>
					</trkpt>
					<trkpt lat="44.433280" lon="5.352040">
						<ele>657</ele>
						<time>2026-09-03T17:00:37Z</time>
					</trkpt>
					<trkpt lat="44.433380" lon="5.352210">
						<ele>654</ele>
						<time>2026-09-03T17:00:45Z</time>
					</trkpt>
					<trkpt lat="44.433360" lon="5.352310">
						<ele>651</ele>
						<time>2026-09-03T17:00:49Z</time>
					</trkpt>
					<trkpt lat="44.433380" lon="5.352420">
						<ele>649</ele>
						<time>2026-09-03T17:00:53Z</time>
					</trkpt>
					<trkpt lat="44.433550" lon="5.352350">
						<ele>653</ele>
						<time>2026-09-03T17:01:02Z</time>
					</trkpt>
					<trkpt lat="44.433650" lon="5.352350">
						<ele>654</ele>
						<time>2026-09-03T17:01:07Z</time>
					</trkpt>
					<trkpt lat="44.433720" lon="5.352420">
						<ele>654</ele>
						<time>2026-09-03T17:01:11Z</time>
					</trkpt>
					<trkpt lat="44.433810" lon="5.352580">
						<ele>652</ele>
						<time>2026-09-03T17:01:19Z</time>
					</trkpt>
					<trkpt lat="44.433860" lon="5.353030">
						<ele>647</ele>
						<time>2026-09-03T17:01:35Z</time>
					</trkpt>
					<trkpt lat="44.433890" lon="5.353100">
						<ele>646</ele>
						<time>2026-09-03T17:01:38Z</time>
					</trkpt>
					<trkpt lat="44.434040" lon="5.353200">
						<ele>647</ele>
						<time>2026-09-03T17:01:46Z</time>
					</trkpt>
					<trkpt lat="44.434070" lon="5.353140">
						<ele>648</ele>
						<time>2026-09-03T17:01:49Z</time>
					</trkpt>
					<trkpt lat="44.434110" lon="5.353130">
						<ele>648</ele>
						<time>2026-09-03T17:01:51Z</time>
					</trkpt>
					<trkpt lat="44.434280" lon="5.353210">
						<ele>649</ele>
						<time>2026-09-03T17:02:00Z</time>
					</trkpt>
					<trkpt lat="44.434370" lon="5.353200">
						<ele>649</ele>
						<time>2026-09-03T17:02:04Z</time>
					</trkpt>
					<trkpt lat="44.434420" lon="5.353240">
						<ele>649</ele>
						<time>2026-09-03T17:02:07Z</time>
					</trkpt>
					<trkpt lat="44.434440" lon="5.353340">
						<ele>648</ele>
						<time>2026-09-03T17:02:11Z</time>
					</trkpt>
					<trkpt lat="44.434500" lon="5.353390">
						<ele>648</ele>
						<time>2026-09-03T17:02:14Z</time>
					</trkpt>
					<trkpt lat="44.434570" lon="5.353380">
						<ele>648</ele>
						<time>2026-09-03T17:02:18Z</time>
					</trkpt>
					<trkpt lat="44.434910" lon="5.352970">
						<ele>657</ele>
						<time>2026-09-03T17:02:40Z</time>
					</trkpt>
					<trkpt lat="44.434790" lon="5.352820">
						<ele>658</ele>
						<time>2026-09-03T17:02:48Z</time>
					</trkpt>
					<trkpt lat="44.434820" lon="5.352760">
						<ele>659</ele>
						<time>2026-09-03T17:02:51Z</time>
					</trkpt>
					<trkpt lat="44.434900" lon="5.352720">
						<ele>661</ele>
						<time>2026-09-03T17:02:55Z</time>
					</trkpt>
					<trkpt lat="44.435390" lon="5.352680">
						<ele>665</ele>
						<time>2026-09-03T17:03:20Z</time>
					</trkpt>
					<trkpt lat="44.435490" lon="5.352710">
						<ele>665</ele>
						<time>2026-09-03T17:03:25Z</time>
					</trkpt>
					<trkpt lat="44.435660" lon="5.353020">
						<ele>662</ele>
						<time>2026-09-03T17:03:39Z</time>
					</trkpt>
					<trkpt lat="44.435740" lon="5.353070">
						<ele>662</ele>
						<time>2026-09-03T17:03:43Z</time>
					</trkpt>
					<trkpt lat="44.435800" lon="5.353080">
						<ele>662</ele>
						<time>2026-09-03T17:03:46Z</time>
					</trkpt>
					<trkpt lat="44.436380" lon="5.352970">
						<ele>665</ele>
						<time>2026-09-03T17:04:16Z</time>
					</trkpt>
					<trkpt lat="44.436480" lon="5.352880">
						<ele>667</ele>
						<time>2026-09-03T17:04:21Z</time>
					</trkpt>
					<trkpt lat="44.436570" lon="5.352690">
						<ele>669</ele>
						<time>2026-09-03T17:04:30Z</time>
					</trkpt>
					<trkpt lat="44.437180" lon="5.351770">
						<ele>684</ele>
						<time>2026-09-03T17:05:15Z</time>
					</trkpt>
					<trkpt lat="44.437420" lon="5.351710">
						<ele>686</ele>
						<time>2026-09-03T17:05:27Z</time>
					</trkpt>
					<trkpt lat="44.437710" lon="5.351720">
						<ele>688</ele>
						<time>2026-09-03T17:05:41Z</time>
					</trkpt>
					<trkpt lat="44.437850" lon="5.351670">
						<ele>689</ele>
						<time>2026-09-03T17:05:48Z</time>
					</trkpt>
					<trkpt lat="44.438160" lon="5.351450">
						<ele>696</ele>
						<time>2026-09-03T17:06:06Z</time>
					</trkpt>
					<trkpt lat="44.439200" lon="5.350790">
						<ele>717</ele>
						<time>2026-09-03T17:07:03Z</time>
					</trkpt>
					<trkpt lat="44.439410" lon="5.350630">
						<ele>722</ele>
						<time>2026-09-03T17:07:15Z</time>
					</trkpt>
					<trkpt lat="44.440620" lon="5.349340">
						<ele>745</ele>
						<time>2026-09-03T17:08:31Z</time>
					</trkpt>
					<trkpt lat="44.440810" lon="5.349000">
						<ele>752</ele>
						<time>2026-09-03T17:08:46Z</time>
					</trkpt>
					<trkpt lat="44.441150" lon="5.348280">
						<ele>769</ele>
						<time>2026-09-03T17:09:17Z</time>
					</trkpt>
					<trkpt lat="44.441320" lon="5.348070">
						<ele>772</ele>
						<time>2026-09-03T17:09:29Z</time>
					</trkpt>
					<trkpt lat="44.441410" lon="5.347980">
						<ele>773</ele>
						<time>2026-09-03T17:09:34Z</time>
					</trkpt>
					<trkpt lat="44.441640" lon="5.347850">
						<ele>773</ele>
						<time>2026-09-03T17:09:47Z</time>
					</trkpt>
					<trkpt lat="44.441730" lon="5.347710">
						<ele>777</ele>
						<time>2026-09-03T17:09:53Z</time>
					</trkpt>
					<trkpt lat="44.441780" lon="5.347680">
						<ele>778</ele>
						<time>2026-09-03T17:09:56Z</time>
					</trkpt>
					<trkpt lat="44.441980" lon="5.347670">
						<ele>778</ele>
						<time>2026-09-03T17:10:06Z</time>
					</trkpt>
					<trkpt lat="44.442080" lon="5.347640">
						<ele>778</ele>
						<time>2026-09-03T17:10:11Z</time>
					</trkpt>
					<trkpt lat="44.442360" lon="5.347480">
						<ele>783</ele>
						<time>2026-09-03T17:10:26Z</time>
					</trkpt>
					<trkpt lat="44.442540" lon="5.347320">
						<ele>786</ele>
						<time>2026-09-03T17:10:37Z</time>
					</trkpt>
					<trkpt lat="44.442560" lon="5.347270">
						<ele>787</ele>
						<time>2026-09-03T17:10:39Z</time>
					</trkpt>
					<trkpt lat="44.442560" lon="5.347000">
						<ele>794</ele>
						<time>2026-09-03T17:10:49Z</time>
					</trkpt>
					<trkpt lat="44.442590" lon="5.346810">
						<ele>799</ele>
						<time>2026-09-03T17:10:56Z</time>
					</trkpt>
					<trkpt lat="44.442450" lon="5.346580">
						<ele>806</ele>
						<time>2026-09-03T17:11:06Z</time>
					</trkpt>
					<trkpt lat="44.442450" lon="5.346530">
						<ele>807</ele>
						<time>2026-09-03T17:11:08Z</time>
					</trkpt>
					<trkpt lat="44.442480" lon="5.346270">
						<ele>812</ele>
						<time>2026-09-03T17:11:18Z</time>
					</trkpt>
					<trkpt lat="44.442620" lon="5.345690">
						<ele>820</ele>
						<time>2026-09-03T17:11:39Z</time>
					</trkpt>
					<trkpt lat="44.442770" lon="5.345700">
						<ele>818</ele>
						<time>2026-09-03T17:11:47Z</time>
					</trkpt>
					<trkpt lat="44.442900" lon="5.345170">
						<ele>828</ele>
						<time>2026-09-03T17:12:07Z</time>
					</trkpt>
					<trkpt lat="44.443160" lon="5.344660">
						<ele>838</ele>
						<time>2026-09-03T17:12:29Z</time>
					</trkpt>
					<trkpt lat="44.443490" lon="5.344220">
						<ele>848</ele>
						<time>2026-09-03T17:12:52Z</time>
					</trkpt>
					<trkpt lat="44.443760" lon="5.343950">
						<ele>855</ele>
						<time>2026-09-03T17:13:09Z</time>
					</trkpt>
					<trkpt lat="44.443830" lon="5.343830">
						<ele>859</ele>
						<time>2026-09-03T17:13:14Z</time>
					</trkpt>
					<trkpt lat="44.443900" lon="5.343600">
						<ele>866</ele>
						<time>2026-09-03T17:13:23Z</time>
					</trkpt>
					<trkpt lat="44.444300" lon="5.343560">
						<ele>867</ele>
						<time>2026-09-03T17:13:43Z</time>
					</trkpt>
					<trkpt lat="44.444670" lon="5.343460">
						<ele>871</ele>
						<time>2026-09-03T17:14:02Z</time>
					</trkpt>
					<trkpt lat="44.444940" lon="5.343420">
						<ele>873</ele>
						<time>2026-09-03T17:14:16Z</time>
					</trkpt>
					<trkpt lat="44.445030" lon="5.343340">
						<ele>876</ele>
						<time>2026-09-03T17:14:21Z</time>
					</trkpt>
					<trkpt lat="44.445050" lon="5.343240">
						<ele>878</ele>
						<time>2026-09-03T17:14:25Z</time>
					</trkpt>
					<trkpt lat="44.445100" lon="5.343180">
						<ele>879</ele>
						<time>2026-09-03T17:14:28Z</time>
					</trkpt>
					<trkpt lat="44.445140" lon="5.343070">
						<ele>882</ele>
						<time>2026-09-03T17:14:33Z</time>
					</trkpt>
					<trkpt lat="44.445400" lon="5.342800">
						<ele>886</ele>
						<time>2026-09-03T17:14:49Z</time>
					</trkpt>
					<trkpt lat="44.445550" lon="5.342890">
						<ele>883</ele>
						<time>2026-09-03T17:14:57Z</time>
					</trkpt>
					<trkpt lat="44.445660" lon="5.342830">
						<ele>883</ele>
						<time>2026-09-03T17:15:03Z</time>
					</trkpt>
					<trkpt lat="44.445770" lon="5.342590">
						<ele>888</ele>
						<time>2026-09-03T17:15:13Z</time>
					</trkpt>
					<trkpt lat="44.446030" lon="5.342280">
						<ele>893</ele>
						<time>2026-09-03T17:15:30Z</time>
					</trkpt>
					<trkpt lat="44.446170" lon="5.342230">
						<ele>892</ele>
						<time>2026-09-03T17:15:37Z</time>
					</trkpt>
					<trkpt lat="44.446340" lon="5.342240">
						<ele>889</ele>
						<time>2026-09-03T17:15:46Z</time>
					</trkpt>
					<trkpt lat="44.446400" lon="5.342220">
						<ele>889</ele>
						<time>2026-09-03T17:15:49Z</time>
					</trkpt>
					<trkpt lat="44.446540" lon="5.342120">
						<ele>890</ele>
						<time>2026-09-03T17:15:57Z</time>
					</trkpt>
					<trkpt lat="44.446830" lon="5.342030">
						<ele>888</ele>
						<time>2026-09-03T17:16:12Z</time>
					</trkpt>
					<trkpt lat="44.447130" lon="5.341890">
						<ele>887</ele>
						<time>2026-09-03T17:16:27Z</time>
					</trkpt>
					<trkpt lat="44.447300" lon="5.341780">
						<ele>887</ele>
						<time>2026-09-03T17:16:37Z</time>
					</trkpt>
					<trkpt lat="44.447500" lon="5.341430">
						<ele>892</ele>
						<time>2026-09-03T17:16:53Z</time>
					</trkpt>
					<trkpt lat="44.447580" lon="5.341490">
						<ele>891</ele>
						<time>2026-09-03T17:16:57Z</time>
					</trkpt>
					<trkpt lat="44.447660" lon="5.341510">
						<ele>891</ele>
						<time>2026-09-03T17:17:01Z</time>
					</trkpt>
					<trkpt lat="44.447920" lon="5.341480">
						<ele>892</ele>
						<time>2026-09-03T17:17:15Z</time>
					</trkpt>
					<trkpt lat="44.447990" lon="5.341500">
						<ele>891</ele>
						<time>2026-09-03T17:17:18Z</time>
					</trkpt>
					<trkpt lat="44.448080" lon="5.341570">
						<ele>890</ele>
						<time>2026-09-03T17:17:23Z</time>
					</trkpt>
					<trkpt lat="44.448230" lon="5.341610">
						<ele>889</ele>
						<time>2026-09-03T17:17:31Z</time>
					</trkpt>
					<trkpt lat="44.448420" lon="5.341900">
						<ele>883</ele>
						<time>2026-09-03T17:17:45Z</time>
					</trkpt>
					<trkpt lat="44.448540" lon="5.342150">
						<ele>878</ele>
						<time>2026-09-03T17:17:56Z</time>
					</trkpt>
					<trkpt lat="44.448580" lon="5.342190">
						<ele>877</ele>
						<time>2026-09-03T17:17:58Z</time>
					</trkpt>
					<trkpt lat="44.448640" lon="5.342200">
						<ele>877</ele>
						<time>2026-09-03T17:18:01Z</time>
					</trkpt>
					<trkpt lat="44.448790" lon="5.342080">
						<ele>881</ele>
						<time>2026-09-03T17:18:10Z</time>
					</trkpt>
					<trkpt lat="44.448850" lon="5.341970">
						<ele>884</ele>
						<time>2026-09-03T17:18:15Z</time>
					</trkpt>
					<trkpt lat="44.448920" lon="5.341910">
						<ele>886</ele>
						<time>2026-09-03T17:18:19Z</time>
					</trkpt>
					<trkpt lat="44.449080" lon="5.341840">
						<ele>889</ele>
						<time>2026-09-03T17:18:27Z</time>
					</trkpt>
					<trkpt lat="44.449180" lon="5.341760">
						<ele>891</ele>
						<time>2026-09-03T17:18:33Z</time>
					</trkpt>
					<trkpt lat="44.449240" lon="5.341650">
						<ele>893</ele>
						<time>2026-09-03T17:18:38Z</time>
					</trkpt>
					<trkpt lat="44.449250" lon="5.341440">
						<ele>898</ele>
						<time>2026-09-03T17:18:46Z</time>
					</trkpt>
					<trkpt lat="44.449480" lon="5.341290">
						<ele>903</ele>
						<time>2026-09-03T17:18:58Z</time>
					</trkpt>
					<trkpt lat="44.449510" lon="5.341230">
						<ele>904</ele>
						<time>2026-09-03T17:19:01Z</time>
					</trkpt>
					<trkpt lat="44.449860" lon="5.341260">
						<ele>905</ele>
						<time>2026-09-03T17:19:18Z</time>
					</trkpt>
					<trkpt lat="44.450210" lon="5.341230">
						<ele>907</ele>
						<time>2026-09-03T17:19:36Z</time>
					</trkpt>
					<trkpt lat="44.450490" lon="5.341160">
						<ele>910</ele>
						<time>2026-09-03T17:19:50Z</time>
					</trkpt>
					<trkpt lat="44.450630" lon="5.341100">
						<ele>912</ele>
						<time>2026-09-03T17:19:57Z</time>
					</trkpt>
					<trkpt lat="44.450880" lon="5.341270">
						<ele>908</ele>
						<time>2026-09-03T17:20:11Z</time>
					</trkpt>
					<trkpt lat="44.451120" lon="5.341480">
						<ele>903</ele>
						<time>2026-09-03T17:20:26Z</time>
					</trkpt>
					<trkpt lat="44.451410" lon="5.341450">
						<ele>904</ele>
						<time>2026-09-03T17:20:40Z</time>
					</trkpt>
					<trkpt lat="44.451520" lon="5.341370">
						<ele>906</ele>
						<time>2026-09-03T17:20:46Z</time>
					</trkpt>
					<trkpt lat="44.451580" lon="5.341280">
						<ele>908</ele>
						<time>2026-09-03T17:20:51Z</time>
					</trkpt>
					<trkpt lat="44.451690" lon="5.340970">
						<ele>915</ele>
						<time>2026-09-03T17:21:03Z</time>
					</trkpt>
					<trkpt lat="44.451690" lon="5.340860">
						<ele>917</ele>
						<time>2026-09-03T17:21:07Z</time>
					</trkpt>
					<trkpt lat="44.451760" lon="5.340770">
						<ele>919</ele>
						<time>2026-09-03T17:21:12Z</time>
					</trkpt>
					<trkpt lat="44.451830" lon="5.340740">
						<ele>920</ele>
						<time>2026-09-03T17:21:15Z</time>
					</trkpt>
					<trkpt lat="44.451870" lon="5.340800">
						<ele>918</ele>
						<time>2026-09-03T17:21:18Z</time>
					</trkpt>
					<trkpt lat="44.451920" lon="5.340810">
						<ele>917</ele>
						<time>2026-09-03T17:21:21Z</time>
					</trkpt>
					<trkpt lat="44.452030" lon="5.340760">
						<ele>918</ele>
						<time>2026-09-03T17:21:27Z</time>
					</trkpt>
					<trkpt lat="44.452100" lon="5.340680">
						<ele>920</ele>
						<time>2026-09-03T17:21:31Z</time>
					</trkpt>
					<trkpt lat="44.452310" lon="5.340710">
						<ele>918</ele>
						<time>2026-09-03T17:21:42Z</time>
					</trkpt>
					<trkpt lat="44.452570" lon="5.340520">
						<ele>923</ele>
						<time>2026-09-03T17:21:56Z</time>
					</trkpt>
					<trkpt lat="44.452750" lon="5.340270">
						<ele>930</ele>
						<time>2026-09-03T17:22:09Z</time>
					</trkpt>
					<trkpt lat="44.452910" lon="5.340120">
						<ele>932</ele>
						<time>2026-09-03T17:22:19Z</time>
					</trkpt>
					<trkpt lat="44.453610" lon="5.339760">
						<ele>943</ele>
						<time>2026-09-03T17:22:56Z</time>
					</trkpt>
					<trkpt lat="44.453780" lon="5.339730">
						<ele>946</ele>
						<time>2026-09-03T17:23:05Z</time>
					</trkpt>
					<trkpt lat="44.453910" lon="5.339660">
						<ele>949</ele>
						<time>2026-09-03T17:23:12Z</time>
					</trkpt>
					<trkpt lat="44.453940" lon="5.339620">
						<ele>950</ele>
						<time>2026-09-03T17:23:14Z</time>
					</trkpt>
					<trkpt lat="44.454110" lon="5.339530">
						<ele>953</ele>
						<time>2026-09-03T17:23:23Z</time>
					</trkpt>
					<trkpt lat="44.454160" lon="5.339400">
						<ele>955</ele>
						<time>2026-09-03T17:23:28Z</time>
					</trkpt>
					<trkpt lat="44.454310" lon="5.339260">
						<ele>958</ele>
						<time>2026-09-03T17:23:37Z</time>
					</trkpt>
					<trkpt lat="44.454460" lon="5.339300">
						<ele>960</ele>
						<time>2026-09-03T17:23:45Z</time>
					</trkpt>
					<trkpt lat="44.454550" lon="5.339270">
						<ele>961</ele>
						<time>2026-09-03T17:23:49Z</time>
					</trkpt>
					<trkpt lat="44.454730" lon="5.339130">
						<ele>964</ele>
						<time>2026-09-03T17:24:00Z</time>
					</trkpt>
					<trkpt lat="44.454980" lon="5.339010">
						<ele>967</ele>
						<time>2026-09-03T17:24:13Z</time>
					</trkpt>
					<trkpt lat="44.455070" lon="5.339320">
						<ele>970</ele>
						<time>2026-09-03T17:24:25Z</time>
					</trkpt>
					<trkpt lat="44.455100" lon="5.339360">
						<ele>971</ele>
						<time>2026-09-03T17:24:27Z</time>
					</trkpt>
					<trkpt lat="44.455330" lon="5.339410">
						<ele>981</ele>
						<time>2026-09-03T17:24:39Z</time>
					</trkpt>
					<trkpt lat="44.455370" lon="5.339350">
						<ele>982</ele>
						<time>2026-09-03T17:24:41Z</time>
					</trkpt>
					<trkpt lat="44.455830" lon="5.338240">
						<ele>994</ele>
						<time>2026-09-03T17:25:27Z</time>
					</trkpt>
					<trkpt lat="44.455940" lon="5.338120">
						<ele>998</ele>
						<time>2026-09-03T17:25:34Z</time>
					</trkpt>
					<trkpt lat="44.456190" lon="5.337020">
						<ele>1005</ele>
						<time>2026-09-03T17:26:16Z</time>
					</trkpt>
					<trkpt lat="44.456230" lon="5.336960">
						<ele>1004</ele>
						<time>2026-09-03T17:26:18Z</time>
					</trkpt>
					<trkpt lat="44.456450" lon="5.336890">
						<ele>1003</ele>
						<time>2026-09-03T17:26:30Z</time>
					</trkpt>
					<trkpt lat="44.456630" lon="5.336900">
						<ele>1001</ele>
						<time>2026-09-03T17:26:39Z</time>
					</trkpt>
					<trkpt lat="44.456990" lon="5.336690">
						<ele>1000</ele>
						<time>2026-09-03T17:26:58Z</time>
					</trkpt>
					<trkpt lat="44.457110" lon="5.336610">
						<ele>999</ele>
						<time>2026-09-03T17:27:05Z</time>
					</trkpt>
					<trkpt lat="44.457270" lon="5.336310">
						<ele>993</ele>
						<time>2026-09-03T17:27:18Z</time>
					</trkpt>
					<trkpt lat="44.457390" lon="5.335910">
						<ele>983</ele>
						<time>2026-09-03T17:27:34Z</time>
					</trkpt>
					<trkpt lat="44.457530" lon="5.335150">
						<ele>966</ele>
						<time>2026-09-03T17:28:02Z</time>
					</trkpt>
					<trkpt lat="44.457620" lon="5.334940">
						<ele>963</ele>
						<time>2026-09-03T17:28:11Z</time>
					</trkpt>
					<trkpt lat="44.457830" lon="5.334750">
						<ele>964</ele>
						<time>2026-09-03T17:28:23Z</time>
					</trkpt>
					<trkpt lat="44.457950" lon="5.334420">
						<ele>959</ele>
						<time>2026-09-03T17:28:36Z</time>
					</trkpt>
					<trkpt lat="44.458160" lon="5.333470">
						<ele>941</ele>
						<time>2026-09-03T17:29:12Z</time>
					</trkpt>
					<trkpt lat="44.458540" lon="5.332170">
						<ele>925</ele>
						<time>2026-09-03T17:30:02Z</time>
					</trkpt>
					<trkpt lat="44.458640" lon="5.331550">
						<ele>921</ele>
						<time>2026-09-03T17:30:25Z</time>
					</trkpt>
					<trkpt lat="44.458710" lon="5.330800">
						<ele>917</ele>
						<time>2026-09-03T17:30:52Z</time>
					</trkpt>
					<trkpt lat="44.458680" lon="5.330020">
						<ele>910</ele>
						<time>2026-09-03T17:31:20Z</time>
					</trkpt>
					<trkpt lat="44.458720" lon="5.329490">
						<ele>908</ele>
						<time>2026-09-03T17:31:39Z</time>
					</trkpt>
					<trkpt lat="44.458600" lon="5.329080">
						<ele>901</ele>
						<time>2026-09-03T17:31:55Z</time>
					</trkpt>
					<trkpt lat="44.458570" lon="5.328840">
						<ele>899</ele>
						<time>2026-09-03T17:32:03Z</time>
					</trkpt>
					<trkpt lat="44.458580" lon="5.328480">
						<ele>897</ele>
						<time>2026-09-03T17:32:16Z</time>
					</trkpt>
					<trkpt lat="44.458560" lon="5.328130">
						<ele>893</ele>
						<time>2026-09-03T17:32:29Z</time>
					</trkpt>
					<trkpt lat="44.458480" lon="5.327440">
						<ele>882</ele>
						<time>2026-09-03T17:32:54Z</time>
					</trkpt>
					<trkpt lat="44.458500" lon="5.326780">
						<ele>875</ele>
						<time>2026-09-03T17:33:17Z</time>
					</trkpt>
					<trkpt lat="44.458710" lon="5.325690">
						<ele>864</ele>
						<time>2026-09-03T17:33:58Z</time>
					</trkpt>
					<trkpt lat="44.458730" lon="5.325460">
						<ele>862</ele>
						<time>2026-09-03T17:34:06Z</time>
					</trkpt>
					<trkpt lat="44.458700" lon="5.325110">
						<ele>858</ele>
						<time>2026-09-03T17:34:18Z</time>
					</trkpt>
					<trkpt lat="44.458710" lon="5.324790">
						<ele>854</ele>
						<time>2026-09-03T17:34:30Z</time>
					</trkpt>
					<trkpt lat="44.459030" lon="5.323850">
						<ele>840</ele>
						<time>2026-09-03T17:35:07Z</time>
					</trkpt>
					<trkpt lat="44.459060" lon="5.323570">
						<ele>838</ele>
						<time>2026-09-03T17:35:17Z</time>
					</trkpt>
					<trkpt lat="44.459150" lon="5.323370">
						<ele>835</ele>
						<time>2026-09-03T17:35:26Z</time>
					</trkpt>
					<trkpt lat="44.459240" lon="5.323010">
						<ele>836</ele>
						<time>2026-09-03T17:35:39Z</time>
					</trkpt>
					<trkpt lat="44.459380" lon="5.322180">
						<ele>836</ele>
						<time>2026-09-03T17:36:10Z</time>
					</trkpt>
					<trkpt lat="44.459380" lon="5.321950">
						<ele>834</ele>
						<time>2026-09-03T17:36:18Z</time>
					</trkpt>
					<trkpt lat="44.459470" lon="5.321180">
						<ele>828</ele>
						<time>2026-09-03T17:36:46Z</time>
					</trkpt>
					<trkpt lat="44.459600" lon="5.320690">
						<ele>827</ele>
						<time>2026-09-03T17:37:04Z</time>
					</trkpt>
					<trkpt lat="44.459660" lon="5.320300">
						<ele>825</ele>
						<time>2026-09-03T17:37:19Z</time>
					</trkpt>
					<trkpt lat="44.459780" lon="5.319930">
						<ele>824</ele>
						<time>2026-09-03T17:37:33Z</time>
					</trkpt>
					<trkpt lat="44.459780" lon="5.319410">
						<ele>821</ele>
						<time>2026-09-03T17:37:52Z</time>
					</trkpt>
					<trkpt lat="44.459820" lon="5.318730">
						<ele>819</ele>
						<time>2026-09-03T17:38:16Z</time>
					</trkpt>
					<trkpt lat="44.459820" lon="5.318370">
						<ele>818</ele>
						<time>2026-09-03T17:38:29Z</time>
					</trkpt>
					<trkpt lat="44.459800" lon="5.318280">
						<ele>818</ele>
						<time>2026-09-03T17:38:32Z</time>
					</trkpt>
					<trkpt lat="44.459460" lon="5.317670">
						<ele>808</ele>
						<time>2026-09-03T17:39:00Z</time>
					</trkpt>
					<trkpt lat="44.459420" lon="5.317640">
						<ele>807</ele>
						<time>2026-09-03T17:39:02Z</time>
					</trkpt>
					<trkpt lat="44.459420" lon="5.317540">
						<ele>806</ele>
						<time>2026-09-03T17:39:06Z</time>
					</trkpt>
					<trkpt lat="44.459340" lon="5.317270">
						<ele>802</ele>
						<time>2026-09-03T17:39:16Z</time>
					</trkpt>
					<trkpt lat="44.459200" lon="5.317100">
						<ele>797</ele>
						<time>2026-09-03T17:39:26Z</time>
					</trkpt>
					<trkpt lat="44.459090" lon="5.317070">
						<ele>795</ele>
						<time>2026-09-03T17:39:31Z</time>
					</trkpt>
					<trkpt lat="44.458890" lon="5.317140">
						<ele>793</ele>
						<time>2026-09-03T17:39:41Z</time>
					</trkpt>
					<trkpt lat="44.458760" lon="5.317260">
						<ele>792</ele>
						<time>2026-09-03T17:39:49Z</time>
					</trkpt>
					<trkpt lat="44.458630" lon="5.317440">
						<ele>792</ele>
						<time>2026-09-03T17:39:58Z</time>
					</trkpt>
					<trkpt lat="44.458400" lon="5.317860">
						<ele>791</ele>
						<time>2026-09-03T17:40:17Z</time>
					</trkpt>
					<trkpt lat="44.458330" lon="5.317940">
						<ele>791</ele>
						<time>2026-09-03T17:40:22Z</time>
					</trkpt>
					<trkpt lat="44.458190" lon="5.318020">
						<ele>791</ele>
						<time>2026-09-03T17:40:29Z</time>
					</trkpt>
					<trkpt lat="44.458110" lon="5.317990">
						<ele>790</ele>
						<time>2026-09-03T17:40:34Z</time>
					</trkpt>
					<trkpt lat="44.458070" lon="5.317850">
						<ele>789</ele>
						<time>2026-09-03T17:40:39Z</time>
					</trkpt>
					<trkpt lat="44.458100" lon="5.317330">
						<ele>785</ele>
						<time>2026-09-03T17:40:58Z</time>
					</trkpt>
					<trkpt lat="44.458160" lon="5.317140">
						<ele>785</ele>
						<time>2026-09-03T17:41:05Z</time>
					</trkpt>
					<trkpt lat="44.458410" lon="5.316560">
						<ele>782</ele>
						<time>2026-09-03T17:41:29Z</time>
					</trkpt>
					<trkpt lat="44.458470" lon="5.316350">
						<ele>781</ele>
						<time>2026-09-03T17:41:37Z</time>
					</trkpt>
					<trkpt lat="44.458250" lon="5.315790">
						<ele>776</ele>
						<time>2026-09-03T17:42:00Z</time>
					</trkpt>
					<trkpt lat="44.458220" lon="5.315640">
						<ele>776</ele>
						<time>2026-09-03T17:42:06Z</time>
					</trkpt>
					<trkpt lat="44.458010" lon="5.315820">
						<ele>776</ele>
						<time>2026-09-03T17:42:18Z</time>
					</trkpt>
					<trkpt lat="44.457910" lon="5.315870">
						<ele>776</ele>
						<time>2026-09-03T17:42:23Z</time>
					</trkpt>
					<trkpt lat="44.457640" lon="5.315870">
						<ele>775</ele>
						<time>2026-09-03T17:42:37Z</time>
					</trkpt>
					<trkpt lat="44.457470" lon="5.315810">
						<ele>775</ele>
						<time>2026-09-03T17:42:46Z</time>
					</trkpt>
					<trkpt lat="44.457320" lon="5.315810">
						<ele>774</ele>
						<time>2026-09-03T17:42:53Z</time>
					</trkpt>
					<trkpt lat="44.457040" lon="5.315970">
						<ele>774</ele>
						<time>2026-09-03T17:43:08Z</time>
					</trkpt>
					<trkpt lat="44.456970" lon="5.316020">
						<ele>774</ele>
						<time>2026-09-03T17:43:12Z</time>
					</trkpt>
					<trkpt lat="44.456950" lon="5.316070">
						<ele>774</ele>
						<time>2026-09-03T17:43:14Z</time>
					</trkpt>
					<trkpt lat="44.456870" lon="5.316020">
						<ele>773</ele>
						<time>2026-09-03T17:43:19Z</time>
					</trkpt>
					<trkpt lat="44.456660" lon="5.315810">
						<ele>772</ele>
						<time>2026-09-03T17:43:32Z</time>
					</trkpt>
					<trkpt lat="44.456500" lon="5.315800">
						<ele>773</ele>
						<time>2026-09-03T17:43:40Z</time>
					</trkpt>
					<trkpt lat="44.456430" lon="5.315840">
						<ele>773</ele>
						<time>2026-09-03T17:43:43Z</time>
					</trkpt>
					<trkpt lat="44.456370" lon="5.315920">
						<ele>773</ele>
						<time>2026-09-03T17:43:47Z</time>
					</trkpt>
					<trkpt lat="44.456260" lon="5.316160">
						<ele>773</ele>
						<time>2026-09-03T17:43:58Z</time>
					</trkpt>
					<trkpt lat="44.456090" lon="5.316380">
						<ele>773</ele>
						<time>2026-09-03T17:44:09Z</time>
					</trkpt>
					<trkpt lat="44.455960" lon="5.316650">
						<ele>772</ele>
						<time>2026-09-03T17:44:21Z</time>
					</trkpt>
					<trkpt lat="44.455820" lon="5.316710">
						<ele>771</ele>
						<time>2026-09-03T17:44:28Z</time>
					</trkpt>
					<trkpt lat="44.455600" lon="5.316680">
						<ele>771</ele>
						<time>2026-09-03T17:44:39Z</time>
					</trkpt>
					<trkpt lat="44.455490" lon="5.316700">
						<ele>771</ele>
						<time>2026-09-03T17:44:45Z</time>
					</trkpt>
					<trkpt lat="44.455430" lon="5.316620">
						<ele>770</ele>
						<time>2026-09-03T17:44:49Z</time>
					</trkpt>
					<trkpt lat="44.455410" lon="5.316520">
						<ele>771</ele>
						<time>2026-09-03T17:44:53Z</time>
					</trkpt>
					<trkpt lat="44.455360" lon="5.316460">
						<ele>771</ele>
						<time>2026-09-03T17:44:56Z</time>
					</trkpt>
					<trkpt lat="44.455350" lon="5.315630">
						<ele>777</ele>
						<time>2026-09-03T17:45:26Z</time>
					</trkpt>
					<trkpt lat="44.454950" lon="5.315700">
						<ele>776</ele>
						<time>2026-09-03T17:45:46Z</time>
					</trkpt>
					<trkpt lat="44.454960" lon="5.315440">
						<ele>779</ele>
						<time>2026-09-03T17:45:55Z</time>
					</trkpt>
					<trkpt lat="44.454910" lon="5.315290">
						<ele>781</ele>
						<time>2026-09-03T17:46:01Z</time>
					</trkpt>
					<trkpt lat="44.454910" lon="5.315210">
						<ele>782</ele>
						<time>2026-09-03T17:46:04Z</time>
					</trkpt>
					<trkpt lat="44.455240" lon="5.314570">
						<ele>793</ele>
						<time>2026-09-03T17:46:32Z</time>
					</trkpt>
					<trkpt lat="44.455290" lon="5.314570">
						<ele>793</ele>
						<time>2026-09-03T17:46:35Z</time>
					</trkpt>
					<trkpt lat="44.455310" lon="5.314490">
						<ele>795</ele>
						<time>2026-09-03T17:46:38Z</time>
					</trkpt>
					<trkpt lat="44.455370" lon="5.314420">
						<ele>796</ele>
						<time>2026-09-03T17:46:41Z</time>
					</trkpt>
					<trkpt lat="44.455430" lon="5.314130">
						<ele>802</ele>
						<time>2026-09-03T17:46:52Z</time>
					</trkpt>
					<trkpt lat="44.455540" lon="5.313910">
						<ele>809</ele>
						<time>2026-09-03T17:47:02Z</time>
					</trkpt>
					<trkpt lat="44.455540" lon="5.313840">
						<ele>811</ele>
						<time>2026-09-03T17:47:04Z</time>
					</trkpt>
					<trkpt lat="44.455460" lon="5.313510">
						<ele>820</ele>
						<time>2026-09-03T17:47:17Z</time>
					</trkpt>
					<trkpt lat="44.455250" lon="5.312950">
						<ele>836</ele>
						<time>2026-09-03T17:47:39Z</time>
					</trkpt>
					<trkpt lat="44.455140" lon="5.312790">
						<ele>840</ele>
						<time>2026-09-03T17:47:47Z</time>
					</trkpt>
					<trkpt lat="44.455050" lon="5.312440">
						<ele>848</ele>
						<time>2026-09-03T17:48:01Z</time>
					</trkpt>
					<trkpt lat="44.454890" lon="5.312250">
						<ele>849</ele>
						<time>2026-09-03T17:48:11Z</time>
					</trkpt>
					<trkpt lat="44.454660" lon="5.311250">
						<ele>863</ele>
						<time>2026-09-03T17:48:49Z</time>
					</trkpt>
					<trkpt lat="44.454590" lon="5.310690">
						<ele>871</ele>
						<time>2026-09-03T17:49:09Z</time>
					</trkpt>
					<trkpt lat="44.454540" lon="5.310500">
						<ele>874</ele>
						<time>2026-09-03T17:49:16Z</time>
					</trkpt>
					<trkpt lat="44.454550" lon="5.310380">
						<ele>876</ele>
						<time>2026-09-03T17:49:21Z</time>
					</trkpt>
					<trkpt lat="44.454570" lon="5.310320">
						<ele>877</ele>
						<time>2026-09-03T17:49:23Z</time>
					</trkpt>
					<trkpt lat="44.454610" lon="5.310290">
						<ele>878</ele>
						<time>2026-09-03T17:49:25Z</time>
					</trkpt>
					<trkpt lat="44.454910" lon="5.310150">
						<ele>883</ele>
						<time>2026-09-03T17:49:41Z</time>
					</trkpt>
					<trkpt lat="44.455230" lon="5.309960">
						<ele>890</ele>
						<time>2026-09-03T17:49:58Z</time>
					</trkpt>
					<trkpt lat="44.455500" lon="5.309880">
						<ele>895</ele>
						<time>2026-09-03T17:50:12Z</time>
					</trkpt>
					<trkpt lat="44.455670" lon="5.309860">
						<ele>897</ele>
						<time>2026-09-03T17:50:21Z</time>
					</trkpt>
					<trkpt lat="44.455740" lon="5.309890">
						<ele>897</ele>
						<time>2026-09-03T17:50:24Z</time>
					</trkpt>
					<trkpt lat="44.455840" lon="5.309880">
						<ele>898</ele>
						<time>2026-09-03T17:50:29Z</time>
					</trkpt>
					<trkpt lat="44.455890" lon="5.309850">
						<ele>900</ele>
						<time>2026-09-03T17:50:32Z</time>
					</trkpt>
					<trkpt lat="44.455980" lon="5.309670">
						<ele>904</ele>
						<time>2026-09-03T17:50:40Z</time>
					</trkpt>
					<trkpt lat="44.456030" lon="5.309410">
						<ele>909</ele>
						<time>2026-09-03T17:50:50Z</time>
					</trkpt>
					<trkpt lat="44.456010" lon="5.309180">
						<ele>913</ele>
						<time>2026-09-03T17:50:58Z</time>
					</trkpt>
					<trkpt lat="44.456160" lon="5.308720">
						<ele>924</ele>
						<time>2026-09-03T17:51:16Z</time>
					</trkpt>
					<trkpt lat="44.456580" lon="5.308390">
						<ele>930</ele>
						<time>2026-09-03T17:51:40Z</time>
					</trkpt>
					<trkpt lat="44.456410" lon="5.307760">
						<ele>941</ele>
						<time>2026-09-03T17:52:04Z</time>
					</trkpt>
					<trkpt lat="44.456410" lon="5.307680">
						<ele>942</ele>
						<time>2026-09-03T17:52:07Z</time>
					</trkpt>
					<trkpt lat="44.456510" lon="5.307440">
						<ele>945</ele>
						<time>2026-09-03T17:52:17Z</time>
					</trkpt>
					<trkpt lat="44.456520" lon="5.307300">
						<ele>947</ele>
						<time>2026-09-03T17:52:22Z</time>
					</trkpt>
					<trkpt lat="44.456210" lon="5.306530">
						<ele>970</ele>
						<time>2026-09-03T17:52:53Z</time>
					</trkpt>
					<trkpt lat="44.456210" lon="5.306280">
						<ele>978</ele>
						<time>2026-09-03T17:53:02Z</time>
					</trkpt>
					<trkpt lat="44.456290" lon="5.305980">
						<ele>985</ele>
						<time>2026-09-03T17:53:14Z</time>
					</trkpt>
					<trkpt lat="44.456250" lon="5.305760">
						<ele>994</ele>
						<time>2026-09-03T17:53:22Z</time>
					</trkpt>
					<trkpt lat="44.456180" lon="5.305710">
						<ele>998</ele>
						<time>2026-09-03T17:53:26Z</time>
					</trkpt>
					<trkpt lat="44.456130" lon="5.305710">
						<ele>1000</ele>
						<time>2026-09-03T17:53:28Z</time>
					</trkpt>
					<trkpt lat="44.456140" lon="5.305560">
						<ele>1006</ele>
						<time>2026-09-03T17:53:34Z</time>
					</trkpt>
					<trkpt lat="44.456190" lon="5.305520">
						<ele>1006</ele>
						<time>2026-09-03T17:53:37Z</time>
					</trkpt>
					<trkpt lat="44.456170" lon="5.305430">
						<ele>1011</ele>
						<time>2026-09-03T17:53:40Z</time>
					</trkpt>
					<trkpt lat="44.456240" lon="5.305330">
						<ele>1013</ele>
						<time>2026-09-03T17:53:45Z</time>
					</trkpt>
					<trkpt lat="44.456240" lon="5.305280">
						<ele>1015</ele>
						<time>2026-09-03T17:53:47Z</time>
					</trkpt>
					<trkpt lat="44.456060" lon="5.305290">
						<ele>1021</ele>
						<time>2026-09-03T17:53:56Z</time>
					</trkpt>
					<trkpt lat="44.455890" lon="5.305340">
						<ele>1025</ele>
						<time>2026-09-03T17:54:05Z</time>
					</trkpt>
					<trkpt lat="44.455850" lon="5.305280">
						<ele>1029</ele>
						<time>2026-09-03T17:54:07Z</time>
					</trkpt>
					<trkpt lat="44.455810" lon="5.305290">
						<ele>1030</ele>
						<time>2026-09-03T17:54:09Z</time>
					</trkpt>
					<trkpt lat="44.455800" lon="5.305250">
						<ele>1032</ele>
						<time>2026-09-03T17:54:11Z</time>
					</trkpt>
					<trkpt lat="44.455730" lon="5.305240">
						<ele>1036</ele>
						<time>2026-09-03T17:54:15Z</time>
					</trkpt>
					<trkpt lat="44.455680" lon="5.305200">
						<ele>1040</ele>
						<time>2026-09-03T17:54:17Z</time>
					</trkpt>
					<trkpt lat="44.455630" lon="5.305210">
						<ele>1041</ele>
						<time>2026-09-03T17:54:20Z</time>
					</trkpt>
					<trkpt lat="44.455510" lon="5.305180">
						<ele>1048</ele>
						<time>2026-09-03T17:54:26Z</time>
					</trkpt>
					<trkpt lat="44.455660" lon="5.304680">
						<ele>1062</ele>
						<time>2026-09-03T17:54:45Z</time>
					</trkpt>
					<trkpt lat="44.455760" lon="5.304480">
						<ele>1066</ele>
						<time>2026-09-03T17:54:54Z</time>
					</trkpt>
					<trkpt lat="44.455740" lon="5.304390">
						<ele>1070</ele>
						<time>2026-09-03T17:54:57Z</time>
					</trkpt>
					<trkpt lat="44.455400" lon="5.304320">
						<ele>1085</ele>
						<time>2026-09-03T17:55:15Z</time>
					</trkpt>
					<trkpt lat="44.455400" lon="5.304280">
						<ele>1086</ele>
						<time>2026-09-03T17:55:16Z</time>
					</trkpt>
					<trkpt lat="44.455740" lon="5.303600">
						<ele>1098</ele>
						<time>2026-09-03T17:55:46Z</time>
					</trkpt>
					<trkpt lat="44.455720" lon="5.303570">
						<ele>1099</ele>
						<time>2026-09-03T17:55:47Z</time>
					</trkpt>
					<trkpt lat="44.455630" lon="5.303590">
						<ele>1100</ele>
						<time>2026-09-03T17:55:52Z</time>
					</trkpt>
					<trkpt lat="44.455640" lon="5.303550">
						<ele>1101</ele>
						<time>2026-09-03T17:55:53Z</time>
					</trkpt>
					<trkpt lat="44.455780" lon="5.303440">
						<ele>1103</ele>
						<time>2026-09-03T17:56:01Z</time>
					</trkpt>
					<trkpt lat="44.455850" lon="5.303320">
						<ele>1106</ele>
						<time>2026-09-03T17:56:07Z</time>
					</trkpt>
					<trkpt lat="44.455800" lon="5.303160">
						<ele>1107</ele>
						<time>2026-09-03T17:56:13Z</time>
					</trkpt>
					<trkpt lat="44.455820" lon="5.303110">
						<ele>1107</ele>
						<time>2026-09-03T17:56:15Z</time>
					</trkpt>
					<trkpt lat="44.455930" lon="5.303080">
						<ele>1106</ele>
						<time>2026-09-03T17:56:21Z</time>
					</trkpt>
					<trkpt lat="44.456070" lon="5.303080">
						<ele>1105</ele>
						<time>2026-09-03T17:56:28Z</time>
					</trkpt>
					<trkpt lat="44.456120" lon="5.303030">
						<ele>1105</ele>
						<time>2026-09-03T17:56:31Z</time>
					</trkpt>
					<trkpt lat="44.456230" lon="5.303030">
						<ele>1104</ele>
						<time>2026-09-03T17:56:36Z</time>
					</trkpt>
					<trkpt lat="44.456480" lon="5.302920">
						<ele>1104</ele>
						<time>2026-09-03T17:56:49Z</time>
					</trkpt>
					<trkpt lat="44.456610" lon="5.302810">
						<ele>1106</ele>
						<time>2026-09-03T17:56:57Z</time>
					</trkpt>
					<trkpt lat="44.456720" lon="5.302600">
						<ele>1111</ele>
						<time>2026-09-03T17:57:06Z</time>
					</trkpt>
					<trkpt lat="44.456840" lon="5.302510">
						<ele>1112</ele>
						<time>2026-09-03T17:57:13Z</time>
					</trkpt>
					<trkpt lat="44.457110" lon="5.302200">
						<ele>1117</ele>
						<time>2026-09-03T17:57:31Z</time>
					</trkpt>
					<trkpt lat="44.457200" lon="5.302000">
						<ele>1122</ele>
						<time>2026-09-03T17:57:39Z</time>
					</trkpt>
					<trkpt lat="44.457300" lon="5.301900">
						<ele>1126</ele>
						<time>2026-09-03T17:57:45Z</time>
					</trkpt>
					<trkpt lat="44.457430" lon="5.301840">
						<ele>1129</ele>
						<time>2026-09-03T17:57:52Z</time>
					</trkpt>
					<trkpt lat="44.457500" lon="5.301720">
						<ele>1134</ele>
						<time>2026-09-03T17:57:58Z</time>
					</trkpt>
					<trkpt lat="44.457500" lon="5.301240">
						<ele>1145</ele>
						<time>2026-09-03T17:58:15Z</time>
					</trkpt>
					<trkpt lat="44.457540" lon="5.301120">
						<ele>1146</ele>
						<time>2026-09-03T17:58:19Z</time>
					</trkpt>
					<trkpt lat="44.457560" lon="5.300880">
						<ele>1151</ele>
						<time>2026-09-03T17:58:28Z</time>
					</trkpt>
					<trkpt lat="44.457610" lon="5.300750">
						<ele>1152</ele>
						<time>2026-09-03T17:58:33Z</time>
					</trkpt>
					<trkpt lat="44.458300" lon="5.300260">
						<ele>1163</ele>
						<time>2026-09-03T17:59:12Z</time>
					</trkpt>
					<trkpt lat="44.458530" lon="5.299990">
						<ele>1166</ele>
						<time>2026-09-03T17:59:27Z</time>
					</trkpt>
					<trkpt lat="44.458680" lon="5.299740">
						<ele>1162</ele>
						<time>2026-09-03T17:59:39Z</time>
					</trkpt>
					<trkpt lat="44.458770" lon="5.299480">
						<ele>1165</ele>
						<time>2026-09-03T17:59:49Z</time>
					</trkpt>
					<trkpt lat="44.458820" lon="5.299250">
						<ele>1170</ele>
						<time>2026-09-03T17:59:58Z</time>
					</trkpt>
					<trkpt lat="44.458920" lon="5.298300">
						<ele>1177</ele>
						<time>2026-09-03T18:00:32Z</time>
					</trkpt>
					<trkpt lat="44.459030" lon="5.297790">
						<ele>1184</ele>
						<time>2026-09-03T18:00:51Z</time>
					</trkpt>
					<trkpt lat="44.459300" lon="5.297110">
						<ele>1191</ele>
						<time>2026-09-03T18:01:19Z</time>
					</trkpt>
					<trkpt lat="44.459500" lon="5.296890">
						<ele>1190</ele>
						<time>2026-09-03T18:01:32Z</time>
					</trkpt>
					<trkpt lat="44.459570" lon="5.296760">
						<ele>1191</ele>
						<time>2026-09-03T18:01:37Z</time>
					</trkpt>
					<trkpt lat="44.459770" lon="5.296600">
						<ele>1191</ele>
						<time>2026-09-03T18:01:49Z</time>
					</trkpt>
					<trkpt lat="44.459880" lon="5.296390">
						<ele>1193</ele>
						<time>2026-09-03T18:01:58Z</time>
					</trkpt>
					<trkpt lat="44.459950" lon="5.296170">
						<ele>1197</ele>
						<time>2026-09-03T18:02:07Z</time>
					</trkpt>
					<trkpt lat="44.460060" lon="5.296030">
						<ele>1198</ele>
						<time>2026-09-03T18:02:14Z</time>
					</trkpt>
					<trkpt lat="44.460180" lon="5.295970">
						<ele>1196</ele>
						<time>2026-09-03T18:02:21Z</time>
					</trkpt>
					<trkpt lat="44.460670" lon="5.295390">
						<ele>1200</ele>
						<time>2026-09-03T18:02:53Z</time>
					</trkpt>
					<trkpt lat="44.460890" lon="5.295250">
						<ele>1201</ele>
						<time>2026-09-03T18:03:05Z</time>
					</trkpt>
					<trkpt lat="44.461010" lon="5.295230">
						<ele>1197</ele>
						<time>2026-09-03T18:03:11Z</time>
					</trkpt>
					<trkpt lat="44.461130" lon="5.295130">
						<ele>1195</ele>
						<time>2026-09-03T18:03:18Z</time>
					</trkpt>
					<trkpt lat="44.461240" lon="5.294940">
						<ele>1197</ele>
						<time>2026-09-03T18:03:27Z</time>
					</trkpt>
					<trkpt lat="44.461440" lon="5.294400">
						<ele>1205</ele>
						<time>2026-09-03T18:03:48Z</time>
					</trkpt>
					<trkpt lat="44.462560" lon="5.292960">
						<ele>1219</ele>
						<time>2026-09-03T18:05:04Z</time>
					</trkpt>
					<trkpt lat="44.462980" lon="5.292360">
						<ele>1222</ele>
						<time>2026-09-03T18:05:34Z</time>
					</trkpt>
					<trkpt lat="44.463510" lon="5.291450">
						<ele>1227</ele>
						<time>2026-09-03T18:06:16Z</time>
					</trkpt>
					<trkpt lat="44.464570" lon="5.289420">
						<ele>1226</ele>
						<time>2026-09-03T18:07:46Z</time>
					</trkpt>
					<trkpt lat="44.464900" lon="5.288440">
						<ele>1231</ele>
						<time>2026-09-03T18:08:25Z</time>
					</trkpt>
					<trkpt lat="44.465370" lon="5.286570">
						<ele>1250</ele>
						<time>2026-09-03T18:09:36Z</time>
					</trkpt>
					<trkpt lat="44.465260" lon="5.286190">
						<ele>1253</ele>
						<time>2026-09-03T18:09:50Z</time>
					</trkpt>
					<trkpt lat="44.465250" lon="5.285990">
						<ele>1255</ele>
						<time>2026-09-03T18:09:57Z</time>
					</trkpt>
					<trkpt lat="44.465310" lon="5.285370">
						<ele>1257</ele>
						<time>2026-09-03T18:10:20Z</time>
					</trkpt>
					<trkpt lat="44.465090" lon="5.284180">
						<ele>1249</ele>
						<time>2026-09-03T18:11:04Z</time>
					</trkpt>
					<trkpt lat="44.464800" lon="5.283790">
						<ele>1238</ele>
						<time>2026-09-03T18:11:24Z</time>
					</trkpt>
					<trkpt lat="44.464590" lon="5.283450">
						<ele>1230</ele>
						<time>2026-09-03T18:11:40Z</time>
					</trkpt>
					<trkpt lat="44.464550" lon="5.283250">
						<ele>1227</ele>
						<time>2026-09-03T18:11:47Z</time>
					</trkpt>
					<trkpt lat="44.464480" lon="5.283060">
						<ele>1224</ele>
						<time>2026-09-03T18:11:55Z</time>
					</trkpt>
					<trkpt lat="44.464210" lon="5.282560">
						<ele>1212</ele>
						<time>2026-09-03T18:12:17Z</time>
					</trkpt>
					<trkpt lat="44.464020" lon="5.282000">
						<ele>1198</ele>
						<time>2026-09-03T18:12:39Z</time>
					</trkpt>
					<trkpt lat="44.463590" lon="5.281480">
						<ele>1175</ele>
						<time>2026-09-03T18:13:08Z</time>
					</trkpt>
					<trkpt lat="44.463520" lon="5.281440">
						<ele>1171</ele>
						<time>2026-09-03T18:13:12Z</time>
					</trkpt>
					<trkpt lat="44.463340" lon="5.281440">
						<ele>1164</ele>
						<time>2026-09-03T18:13:21Z</time>
					</trkpt>
					<trkpt lat="44.463210" lon="5.281410">
						<ele>1159</ele>
						<time>2026-09-03T18:13:27Z</time>
					</trkpt>
					<trkpt lat="44.463070" lon="5.281290">
						<ele>1152</ele>
						<time>2026-09-03T18:13:36Z</time>
					</trkpt>
					<trkpt lat="44.462950" lon="5.281230">
						<ele>1146</ele>
						<time>2026-09-03T18:13:42Z</time>
					</trkpt>
					<trkpt lat="44.462790" lon="5.280880">
						<ele>1134</ele>
						<time>2026-09-03T18:13:57Z</time>
					</trkpt>
					<trkpt lat="44.462700" lon="5.280480">
						<ele>1123</ele>
						<time>2026-09-03T18:14:12Z</time>
					</trkpt>
					<trkpt lat="44.462690" lon="5.279810">
						<ele>1109</ele>
						<time>2026-09-03T18:14:36Z</time>
					</trkpt>
					<trkpt lat="44.462650" lon="5.279810">
						<ele>1108</ele>
						<time>2026-09-03T18:14:38Z</time>
					</trkpt>
					<trkpt lat="44.462330" lon="5.280070">
						<ele>1100</ele>
						<time>2026-09-03T18:14:56Z</time>
					</trkpt>
					<trkpt lat="44.462290" lon="5.280000">
						<ele>1097</ele>
						<time>2026-09-03T18:14:59Z</time>
					</trkpt>
					<trkpt lat="44.462260" lon="5.279560">
						<ele>1088</ele>
						<time>2026-09-03T18:15:15Z</time>
					</trkpt>
					<trkpt lat="44.462210" lon="5.279520">
						<ele>1085</ele>
						<time>2026-09-03T18:15:18Z</time>
					</trkpt>
					<trkpt lat="44.462010" lon="5.279500">
						<ele>1077</ele>
						<time>2026-09-03T18:15:28Z</time>
					</trkpt>
					<trkpt lat="44.461730" lon="5.279220">
						<ele>1060</ele>
						<time>2026-09-03T18:15:45Z</time>
					</trkpt>
					<trkpt lat="44.461640" lon="5.279060">
						<ele>1055</ele>
						<time>2026-09-03T18:15:53Z</time>
					</trkpt>
					<trkpt lat="44.461620" lon="5.278820">
						<ele>1054</ele>
						<time>2026-09-03T18:16:01Z</time>
					</trkpt>
					<trkpt lat="44.461600" lon="5.278790">
						<ele>1053</ele>
						<time>2026-09-03T18:16:03Z</time>
					</trkpt>
					<trkpt lat="44.461560" lon="5.278800">
						<ele>1051</ele>
						<time>2026-09-03T18:16:05Z</time>
					</trkpt>
					<trkpt lat="44.461170" lon="5.279240">
						<ele>1036</ele>
						<time>2026-09-03T18:16:30Z</time>
					</trkpt>
					<trkpt lat="44.461120" lon="5.279260">
						<ele>1034</ele>
						<time>2026-09-03T18:16:32Z</time>
					</trkpt>
					<trkpt lat="44.461030" lon="5.279230">
						<ele>1029</ele>
						<time>2026-09-03T18:16:37Z</time>
					</trkpt>
					<trkpt lat="44.460750" lon="5.278540">
						<ele>1014</ele>
						<time>2026-09-03T18:17:05Z</time>
					</trkpt>
					<trkpt lat="44.460700" lon="5.278360">
						<ele>1011</ele>
						<time>2026-09-03T18:17:12Z</time>
					</trkpt>
					<trkpt lat="44.460670" lon="5.277850">
						<ele>1009</ele>
						<time>2026-09-03T18:17:31Z</time>
					</trkpt>
					<trkpt lat="44.460640" lon="5.277800">
						<ele>1008</ele>
						<time>2026-09-03T18:17:33Z</time>
					</trkpt>
					<trkpt lat="44.460430" lon="5.277740">
						<ele>999</ele>
						<time>2026-09-03T18:17:44Z</time>
					</trkpt>
					<trkpt lat="44.460370" lon="5.277670">
						<ele>996</ele>
						<time>2026-09-03T18:17:47Z</time>
					</trkpt>
					<trkpt lat="44.460210" lon="5.277050">
						<ele>987</ele>
						<time>2026-09-03T18:18:11Z</time>
					</trkpt>
					<trkpt lat="44.460090" lon="5.276450">
						<ele>978</ele>
						<time>2026-09-03T18:18:33Z</time>
					</trkpt>
					<trkpt lat="44.460070" lon="5.276170">
						<ele>976</ele>
						<time>2026-09-03T18:18:43Z</time>
					</trkpt>
					<trkpt lat="44.459890" lon="5.275340">
						<ele>968</ele>
						<time>2026-09-03T18:19:14Z</time>
					</trkpt>
					<trkpt lat="44.459840" lon="5.274930">
						<ele>965</ele>
						<time>2026-09-03T18:19:29Z</time>
					</trkpt>
					<trkpt lat="44.459880" lon="5.274390">
						<ele>962</ele>
						<time>2026-09-03T18:19:49Z</time>
					</trkpt>
					<trkpt lat="44.459850" lon="5.274170">
						<ele>959</ele>
						<time>2026-09-03T18:19:57Z</time>
					</trkpt>
					<trkpt lat="44.459740" lon="5.273800">
						<ele>949</ele>
						<time>2026-09-03T18:20:11Z</time>
					</trkpt>
					<trkpt lat="44.459720" lon="5.273330">
						<ele>941</ele>
						<time>2026-09-03T18:20:28Z</time>
					</trkpt>
					<trkpt lat="44.459770" lon="5.272700">
						<ele>932</ele>
						<time>2026-09-03T18:20:50Z</time>
					</trkpt>
					<trkpt lat="44.459870" lon="5.272420">
						<ele>932</ele>
						<time>2026-09-03T18:21:02Z</time>
					</trkpt>
					<trkpt lat="44.459860" lon="5.272360">
						<ele>932</ele>
						<time>2026-09-03T18:21:04Z</time>
					</trkpt>
					<trkpt lat="44.459410" lon="5.271710">
						<ele>910</ele>
						<time>2026-09-03T18:21:36Z</time>
					</trkpt>
					<trkpt lat="44.459330" lon="5.271470">
						<ele>907</ele>
						<time>2026-09-03T18:21:46Z</time>
					</trkpt>
					<trkpt lat="44.459060" lon="5.270960">
						<ele>898</ele>
						<time>2026-09-03T18:22:08Z</time>
					</trkpt>
					<trkpt lat="44.459010" lon="5.270730">
						<ele>897</ele>
						<time>2026-09-03T18:22:17Z</time>
					</trkpt>
					<trkpt lat="44.458960" lon="5.270660">
						<ele>896</ele>
						<time>2026-09-03T18:22:20Z</time>
					</trkpt>
					<trkpt lat="44.458660" lon="5.270440">
						<ele>886</ele>
						<time>2026-09-03T18:22:37Z</time>
					</trkpt>
					<trkpt lat="44.458550" lon="5.270250">
						<ele>885</ele>
						<time>2026-09-03T18:22:46Z</time>
					</trkpt>
					<trkpt lat="44.458420" lon="5.269910">
						<ele>885</ele>
						<time>2026-09-03T18:23:00Z</time>
					</trkpt>
					<trkpt lat="44.458330" lon="5.269750">
						<ele>883</ele>
						<time>2026-09-03T18:23:07Z</time>
					</trkpt>
					<trkpt lat="44.458000" lon="5.269380">
						<ele>876</ele>
						<time>2026-09-03T18:23:28Z</time>
					</trkpt>
					<trkpt lat="44.457420" lon="5.268480">
						<ele>866</ele>
						<time>2026-09-03T18:24:12Z</time>
					</trkpt>
					<trkpt lat="44.457100" lon="5.268200">
						<ele>858</ele>
						<time>2026-09-03T18:24:30Z</time>
					</trkpt>
					<trkpt lat="44.456860" lon="5.267750">
						<ele>852</ele>
						<time>2026-09-03T18:24:50Z</time>
					</trkpt>
					<trkpt lat="44.456650" lon="5.267430">
						<ele>847</ele>
						<time>2026-09-03T18:25:06Z</time>
					</trkpt>
					<trkpt lat="44.456510" lon="5.267260">
						<ele>843</ele>
						<time>2026-09-03T18:25:15Z</time>
					</trkpt>
					<trkpt lat="44.456190" lon="5.267050">
						<ele>834</ele>
						<time>2026-09-03T18:25:33Z</time>
					</trkpt>
					<trkpt lat="44.456040" lon="5.266910">
						<ele>830</ele>
						<time>2026-09-03T18:25:42Z</time>
					</trkpt>
					<trkpt lat="44.455840" lon="5.266560">
						<ele>823</ele>
						<time>2026-09-03T18:25:58Z</time>
					</trkpt>
					<trkpt lat="44.455690" lon="5.266160">
						<ele>812</ele>
						<time>2026-09-03T18:26:14Z</time>
					</trkpt>
					<trkpt lat="44.455660" lon="5.266050">
						<ele>810</ele>
						<time>2026-09-03T18:26:18Z</time>
					</trkpt>
					<trkpt lat="44.455660" lon="5.265930">
						<ele>808</ele>
						<time>2026-09-03T18:26:23Z</time>
					</trkpt>
					<trkpt lat="44.455770" lon="5.265570">
						<ele>808</ele>
						<time>2026-09-03T18:26:37Z</time>
					</trkpt>
					<trkpt lat="44.456010" lon="5.265250">
						<ele>813</ele>
						<time>2026-09-03T18:26:53Z</time>
					</trkpt>
					<trkpt lat="44.456050" lon="5.265160">
						<ele>814</ele>
						<time>2026-09-03T18:26:57Z</time>
					</trkpt>
					<trkpt lat="44.456040" lon="5.263760">
						<ele>798</ele>
						<time>2026-09-03T18:27:47Z</time>
					</trkpt>
					<trkpt lat="44.456140" lon="5.263430">
						<ele>799</ele>
						<time>2026-09-03T18:28:00Z</time>
					</trkpt>
					<trkpt lat="44.456130" lon="5.263250">
						<ele>797</ele>
						<time>2026-09-03T18:28:06Z</time>
					</trkpt>
					<trkpt lat="44.456090" lon="5.263190">
						<ele>795</ele>
						<time>2026-09-03T18:28:09Z</time>
					</trkpt>
					<trkpt lat="44.456030" lon="5.262930">
						<ele>791</ele>
						<time>2026-09-03T18:28:19Z</time>
					</trkpt>
					<trkpt lat="44.456100" lon="5.262490">
						<ele>791</ele>
						<time>2026-09-03T18:28:35Z</time>
					</trkpt>
					<trkpt lat="44.456050" lon="5.262330">
						<ele>788</ele>
						<time>2026-09-03T18:28:41Z</time>
					</trkpt>
					<trkpt lat="44.455330" lon="5.261890">
						<ele>765</ele>
						<time>2026-09-03T18:29:21Z</time>
					</trkpt>
					<trkpt lat="44.455280" lon="5.261810">
						<ele>763</ele>
						<time>2026-09-03T18:29:24Z</time>
					</trkpt>
					<trkpt lat="44.455180" lon="5.261140">
						<ele>760</ele>
						<time>2026-09-03T18:29:49Z</time>
					</trkpt>
					<trkpt lat="44.454940" lon="5.260820">
						<ele>757</ele>
						<time>2026-09-03T18:30:05Z</time>
					</trkpt>
					<trkpt lat="44.454830" lon="5.260630">
						<ele>754</ele>
						<time>2026-09-03T18:30:14Z</time>
					</trkpt>
					<trkpt lat="44.454570" lon="5.260820">
						<ele>756</ele>
						<time>2026-09-03T18:30:29Z</time>
					</trkpt>
					<trkpt lat="44.454340" lon="5.260780">
						<ele>756</ele>
						<time>2026-09-03T18:30:40Z</time>
					</trkpt>
					<trkpt lat="44.454330" lon="5.260870">
						<ele>756</ele>
						<time>2026-09-03T18:30:44Z</time>
					</trkpt>
					<trkpt lat="44.454180" lon="5.261160">
						<ele>752</ele>
						<time>2026-09-03T18:30:56Z</time>
					</trkpt>
					<trkpt lat="44.454100" lon="5.261370">
						<ele>750</ele>
						<time>2026-09-03T18:31:05Z</time>
					</trkpt>
					<trkpt lat="44.454020" lon="5.261430">
						<ele>751</ele>
						<time>2026-09-03T18:31:10Z</time>
					</trkpt>
					<trkpt lat="44.454010" lon="5.261600">
						<ele>749</ele>
						<time>2026-09-03T18:31:16Z</time>
					</trkpt>
					<trkpt lat="44.453860" lon="5.261710">
						<ele>749</ele>
						<time>2026-09-03T18:31:24Z</time>
					</trkpt>
					<trkpt lat="44.453800" lon="5.261830">
						<ele>747</ele>
						<time>2026-09-03T18:31:29Z</time>
					</trkpt>
					<trkpt lat="44.453500" lon="5.262230">
						<ele>738</ele>
						<time>2026-09-03T18:31:50Z</time>
					</trkpt>
					<trkpt lat="44.453350" lon="5.262510">
						<ele>730</ele>
						<time>2026-09-03T18:32:03Z</time>
					</trkpt>
					<trkpt lat="44.453160" lon="5.262720">
						<ele>727</ele>
						<time>2026-09-03T18:32:15Z</time>
					</trkpt>
					<trkpt lat="44.452970" lon="5.262860">
						<ele>726</ele>
						<time>2026-09-03T18:32:25Z</time>
					</trkpt>
					<trkpt lat="44.452920" lon="5.262860">
						<ele>727</ele>
						<time>2026-09-03T18:32:28Z</time>
					</trkpt>
					<trkpt lat="44.452630" lon="5.263060">
						<ele>725</ele>
						<time>2026-09-03T18:32:44Z</time>
					</trkpt>
					<trkpt lat="44.452540" lon="5.263190">
						<ele>721</ele>
						<time>2026-09-03T18:32:51Z</time>
					</trkpt>
					<trkpt lat="44.452150" lon="5.263460">
						<ele>720</ele>
						<time>2026-09-03T18:33:12Z</time>
					</trkpt>
					<trkpt lat="44.452090" lon="5.263550">
						<ele>718</ele>
						<time>2026-09-03T18:33:17Z</time>
					</trkpt>
					<trkpt lat="44.452040" lon="5.263570">
						<ele>718</ele>
						<time>2026-09-03T18:33:19Z</time>
					</trkpt>
					<trkpt lat="44.451780" lon="5.263980">
						<ele>706</ele>
						<time>2026-09-03T18:33:39Z</time>
					</trkpt>
					<trkpt lat="44.451750" lon="5.264070">
						<ele>702</ele>
						<time>2026-09-03T18:33:42Z</time>
					</trkpt>
					<trkpt lat="44.451650" lon="5.264160">
						<ele>700</ele>
						<time>2026-09-03T18:33:48Z</time>
					</trkpt>
					<trkpt lat="44.451530" lon="5.264240">
						<ele>701</ele>
						<time>2026-09-03T18:33:55Z</time>
					</trkpt>
					<trkpt lat="44.451420" lon="5.264230">
						<ele>704</ele>
						<time>2026-09-03T18:34:01Z</time>
					</trkpt>
					<trkpt lat="44.451330" lon="5.264260">
						<ele>706</ele>
						<time>2026-09-03T18:34:05Z</time>
					</trkpt>
					<trkpt lat="44.451290" lon="5.264210">
						<ele>708</ele>
						<time>2026-09-03T18:34:08Z</time>
					</trkpt>
					<trkpt lat="44.451250" lon="5.264200">
						<ele>710</ele>
						<time>2026-09-03T18:34:10Z</time>
					</trkpt>
					<trkpt lat="44.451180" lon="5.264360">
						<ele>708</ele>
						<time>2026-09-03T18:34:17Z</time>
					</trkpt>
					<trkpt lat="44.451130" lon="5.264410">
						<ele>708</ele>
						<time>2026-09-03T18:34:20Z</time>
					</trkpt>
					<trkpt lat="44.451080" lon="5.264720">
						<ele>704</ele>
						<time>2026-09-03T18:34:31Z</time>
					</trkpt>
					<trkpt lat="44.451160" lon="5.264910">
						<ele>696</ele>
						<time>2026-09-03T18:34:39Z</time>
					</trkpt>
					<trkpt lat="44.451180" lon="5.265120">
						<ele>691</ele>
						<time>2026-09-03T18:34:46Z</time>
					</trkpt>
					<trkpt lat="44.451150" lon="5.265360">
						<ele>687</ele>
						<time>2026-09-03T18:34:55Z</time>
					</trkpt>
					<trkpt lat="44.451100" lon="5.265530">
						<ele>685</ele>
						<time>2026-09-03T18:35:02Z</time>
					</trkpt>
					<trkpt lat="44.451060" lon="5.266070">
						<ele>675</ele>
						<time>2026-09-03T18:35:21Z</time>
					</trkpt>
					<trkpt lat="44.450920" lon="5.266430">
						<ele>669</ele>
						<time>2026-09-03T18:35:36Z</time>
					</trkpt>
					<trkpt lat="44.450720" lon="5.266820">
						<ele>668</ele>
						<time>2026-09-03T18:35:53Z</time>
					</trkpt>
					<trkpt lat="44.450620" lon="5.267350">
						<ele>661</ele>
						<time>2026-09-03T18:36:13Z</time>
					</trkpt>
					<trkpt lat="44.450580" lon="5.267830">
						<ele>653</ele>
						<time>2026-09-03T18:36:30Z</time>
					</trkpt>
					<trkpt lat="44.450510" lon="5.268020">
						<ele>652</ele>
						<time>2026-09-03T18:36:37Z</time>
					</trkpt>
					<trkpt lat="44.450450" lon="5.268110">
						<ele>652</ele>
						<time>2026-09-03T18:36:42Z</time>
					</trkpt>
					<trkpt lat="44.450090" lon="5.268400">
						<ele>657</ele>
						<time>2026-09-03T18:37:03Z</time>
					</trkpt>
					<trkpt lat="44.449980" lon="5.268550">
						<ele>658</ele>
						<time>2026-09-03T18:37:10Z</time>
					</trkpt>
					<trkpt lat="44.449990" lon="5.268870">
						<ele>653</ele>
						<time>2026-09-03T18:37:22Z</time>
					</trkpt>
					<trkpt lat="44.450160" lon="5.269480">
						<ele>641</ele>
						<time>2026-09-03T18:37:45Z</time>
					</trkpt>
					<trkpt lat="44.450210" lon="5.270300">
						<ele>632</ele>
						<time>2026-09-03T18:38:15Z</time>
					</trkpt>
					<trkpt lat="44.450190" lon="5.270870">
						<ele>628</ele>
						<time>2026-09-03T18:38:35Z</time>
					</trkpt>
					<trkpt lat="44.450090" lon="5.271350">
						<ele>624</ele>
						<time>2026-09-03T18:38:53Z</time>
					</trkpt>
					<trkpt lat="44.449960" lon="5.271560">
						<ele>625</ele>
						<time>2026-09-03T18:39:03Z</time>
					</trkpt>
					<trkpt lat="44.449840" lon="5.271910">
						<ele>623</ele>
						<time>2026-09-03T18:39:17Z</time>
					</trkpt>
					<trkpt lat="44.449620" lon="5.272950">
						<ele>610</ele>
						<time>2026-09-03T18:39:55Z</time>
					</trkpt>
					<trkpt lat="44.449540" lon="5.273200">
						<ele>606</ele>
						<time>2026-09-03T18:40:05Z</time>
					</trkpt>
					<trkpt lat="44.449430" lon="5.273370">
						<ele>604</ele>
						<time>2026-09-03T18:40:13Z</time>
					</trkpt>
					<trkpt lat="44.448940" lon="5.273760">
						<ele>603</ele>
						<time>2026-09-03T18:40:42Z</time>
					</trkpt>
					<trkpt lat="44.448910" lon="5.274160">
						<ele>595</ele>
						<time>2026-09-03T18:40:56Z</time>
					</trkpt>
					<trkpt lat="44.448840" lon="5.274440">
						<ele>591</ele>
						<time>2026-09-03T18:41:06Z</time>
					</trkpt>
					<trkpt lat="44.448160" lon="5.276440">
						<ele>560</ele>
						<time>2026-09-03T18:42:26Z</time>
					</trkpt>
					<trkpt lat="44.448020" lon="5.276640">
						<ele>558</ele>
						<time>2026-09-03T18:42:36Z</time>
					</trkpt>
					<trkpt lat="44.447700" lon="5.276950">
						<ele>554</ele>
						<time>2026-09-03T18:42:55Z</time>
					</trkpt>
					<trkpt lat="44.447620" lon="5.277140">
						<ele>550</ele>
						<time>2026-09-03T18:43:03Z</time>
					</trkpt>
					<trkpt lat="44.447460" lon="5.277750">
						<ele>537</ele>
						<time>2026-09-03T18:43:26Z</time>
					</trkpt>
					<trkpt lat="44.447240" lon="5.278330">
						<ele>527</ele>
						<time>2026-09-03T18:43:50Z</time>
					</trkpt>
					<trkpt lat="44.447060" lon="5.278620">
						<ele>523</ele>
						<time>2026-09-03T18:44:03Z</time>
					</trkpt>
					<trkpt lat="44.446710" lon="5.279340">
						<ele>510</ele>
						<time>2026-09-03T18:44:35Z</time>
					</trkpt>
					<trkpt lat="44.446570" lon="5.279480">
						<ele>507</ele>
						<time>2026-09-03T18:44:43Z</time>
					</trkpt>
					<trkpt lat="44.446550" lon="5.279550">
						<ele>506</ele>
						<time>2026-09-03T18:44:46Z</time>
					</trkpt>
					<trkpt lat="44.446060" lon="5.279840">
						<ele>498</ele>
						<time>2026-09-03T18:45:12Z</time>
					</trkpt>
					<trkpt lat="44.446030" lon="5.280030">
						<ele>494</ele>
						<time>2026-09-03T18:45:19Z</time>
					</trkpt>
					<trkpt lat="44.445740" lon="5.280530">
						<ele>483</ele>
						<time>2026-09-03T18:45:42Z</time>
					</trkpt>
					<trkpt lat="44.445740" lon="5.280570">
						<ele>482</ele>
						<time>2026-09-03T18:45:44Z</time>
					</trkpt>
					<trkpt lat="44.445770" lon="5.280600">
						<ele>482</ele>
						<time>2026-09-03T18:45:46Z</time>
					</trkpt>
					<trkpt lat="44.445880" lon="5.280600">
						<ele>483</ele>
						<time>2026-09-03T18:45:51Z</time>
					</trkpt>
					<trkpt lat="44.445900" lon="5.280620">
						<ele>482</ele>
						<time>2026-09-03T18:45:52Z</time>
					</trkpt>
					<trkpt lat="44.445900" lon="5.280670">
						<ele>481</ele>
						<time>2026-09-03T18:45:54Z</time>
					</trkpt>
					<trkpt lat="44.445830" lon="5.280810">
						<ele>478</ele>
						<time>2026-09-03T18:46:00Z</time>
					</trkpt>
					<trkpt lat="44.445800" lon="5.280850">
						<ele>478</ele>
						<time>2026-09-03T18:46:02Z</time>
					</trkpt>
					<trkpt lat="44.445740" lon="5.280870">
						<ele>477</ele>
						<time>2026-09-03T18:46:05Z</time>
					</trkpt>
					<trkpt lat="44.445720" lon="5.280840">
						<ele>477</ele>
						<time>2026-09-03T18:46:07Z</time>
					</trkpt>
					<trkpt lat="44.445600" lon="5.280900">
						<ele>476</ele>
						<time>2026-09-03T18:46:13Z</time>
					</trkpt>
					<trkpt lat="44.445380" lon="5.281220">
						<ele>473</ele>
						<time>2026-09-03T18:46:29Z</time>
					</trkpt>
					<trkpt lat="44.445180" lon="5.281370">
						<ele>471</ele>
						<time>2026-09-03T18:46:41Z</time>
					</trkpt>
					<trkpt lat="44.445150" lon="5.281370">
						<ele>470</ele>
						<time>2026-09-03T18:46:42Z</time>
					</trkpt>
					<trkpt lat="44.445100" lon="5.281630">
						<ele>469</ele>
						<time>2026-09-03T18:46:52Z</time>
					</trkpt>
					<trkpt lat="44.444760" lon="5.281830">
						<ele>468</ele>
						<time>2026-09-03T18:47:10Z</time>
					</trkpt>
					<trkpt lat="44.444680" lon="5.281990">
						<ele>469</ele>
						<time>2026-09-03T18:47:17Z</time>
					</trkpt>
					<trkpt lat="44.444500" lon="5.282440">
						<ele>470</ele>
						<time>2026-09-03T18:47:36Z</time>
					</trkpt>
					<trkpt lat="44.444230" lon="5.283360">
						<ele>478</ele>
						<time>2026-09-03T18:48:11Z</time>
					</trkpt>
					<trkpt lat="44.444010" lon="5.284330">
						<ele>482</ele>
						<time>2026-09-03T18:48:47Z</time>
					</trkpt>
					<trkpt lat="44.443960" lon="5.284890">
						<ele>483</ele>
						<time>2026-09-03T18:49:08Z</time>
					</trkpt>
					<trkpt lat="44.443800" lon="5.285350">
						<ele>482</ele>
						<time>2026-09-03T18:49:26Z</time>
					</trkpt>
					<trkpt lat="44.443530" lon="5.285660">
						<ele>478</ele>
						<time>2026-09-03T18:49:43Z</time>
					</trkpt>
					<trkpt lat="44.443350" lon="5.285820">
						<ele>474</ele>
						<time>2026-09-03T18:49:54Z</time>
					</trkpt>
					<trkpt lat="44.443290" lon="5.285830">
						<ele>474</ele>
						<time>2026-09-03T18:49:57Z</time>
					</trkpt>
					<trkpt lat="44.443260" lon="5.285930">
						<ele>474</ele>
						<time>2026-09-03T18:50:01Z</time>
					</trkpt>
					<trkpt lat="44.443180" lon="5.285990">
						<ele>474</ele>
						<time>2026-09-03T18:50:05Z</time>
					</trkpt>
					<trkpt lat="44.443170" lon="5.286060">
						<ele>475</ele>
						<time>2026-09-03T18:50:08Z</time>
					</trkpt>
					<trkpt lat="44.443100" lon="5.286110">
						<ele>475</ele>
						<time>2026-09-03T18:50:12Z</time>
					</trkpt>
					<trkpt lat="44.442760" lon="5.286090">
						<ele>473</ele>
						<time>2026-09-03T18:50:29Z</time>
					</trkpt>
					<trkpt lat="44.442180" lon="5.286450">
						<ele>478</ele>
						<time>2026-09-03T18:51:01Z</time>
					</trkpt>
					<trkpt lat="44.441980" lon="5.286530">
						<ele>478</ele>
						<time>2026-09-03T18:51:11Z</time>
					</trkpt>
					<trkpt lat="44.441950" lon="5.286500">
						<ele>478</ele>
						<time>2026-09-03T18:51:13Z</time>
					</trkpt>
					<trkpt lat="44.441870" lon="5.286500">
						<ele>477</ele>
						<time>2026-09-03T18:51:17Z</time>
					</trkpt>
					<trkpt lat="44.441400" lon="5.286780">
						<ele>476</ele>
						<time>2026-09-03T18:51:43Z</time>
					</trkpt>
					<trkpt lat="44.441240" lon="5.286690">
						<ele>472</ele>
						<time>2026-09-03T18:51:51Z</time>
					</trkpt>
					<trkpt lat="44.440720" lon="5.286520">
						<ele>461</ele>
						<time>2026-09-03T18:52:18Z</time>
					</trkpt>
					<trkpt lat="44.440640" lon="5.286510">
						<ele>460</ele>
						<time>2026-09-03T18:52:22Z</time>
					</trkpt>
					<trkpt lat="44.440360" lon="5.286550">
						<ele>457</ele>
						<time>2026-09-03T18:52:36Z</time>
					</trkpt>
					<trkpt lat="44.440230" lon="5.286530">
						<ele>456</ele>
						<time>2026-09-03T18:52:43Z</time>
					</trkpt>
					<trkpt lat="44.439890" lon="5.286240">
						<ele>449</ele>
						<time>2026-09-03T18:53:02Z</time>
					</trkpt>
					<trkpt lat="44.439760" lon="5.286180">
						<ele>447</ele>
						<time>2026-09-03T18:53:09Z</time>
					</trkpt>
					<trkpt lat="44.439610" lon="5.286160">
						<ele>446</ele>
						<time>2026-09-03T18:53:17Z</time>
					</trkpt>
					<trkpt lat="44.439420" lon="5.286250">
						<ele>445</ele>
						<time>2026-09-03T18:53:27Z</time>
					</trkpt>
					<trkpt lat="44.438910" lon="5.286690">
						<ele>448</ele>
						<time>2026-09-03T18:53:57Z</time>
					</trkpt>
					<trkpt lat="44.438780" lon="5.286700">
						<ele>447</ele>
						<time>2026-09-03T18:54:03Z</time>
					</trkpt>
					<trkpt lat="44.438750" lon="5.286650">
						<ele>447</ele>
						<time>2026-09-03T18:54:06Z</time>
					</trkpt>
					<trkpt lat="44.438750" lon="5.286580">
						<ele>446</ele>
						<time>2026-09-03T18:54:08Z</time>
					</trkpt>
					<trkpt lat="44.438840" lon="5.286410">
						<ele>444</ele>
						<time>2026-09-03T18:54:16Z</time>
					</trkpt>
					<trkpt lat="44.439850" lon="5.285470">
						<ele>439</ele>
						<time>2026-09-03T18:55:16Z</time>
					</trkpt>
					<trkpt lat="44.439870" lon="5.285400">
						<ele>439</ele>
						<time>2026-09-03T18:55:19Z</time>
					</trkpt>
					<trkpt lat="44.439840" lon="5.285370">
						<ele>438</ele>
						<time>2026-09-03T18:55:21Z</time>
					</trkpt>
					<trkpt lat="44.439320" lon="5.285500">
						<ele>438</ele>
						<time>2026-09-03T18:55:47Z</time>
					</trkpt>
					<trkpt lat="44.438960" lon="5.285630">
						<ele>436</ele>
						<time>2026-09-03T18:56:06Z</time>
					</trkpt>
					<trkpt lat="44.438930" lon="5.285610">
						<ele>436</ele>
						<time>2026-09-03T18:56:08Z</time>
					</trkpt>
					<trkpt lat="44.438920" lon="5.285560">
						<ele>436</ele>
						<time>2026-09-03T18:56:10Z</time>
					</trkpt>
					<trkpt lat="44.438980" lon="5.285390">
						<ele>437</ele>
						<time>2026-09-03T18:56:16Z</time>
					</trkpt>
					<trkpt lat="44.438970" lon="5.285330">
						<ele>437</ele>
						<time>2026-09-03T18:56:19Z</time>
					</trkpt>
					<trkpt lat="44.438900" lon="5.285300">
						<ele>437</ele>
						<time>2026-09-03T18:56:22Z</time>
					</trkpt>
					<trkpt lat="44.438530" lon="5.285250">
						<ele>438</ele>
						<time>2026-09-03T18:56:41Z</time>
					</trkpt>
					<trkpt lat="44.438170" lon="5.285310">
						<ele>435</ele>
						<time>2026-09-03T18:56:59Z</time>
					</trkpt>
					<trkpt lat="44.437620" lon="5.285570">
						<ele>427</ele>
						<time>2026-09-03T18:57:28Z</time>
					</trkpt>
					<trkpt lat="44.437490" lon="5.285580">
						<ele>426</ele>
						<time>2026-09-03T18:57:34Z</time>
					</trkpt>
					<trkpt lat="44.437380" lon="5.285480">
						<ele>426</ele>
						<time>2026-09-03T18:57:41Z</time>
					</trkpt>
					<trkpt lat="44.437370" lon="5.285230">
						<ele>429</ele>
						<time>2026-09-03T18:57:50Z</time>
					</trkpt>
					<trkpt lat="44.437560" lon="5.284400">
						<ele>440</ele>
						<time>2026-09-03T18:58:21Z</time>
					</trkpt>
					<trkpt lat="44.437560" lon="5.284010">
						<ele>444</ele>
						<time>2026-09-03T18:58:35Z</time>
					</trkpt>
					<trkpt lat="44.437580" lon="5.283920">
						<ele>446</ele>
						<time>2026-09-03T18:58:38Z</time>
					</trkpt>
					<trkpt lat="44.437610" lon="5.283890">
						<ele>446</ele>
						<time>2026-09-03T18:58:40Z</time>
					</trkpt>
					<trkpt lat="44.437660" lon="5.283900">
						<ele>447</ele>
						<time>2026-09-03T18:58:43Z</time>
					</trkpt>
					<trkpt lat="44.437680" lon="5.284040">
						<ele>446</ele>
						<time>2026-09-03T18:58:48Z</time>
					</trkpt>
					<trkpt lat="44.437670" lon="5.284650">
						<ele>439</ele>
						<time>2026-09-03T18:59:10Z</time>
					</trkpt>
					<trkpt lat="44.437630" lon="5.285070">
						<ele>433</ele>
						<time>2026-09-03T18:59:25Z</time>
					</trkpt>
					<trkpt lat="44.437660" lon="5.285150">
						<ele>433</ele>
						<time>2026-09-03T18:59:28Z</time>
					</trkpt>
					<trkpt lat="44.437700" lon="5.285170">
						<ele>433</ele>
						<time>2026-09-03T18:59:30Z</time>
					</trkpt>
					<trkpt lat="44.438000" lon="5.285000">
						<ele>438</ele>
						<time>2026-09-03T18:59:46Z</time>
					</trkpt>
					<trkpt lat="44.438750" lon="5.284410">
						<ele>451</ele>
						<time>2026-09-03T19:00:29Z</time>
					</trkpt>
					<trkpt lat="44.439330" lon="5.284300">
						<ele>451</ele>
						<time>2026-09-03T19:00:59Z</time>
					</trkpt>
					<trkpt lat="44.439400" lon="5.284200">
						<ele>453</ele>
						<time>2026-09-03T19:01:04Z</time>
					</trkpt>
					<trkpt lat="44.439440" lon="5.284090">
						<ele>454</ele>
						<time>2026-09-03T19:01:08Z</time>
					</trkpt>
					<trkpt lat="44.439460" lon="5.283940">
						<ele>456</ele>
						<time>2026-09-03T19:01:14Z</time>
					</trkpt>
					<trkpt lat="44.439390" lon="5.283510">
						<ele>462</ele>
						<time>2026-09-03T19:01:29Z</time>
					</trkpt>
					<trkpt lat="44.439430" lon="5.282820">
						<ele>468</ele>
						<time>2026-09-03T19:01:54Z</time>
					</trkpt>
					<trkpt lat="44.439370" lon="5.281680">
						<ele>475</ele>
						<time>2026-09-03T19:02:35Z</time>
					</trkpt>
					<trkpt lat="44.439410" lon="5.281030">
						<ele>479</ele>
						<time>2026-09-03T19:02:58Z</time>
					</trkpt>
					<trkpt lat="44.439330" lon="5.280590">
						<ele>483</ele>
						<time>2026-09-03T19:03:14Z</time>
					</trkpt>
					<trkpt lat="44.438970" lon="5.279310">
						<ele>497</ele>
						<time>2026-09-03T19:04:04Z</time>
					</trkpt>
					<trkpt lat="44.438970" lon="5.279170">
						<ele>499</ele>
						<time>2026-09-03T19:04:09Z</time>
					</trkpt>
					<trkpt lat="44.439010" lon="5.279070">
						<ele>501</ele>
						<time>2026-09-03T19:04:13Z</time>
					</trkpt>
					<trkpt lat="44.439300" lon="5.278780">
						<ele>504</ele>
						<time>2026-09-03T19:04:31Z</time>
					</trkpt>
					<trkpt lat="44.439480" lon="5.278310">
						<ele>509</ele>
						<time>2026-09-03T19:04:50Z</time>
					</trkpt>
					<trkpt lat="44.439490" lon="5.278090">
						<ele>511</ele>
						<time>2026-09-03T19:04:57Z</time>
					</trkpt>
					<trkpt lat="44.439410" lon="5.277990">
						<ele>513</ele>
						<time>2026-09-03T19:05:03Z</time>
					</trkpt>
					<trkpt lat="44.439130" lon="5.277930">
						<ele>516</ele>
						<time>2026-09-03T19:05:17Z</time>
					</trkpt>
					<trkpt lat="44.439010" lon="5.277860">
						<ele>516</ele>
						<time>2026-09-03T19:05:24Z</time>
					</trkpt>
					<trkpt lat="44.438540" lon="5.277370">
						<ele>517</ele>
						<time>2026-09-03T19:05:53Z</time>
					</trkpt>
					<trkpt lat="44.438490" lon="5.277250">
						<ele>519</ele>
						<time>2026-09-03T19:05:58Z</time>
					</trkpt>
					<trkpt lat="44.438390" lon="5.277130">
						<ele>520</ele>
						<time>2026-09-03T19:06:04Z</time>
					</trkpt>
					<trkpt lat="44.438180" lon="5.276970">
						<ele>521</ele>
						<time>2026-09-03T19:06:16Z</time>
					</trkpt>
					<trkpt lat="44.438110" lon="5.276780">
						<ele>524</ele>
						<time>2026-09-03T19:06:24Z</time>
					</trkpt>
					<trkpt lat="44.438070" lon="5.276750">
						<ele>524</ele>
						<time>2026-09-03T19:06:26Z</time>
					</trkpt>
					<trkpt lat="44.437970" lon="5.276740">
						<ele>524</ele>
						<time>2026-09-03T19:06:31Z</time>
					</trkpt>
					<trkpt lat="44.437920" lon="5.276690">
						<ele>524</ele>
						<time>2026-09-03T19:06:34Z</time>
					</trkpt>
					<trkpt lat="44.437600" lon="5.276630">
						<ele>524</ele>
						<time>2026-09-03T19:06:51Z</time>
					</trkpt>
					<trkpt lat="44.437000" lon="5.276800">
						<ele>521</ele>
						<time>2026-09-03T19:07:21Z</time>
					</trkpt>
					<trkpt lat="44.436800" lon="5.276780">
						<ele>522</ele>
						<time>2026-09-03T19:07:31Z</time>
					</trkpt>
					<trkpt lat="44.436680" lon="5.276730">
						<ele>523</ele>
						<time>2026-09-03T19:07:37Z</time>
					</trkpt>
					<trkpt lat="44.436050" lon="5.276320">
						<ele>521</ele>
						<time>2026-09-03T19:08:12Z</time>
					</trkpt>
					<trkpt lat="44.435270" lon="5.275780">
						<ele>515</ele>
						<time>2026-09-03T19:08:56Z</time>
					</trkpt>
					<trkpt lat="44.435050" lon="5.275530">
						<ele>511</ele>
						<time>2026-09-03T19:09:10Z</time>
					</trkpt>
					<trkpt lat="44.434980" lon="5.275510">
						<ele>510</ele>
						<time>2026-09-03T19:09:14Z</time>
					</trkpt>
					<trkpt lat="44.434860" lon="5.275530">
						<ele>510</ele>
						<time>2026-09-03T19:09:20Z</time>
					</trkpt>
					<trkpt lat="44.434840" lon="5.275320">
						<ele>508</ele>
						<time>2026-09-03T19:09:27Z</time>
					</trkpt>
					<trkpt lat="44.434720" lon="5.275120">
						<ele>506</ele>
						<time>2026-09-03T19:09:36Z</time>
					</trkpt>
					<trkpt lat="44.434510" lon="5.274600">
						<ele>494</ele>
						<time>2026-09-03T19:09:58Z</time>
					</trkpt>
					<trkpt lat="44.434420" lon="5.274490">
						<ele>490</ele>
						<time>2026-09-03T19:10:04Z</time>
					</trkpt>
					<trkpt lat="44.434280" lon="5.274390">
						<ele>487</ele>
						<time>2026-09-03T19:10:12Z</time>
					</trkpt>
					<trkpt lat="44.434080" lon="5.274400">
						<ele>485</ele>
						<time>2026-09-03T19:10:22Z</time>
					</trkpt>
					<trkpt lat="44.434020" lon="5.274370">
						<ele>483</ele>
						<time>2026-09-03T19:10:25Z</time>
					</trkpt>
					<trkpt lat="44.434030" lon="5.274310">
						<ele>482</ele>
						<time>2026-09-03T19:10:27Z</time>
					</trkpt>
					<trkpt lat="44.434270" lon="5.274040">
						<ele>479</ele>
						<time>2026-09-03T19:10:42Z</time>
					</trkpt>
					<trkpt lat="44.434350" lon="5.273980">
						<ele>479</ele>
						<time>2026-09-03T19:10:47Z</time>
					</trkpt>
					<trkpt lat="44.434350" lon="5.273940">
						<ele>479</ele>
						<time>2026-09-03T19:10:48Z</time>
					</trkpt>
					<trkpt lat="44.434210" lon="5.273830">
						<ele>475</ele>
						<time>2026-09-03T19:10:56Z</time>
					</trkpt>
					<trkpt lat="44.433960" lon="5.273820">
						<ele>472</ele>
						<time>2026-09-03T19:11:09Z</time>
					</trkpt>
					<trkpt lat="44.433740" lon="5.273760">
						<ele>468</ele>
						<time>2026-09-03T19:11:20Z</time>
					</trkpt>
					<trkpt lat="44.433170" lon="5.273820">
						<ele>463</ele>
						<time>2026-09-03T19:11:49Z</time>
					</trkpt>
					<trkpt lat="44.432220" lon="5.274080">
						<ele>461</ele>
						<time>2026-09-03T19:12:37Z</time>
					</trkpt>
					<trkpt lat="44.431790" lon="5.274320">
						<ele>466</ele>
						<time>2026-09-03T19:13:00Z</time>
					</trkpt>
					<trkpt lat="44.431360" lon="5.274750">
						<ele>456</ele>
						<time>2026-09-03T19:13:27Z</time>
					</trkpt>
					<trkpt lat="44.431300" lon="5.274740">
						<ele>456</ele>
						<time>2026-09-03T19:13:30Z</time>
					</trkpt>
					<trkpt lat="44.431250" lon="5.274670">
						<ele>459</ele>
						<time>2026-09-03T19:13:33Z</time>
					</trkpt>
					<trkpt lat="44.431210" lon="5.274280">
						<ele>470</ele>
						<time>2026-09-03T19:13:47Z</time>
					</trkpt>
					<trkpt lat="44.431110" lon="5.274590">
						<ele>461</ele>
						<time>2026-09-03T19:14:00Z</time>
					</trkpt>
					<trkpt lat="44.430910" lon="5.274940">
						<ele>452</ele>
						<time>2026-09-03T19:14:16Z</time>
					</trkpt>
					<trkpt lat="44.430890" lon="5.274810">
						<ele>456</ele>
						<time>2026-09-03T19:14:20Z</time>
					</trkpt>
					<trkpt lat="44.430950" lon="5.274280">
						<ele>470</ele>
						<time>2026-09-03T19:14:40Z</time>
					</trkpt>
					<trkpt lat="44.430900" lon="5.274050">
						<ele>475</ele>
						<time>2026-09-03T19:14:48Z</time>
					</trkpt>
					<trkpt lat="44.430860" lon="5.274010">
						<ele>476</ele>
						<time>2026-09-03T19:14:51Z</time>
					</trkpt>
					<trkpt lat="44.430820" lon="5.274030">
						<ele>476</ele>
						<time>2026-09-03T19:14:53Z</time>
					</trkpt>
					<trkpt lat="44.430780" lon="5.274150">
						<ele>474</ele>
						<time>2026-09-03T19:14:58Z</time>
					</trkpt>
					<trkpt lat="44.430690" lon="5.274250">
						<ele>472</ele>
						<time>2026-09-03T19:15:03Z</time>
					</trkpt>
					<trkpt lat="44.430530" lon="5.274320">
						<ele>470</ele>
						<time>2026-09-03T19:15:12Z</time>
					</trkpt>
					<trkpt lat="44.430550" lon="5.274120">
						<ele>475</ele>
						<time>2026-09-03T19:15:19Z</time>
					</trkpt>
					<trkpt lat="44.430490" lon="5.274030">
						<ele>477</ele>
						<time>2026-09-03T19:15:23Z</time>
					</trkpt>
					<trkpt lat="44.430320" lon="5.273950">
						<ele>479</ele>
						<time>2026-09-03T19:15:32Z</time>
					</trkpt>
					<trkpt lat="44.430030" lon="5.273910">
						<ele>480</ele>
						<time>2026-09-03T19:15:47Z</time>
					</trkpt>
					<trkpt lat="44.429960" lon="5.273860">
						<ele>482</ele>
						<time>2026-09-03T19:15:51Z</time>
					</trkpt>
					<trkpt lat="44.429840" lon="5.273850">
						<ele>487</ele>
						<time>2026-09-03T19:15:57Z</time>
					</trkpt>
					<trkpt lat="44.429720" lon="5.273760">
						<ele>492</ele>
						<time>2026-09-03T19:16:04Z</time>
					</trkpt>
					<trkpt lat="44.429330" lon="5.273080">
						<ele>511</ele>
						<time>2026-09-03T19:16:35Z</time>
					</trkpt>
					<trkpt lat="44.429240" lon="5.272870">
						<ele>514</ele>
						<time>2026-09-03T19:16:43Z</time>
					</trkpt>
					<trkpt lat="44.429180" lon="5.272520">
						<ele>516</ele>
						<time>2026-09-03T19:16:56Z</time>
					</trkpt>
					<trkpt lat="44.429190" lon="5.271200">
						<ele>530</ele>
						<time>2026-09-03T19:17:44Z</time>
					</trkpt>
					<trkpt lat="44.429170" lon="5.271130">
						<ele>531</ele>
						<time>2026-09-03T19:17:46Z</time>
					</trkpt>
					<trkpt lat="44.429090" lon="5.271140">
						<ele>535</ele>
						<time>2026-09-03T19:17:50Z</time>
					</trkpt>
					<trkpt lat="44.429010" lon="5.271190">
						<ele>538</ele>
						<time>2026-09-03T19:17:55Z</time>
					</trkpt>
					<trkpt lat="44.428830" lon="5.271440">
						<ele>545</ele>
						<time>2026-09-03T19:18:07Z</time>
					</trkpt>
					<trkpt lat="44.428610" lon="5.271510">
						<ele>555</ele>
						<time>2026-09-03T19:18:19Z</time>
					</trkpt>
					<trkpt lat="44.428380" lon="5.271760">
						<ele>565</ele>
						<time>2026-09-03T19:18:33Z</time>
					</trkpt>
					<trkpt lat="44.427890" lon="5.273100">
						<ele>582</ele>
						<time>2026-09-03T19:19:27Z</time>
					</trkpt>
					<trkpt lat="44.427850" lon="5.273450">
						<ele>583</ele>
						<time>2026-09-03T19:19:40Z</time>
					</trkpt>
					<trkpt lat="44.427490" lon="5.273150">
						<ele>597</ele>
						<time>2026-09-03T19:20:01Z</time>
					</trkpt>
					<trkpt lat="44.427330" lon="5.273300">
						<ele>599</ele>
						<time>2026-09-03T19:20:10Z</time>
					</trkpt>
					<trkpt lat="44.427100" lon="5.273130">
						<ele>605</ele>
						<time>2026-09-03T19:20:23Z</time>
					</trkpt>
					<trkpt lat="44.426990" lon="5.273170">
						<ele>607</ele>
						<time>2026-09-03T19:20:29Z</time>
					</trkpt>
					<trkpt lat="44.426920" lon="5.273120">
						<ele>609</ele>
						<time>2026-09-03T19:20:33Z</time>
					</trkpt>
					<trkpt lat="44.426680" lon="5.272840">
						<ele>616</ele>
						<time>2026-09-03T19:20:49Z</time>
					</trkpt>
					<trkpt lat="44.426650" lon="5.272430">
						<ele>620</ele>
						<time>2026-09-03T19:21:03Z</time>
					</trkpt>
					<trkpt lat="44.426530" lon="5.272120">
						<ele>618</ele>
						<time>2026-09-03T19:21:16Z</time>
					</trkpt>
					<trkpt lat="44.426490" lon="5.272120">
						<ele>617</ele>
						<time>2026-09-03T19:21:18Z</time>
					</trkpt>
					<trkpt lat="44.426440" lon="5.272210">
						<ele>615</ele>
						<time>2026-09-03T19:21:22Z</time>
					</trkpt>
					<trkpt lat="44.426340" lon="5.272820">
						<ele>607</ele>
						<time>2026-09-03T19:21:44Z</time>
					</trkpt>
					<trkpt lat="44.426300" lon="5.272870">
						<ele>606</ele>
						<time>2026-09-03T19:21:47Z</time>
					</trkpt>
					<trkpt lat="44.426250" lon="5.272660">
						<ele>606</ele>
						<time>2026-09-03T19:21:55Z</time>
					</trkpt>
					<trkpt lat="44.426130" lon="5.272370">
						<ele>605</ele>
						<time>2026-09-03T19:22:07Z</time>
					</trkpt>
					<trkpt lat="44.425960" lon="5.272060">
						<ele>603</ele>
						<time>2026-09-03T19:22:21Z</time>
					</trkpt>
					<trkpt lat="44.425650" lon="5.271600">
						<ele>606</ele>
						<time>2026-09-03T19:22:43Z</time>
					</trkpt>
					<trkpt lat="44.425570" lon="5.271570">
						<ele>606</ele>
						<time>2026-09-03T19:22:48Z</time>
					</trkpt>
					<trkpt lat="44.425460" lon="5.271610">
						<ele>604</ele>
						<time>2026-09-03T19:22:53Z</time>
					</trkpt>
					<trkpt lat="44.425370" lon="5.271730">
						<ele>601</ele>
						<time>2026-09-03T19:22:59Z</time>
					</trkpt>
					<trkpt lat="44.425330" lon="5.271870">
						<ele>598</ele>
						<time>2026-09-03T19:23:05Z</time>
					</trkpt>
					<trkpt lat="44.425260" lon="5.272380">
						<ele>585</ele>
						<time>2026-09-03T19:23:23Z</time>
					</trkpt>
					<trkpt lat="44.425190" lon="5.272490">
						<ele>580</ele>
						<time>2026-09-03T19:23:29Z</time>
					</trkpt>
					<trkpt lat="44.425120" lon="5.272550">
						<ele>577</ele>
						<time>2026-09-03T19:23:33Z</time>
					</trkpt>
					<trkpt lat="44.424760" lon="5.272500">
						<ele>573</ele>
						<time>2026-09-03T19:23:51Z</time>
					</trkpt>
					<trkpt lat="44.424310" lon="5.272680">
						<ele>557</ele>
						<time>2026-09-03T19:24:14Z</time>
					</trkpt>
					<trkpt lat="44.423970" lon="5.272680">
						<ele>547</ele>
						<time>2026-09-03T19:24:31Z</time>
					</trkpt>
					<trkpt lat="44.423510" lon="5.272450">
						<ele>542</ele>
						<time>2026-09-03T19:24:56Z</time>
					</trkpt>
					<trkpt lat="44.423630" lon="5.272870">
						<ele>525</ele>
						<time>2026-09-03T19:25:12Z</time>
					</trkpt>
					<trkpt lat="44.422900" lon="5.272660">
						<ele>506</ele>
						<time>2026-09-03T19:25:49Z</time>
					</trkpt>
					<trkpt lat="44.422580" lon="5.272390">
						<ele>503</ele>
						<time>2026-09-03T19:26:08Z</time>
					</trkpt>
					<trkpt lat="44.422340" lon="5.272100">
						<ele>507</ele>
						<time>2026-09-03T19:26:24Z</time>
					</trkpt>
					<trkpt lat="44.422140" lon="5.271950">
						<ele>505</ele>
						<time>2026-09-03T19:26:35Z</time>
					</trkpt>
					<trkpt lat="44.421850" lon="5.271780">
						<ele>500</ele>
						<time>2026-09-03T19:26:51Z</time>
					</trkpt>
					<trkpt lat="44.421420" lon="5.271590">
						<ele>490</ele>
						<time>2026-09-03T19:27:13Z</time>
					</trkpt>
					<trkpt lat="44.420800" lon="5.271120">
						<ele>480</ele>
						<time>2026-09-03T19:27:49Z</time>
					</trkpt>
					<trkpt lat="44.420540" lon="5.270780">
						<ele>477</ele>
						<time>2026-09-03T19:28:07Z</time>
					</trkpt>
					<trkpt lat="44.420180" lon="5.270560">
						<ele>466</ele>
						<time>2026-09-03T19:28:26Z</time>
					</trkpt>
					<trkpt lat="44.420000" lon="5.270100">
						<ele>471</ele>
						<time>2026-09-03T19:28:45Z</time>
					</trkpt>
					<trkpt lat="44.419910" lon="5.269980">
						<ele>472</ele>
						<time>2026-09-03T19:28:51Z</time>
					</trkpt>
					<trkpt lat="44.419730" lon="5.269990">
						<ele>465</ele>
						<time>2026-09-03T19:29:00Z</time>
					</trkpt>
					<trkpt lat="44.419670" lon="5.269960">
						<ele>464</ele>
						<time>2026-09-03T19:29:03Z</time>
					</trkpt>
					<trkpt lat="44.419550" lon="5.269810">
						<ele>466</ele>
						<time>2026-09-03T19:29:11Z</time>
					</trkpt>
					<trkpt lat="44.419490" lon="5.269680">
						<ele>470</ele>
						<time>2026-09-03T19:29:17Z</time>
					</trkpt>
					<trkpt lat="44.419200" lon="5.269430">
						<ele>470</ele>
						<time>2026-09-03T19:29:34Z</time>
					</trkpt>
					<trkpt lat="44.419120" lon="5.269260">
						<ele>475</ele>
						<time>2026-09-03T19:29:41Z</time>
					</trkpt>
					<trkpt lat="44.419070" lon="5.269360">
						<ele>470</ele>
						<time>2026-09-03T19:29:46Z</time>
					</trkpt>
					<trkpt lat="44.418680" lon="5.269690">
						<ele>448</ele>
						<time>2026-09-03T19:30:08Z</time>
					</trkpt>
					<trkpt lat="44.418520" lon="5.269730">
						<ele>443</ele>
						<time>2026-09-03T19:30:17Z</time>
					</trkpt>
					<trkpt lat="44.418310" lon="5.269640">
						<ele>441</ele>
						<time>2026-09-03T19:30:28Z</time>
					</trkpt>
					<trkpt lat="44.418150" lon="5.269500">
						<ele>441</ele>
						<time>2026-09-03T19:30:37Z</time>
					</trkpt>
					<trkpt lat="44.417830" lon="5.269150">
						<ele>442</ele>
						<time>2026-09-03T19:30:57Z</time>
					</trkpt>
					<trkpt lat="44.417640" lon="5.269030">
						<ele>438</ele>
						<time>2026-09-03T19:31:08Z</time>
					</trkpt>
					<trkpt lat="44.417480" lon="5.268980">
						<ele>434</ele>
						<time>2026-09-03T19:31:16Z</time>
					</trkpt>
					<trkpt lat="44.417310" lon="5.268970">
						<ele>428</ele>
						<time>2026-09-03T19:31:24Z</time>
					</trkpt>
					<trkpt lat="44.417260" lon="5.268940">
						<ele>426</ele>
						<time>2026-09-03T19:31:27Z</time>
					</trkpt>
					<trkpt lat="44.417180" lon="5.268870">
						<ele>425</ele>
						<time>2026-09-03T19:31:32Z</time>
					</trkpt>
					<trkpt lat="44.416960" lon="5.268350">
						<ele>425</ele>
						<time>2026-09-03T19:31:54Z</time>
					</trkpt>
					<trkpt lat="44.416990" lon="5.268090">
						<ele>430</ele>
						<time>2026-09-03T19:32:03Z</time>
					</trkpt>
					<trkpt lat="44.416990" lon="5.267940">
						<ele>432</ele>
						<time>2026-09-03T19:32:08Z</time>
					</trkpt>
					<trkpt lat="44.416970" lon="5.267930">
						<ele>431</ele>
						<time>2026-09-03T19:32:09Z</time>
					</trkpt>
					<trkpt lat="44.416950" lon="5.267940">
						<ele>430</ele>
						<time>2026-09-03T19:32:10Z</time>
					</trkpt>
					<trkpt lat="44.416900" lon="5.268210">
						<ele>424</ele>
						<time>2026-09-03T19:32:20Z</time>
					</trkpt>
					<trkpt lat="44.416800" lon="5.268360">
						<ele>418</ele>
						<time>2026-09-03T19:32:28Z</time>
					</trkpt>
					<trkpt lat="44.416780" lon="5.268440">
						<ele>416</ele>
						<time>2026-09-03T19:32:31Z</time>
					</trkpt>
					<trkpt lat="44.416790" lon="5.268840">
						<ele>410</ele>
						<time>2026-09-03T19:32:45Z</time>
					</trkpt>
					<trkpt lat="44.416620" lon="5.268540">
						<ele>408</ele>
						<time>2026-09-03T19:32:59Z</time>
					</trkpt>
					<trkpt lat="44.416550" lon="5.268110">
						<ele>411</ele>
						<time>2026-09-03T19:33:15Z</time>
					</trkpt>
					<trkpt lat="44.416500" lon="5.267980">
						<ele>411</ele>
						<time>2026-09-03T19:33:20Z</time>
					</trkpt>
					<trkpt lat="44.416300" lon="5.267780">
						<ele>407</ele>
						<time>2026-09-03T19:33:32Z</time>
					</trkpt>
					<trkpt lat="44.415900" lon="5.267740">
						<ele>397</ele>
						<time>2026-09-03T19:33:52Z</time>
					</trkpt>
					<trkpt lat="44.415600" lon="5.267260">
						<ele>392</ele>
						<time>2026-09-03T19:34:15Z</time>
					</trkpt>
					<trkpt lat="44.415560" lon="5.267070">
						<ele>391</ele>
						<time>2026-09-03T19:34:22Z</time>
					</trkpt>
					<trkpt lat="44.415540" lon="5.266590">
						<ele>393</ele>
						<time>2026-09-03T19:34:39Z</time>
					</trkpt>
					<trkpt lat="44.415520" lon="5.266500">
						<ele>393</ele>
						<time>2026-09-03T19:34:43Z</time>
					</trkpt>
					<trkpt lat="44.415470" lon="5.266420">
						<ele>392</ele>
						<time>2026-09-03T19:34:46Z</time>
					</trkpt>
					<trkpt lat="44.415390" lon="5.266330">
						<ele>390</ele>
						<time>2026-09-03T19:34:52Z</time>
					</trkpt>
					<trkpt lat="44.415310" lon="5.266300">
						<ele>387</ele>
						<time>2026-09-03T19:34:56Z</time>
					</trkpt>
					<trkpt lat="44.415280" lon="5.266330">
						<ele>386</ele>
						<time>2026-09-03T19:34:58Z</time>
					</trkpt>
					<trkpt lat="44.415230" lon="5.266900">
						<ele>383</ele>
						<time>2026-09-03T19:35:18Z</time>
					</trkpt>
					<trkpt lat="44.415170" lon="5.266950">
						<ele>381</ele>
						<time>2026-09-03T19:35:22Z</time>
					</trkpt>
					<trkpt lat="44.415020" lon="5.266970">
						<ele>377</ele>
						<time>2026-09-03T19:35:29Z</time>
					</trkpt>
					<trkpt lat="44.414970" lon="5.266900">
						<ele>376</ele>
						<time>2026-09-03T19:35:33Z</time>
					</trkpt>
					<trkpt lat="44.414870" lon="5.266550">
						<ele>374</ele>
						<time>2026-09-03T19:35:46Z</time>
					</trkpt>
					<trkpt lat="44.414590" lon="5.266530">
						<ele>368</ele>
						<time>2026-09-03T19:36:00Z</time>
					</trkpt>
					<trkpt lat="44.414620" lon="5.265980">
						<ele>368</ele>
						<time>2026-09-03T19:36:20Z</time>
					</trkpt>
					<trkpt lat="44.414600" lon="5.265930">
						<ele>368</ele>
						<time>2026-09-03T19:36:22Z</time>
					</trkpt>
					<trkpt lat="44.414570" lon="5.265940">
						<ele>367</ele>
						<time>2026-09-03T19:36:23Z</time>
					</trkpt>
					<trkpt lat="44.414500" lon="5.266250">
						<ele>366</ele>
						<time>2026-09-03T19:36:35Z</time>
					</trkpt>
					<trkpt lat="44.414320" lon="5.266250">
						<ele>362</ele>
						<time>2026-09-03T19:36:44Z</time>
					</trkpt>
					<trkpt lat="44.414280" lon="5.266610">
						<ele>361</ele>
						<time>2026-09-03T19:36:57Z</time>
					</trkpt>
					<trkpt lat="44.414200" lon="5.266730">
						<ele>360</ele>
						<time>2026-09-03T19:37:03Z</time>
					</trkpt>
					<trkpt lat="44.414210" lon="5.267310">
						<ele>360</ele>
						<time>2026-09-03T19:37:24Z</time>
					</trkpt>
					<trkpt lat="44.414160" lon="5.267400">
						<ele>359</ele>
						<time>2026-09-03T19:37:28Z</time>
					</trkpt>
					<trkpt lat="44.414020" lon="5.267530">
						<ele>359</ele>
						<time>2026-09-03T19:37:36Z</time>
					</trkpt>
					<trkpt lat="44.413790" lon="5.267630">
						<ele>358</ele>
						<time>2026-09-03T19:37:48Z</time>
					</trkpt>
					<trkpt lat="44.413220" lon="5.267650">
						<ele>360</ele>
						<time>2026-09-03T19:38:17Z</time>
					</trkpt>
					<trkpt lat="44.413200" lon="5.267270">
						<ele>362</ele>
						<time>2026-09-03T19:38:30Z</time>
					</trkpt>
					<trkpt lat="44.413090" lon="5.267180">
						<ele>364</ele>
						<time>2026-09-03T19:38:37Z</time>
					</trkpt>
					<trkpt lat="44.412930" lon="5.267130">
						<ele>368</ele>
						<time>2026-09-03T19:38:45Z</time>
					</trkpt>
					<trkpt lat="44.412850" lon="5.267020">
						<ele>370</ele>
						<time>2026-09-03T19:38:51Z</time>
					</trkpt>
					<trkpt lat="44.412730" lon="5.266970">
						<ele>373</ele>
						<time>2026-09-03T19:38:57Z</time>
					</trkpt>
					<trkpt lat="44.412510" lon="5.266950">
						<ele>378</ele>
						<time>2026-09-03T19:39:08Z</time>
					</trkpt>
					<trkpt lat="44.412440" lon="5.267020">
						<ele>380</ele>
						<time>2026-09-03T19:39:12Z</time>
					</trkpt>
					<trkpt lat="44.412380" lon="5.267150">
						<ele>382</ele>
						<time>2026-09-03T19:39:18Z</time>
					</trkpt>
					<trkpt lat="44.412340" lon="5.267340">
						<ele>383</ele>
						<time>2026-09-03T19:39:25Z</time>
					</trkpt>
					<trkpt lat="44.412290" lon="5.267400">
						<ele>384</ele>
						<time>2026-09-03T19:39:28Z</time>
					</trkpt>
					<trkpt lat="44.412310" lon="5.267100">
						<ele>384</ele>
						<time>2026-09-03T19:39:39Z</time>
					</trkpt>
					<trkpt lat="44.412280" lon="5.266900">
						<ele>384</ele>
						<time>2026-09-03T19:39:46Z</time>
					</trkpt>
					<trkpt lat="44.412130" lon="5.266470">
						<ele>387</ele>
						<time>2026-09-03T19:40:03Z</time>
					</trkpt>
					<trkpt lat="44.411860" lon="5.265870">
						<ele>389</ele>
						<time>2026-09-03T19:40:29Z</time>
					</trkpt>
					<trkpt lat="44.411800" lon="5.265810">
						<ele>390</ele>
						<time>2026-09-03T19:40:32Z</time>
					</trkpt>
					<trkpt lat="44.411710" lon="5.265950">
						<ele>393</ele>
						<time>2026-09-03T19:40:39Z</time>
					</trkpt>
					<trkpt lat="44.411660" lon="5.266130">
						<ele>395</ele>
						<time>2026-09-03T19:40:46Z</time>
					</trkpt>
					<trkpt lat="44.411520" lon="5.266420">
						<ele>398</ele>
						<time>2026-09-03T19:40:58Z</time>
					</trkpt>
					<trkpt lat="44.411510" lon="5.266780">
						<ele>401</ele>
						<time>2026-09-03T19:41:11Z</time>
					</trkpt>
					<trkpt lat="44.411580" lon="5.267120">
						<ele>402</ele>
						<time>2026-09-03T19:41:24Z</time>
					</trkpt>
					<trkpt lat="44.411550" lon="5.267140">
						<ele>402</ele>
						<time>2026-09-03T19:41:26Z</time>
					</trkpt>
					<trkpt lat="44.411500" lon="5.267130">
						<ele>403</ele>
						<time>2026-09-03T19:41:28Z</time>
					</trkpt>
					<trkpt lat="44.410870" lon="5.266770">
						<ele>408</ele>
						<time>2026-09-03T19:42:02Z</time>
					</trkpt>
					<trkpt lat="44.410820" lon="5.266770">
						<ele>409</ele>
						<time>2026-09-03T19:42:05Z</time>
					</trkpt>
					<trkpt lat="44.410470" lon="5.267220">
						<ele>416</ele>
						<time>2026-09-03T19:42:28Z</time>
					</trkpt>
					<trkpt lat="44.410410" lon="5.267120">
						<ele>416</ele>
						<time>2026-09-03T19:42:33Z</time>
					</trkpt>
					<trkpt lat="44.410350" lon="5.267220">
						<ele>418</ele>
						<time>2026-09-03T19:42:38Z</time>
					</trkpt>
					<trkpt lat="44.410150" lon="5.267410">
						<ele>423</ele>
						<time>2026-09-03T19:42:50Z</time>
					</trkpt>
					<trkpt lat="44.409880" lon="5.267510">
						<ele>429</ele>
						<time>2026-09-03T19:43:04Z</time>
					</trkpt>
					<trkpt lat="44.409610" lon="5.268780">
						<ele>455</ele>
						<time>2026-09-03T19:43:51Z</time>
					</trkpt>
					<trkpt lat="44.409540" lon="5.268860">
						<ele>458</ele>
						<time>2026-09-03T19:43:56Z</time>
					</trkpt>
					<trkpt lat="44.409260" lon="5.268160">
						<ele>456</ele>
						<time>2026-09-03T19:44:24Z</time>
					</trkpt>
					<trkpt lat="44.409080" lon="5.268020">
						<ele>459</ele>
						<time>2026-09-03T19:44:35Z</time>
					</trkpt>
					<trkpt lat="44.409070" lon="5.268050">
						<ele>460</ele>
						<time>2026-09-03T19:44:36Z</time>
					</trkpt>
					<trkpt lat="44.408900" lon="5.267960">
						<ele>462</ele>
						<time>2026-09-03T19:44:45Z</time>
					</trkpt>
					<trkpt lat="44.408630" lon="5.267900">
						<ele>468</ele>
						<time>2026-09-03T19:44:59Z</time>
					</trkpt>
					<trkpt lat="44.408040" lon="5.267910">
						<ele>479</ele>
						<time>2026-09-03T19:45:28Z</time>
					</trkpt>
					<trkpt lat="44.407610" lon="5.267990">
						<ele>486</ele>
						<time>2026-09-03T19:45:50Z</time>
					</trkpt>
					<trkpt lat="44.407560" lon="5.268050">
						<ele>488</ele>
						<time>2026-09-03T19:45:53Z</time>
					</trkpt>
					<trkpt lat="44.407550" lon="5.268100">
						<ele>489</ele>
						<time>2026-09-03T19:45:55Z</time>
					</trkpt>
					<trkpt lat="44.407610" lon="5.268170">
						<ele>491</ele>
						<time>2026-09-03T19:45:59Z</time>
					</trkpt>
					<trkpt lat="44.408320" lon="5.268370">
						<ele>489</ele>
						<time>2026-09-03T19:46:35Z</time>
					</trkpt>
					<trkpt lat="44.408390" lon="5.268410">
						<ele>487</ele>
						<time>2026-09-03T19:46:39Z</time>
					</trkpt>
					<trkpt lat="44.408600" lon="5.268820">
						<ele>488</ele>
						<time>2026-09-03T19:46:57Z</time>
					</trkpt>
					<trkpt lat="44.408620" lon="5.268980">
						<ele>490</ele>
						<time>2026-09-03T19:47:03Z</time>
					</trkpt>
					<trkpt lat="44.408600" lon="5.269090">
						<ele>492</ele>
						<time>2026-09-03T19:47:07Z</time>
					</trkpt>
					<trkpt lat="44.408530" lon="5.269160">
						<ele>495</ele>
						<time>2026-09-03T19:47:11Z</time>
					</trkpt>
					<trkpt lat="44.408430" lon="5.269180">
						<ele>498</ele>
						<time>2026-09-03T19:47:16Z</time>
					</trkpt>
					<trkpt lat="44.408290" lon="5.269170">
						<ele>502</ele>
						<time>2026-09-03T19:47:23Z</time>
					</trkpt>
					<trkpt lat="44.408170" lon="5.269210">
						<ele>504</ele>
						<time>2026-09-03T19:47:30Z</time>
					</trkpt>
					<trkpt lat="44.407970" lon="5.269420">
						<ele>508</ele>
						<time>2026-09-03T19:47:42Z</time>
					</trkpt>
					<trkpt lat="44.407900" lon="5.269430">
						<ele>509</ele>
						<time>2026-09-03T19:47:46Z</time>
					</trkpt>
					<trkpt lat="44.407550" lon="5.269370">
						<ele>515</ele>
						<time>2026-09-03T19:48:03Z</time>
					</trkpt>
					<trkpt lat="44.407190" lon="5.269240">
						<ele>519</ele>
						<time>2026-09-03T19:48:22Z</time>
					</trkpt>
					<trkpt lat="44.406930" lon="5.269180">
						<ele>521</ele>
						<time>2026-09-03T19:48:35Z</time>
					</trkpt>
					<trkpt lat="44.406240" lon="5.268880">
						<ele>525</ele>
						<time>2026-09-03T19:49:11Z</time>
					</trkpt>
					<trkpt lat="44.406140" lon="5.268800">
						<ele>525</ele>
						<time>2026-09-03T19:49:17Z</time>
					</trkpt>
					<trkpt lat="44.405910" lon="5.268460">
						<ele>522</ele>
						<time>2026-09-03T19:49:34Z</time>
					</trkpt>
					<trkpt lat="44.405700" lon="5.268300">
						<ele>522</ele>
						<time>2026-09-03T19:49:46Z</time>
					</trkpt>
					<trkpt lat="44.405120" lon="5.268240">
						<ele>529</ele>
						<time>2026-09-03T19:50:15Z</time>
					</trkpt>
					<trkpt lat="44.404470" lon="5.268060">
						<ele>541</ele>
						<time>2026-09-03T19:50:48Z</time>
					</trkpt>
					<trkpt lat="44.404400" lon="5.268020">
						<ele>542</ele>
						<time>2026-09-03T19:50:52Z</time>
					</trkpt>
					<trkpt lat="44.404360" lon="5.267960">
						<ele>542</ele>
						<time>2026-09-03T19:50:55Z</time>
					</trkpt>
					<trkpt lat="44.404360" lon="5.267680">
						<ele>540</ele>
						<time>2026-09-03T19:51:05Z</time>
					</trkpt>
					<trkpt lat="44.404330" lon="5.267490">
						<ele>539</ele>
						<time>2026-09-03T19:51:12Z</time>
					</trkpt>
					<trkpt lat="44.403900" lon="5.265950">
						<ele>541</ele>
						<time>2026-09-03T19:52:11Z</time>
					</trkpt>
					<trkpt lat="44.403650" lon="5.265490">
						<ele>548</ele>
						<time>2026-09-03T19:52:31Z</time>
					</trkpt>
					<trkpt lat="44.403340" lon="5.265120">
						<ele>557</ele>
						<time>2026-09-03T19:52:52Z</time>
					</trkpt>
					<trkpt lat="44.403300" lon="5.265010">
						<ele>558</ele>
						<time>2026-09-03T19:52:56Z</time>
					</trkpt>
					<trkpt lat="44.403270" lon="5.264780">
						<ele>559</ele>
						<time>2026-09-03T19:53:04Z</time>
					</trkpt>
					<trkpt lat="44.403220" lon="5.264750">
						<ele>563</ele>
						<time>2026-09-03T19:53:07Z</time>
					</trkpt>
					<trkpt lat="44.403170" lon="5.264860">
						<ele>567</ele>
						<time>2026-09-03T19:53:12Z</time>
					</trkpt>
					<trkpt lat="44.403200" lon="5.265040">
						<ele>565</ele>
						<time>2026-09-03T19:53:18Z</time>
					</trkpt>
					<trkpt lat="44.403450" lon="5.265670">
						<ele>563</ele>
						<time>2026-09-03T19:53:44Z</time>
					</trkpt>
					<trkpt lat="44.403650" lon="5.266360">
						<ele>566</ele>
						<time>2026-09-03T19:54:11Z</time>
					</trkpt>
					<trkpt lat="44.403680" lon="5.266560">
						<ele>569</ele>
						<time>2026-09-03T19:54:18Z</time>
					</trkpt>
					<trkpt lat="44.403720" lon="5.267160">
						<ele>574</ele>
						<time>2026-09-03T19:54:40Z</time>
					</trkpt>
					<trkpt lat="44.403630" lon="5.267730">
						<ele>585</ele>
						<time>2026-09-03T19:55:01Z</time>
					</trkpt>
					<trkpt lat="44.403590" lon="5.267840">
						<ele>588</ele>
						<time>2026-09-03T19:55:05Z</time>
					</trkpt>
					<trkpt lat="44.403550" lon="5.267840">
						<ele>591</ele>
						<time>2026-09-03T19:55:07Z</time>
					</trkpt>
					<trkpt lat="44.403510" lon="5.267390">
						<ele>593</ele>
						<time>2026-09-03T19:55:23Z</time>
					</trkpt>
					<trkpt lat="44.403470" lon="5.267210">
						<ele>594</ele>
						<time>2026-09-03T19:55:30Z</time>
					</trkpt>
					<trkpt lat="44.403220" lon="5.266680">
						<ele>603</ele>
						<time>2026-09-03T19:55:53Z</time>
					</trkpt>
					<trkpt lat="44.402950" lon="5.266210">
						<ele>607</ele>
						<time>2026-09-03T19:56:14Z</time>
					</trkpt>
					<trkpt lat="44.402780" lon="5.265860">
						<ele>608</ele>
						<time>2026-09-03T19:56:29Z</time>
					</trkpt>
					<trkpt lat="44.402360" lon="5.265300">
						<ele>618</ele>
						<time>2026-09-03T19:56:58Z</time>
					</trkpt>
					<trkpt lat="44.402300" lon="5.265240">
						<ele>618</ele>
						<time>2026-09-03T19:57:02Z</time>
					</trkpt>
					<trkpt lat="44.402210" lon="5.265200">
						<ele>618</ele>
						<time>2026-09-03T19:57:07Z</time>
					</trkpt>
					<trkpt lat="44.402130" lon="5.265200">
						<ele>618</ele>
						<time>2026-09-03T19:57:11Z</time>
					</trkpt>
					<trkpt lat="44.401790" lon="5.265370">
						<ele>624</ele>
						<time>2026-09-03T19:57:29Z</time>
					</trkpt>
					<trkpt lat="44.401380" lon="5.265780">
						<ele>633</ele>
						<time>2026-09-03T19:57:54Z</time>
					</trkpt>
					<trkpt lat="44.400820" lon="5.266660">
						<ele>649</ele>
						<time>2026-09-03T19:58:36Z</time>
					</trkpt>
					<trkpt lat="44.400660" lon="5.267030">
						<ele>661</ele>
						<time>2026-09-03T19:58:52Z</time>
					</trkpt>
					<trkpt lat="44.400490" lon="5.267510">
						<ele>674</ele>
						<time>2026-09-03T19:59:11Z</time>
					</trkpt>
					<trkpt lat="44.400430" lon="5.267590">
						<ele>676</ele>
						<time>2026-09-03T19:59:15Z</time>
					</trkpt>
					<trkpt lat="44.400380" lon="5.267580">
						<ele>676</ele>
						<time>2026-09-03T19:59:18Z</time>
					</trkpt>
					<trkpt lat="44.400330" lon="5.267530">
						<ele>675</ele>
						<time>2026-09-03T19:59:21Z</time>
					</trkpt>
					<trkpt lat="44.400110" lon="5.267230">
						<ele>669</ele>
						<time>2026-09-03T19:59:36Z</time>
					</trkpt>
					<trkpt lat="44.399720" lon="5.266390">
						<ele>663</ele>
						<time>2026-09-03T20:00:12Z</time>
					</trkpt>
					<trkpt lat="44.399650" lon="5.266280">
						<ele>662</ele>
						<time>2026-09-03T20:00:17Z</time>
					</trkpt>
					<trkpt lat="44.399560" lon="5.266270">
						<ele>664</ele>
						<time>2026-09-03T20:00:22Z</time>
					</trkpt>
					<trkpt lat="44.399180" lon="5.266500">
						<ele>677</ele>
						<time>2026-09-03T20:00:42Z</time>
					</trkpt>
					<trkpt lat="44.398730" lon="5.266720">
						<ele>686</ele>
						<time>2026-09-03T20:01:06Z</time>
					</trkpt>
					<trkpt lat="44.398520" lon="5.266740">
						<ele>688</ele>
						<time>2026-09-03T20:01:17Z</time>
					</trkpt>
					<trkpt lat="44.398480" lon="5.266810">
						<ele>690</ele>
						<time>2026-09-03T20:01:20Z</time>
					</trkpt>
					<trkpt lat="44.398510" lon="5.266890">
						<ele>692</ele>
						<time>2026-09-03T20:01:23Z</time>
					</trkpt>
					<trkpt lat="44.398830" lon="5.266930">
						<ele>690</ele>
						<time>2026-09-03T20:01:39Z</time>
					</trkpt>
					<trkpt lat="44.399000" lon="5.266980">
						<ele>690</ele>
						<time>2026-09-03T20:01:48Z</time>
					</trkpt>
					<trkpt lat="44.399160" lon="5.267070">
						<ele>691</ele>
						<time>2026-09-03T20:01:56Z</time>
					</trkpt>
					<trkpt lat="44.399460" lon="5.267300">
						<ele>688</ele>
						<time>2026-09-03T20:02:14Z</time>
					</trkpt>
					<trkpt lat="44.399540" lon="5.267410">
						<ele>688</ele>
						<time>2026-09-03T20:02:19Z</time>
					</trkpt>
					<trkpt lat="44.399640" lon="5.267630">
						<ele>690</ele>
						<time>2026-09-03T20:02:29Z</time>
					</trkpt>
					<trkpt lat="44.399740" lon="5.268060">
						<ele>699</ele>
						<time>2026-09-03T20:02:45Z</time>
					</trkpt>
					<trkpt lat="44.399940" lon="5.268640">
						<ele>710</ele>
						<time>2026-09-03T20:03:08Z</time>
					</trkpt>
					<trkpt lat="44.400040" lon="5.269100">
						<ele>723</ele>
						<time>2026-09-03T20:03:25Z</time>
					</trkpt>
					<trkpt lat="44.400080" lon="5.269190">
						<ele>725</ele>
						<time>2026-09-03T20:03:29Z</time>
					</trkpt>
					<trkpt lat="44.400230" lon="5.269360">
						<ele>725</ele>
						<time>2026-09-03T20:03:38Z</time>
					</trkpt>
					<trkpt lat="44.400300" lon="5.269730">
						<ele>730</ele>
						<time>2026-09-03T20:03:52Z</time>
					</trkpt>
					<trkpt lat="44.400360" lon="5.269720">
						<ele>729</ele>
						<time>2026-09-03T20:03:55Z</time>
					</trkpt>
					<trkpt lat="44.400510" lon="5.269480">
						<ele>722</ele>
						<time>2026-09-03T20:04:06Z</time>
					</trkpt>
					<trkpt lat="44.400690" lon="5.269260">
						<ele>716</ele>
						<time>2026-09-03T20:04:18Z</time>
					</trkpt>
					<trkpt lat="44.400860" lon="5.269240">
						<ele>712</ele>
						<time>2026-09-03T20:04:27Z</time>
					</trkpt>
					<trkpt lat="44.400950" lon="5.269290">
						<ele>710</ele>
						<time>2026-09-03T20:04:32Z</time>
					</trkpt>
					<trkpt lat="44.400980" lon="5.269410">
						<ele>710</ele>
						<time>2026-09-03T20:04:36Z</time>
					</trkpt>
					<trkpt lat="44.401010" lon="5.269860">
						<ele>713</ele>
						<time>2026-09-03T20:04:53Z</time>
					</trkpt>
					<trkpt lat="44.400990" lon="5.270520">
						<ele>723</ele>
						<time>2026-09-03T20:05:16Z</time>
					</trkpt>
					<trkpt lat="44.400840" lon="5.271510">
						<ele>745</ele>
						<time>2026-09-03T20:05:52Z</time>
					</trkpt>
					<trkpt lat="44.400870" lon="5.272010">
						<ele>755</ele>
						<time>2026-09-03T20:06:10Z</time>
					</trkpt>
					<trkpt lat="44.400910" lon="5.272150">
						<ele>757</ele>
						<time>2026-09-03T20:06:16Z</time>
					</trkpt>
					<trkpt lat="44.400990" lon="5.272160">
						<ele>756</ele>
						<time>2026-09-03T20:06:20Z</time>
					</trkpt>
					<trkpt lat="44.401300" lon="5.271980">
						<ele>745</ele>
						<time>2026-09-03T20:06:36Z</time>
					</trkpt>
					<trkpt lat="44.401460" lon="5.271990">
						<ele>742</ele>
						<time>2026-09-03T20:06:44Z</time>
					</trkpt>
					<trkpt lat="44.402220" lon="5.272540">
						<ele>752</ele>
						<time>2026-09-03T20:07:27Z</time>
					</trkpt>
					<trkpt lat="44.402400" lon="5.272610">
						<ele>753</ele>
						<time>2026-09-03T20:07:37Z</time>
					</trkpt>
					<trkpt lat="44.402750" lon="5.272690">
						<ele>751</ele>
						<time>2026-09-03T20:07:54Z</time>
					</trkpt>
					<trkpt lat="44.402850" lon="5.272740">
						<ele>750</ele>
						<time>2026-09-03T20:08:00Z</time>
					</trkpt>
					<trkpt lat="44.402880" lon="5.272800">
						<ele>751</ele>
						<time>2026-09-03T20:08:02Z</time>
					</trkpt>
					<trkpt lat="44.402850" lon="5.272870">
						<ele>754</ele>
						<time>2026-09-03T20:08:05Z</time>
					</trkpt>
					<trkpt lat="44.402580" lon="5.272930">
						<ele>760</ele>
						<time>2026-09-03T20:08:19Z</time>
					</trkpt>
					<trkpt lat="44.402320" lon="5.273050">
						<ele>765</ele>
						<time>2026-09-03T20:08:33Z</time>
					</trkpt>
					<trkpt lat="44.402200" lon="5.273060">
						<ele>766</ele>
						<time>2026-09-03T20:08:39Z</time>
					</trkpt>
					<trkpt lat="44.401980" lon="5.273010">
						<ele>767</ele>
						<time>2026-09-03T20:08:50Z</time>
					</trkpt>
					<trkpt lat="44.401750" lon="5.272870">
						<ele>764</ele>
						<time>2026-09-03T20:09:02Z</time>
					</trkpt>
					<trkpt lat="44.401490" lon="5.272780">
						<ele>765</ele>
						<time>2026-09-03T20:09:16Z</time>
					</trkpt>
					<trkpt lat="44.401220" lon="5.272750">
						<ele>768</ele>
						<time>2026-09-03T20:09:29Z</time>
					</trkpt>
					<trkpt lat="44.400990" lon="5.272830">
						<ele>773</ele>
						<time>2026-09-03T20:09:41Z</time>
					</trkpt>
					<trkpt lat="44.400890" lon="5.272840">
						<ele>774</ele>
						<time>2026-09-03T20:09:46Z</time>
					</trkpt>
					<trkpt lat="44.400830" lon="5.272820">
						<ele>775</ele>
						<time>2026-09-03T20:09:49Z</time>
					</trkpt>
					<trkpt lat="44.400550" lon="5.272450">
						<ele>774</ele>
						<time>2026-09-03T20:10:09Z</time>
					</trkpt>
					<trkpt lat="44.400500" lon="5.272330">
						<ele>773</ele>
						<time>2026-09-03T20:10:14Z</time>
					</trkpt>
					<trkpt lat="44.400440" lon="5.271610">
						<ele>759</ele>
						<time>2026-09-03T20:10:39Z</time>
					</trkpt>
					<trkpt lat="44.400390" lon="5.271460">
						<ele>758</ele>
						<time>2026-09-03T20:10:45Z</time>
					</trkpt>
					<trkpt lat="44.400310" lon="5.271340">
						<ele>758</ele>
						<time>2026-09-03T20:10:51Z</time>
					</trkpt>
					<trkpt lat="44.400230" lon="5.271280">
						<ele>759</ele>
						<time>2026-09-03T20:10:56Z</time>
					</trkpt>
					<trkpt lat="44.399950" lon="5.271210">
						<ele>766</ele>
						<time>2026-09-03T20:11:10Z</time>
					</trkpt>
					<trkpt lat="44.399890" lon="5.271140">
						<ele>766</ele>
						<time>2026-09-03T20:11:14Z</time>
					</trkpt>
					<trkpt lat="44.399860" lon="5.270890">
						<ele>762</ele>
						<time>2026-09-03T20:11:23Z</time>
					</trkpt>
					<trkpt lat="44.399640" lon="5.270430">
						<ele>761</ele>
						<time>2026-09-03T20:11:43Z</time>
					</trkpt>
					<trkpt lat="44.399570" lon="5.270230">
						<ele>760</ele>
						<time>2026-09-03T20:11:51Z</time>
					</trkpt>
					<trkpt lat="44.399530" lon="5.270080">
						<ele>760</ele>
						<time>2026-09-03T20:11:56Z</time>
					</trkpt>
					<trkpt lat="44.399500" lon="5.269680">
						<ele>753</ele>
						<time>2026-09-03T20:12:11Z</time>
					</trkpt>
					<trkpt lat="44.399380" lon="5.269420">
						<ele>753</ele>
						<time>2026-09-03T20:12:22Z</time>
					</trkpt>
					<trkpt lat="44.399280" lon="5.269300">
						<ele>754</ele>
						<time>2026-09-03T20:12:28Z</time>
					</trkpt>
					<trkpt lat="44.398940" lon="5.269060">
						<ele>754</ele>
						<time>2026-09-03T20:12:48Z</time>
					</trkpt>
					<trkpt lat="44.398820" lon="5.269010">
						<ele>755</ele>
						<time>2026-09-03T20:12:54Z</time>
					</trkpt>
					<trkpt lat="44.398680" lon="5.268990">
						<ele>756</ele>
						<time>2026-09-03T20:13:01Z</time>
					</trkpt>
					<trkpt lat="44.398530" lon="5.268990">
						<ele>758</ele>
						<time>2026-09-03T20:13:08Z</time>
					</trkpt>
					<trkpt lat="44.398200" lon="5.269040">
						<ele>764</ele>
						<time>2026-09-03T20:13:25Z</time>
					</trkpt>
					<trkpt lat="44.397900" lon="5.269020">
						<ele>767</ele>
						<time>2026-09-03T20:13:40Z</time>
					</trkpt>
					<trkpt lat="44.397170" lon="5.268780">
						<ele>767</ele>
						<time>2026-09-03T20:14:18Z</time>
					</trkpt>
					<trkpt lat="44.397010" lon="5.268600">
						<ele>763</ele>
						<time>2026-09-03T20:14:28Z</time>
					</trkpt>
					<trkpt lat="44.396890" lon="5.268520">
						<ele>762</ele>
						<time>2026-09-03T20:14:34Z</time>
					</trkpt>
					<trkpt lat="44.396620" lon="5.268520">
						<ele>764</ele>
						<time>2026-09-03T20:14:48Z</time>
					</trkpt>
					<trkpt lat="44.396560" lon="5.268500">
						<ele>764</ele>
						<time>2026-09-03T20:14:51Z</time>
					</trkpt>
					<trkpt lat="44.396380" lon="5.268320">
						<ele>759</ele>
						<time>2026-09-03T20:15:02Z</time>
					</trkpt>
					<trkpt lat="44.396210" lon="5.268300">
						<ele>759</ele>
						<time>2026-09-03T20:15:11Z</time>
					</trkpt>
					<trkpt lat="44.395880" lon="5.268360">
						<ele>761</ele>
						<time>2026-09-03T20:15:27Z</time>
					</trkpt>
					<trkpt lat="44.395690" lon="5.268330">
						<ele>759</ele>
						<time>2026-09-03T20:15:37Z</time>
					</trkpt>
					<trkpt lat="44.395490" lon="5.268200">
						<ele>756</ele>
						<time>2026-09-03T20:15:48Z</time>
					</trkpt>
					<trkpt lat="44.395290" lon="5.267970">
						<ele>753</ele>
						<time>2026-09-03T20:16:01Z</time>
					</trkpt>
					<trkpt lat="44.395210" lon="5.267950">
						<ele>753</ele>
						<time>2026-09-03T20:16:05Z</time>
					</trkpt>
					<trkpt lat="44.395180" lon="5.267970">
						<ele>753</ele>
						<time>2026-09-03T20:16:07Z</time>
					</trkpt>
					<trkpt lat="44.395160" lon="5.268040">
						<ele>753</ele>
						<time>2026-09-03T20:16:09Z</time>
					</trkpt>
					<trkpt lat="44.395240" lon="5.268490">
						<ele>756</ele>
						<time>2026-09-03T20:16:26Z</time>
					</trkpt>
					<trkpt lat="44.395210" lon="5.269120">
						<ele>762</ele>
						<time>2026-09-03T20:16:48Z</time>
					</trkpt>
					<trkpt lat="44.395170" lon="5.269210">
						<ele>762</ele>
						<time>2026-09-03T20:16:52Z</time>
					</trkpt>
					<trkpt lat="44.395120" lon="5.269250">
						<ele>761</ele>
						<time>2026-09-03T20:16:55Z</time>
					</trkpt>
					<trkpt lat="44.394910" lon="5.269260">
						<ele>755</ele>
						<time>2026-09-03T20:17:06Z</time>
					</trkpt>
					<trkpt lat="44.394850" lon="5.269310">
						<ele>753</ele>
						<time>2026-09-03T20:17:09Z</time>
					</trkpt>
					<trkpt lat="44.394740" lon="5.269870">
						<ele>754</ele>
						<time>2026-09-03T20:17:30Z</time>
					</trkpt>
					<trkpt lat="44.394650" lon="5.270180">
						<ele>754</ele>
						<time>2026-09-03T20:17:42Z</time>
					</trkpt>
					<trkpt lat="44.394650" lon="5.270620">
						<ele>758</ele>
						<time>2026-09-03T20:17:58Z</time>
					</trkpt>
					<trkpt lat="44.394690" lon="5.271010">
						<ele>763</ele>
						<time>2026-09-03T20:18:12Z</time>
					</trkpt>
					<trkpt lat="44.394650" lon="5.271390">
						<ele>766</ele>
						<time>2026-09-03T20:18:25Z</time>
					</trkpt>
					<trkpt lat="44.394650" lon="5.271780">
						<ele>773</ele>
						<time>2026-09-03T20:18:39Z</time>
					</trkpt>
					<trkpt lat="44.394610" lon="5.271900">
						<ele>774</ele>
						<time>2026-09-03T20:18:44Z</time>
					</trkpt>
					<trkpt lat="44.394490" lon="5.272000">
						<ele>772</ele>
						<time>2026-09-03T20:18:51Z</time>
					</trkpt>
					<trkpt lat="44.394280" lon="5.272100">
						<ele>766</ele>
						<time>2026-09-03T20:19:02Z</time>
					</trkpt>
					<trkpt lat="44.394000" lon="5.272400">
						<ele>766</ele>
						<time>2026-09-03T20:19:20Z</time>
					</trkpt>
					<trkpt lat="44.393780" lon="5.272470">
						<ele>764</ele>
						<time>2026-09-03T20:19:31Z</time>
					</trkpt>
					<trkpt lat="44.393340" lon="5.272900">
						<ele>769</ele>
						<time>2026-09-03T20:19:58Z</time>
					</trkpt>
					<trkpt lat="44.393290" lon="5.272900">
						<ele>768</ele>
						<time>2026-09-03T20:20:00Z</time>
					</trkpt>
					<trkpt lat="44.393130" lon="5.272780">
						<ele>764</ele>
						<time>2026-09-03T20:20:10Z</time>
					</trkpt>
					<trkpt lat="44.392760" lon="5.272580">
						<ele>757</ele>
						<time>2026-09-03T20:20:29Z</time>
					</trkpt>
					<trkpt lat="44.392660" lon="5.272590">
						<ele>757</ele>
						<time>2026-09-03T20:20:34Z</time>
					</trkpt>
					<trkpt lat="44.392490" lon="5.272720">
						<ele>758</ele>
						<time>2026-09-03T20:20:44Z</time>
					</trkpt>
					<trkpt lat="44.392400" lon="5.272890">
						<ele>759</ele>
						<time>2026-09-03T20:20:52Z</time>
					</trkpt>
					<trkpt lat="44.392320" lon="5.273280">
						<ele>764</ele>
						<time>2026-09-03T20:21:06Z</time>
					</trkpt>
					<trkpt lat="44.392310" lon="5.273530">
						<ele>767</ele>
						<time>2026-09-03T20:21:15Z</time>
					</trkpt>
					<trkpt lat="44.392380" lon="5.273770">
						<ele>770</ele>
						<time>2026-09-03T20:21:24Z</time>
					</trkpt>
					<trkpt lat="44.392380" lon="5.273820">
						<ele>770</ele>
						<time>2026-09-03T20:21:26Z</time>
					</trkpt>
					<trkpt lat="44.392330" lon="5.273880">
						<ele>770</ele>
						<time>2026-09-03T20:21:30Z</time>
					</trkpt>
					<trkpt lat="44.392270" lon="5.273880">
						<ele>769</ele>
						<time>2026-09-03T20:21:33Z</time>
					</trkpt>
					<trkpt lat="44.392170" lon="5.273820">
						<ele>768</ele>
						<time>2026-09-03T20:21:38Z</time>
					</trkpt>
					<trkpt lat="44.391850" lon="5.273550">
						<ele>760</ele>
						<time>2026-09-03T20:21:57Z</time>
					</trkpt>
					<trkpt lat="44.391720" lon="5.273540">
						<ele>758</ele>
						<time>2026-09-03T20:22:03Z</time>
					</trkpt>
					<trkpt lat="44.391380" lon="5.273940">
						<ele>759</ele>
						<time>2026-09-03T20:22:25Z</time>
					</trkpt>
					<trkpt lat="44.391170" lon="5.274240">
						<ele>760</ele>
						<time>2026-09-03T20:22:40Z</time>
					</trkpt>
					<trkpt lat="44.391100" lon="5.274300">
						<ele>760</ele>
						<time>2026-09-03T20:22:45Z</time>
					</trkpt>
					<trkpt lat="44.390910" lon="5.274320">
						<ele>758</ele>
						<time>2026-09-03T20:22:54Z</time>
					</trkpt>
					<trkpt lat="44.390580" lon="5.274470">
						<ele>756</ele>
						<time>2026-09-03T20:23:11Z</time>
					</trkpt>
					<trkpt lat="44.390330" lon="5.274720">
						<ele>756</ele>
						<time>2026-09-03T20:23:27Z</time>
					</trkpt>
					<trkpt lat="44.390120" lon="5.274670">
						<ele>750</ele>
						<time>2026-09-03T20:23:37Z</time>
					</trkpt>
					<trkpt lat="44.390040" lon="5.274680">
						<ele>749</ele>
						<time>2026-09-03T20:23:41Z</time>
					</trkpt>
					<trkpt lat="44.389820" lon="5.274880">
						<ele>750</ele>
						<time>2026-09-03T20:23:55Z</time>
					</trkpt>
					<trkpt lat="44.389660" lon="5.274960">
						<ele>749</ele>
						<time>2026-09-03T20:24:03Z</time>
					</trkpt>
					<trkpt lat="44.389420" lon="5.274920">
						<ele>746</ele>
						<time>2026-09-03T20:24:15Z</time>
					</trkpt>
					<trkpt lat="44.389080" lon="5.274900">
						<ele>742</ele>
						<time>2026-09-03T20:24:32Z</time>
					</trkpt>
					<trkpt lat="44.388830" lon="5.274840">
						<ele>739</ele>
						<time>2026-09-03T20:24:45Z</time>
					</trkpt>
					<trkpt lat="44.388530" lon="5.274840">
						<ele>736</ele>
						<time>2026-09-03T20:25:00Z</time>
					</trkpt>
					<trkpt lat="44.388270" lon="5.274890">
						<ele>734</ele>
						<time>2026-09-03T20:25:13Z</time>
					</trkpt>
					<trkpt lat="44.388060" lon="5.274980">
						<ele>733</ele>
						<time>2026-09-03T20:25:24Z</time>
					</trkpt>
					<trkpt lat="44.387920" lon="5.275120">
						<ele>735</ele>
						<time>2026-09-03T20:25:33Z</time>
					</trkpt>
					<trkpt lat="44.387830" lon="5.275160">
						<ele>735</ele>
						<time>2026-09-03T20:25:37Z</time>
					</trkpt>
					<trkpt lat="44.387170" lon="5.275080">
						<ele>727</ele>
						<time>2026-09-03T20:26:11Z</time>
					</trkpt>
					<trkpt lat="44.386810" lon="5.275080">
						<ele>725</ele>
						<time>2026-09-03T20:26:29Z</time>
					</trkpt>
					<trkpt lat="44.386480" lon="5.275130">
						<ele>723</ele>
						<time>2026-09-03T20:26:45Z</time>
					</trkpt>
					<trkpt lat="44.386120" lon="5.275220">
						<ele>720</ele>
						<time>2026-09-03T20:27:03Z</time>
					</trkpt>
					<trkpt lat="44.386020" lon="5.275320">
						<ele>720</ele>
						<time>2026-09-03T20:27:10Z</time>
					</trkpt>
					<trkpt lat="44.385980" lon="5.275470">
						<ele>722</ele>
						<time>2026-09-03T20:27:15Z</time>
					</trkpt>
					<trkpt lat="44.385930" lon="5.275560">
						<ele>723</ele>
						<time>2026-09-03T20:27:19Z</time>
					</trkpt>
					<trkpt lat="44.385430" lon="5.275570">
						<ele>714</ele>
						<time>2026-09-03T20:27:44Z</time>
					</trkpt>
					<trkpt lat="44.385360" lon="5.275630">
						<ele>714</ele>
						<time>2026-09-03T20:27:49Z</time>
					</trkpt>
					<trkpt lat="44.385320" lon="5.275720">
						<ele>714</ele>
						<time>2026-09-03T20:27:52Z</time>
					</trkpt>
					<trkpt lat="44.385320" lon="5.275780">
						<ele>715</ele>
						<time>2026-09-03T20:27:54Z</time>
					</trkpt>
					<trkpt lat="44.385430" lon="5.276230">
						<ele>719</ele>
						<time>2026-09-03T20:28:12Z</time>
					</trkpt>
					<trkpt lat="44.385430" lon="5.276360">
						<ele>720</ele>
						<time>2026-09-03T20:28:16Z</time>
					</trkpt>
					<trkpt lat="44.385380" lon="5.276460">
						<ele>720</ele>
						<time>2026-09-03T20:28:21Z</time>
					</trkpt>
					<trkpt lat="44.385190" lon="5.276490">
						<ele>716</ele>
						<time>2026-09-03T20:28:30Z</time>
					</trkpt>
					<trkpt lat="44.385140" lon="5.276530">
						<ele>716</ele>
						<time>2026-09-03T20:28:33Z</time>
					</trkpt>
					<trkpt lat="44.385110" lon="5.276610">
						<ele>716</ele>
						<time>2026-09-03T20:28:36Z</time>
					</trkpt>
					<trkpt lat="44.385100" lon="5.276800">
						<ele>717</ele>
						<time>2026-09-03T20:28:43Z</time>
					</trkpt>
					<trkpt lat="44.385040" lon="5.276880">
						<ele>717</ele>
						<time>2026-09-03T20:28:47Z</time>
					</trkpt>
					<trkpt lat="44.384970" lon="5.276900">
						<ele>717</ele>
						<time>2026-09-03T20:28:51Z</time>
					</trkpt>
					<trkpt lat="44.384650" lon="5.276870">
						<ele>713</ele>
						<time>2026-09-03T20:29:07Z</time>
					</trkpt>
					<trkpt lat="44.384570" lon="5.276900">
						<ele>712</ele>
						<time>2026-09-03T20:29:11Z</time>
					</trkpt>
					<trkpt lat="44.384480" lon="5.276990">
						<ele>713</ele>
						<time>2026-09-03T20:29:16Z</time>
					</trkpt>
					<trkpt lat="44.384130" lon="5.277020">
						<ele>709</ele>
						<time>2026-09-03T20:29:34Z</time>
					</trkpt>
					<trkpt lat="44.384000" lon="5.276940">
						<ele>706</ele>
						<time>2026-09-03T20:29:41Z</time>
					</trkpt>
					<trkpt lat="44.383680" lon="5.276540">
						<ele>698</ele>
						<time>2026-09-03T20:30:03Z</time>
					</trkpt>
					<trkpt lat="44.383610" lon="5.276510">
						<ele>697</ele>
						<time>2026-09-03T20:30:06Z</time>
					</trkpt>
					<trkpt lat="44.383510" lon="5.276520">
						<ele>696</ele>
						<time>2026-09-03T20:30:11Z</time>
					</trkpt>
					<trkpt lat="44.383320" lon="5.276670">
						<ele>695</ele>
						<time>2026-09-03T20:30:22Z</time>
					</trkpt>
					<trkpt lat="44.383120" lon="5.276770">
						<ele>693</ele>
						<time>2026-09-03T20:30:33Z</time>
					</trkpt>
					<trkpt lat="44.382970" lon="5.276910">
						<ele>693</ele>
						<time>2026-09-03T20:30:42Z</time>
					</trkpt>
					<trkpt lat="44.382780" lon="5.276940">
						<ele>690</ele>
						<time>2026-09-03T20:30:51Z</time>
					</trkpt>
					<trkpt lat="44.382670" lon="5.276990">
						<ele>689</ele>
						<time>2026-09-03T20:30:57Z</time>
					</trkpt>
					<trkpt lat="44.382370" lon="5.277310">
						<ele>687</ele>
						<time>2026-09-03T20:31:16Z</time>
					</trkpt>
					<trkpt lat="44.381770" lon="5.277780">
						<ele>681</ele>
						<time>2026-09-03T20:31:50Z</time>
					</trkpt>
					<trkpt lat="44.381530" lon="5.277940">
						<ele>680</ele>
						<time>2026-09-03T20:32:04Z</time>
					</trkpt>
					<trkpt lat="44.381170" lon="5.278100">
						<ele>676</ele>
						<time>2026-09-03T20:32:23Z</time>
					</trkpt>
					<trkpt lat="44.381000" lon="5.278310">
						<ele>677</ele>
						<time>2026-09-03T20:32:34Z</time>
					</trkpt>
					<trkpt lat="44.380950" lon="5.278600">
						<ele>683</ele>
						<time>2026-09-03T20:32:45Z</time>
					</trkpt>
					<trkpt lat="44.380930" lon="5.278650">
						<ele>684</ele>
						<time>2026-09-03T20:32:47Z</time>
					</trkpt>
					<trkpt lat="44.380870" lon="5.278680">
						<ele>684</ele>
						<time>2026-09-03T20:32:50Z</time>
					</trkpt>
					<trkpt lat="44.380820" lon="5.278670">
						<ele>683</ele>
						<time>2026-09-03T20:32:52Z</time>
					</trkpt>
					<trkpt lat="44.380790" lon="5.278630">
						<ele>682</ele>
						<time>2026-09-03T20:32:55Z</time>
					</trkpt>
					<trkpt lat="44.380440" lon="5.278100">
						<ele>671</ele>
						<time>2026-09-03T20:33:20Z</time>
					</trkpt>
					<trkpt lat="44.380380" lon="5.277980">
						<ele>669</ele>
						<time>2026-09-03T20:33:26Z</time>
					</trkpt>
					<trkpt lat="44.380270" lon="5.277580">
						<ele>663</ele>
						<time>2026-09-03T20:33:41Z</time>
					</trkpt>
					<trkpt lat="44.380030" lon="5.277270">
						<ele>659</ele>
						<time>2026-09-03T20:33:57Z</time>
					</trkpt>
					<trkpt lat="44.379700" lon="5.276740">
						<ele>652</ele>
						<time>2026-09-03T20:34:22Z</time>
					</trkpt>
					<trkpt lat="44.379620" lon="5.276650">
						<ele>651</ele>
						<time>2026-09-03T20:34:28Z</time>
					</trkpt>
					<trkpt lat="44.379580" lon="5.276450">
						<ele>650</ele>
						<time>2026-09-03T20:34:35Z</time>
					</trkpt>
					<trkpt lat="44.379510" lon="5.276290">
						<ele>650</ele>
						<time>2026-09-03T20:34:42Z</time>
					</trkpt>
					<trkpt lat="44.379210" lon="5.275990">
						<ele>649</ele>
						<time>2026-09-03T20:35:00Z</time>
					</trkpt>
					<trkpt lat="44.379150" lon="5.275830">
						<ele>648</ele>
						<time>2026-09-03T20:35:07Z</time>
					</trkpt>
					<trkpt lat="44.379130" lon="5.275660">
						<ele>646</ele>
						<time>2026-09-03T20:35:13Z</time>
					</trkpt>
					<trkpt lat="44.379140" lon="5.275550">
						<ele>645</ele>
						<time>2026-09-03T20:35:17Z</time>
					</trkpt>
					<trkpt lat="44.379230" lon="5.275290">
						<ele>644</ele>
						<time>2026-09-03T20:35:27Z</time>
					</trkpt>
					<trkpt lat="44.379230" lon="5.275220">
						<ele>643</ele>
						<time>2026-09-03T20:35:30Z</time>
					</trkpt>
					<trkpt lat="44.379200" lon="5.275180">
						<ele>643</ele>
						<time>2026-09-03T20:35:32Z</time>
					</trkpt>
					<trkpt lat="44.379140" lon="5.275200">
						<ele>642</ele>
						<time>2026-09-03T20:35:35Z</time>
					</trkpt>
					<trkpt lat="44.378980" lon="5.275480">
						<ele>643</ele>
						<time>2026-09-03T20:35:48Z</time>
					</trkpt>
					<trkpt lat="44.378830" lon="5.275600">
						<ele>642</ele>
						<time>2026-09-03T20:35:56Z</time>
					</trkpt>
					<trkpt lat="44.378720" lon="5.275630">
						<ele>641</ele>
						<time>2026-09-03T20:36:02Z</time>
					</trkpt>
					<trkpt lat="44.378520" lon="5.275640">
						<ele>639</ele>
						<time>2026-09-03T20:36:12Z</time>
					</trkpt>
					<trkpt lat="44.378350" lon="5.275710">
						<ele>638</ele>
						<time>2026-09-03T20:36:21Z</time>
					</trkpt>
					<trkpt lat="44.378110" lon="5.275850">
						<ele>636</ele>
						<time>2026-09-03T20:36:34Z</time>
					</trkpt>
					<trkpt lat="44.377070" lon="5.276100">
						<ele>623</ele>
						<time>2026-09-03T20:37:27Z</time>
					</trkpt>
					<trkpt lat="44.376920" lon="5.276170">
						<ele>620</ele>
						<time>2026-09-03T20:37:34Z</time>
					</trkpt>
					<trkpt lat="44.376800" lon="5.276260">
						<ele>619</ele>
						<time>2026-09-03T20:37:41Z</time>
					</trkpt>
					<trkpt lat="44.376710" lon="5.276400">
						<ele>619</ele>
						<time>2026-09-03T20:37:48Z</time>
					</trkpt>
					<trkpt lat="44.376510" lon="5.276860">
						<ele>616</ele>
						<time>2026-09-03T20:38:07Z</time>
					</trkpt>
					<trkpt lat="44.376400" lon="5.277180">
						<ele>613</ele>
						<time>2026-09-03T20:38:20Z</time>
					</trkpt>
					<trkpt lat="44.376360" lon="5.277210">
						<ele>612</ele>
						<time>2026-09-03T20:38:22Z</time>
					</trkpt>
					<trkpt lat="44.376300" lon="5.277200">
						<ele>611</ele>
						<time>2026-09-03T20:38:25Z</time>
					</trkpt>
					<trkpt lat="44.376240" lon="5.277140">
						<ele>609</ele>
						<time>2026-09-03T20:38:29Z</time>
					</trkpt>
					<trkpt lat="44.375920" lon="5.276200">
						<ele>602</ele>
						<time>2026-09-03T20:39:06Z</time>
					</trkpt>
					<trkpt lat="44.375910" lon="5.275970">
						<ele>601</ele>
						<time>2026-09-03T20:39:14Z</time>
					</trkpt>
					<trkpt lat="44.375950" lon="5.275720">
						<ele>600</ele>
						<time>2026-09-03T20:39:24Z</time>
					</trkpt>
					<trkpt lat="44.376000" lon="5.275600">
						<ele>599</ele>
						<time>2026-09-03T20:39:29Z</time>
					</trkpt>
					<trkpt lat="44.376230" lon="5.275320">
						<ele>600</ele>
						<time>2026-09-03T20:39:44Z</time>
					</trkpt>
					<trkpt lat="44.376260" lon="5.275250">
						<ele>600</ele>
						<time>2026-09-03T20:39:47Z</time>
					</trkpt>
					<trkpt lat="44.376360" lon="5.274690">
						<ele>595</ele>
						<time>2026-09-03T20:40:07Z</time>
					</trkpt>
					<trkpt lat="44.376550" lon="5.274100">
						<ele>589</ele>
						<time>2026-09-03T20:40:30Z</time>
					</trkpt>
					<trkpt lat="44.376650" lon="5.273940">
						<ele>589</ele>
						<time>2026-09-03T20:40:38Z</time>
					</trkpt>
					<trkpt lat="44.376730" lon="5.273860">
						<ele>588</ele>
						<time>2026-09-03T20:40:43Z</time>
					</trkpt>
					<trkpt lat="44.377020" lon="5.273730">
						<ele>590</ele>
						<time>2026-09-03T20:40:58Z</time>
					</trkpt>
					<trkpt lat="44.377090" lon="5.273650">
						<ele>590</ele>
						<time>2026-09-03T20:41:03Z</time>
					</trkpt>
					<trkpt lat="44.377510" lon="5.272720">
						<ele>582</ele>
						<time>2026-09-03T20:41:42Z</time>
					</trkpt>
					<trkpt lat="44.377680" lon="5.272450">
						<ele>580</ele>
						<time>2026-09-03T20:41:55Z</time>
					</trkpt>
					<trkpt lat="44.377690" lon="5.272370">
						<ele>579</ele>
						<time>2026-09-03T20:41:58Z</time>
					</trkpt>
					<trkpt lat="44.377650" lon="5.272310">
						<ele>578</ele>
						<time>2026-09-03T20:42:01Z</time>
					</trkpt>
					<trkpt lat="44.377540" lon="5.272260">
						<ele>576</ele>
						<time>2026-09-03T20:42:07Z</time>
					</trkpt>
					<trkpt lat="44.377340" lon="5.272220">
						<ele>573</ele>
						<time>2026-09-03T20:42:17Z</time>
					</trkpt>
					<trkpt lat="44.377210" lon="5.272220">
						<ele>571</ele>
						<time>2026-09-03T20:42:23Z</time>
					</trkpt>
					<trkpt lat="44.376790" lon="5.272710">
						<ele>571</ele>
						<time>2026-09-03T20:42:51Z</time>
					</trkpt>
					<trkpt lat="44.376740" lon="5.272740">
						<ele>571</ele>
						<time>2026-09-03T20:42:53Z</time>
					</trkpt>
					<trkpt lat="44.376650" lon="5.272740">
						<ele>570</ele>
						<time>2026-09-03T20:42:58Z</time>
					</trkpt>
					<trkpt lat="44.376390" lon="5.272470">
						<ele>564</ele>
						<time>2026-09-03T20:43:14Z</time>
					</trkpt>
					<trkpt lat="44.375990" lon="5.272190">
						<ele>559</ele>
						<time>2026-09-03T20:43:36Z</time>
					</trkpt>
					<trkpt lat="44.375600" lon="5.271640">
						<ele>550</ele>
						<time>2026-09-03T20:44:04Z</time>
					</trkpt>
					<trkpt lat="44.375520" lon="5.271600">
						<ele>548</ele>
						<time>2026-09-03T20:44:08Z</time>
					</trkpt>
					<trkpt lat="44.375440" lon="5.271600">
						<ele>547</ele>
						<time>2026-09-03T20:44:12Z</time>
					</trkpt>
					<trkpt lat="44.375370" lon="5.271640">
						<ele>546</ele>
						<time>2026-09-03T20:44:16Z</time>
					</trkpt>
					<trkpt lat="44.375220" lon="5.271800">
						<ele>546</ele>
						<time>2026-09-03T20:44:26Z</time>
					</trkpt>
					<trkpt lat="44.375150" lon="5.271750">
						<ele>544</ele>
						<time>2026-09-03T20:44:30Z</time>
					</trkpt>
					<trkpt lat="44.375150" lon="5.271620">
						<ele>543</ele>
						<time>2026-09-03T20:44:34Z</time>
					</trkpt>
					<trkpt lat="44.375220" lon="5.271480">
						<ele>542</ele>
						<time>2026-09-03T20:44:40Z</time>
					</trkpt>
					<trkpt lat="44.375560" lon="5.271000">
						<ele>540</ele>
						<time>2026-09-03T20:45:04Z</time>
					</trkpt>
					<trkpt lat="44.375760" lon="5.270650">
						<ele>539</ele>
						<time>2026-09-03T20:45:20Z</time>
					</trkpt>
					<trkpt lat="44.376090" lon="5.270220">
						<ele>538</ele>
						<time>2026-09-03T20:45:43Z</time>
					</trkpt>
					<trkpt lat="44.376120" lon="5.269980">
						<ele>535</ele>
						<time>2026-09-03T20:45:52Z</time>
					</trkpt>
					<trkpt lat="44.376110" lon="5.269740">
						<ele>532</ele>
						<time>2026-09-03T20:46:00Z</time>
					</trkpt>
					<trkpt lat="44.376030" lon="5.269490">
						<ele>529</ele>
						<time>2026-09-03T20:46:10Z</time>
					</trkpt>
					<trkpt lat="44.375980" lon="5.269400">
						<ele>527</ele>
						<time>2026-09-03T20:46:14Z</time>
					</trkpt>
					<trkpt lat="44.375910" lon="5.269340">
						<ele>526</ele>
						<time>2026-09-03T20:46:18Z</time>
					</trkpt>
					<trkpt lat="44.375760" lon="5.269320">
						<ele>524</ele>
						<time>2026-09-03T20:46:26Z</time>
					</trkpt>
					<trkpt lat="44.375650" lon="5.269370">
						<ele>523</ele>
						<time>2026-09-03T20:46:32Z</time>
					</trkpt>
					<trkpt lat="44.375550" lon="5.269460">
						<ele>522</ele>
						<time>2026-09-03T20:46:38Z</time>
					</trkpt>
					<trkpt lat="44.375480" lon="5.269570">
						<ele>522</ele>
						<time>2026-09-03T20:46:43Z</time>
					</trkpt>
					<trkpt lat="44.375270" lon="5.270080">
						<ele>523</ele>
						<time>2026-09-03T20:47:04Z</time>
					</trkpt>
					<trkpt lat="44.375150" lon="5.270280">
						<ele>524</ele>
						<time>2026-09-03T20:47:13Z</time>
					</trkpt>
					<trkpt lat="44.375060" lon="5.270380">
						<ele>523</ele>
						<time>2026-09-03T20:47:19Z</time>
					</trkpt>
					<trkpt lat="44.374680" lon="5.270530">
						<ele>517</ele>
						<time>2026-09-03T20:47:39Z</time>
					</trkpt>
					<trkpt lat="44.374400" lon="5.270770">
						<ele>515</ele>
						<time>2026-09-03T20:47:55Z</time>
					</trkpt>
					<trkpt lat="44.373890" lon="5.271150">
						<ele>507</ele>
						<time>2026-09-03T20:48:24Z</time>
					</trkpt>
					<trkpt lat="44.373640" lon="5.271190">
						<ele>501</ele>
						<time>2026-09-03T20:48:37Z</time>
					</trkpt>
					<trkpt lat="44.373580" lon="5.271250">
						<ele>500</ele>
						<time>2026-09-03T20:48:40Z</time>
					</trkpt>
					<trkpt lat="44.373500" lon="5.271400">
						<ele>499</ele>
						<time>2026-09-03T20:48:47Z</time>
					</trkpt>
					<trkpt lat="44.373480" lon="5.271540">
						<ele>499</ele>
						<time>2026-09-03T20:48:52Z</time>
					</trkpt>
					<trkpt lat="44.373510" lon="5.271700">
						<ele>501</ele>
						<time>2026-09-03T20:48:58Z</time>
					</trkpt>
					<trkpt lat="44.373620" lon="5.271970">
						<ele>506</ele>
						<time>2026-09-03T20:49:09Z</time>
					</trkpt>
					<trkpt lat="44.373600" lon="5.272110">
						<ele>507</ele>
						<time>2026-09-03T20:49:14Z</time>
					</trkpt>
					<trkpt lat="44.373470" lon="5.272270">
						<ele>505</ele>
						<time>2026-09-03T20:49:23Z</time>
					</trkpt>
					<trkpt lat="44.373330" lon="5.272380">
						<ele>503</ele>
						<time>2026-09-03T20:49:31Z</time>
					</trkpt>
					<trkpt lat="44.372890" lon="5.272570">
						<ele>494</ele>
						<time>2026-09-03T20:49:54Z</time>
					</trkpt>
					<trkpt lat="44.372630" lon="5.272760">
						<ele>489</ele>
						<time>2026-09-03T20:50:09Z</time>
					</trkpt>
					<trkpt lat="44.372550" lon="5.272920">
						<ele>489</ele>
						<time>2026-09-03T20:50:16Z</time>
					</trkpt>
					<trkpt lat="44.372440" lon="5.273270">
						<ele>490</ele>
						<time>2026-09-03T20:50:29Z</time>
					</trkpt>
					<trkpt lat="44.372420" lon="5.273700">
						<ele>494</ele>
						<time>2026-09-03T20:50:45Z</time>
					</trkpt>
					<trkpt lat="44.372400" lon="5.273740">
						<ele>494</ele>
						<time>2026-09-03T20:50:47Z</time>
					</trkpt>
					<trkpt lat="44.372330" lon="5.273830">
						<ele>493</ele>
						<time>2026-09-03T20:50:51Z</time>
					</trkpt>
					<trkpt lat="44.372020" lon="5.273990">
						<ele>487</ele>
						<time>2026-09-03T20:51:08Z</time>
					</trkpt>
					<trkpt lat="44.371800" lon="5.274160">
						<ele>483</ele>
						<time>2026-09-03T20:51:20Z</time>
					</trkpt>
					<trkpt lat="44.371600" lon="5.274750">
						<ele>488</ele>
						<time>2026-09-03T20:51:44Z</time>
					</trkpt>
					<trkpt lat="44.371550" lon="5.274830">
						<ele>491</ele>
						<time>2026-09-03T20:51:48Z</time>
					</trkpt>
					<trkpt lat="44.371500" lon="5.274850">
						<ele>493</ele>
						<time>2026-09-03T20:51:50Z</time>
					</trkpt>
					<trkpt lat="44.371410" lon="5.274830">
						<ele>496</ele>
						<time>2026-09-03T20:51:55Z</time>
					</trkpt>
					<trkpt lat="44.371290" lon="5.274740">
						<ele>500</ele>
						<time>2026-09-03T20:52:02Z</time>
					</trkpt>
					<trkpt lat="44.371230" lon="5.274510">
						<ele>500</ele>
						<time>2026-09-03T20:52:10Z</time>
					</trkpt>
					<trkpt lat="44.370990" lon="5.273990">
						<ele>507</ele>
						<time>2026-09-03T20:52:33Z</time>
					</trkpt>
					<trkpt lat="44.370950" lon="5.273770">
						<ele>507</ele>
						<time>2026-09-03T20:52:41Z</time>
					</trkpt>
					<trkpt lat="44.370950" lon="5.273620">
						<ele>507</ele>
						<time>2026-09-03T20:52:46Z</time>
					</trkpt>
					<trkpt lat="44.370980" lon="5.273380">
						<ele>504</ele>
						<time>2026-09-03T20:52:55Z</time>
					</trkpt>
					<trkpt lat="44.371080" lon="5.273090">
						<ele>497</ele>
						<time>2026-09-03T20:53:06Z</time>
					</trkpt>
					<trkpt lat="44.371070" lon="5.272640">
						<ele>494</ele>
						<time>2026-09-03T20:53:22Z</time>
					</trkpt>
					<trkpt lat="44.370990" lon="5.272430">
						<ele>495</ele>
						<time>2026-09-03T20:53:31Z</time>
					</trkpt>
					<trkpt lat="44.370750" lon="5.272000">
						<ele>499</ele>
						<time>2026-09-03T20:53:50Z</time>
					</trkpt>
					<trkpt lat="44.370630" lon="5.271660">
						<ele>499</ele>
						<time>2026-09-03T20:54:04Z</time>
					</trkpt>
					<trkpt lat="44.370330" lon="5.270980">
						<ele>505</ele>
						<time>2026-09-03T20:54:33Z</time>
					</trkpt>
					<trkpt lat="44.370350" lon="5.270410">
						<ele>500</ele>
						<time>2026-09-03T20:54:53Z</time>
					</trkpt>
					<trkpt lat="44.370300" lon="5.269110">
						<ele>501</ele>
						<time>2026-09-03T20:55:40Z</time>
					</trkpt>
					<trkpt lat="44.370280" lon="5.269110">
						<ele>502</ele>
						<time>2026-09-03T20:55:41Z</time>
					</trkpt>
					<trkpt lat="44.370240" lon="5.269200">
						<ele>502</ele>
						<time>2026-09-03T20:55:44Z</time>
					</trkpt>
					<trkpt lat="44.370060" lon="5.269900">
						<ele>508</ele>
						<time>2026-09-03T20:56:11Z</time>
					</trkpt>
					<trkpt lat="44.369690" lon="5.270580">
						<ele>517</ele>
						<time>2026-09-03T20:56:41Z</time>
					</trkpt>
					<trkpt lat="44.369580" lon="5.270700">
						<ele>519</ele>
						<time>2026-09-03T20:56:48Z</time>
					</trkpt>
					<trkpt lat="44.369250" lon="5.270900">
						<ele>524</ele>
						<time>2026-09-03T20:57:06Z</time>
					</trkpt>
					<trkpt lat="44.368790" lon="5.271090">
						<ele>529</ele>
						<time>2026-09-03T20:57:30Z</time>
					</trkpt>
					<trkpt lat="44.368550" lon="5.271100">
						<ele>531</ele>
						<time>2026-09-03T20:57:42Z</time>
					</trkpt>
					<trkpt lat="44.368120" lon="5.271010">
						<ele>535</ele>
						<time>2026-09-03T20:58:04Z</time>
					</trkpt>
					<trkpt lat="44.367650" lon="5.270830">
						<ele>539</ele>
						<time>2026-09-03T20:58:29Z</time>
					</trkpt>
					<trkpt lat="44.367380" lon="5.270770">
						<ele>543</ele>
						<time>2026-09-03T20:58:42Z</time>
					</trkpt>
					<trkpt lat="44.367140" lon="5.270680">
						<ele>547</ele>
						<time>2026-09-03T20:58:55Z</time>
					</trkpt>
					<trkpt lat="44.367030" lon="5.270610">
						<ele>548</ele>
						<time>2026-09-03T20:59:01Z</time>
					</trkpt>
					<trkpt lat="44.366890" lon="5.270360">
						<ele>546</ele>
						<time>2026-09-03T20:59:12Z</time>
					</trkpt>
					<trkpt lat="44.366650" lon="5.269780">
						<ele>539</ele>
						<time>2026-09-03T20:59:36Z</time>
					</trkpt>
					<trkpt lat="44.366440" lon="5.269620">
						<ele>536</ele>
						<time>2026-09-03T20:59:48Z</time>
					</trkpt>
					<trkpt lat="44.366330" lon="5.269580">
						<ele>536</ele>
						<time>2026-09-03T20:59:54Z</time>
					</trkpt>
					<trkpt lat="44.366090" lon="5.269620">
						<ele>539</ele>
						<time>2026-09-03T21:00:06Z</time>
					</trkpt>
					<trkpt lat="44.365490" lon="5.270070">
						<ele>550</ele>
						<time>2026-09-03T21:00:40Z</time>
					</trkpt>
					<trkpt lat="44.365140" lon="5.270110">
						<ele>546</ele>
						<time>2026-09-03T21:00:58Z</time>
					</trkpt>
					<trkpt lat="44.364950" lon="5.270180">
						<ele>544</ele>
						<time>2026-09-03T21:01:07Z</time>
					</trkpt>
					<trkpt lat="44.364890" lon="5.270240">
						<ele>544</ele>
						<time>2026-09-03T21:01:11Z</time>
					</trkpt>
					<trkpt lat="44.364700" lon="5.270610">
						<ele>549</ele>
						<time>2026-09-03T21:01:27Z</time>
					</trkpt>
					<trkpt lat="44.364560" lon="5.270810">
						<ele>551</ele>
						<time>2026-09-03T21:01:37Z</time>
					</trkpt>
					<trkpt lat="44.364410" lon="5.271010">
						<ele>554</ele>
						<time>2026-09-03T21:01:48Z</time>
					</trkpt>
					<trkpt lat="44.364270" lon="5.271140">
						<ele>554</ele>
						<time>2026-09-03T21:01:56Z</time>
					</trkpt>
					<trkpt lat="44.364130" lon="5.271360">
						<ele>557</ele>
						<time>2026-09-03T21:02:07Z</time>
					</trkpt>
					<trkpt lat="44.364060" lon="5.271410">
						<ele>556</ele>
						<time>2026-09-03T21:02:11Z</time>
					</trkpt>
					<trkpt lat="44.363880" lon="5.271720">
						<ele>559</ele>
						<time>2026-09-03T21:02:25Z</time>
					</trkpt>
					<trkpt lat="44.363680" lon="5.271910">
						<ele>555</ele>
						<time>2026-09-03T21:02:37Z</time>
					</trkpt>
					<trkpt lat="44.363630" lon="5.272140">
						<ele>553</ele>
						<time>2026-09-03T21:02:46Z</time>
					</trkpt>
					<trkpt lat="44.363660" lon="5.272380">
						<ele>554</ele>
						<time>2026-09-03T21:02:54Z</time>
					</trkpt>
					<trkpt lat="44.363880" lon="5.273000">
						<ele>556</ele>
						<time>2026-09-03T21:03:19Z</time>
					</trkpt>
					<trkpt lat="44.363880" lon="5.273450">
						<ele>550</ele>
						<time>2026-09-03T21:03:35Z</time>
					</trkpt>
					<trkpt lat="44.363950" lon="5.274130">
						<ele>546</ele>
						<time>2026-09-03T21:04:00Z</time>
					</trkpt>
					<trkpt lat="44.364000" lon="5.274320">
						<ele>545</ele>
						<time>2026-09-03T21:04:07Z</time>
					</trkpt>
					<trkpt lat="44.364060" lon="5.274470">
						<ele>544</ele>
						<time>2026-09-03T21:04:13Z</time>
					</trkpt>
					<trkpt lat="44.364580" lon="5.275140">
						<ele>542</ele>
						<time>2026-09-03T21:04:49Z</time>
					</trkpt>
					<trkpt lat="44.364680" lon="5.275320">
						<ele>541</ele>
						<time>2026-09-03T21:04:57Z</time>
					</trkpt>
					<trkpt lat="44.364860" lon="5.275710">
						<ele>540</ele>
						<time>2026-09-03T21:05:13Z</time>
					</trkpt>
					<trkpt lat="44.364880" lon="5.276010">
						<ele>540</ele>
						<time>2026-09-03T21:05:24Z</time>
					</trkpt>
					<trkpt lat="44.364800" lon="5.276680">
						<ele>539</ele>
						<time>2026-09-03T21:05:48Z</time>
					</trkpt>
					<trkpt lat="44.364760" lon="5.276830">
						<ele>540</ele>
						<time>2026-09-03T21:05:54Z</time>
					</trkpt>
					<trkpt lat="44.364680" lon="5.276970">
						<ele>540</ele>
						<time>2026-09-03T21:06:01Z</time>
					</trkpt>
					<trkpt lat="44.364420" lon="5.277110">
						<ele>533</ele>
						<time>2026-09-03T21:06:14Z</time>
					</trkpt>
					<trkpt lat="44.364340" lon="5.277200">
						<ele>532</ele>
						<time>2026-09-03T21:06:20Z</time>
					</trkpt>
					<trkpt lat="44.364200" lon="5.277480">
						<ele>532</ele>
						<time>2026-09-03T21:06:32Z</time>
					</trkpt>
					<trkpt lat="44.364100" lon="5.277790">
						<ele>528</ele>
						<time>2026-09-03T21:06:44Z</time>
					</trkpt>
					<trkpt lat="44.364180" lon="5.278690">
						<ele>534</ele>
						<time>2026-09-03T21:07:16Z</time>
					</trkpt>
					<trkpt lat="44.364160" lon="5.279040">
						<ele>536</ele>
						<time>2026-09-03T21:07:29Z</time>
					</trkpt>
					<trkpt lat="44.364130" lon="5.279160">
						<ele>535</ele>
						<time>2026-09-03T21:07:34Z</time>
					</trkpt>
					<trkpt lat="44.363760" lon="5.279810">
						<ele>532</ele>
						<time>2026-09-03T21:08:03Z</time>
					</trkpt>
					<trkpt lat="44.363740" lon="5.279930">
						<ele>533</ele>
						<time>2026-09-03T21:08:08Z</time>
					</trkpt>
					<trkpt lat="44.363740" lon="5.280290">
						<ele>533</ele>
						<time>2026-09-03T21:08:21Z</time>
					</trkpt>
					<trkpt lat="44.363780" lon="5.280670">
						<ele>533</ele>
						<time>2026-09-03T21:08:34Z</time>
					</trkpt>
					<trkpt lat="44.363950" lon="5.280870">
						<ele>539</ele>
						<time>2026-09-03T21:08:45Z</time>
					</trkpt>
					<trkpt lat="44.364000" lon="5.280950">
						<ele>540</ele>
						<time>2026-09-03T21:08:49Z</time>
					</trkpt>
					<trkpt lat="44.364010" lon="5.281030">
						<ele>540</ele>
						<time>2026-09-03T21:08:52Z</time>
					</trkpt>
					<trkpt lat="44.363960" lon="5.281510">
						<ele>537</ele>
						<time>2026-09-03T21:09:09Z</time>
					</trkpt>
					<trkpt lat="44.363900" lon="5.281700">
						<ele>534</ele>
						<time>2026-09-03T21:09:17Z</time>
					</trkpt>
					<trkpt lat="44.363850" lon="5.281760">
						<ele>532</ele>
						<time>2026-09-03T21:09:20Z</time>
					</trkpt>
					<trkpt lat="44.363840" lon="5.281830">
						<ele>531</ele>
						<time>2026-09-03T21:09:23Z</time>
					</trkpt>
					<trkpt lat="44.363850" lon="5.281930">
						<ele>530</ele>
						<time>2026-09-03T21:09:26Z</time>
					</trkpt>
					<trkpt lat="44.363910" lon="5.282080">
						<ele>531</ele>
						<time>2026-09-03T21:09:33Z</time>
					</trkpt>
					<trkpt lat="44.364190" lon="5.282390">
						<ele>534</ele>
						<time>2026-09-03T21:09:50Z</time>
					</trkpt>
					<trkpt lat="44.364270" lon="5.282420">
						<ele>535</ele>
						<time>2026-09-03T21:09:55Z</time>
					</trkpt>
					<trkpt lat="44.364490" lon="5.282420">
						<ele>539</ele>
						<time>2026-09-03T21:10:06Z</time>
					</trkpt>
					<trkpt lat="44.364610" lon="5.282480">
						<ele>541</ele>
						<time>2026-09-03T21:10:12Z</time>
					</trkpt>
					<trkpt lat="44.364870" lon="5.282840">
						<ele>540</ele>
						<time>2026-09-03T21:10:30Z</time>
					</trkpt>
					<trkpt lat="44.365090" lon="5.283200">
						<ele>537</ele>
						<time>2026-09-03T21:10:47Z</time>
					</trkpt>
					<trkpt lat="44.365320" lon="5.283240">
						<ele>540</ele>
						<time>2026-09-03T21:10:59Z</time>
					</trkpt>
					<trkpt lat="44.365460" lon="5.283440">
						<ele>539</ele>
						<time>2026-09-03T21:11:09Z</time>
					</trkpt>
					<trkpt lat="44.365700" lon="5.283540">
						<ele>541</ele>
						<time>2026-09-03T21:11:21Z</time>
					</trkpt>
					<trkpt lat="44.365870" lon="5.283880">
						<ele>539</ele>
						<time>2026-09-03T21:11:36Z</time>
					</trkpt>
					<trkpt lat="44.365960" lon="5.283940">
						<ele>539</ele>
						<time>2026-09-03T21:11:41Z</time>
					</trkpt>
					<trkpt lat="44.366020" lon="5.283890">
						<ele>541</ele>
						<time>2026-09-03T21:11:45Z</time>
					</trkpt>
					<trkpt lat="44.366120" lon="5.283720">
						<ele>544</ele>
						<time>2026-09-03T21:11:53Z</time>
					</trkpt>
					<trkpt lat="44.366210" lon="5.283730">
						<ele>545</ele>
						<time>2026-09-03T21:11:57Z</time>
					</trkpt>
					<trkpt lat="44.366240" lon="5.283760">
						<ele>545</ele>
						<time>2026-09-03T21:11:59Z</time>
					</trkpt>
					<trkpt lat="44.366360" lon="5.284260">
						<ele>543</ele>
						<time>2026-09-03T21:12:18Z</time>
					</trkpt>
					<trkpt lat="44.366370" lon="5.284530">
						<ele>545</ele>
						<time>2026-09-03T21:12:27Z</time>
					</trkpt>
					<trkpt lat="44.366310" lon="5.284680">
						<ele>544</ele>
						<time>2026-09-03T21:12:34Z</time>
					</trkpt>
					<trkpt lat="44.366100" lon="5.285000">
						<ele>541</ele>
						<time>2026-09-03T21:12:49Z</time>
					</trkpt>
					<trkpt lat="44.365980" lon="5.285340">
						<ele>542</ele>
						<time>2026-09-03T21:13:03Z</time>
					</trkpt>
					<trkpt lat="44.365900" lon="5.285980">
						<ele>548</ele>
						<time>2026-09-03T21:13:26Z</time>
					</trkpt>
					<trkpt lat="44.365840" lon="5.286200">
						<ele>549</ele>
						<time>2026-09-03T21:13:34Z</time>
					</trkpt>
					<trkpt lat="44.365750" lon="5.286780">
						<ele>553</ele>
						<time>2026-09-03T21:13:56Z</time>
					</trkpt>
					<trkpt lat="44.365770" lon="5.286900">
						<ele>553</ele>
						<time>2026-09-03T21:14:00Z</time>
					</trkpt>
					<trkpt lat="44.365860" lon="5.287130">
						<ele>555</ele>
						<time>2026-09-03T21:14:09Z</time>
					</trkpt>
					<trkpt lat="44.365900" lon="5.287600">
						<ele>558</ele>
						<time>2026-09-03T21:14:26Z</time>
					</trkpt>
					<trkpt lat="44.366030" lon="5.287800">
						<ele>563</ele>
						<time>2026-09-03T21:14:36Z</time>
					</trkpt>
					<trkpt lat="44.366170" lon="5.287930">
						<ele>567</ele>
						<time>2026-09-03T21:14:44Z</time>
					</trkpt>
					<trkpt lat="44.366180" lon="5.288000">
						<ele>568</ele>
						<time>2026-09-03T21:14:47Z</time>
					</trkpt>
					<trkpt lat="44.366170" lon="5.288070">
						<ele>568</ele>
						<time>2026-09-03T21:14:49Z</time>
					</trkpt>
					<trkpt lat="44.366120" lon="5.288130">
						<ele>568</ele>
						<time>2026-09-03T21:14:53Z</time>
					</trkpt>
					<trkpt lat="44.365870" lon="5.288240">
						<ele>565</ele>
						<time>2026-09-03T21:15:06Z</time>
					</trkpt>
					<trkpt lat="44.365520" lon="5.288270">
						<ele>564</ele>
						<time>2026-09-03T21:15:23Z</time>
					</trkpt>
					<trkpt lat="44.365220" lon="5.288250">
						<ele>562</ele>
						<time>2026-09-03T21:15:38Z</time>
					</trkpt>
					<trkpt lat="44.365140" lon="5.288260">
						<ele>562</ele>
						<time>2026-09-03T21:15:42Z</time>
					</trkpt>
					<trkpt lat="44.365020" lon="5.288320">
						<ele>563</ele>
						<time>2026-09-03T21:15:49Z</time>
					</trkpt>
					<trkpt lat="44.364560" lon="5.288810">
						<ele>565</ele>
						<time>2026-09-03T21:16:18Z</time>
					</trkpt>
					<trkpt lat="44.364560" lon="5.289130">
						<ele>571</ele>
						<time>2026-09-03T21:16:29Z</time>
					</trkpt>
					<trkpt lat="44.364480" lon="5.289310">
						<ele>572</ele>
						<time>2026-09-03T21:16:37Z</time>
					</trkpt>
					<trkpt lat="44.364250" lon="5.289400">
						<ele>570</ele>
						<time>2026-09-03T21:16:49Z</time>
					</trkpt>
					<trkpt lat="44.364140" lon="5.289490">
						<ele>570</ele>
						<time>2026-09-03T21:16:55Z</time>
					</trkpt>
					<trkpt lat="44.363670" lon="5.289370">
						<ele>563</ele>
						<time>2026-09-03T21:17:19Z</time>
					</trkpt>
					<trkpt lat="44.363390" lon="5.289150">
						<ele>559</ele>
						<time>2026-09-03T21:17:35Z</time>
					</trkpt>
					<trkpt lat="44.363300" lon="5.289130">
						<ele>558</ele>
						<time>2026-09-03T21:17:40Z</time>
					</trkpt>
					<trkpt lat="44.363260" lon="5.289170">
						<ele>557</ele>
						<time>2026-09-03T21:17:42Z</time>
					</trkpt>
					<trkpt lat="44.363220" lon="5.289230">
						<ele>557</ele>
						<time>2026-09-03T21:17:45Z</time>
					</trkpt>
					<trkpt lat="44.363230" lon="5.289570">
						<ele>558</ele>
						<time>2026-09-03T21:17:57Z</time>
					</trkpt>
					<trkpt lat="44.363260" lon="5.289800">
						<ele>560</ele>
						<time>2026-09-03T21:18:06Z</time>
					</trkpt>
					<trkpt lat="44.363330" lon="5.289960">
						<ele>562</ele>
						<time>2026-09-03T21:18:12Z</time>
					</trkpt>
					<trkpt lat="44.363380" lon="5.290170">
						<ele>564</ele>
						<time>2026-09-03T21:18:20Z</time>
					</trkpt>
					<trkpt lat="44.363410" lon="5.290820">
						<ele>568</ele>
						<time>2026-09-03T21:18:44Z</time>
					</trkpt>
					<trkpt lat="44.363380" lon="5.291210">
						<ele>568</ele>
						<time>2026-09-03T21:18:58Z</time>
					</trkpt>
					<trkpt lat="44.363180" lon="5.291560">
						<ele>564</ele>
						<time>2026-09-03T21:19:14Z</time>
					</trkpt>
					<trkpt lat="44.363170" lon="5.291980">
						<ele>560</ele>
						<time>2026-09-03T21:19:29Z</time>
					</trkpt>
					<trkpt lat="44.363130" lon="5.292170">
						<ele>557</ele>
						<time>2026-09-03T21:19:36Z</time>
					</trkpt>
					<trkpt lat="44.363210" lon="5.292500">
						<ele>555</ele>
						<time>2026-09-03T21:19:48Z</time>
					</trkpt>
					<trkpt lat="44.363290" lon="5.292600">
						<ele>555</ele>
						<time>2026-09-03T21:19:54Z</time>
					</trkpt>
					<trkpt lat="44.363340" lon="5.292620">
						<ele>556</ele>
						<time>2026-09-03T21:19:56Z</time>
					</trkpt>
					<trkpt lat="44.363810" lon="5.292610">
						<ele>559</ele>
						<time>2026-09-03T21:20:20Z</time>
					</trkpt>
					<trkpt lat="44.363920" lon="5.292630">
						<ele>559</ele>
						<time>2026-09-03T21:20:25Z</time>
					</trkpt>
					<trkpt lat="44.364330" lon="5.292520">
						<ele>564</ele>
						<time>2026-09-03T21:20:46Z</time>
					</trkpt>
					<trkpt lat="44.364570" lon="5.292500">
						<ele>566</ele>
						<time>2026-09-03T21:20:58Z</time>
					</trkpt>
					<trkpt lat="44.364750" lon="5.292590">
						<ele>565</ele>
						<time>2026-09-03T21:21:08Z</time>
					</trkpt>
					<trkpt lat="44.364880" lon="5.292740">
						<ele>563</ele>
						<time>2026-09-03T21:21:16Z</time>
					</trkpt>
					<trkpt lat="44.365170" lon="5.292870">
						<ele>566</ele>
						<time>2026-09-03T21:21:31Z</time>
					</trkpt>
					<trkpt lat="44.365180" lon="5.293010">
						<ele>563</ele>
						<time>2026-09-03T21:21:36Z</time>
					</trkpt>
					<trkpt lat="44.365150" lon="5.293110">
						<ele>560</ele>
						<time>2026-09-03T21:21:40Z</time>
					</trkpt>
					<trkpt lat="44.365140" lon="5.293360">
						<ele>555</ele>
						<time>2026-09-03T21:21:49Z</time>
					</trkpt>
					<trkpt lat="44.365180" lon="5.293520">
						<ele>556</ele>
						<time>2026-09-03T21:21:55Z</time>
					</trkpt>
					<trkpt lat="44.365290" lon="5.293780">
						<ele>558</ele>
						<time>2026-09-03T21:22:06Z</time>
					</trkpt>
					<trkpt lat="44.365460" lon="5.294060">
						<ele>560</ele>
						<time>2026-09-03T21:22:19Z</time>
					</trkpt>
					<trkpt lat="44.365620" lon="5.294420">
						<ele>563</ele>
						<time>2026-09-03T21:22:34Z</time>
					</trkpt>
					<trkpt lat="44.365620" lon="5.294530">
						<ele>564</ele>
						<time>2026-09-03T21:22:38Z</time>
					</trkpt>
					<trkpt lat="44.365570" lon="5.294550">
						<ele>564</ele>
						<time>2026-09-03T21:22:41Z</time>
					</trkpt>
					<trkpt lat="44.365480" lon="5.294530">
						<ele>563</ele>
						<time>2026-09-03T21:22:46Z</time>
					</trkpt>
					<trkpt lat="44.365260" lon="5.294380">
						<ele>560</ele>
						<time>2026-09-03T21:22:58Z</time>
					</trkpt>
					<trkpt lat="44.364830" lon="5.294180">
						<ele>555</ele>
						<time>2026-09-03T21:23:20Z</time>
					</trkpt>
					<trkpt lat="44.364550" lon="5.294230">
						<ele>558</ele>
						<time>2026-09-03T21:23:35Z</time>
					</trkpt>
					<trkpt lat="44.364330" lon="5.294140">
						<ele>557</ele>
						<time>2026-09-03T21:23:46Z</time>
					</trkpt>
					<trkpt lat="44.364230" lon="5.294140">
						<ele>558</ele>
						<time>2026-09-03T21:23:51Z</time>
					</trkpt>
					<trkpt lat="44.364040" lon="5.294200">
						<ele>559</ele>
						<time>2026-09-03T21:24:01Z</time>
					</trkpt>
					<trkpt lat="44.363920" lon="5.294280">
						<ele>560</ele>
						<time>2026-09-03T21:24:07Z</time>
					</trkpt>
					<trkpt lat="44.363820" lon="5.294410">
						<ele>563</ele>
						<time>2026-09-03T21:24:14Z</time>
					</trkpt>
					<trkpt lat="44.363690" lon="5.294690">
						<ele>570</ele>
						<time>2026-09-03T21:24:26Z</time>
					</trkpt>
					<trkpt lat="44.363530" lon="5.294760">
						<ele>571</ele>
						<time>2026-09-03T21:24:35Z</time>
					</trkpt>
					<trkpt lat="44.363400" lon="5.294760">
						<ele>571</ele>
						<time>2026-09-03T21:24:41Z</time>
					</trkpt>
					<trkpt lat="44.363280" lon="5.294640">
						<ele>567</ele>
						<time>2026-09-03T21:24:49Z</time>
					</trkpt>
					<trkpt lat="44.363220" lon="5.294610">
						<ele>567</ele>
						<time>2026-09-03T21:24:52Z</time>
					</trkpt>
					<trkpt lat="44.363130" lon="5.294620">
						<ele>568</ele>
						<time>2026-09-03T21:24:56Z</time>
					</trkpt>
					<trkpt lat="44.362840" lon="5.294720">
						<ele>573</ele>
						<time>2026-09-03T21:25:11Z</time>
					</trkpt>
					<trkpt lat="44.362720" lon="5.294730">
						<ele>574</ele>
						<time>2026-09-03T21:25:17Z</time>
					</trkpt>
					<trkpt lat="44.362500" lon="5.294690">
						<ele>575</ele>
						<time>2026-09-03T21:25:28Z</time>
					</trkpt>
					<trkpt lat="44.362320" lon="5.294620">
						<ele>577</ele>
						<time>2026-09-03T21:25:38Z</time>
					</trkpt>
					<trkpt lat="44.361860" lon="5.294560">
						<ele>586</ele>
						<time>2026-09-03T21:26:01Z</time>
					</trkpt>
					<trkpt lat="44.361500" lon="5.294310">
						<ele>589</ele>
						<time>2026-09-03T21:26:21Z</time>
					</trkpt>
					<trkpt lat="44.361250" lon="5.294170">
						<ele>591</ele>
						<time>2026-09-03T21:26:34Z</time>
					</trkpt>
					<trkpt lat="44.361020" lon="5.294070">
						<ele>594</ele>
						<time>2026-09-03T21:26:46Z</time>
					</trkpt>
					<trkpt lat="44.360760" lon="5.294050">
						<ele>601</ele>
						<time>2026-09-03T21:26:59Z</time>
					</trkpt>
					<trkpt lat="44.360700" lon="5.294010">
						<ele>602</ele>
						<time>2026-09-03T21:27:03Z</time>
					</trkpt>
					<trkpt lat="44.360320" lon="5.293610">
						<ele>605</ele>
						<time>2026-09-03T21:27:27Z</time>
					</trkpt>
					<trkpt lat="44.360170" lon="5.293410">
						<ele>606</ele>
						<time>2026-09-03T21:27:37Z</time>
					</trkpt>
					<trkpt lat="44.359340" lon="5.291960">
						<ele>606</ele>
						<time>2026-09-03T21:28:43Z</time>
					</trkpt>
					<trkpt lat="44.358610" lon="5.291400">
						<ele>607</ele>
						<time>2026-09-03T21:29:25Z</time>
					</trkpt>
					<trkpt lat="44.358510" lon="5.291360">
						<ele>607</ele>
						<time>2026-09-03T21:29:30Z</time>
					</trkpt>
					<trkpt lat="44.358390" lon="5.291420">
						<ele>608</ele>
						<time>2026-09-03T21:29:37Z</time>
					</trkpt>
					<trkpt lat="44.358040" lon="5.291740">
						<ele>604</ele>
						<time>2026-09-03T21:29:58Z</time>
					</trkpt>
					<trkpt lat="44.357830" lon="5.292050">
						<ele>601</ele>
						<time>2026-09-03T21:30:13Z</time>
					</trkpt>
					<trkpt lat="44.357480" lon="5.292900">
						<ele>594</ele>
						<time>2026-09-03T21:30:48Z</time>
					</trkpt>
					<trkpt lat="44.357380" lon="5.293300">
						<ele>590</ele>
						<time>2026-09-03T21:31:03Z</time>
					</trkpt>
					<trkpt lat="44.357330" lon="5.293790">
						<ele>588</ele>
						<time>2026-09-03T21:31:21Z</time>
					</trkpt>
					<trkpt lat="44.357150" lon="5.294080">
						<ele>584</ele>
						<time>2026-09-03T21:31:35Z</time>
					</trkpt>
					<trkpt lat="44.357090" lon="5.294220">
						<ele>582</ele>
						<time>2026-09-03T21:31:40Z</time>
					</trkpt>
					<trkpt lat="44.357030" lon="5.294500">
						<ele>579</ele>
						<time>2026-09-03T21:31:51Z</time>
					</trkpt>
					<trkpt lat="44.357020" lon="5.294730">
						<ele>577</ele>
						<time>2026-09-03T21:31:59Z</time>
					</trkpt>
					<trkpt lat="44.356950" lon="5.294750">
						<ele>575</ele>
						<time>2026-09-03T21:32:03Z</time>
					</trkpt>
					<trkpt lat="44.356910" lon="5.294700">
						<ele>575</ele>
						<time>2026-09-03T21:32:05Z</time>
					</trkpt>
					<trkpt lat="44.356640" lon="5.293730">
						<ele>572</ele>
						<time>2026-09-03T21:32:43Z</time>
					</trkpt>
					<trkpt lat="44.356280" lon="5.292900">
						<ele>567</ele>
						<time>2026-09-03T21:33:17Z</time>
					</trkpt>
					<trkpt lat="44.355420" lon="5.290580">
						<ele>556</ele>
						<time>2026-09-03T21:34:51Z</time>
					</trkpt>
					<trkpt lat="44.355320" lon="5.290470">
						<ele>554</ele>
						<time>2026-09-03T21:34:57Z</time>
					</trkpt>
					<trkpt lat="44.354700" lon="5.289990">
						<ele>544</ele>
						<time>2026-09-03T21:35:33Z</time>
					</trkpt>
					<trkpt lat="44.353600" lon="5.289000">
						<ele>531</ele>
						<time>2026-09-03T21:36:38Z</time>
					</trkpt>
					<trkpt lat="44.353420" lon="5.288720">
						<ele>529</ele>
						<time>2026-09-03T21:36:52Z</time>
					</trkpt>
					<trkpt lat="44.352910" lon="5.287610">
						<ele>521</ele>
						<time>2026-09-03T21:37:39Z</time>
					</trkpt>
					<trkpt lat="44.352800" lon="5.287440">
						<ele>520</ele>
						<time>2026-09-03T21:37:47Z</time>
					</trkpt>
					<trkpt lat="44.352470" lon="5.287040">
						<ele>516</ele>
						<time>2026-09-03T21:38:09Z</time>
					</trkpt>
					<trkpt lat="44.352000" lon="5.286630">
						<ele>508</ele>
						<time>2026-09-03T21:38:37Z</time>
					</trkpt>
					<trkpt lat="44.351740" lon="5.286560">
						<ele>503</ele>
						<time>2026-09-03T21:38:50Z</time>
					</trkpt>
					<trkpt lat="44.351310" lon="5.286290">
						<ele>496</ele>
						<time>2026-09-03T21:39:13Z</time>
					</trkpt>
					<trkpt lat="44.351100" lon="5.286130">
						<ele>493</ele>
						<time>2026-09-03T21:39:25Z</time>
					</trkpt>
					<trkpt lat="44.350740" lon="5.285990">
						<ele>488</ele>
						<time>2026-09-03T21:39:44Z</time>
					</trkpt>
					<trkpt lat="44.349880" lon="5.285430">
						<ele>472</ele>
						<time>2026-09-03T21:40:32Z</time>
					</trkpt>
					<trkpt lat="44.349260" lon="5.285090">
						<ele>464</ele>
						<time>2026-09-03T21:41:05Z</time>
					</trkpt>
					<trkpt lat="44.348870" lon="5.284980">
						<ele>458</ele>
						<time>2026-09-03T21:41:25Z</time>
					</trkpt>
					<trkpt lat="44.348770" lon="5.285010">
						<ele>457</ele>
						<time>2026-09-03T21:41:30Z</time>
					</trkpt>
					<trkpt lat="44.348570" lon="5.285310">
						<ele>452</ele>
						<time>2026-09-03T21:41:45Z</time>
					</trkpt>
					<trkpt lat="44.348550" lon="5.285670">
						<ele>450</ele>
						<time>2026-09-03T21:41:58Z</time>
					</trkpt>
					<trkpt lat="44.348520" lon="5.285710">
						<ele>449</ele>
						<time>2026-09-03T21:42:00Z</time>
					</trkpt>
					<trkpt lat="44.348480" lon="5.285700">
						<ele>449</ele>
						<time>2026-09-03T21:42:02Z</time>
					</trkpt>
					<trkpt lat="44.347950" lon="5.285340">
						<ele>441</ele>
						<time>2026-09-03T21:42:31Z</time>
					</trkpt>
					<trkpt lat="44.347690" lon="5.285210">
						<ele>438</ele>
						<time>2026-09-03T21:42:45Z</time>
					</trkpt>
					<trkpt lat="44.347380" lon="5.285120">
						<ele>433</ele>
						<time>2026-09-03T21:43:01Z</time>
					</trkpt>
					<trkpt lat="44.347240" lon="5.285040">
						<ele>432</ele>
						<time>2026-09-03T21:43:08Z</time>
					</trkpt>
					<trkpt lat="44.347140" lon="5.284910">
						<ele>430</ele>
						<time>2026-09-03T21:43:15Z</time>
					</trkpt>
					<trkpt lat="44.347070" lon="5.284680">
						<ele>429</ele>
						<time>2026-09-03T21:43:24Z</time>
					</trkpt>
					<trkpt lat="44.347020" lon="5.284650">
						<ele>429</ele>
						<time>2026-09-03T21:43:27Z</time>
					</trkpt>
					<trkpt lat="44.346820" lon="5.284300">
						<ele>426</ele>
						<time>2026-09-03T21:43:43Z</time>
					</trkpt>
					<trkpt lat="44.346610" lon="5.284110">
						<ele>422</ele>
						<time>2026-09-03T21:43:55Z</time>
					</trkpt>
					<trkpt lat="44.345920" lon="5.283780">
						<ele>415</ele>
						<time>2026-09-03T21:44:32Z</time>
					</trkpt>
					<trkpt lat="44.345830" lon="5.283590">
						<ele>414</ele>
						<time>2026-09-03T21:44:40Z</time>
					</trkpt>
					<trkpt lat="44.345780" lon="5.283570">
						<ele>414</ele>
						<time>2026-09-03T21:44:43Z</time>
					</trkpt>
					<trkpt lat="44.345790" lon="5.283480">
						<ele>413</ele>
						<time>2026-09-03T21:44:46Z</time>
					</trkpt>
					<trkpt lat="44.345550" lon="5.283390">
						<ele>411</ele>
						<time>2026-09-03T21:44:58Z</time>
					</trkpt>
					<trkpt lat="44.345400" lon="5.283370">
						<ele>410</ele>
						<time>2026-09-03T21:45:06Z</time>
					</trkpt>
					<trkpt lat="44.345210" lon="5.283460">
						<ele>409</ele>
						<time>2026-09-03T21:45:16Z</time>
					</trkpt>
					<trkpt lat="44.345170" lon="5.283380">
						<ele>408</ele>
						<time>2026-09-03T21:45:19Z</time>
					</trkpt>
					<trkpt lat="44.345130" lon="5.283390">
						<ele>408</ele>
						<time>2026-09-03T21:45:21Z</time>
					</trkpt>
					<trkpt lat="44.345150" lon="5.283450">
						<ele>409</ele>
						<time>2026-09-03T21:45:24Z</time>
					</trkpt>
					<trkpt lat="44.345120" lon="5.283460">
						<ele>408</ele>
						<time>2026-09-03T21:45:25Z</time>
					</trkpt>
					<trkpt lat="44.345090" lon="5.283390">
						<ele>408</ele>
						<time>2026-09-03T21:45:28Z</time>
					</trkpt>
					<trkpt lat="44.345020" lon="5.283410">
						<ele>407</ele>
						<time>2026-09-03T21:45:32Z</time>
					</trkpt>
					<trkpt lat="44.344990" lon="5.283310">
						<ele>407</ele>
						<time>2026-09-03T21:45:36Z</time>
					</trkpt>
					<trkpt lat="44.344890" lon="5.283330">
						<ele>407</ele>
						<time>2026-09-03T21:45:41Z</time>
					</trkpt>
					<trkpt lat="44.344790" lon="5.283150">
						<ele>406</ele>
						<time>2026-09-03T21:45:49Z</time>
					</trkpt>
					<trkpt lat="44.344660" lon="5.282800">
						<ele>404</ele>
						<time>2026-09-03T21:46:03Z</time>
					</trkpt>
					<trkpt lat="44.344800" lon="5.282600">
						<ele>403</ele>
						<time>2026-09-03T21:46:13Z</time>
					</trkpt>
					<trkpt lat="44.344920" lon="5.282020">
						<ele>404</ele>
						<time>2026-09-03T21:46:35Z</time>
					</trkpt>
					<trkpt lat="44.345020" lon="5.281770">
						<ele>404</ele>
						<time>2026-09-03T21:46:45Z</time>
					</trkpt>
					<trkpt lat="44.344880" lon="5.281470">
						<ele>406</ele>
						<time>2026-09-03T21:46:58Z</time>
					</trkpt>
					<trkpt lat="44.344740" lon="5.280980">
						<ele>410</ele>
						<time>2026-09-03T21:47:17Z</time>
					</trkpt>
					<trkpt lat="44.344730" lon="5.280830">
						<ele>411</ele>
						<time>2026-09-03T21:47:22Z</time>
					</trkpt>
					<trkpt lat="44.344780" lon="5.280560">
						<ele>413</ele>
						<time>2026-09-03T21:47:32Z</time>
					</trkpt>
					<trkpt lat="44.344780" lon="5.280370">
						<ele>415</ele>
						<time>2026-09-03T21:47:39Z</time>
					</trkpt>
					<trkpt lat="44.344680" lon="5.279870">
						<ele>419</ele>
						<time>2026-09-03T21:47:57Z</time>
					</trkpt>
					<trkpt lat="44.343980" lon="5.278730">
						<ele>420</ele>
						<time>2026-09-03T21:48:51Z</time>
					</trkpt>
					<trkpt lat="44.343940" lon="5.278630">
						<ele>421</ele>
						<time>2026-09-03T21:48:55Z</time>
					</trkpt>
					<trkpt lat="44.343910" lon="5.278400">
						<ele>422</ele>
						<time>2026-09-03T21:49:04Z</time>
					</trkpt>
					<trkpt lat="44.343870" lon="5.278370">
						<ele>422</ele>
						<time>2026-09-03T21:49:06Z</time>
					</trkpt>
					<trkpt lat="44.343670" lon="5.278340">
						<ele>419</ele>
						<time>2026-09-03T21:49:16Z</time>
					</trkpt>
					<trkpt lat="44.343600" lon="5.278290">
						<ele>419</ele>
						<time>2026-09-03T21:49:20Z</time>
					</trkpt>
					<trkpt lat="44.343440" lon="5.278030">
						<ele>419</ele>
						<time>2026-09-03T21:49:32Z</time>
					</trkpt>
					<trkpt lat="44.343280" lon="5.277700">
						<ele>420</ele>
						<time>2026-09-03T21:49:46Z</time>
					</trkpt>
					<trkpt lat="44.343120" lon="5.277300">
						<ele>422</ele>
						<time>2026-09-03T21:50:03Z</time>
					</trkpt>
					<trkpt lat="44.342880" lon="5.276550">
						<ele>426</ele>
						<time>2026-09-03T21:50:32Z</time>
					</trkpt>
					<trkpt lat="44.342680" lon="5.275570">
						<ele>429</ele>
						<time>2026-09-03T21:51:09Z</time>
					</trkpt>
					<trkpt lat="44.342460" lon="5.274870">
						<ele>431</ele>
						<time>2026-09-03T21:51:36Z</time>
					</trkpt>
					<trkpt lat="44.341500" lon="5.273420">
						<ele>432</ele>
						<time>2026-09-03T21:52:47Z</time>
					</trkpt>
					<trkpt lat="44.340960" lon="5.272750">
						<ele>431</ele>
						<time>2026-09-03T21:53:23Z</time>
					</trkpt>
					<trkpt lat="44.340900" lon="5.272520">
						<ele>431</ele>
						<time>2026-09-03T21:53:32Z</time>
					</trkpt>
					<trkpt lat="44.340900" lon="5.271860">
						<ele>432</ele>
						<time>2026-09-03T21:53:55Z</time>
					</trkpt>
					<trkpt lat="44.340990" lon="5.271700">
						<ele>435</ele>
						<time>2026-09-03T21:54:03Z</time>
					</trkpt>
					<trkpt lat="44.341030" lon="5.271140">
						<ele>438</ele>
						<time>2026-09-03T21:54:23Z</time>
					</trkpt>
					<trkpt lat="44.341010" lon="5.270960">
						<ele>438</ele>
						<time>2026-09-03T21:54:29Z</time>
					</trkpt>
					<trkpt lat="44.340870" lon="5.270460">
						<ele>438</ele>
						<time>2026-09-03T21:54:49Z</time>
					</trkpt>
					<trkpt lat="44.340940" lon="5.270240">
						<ele>442</ele>
						<time>2026-09-03T21:54:57Z</time>
					</trkpt>
					<trkpt lat="44.341160" lon="5.269840">
						<ele>449</ele>
						<time>2026-09-03T21:55:15Z</time>
					</trkpt>
					<trkpt lat="44.341270" lon="5.269380">
						<ele>451</ele>
						<time>2026-09-03T21:55:33Z</time>
					</trkpt>
					<trkpt lat="44.341320" lon="5.268750">
						<ele>452</ele>
						<time>2026-09-03T21:55:55Z</time>
					</trkpt>
					<trkpt lat="44.341340" lon="5.268110">
						<ele>454</ele>
						<time>2026-09-03T21:56:18Z</time>
					</trkpt>
					<trkpt lat="44.341310" lon="5.267850">
						<ele>454</ele>
						<time>2026-09-03T21:56:28Z</time>
					</trkpt>
					<trkpt lat="44.341240" lon="5.267560">
						<ele>454</ele>
						<time>2026-09-03T21:56:39Z</time>
					</trkpt>
					<trkpt lat="44.341240" lon="5.267440">
						<ele>455</ele>
						<time>2026-09-03T21:56:43Z</time>
					</trkpt>
					<trkpt lat="44.341270" lon="5.267280">
						<ele>456</ele>
						<time>2026-09-03T21:56:49Z</time>
					</trkpt>
					<trkpt lat="44.341420" lon="5.266880">
						<ele>459</ele>
						<time>2026-09-03T21:57:05Z</time>
					</trkpt>
					<trkpt lat="44.341450" lon="5.266650">
						<ele>460</ele>
						<time>2026-09-03T21:57:13Z</time>
					</trkpt>
					<trkpt lat="44.341350" lon="5.265810">
						<ele>458</ele>
						<time>2026-09-03T21:57:44Z</time>
					</trkpt>
					<trkpt lat="44.340950" lon="5.265130">
						<ele>455</ele>
						<time>2026-09-03T21:58:15Z</time>
					</trkpt>
					<trkpt lat="44.340820" lon="5.264820">
						<ele>455</ele>
						<time>2026-09-03T21:58:28Z</time>
					</trkpt>
					<trkpt lat="44.340710" lon="5.263720">
						<ele>461</ele>
						<time>2026-09-03T21:59:08Z</time>
					</trkpt>
					<trkpt lat="44.340710" lon="5.263500">
						<ele>461</ele>
						<time>2026-09-03T21:59:16Z</time>
					</trkpt>
					<trkpt lat="44.340780" lon="5.263260">
						<ele>461</ele>
						<time>2026-09-03T21:59:25Z</time>
					</trkpt>
					<trkpt lat="44.340970" lon="5.262810">
						<ele>463</ele>
						<time>2026-09-03T21:59:44Z</time>
					</trkpt>
					<trkpt lat="44.341300" lon="5.262400">
						<ele>469</ele>
						<time>2026-09-03T22:00:06Z</time>
					</trkpt>
					<trkpt lat="44.341560" lon="5.261880">
						<ele>470</ele>
						<time>2026-09-03T22:00:29Z</time>
					</trkpt>
					<trkpt lat="44.341710" lon="5.261660">
						<ele>470</ele>
						<time>2026-09-03T22:00:39Z</time>
					</trkpt>
					<trkpt lat="44.341840" lon="5.261200">
						<ele>468</ele>
						<time>2026-09-03T22:00:57Z</time>
					</trkpt>
					<trkpt lat="44.341960" lon="5.260940">
						<ele>468</ele>
						<time>2026-09-03T22:01:08Z</time>
					</trkpt>
					<trkpt lat="44.342050" lon="5.260880">
						<ele>469</ele>
						<time>2026-09-03T22:01:13Z</time>
					</trkpt>
					<trkpt lat="44.342210" lon="5.260930">
						<ele>473</ele>
						<time>2026-09-03T22:01:21Z</time>
					</trkpt>
					<trkpt lat="44.342260" lon="5.260890">
						<ele>474</ele>
						<time>2026-09-03T22:01:24Z</time>
					</trkpt>
					<trkpt lat="44.342290" lon="5.260800">
						<ele>474</ele>
						<time>2026-09-03T22:01:28Z</time>
					</trkpt>
					<trkpt lat="44.342350" lon="5.260370">
						<ele>474</ele>
						<time>2026-09-03T22:01:43Z</time>
					</trkpt>
					<trkpt lat="44.342320" lon="5.260170">
						<ele>473</ele>
						<time>2026-09-03T22:01:51Z</time>
					</trkpt>
					<trkpt lat="44.342330" lon="5.260040">
						<ele>473</ele>
						<time>2026-09-03T22:01:55Z</time>
					</trkpt>
					<trkpt lat="44.342360" lon="5.259930">
						<ele>474</ele>
						<time>2026-09-03T22:02:00Z</time>
					</trkpt>
					<trkpt lat="44.342480" lon="5.259770">
						<ele>476</ele>
						<time>2026-09-03T22:02:08Z</time>
					</trkpt>
					<trkpt lat="44.342500" lon="5.259670">
						<ele>476</ele>
						<time>2026-09-03T22:02:12Z</time>
					</trkpt>
					<trkpt lat="44.342450" lon="5.259320">
						<ele>475</ele>
						<time>2026-09-03T22:02:24Z</time>
					</trkpt>
					<trkpt lat="44.342420" lon="5.258860">
						<ele>475</ele>
						<time>2026-09-03T22:02:41Z</time>
					</trkpt>
					<trkpt lat="44.342420" lon="5.258640">
						<ele>475</ele>
						<time>2026-09-03T22:02:49Z</time>
					</trkpt>
					<trkpt lat="44.342470" lon="5.258180">
						<ele>475</ele>
						<time>2026-09-03T22:03:06Z</time>
					</trkpt>
					<trkpt lat="44.342420" lon="5.257910">
						<ele>475</ele>
						<time>2026-09-03T22:03:16Z</time>
					</trkpt>
					<trkpt lat="44.342430" lon="5.257820">
						<ele>475</ele>
						<time>2026-09-03T22:03:19Z</time>
					</trkpt>
					<trkpt lat="44.342540" lon="5.257570">
						<ele>476</ele>
						<time>2026-09-03T22:03:29Z</time>
					</trkpt>
					<trkpt lat="44.342940" lon="5.256990">
						<ele>486</ele>
						<time>2026-09-03T22:03:58Z</time>
					</trkpt>
					<trkpt lat="44.343040" lon="5.256800">
						<ele>487</ele>
						<time>2026-09-03T22:04:07Z</time>
					</trkpt>
					<trkpt lat="44.343140" lon="5.256530">
						<ele>486</ele>
						<time>2026-09-03T22:04:17Z</time>
					</trkpt>
					<trkpt lat="44.343310" lon="5.255630">
						<ele>480</ele>
						<time>2026-09-03T22:04:51Z</time>
					</trkpt>
					<trkpt lat="44.343310" lon="5.255460">
						<ele>481</ele>
						<time>2026-09-03T22:04:57Z</time>
					</trkpt>
					<trkpt lat="44.343210" lon="5.255140">
						<ele>482</ele>
						<time>2026-09-03T22:05:09Z</time>
					</trkpt>
					<trkpt lat="44.343250" lon="5.254380">
						<ele>481</ele>
						<time>2026-09-03T22:05:37Z</time>
					</trkpt>
					<trkpt lat="44.343330" lon="5.254170">
						<ele>480</ele>
						<time>2026-09-03T22:05:45Z</time>
					</trkpt>
					<trkpt lat="44.343600" lon="5.253900">
						<ele>485</ele>
						<time>2026-09-03T22:06:02Z</time>
					</trkpt>
					<trkpt lat="44.343680" lon="5.253730">
						<ele>486</ele>
						<time>2026-09-03T22:06:09Z</time>
					</trkpt>
					<trkpt lat="44.343660" lon="5.253580">
						<ele>484</ele>
						<time>2026-09-03T22:06:14Z</time>
					</trkpt>
					<trkpt lat="44.343470" lon="5.253110">
						<ele>481</ele>
						<time>2026-09-03T22:06:34Z</time>
					</trkpt>
					<trkpt lat="44.343290" lon="5.252160">
						<ele>487</ele>
						<time>2026-09-03T22:07:09Z</time>
					</trkpt>
					<trkpt lat="44.343180" lon="5.251800">
						<ele>490</ele>
						<time>2026-09-03T22:07:23Z</time>
					</trkpt>
					<trkpt lat="44.343080" lon="5.251590">
						<ele>491</ele>
						<time>2026-09-03T22:07:32Z</time>
					</trkpt>
					<trkpt lat="44.342990" lon="5.251290">
						<ele>493</ele>
						<time>2026-09-03T22:07:44Z</time>
					</trkpt>
					<trkpt lat="44.342830" lon="5.251000">
						<ele>492</ele>
						<time>2026-09-03T22:07:57Z</time>
					</trkpt>
					<trkpt lat="44.342750" lon="5.250700">
						<ele>494</ele>
						<time>2026-09-03T22:08:08Z</time>
					</trkpt>
					<trkpt lat="44.342650" lon="5.250470">
						<ele>496</ele>
						<time>2026-09-03T22:08:18Z</time>
					</trkpt>
					<trkpt lat="44.342370" lon="5.250110">
						<ele>496</ele>
						<time>2026-09-03T22:08:37Z</time>
					</trkpt>
					<trkpt lat="44.341890" lon="5.249710">
						<ele>493</ele>
						<time>2026-09-03T22:09:05Z</time>
					</trkpt>
					<trkpt lat="44.341750" lon="5.249650">
						<ele>490</ele>
						<time>2026-09-03T22:09:12Z</time>
					</trkpt>
					<trkpt lat="44.341590" lon="5.249640">
						<ele>489</ele>
						<time>2026-09-03T22:09:20Z</time>
					</trkpt>
					<trkpt lat="44.341320" lon="5.249850">
						<ele>489</ele>
						<time>2026-09-03T22:09:36Z</time>
					</trkpt>
					<trkpt lat="44.341220" lon="5.249880">
						<ele>490</ele>
						<time>2026-09-03T22:09:41Z</time>
					</trkpt>
					<trkpt lat="44.341150" lon="5.249850">
						<ele>490</ele>
						<time>2026-09-03T22:09:44Z</time>
					</trkpt>
					<trkpt lat="44.340970" lon="5.249670">
						<ele>492</ele>
						<time>2026-09-03T22:09:56Z</time>
					</trkpt>
					<trkpt lat="44.340790" lon="5.249570">
						<ele>494</ele>
						<time>2026-09-03T22:10:05Z</time>
					</trkpt>
					<trkpt lat="44.340220" lon="5.249400">
						<ele>496</ele>
						<time>2026-09-03T22:10:34Z</time>
					</trkpt>
					<trkpt lat="44.339940" lon="5.249270">
						<ele>498</ele>
						<time>2026-09-03T22:10:49Z</time>
					</trkpt>
					<trkpt lat="44.339730" lon="5.249120">
						<ele>500</ele>
						<time>2026-09-03T22:11:01Z</time>
					</trkpt>
					<trkpt lat="44.339490" lon="5.249120">
						<ele>500</ele>
						<time>2026-09-03T22:11:13Z</time>
					</trkpt>
					<trkpt lat="44.339190" lon="5.249230">
						<ele>499</ele>
						<time>2026-09-03T22:11:28Z</time>
					</trkpt>
					<trkpt lat="44.339050" lon="5.249220">
						<ele>499</ele>
						<time>2026-09-03T22:11:35Z</time>
					</trkpt>
					<trkpt lat="44.337730" lon="5.248530">
						<ele>514</ele>
						<time>2026-09-03T22:12:46Z</time>
					</trkpt>
					<trkpt lat="44.336540" lon="5.247790">
						<ele>522</ele>
						<time>2026-09-03T22:13:51Z</time>
					</trkpt>
					<trkpt lat="44.336430" lon="5.247700">
						<ele>522</ele>
						<time>2026-09-03T22:13:58Z</time>
					</trkpt>
					<trkpt lat="44.336280" lon="5.247450">
						<ele>524</ele>
						<time>2026-09-03T22:14:09Z</time>
					</trkpt>
					<trkpt lat="44.336180" lon="5.247000">
						<ele>531</ele>
						<time>2026-09-03T22:14:26Z</time>
					</trkpt>
					<trkpt lat="44.336120" lon="5.246870">
						<ele>532</ele>
						<time>2026-09-03T22:14:32Z</time>
					</trkpt>
					<trkpt lat="44.335740" lon="5.246390">
						<ele>538</ele>
						<time>2026-09-03T22:14:57Z</time>
					</trkpt>
					<trkpt lat="44.335510" lon="5.246150">
						<ele>541</ele>
						<time>2026-09-03T22:15:12Z</time>
					</trkpt>
					<trkpt lat="44.335280" lon="5.245970">
						<ele>542</ele>
						<time>2026-09-03T22:15:25Z</time>
					</trkpt>
					<trkpt lat="44.334850" lon="5.245700">
						<ele>545</ele>
						<time>2026-09-03T22:15:48Z</time>
					</trkpt>
					<trkpt lat="44.334170" lon="5.245420">
						<ele>548</ele>
						<time>2026-09-03T22:16:24Z</time>
					</trkpt>
					<trkpt lat="44.333560" lon="5.244930">
						<ele>559</ele>
						<time>2026-09-03T22:16:59Z</time>
					</trkpt>
					<trkpt lat="44.333460" lon="5.244890">
						<ele>560</ele>
						<time>2026-09-03T22:17:04Z</time>
					</trkpt>
					<trkpt lat="44.333270" lon="5.244880">
						<ele>562</ele>
						<time>2026-09-03T22:17:14Z</time>
					</trkpt>
					<trkpt lat="44.333260" lon="5.244800">
						<ele>564</ele>
						<time>2026-09-03T22:17:17Z</time>
					</trkpt>
					<trkpt lat="44.333280" lon="5.244770">
						<ele>565</ele>
						<time>2026-09-03T22:17:18Z</time>
					</trkpt>
					<trkpt lat="44.333440" lon="5.244770">
						<ele>564</ele>
						<time>2026-09-03T22:17:26Z</time>
					</trkpt>
					<trkpt lat="44.333900" lon="5.244680">
						<ele>566</ele>
						<time>2026-09-03T22:17:49Z</time>
					</trkpt>
					<trkpt lat="44.334060" lon="5.244690">
						<ele>566</ele>
						<time>2026-09-03T22:17:57Z</time>
					</trkpt>
					<trkpt lat="44.334270" lon="5.244750">
						<ele>565</ele>
						<time>2026-09-03T22:18:08Z</time>
					</trkpt>
					<trkpt lat="44.334740" lon="5.244790">
						<ele>568</ele>
						<time>2026-09-03T22:18:32Z</time>
					</trkpt>
					<trkpt lat="44.335160" lon="5.244880">
						<ele>570</ele>
						<time>2026-09-03T22:18:53Z</time>
					</trkpt>
					<trkpt lat="44.335460" lon="5.244980">
						<ele>572</ele>
						<time>2026-09-03T22:19:08Z</time>
					</trkpt>
					<trkpt lat="44.335590" lon="5.245070">
						<ele>571</ele>
						<time>2026-09-03T22:19:16Z</time>
					</trkpt>
					<trkpt lat="44.335800" lon="5.245140">
						<ele>572</ele>
						<time>2026-09-03T22:19:27Z</time>
					</trkpt>
					<trkpt lat="44.336070" lon="5.245180">
						<ele>571</ele>
						<time>2026-09-03T22:19:40Z</time>
					</trkpt>
					<trkpt lat="44.336160" lon="5.245150">
						<ele>572</ele>
						<time>2026-09-03T22:19:45Z</time>
					</trkpt>
					<trkpt lat="44.336180" lon="5.245120">
						<ele>572</ele>
						<time>2026-09-03T22:19:46Z</time>
					</trkpt>
					<trkpt lat="44.336130" lon="5.245010">
						<ele>574</ele>
						<time>2026-09-03T22:19:51Z</time>
					</trkpt>
					<trkpt lat="44.336090" lon="5.245030">
						<ele>574</ele>
						<time>2026-09-03T22:19:53Z</time>
					</trkpt>
					<trkpt lat="44.336020" lon="5.245020">
						<ele>575</ele>
						<time>2026-09-03T22:19:57Z</time>
					</trkpt>
					<trkpt lat="44.335640" lon="5.244820">
						<ele>573</ele>
						<time>2026-09-03T22:20:17Z</time>
					</trkpt>
					<trkpt lat="44.335530" lon="5.244660">
						<ele>573</ele>
						<time>2026-09-03T22:20:25Z</time>
					</trkpt>
					<trkpt lat="44.335180" lon="5.244290">
						<ele>577</ele>
						<time>2026-09-03T22:20:47Z</time>
					</trkpt>
					<trkpt lat="44.334570" lon="5.243860">
						<ele>583</ele>
						<time>2026-09-03T22:21:21Z</time>
					</trkpt>
					<trkpt lat="44.334490" lon="5.243720">
						<ele>584</ele>
						<time>2026-09-03T22:21:27Z</time>
					</trkpt>
					<trkpt lat="44.334470" lon="5.243540">
						<ele>585</ele>
						<time>2026-09-03T22:21:34Z</time>
					</trkpt>
					<trkpt lat="44.334400" lon="5.243360">
						<ele>588</ele>
						<time>2026-09-03T22:21:41Z</time>
					</trkpt>
					<trkpt lat="44.333970" lon="5.242980">
						<ele>596</ele>
						<time>2026-09-03T22:22:07Z</time>
					</trkpt>
					<trkpt lat="44.333820" lon="5.242690">
						<ele>600</ele>
						<time>2026-09-03T22:22:19Z</time>
					</trkpt>
					<trkpt lat="44.333770" lon="5.242470">
						<ele>603</ele>
						<time>2026-09-03T22:22:28Z</time>
					</trkpt>
					<trkpt lat="44.333720" lon="5.242370">
						<ele>606</ele>
						<time>2026-09-03T22:22:32Z</time>
					</trkpt>
					<trkpt lat="44.333560" lon="5.242130">
						<ele>611</ele>
						<time>2026-09-03T22:22:44Z</time>
					</trkpt>
					<trkpt lat="44.333430" lon="5.242020">
						<ele>614</ele>
						<time>2026-09-03T22:22:51Z</time>
					</trkpt>
					<trkpt lat="44.333400" lon="5.241900">
						<ele>615</ele>
						<time>2026-09-03T22:22:56Z</time>
					</trkpt>
					<trkpt lat="44.333450" lon="5.241840">
						<ele>615</ele>
						<time>2026-09-03T22:22:59Z</time>
					</trkpt>
					<trkpt lat="44.333690" lon="5.241780">
						<ele>614</ele>
						<time>2026-09-03T22:23:11Z</time>
					</trkpt>
					<trkpt lat="44.333770" lon="5.241800">
						<ele>613</ele>
						<time>2026-09-03T22:23:16Z</time>
					</trkpt>
					<trkpt lat="44.334010" lon="5.242060">
						<ele>606</ele>
						<time>2026-09-03T22:23:31Z</time>
					</trkpt>
					<trkpt lat="44.334660" lon="5.242040">
						<ele>609</ele>
						<time>2026-09-03T22:24:03Z</time>
					</trkpt>
					<trkpt lat="44.334760" lon="5.242070">
						<ele>609</ele>
						<time>2026-09-03T22:24:08Z</time>
					</trkpt>
					<trkpt lat="44.335060" lon="5.242260">
						<ele>604</ele>
						<time>2026-09-03T22:24:25Z</time>
					</trkpt>
					<trkpt lat="44.335250" lon="5.242300">
						<ele>604</ele>
						<time>2026-09-03T22:24:34Z</time>
					</trkpt>
					<trkpt lat="44.335430" lon="5.242270">
						<ele>606</ele>
						<time>2026-09-03T22:24:44Z</time>
					</trkpt>
					<trkpt lat="44.335800" lon="5.242110">
						<ele>615</ele>
						<time>2026-09-03T22:25:03Z</time>
					</trkpt>
					<trkpt lat="44.336020" lon="5.242060">
						<ele>615</ele>
						<time>2026-09-03T22:25:14Z</time>
					</trkpt>
					<trkpt lat="44.336020" lon="5.242030">
						<ele>617</ele>
						<time>2026-09-03T22:25:15Z</time>
					</trkpt>
					<trkpt lat="44.335970" lon="5.242000">
						<ele>618</ele>
						<time>2026-09-03T22:25:18Z</time>
					</trkpt>
					<trkpt lat="44.335770" lon="5.242000">
						<ele>619</ele>
						<time>2026-09-03T22:25:28Z</time>
					</trkpt>
					<trkpt lat="44.335530" lon="5.241960">
						<ele>619</ele>
						<time>2026-09-03T22:25:40Z</time>
					</trkpt>
					<trkpt lat="44.334990" lon="5.241680">
						<ele>624</ele>
						<time>2026-09-03T22:26:09Z</time>
					</trkpt>
					<trkpt lat="44.334390" lon="5.241290">
						<ele>631</ele>
						<time>2026-09-03T22:26:42Z</time>
					</trkpt>
					<trkpt lat="44.333780" lon="5.240660">
						<ele>647</ele>
						<time>2026-09-03T22:27:20Z</time>
					</trkpt>
					<trkpt lat="44.333580" lon="5.240600">
						<ele>647</ele>
						<time>2026-09-03T22:27:30Z</time>
					</trkpt>
					<trkpt lat="44.333330" lon="5.240630">
						<ele>644</ele>
						<time>2026-09-03T22:27:43Z</time>
					</trkpt>
					<trkpt lat="44.332990" lon="5.240570">
						<ele>647</ele>
						<time>2026-09-03T22:28:00Z</time>
					</trkpt>
					<trkpt lat="44.332780" lon="5.240480">
						<ele>650</ele>
						<time>2026-09-03T22:28:11Z</time>
					</trkpt>
					<trkpt lat="44.332550" lon="5.240310">
						<ele>654</ele>
						<time>2026-09-03T22:28:24Z</time>
					</trkpt>
					<trkpt lat="44.332120" lon="5.240060">
						<ele>657</ele>
						<time>2026-09-03T22:28:47Z</time>
					</trkpt>
					<trkpt lat="44.331990" lon="5.239940">
						<ele>658</ele>
						<time>2026-09-03T22:28:55Z</time>
					</trkpt>
					<trkpt lat="44.331910" lon="5.239800">
						<ele>660</ele>
						<time>2026-09-03T22:29:01Z</time>
					</trkpt>
					<trkpt lat="44.331850" lon="5.239560">
						<ele>664</ele>
						<time>2026-09-03T22:29:10Z</time>
					</trkpt>
					<trkpt lat="44.331720" lon="5.239340">
						<ele>666</ele>
						<time>2026-09-03T22:29:21Z</time>
					</trkpt>
					<trkpt lat="44.331590" lon="5.239220">
						<ele>667</ele>
						<time>2026-09-03T22:29:28Z</time>
					</trkpt>
					<trkpt lat="44.331320" lon="5.239060">
						<ele>669</ele>
						<time>2026-09-03T22:29:43Z</time>
					</trkpt>
					<trkpt lat="44.331100" lon="5.239020">
						<ele>669</ele>
						<time>2026-09-03T22:29:54Z</time>
					</trkpt>
					<trkpt lat="44.331040" lon="5.239030">
						<ele>669</ele>
						<time>2026-09-03T22:29:57Z</time>
					</trkpt>
					<trkpt lat="44.331000" lon="5.239080">
						<ele>668</ele>
						<time>2026-09-03T22:30:00Z</time>
					</trkpt>
					<trkpt lat="44.331000" lon="5.239260">
						<ele>666</ele>
						<time>2026-09-03T22:30:06Z</time>
					</trkpt>
					<trkpt lat="44.331080" lon="5.239420">
						<ele>665</ele>
						<time>2026-09-03T22:30:13Z</time>
					</trkpt>
					<trkpt lat="44.331070" lon="5.239460">
						<ele>664</ele>
						<time>2026-09-03T22:30:15Z</time>
					</trkpt>
					<trkpt lat="44.330950" lon="5.239500">
						<ele>664</ele>
						<time>2026-09-03T22:30:21Z</time>
					</trkpt>
					<trkpt lat="44.330360" lon="5.239540">
						<ele>667</ele>
						<time>2026-09-03T22:30:51Z</time>
					</trkpt>
					<trkpt lat="44.330160" lon="5.239400">
						<ele>668</ele>
						<time>2026-09-03T22:31:02Z</time>
					</trkpt>
					<trkpt lat="44.330210" lon="5.239320">
						<ele>668</ele>
						<time>2026-09-03T22:31:06Z</time>
					</trkpt>
					<trkpt lat="44.330320" lon="5.239240">
						<ele>668</ele>
						<time>2026-09-03T22:31:12Z</time>
					</trkpt>
					<trkpt lat="44.330360" lon="5.239180">
						<ele>668</ele>
						<time>2026-09-03T22:31:15Z</time>
					</trkpt>
					<trkpt lat="44.330430" lon="5.238870">
						<ele>669</ele>
						<time>2026-09-03T22:31:26Z</time>
					</trkpt>
					<trkpt lat="44.330660" lon="5.238230">
						<ele>674</ele>
						<time>2026-09-03T22:31:52Z</time>
					</trkpt>
					<trkpt lat="44.330780" lon="5.237960">
						<ele>678</ele>
						<time>2026-09-03T22:32:03Z</time>
					</trkpt>
					<trkpt lat="44.330890" lon="5.237460">
						<ele>684</ele>
						<time>2026-09-03T22:32:22Z</time>
					</trkpt>
					<trkpt lat="44.330910" lon="5.237240">
						<ele>687</ele>
						<time>2026-09-03T22:32:30Z</time>
					</trkpt>
					<trkpt lat="44.330890" lon="5.237080">
						<ele>689</ele>
						<time>2026-09-03T22:32:36Z</time>
					</trkpt>
					<trkpt lat="44.330910" lon="5.237020">
						<ele>690</ele>
						<time>2026-09-03T22:32:38Z</time>
					</trkpt>
					<trkpt lat="44.330990" lon="5.236880">
						<ele>693</ele>
						<time>2026-09-03T22:32:45Z</time>
					</trkpt>
					<trkpt lat="44.331170" lon="5.236690">
						<ele>698</ele>
						<time>2026-09-03T22:32:56Z</time>
					</trkpt>
					<trkpt lat="44.331250" lon="5.236630">
						<ele>700</ele>
						<time>2026-09-03T22:33:01Z</time>
					</trkpt>
					<trkpt lat="44.331420" lon="5.236570">
						<ele>704</ele>
						<time>2026-09-03T22:33:09Z</time>
					</trkpt>
					<trkpt lat="44.331410" lon="5.236530">
						<ele>704</ele>
						<time>2026-09-03T22:33:11Z</time>
					</trkpt>
					<trkpt lat="44.331260" lon="5.236440">
						<ele>705</ele>
						<time>2026-09-03T22:33:19Z</time>
					</trkpt>
					<trkpt lat="44.331320" lon="5.236300">
						<ele>708</ele>
						<time>2026-09-03T22:33:25Z</time>
					</trkpt>
					<trkpt lat="44.331660" lon="5.236220">
						<ele>713</ele>
						<time>2026-09-03T22:33:42Z</time>
					</trkpt>
					<trkpt lat="44.331900" lon="5.236260">
						<ele>713</ele>
						<time>2026-09-03T22:33:54Z</time>
					</trkpt>
					<trkpt lat="44.331930" lon="5.236240">
						<ele>713</ele>
						<time>2026-09-03T22:33:56Z</time>
					</trkpt>
					<trkpt lat="44.331940" lon="5.236210">
						<ele>714</ele>
						<time>2026-09-03T22:33:57Z</time>
					</trkpt>
					<trkpt lat="44.331910" lon="5.236140">
						<ele>714</ele>
						<time>2026-09-03T22:34:00Z</time>
					</trkpt>
					<trkpt lat="44.331770" lon="5.236030">
						<ele>716</ele>
						<time>2026-09-03T22:34:08Z</time>
					</trkpt>
					<trkpt lat="44.331770" lon="5.236000">
						<ele>717</ele>
						<time>2026-09-03T22:34:09Z</time>
					</trkpt>
					<trkpt lat="44.331780" lon="5.235970">
						<ele>717</ele>
						<time>2026-09-03T22:34:10Z</time>
					</trkpt>
					<trkpt lat="44.331960" lon="5.235940">
						<ele>716</ele>
						<time>2026-09-03T22:34:19Z</time>
					</trkpt>
					<trkpt lat="44.331980" lon="5.235890">
						<ele>716</ele>
						<time>2026-09-03T22:34:21Z</time>
					</trkpt>
					<trkpt lat="44.332030" lon="5.235860">
						<ele>716</ele>
						<time>2026-09-03T22:34:24Z</time>
					</trkpt>
					<trkpt lat="44.332070" lon="5.235730">
						<ele>715</ele>
						<time>2026-09-03T22:34:29Z</time>
					</trkpt>
					<trkpt lat="44.332060" lon="5.235660">
						<ele>714</ele>
						<time>2026-09-03T22:34:32Z</time>
					</trkpt>
					<trkpt lat="44.331910" lon="5.235450">
						<ele>714</ele>
						<time>2026-09-03T22:34:42Z</time>
					</trkpt>
					<trkpt lat="44.331670" lon="5.234960">
						<ele>718</ele>
						<time>2026-09-03T22:35:04Z</time>
					</trkpt>
					<trkpt lat="44.331440" lon="5.234400">
						<ele>717</ele>
						<time>2026-09-03T22:35:27Z</time>
					</trkpt>
					<trkpt lat="44.331240" lon="5.233740">
						<ele>717</ele>
						<time>2026-09-03T22:35:52Z</time>
					</trkpt>
					<trkpt lat="44.330910" lon="5.232950">
						<ele>717</ele>
						<time>2026-09-03T22:36:25Z</time>
					</trkpt>
					<trkpt lat="44.330380" lon="5.231950">
						<ele>715</ele>
						<time>2026-09-03T22:37:10Z</time>
					</trkpt>
					<trkpt lat="44.329930" lon="5.230940">
						<ele>715</ele>
						<time>2026-09-03T22:37:52Z</time>
					</trkpt>
					<trkpt lat="44.329350" lon="5.229420">
						<ele>709</ele>
						<time>2026-09-03T22:38:54Z</time>
					</trkpt>
					<trkpt lat="44.329140" lon="5.229150">
						<ele>712</ele>
						<time>2026-09-03T22:39:08Z</time>
					</trkpt>
					<trkpt lat="44.329030" lon="5.229080">
						<ele>711</ele>
						<time>2026-09-03T22:39:14Z</time>
					</trkpt>
					<trkpt lat="44.328640" lon="5.229050">
						<ele>714</ele>
						<time>2026-09-03T22:39:34Z</time>
					</trkpt>
					<trkpt lat="44.328250" lon="5.228890">
						<ele>713</ele>
						<time>2026-09-03T22:39:54Z</time>
					</trkpt>
					<trkpt lat="44.328000" lon="5.228750">
						<ele>711</ele>
						<time>2026-09-03T22:40:08Z</time>
					</trkpt>
					<trkpt lat="44.327350" lon="5.228680">
						<ele>710</ele>
						<time>2026-09-03T22:40:40Z</time>
					</trkpt>
					<trkpt lat="44.326630" lon="5.228360">
						<ele>697</ele>
						<time>2026-09-03T22:41:18Z</time>
					</trkpt>
					<trkpt lat="44.326470" lon="5.228340">
						<ele>696</ele>
						<time>2026-09-03T22:41:26Z</time>
					</trkpt>
					<trkpt lat="44.326190" lon="5.228390">
						<ele>697</ele>
						<time>2026-09-03T22:41:40Z</time>
					</trkpt>
					<trkpt lat="44.325850" lon="5.228560">
						<ele>702</ele>
						<time>2026-09-03T22:41:58Z</time>
					</trkpt>
					<trkpt lat="44.325740" lon="5.228590">
						<ele>704</ele>
						<time>2026-09-03T22:42:04Z</time>
					</trkpt>
					<trkpt lat="44.325590" lon="5.228570">
						<ele>705</ele>
						<time>2026-09-03T22:42:11Z</time>
					</trkpt>
					<trkpt lat="44.325490" lon="5.228530">
						<ele>704</ele>
						<time>2026-09-03T22:42:17Z</time>
					</trkpt>
					<trkpt lat="44.325210" lon="5.228360">
						<ele>700</ele>
						<time>2026-09-03T22:42:32Z</time>
					</trkpt>
					<trkpt lat="44.324850" lon="5.228400">
						<ele>705</ele>
						<time>2026-09-03T22:42:50Z</time>
					</trkpt>
					<trkpt lat="44.324570" lon="5.228320">
						<ele>705</ele>
						<time>2026-09-03T22:43:04Z</time>
					</trkpt>
					<trkpt lat="44.324130" lon="5.228300">
						<ele>711</ele>
						<time>2026-09-03T22:43:26Z</time>
					</trkpt>
					<trkpt lat="44.324080" lon="5.228240">
						<ele>712</ele>
						<time>2026-09-03T22:43:30Z</time>
					</trkpt>
					<trkpt lat="44.324050" lon="5.228150">
						<ele>712</ele>
						<time>2026-09-03T22:43:33Z</time>
					</trkpt>
					<trkpt lat="44.324050" lon="5.228040">
						<ele>712</ele>
						<time>2026-09-03T22:43:37Z</time>
					</trkpt>
					<trkpt lat="44.324100" lon="5.227770">
						<ele>709</ele>
						<time>2026-09-03T22:43:47Z</time>
					</trkpt>
					<trkpt lat="44.324140" lon="5.227670">
						<ele>708</ele>
						<time>2026-09-03T22:43:51Z</time>
					</trkpt>
					<trkpt lat="44.324250" lon="5.227480">
						<ele>704</ele>
						<time>2026-09-03T22:44:00Z</time>
					</trkpt>
					<trkpt lat="44.324500" lon="5.227200">
						<ele>702</ele>
						<time>2026-09-03T22:44:16Z</time>
					</trkpt>
					<trkpt lat="44.324550" lon="5.227100">
						<ele>702</ele>
						<time>2026-09-03T22:44:20Z</time>
					</trkpt>
					<trkpt lat="44.324560" lon="5.226970">
						<ele>703</ele>
						<time>2026-09-03T22:44:25Z</time>
					</trkpt>
					<trkpt lat="44.324510" lon="5.226730">
						<ele>708</ele>
						<time>2026-09-03T22:44:34Z</time>
					</trkpt>
					<trkpt lat="44.324510" lon="5.226520">
						<ele>710</ele>
						<time>2026-09-03T22:44:41Z</time>
					</trkpt>
					<trkpt lat="44.324540" lon="5.226230">
						<ele>712</ele>
						<time>2026-09-03T22:44:52Z</time>
					</trkpt>
					<trkpt lat="44.324590" lon="5.226050">
						<ele>713</ele>
						<time>2026-09-03T22:44:59Z</time>
					</trkpt>
					<trkpt lat="44.324790" lon="5.225620">
						<ele>713</ele>
						<time>2026-09-03T22:45:17Z</time>
					</trkpt>
					<trkpt lat="44.324850" lon="5.225360">
						<ele>717</ele>
						<time>2026-09-03T22:45:27Z</time>
					</trkpt>
					<trkpt lat="44.324940" lon="5.225170">
						<ele>717</ele>
						<time>2026-09-03T22:45:35Z</time>
					</trkpt>
					<trkpt lat="44.325060" lon="5.225010">
						<ele>716</ele>
						<time>2026-09-03T22:45:43Z</time>
					</trkpt>
					<trkpt lat="44.325290" lon="5.224840">
						<ele>713</ele>
						<time>2026-09-03T22:45:56Z</time>
					</trkpt>
					<trkpt lat="44.325540" lon="5.224570">
						<ele>711</ele>
						<time>2026-09-03T22:46:12Z</time>
					</trkpt>
					<trkpt lat="44.325610" lon="5.224460">
						<ele>711</ele>
						<time>2026-09-03T22:46:18Z</time>
					</trkpt>
					<trkpt lat="44.325640" lon="5.224360">
						<ele>711</ele>
						<time>2026-09-03T22:46:21Z</time>
					</trkpt>
					<trkpt lat="44.325660" lon="5.224120">
						<ele>714</ele>
						<time>2026-09-03T22:46:30Z</time>
					</trkpt>
					<trkpt lat="44.325660" lon="5.223760">
						<ele>714</ele>
						<time>2026-09-03T22:46:43Z</time>
					</trkpt>
					<trkpt lat="44.325580" lon="5.223490">
						<ele>717</ele>
						<time>2026-09-03T22:46:53Z</time>
					</trkpt>
					<trkpt lat="44.325270" lon="5.223060">
						<ele>723</ele>
						<time>2026-09-03T22:47:15Z</time>
					</trkpt>
					<trkpt lat="44.325010" lon="5.222450">
						<ele>723</ele>
						<time>2026-09-03T22:47:41Z</time>
					</trkpt>
					<trkpt lat="44.324850" lon="5.222220">
						<ele>727</ele>
						<time>2026-09-03T22:47:52Z</time>
					</trkpt>
					<trkpt lat="44.324710" lon="5.221610">
						<ele>727</ele>
						<time>2026-09-03T22:48:15Z</time>
					</trkpt>
					<trkpt lat="44.324520" lon="5.221070">
						<ele>730</ele>
						<time>2026-09-03T22:48:37Z</time>
					</trkpt>
					<trkpt lat="44.324280" lon="5.220540">
						<ele>735</ele>
						<time>2026-09-03T22:48:59Z</time>
					</trkpt>
					<trkpt lat="44.324020" lon="5.220080">
						<ele>739</ele>
						<time>2026-09-03T22:49:20Z</time>
					</trkpt>
					<trkpt lat="44.323970" lon="5.219960">
						<ele>739</ele>
						<time>2026-09-03T22:49:25Z</time>
					</trkpt>
					<trkpt lat="44.323920" lon="5.219710">
						<ele>738</ele>
						<time>2026-09-03T22:49:34Z</time>
					</trkpt>
					<trkpt lat="44.323800" lon="5.219490">
						<ele>738</ele>
						<time>2026-09-03T22:49:44Z</time>
					</trkpt>
					<trkpt lat="44.323360" lon="5.219250">
						<ele>737</ele>
						<time>2026-09-03T22:50:08Z</time>
					</trkpt>
					<trkpt lat="44.322930" lon="5.219120">
						<ele>736</ele>
						<time>2026-09-03T22:50:30Z</time>
					</trkpt>
					<trkpt lat="44.321820" lon="5.219230">
						<ele>731</ele>
						<time>2026-09-03T22:51:26Z</time>
					</trkpt>
					<trkpt lat="44.321400" lon="5.219620">
						<ele>737</ele>
						<time>2026-09-03T22:51:51Z</time>
					</trkpt>
					<trkpt lat="44.321140" lon="5.219750">
						<ele>736</ele>
						<time>2026-09-03T22:52:05Z</time>
					</trkpt>
					<trkpt lat="44.320920" lon="5.219900">
						<ele>735</ele>
						<time>2026-09-03T22:52:17Z</time>
					</trkpt>
					<trkpt lat="44.320570" lon="5.220250">
						<ele>738</ele>
						<time>2026-09-03T22:52:38Z</time>
					</trkpt>
					<trkpt lat="44.320160" lon="5.220530">
						<ele>736</ele>
						<time>2026-09-03T22:53:01Z</time>
					</trkpt>
					<trkpt lat="44.319970" lon="5.220820">
						<ele>739</ele>
						<time>2026-09-03T22:53:15Z</time>
					</trkpt>
					<trkpt lat="44.319710" lon="5.221010">
						<ele>741</ele>
						<time>2026-09-03T22:53:30Z</time>
					</trkpt>
					<trkpt lat="44.319290" lon="5.221430">
						<ele>743</ele>
						<time>2026-09-03T22:53:56Z</time>
					</trkpt>
					<trkpt lat="44.319220" lon="5.221620">
						<ele>745</ele>
						<time>2026-09-03T22:54:04Z</time>
					</trkpt>
					<trkpt lat="44.319090" lon="5.222190">
						<ele>758</ele>
						<time>2026-09-03T22:54:25Z</time>
					</trkpt>
					<trkpt lat="44.318760" lon="5.222740">
						<ele>763</ele>
						<time>2026-09-03T22:54:51Z</time>
					</trkpt>
					<trkpt lat="44.318590" lon="5.222830">
						<ele>761</ele>
						<time>2026-09-03T22:55:00Z</time>
					</trkpt>
					<trkpt lat="44.318250" lon="5.223140">
						<ele>760</ele>
						<time>2026-09-03T22:55:20Z</time>
					</trkpt>
					<trkpt lat="44.317870" lon="5.223360">
						<ele>762</ele>
						<time>2026-09-03T22:55:41Z</time>
					</trkpt>
					<trkpt lat="44.317640" lon="5.223570">
						<ele>764</ele>
						<time>2026-09-03T22:55:54Z</time>
					</trkpt>
					<trkpt lat="44.317590" lon="5.223590">
						<ele>764</ele>
						<time>2026-09-03T22:55:57Z</time>
					</trkpt>
					<trkpt lat="44.317480" lon="5.223570">
						<ele>762</ele>
						<time>2026-09-03T22:56:03Z</time>
					</trkpt>
					<trkpt lat="44.317370" lon="5.223450">
						<ele>763</ele>
						<time>2026-09-03T22:56:10Z</time>
					</trkpt>
					<trkpt lat="44.317340" lon="5.223380">
						<ele>762</ele>
						<time>2026-09-03T22:56:12Z</time>
					</trkpt>
					<trkpt lat="44.317310" lon="5.222690">
						<ele>760</ele>
						<time>2026-09-03T22:56:37Z</time>
					</trkpt>
					<trkpt lat="44.317030" lon="5.221980">
						<ele>766</ele>
						<time>2026-09-03T22:57:06Z</time>
					</trkpt>
					<trkpt lat="44.316980" lon="5.221820">
						<ele>767</ele>
						<time>2026-09-03T22:57:13Z</time>
					</trkpt>
					<trkpt lat="44.316960" lon="5.221640">
						<ele>766</ele>
						<time>2026-09-03T22:57:19Z</time>
					</trkpt>
					<trkpt lat="44.316890" lon="5.221640">
						<ele>768</ele>
						<time>2026-09-03T22:57:23Z</time>
					</trkpt>
					<trkpt lat="44.316860" lon="5.221550">
						<ele>768</ele>
						<time>2026-09-03T22:57:26Z</time>
					</trkpt>
					<trkpt lat="44.316880" lon="5.221310">
						<ele>767</ele>
						<time>2026-09-03T22:57:35Z</time>
					</trkpt>
					<trkpt lat="44.316810" lon="5.221180">
						<ele>768</ele>
						<time>2026-09-03T22:57:41Z</time>
					</trkpt>
					<trkpt lat="44.316790" lon="5.221160">
						<ele>769</ele>
						<time>2026-09-03T22:57:42Z</time>
					</trkpt>
					<trkpt lat="44.316730" lon="5.221180">
						<ele>771</ele>
						<time>2026-09-03T22:57:45Z</time>
					</trkpt>
					<trkpt lat="44.316610" lon="5.221440">
						<ele>775</ele>
						<time>2026-09-03T22:57:56Z</time>
					</trkpt>
					<trkpt lat="44.316520" lon="5.221470">
						<ele>777</ele>
						<time>2026-09-03T22:58:01Z</time>
					</trkpt>
					<trkpt lat="44.316430" lon="5.221390">
						<ele>779</ele>
						<time>2026-09-03T22:58:06Z</time>
					</trkpt>
					<trkpt lat="44.316440" lon="5.221130">
						<ele>778</ele>
						<time>2026-09-03T22:58:15Z</time>
					</trkpt>
					<trkpt lat="44.316400" lon="5.221070">
						<ele>779</ele>
						<time>2026-09-03T22:58:18Z</time>
					</trkpt>
					<trkpt lat="44.316330" lon="5.221180">
						<ele>781</ele>
						<time>2026-09-03T22:58:23Z</time>
					</trkpt>
					<trkpt lat="44.316270" lon="5.221220">
						<ele>783</ele>
						<time>2026-09-03T22:58:27Z</time>
					</trkpt>
					<trkpt lat="44.316220" lon="5.221190">
						<ele>784</ele>
						<time>2026-09-03T22:58:30Z</time>
					</trkpt>
					<trkpt lat="44.316210" lon="5.221010">
						<ele>783</ele>
						<time>2026-09-03T22:58:36Z</time>
					</trkpt>
					<trkpt lat="44.316190" lon="5.220990">
						<ele>783</ele>
						<time>2026-09-03T22:58:37Z</time>
					</trkpt>
					<trkpt lat="44.315860" lon="5.221030">
						<ele>792</ele>
						<time>2026-09-03T22:58:54Z</time>
					</trkpt>
					<trkpt lat="44.315730" lon="5.220980">
						<ele>793</ele>
						<time>2026-09-03T22:59:01Z</time>
					</trkpt>
					<trkpt lat="44.315670" lon="5.221010">
						<ele>794</ele>
						<time>2026-09-03T22:59:04Z</time>
					</trkpt>
					<trkpt lat="44.315570" lon="5.221220">
						<ele>797</ele>
						<time>2026-09-03T22:59:13Z</time>
					</trkpt>
					<trkpt lat="44.315470" lon="5.221270">
						<ele>799</ele>
						<time>2026-09-03T22:59:18Z</time>
					</trkpt>
					<trkpt lat="44.315490" lon="5.221590">
						<ele>802</ele>
						<time>2026-09-03T22:59:30Z</time>
					</trkpt>
					<trkpt lat="44.315470" lon="5.221980">
						<ele>808</ele>
						<time>2026-09-03T22:59:44Z</time>
					</trkpt>
					<trkpt lat="44.315540" lon="5.222350">
						<ele>812</ele>
						<time>2026-09-03T22:59:57Z</time>
					</trkpt>
					<trkpt lat="44.315650" lon="5.222620">
						<ele>813</ele>
						<time>2026-09-03T23:00:08Z</time>
					</trkpt>
					<trkpt lat="44.315590" lon="5.222700">
						<ele>814</ele>
						<time>2026-09-03T23:00:13Z</time>
					</trkpt>
					<trkpt lat="44.315550" lon="5.222720">
						<ele>815</ele>
						<time>2026-09-03T23:00:15Z</time>
					</trkpt>
					<trkpt lat="44.315520" lon="5.222690">
						<ele>816</ele>
						<time>2026-09-03T23:00:17Z</time>
					</trkpt>
					<trkpt lat="44.315300" lon="5.222320">
						<ele>817</ele>
						<time>2026-09-03T23:00:34Z</time>
					</trkpt>
					<trkpt lat="44.315200" lon="5.222250">
						<ele>818</ele>
						<time>2026-09-03T23:00:39Z</time>
					</trkpt>
					<trkpt lat="44.315080" lon="5.222300">
						<ele>821</ele>
						<time>2026-09-03T23:00:46Z</time>
					</trkpt>
					<trkpt lat="44.314830" lon="5.222550">
						<ele>828</ele>
						<time>2026-09-03T23:01:01Z</time>
					</trkpt>
					<trkpt lat="44.314680" lon="5.222640">
						<ele>830</ele>
						<time>2026-09-03T23:01:09Z</time>
					</trkpt>
					<trkpt lat="44.314480" lon="5.222650">
						<ele>831</ele>
						<time>2026-09-03T23:01:19Z</time>
					</trkpt>
					<trkpt lat="44.314330" lon="5.222630">
						<ele>832</ele>
						<time>2026-09-03T23:01:27Z</time>
					</trkpt>
					<trkpt lat="44.313410" lon="5.222440">
						<ele>836</ele>
						<time>2026-09-03T23:02:13Z</time>
					</trkpt>
					<trkpt lat="44.313230" lon="5.222460">
						<ele>836</ele>
						<time>2026-09-03T23:02:22Z</time>
					</trkpt>
					<trkpt lat="44.313020" lon="5.222530">
						<ele>837</ele>
						<time>2026-09-03T23:02:33Z</time>
					</trkpt>
					<trkpt lat="44.312930" lon="5.222570">
						<ele>837</ele>
						<time>2026-09-03T23:02:38Z</time>
					</trkpt>
					<trkpt lat="44.312690" lon="5.222750">
						<ele>841</ele>
						<time>2026-09-03T23:02:51Z</time>
					</trkpt>
					<trkpt lat="44.312440" lon="5.222870">
						<ele>842</ele>
						<time>2026-09-03T23:03:05Z</time>
					</trkpt>
					<trkpt lat="44.312370" lon="5.222960">
						<ele>843</ele>
						<time>2026-09-03T23:03:09Z</time>
					</trkpt>
					<trkpt lat="44.312250" lon="5.223280">
						<ele>849</ele>
						<time>2026-09-03T23:03:22Z</time>
					</trkpt>
					<trkpt lat="44.312030" lon="5.223430">
						<ele>850</ele>
						<time>2026-09-03T23:03:35Z</time>
					</trkpt>
					<trkpt lat="44.311840" lon="5.223670">
						<ele>854</ele>
						<time>2026-09-03T23:03:47Z</time>
					</trkpt>
					<trkpt lat="44.311260" lon="5.223960">
						<ele>857</ele>
						<time>2026-09-03T23:04:18Z</time>
					</trkpt>
					<trkpt lat="44.311190" lon="5.224030">
						<ele>859</ele>
						<time>2026-09-03T23:04:23Z</time>
					</trkpt>
					<trkpt lat="44.311130" lon="5.224140">
						<ele>861</ele>
						<time>2026-09-03T23:04:28Z</time>
					</trkpt>
					<trkpt lat="44.310940" lon="5.224210">
						<ele>861</ele>
						<time>2026-09-03T23:04:37Z</time>
					</trkpt>
					<trkpt lat="44.310540" lon="5.224580">
						<ele>865</ele>
						<time>2026-09-03T23:05:01Z</time>
					</trkpt>
					<trkpt lat="44.310430" lon="5.224660">
						<ele>865</ele>
						<time>2026-09-03T23:05:08Z</time>
					</trkpt>
					<trkpt lat="44.310310" lon="5.224710">
						<ele>865</ele>
						<time>2026-09-03T23:05:14Z</time>
					</trkpt>
					<trkpt lat="44.310250" lon="5.224800">
						<ele>866</ele>
						<time>2026-09-03T23:05:18Z</time>
					</trkpt>
					<trkpt lat="44.310080" lon="5.224950">
						<ele>866</ele>
						<time>2026-09-03T23:05:28Z</time>
					</trkpt>
					<trkpt lat="44.310020" lon="5.225130">
						<ele>869</ele>
						<time>2026-09-03T23:05:35Z</time>
					</trkpt>
					<trkpt lat="44.309890" lon="5.225340">
						<ele>874</ele>
						<time>2026-09-03T23:05:45Z</time>
					</trkpt>
					<trkpt lat="44.309750" lon="5.225690">
						<ele>881</ele>
						<time>2026-09-03T23:06:00Z</time>
					</trkpt>
					<trkpt lat="44.309610" lon="5.225910">
						<ele>883</ele>
						<time>2026-09-03T23:06:10Z</time>
					</trkpt>
					<trkpt lat="44.309410" lon="5.226560">
						<ele>890</ele>
						<time>2026-09-03T23:06:36Z</time>
					</trkpt>
					<trkpt lat="44.309290" lon="5.226660">
						<ele>889</ele>
						<time>2026-09-03T23:06:43Z</time>
					</trkpt>
					<trkpt lat="44.308980" lon="5.226820">
						<ele>893</ele>
						<time>2026-09-03T23:06:59Z</time>
					</trkpt>
					<trkpt lat="44.308930" lon="5.226880">
						<ele>895</ele>
						<time>2026-09-03T23:07:02Z</time>
					</trkpt>
					<trkpt lat="44.308820" lon="5.227180">
						<ele>898</ele>
						<time>2026-09-03T23:07:14Z</time>
					</trkpt>
					<trkpt lat="44.308780" lon="5.227380">
						<ele>899</ele>
						<time>2026-09-03T23:07:22Z</time>
					</trkpt>
					<trkpt lat="44.308550" lon="5.227920">
						<ele>901</ele>
						<time>2026-09-03T23:07:44Z</time>
					</trkpt>
					<trkpt lat="44.308450" lon="5.228460">
						<ele>897</ele>
						<time>2026-09-03T23:08:04Z</time>
					</trkpt>
					<trkpt lat="44.308410" lon="5.228820">
						<ele>894</ele>
						<time>2026-09-03T23:08:17Z</time>
					</trkpt>
					<trkpt lat="44.308220" lon="5.229460">
						<ele>890</ele>
						<time>2026-09-03T23:08:42Z</time>
					</trkpt>
					<trkpt lat="44.308070" lon="5.229870">
						<ele>889</ele>
						<time>2026-09-03T23:08:59Z</time>
					</trkpt>
					<trkpt lat="44.307320" lon="5.231170">
						<ele>884</ele>
						<time>2026-09-03T23:09:59Z</time>
					</trkpt>
					<trkpt lat="44.307230" lon="5.231290">
						<ele>885</ele>
						<time>2026-09-03T23:10:05Z</time>
					</trkpt>
					<trkpt lat="44.307010" lon="5.231750">
						<ele>883</ele>
						<time>2026-09-03T23:10:25Z</time>
					</trkpt>
					<trkpt lat="44.306810" lon="5.232070">
						<ele>882</ele>
						<time>2026-09-03T23:10:40Z</time>
					</trkpt>
					<trkpt lat="44.306390" lon="5.232900">
						<ele>875</ele>
						<time>2026-09-03T23:11:16Z</time>
					</trkpt>
					<trkpt lat="44.306030" lon="5.233500">
						<ele>870</ele>
						<time>2026-09-03T23:11:44Z</time>
					</trkpt>
					<trkpt lat="44.305890" lon="5.233690">
						<ele>869</ele>
						<time>2026-09-03T23:11:54Z</time>
					</trkpt>
					<trkpt lat="44.305350" lon="5.234300">
						<ele>866</ele>
						<time>2026-09-03T23:12:29Z</time>
					</trkpt>
					<trkpt lat="44.304990" lon="5.234590">
						<ele>866</ele>
						<time>2026-09-03T23:12:50Z</time>
					</trkpt>
					<trkpt lat="44.304790" lon="5.234840">
						<ele>859</ele>
						<time>2026-09-03T23:13:03Z</time>
					</trkpt>
					<trkpt lat="44.304510" lon="5.235110">
						<ele>854</ele>
						<time>2026-09-03T23:13:20Z</time>
					</trkpt>
					<trkpt lat="44.303890" lon="5.235630">
						<ele>845</ele>
						<time>2026-09-03T23:13:56Z</time>
					</trkpt>
					<trkpt lat="44.303770" lon="5.235700">
						<ele>844</ele>
						<time>2026-09-03T23:14:03Z</time>
					</trkpt>
					<trkpt lat="44.303440" lon="5.236280">
						<ele>843</ele>
						<time>2026-09-03T23:14:29Z</time>
					</trkpt>
					<trkpt lat="44.302790" lon="5.237240">
						<ele>846</ele>
						<time>2026-09-03T23:15:17Z</time>
					</trkpt>
					<trkpt lat="44.302470" lon="5.237630">
						<ele>848</ele>
						<time>2026-09-03T23:15:38Z</time>
					</trkpt>
					<trkpt lat="44.302160" lon="5.237920">
						<ele>848</ele>
						<time>2026-09-03T23:15:56Z</time>
					</trkpt>
					<trkpt lat="44.302050" lon="5.238070">
						<ele>847</ele>
						<time>2026-09-03T23:16:04Z</time>
					</trkpt>
					<trkpt lat="44.301240" lon="5.239440">
						<ele>846</ele>
						<time>2026-09-03T23:17:08Z</time>
					</trkpt>
					<trkpt lat="44.300970" lon="5.239860">
						<ele>846</ele>
						<time>2026-09-03T23:17:28Z</time>
					</trkpt>
					<trkpt lat="44.300910" lon="5.239920">
						<ele>847</ele>
						<time>2026-09-03T23:17:32Z</time>
					</trkpt>
					<trkpt lat="44.300700" lon="5.240310">
						<ele>847</ele>
						<time>2026-09-03T23:17:49Z</time>
					</trkpt>
					<trkpt lat="44.300440" lon="5.241800">
						<ele>842</ele>
						<time>2026-09-03T23:18:44Z</time>
					</trkpt>
					<trkpt lat="44.300270" lon="5.243040">
						<ele>842</ele>
						<time>2026-09-03T23:19:29Z</time>
					</trkpt>
					<trkpt lat="44.300230" lon="5.243170">
						<ele>843</ele>
						<time>2026-09-03T23:19:34Z</time>
					</trkpt>
					<trkpt lat="44.299970" lon="5.243790">
						<ele>849</ele>
						<time>2026-09-03T23:20:00Z</time>
					</trkpt>
					<trkpt lat="44.299860" lon="5.243930">
						<ele>853</ele>
						<time>2026-09-03T23:20:08Z</time>
					</trkpt>
					<trkpt lat="44.299810" lon="5.244050">
						<ele>855</ele>
						<time>2026-09-03T23:20:13Z</time>
					</trkpt>
					<trkpt lat="44.299770" lon="5.244380">
						<ele>855</ele>
						<time>2026-09-03T23:20:25Z</time>
					</trkpt>
					<trkpt lat="44.299520" lon="5.245460">
						<ele>860</ele>
						<time>2026-09-03T23:21:05Z</time>
					</trkpt>
					<trkpt lat="44.299310" lon="5.245960">
						<ele>865</ele>
						<time>2026-09-03T23:21:26Z</time>
					</trkpt>
					<trkpt lat="44.299250" lon="5.246200">
						<ele>864</ele>
						<time>2026-09-03T23:21:35Z</time>
					</trkpt>
					<trkpt lat="44.299150" lon="5.246400">
						<ele>865</ele>
						<time>2026-09-03T23:21:44Z</time>
					</trkpt>
					<trkpt lat="44.299100" lon="5.246450">
						<ele>865</ele>
						<time>2026-09-03T23:21:47Z</time>
					</trkpt>
					<trkpt lat="44.298970" lon="5.246540">
						<ele>867</ele>
						<time>2026-09-03T23:21:54Z</time>
					</trkpt>
					<trkpt lat="44.298820" lon="5.246570">
						<ele>870</ele>
						<time>2026-09-03T23:22:02Z</time>
					</trkpt>
					<trkpt lat="44.298740" lon="5.246620">
						<ele>871</ele>
						<time>2026-09-03T23:22:06Z</time>
					</trkpt>
					<trkpt lat="44.298620" lon="5.247020">
						<ele>865</ele>
						<time>2026-09-03T23:22:22Z</time>
					</trkpt>
					<trkpt lat="44.298580" lon="5.247640">
						<ele>854</ele>
						<time>2026-09-03T23:22:44Z</time>
					</trkpt>
					<trkpt lat="44.298630" lon="5.247910">
						<ele>850</ele>
						<time>2026-09-03T23:22:54Z</time>
					</trkpt>
					<trkpt lat="44.298660" lon="5.248290">
						<ele>845</ele>
						<time>2026-09-03T23:23:08Z</time>
					</trkpt>
					<trkpt lat="44.298580" lon="5.249360">
						<ele>850</ele>
						<time>2026-09-03T23:23:46Z</time>
					</trkpt>
					<trkpt lat="44.298630" lon="5.250380">
						<ele>846</ele>
						<time>2026-09-03T23:24:23Z</time>
					</trkpt>
					<trkpt lat="44.298600" lon="5.250720">
						<ele>845</ele>
						<time>2026-09-03T23:24:35Z</time>
					</trkpt>
					<trkpt lat="44.298420" lon="5.250960">
						<ele>848</ele>
						<time>2026-09-03T23:24:48Z</time>
					</trkpt>
					<trkpt lat="44.298400" lon="5.251070">
						<ele>846</ele>
						<time>2026-09-03T23:24:52Z</time>
					</trkpt>
					<trkpt lat="44.298240" lon="5.251370">
						<ele>844</ele>
						<time>2026-09-03T23:25:05Z</time>
					</trkpt>
					<trkpt lat="44.298220" lon="5.251460">
						<ele>843</ele>
						<time>2026-09-03T23:25:08Z</time>
					</trkpt>
					<trkpt lat="44.298110" lon="5.251610">
						<ele>844</ele>
						<time>2026-09-03T23:25:16Z</time>
					</trkpt>
					<trkpt lat="44.298080" lon="5.251760">
						<ele>842</ele>
						<time>2026-09-03T23:25:22Z</time>
					</trkpt>
					<trkpt lat="44.298030" lon="5.251830">
						<ele>842</ele>
						<time>2026-09-03T23:25:25Z</time>
					</trkpt>
					<trkpt lat="44.297990" lon="5.251830">
						<ele>844</ele>
						<time>2026-09-03T23:25:27Z</time>
					</trkpt>
					<trkpt lat="44.298000" lon="5.251660">
						<ele>848</ele>
						<time>2026-09-03T23:25:33Z</time>
					</trkpt>
					<trkpt lat="44.297880" lon="5.251780">
						<ele>850</ele>
						<time>2026-09-03T23:25:41Z</time>
					</trkpt>
					<trkpt lat="44.297810" lon="5.252110">
						<ele>847</ele>
						<time>2026-09-03T23:25:53Z</time>
					</trkpt>
					<trkpt lat="44.297670" lon="5.252260">
						<ele>852</ele>
						<time>2026-09-03T23:26:02Z</time>
					</trkpt>
					<trkpt lat="44.297600" lon="5.252380">
						<ele>855</ele>
						<time>2026-09-03T23:26:07Z</time>
					</trkpt>
					<trkpt lat="44.297520" lon="5.252670">
						<ele>853</ele>
						<time>2026-09-03T23:26:19Z</time>
					</trkpt>
					<trkpt lat="44.297520" lon="5.252960">
						<ele>845</ele>
						<time>2026-09-03T23:26:29Z</time>
					</trkpt>
					<trkpt lat="44.297500" lon="5.253020">
						<ele>845</ele>
						<time>2026-09-03T23:26:31Z</time>
					</trkpt>
					<trkpt lat="44.297410" lon="5.253050">
						<ele>844</ele>
						<time>2026-09-03T23:26:36Z</time>
					</trkpt>
					<trkpt lat="44.297310" lon="5.253050">
						<ele>844</ele>
						<time>2026-09-03T23:26:41Z</time>
					</trkpt>
					<trkpt lat="44.296880" lon="5.253260">
						<ele>844</ele>
						<time>2026-09-03T23:27:04Z</time>
					</trkpt>
					<trkpt lat="44.296820" lon="5.253260">
						<ele>844</ele>
						<time>2026-09-03T23:27:07Z</time>
					</trkpt>
					<trkpt lat="44.296750" lon="5.253410">
						<ele>845</ele>
						<time>2026-09-03T23:27:13Z</time>
					</trkpt>
					<trkpt lat="44.296600" lon="5.253220">
						<ele>843</ele>
						<time>2026-09-03T23:27:23Z</time>
					</trkpt>
					<trkpt lat="44.296540" lon="5.253240">
						<ele>841</ele>
						<time>2026-09-03T23:27:26Z</time>
					</trkpt>
					<trkpt lat="44.296460" lon="5.253330">
						<ele>838</ele>
						<time>2026-09-03T23:27:31Z</time>
					</trkpt>
					<trkpt lat="44.296160" lon="5.253430">
						<ele>828</ele>
						<time>2026-09-03T23:27:47Z</time>
					</trkpt>
					<trkpt lat="44.295990" lon="5.253580">
						<ele>825</ele>
						<time>2026-09-03T23:27:57Z</time>
					</trkpt>
					<trkpt lat="44.295790" lon="5.253850">
						<ele>824</ele>
						<time>2026-09-03T23:28:11Z</time>
					</trkpt>
					<trkpt lat="44.295660" lon="5.253910">
						<ele>819</ele>
						<time>2026-09-03T23:28:18Z</time>
					</trkpt>
					<trkpt lat="44.295310" lon="5.254210">
						<ele>808</ele>
						<time>2026-09-03T23:28:38Z</time>
					</trkpt>
					<trkpt lat="44.295070" lon="5.254580">
						<ele>802</ele>
						<time>2026-09-03T23:28:56Z</time>
					</trkpt>
					<trkpt lat="44.294470" lon="5.254980">
						<ele>784</ele>
						<time>2026-09-03T23:29:29Z</time>
					</trkpt>
					<trkpt lat="44.294330" lon="5.255090">
						<ele>780</ele>
						<time>2026-09-03T23:29:37Z</time>
					</trkpt>
					<trkpt lat="44.293990" lon="5.255430">
						<ele>776</ele>
						<time>2026-09-03T23:29:58Z</time>
					</trkpt>
					<trkpt lat="44.293620" lon="5.255690">
						<ele>767</ele>
						<time>2026-09-03T23:30:19Z</time>
					</trkpt>
					<trkpt lat="44.293360" lon="5.255980">
						<ele>762</ele>
						<time>2026-09-03T23:30:36Z</time>
					</trkpt>
					<trkpt lat="44.293200" lon="5.256220">
						<ele>760</ele>
						<time>2026-09-03T23:30:48Z</time>
					</trkpt>
					<trkpt lat="44.292980" lon="5.256450">
						<ele>755</ele>
						<time>2026-09-03T23:31:01Z</time>
					</trkpt>
					<trkpt lat="44.292790" lon="5.256590">
						<ele>749</ele>
						<time>2026-09-03T23:31:12Z</time>
					</trkpt>
					<trkpt lat="44.292710" lon="5.256580">
						<ele>746</ele>
						<time>2026-09-03T23:31:16Z</time>
					</trkpt>
					<trkpt lat="44.292150" lon="5.256100">
						<ele>726</ele>
						<time>2026-09-03T23:31:49Z</time>
					</trkpt>
					<trkpt lat="44.292090" lon="5.256020">
						<ele>724</ele>
						<time>2026-09-03T23:31:53Z</time>
					</trkpt>
					<trkpt lat="44.291860" lon="5.255470">
						<ele>714</ele>
						<time>2026-09-03T23:32:16Z</time>
					</trkpt>
					<trkpt lat="44.291830" lon="5.255340">
						<ele>712</ele>
						<time>2026-09-03T23:32:21Z</time>
					</trkpt>
					<trkpt lat="44.291780" lon="5.255380">
						<ele>710</ele>
						<time>2026-09-03T23:32:24Z</time>
					</trkpt>
					<trkpt lat="44.291700" lon="5.256130">
						<ele>710</ele>
						<time>2026-09-03T23:32:51Z</time>
					</trkpt>
					<trkpt lat="44.291690" lon="5.256490">
						<ele>710</ele>
						<time>2026-09-03T23:33:04Z</time>
					</trkpt>
					<trkpt lat="44.291720" lon="5.256710">
						<ele>711</ele>
						<time>2026-09-03T23:33:12Z</time>
					</trkpt>
					<trkpt lat="44.291660" lon="5.256710">
						<ele>709</ele>
						<time>2026-09-03T23:33:15Z</time>
					</trkpt>
					<trkpt lat="44.291550" lon="5.256570">
						<ele>706</ele>
						<time>2026-09-03T23:33:22Z</time>
					</trkpt>
					<trkpt lat="44.291290" lon="5.256390">
						<ele>699</ele>
						<time>2026-09-03T23:33:37Z</time>
					</trkpt>
					<trkpt lat="44.291200" lon="5.256410">
						<ele>696</ele>
						<time>2026-09-03T23:33:41Z</time>
					</trkpt>
					<trkpt lat="44.291060" lon="5.256580">
						<ele>694</ele>
						<time>2026-09-03T23:33:51Z</time>
					</trkpt>
					<trkpt lat="44.291020" lon="5.256590">
						<ele>693</ele>
						<time>2026-09-03T23:33:53Z</time>
					</trkpt>
					<trkpt lat="44.290550" lon="5.256370">
						<ele>680</ele>
						<time>2026-09-03T23:34:17Z</time>
					</trkpt>
					<trkpt lat="44.290470" lon="5.256360">
						<ele>678</ele>
						<time>2026-09-03T23:34:21Z</time>
					</trkpt>
					<trkpt lat="44.290230" lon="5.256480">
						<ele>676</ele>
						<time>2026-09-03T23:34:34Z</time>
					</trkpt>
					<trkpt lat="44.290030" lon="5.256440">
						<ele>671</ele>
						<time>2026-09-03T23:34:44Z</time>
					</trkpt>
					<trkpt lat="44.289840" lon="5.256450">
						<ele>667</ele>
						<time>2026-09-03T23:34:54Z</time>
					</trkpt>
					<trkpt lat="44.289820" lon="5.256490">
						<ele>668</ele>
						<time>2026-09-03T23:34:56Z</time>
					</trkpt>
					<trkpt lat="44.289520" lon="5.256670">
						<ele>665</ele>
						<time>2026-09-03T23:35:12Z</time>
					</trkpt>
					<trkpt lat="44.289430" lon="5.256760">
						<ele>664</ele>
						<time>2026-09-03T23:35:17Z</time>
					</trkpt>
					<trkpt lat="44.289200" lon="5.256760">
						<ele>659</ele>
						<time>2026-09-03T23:35:29Z</time>
					</trkpt>
					<trkpt lat="44.288820" lon="5.256970">
						<ele>653</ele>
						<time>2026-09-03T23:35:49Z</time>
					</trkpt>
					<trkpt lat="44.287420" lon="5.258750">
						<ele>640</ele>
						<time>2026-09-03T23:37:24Z</time>
					</trkpt>
					<trkpt lat="44.287390" lon="5.258830">
						<ele>640</ele>
						<time>2026-09-03T23:37:27Z</time>
					</trkpt>
					<trkpt lat="44.287160" lon="5.259080">
						<ele>636</ele>
						<time>2026-09-03T23:37:42Z</time>
					</trkpt>
					<trkpt lat="44.287060" lon="5.259270">
						<ele>633</ele>
						<time>2026-09-03T23:37:50Z</time>
					</trkpt>
					<trkpt lat="44.287060" lon="5.259520">
						<ele>631</ele>
						<time>2026-09-03T23:37:59Z</time>
					</trkpt>
					<trkpt lat="44.287150" lon="5.259990">
						<ele>630</ele>
						<time>2026-09-03T23:38:17Z</time>
					</trkpt>
					<trkpt lat="44.287280" lon="5.260250">
						<ele>630</ele>
						<time>2026-09-03T23:38:28Z</time>
					</trkpt>
					<trkpt lat="44.287350" lon="5.260470">
						<ele>629</ele>
						<time>2026-09-03T23:38:37Z</time>
					</trkpt>
					<trkpt lat="44.287350" lon="5.260620">
						<ele>627</ele>
						<time>2026-09-03T23:38:42Z</time>
					</trkpt>
					<trkpt lat="44.287300" lon="5.260830">
						<ele>623</ele>
						<time>2026-09-03T23:38:50Z</time>
					</trkpt>
					<trkpt lat="44.287270" lon="5.260860">
						<ele>622</ele>
						<time>2026-09-03T23:38:52Z</time>
					</trkpt>
					<trkpt lat="44.287260" lon="5.261080">
						<ele>620</ele>
						<time>2026-09-03T23:39:00Z</time>
					</trkpt>
					<trkpt lat="44.287500" lon="5.261730">
						<ele>621</ele>
						<time>2026-09-03T23:39:26Z</time>
					</trkpt>
					<trkpt lat="44.287520" lon="5.261870">
						<ele>620</ele>
						<time>2026-09-03T23:39:31Z</time>
					</trkpt>
					<trkpt lat="44.287460" lon="5.262000">
						<ele>618</ele>
						<time>2026-09-03T23:39:37Z</time>
					</trkpt>
					<trkpt lat="44.287300" lon="5.261960">
						<ele>615</ele>
						<time>2026-09-03T23:39:45Z</time>
					</trkpt>
					<trkpt lat="44.287030" lon="5.261990">
						<ele>609</ele>
						<time>2026-09-03T23:39:58Z</time>
					</trkpt>
					<trkpt lat="44.286940" lon="5.261940">
						<ele>607</ele>
						<time>2026-09-03T23:40:03Z</time>
					</trkpt>
					<trkpt lat="44.286760" lon="5.261620">
						<ele>604</ele>
						<time>2026-09-03T23:40:18Z</time>
					</trkpt>
					<trkpt lat="44.286560" lon="5.261360">
						<ele>600</ele>
						<time>2026-09-03T23:40:31Z</time>
					</trkpt>
					<trkpt lat="44.286420" lon="5.260960">
						<ele>598</ele>
						<time>2026-09-03T23:40:47Z</time>
					</trkpt>
					<trkpt lat="44.286350" lon="5.260890">
						<ele>597</ele>
						<time>2026-09-03T23:40:52Z</time>
					</trkpt>
					<trkpt lat="44.286050" lon="5.260700">
						<ele>592</ele>
						<time>2026-09-03T23:41:08Z</time>
					</trkpt>
					<trkpt lat="44.285840" lon="5.260250">
						<ele>592</ele>
						<time>2026-09-03T23:41:27Z</time>
					</trkpt>
					<trkpt lat="44.285200" lon="5.259530">
						<ele>584</ele>
						<time>2026-09-03T23:42:09Z</time>
					</trkpt>
					<trkpt lat="44.285130" lon="5.259370">
						<ele>584</ele>
						<time>2026-09-03T23:42:15Z</time>
					</trkpt>
					<trkpt lat="44.285120" lon="5.259210">
						<ele>585</ele>
						<time>2026-09-03T23:42:21Z</time>
					</trkpt>
					<trkpt lat="44.285150" lon="5.259090">
						<ele>585</ele>
						<time>2026-09-03T23:42:26Z</time>
					</trkpt>
					<trkpt lat="44.285280" lon="5.258910">
						<ele>585</ele>
						<time>2026-09-03T23:42:35Z</time>
					</trkpt>
					<trkpt lat="44.285290" lon="5.258860">
						<ele>584</ele>
						<time>2026-09-03T23:42:37Z</time>
					</trkpt>
					<trkpt lat="44.285260" lon="5.258810">
						<ele>582</ele>
						<time>2026-09-03T23:42:39Z</time>
					</trkpt>
					<trkpt lat="44.285230" lon="5.258800">
						<ele>582</ele>
						<time>2026-09-03T23:42:40Z</time>
					</trkpt>
					<trkpt lat="44.285070" lon="5.258890">
						<ele>580</ele>
						<time>2026-09-03T23:42:49Z</time>
					</trkpt>
					<trkpt lat="44.284850" lon="5.258830">
						<ele>576</ele>
						<time>2026-09-03T23:43:00Z</time>
					</trkpt>
					<trkpt lat="44.284420" lon="5.258900">
						<ele>572</ele>
						<time>2026-09-03T23:43:22Z</time>
					</trkpt>
					<trkpt lat="44.284230" lon="5.258900">
						<ele>570</ele>
						<time>2026-09-03T23:43:31Z</time>
					</trkpt>
					<trkpt lat="44.284200" lon="5.258870">
						<ele>569</ele>
						<time>2026-09-03T23:43:33Z</time>
					</trkpt>
					<trkpt lat="44.284210" lon="5.258780">
						<ele>567</ele>
						<time>2026-09-03T23:43:37Z</time>
					</trkpt>
					<trkpt lat="44.284370" lon="5.258750">
						<ele>569</ele>
						<time>2026-09-03T23:43:45Z</time>
					</trkpt>
					<trkpt lat="44.284470" lon="5.258680">
						<ele>569</ele>
						<time>2026-09-03T23:43:50Z</time>
					</trkpt>
					<trkpt lat="44.284900" lon="5.258290">
						<ele>568</ele>
						<time>2026-09-03T23:44:16Z</time>
					</trkpt>
					<trkpt lat="44.284920" lon="5.258240">
						<ele>568</ele>
						<time>2026-09-03T23:44:18Z</time>
					</trkpt>
					<trkpt lat="44.284910" lon="5.258180">
						<ele>567</ele>
						<time>2026-09-03T23:44:20Z</time>
					</trkpt>
					<trkpt lat="44.284880" lon="5.258160">
						<ele>567</ele>
						<time>2026-09-03T23:44:22Z</time>
					</trkpt>
					<trkpt lat="44.284700" lon="5.258260">
						<ele>566</ele>
						<time>2026-09-03T23:44:32Z</time>
					</trkpt>
					<trkpt lat="44.284310" lon="5.258330">
						<ele>562</ele>
						<time>2026-09-03T23:44:51Z</time>
					</trkpt>
					<trkpt lat="44.284150" lon="5.258330">
						<ele>560</ele>
						<time>2026-09-03T23:44:59Z</time>
					</trkpt>
					<trkpt lat="44.284030" lon="5.258280">
						<ele>558</ele>
						<time>2026-09-03T23:45:05Z</time>
					</trkpt>
					<trkpt lat="44.284000" lon="5.258220">
						<ele>557</ele>
						<time>2026-09-03T23:45:08Z</time>
					</trkpt>
					<trkpt lat="44.284010" lon="5.258160">
						<ele>556</ele>
						<time>2026-09-03T23:45:10Z</time>
					</trkpt>
					<trkpt lat="44.284220" lon="5.258040">
						<ele>557</ele>
						<time>2026-09-03T23:45:22Z</time>
					</trkpt>
					<trkpt lat="44.284290" lon="5.257890">
						<ele>555</ele>
						<time>2026-09-03T23:45:28Z</time>
					</trkpt>
					<trkpt lat="44.284270" lon="5.257590">
						<ele>551</ele>
						<time>2026-09-03T23:45:39Z</time>
					</trkpt>
					<trkpt lat="44.284310" lon="5.257350">
						<ele>549</ele>
						<time>2026-09-03T23:45:48Z</time>
					</trkpt>
					<trkpt lat="44.284290" lon="5.257310">
						<ele>548</ele>
						<time>2026-09-03T23:45:49Z</time>
					</trkpt>
					<trkpt lat="44.284070" lon="5.257500">
						<ele>547</ele>
						<time>2026-09-03T23:46:02Z</time>
					</trkpt>
					<trkpt lat="44.283950" lon="5.257570">
						<ele>546</ele>
						<time>2026-09-03T23:46:09Z</time>
					</trkpt>
					<trkpt lat="44.283600" lon="5.257560">
						<ele>542</ele>
						<time>2026-09-03T23:46:26Z</time>
					</trkpt>
					<trkpt lat="44.283330" lon="5.257620">
						<ele>539</ele>
						<time>2026-09-03T23:46:40Z</time>
					</trkpt>
					<trkpt lat="44.282940" lon="5.257860">
						<ele>539</ele>
						<time>2026-09-03T23:47:01Z</time>
					</trkpt>
					<trkpt lat="44.282600" lon="5.257890">
						<ele>535</ele>
						<time>2026-09-03T23:47:18Z</time>
					</trkpt>
					<trkpt lat="44.282310" lon="5.258040">
						<ele>535</ele>
						<time>2026-09-03T23:47:34Z</time>
					</trkpt>
					<trkpt lat="44.281940" lon="5.258080">
						<ele>533</ele>
						<time>2026-09-03T23:47:53Z</time>
					</trkpt>
					<trkpt lat="44.281690" lon="5.258160">
						<ele>533</ele>
						<time>2026-09-03T23:48:05Z</time>
					</trkpt>
					<trkpt lat="44.281170" lon="5.258200">
						<ele>522</ele>
						<time>2026-09-03T23:48:31Z</time>
					</trkpt>
					<trkpt lat="44.280970" lon="5.258360">
						<ele>521</ele>
						<time>2026-09-03T23:48:43Z</time>
					</trkpt>
					<trkpt lat="44.280480" lon="5.259000">
						<ele>526</ele>
						<time>2026-09-03T23:49:17Z</time>
					</trkpt>
					<trkpt lat="44.280390" lon="5.259080">
						<ele>526</ele>
						<time>2026-09-03T23:49:22Z</time>
					</trkpt>
					<trkpt lat="44.280030" lon="5.259220">
						<ele>521</ele>
						<time>2026-09-03T23:49:41Z</time>
					</trkpt>
					<trkpt lat="44.279360" lon="5.259230">
						<ele>505</ele>
						<time>2026-09-03T23:50:14Z</time>
					</trkpt>
					<trkpt lat="44.279260" lon="5.259270">
						<ele>503</ele>
						<time>2026-09-03T23:50:19Z</time>
					</trkpt>
					<trkpt lat="44.279240" lon="5.259410">
						<ele>504</ele>
						<time>2026-09-03T23:50:24Z</time>
					</trkpt>
					<trkpt lat="44.279540" lon="5.259800">
						<ele>512</ele>
						<time>2026-09-03T23:50:45Z</time>
					</trkpt>
					<trkpt lat="44.279620" lon="5.259970">
						<ele>514</ele>
						<time>2026-09-03T23:50:52Z</time>
					</trkpt>
					<trkpt lat="44.279720" lon="5.260290">
						<ele>510</ele>
						<time>2026-09-03T23:51:05Z</time>
					</trkpt>
					<trkpt lat="44.280070" lon="5.260520">
						<ele>510</ele>
						<time>2026-09-03T23:51:24Z</time>
					</trkpt>
					<trkpt lat="44.280280" lon="5.260550">
						<ele>512</ele>
						<time>2026-09-03T23:51:35Z</time>
					</trkpt>
					<trkpt lat="44.280330" lon="5.260590">
						<ele>512</ele>
						<time>2026-09-03T23:51:38Z</time>
					</trkpt>
					<trkpt lat="44.280370" lon="5.260690">
						<ele>511</ele>
						<time>2026-09-03T23:51:42Z</time>
					</trkpt>
					<trkpt lat="44.280520" lon="5.261140">
						<ele>505</ele>
						<time>2026-09-03T23:51:59Z</time>
					</trkpt>
					<trkpt lat="44.280550" lon="5.261370">
						<ele>502</ele>
						<time>2026-09-03T23:52:08Z</time>
					</trkpt>
					<trkpt lat="44.280480" lon="5.261650">
						<ele>496</ele>
						<time>2026-09-03T23:52:18Z</time>
					</trkpt>
					<trkpt lat="44.280280" lon="5.262070">
						<ele>487</ele>
						<time>2026-09-03T23:52:36Z</time>
					</trkpt>
					<trkpt lat="44.280280" lon="5.262140">
						<ele>486</ele>
						<time>2026-09-03T23:52:39Z</time>
					</trkpt>
					<trkpt lat="44.280330" lon="5.262200">
						<ele>486</ele>
						<time>2026-09-03T23:52:42Z</time>
					</trkpt>
					<trkpt lat="44.280430" lon="5.262210">
						<ele>486</ele>
						<time>2026-09-03T23:52:47Z</time>
					</trkpt>
					<trkpt lat="44.280810" lon="5.261660">
						<ele>501</ele>
						<time>2026-09-03T23:53:15Z</time>
					</trkpt>
					<trkpt lat="44.280900" lon="5.261590">
						<ele>503</ele>
						<time>2026-09-03T23:53:20Z</time>
					</trkpt>
					<trkpt lat="44.281280" lon="5.261630">
						<ele>505</ele>
						<time>2026-09-03T23:53:39Z</time>
					</trkpt>
					<trkpt lat="44.281470" lon="5.261620">
						<ele>507</ele>
						<time>2026-09-03T23:53:48Z</time>
					</trkpt>
					<trkpt lat="44.281820" lon="5.261490">
						<ele>513</ele>
						<time>2026-09-03T23:54:07Z</time>
					</trkpt>
					<trkpt lat="44.282010" lon="5.261340">
						<ele>517</ele>
						<time>2026-09-03T23:54:17Z</time>
					</trkpt>
					<trkpt lat="44.282270" lon="5.261240">
						<ele>520</ele>
						<time>2026-09-03T23:54:31Z</time>
					</trkpt>
					<trkpt lat="44.282790" lon="5.261320">
						<ele>524</ele>
						<time>2026-09-03T23:54:57Z</time>
					</trkpt>
					<trkpt lat="44.282870" lon="5.261380">
						<ele>524</ele>
						<time>2026-09-03T23:55:02Z</time>
					</trkpt>
					<trkpt lat="44.282950" lon="5.261540">
						<ele>523</ele>
						<time>2026-09-03T23:55:09Z</time>
					</trkpt>
					<trkpt lat="44.282910" lon="5.262390">
						<ele>517</ele>
						<time>2026-09-03T23:55:39Z</time>
					</trkpt>
					<trkpt lat="44.282880" lon="5.262580">
						<ele>516</ele>
						<time>2026-09-03T23:55:46Z</time>
					</trkpt>
					<trkpt lat="44.282610" lon="5.263200">
						<ele>510</ele>
						<time>2026-09-03T23:56:12Z</time>
					</trkpt>
					<trkpt lat="44.282560" lon="5.263820">
						<ele>509</ele>
						<time>2026-09-03T23:56:35Z</time>
					</trkpt>
					<trkpt lat="44.282430" lon="5.264740">
						<ele>504</ele>
						<time>2026-09-03T23:57:08Z</time>
					</trkpt>
					<trkpt lat="44.282450" lon="5.265040">
						<ele>503</ele>
						<time>2026-09-03T23:57:19Z</time>
					</trkpt>
					<trkpt lat="44.282240" lon="5.265370">
						<ele>497</ele>
						<time>2026-09-03T23:57:35Z</time>
					</trkpt>
					<trkpt lat="44.282200" lon="5.265540">
						<ele>495</ele>
						<time>2026-09-03T23:57:41Z</time>
					</trkpt>
					<trkpt lat="44.282190" lon="5.266100">
						<ele>491</ele>
						<time>2026-09-03T23:58:01Z</time>
					</trkpt>
					<trkpt lat="44.282310" lon="5.266490">
						<ele>491</ele>
						<time>2026-09-03T23:58:16Z</time>
					</trkpt>
					<trkpt lat="44.282380" lon="5.267140">
						<ele>487</ele>
						<time>2026-09-03T23:58:40Z</time>
					</trkpt>
					<trkpt lat="44.282320" lon="5.267280">
						<ele>485</ele>
						<time>2026-09-03T23:58:46Z</time>
					</trkpt>
					<trkpt lat="44.282000" lon="5.267590">
						<ele>478</ele>
						<time>2026-09-03T23:59:05Z</time>
					</trkpt>
					<trkpt lat="44.281920" lon="5.267630">
						<ele>476</ele>
						<time>2026-09-03T23:59:10Z</time>
					</trkpt>
					<trkpt lat="44.281690" lon="5.267680">
						<ele>473</ele>
						<time>2026-09-03T23:59:21Z</time>
					</trkpt>
					<trkpt lat="44.281390" lon="5.267690">
						<ele>469</ele>
						<time>2026-09-03T23:59:36Z</time>
					</trkpt>
					<trkpt lat="44.281240" lon="5.267600">
						<ele>467</ele>
						<time>2026-09-03T23:59:44Z</time>
					</trkpt>
					<trkpt lat="44.280880" lon="5.267220">
						<ele>463</ele>
						<time>2026-09-04T00:00:07Z</time>
					</trkpt>
					<trkpt lat="44.280630" lon="5.267000">
						<ele>458</ele>
						<time>2026-09-04T00:00:22Z</time>
					</trkpt>
					<trkpt lat="44.280500" lon="5.266750">
						<ele>455</ele>
						<time>2026-09-04T00:00:33Z</time>
					</trkpt>
					<trkpt lat="44.280440" lon="5.266740">
						<ele>454</ele>
						<time>2026-09-04T00:00:36Z</time>
					</trkpt>
					<trkpt lat="44.280410" lon="5.266780">
						<ele>453</ele>
						<time>2026-09-04T00:00:38Z</time>
					</trkpt>
					<trkpt lat="44.280290" lon="5.267250">
						<ele>452</ele>
						<time>2026-09-04T00:00:56Z</time>
					</trkpt>
					<trkpt lat="44.280220" lon="5.267430">
						<ele>451</ele>
						<time>2026-09-04T00:01:03Z</time>
					</trkpt>
					<trkpt lat="44.280110" lon="5.267540">
						<ele>449</ele>
						<time>2026-09-04T00:01:10Z</time>
					</trkpt>
					<trkpt lat="44.279820" lon="5.267660">
						<ele>444</ele>
						<time>2026-09-04T00:01:25Z</time>
					</trkpt>
					<trkpt lat="44.279760" lon="5.267710">
						<ele>444</ele>
						<time>2026-09-04T00:01:29Z</time>
					</trkpt>
					<trkpt lat="44.279740" lon="5.267770">
						<ele>443</ele>
						<time>2026-09-04T00:01:31Z</time>
					</trkpt>
					<trkpt lat="44.279870" lon="5.268580">
						<ele>440</ele>
						<time>2026-09-04T00:02:01Z</time>
					</trkpt>
					<trkpt lat="44.279860" lon="5.268720">
						<ele>437</ele>
						<time>2026-09-04T00:02:06Z</time>
					</trkpt>
					<trkpt lat="44.279810" lon="5.268760">
						<ele>436</ele>
						<time>2026-09-04T00:02:09Z</time>
					</trkpt>
					<trkpt lat="44.279500" lon="5.268790">
						<ele>433</ele>
						<time>2026-09-04T00:02:24Z</time>
					</trkpt>
					<trkpt lat="44.279350" lon="5.268770">
						<ele>432</ele>
						<time>2026-09-04T00:02:32Z</time>
					</trkpt>
					<trkpt lat="44.278770" lon="5.268520">
						<ele>426</ele>
						<time>2026-09-04T00:03:02Z</time>
					</trkpt>
					<trkpt lat="44.278590" lon="5.268350">
						<ele>423</ele>
						<time>2026-09-04T00:03:13Z</time>
					</trkpt>
					<trkpt lat="44.278520" lon="5.268250">
						<ele>422</ele>
						<time>2026-09-04T00:03:18Z</time>
					</trkpt>
					<trkpt lat="44.278480" lon="5.268120">
						<ele>421</ele>
						<time>2026-09-04T00:03:23Z</time>
					</trkpt>
					<trkpt lat="44.278390" lon="5.267640">
						<ele>419</ele>
						<time>2026-09-04T00:03:41Z</time>
					</trkpt>
					<trkpt lat="44.278380" lon="5.267460">
						<ele>418</ele>
						<time>2026-09-04T00:03:47Z</time>
					</trkpt>
					<trkpt lat="44.278430" lon="5.267190">
						<ele>417</ele>
						<time>2026-09-04T00:03:57Z</time>
					</trkpt>
					<trkpt lat="44.278380" lon="5.267130">
						<ele>415</ele>
						<time>2026-09-04T00:04:01Z</time>
					</trkpt>
					<trkpt lat="44.278340" lon="5.267150">
						<ele>415</ele>
						<time>2026-09-04T00:04:03Z</time>
					</trkpt>
					<trkpt lat="44.278220" lon="5.267470">
						<ele>416</ele>
						<time>2026-09-04T00:04:16Z</time>
					</trkpt>
					<trkpt lat="44.278050" lon="5.267830">
						<ele>413</ele>
						<time>2026-09-04T00:04:31Z</time>
					</trkpt>
					<trkpt lat="44.277840" lon="5.268450">
						<ele>407</ele>
						<time>2026-09-04T00:04:56Z</time>
					</trkpt>
					<trkpt lat="44.277700" lon="5.268730">
						<ele>402</ele>
						<time>2026-09-04T00:05:08Z</time>
					</trkpt>
					<trkpt lat="44.277490" lon="5.269280">
						<ele>395</ele>
						<time>2026-09-04T00:05:30Z</time>
					</trkpt>
					<trkpt lat="44.277360" lon="5.269860">
						<ele>391</ele>
						<time>2026-09-04T00:05:52Z</time>
					</trkpt>
					<trkpt lat="44.277400" lon="5.270300">
						<ele>389</ele>
						<time>2026-09-04T00:06:08Z</time>
					</trkpt>
					<trkpt lat="44.277360" lon="5.270470">
						<ele>387</ele>
						<time>2026-09-04T00:06:14Z</time>
					</trkpt>
					<trkpt lat="44.277040" lon="5.270820">
						<ele>382</ele>
						<time>2026-09-04T00:06:35Z</time>
					</trkpt>
					<trkpt lat="44.276810" lon="5.270940">
						<ele>379</ele>
						<time>2026-09-04T00:06:47Z</time>
					</trkpt>
					<trkpt lat="44.276740" lon="5.271010">
						<ele>379</ele>
						<time>2026-09-04T00:06:51Z</time>
					</trkpt>
					<trkpt lat="44.276660" lon="5.271110">
						<ele>378</ele>
						<time>2026-09-04T00:06:57Z</time>
					</trkpt>
					<trkpt lat="44.276450" lon="5.271520">
						<ele>377</ele>
						<time>2026-09-04T00:07:15Z</time>
					</trkpt>
					<trkpt lat="44.276140" lon="5.271850">
						<ele>376</ele>
						<time>2026-09-04T00:07:34Z</time>
					</trkpt>
					<trkpt lat="44.276040" lon="5.272000">
						<ele>376</ele>
						<time>2026-09-04T00:07:42Z</time>
					</trkpt>
					<trkpt lat="44.275920" lon="5.272060">
						<ele>375</ele>
						<time>2026-09-04T00:07:48Z</time>
					</trkpt>
					<trkpt lat="44.275560" lon="5.272120">
						<ele>374</ele>
						<time>2026-09-04T00:08:06Z</time>
					</trkpt>
					<trkpt lat="44.275120" lon="5.272270">
						<ele>372</ele>
						<time>2026-09-04T00:08:29Z</time>
					</trkpt>
					<trkpt lat="44.275030" lon="5.272260">
						<ele>372</ele>
						<time>2026-09-04T00:08:33Z</time>
					</trkpt>
					<trkpt lat="44.275240" lon="5.274060">
						<ele>373</ele>
						<time>2026-09-04T00:09:39Z</time>
					</trkpt>
					<trkpt lat="44.275160" lon="5.274600">
						<ele>372</ele>
						<time>2026-09-04T00:09:58Z</time>
					</trkpt>
					<trkpt lat="44.275160" lon="5.275070">
						<ele>370</ele>
						<time>2026-09-04T00:10:15Z</time>
					</trkpt>
					<trkpt lat="44.275590" lon="5.275380">
						<ele>372</ele>
						<time>2026-09-04T00:10:39Z</time>
					</trkpt>
					<trkpt lat="44.276020" lon="5.275650">
						<ele>372</ele>
						<time>2026-09-04T00:11:03Z</time>
					</trkpt>
					<trkpt lat="44.276040" lon="5.275870">
						<ele>372</ele>
						<time>2026-09-04T00:11:11Z</time>
					</trkpt>
					<trkpt lat="44.276090" lon="5.275980">
						<ele>372</ele>
						<time>2026-09-04T00:11:16Z</time>
					</trkpt>
					<trkpt lat="44.276040" lon="5.276030">
						<ele>372</ele>
						<time>2026-09-04T00:11:19Z</time>
					</trkpt>
					</trkseg>
				</trk>
			</gpx>